<?xml version="1.0" encoding="UTF-8" standalone="no" ?>
<gpx xmlns="http://www.topografix.com/GPX/1/1" xmlns:xsi="http://www.w3.org/2001/XMLSchema-instance" xsi:schemaLocation="http://www.topografix.com/GPX/1/1 http://www.topografix.com/GPX/1/1/gpx.xsd" version="1.1" creator="VisuGPX - https://www.visugpx.com">
  <metadata>
    <name>2018-02-18 Bike ride-Chatillon-Limas</name>
    <desc><![CDATA[2018-02-18 Bike ride-Chatillon-Limas]]></desc>
  </metadata>
  <wpt lat="45.92461" lon="4.73716">
    <ele>174</ele>
    <name><![CDATA[2018-02-18 10:48 (Start)]]></name>
  </wpt>
  <wpt lat="45.92456" lon="4.73716">
    <ele>174</ele>
    <name><![CDATA[2018-02-18 10:48 (End)]]></name>
  </wpt>
  <trk>
    <name><![CDATA[2018-02-18 10:48]]></name>
    <trkseg>
      <trkpt lat="45.92461" lon="4.73716">
        <ele>174</ele>
        <time>2018-02-18T09:48:17.591Z</time>
      </trkpt>
      <trkpt lat="45.92461" lon="4.73716">
        <ele>174</ele>
        <time>2018-02-18T09:48:15Z</time>
      </trkpt>
      <trkpt lat="45.92461" lon="4.73714">
        <ele>174</ele>
        <time>2018-02-18T09:48:16Z</time>
      </trkpt>
      <trkpt lat="45.92461" lon="4.73713">
        <ele>174</ele>
        <time>2018-02-18T09:48:17Z</time>
      </trkpt>
      <trkpt lat="45.92462" lon="4.73713">
        <ele>174</ele>
        <time>2018-02-18T09:48:18Z</time>
      </trkpt>
      <trkpt lat="45.92467" lon="4.73705">
        <ele>174</ele>
        <time>2018-02-18T09:48:59Z</time>
      </trkpt>
      <trkpt lat="45.92468" lon="4.73702">
        <ele>174</ele>
        <time>2018-02-18T09:49:00Z</time>
      </trkpt>
      <trkpt lat="45.9247" lon="4.7369">
        <ele>174</ele>
        <time>2018-02-18T09:49:04Z</time>
      </trkpt>
      <trkpt lat="45.9247" lon="4.73686">
        <ele>174</ele>
        <time>2018-02-18T09:49:05Z</time>
      </trkpt>
      <trkpt lat="45.92471" lon="4.73676">
        <ele>174</ele>
        <time>2018-02-18T09:49:07Z</time>
      </trkpt>
      <trkpt lat="45.92471" lon="4.73671">
        <ele>174</ele>
        <time>2018-02-18T09:49:08Z</time>
      </trkpt>
      <trkpt lat="45.92471" lon="4.73661">
        <ele>174</ele>
        <time>2018-02-18T09:49:10Z</time>
      </trkpt>
      <trkpt lat="45.92472" lon="4.73656">
        <ele>174</ele>
        <time>2018-02-18T09:49:11Z</time>
      </trkpt>
      <trkpt lat="45.92474" lon="4.73647">
        <ele>174</ele>
        <time>2018-02-18T09:49:13Z</time>
      </trkpt>
      <trkpt lat="45.92475" lon="4.73642">
        <ele>174</ele>
        <time>2018-02-18T09:49:14Z</time>
      </trkpt>
      <trkpt lat="45.92475" lon="4.7363">
        <ele>174</ele>
        <time>2018-02-18T09:49:16Z</time>
      </trkpt>
      <trkpt lat="45.92474" lon="4.73623">
        <ele>174</ele>
        <time>2018-02-18T09:49:17Z</time>
      </trkpt>
      <trkpt lat="45.92473" lon="4.73616">
        <ele>174</ele>
        <time>2018-02-18T09:49:18Z</time>
      </trkpt>
      <trkpt lat="45.92472" lon="4.7361">
        <ele>174</ele>
        <time>2018-02-18T09:49:19Z</time>
      </trkpt>
      <trkpt lat="45.92474" lon="4.73598">
        <ele>174</ele>
        <time>2018-02-18T09:49:21Z</time>
      </trkpt>
      <trkpt lat="45.92473" lon="4.73592">
        <ele>174</ele>
        <time>2018-02-18T09:49:22Z</time>
      </trkpt>
      <trkpt lat="45.92473" lon="4.73583">
        <ele>173</ele>
        <time>2018-02-18T09:49:23Z</time>
      </trkpt>
      <trkpt lat="45.92473" lon="4.73577">
        <ele>173</ele>
        <time>2018-02-18T09:49:24Z</time>
      </trkpt>
      <trkpt lat="45.92473" lon="4.73566">
        <ele>173</ele>
        <time>2018-02-18T09:49:26Z</time>
      </trkpt>
      <trkpt lat="45.92472" lon="4.73561">
        <ele>173</ele>
        <time>2018-02-18T09:49:27Z</time>
      </trkpt>
      <trkpt lat="45.92469" lon="4.7355">
        <ele>173</ele>
        <time>2018-02-18T09:49:30Z</time>
      </trkpt>
      <trkpt lat="45.92467" lon="4.73547">
        <ele>173</ele>
        <time>2018-02-18T09:49:31Z</time>
      </trkpt>
      <trkpt lat="45.92462" lon="4.73544">
        <ele>173</ele>
        <time>2018-02-18T09:49:33Z</time>
      </trkpt>
      <trkpt lat="45.92455" lon="4.73547">
        <ele>174</ele>
        <time>2018-02-18T09:49:34Z</time>
      </trkpt>
      <trkpt lat="45.9245" lon="4.73548">
        <ele>174</ele>
        <time>2018-02-18T09:49:35Z</time>
      </trkpt>
      <trkpt lat="45.92446" lon="4.7355">
        <ele>174</ele>
        <time>2018-02-18T09:49:36Z</time>
      </trkpt>
      <trkpt lat="45.9244" lon="4.73554">
        <ele>174</ele>
        <time>2018-02-18T09:49:38Z</time>
      </trkpt>
      <trkpt lat="45.92435" lon="4.73557">
        <ele>174</ele>
        <time>2018-02-18T09:49:39Z</time>
      </trkpt>
      <trkpt lat="45.92426" lon="4.73561">
        <ele>174</ele>
        <time>2018-02-18T09:49:41Z</time>
      </trkpt>
      <trkpt lat="45.92422" lon="4.73563">
        <ele>174</ele>
        <time>2018-02-18T09:49:42Z</time>
      </trkpt>
      <trkpt lat="45.92414" lon="4.73566">
        <ele>173</ele>
        <time>2018-02-18T09:49:44Z</time>
      </trkpt>
      <trkpt lat="45.9241" lon="4.73569">
        <ele>173</ele>
        <time>2018-02-18T09:49:45Z</time>
      </trkpt>
      <trkpt lat="45.92405" lon="4.73573">
        <ele>173</ele>
        <time>2018-02-18T09:49:46Z</time>
      </trkpt>
      <trkpt lat="45.92402" lon="4.73575">
        <ele>173</ele>
        <time>2018-02-18T09:49:47Z</time>
      </trkpt>
      <trkpt lat="45.92395" lon="4.73577">
        <ele>173</ele>
        <time>2018-02-18T09:49:49Z</time>
      </trkpt>
      <trkpt lat="45.9239" lon="4.73579">
        <ele>173</ele>
        <time>2018-02-18T09:49:50Z</time>
      </trkpt>
      <trkpt lat="45.92384" lon="4.73581">
        <ele>173</ele>
        <time>2018-02-18T09:49:51Z</time>
      </trkpt>
      <trkpt lat="45.92379" lon="4.73583">
        <ele>173</ele>
        <time>2018-02-18T09:49:52Z</time>
      </trkpt>
      <trkpt lat="45.92373" lon="4.73587">
        <ele>173</ele>
        <time>2018-02-18T09:49:53Z</time>
      </trkpt>
      <trkpt lat="45.92369" lon="4.7359">
        <ele>173</ele>
        <time>2018-02-18T09:49:54Z</time>
      </trkpt>
      <trkpt lat="45.92364" lon="4.73593">
        <ele>173</ele>
        <time>2018-02-18T09:49:55Z</time>
      </trkpt>
      <trkpt lat="45.92359" lon="4.73595">
        <ele>173</ele>
        <time>2018-02-18T09:49:56Z</time>
      </trkpt>
      <trkpt lat="45.92351" lon="4.73599">
        <ele>173</ele>
        <time>2018-02-18T09:49:58Z</time>
      </trkpt>
      <trkpt lat="45.92347" lon="4.73602">
        <ele>173</ele>
        <time>2018-02-18T09:49:59Z</time>
      </trkpt>
      <trkpt lat="45.9234" lon="4.73608">
        <ele>173</ele>
        <time>2018-02-18T09:50:01Z</time>
      </trkpt>
      <trkpt lat="45.92335" lon="4.7361">
        <ele>173</ele>
        <time>2018-02-18T09:50:02Z</time>
      </trkpt>
      <trkpt lat="45.9233" lon="4.73613">
        <ele>172</ele>
        <time>2018-02-18T09:50:03Z</time>
      </trkpt>
      <trkpt lat="45.92325" lon="4.73615">
        <ele>172</ele>
        <time>2018-02-18T09:50:04Z</time>
      </trkpt>
      <trkpt lat="45.9232" lon="4.73617">
        <ele>172</ele>
        <time>2018-02-18T09:50:05Z</time>
      </trkpt>
      <trkpt lat="45.92312" lon="4.7362">
        <ele>172</ele>
        <time>2018-02-18T09:50:06Z</time>
      </trkpt>
      <trkpt lat="45.92306" lon="4.73623">
        <ele>172</ele>
        <time>2018-02-18T09:50:07Z</time>
      </trkpt>
      <trkpt lat="45.92301" lon="4.73624">
        <ele>172</ele>
        <time>2018-02-18T09:50:08Z</time>
      </trkpt>
      <trkpt lat="45.92296" lon="4.73628">
        <ele>172</ele>
        <time>2018-02-18T09:50:09Z</time>
      </trkpt>
      <trkpt lat="45.92292" lon="4.7363">
        <ele>172</ele>
        <time>2018-02-18T09:50:10Z</time>
      </trkpt>
      <trkpt lat="45.92286" lon="4.73634">
        <ele>172</ele>
        <time>2018-02-18T09:50:11Z</time>
      </trkpt>
      <trkpt lat="45.92281" lon="4.73637">
        <ele>172</ele>
        <time>2018-02-18T09:50:12Z</time>
      </trkpt>
      <trkpt lat="45.92273" lon="4.73643">
        <ele>172</ele>
        <time>2018-02-18T09:50:14Z</time>
      </trkpt>
      <trkpt lat="45.92267" lon="4.73646">
        <ele>172</ele>
        <time>2018-02-18T09:50:15Z</time>
      </trkpt>
      <trkpt lat="45.92259" lon="4.73648">
        <ele>171</ele>
        <time>2018-02-18T09:50:16Z</time>
      </trkpt>
      <trkpt lat="45.92254" lon="4.7365">
        <ele>171</ele>
        <time>2018-02-18T09:50:17Z</time>
      </trkpt>
      <trkpt lat="45.92249" lon="4.73652">
        <ele>171</ele>
        <time>2018-02-18T09:50:18Z</time>
      </trkpt>
      <trkpt lat="45.92244" lon="4.73656">
        <ele>171</ele>
        <time>2018-02-18T09:50:19Z</time>
      </trkpt>
      <trkpt lat="45.92239" lon="4.73659">
        <ele>171</ele>
        <time>2018-02-18T09:50:20Z</time>
      </trkpt>
      <trkpt lat="45.92234" lon="4.73663">
        <ele>171</ele>
        <time>2018-02-18T09:50:21Z</time>
      </trkpt>
      <trkpt lat="45.92228" lon="4.73666">
        <ele>171</ele>
        <time>2018-02-18T09:50:22Z</time>
      </trkpt>
      <trkpt lat="45.92222" lon="4.73669">
        <ele>171</ele>
        <time>2018-02-18T09:50:23Z</time>
      </trkpt>
      <trkpt lat="45.92216" lon="4.73672">
        <ele>171</ele>
        <time>2018-02-18T09:50:24Z</time>
      </trkpt>
      <trkpt lat="45.92211" lon="4.73674">
        <ele>171</ele>
        <time>2018-02-18T09:50:25Z</time>
      </trkpt>
      <trkpt lat="45.92206" lon="4.73677">
        <ele>171</ele>
        <time>2018-02-18T09:50:26Z</time>
      </trkpt>
      <trkpt lat="45.92201" lon="4.7368">
        <ele>171</ele>
        <time>2018-02-18T09:50:27Z</time>
      </trkpt>
      <trkpt lat="45.92196" lon="4.73685">
        <ele>171</ele>
        <time>2018-02-18T09:50:28Z</time>
      </trkpt>
      <trkpt lat="45.92191" lon="4.73688">
        <ele>171</ele>
        <time>2018-02-18T09:50:29Z</time>
      </trkpt>
      <trkpt lat="45.92186" lon="4.73691">
        <ele>171</ele>
        <time>2018-02-18T09:50:30Z</time>
      </trkpt>
      <trkpt lat="45.9218" lon="4.73694">
        <ele>171</ele>
        <time>2018-02-18T09:50:31Z</time>
      </trkpt>
      <trkpt lat="45.92174" lon="4.73697">
        <ele>171</ele>
        <time>2018-02-18T09:50:32Z</time>
      </trkpt>
      <trkpt lat="45.9217" lon="4.73699">
        <ele>171</ele>
        <time>2018-02-18T09:50:33Z</time>
      </trkpt>
      <trkpt lat="45.92164" lon="4.73701">
        <ele>171</ele>
        <time>2018-02-18T09:50:34Z</time>
      </trkpt>
      <trkpt lat="45.92157" lon="4.73702">
        <ele>171</ele>
        <time>2018-02-18T09:50:35Z</time>
      </trkpt>
      <trkpt lat="45.9215" lon="4.73704">
        <ele>171</ele>
        <time>2018-02-18T09:50:36Z</time>
      </trkpt>
      <trkpt lat="45.92143" lon="4.73706">
        <ele>171</ele>
        <time>2018-02-18T09:50:37Z</time>
      </trkpt>
      <trkpt lat="45.92137" lon="4.73709">
        <ele>171</ele>
        <time>2018-02-18T09:50:38Z</time>
      </trkpt>
      <trkpt lat="45.92133" lon="4.73711">
        <ele>171</ele>
        <time>2018-02-18T09:50:39Z</time>
      </trkpt>
      <trkpt lat="45.92127" lon="4.73714">
        <ele>171</ele>
        <time>2018-02-18T09:50:40Z</time>
      </trkpt>
      <trkpt lat="45.92121" lon="4.73716">
        <ele>171</ele>
        <time>2018-02-18T09:50:41Z</time>
      </trkpt>
      <trkpt lat="45.92117" lon="4.73711">
        <ele>171</ele>
        <time>2018-02-18T09:50:42Z</time>
      </trkpt>
      <trkpt lat="45.92111" lon="4.73712">
        <ele>171</ele>
        <time>2018-02-18T09:50:43Z</time>
      </trkpt>
      <trkpt lat="45.92106" lon="4.73713">
        <ele>171</ele>
        <time>2018-02-18T09:50:44Z</time>
      </trkpt>
      <trkpt lat="45.92101" lon="4.73715">
        <ele>171</ele>
        <time>2018-02-18T09:50:45Z</time>
      </trkpt>
      <trkpt lat="45.92094" lon="4.73717">
        <ele>171</ele>
        <time>2018-02-18T09:50:46Z</time>
      </trkpt>
      <trkpt lat="45.92087" lon="4.73719">
        <ele>171</ele>
        <time>2018-02-18T09:50:47Z</time>
      </trkpt>
      <trkpt lat="45.92081" lon="4.73721">
        <ele>171</ele>
        <time>2018-02-18T09:50:48Z</time>
      </trkpt>
      <trkpt lat="45.92075" lon="4.73721">
        <ele>171</ele>
        <time>2018-02-18T09:50:49Z</time>
      </trkpt>
      <trkpt lat="45.92069" lon="4.73721">
        <ele>171</ele>
        <time>2018-02-18T09:50:50Z</time>
      </trkpt>
      <trkpt lat="45.92064" lon="4.73721">
        <ele>171</ele>
        <time>2018-02-18T09:50:51Z</time>
      </trkpt>
      <trkpt lat="45.92058" lon="4.7372">
        <ele>171</ele>
        <time>2018-02-18T09:50:52Z</time>
      </trkpt>
      <trkpt lat="45.92052" lon="4.7372">
        <ele>171</ele>
        <time>2018-02-18T09:50:53Z</time>
      </trkpt>
      <trkpt lat="45.92046" lon="4.73721">
        <ele>171</ele>
        <time>2018-02-18T09:50:54Z</time>
      </trkpt>
      <trkpt lat="45.9204" lon="4.73722">
        <ele>171</ele>
        <time>2018-02-18T09:50:55Z</time>
      </trkpt>
      <trkpt lat="45.92034" lon="4.73723">
        <ele>171</ele>
        <time>2018-02-18T09:50:56Z</time>
      </trkpt>
      <trkpt lat="45.9203" lon="4.73722">
        <ele>171</ele>
        <time>2018-02-18T09:50:57Z</time>
      </trkpt>
      <trkpt lat="45.92022" lon="4.73722">
        <ele>171</ele>
        <time>2018-02-18T09:50:58Z</time>
      </trkpt>
      <trkpt lat="45.92017" lon="4.73723">
        <ele>171</ele>
        <time>2018-02-18T09:50:59Z</time>
      </trkpt>
      <trkpt lat="45.92012" lon="4.73722">
        <ele>171</ele>
        <time>2018-02-18T09:51:00Z</time>
      </trkpt>
      <trkpt lat="45.92007" lon="4.73723">
        <ele>171</ele>
        <time>2018-02-18T09:51:01Z</time>
      </trkpt>
      <trkpt lat="45.92001" lon="4.73723">
        <ele>171</ele>
        <time>2018-02-18T09:51:02Z</time>
      </trkpt>
      <trkpt lat="45.91996" lon="4.73722">
        <ele>171</ele>
        <time>2018-02-18T09:51:03Z</time>
      </trkpt>
      <trkpt lat="45.9199" lon="4.73722">
        <ele>171</ele>
        <time>2018-02-18T09:51:04Z</time>
      </trkpt>
      <trkpt lat="45.91982" lon="4.73723">
        <ele>171</ele>
        <time>2018-02-18T09:51:05Z</time>
      </trkpt>
      <trkpt lat="45.91977" lon="4.73723">
        <ele>171</ele>
        <time>2018-02-18T09:51:06Z</time>
      </trkpt>
      <trkpt lat="45.91971" lon="4.73723">
        <ele>171</ele>
        <time>2018-02-18T09:51:07Z</time>
      </trkpt>
      <trkpt lat="45.91964" lon="4.73724">
        <ele>171</ele>
        <time>2018-02-18T09:51:08Z</time>
      </trkpt>
      <trkpt lat="45.91958" lon="4.73723">
        <ele>170</ele>
        <time>2018-02-18T09:51:09Z</time>
      </trkpt>
      <trkpt lat="45.91952" lon="4.73724">
        <ele>170</ele>
        <time>2018-02-18T09:51:10Z</time>
      </trkpt>
      <trkpt lat="45.91946" lon="4.73725">
        <ele>170</ele>
        <time>2018-02-18T09:51:11Z</time>
      </trkpt>
      <trkpt lat="45.91941" lon="4.73725">
        <ele>170</ele>
        <time>2018-02-18T09:51:12Z</time>
      </trkpt>
      <trkpt lat="45.91934" lon="4.73725">
        <ele>170</ele>
        <time>2018-02-18T09:51:13Z</time>
      </trkpt>
      <trkpt lat="45.91928" lon="4.73725">
        <ele>170</ele>
        <time>2018-02-18T09:51:14Z</time>
      </trkpt>
      <trkpt lat="45.91922" lon="4.73725">
        <ele>170</ele>
        <time>2018-02-18T09:51:15Z</time>
      </trkpt>
      <trkpt lat="45.91917" lon="4.73726">
        <ele>170</ele>
        <time>2018-02-18T09:51:16Z</time>
      </trkpt>
      <trkpt lat="45.91911" lon="4.73725">
        <ele>171</ele>
        <time>2018-02-18T09:51:17Z</time>
      </trkpt>
      <trkpt lat="45.91905" lon="4.73726">
        <ele>171</ele>
        <time>2018-02-18T09:51:18Z</time>
      </trkpt>
      <trkpt lat="45.91898" lon="4.73725">
        <ele>171</ele>
        <time>2018-02-18T09:51:19Z</time>
      </trkpt>
      <trkpt lat="45.91889" lon="4.73726">
        <ele>171</ele>
        <time>2018-02-18T09:51:20Z</time>
      </trkpt>
      <trkpt lat="45.91882" lon="4.73726">
        <ele>171</ele>
        <time>2018-02-18T09:51:21Z</time>
      </trkpt>
      <trkpt lat="45.91877" lon="4.73726">
        <ele>171</ele>
        <time>2018-02-18T09:51:22Z</time>
      </trkpt>
      <trkpt lat="45.91871" lon="4.73726">
        <ele>171</ele>
        <time>2018-02-18T09:51:23Z</time>
      </trkpt>
      <trkpt lat="45.91865" lon="4.73725">
        <ele>171</ele>
        <time>2018-02-18T09:51:24Z</time>
      </trkpt>
      <trkpt lat="45.91858" lon="4.73724">
        <ele>171</ele>
        <time>2018-02-18T09:51:25Z</time>
      </trkpt>
      <trkpt lat="45.91853" lon="4.73724">
        <ele>171</ele>
        <time>2018-02-18T09:51:26Z</time>
      </trkpt>
      <trkpt lat="45.91846" lon="4.73725">
        <ele>172</ele>
        <time>2018-02-18T09:51:27Z</time>
      </trkpt>
      <trkpt lat="45.9184" lon="4.73726">
        <ele>172</ele>
        <time>2018-02-18T09:51:28Z</time>
      </trkpt>
      <trkpt lat="45.91834" lon="4.73726">
        <ele>172</ele>
        <time>2018-02-18T09:51:29Z</time>
      </trkpt>
      <trkpt lat="45.91828" lon="4.73726">
        <ele>172</ele>
        <time>2018-02-18T09:51:30Z</time>
      </trkpt>
      <trkpt lat="45.91822" lon="4.73726">
        <ele>172</ele>
        <time>2018-02-18T09:51:31Z</time>
      </trkpt>
      <trkpt lat="45.91816" lon="4.73726">
        <ele>172</ele>
        <time>2018-02-18T09:51:32Z</time>
      </trkpt>
      <trkpt lat="45.9181" lon="4.73725">
        <ele>172</ele>
        <time>2018-02-18T09:51:33Z</time>
      </trkpt>
      <trkpt lat="45.91805" lon="4.73727">
        <ele>172</ele>
        <time>2018-02-18T09:51:34Z</time>
      </trkpt>
      <trkpt lat="45.91798" lon="4.73727">
        <ele>172</ele>
        <time>2018-02-18T09:51:35Z</time>
      </trkpt>
      <trkpt lat="45.91793" lon="4.73727">
        <ele>172</ele>
        <time>2018-02-18T09:51:36Z</time>
      </trkpt>
      <trkpt lat="45.91785" lon="4.73726">
        <ele>173</ele>
        <time>2018-02-18T09:51:38Z</time>
      </trkpt>
      <trkpt lat="45.9178" lon="4.73726">
        <ele>173</ele>
        <time>2018-02-18T09:51:39Z</time>
      </trkpt>
      <trkpt lat="45.91775" lon="4.73727">
        <ele>173</ele>
        <time>2018-02-18T09:51:40Z</time>
      </trkpt>
      <trkpt lat="45.91769" lon="4.73726">
        <ele>173</ele>
        <time>2018-02-18T09:51:41Z</time>
      </trkpt>
      <trkpt lat="45.91764" lon="4.73726">
        <ele>173</ele>
        <time>2018-02-18T09:51:42Z</time>
      </trkpt>
      <trkpt lat="45.91758" lon="4.73726">
        <ele>173</ele>
        <time>2018-02-18T09:51:43Z</time>
      </trkpt>
      <trkpt lat="45.91753" lon="4.73726">
        <ele>173</ele>
        <time>2018-02-18T09:51:44Z</time>
      </trkpt>
      <trkpt lat="45.91746" lon="4.73727">
        <ele>173</ele>
        <time>2018-02-18T09:51:45Z</time>
      </trkpt>
      <trkpt lat="45.91738" lon="4.73728">
        <ele>173</ele>
        <time>2018-02-18T09:51:46Z</time>
      </trkpt>
      <trkpt lat="45.91734" lon="4.73729">
        <ele>173</ele>
        <time>2018-02-18T09:51:47Z</time>
      </trkpt>
      <trkpt lat="45.91728" lon="4.73728">
        <ele>173</ele>
        <time>2018-02-18T09:51:48Z</time>
      </trkpt>
      <trkpt lat="45.91725" lon="4.73728">
        <ele>173</ele>
        <time>2018-02-18T09:51:49Z</time>
      </trkpt>
      <trkpt lat="45.91717" lon="4.73729">
        <ele>173</ele>
        <time>2018-02-18T09:51:50Z</time>
      </trkpt>
      <trkpt lat="45.91711" lon="4.73728">
        <ele>173</ele>
        <time>2018-02-18T09:51:51Z</time>
      </trkpt>
      <trkpt lat="45.91706" lon="4.7373">
        <ele>172</ele>
        <time>2018-02-18T09:51:52Z</time>
      </trkpt>
      <trkpt lat="45.917" lon="4.7373">
        <ele>172</ele>
        <time>2018-02-18T09:51:53Z</time>
      </trkpt>
      <trkpt lat="45.91694" lon="4.73732">
        <ele>172</ele>
        <time>2018-02-18T09:51:54Z</time>
      </trkpt>
      <trkpt lat="45.91688" lon="4.73731">
        <ele>172</ele>
        <time>2018-02-18T09:51:55Z</time>
      </trkpt>
      <trkpt lat="45.91682" lon="4.73731">
        <ele>172</ele>
        <time>2018-02-18T09:51:56Z</time>
      </trkpt>
      <trkpt lat="45.91676" lon="4.73731">
        <ele>172</ele>
        <time>2018-02-18T09:51:57Z</time>
      </trkpt>
      <trkpt lat="45.91671" lon="4.7373">
        <ele>172</ele>
        <time>2018-02-18T09:51:58Z</time>
      </trkpt>
      <trkpt lat="45.91665" lon="4.7373">
        <ele>172</ele>
        <time>2018-02-18T09:51:59Z</time>
      </trkpt>
      <trkpt lat="45.91659" lon="4.7373">
        <ele>172</ele>
        <time>2018-02-18T09:52:00Z</time>
      </trkpt>
      <trkpt lat="45.91652" lon="4.7373">
        <ele>172</ele>
        <time>2018-02-18T09:52:01Z</time>
      </trkpt>
      <trkpt lat="45.91646" lon="4.7373">
        <ele>172</ele>
        <time>2018-02-18T09:52:02Z</time>
      </trkpt>
      <trkpt lat="45.91641" lon="4.73731">
        <ele>172</ele>
        <time>2018-02-18T09:52:03Z</time>
      </trkpt>
      <trkpt lat="45.91635" lon="4.73731">
        <ele>172</ele>
        <time>2018-02-18T09:52:04Z</time>
      </trkpt>
      <trkpt lat="45.9163" lon="4.73731">
        <ele>172</ele>
        <time>2018-02-18T09:52:05Z</time>
      </trkpt>
      <trkpt lat="45.91624" lon="4.73731">
        <ele>173</ele>
        <time>2018-02-18T09:52:06Z</time>
      </trkpt>
      <trkpt lat="45.91619" lon="4.73732">
        <ele>173</ele>
        <time>2018-02-18T09:52:07Z</time>
      </trkpt>
      <trkpt lat="45.91613" lon="4.73732">
        <ele>173</ele>
        <time>2018-02-18T09:52:08Z</time>
      </trkpt>
      <trkpt lat="45.91608" lon="4.73732">
        <ele>173</ele>
        <time>2018-02-18T09:52:09Z</time>
      </trkpt>
      <trkpt lat="45.91602" lon="4.73732">
        <ele>173</ele>
        <time>2018-02-18T09:52:10Z</time>
      </trkpt>
      <trkpt lat="45.91596" lon="4.73732">
        <ele>173</ele>
        <time>2018-02-18T09:52:11Z</time>
      </trkpt>
      <trkpt lat="45.9159" lon="4.73732">
        <ele>173</ele>
        <time>2018-02-18T09:52:12Z</time>
      </trkpt>
      <trkpt lat="45.91584" lon="4.73733">
        <ele>173</ele>
        <time>2018-02-18T09:52:13Z</time>
      </trkpt>
      <trkpt lat="45.91579" lon="4.73733">
        <ele>173</ele>
        <time>2018-02-18T09:52:14Z</time>
      </trkpt>
      <trkpt lat="45.91572" lon="4.73732">
        <ele>173</ele>
        <time>2018-02-18T09:52:15Z</time>
      </trkpt>
      <trkpt lat="45.91566" lon="4.73732">
        <ele>173</ele>
        <time>2018-02-18T09:52:16Z</time>
      </trkpt>
      <trkpt lat="45.9156" lon="4.73732">
        <ele>174</ele>
        <time>2018-02-18T09:52:17Z</time>
      </trkpt>
      <trkpt lat="45.91554" lon="4.73733">
        <ele>174</ele>
        <time>2018-02-18T09:52:18Z</time>
      </trkpt>
      <trkpt lat="45.91549" lon="4.73733">
        <ele>174</ele>
        <time>2018-02-18T09:52:19Z</time>
      </trkpt>
      <trkpt lat="45.91543" lon="4.73732">
        <ele>174</ele>
        <time>2018-02-18T09:52:20Z</time>
      </trkpt>
      <trkpt lat="45.91537" lon="4.73733">
        <ele>174</ele>
        <time>2018-02-18T09:52:21Z</time>
      </trkpt>
      <trkpt lat="45.91531" lon="4.73734">
        <ele>174</ele>
        <time>2018-02-18T09:52:22Z</time>
      </trkpt>
      <trkpt lat="45.91525" lon="4.73734">
        <ele>174</ele>
        <time>2018-02-18T09:52:23Z</time>
      </trkpt>
      <trkpt lat="45.9152" lon="4.73734">
        <ele>174</ele>
        <time>2018-02-18T09:52:24Z</time>
      </trkpt>
      <trkpt lat="45.91514" lon="4.73733">
        <ele>174</ele>
        <time>2018-02-18T09:52:25Z</time>
      </trkpt>
      <trkpt lat="45.91509" lon="4.73733">
        <ele>174</ele>
        <time>2018-02-18T09:52:26Z</time>
      </trkpt>
      <trkpt lat="45.91503" lon="4.73733">
        <ele>174</ele>
        <time>2018-02-18T09:52:27Z</time>
      </trkpt>
      <trkpt lat="45.91497" lon="4.73733">
        <ele>174</ele>
        <time>2018-02-18T09:52:28Z</time>
      </trkpt>
      <trkpt lat="45.91491" lon="4.73733">
        <ele>174</ele>
        <time>2018-02-18T09:52:29Z</time>
      </trkpt>
      <trkpt lat="45.91484" lon="4.73732">
        <ele>174</ele>
        <time>2018-02-18T09:52:30Z</time>
      </trkpt>
      <trkpt lat="45.91478" lon="4.73733">
        <ele>174</ele>
        <time>2018-02-18T09:52:31Z</time>
      </trkpt>
      <trkpt lat="45.91473" lon="4.73732">
        <ele>174</ele>
        <time>2018-02-18T09:52:32Z</time>
      </trkpt>
      <trkpt lat="45.91467" lon="4.73732">
        <ele>174</ele>
        <time>2018-02-18T09:52:33Z</time>
      </trkpt>
      <trkpt lat="45.91462" lon="4.73732">
        <ele>174</ele>
        <time>2018-02-18T09:52:34Z</time>
      </trkpt>
      <trkpt lat="45.91456" lon="4.73732">
        <ele>174</ele>
        <time>2018-02-18T09:52:35Z</time>
      </trkpt>
      <trkpt lat="45.9145" lon="4.73731">
        <ele>173</ele>
        <time>2018-02-18T09:52:36Z</time>
      </trkpt>
      <trkpt lat="45.91443" lon="4.73732">
        <ele>173</ele>
        <time>2018-02-18T09:52:37Z</time>
      </trkpt>
      <trkpt lat="45.91437" lon="4.73733">
        <ele>173</ele>
        <time>2018-02-18T09:52:38Z</time>
      </trkpt>
      <trkpt lat="45.91431" lon="4.73733">
        <ele>173</ele>
        <time>2018-02-18T09:52:39Z</time>
      </trkpt>
      <trkpt lat="45.91426" lon="4.73733">
        <ele>173</ele>
        <time>2018-02-18T09:52:40Z</time>
      </trkpt>
      <trkpt lat="45.9142" lon="4.73733">
        <ele>173</ele>
        <time>2018-02-18T09:52:41Z</time>
      </trkpt>
      <trkpt lat="45.91413" lon="4.73732">
        <ele>173</ele>
        <time>2018-02-18T09:52:42Z</time>
      </trkpt>
      <trkpt lat="45.91407" lon="4.73733">
        <ele>173</ele>
        <time>2018-02-18T09:52:43Z</time>
      </trkpt>
      <trkpt lat="45.914" lon="4.73733">
        <ele>173</ele>
        <time>2018-02-18T09:52:44Z</time>
      </trkpt>
      <trkpt lat="45.91393" lon="4.73734">
        <ele>173</ele>
        <time>2018-02-18T09:52:45Z</time>
      </trkpt>
      <trkpt lat="45.91386" lon="4.73734">
        <ele>173</ele>
        <time>2018-02-18T09:52:46Z</time>
      </trkpt>
      <trkpt lat="45.91379" lon="4.73735">
        <ele>173</ele>
        <time>2018-02-18T09:52:47Z</time>
      </trkpt>
      <trkpt lat="45.91371" lon="4.73734">
        <ele>173</ele>
        <time>2018-02-18T09:52:48Z</time>
      </trkpt>
      <trkpt lat="45.91365" lon="4.73735">
        <ele>173</ele>
        <time>2018-02-18T09:52:49Z</time>
      </trkpt>
      <trkpt lat="45.91359" lon="4.73735">
        <ele>173</ele>
        <time>2018-02-18T09:52:50Z</time>
      </trkpt>
      <trkpt lat="45.91354" lon="4.73735">
        <ele>173</ele>
        <time>2018-02-18T09:52:51Z</time>
      </trkpt>
      <trkpt lat="45.9135" lon="4.73734">
        <ele>173</ele>
        <time>2018-02-18T09:52:52Z</time>
      </trkpt>
      <trkpt lat="45.91345" lon="4.73734">
        <ele>173</ele>
        <time>2018-02-18T09:52:53Z</time>
      </trkpt>
      <trkpt lat="45.91339" lon="4.73734">
        <ele>173</ele>
        <time>2018-02-18T09:52:54Z</time>
      </trkpt>
      <trkpt lat="45.91334" lon="4.73734">
        <ele>173</ele>
        <time>2018-02-18T09:52:55Z</time>
      </trkpt>
      <trkpt lat="45.91328" lon="4.73734">
        <ele>174</ele>
        <time>2018-02-18T09:52:56Z</time>
      </trkpt>
      <trkpt lat="45.91322" lon="4.73734">
        <ele>174</ele>
        <time>2018-02-18T09:52:57Z</time>
      </trkpt>
      <trkpt lat="45.91317" lon="4.73734">
        <ele>174</ele>
        <time>2018-02-18T09:52:58Z</time>
      </trkpt>
      <trkpt lat="45.91311" lon="4.73734">
        <ele>174</ele>
        <time>2018-02-18T09:52:59Z</time>
      </trkpt>
      <trkpt lat="45.91304" lon="4.73734">
        <ele>174</ele>
        <time>2018-02-18T09:53:00Z</time>
      </trkpt>
      <trkpt lat="45.91298" lon="4.73735">
        <ele>174</ele>
        <time>2018-02-18T09:53:01Z</time>
      </trkpt>
      <trkpt lat="45.91292" lon="4.73735">
        <ele>174</ele>
        <time>2018-02-18T09:53:02Z</time>
      </trkpt>
      <trkpt lat="45.91286" lon="4.73735">
        <ele>174</ele>
        <time>2018-02-18T09:53:03Z</time>
      </trkpt>
      <trkpt lat="45.9128" lon="4.73735">
        <ele>174</ele>
        <time>2018-02-18T09:53:04Z</time>
      </trkpt>
      <trkpt lat="45.91274" lon="4.73736">
        <ele>174</ele>
        <time>2018-02-18T09:53:05Z</time>
      </trkpt>
      <trkpt lat="45.91268" lon="4.73736">
        <ele>174</ele>
        <time>2018-02-18T09:53:06Z</time>
      </trkpt>
      <trkpt lat="45.91263" lon="4.73734">
        <ele>174</ele>
        <time>2018-02-18T09:53:07Z</time>
      </trkpt>
      <trkpt lat="45.91257" lon="4.73735">
        <ele>174</ele>
        <time>2018-02-18T09:53:08Z</time>
      </trkpt>
      <trkpt lat="45.91252" lon="4.73736">
        <ele>175</ele>
        <time>2018-02-18T09:53:09Z</time>
      </trkpt>
      <trkpt lat="45.91246" lon="4.73735">
        <ele>175</ele>
        <time>2018-02-18T09:53:10Z</time>
      </trkpt>
      <trkpt lat="45.9124" lon="4.73735">
        <ele>175</ele>
        <time>2018-02-18T09:53:11Z</time>
      </trkpt>
      <trkpt lat="45.91235" lon="4.73736">
        <ele>175</ele>
        <time>2018-02-18T09:53:12Z</time>
      </trkpt>
      <trkpt lat="45.91228" lon="4.73736">
        <ele>175</ele>
        <time>2018-02-18T09:53:13Z</time>
      </trkpt>
      <trkpt lat="45.91223" lon="4.73737">
        <ele>175</ele>
        <time>2018-02-18T09:53:14Z</time>
      </trkpt>
      <trkpt lat="45.91217" lon="4.73737">
        <ele>175</ele>
        <time>2018-02-18T09:53:15Z</time>
      </trkpt>
      <trkpt lat="45.91211" lon="4.73736">
        <ele>175</ele>
        <time>2018-02-18T09:53:16Z</time>
      </trkpt>
      <trkpt lat="45.91205" lon="4.73736">
        <ele>175</ele>
        <time>2018-02-18T09:53:17Z</time>
      </trkpt>
      <trkpt lat="45.912" lon="4.73736">
        <ele>175</ele>
        <time>2018-02-18T09:53:18Z</time>
      </trkpt>
      <trkpt lat="45.91195" lon="4.73736">
        <ele>175</ele>
        <time>2018-02-18T09:53:19Z</time>
      </trkpt>
      <trkpt lat="45.91189" lon="4.73735">
        <ele>175</ele>
        <time>2018-02-18T09:53:20Z</time>
      </trkpt>
      <trkpt lat="45.91185" lon="4.73733">
        <ele>175</ele>
        <time>2018-02-18T09:53:21Z</time>
      </trkpt>
      <trkpt lat="45.91179" lon="4.73731">
        <ele>175</ele>
        <time>2018-02-18T09:53:22Z</time>
      </trkpt>
      <trkpt lat="45.91175" lon="4.7373">
        <ele>175</ele>
        <time>2018-02-18T09:53:23Z</time>
      </trkpt>
      <trkpt lat="45.91169" lon="4.73729">
        <ele>175</ele>
        <time>2018-02-18T09:53:24Z</time>
      </trkpt>
      <trkpt lat="45.91162" lon="4.73729">
        <ele>175</ele>
        <time>2018-02-18T09:53:25Z</time>
      </trkpt>
      <trkpt lat="45.91155" lon="4.73726">
        <ele>175</ele>
        <time>2018-02-18T09:53:27Z</time>
      </trkpt>
      <trkpt lat="45.91152" lon="4.73722">
        <ele>175</ele>
        <time>2018-02-18T09:53:28Z</time>
      </trkpt>
      <trkpt lat="45.91146" lon="4.73714">
        <ele>174</ele>
        <time>2018-02-18T09:53:30Z</time>
      </trkpt>
      <trkpt lat="45.91144" lon="4.73708">
        <ele>174</ele>
        <time>2018-02-18T09:53:31Z</time>
      </trkpt>
      <trkpt lat="45.9114" lon="4.73703">
        <ele>174</ele>
        <time>2018-02-18T09:53:32Z</time>
      </trkpt>
      <trkpt lat="45.9114" lon="4.73696">
        <ele>174</ele>
        <time>2018-02-18T09:53:33Z</time>
      </trkpt>
      <trkpt lat="45.91137" lon="4.7369">
        <ele>174</ele>
        <time>2018-02-18T09:53:34Z</time>
      </trkpt>
      <trkpt lat="45.91134" lon="4.73685">
        <ele>174</ele>
        <time>2018-02-18T09:53:35Z</time>
      </trkpt>
      <trkpt lat="45.91131" lon="4.73678">
        <ele>174</ele>
        <time>2018-02-18T09:53:36Z</time>
      </trkpt>
      <trkpt lat="45.91129" lon="4.73671">
        <ele>174</ele>
        <time>2018-02-18T09:53:37Z</time>
      </trkpt>
      <trkpt lat="45.91126" lon="4.73664">
        <ele>174</ele>
        <time>2018-02-18T09:53:38Z</time>
      </trkpt>
      <trkpt lat="45.91123" lon="4.73657">
        <ele>174</ele>
        <time>2018-02-18T09:53:39Z</time>
      </trkpt>
      <trkpt lat="45.91121" lon="4.73651">
        <ele>174</ele>
        <time>2018-02-18T09:53:40Z</time>
      </trkpt>
      <trkpt lat="45.91118" lon="4.73645">
        <ele>174</ele>
        <time>2018-02-18T09:53:41Z</time>
      </trkpt>
      <trkpt lat="45.91116" lon="4.73637">
        <ele>174</ele>
        <time>2018-02-18T09:53:42Z</time>
      </trkpt>
      <trkpt lat="45.91112" lon="4.73629">
        <ele>174</ele>
        <time>2018-02-18T09:53:43Z</time>
      </trkpt>
      <trkpt lat="45.91109" lon="4.73623">
        <ele>174</ele>
        <time>2018-02-18T09:53:44Z</time>
      </trkpt>
      <trkpt lat="45.91107" lon="4.73617">
        <ele>174</ele>
        <time>2018-02-18T09:53:45Z</time>
      </trkpt>
      <trkpt lat="45.91104" lon="4.73611">
        <ele>174</ele>
        <time>2018-02-18T09:53:46Z</time>
      </trkpt>
      <trkpt lat="45.91101" lon="4.73606">
        <ele>174</ele>
        <time>2018-02-18T09:53:47Z</time>
      </trkpt>
      <trkpt lat="45.91099" lon="4.736">
        <ele>174</ele>
        <time>2018-02-18T09:53:48Z</time>
      </trkpt>
      <trkpt lat="45.91097" lon="4.73592">
        <ele>174</ele>
        <time>2018-02-18T09:53:49Z</time>
      </trkpt>
      <trkpt lat="45.91094" lon="4.73586">
        <ele>174</ele>
        <time>2018-02-18T09:53:50Z</time>
      </trkpt>
      <trkpt lat="45.91091" lon="4.73581">
        <ele>174</ele>
        <time>2018-02-18T09:53:51Z</time>
      </trkpt>
      <trkpt lat="45.91087" lon="4.73574">
        <ele>174</ele>
        <time>2018-02-18T09:53:52Z</time>
      </trkpt>
      <trkpt lat="45.91085" lon="4.73568">
        <ele>174</ele>
        <time>2018-02-18T09:53:53Z</time>
      </trkpt>
      <trkpt lat="45.91083" lon="4.73561">
        <ele>174</ele>
        <time>2018-02-18T09:53:54Z</time>
      </trkpt>
      <trkpt lat="45.9108" lon="4.73555">
        <ele>174</ele>
        <time>2018-02-18T09:53:55Z</time>
      </trkpt>
      <trkpt lat="45.91077" lon="4.73549">
        <ele>174</ele>
        <time>2018-02-18T09:53:56Z</time>
      </trkpt>
      <trkpt lat="45.91074" lon="4.73543">
        <ele>174</ele>
        <time>2018-02-18T09:53:57Z</time>
      </trkpt>
      <trkpt lat="45.91071" lon="4.73537">
        <ele>175</ele>
        <time>2018-02-18T09:53:58Z</time>
      </trkpt>
      <trkpt lat="45.91069" lon="4.7353">
        <ele>175</ele>
        <time>2018-02-18T09:53:59Z</time>
      </trkpt>
      <trkpt lat="45.91066" lon="4.73524">
        <ele>175</ele>
        <time>2018-02-18T09:54:00Z</time>
      </trkpt>
      <trkpt lat="45.91063" lon="4.73517">
        <ele>175</ele>
        <time>2018-02-18T09:54:01Z</time>
      </trkpt>
      <trkpt lat="45.9106" lon="4.73511">
        <ele>175</ele>
        <time>2018-02-18T09:54:02Z</time>
      </trkpt>
      <trkpt lat="45.91057" lon="4.73505">
        <ele>175</ele>
        <time>2018-02-18T09:54:03Z</time>
      </trkpt>
      <trkpt lat="45.91054" lon="4.73499">
        <ele>175</ele>
        <time>2018-02-18T09:54:04Z</time>
      </trkpt>
      <trkpt lat="45.91051" lon="4.73493">
        <ele>175</ele>
        <time>2018-02-18T09:54:05Z</time>
      </trkpt>
      <trkpt lat="45.91048" lon="4.73488">
        <ele>175</ele>
        <time>2018-02-18T09:54:06Z</time>
      </trkpt>
      <trkpt lat="45.91046" lon="4.73482">
        <ele>175</ele>
        <time>2018-02-18T09:54:07Z</time>
      </trkpt>
      <trkpt lat="45.91043" lon="4.73476">
        <ele>175</ele>
        <time>2018-02-18T09:54:08Z</time>
      </trkpt>
      <trkpt lat="45.91041" lon="4.7347">
        <ele>175</ele>
        <time>2018-02-18T09:54:09Z</time>
      </trkpt>
      <trkpt lat="45.91038" lon="4.73464">
        <ele>175</ele>
        <time>2018-02-18T09:54:10Z</time>
      </trkpt>
      <trkpt lat="45.91037" lon="4.73457">
        <ele>175</ele>
        <time>2018-02-18T09:54:11Z</time>
      </trkpt>
      <trkpt lat="45.91036" lon="4.73444">
        <ele>175</ele>
        <time>2018-02-18T09:54:13Z</time>
      </trkpt>
      <trkpt lat="45.91036" lon="4.73437">
        <ele>175</ele>
        <time>2018-02-18T09:54:14Z</time>
      </trkpt>
      <trkpt lat="45.91036" lon="4.73431">
        <ele>175</ele>
        <time>2018-02-18T09:54:15Z</time>
      </trkpt>
      <trkpt lat="45.91034" lon="4.73424">
        <ele>175</ele>
        <time>2018-02-18T09:54:16Z</time>
      </trkpt>
      <trkpt lat="45.9103" lon="4.73419">
        <ele>175</ele>
        <time>2018-02-18T09:54:17Z</time>
      </trkpt>
      <trkpt lat="45.91026" lon="4.73414">
        <ele>174</ele>
        <time>2018-02-18T09:54:18Z</time>
      </trkpt>
      <trkpt lat="45.91021" lon="4.73413">
        <ele>174</ele>
        <time>2018-02-18T09:54:19Z</time>
      </trkpt>
      <trkpt lat="45.91016" lon="4.73414">
        <ele>175</ele>
        <time>2018-02-18T09:54:20Z</time>
      </trkpt>
      <trkpt lat="45.91011" lon="4.7342">
        <ele>175</ele>
        <time>2018-02-18T09:54:21Z</time>
      </trkpt>
      <trkpt lat="45.91009" lon="4.73425">
        <ele>175</ele>
        <time>2018-02-18T09:54:22Z</time>
      </trkpt>
      <trkpt lat="45.91004" lon="4.7343">
        <ele>175</ele>
        <time>2018-02-18T09:54:23Z</time>
      </trkpt>
      <trkpt lat="45.90999" lon="4.73435">
        <ele>175</ele>
        <time>2018-02-18T09:54:24Z</time>
      </trkpt>
      <trkpt lat="45.90994" lon="4.73439">
        <ele>175</ele>
        <time>2018-02-18T09:54:25Z</time>
      </trkpt>
      <trkpt lat="45.90988" lon="4.73441">
        <ele>175</ele>
        <time>2018-02-18T09:54:26Z</time>
      </trkpt>
      <trkpt lat="45.90984" lon="4.73444">
        <ele>175</ele>
        <time>2018-02-18T09:54:27Z</time>
      </trkpt>
      <trkpt lat="45.90978" lon="4.73447">
        <ele>175</ele>
        <time>2018-02-18T09:54:28Z</time>
      </trkpt>
      <trkpt lat="45.90973" lon="4.73449">
        <ele>175</ele>
        <time>2018-02-18T09:54:29Z</time>
      </trkpt>
      <trkpt lat="45.90968" lon="4.7345">
        <ele>175</ele>
        <time>2018-02-18T09:54:30Z</time>
      </trkpt>
      <trkpt lat="45.90964" lon="4.73452">
        <ele>175</ele>
        <time>2018-02-18T09:54:31Z</time>
      </trkpt>
      <trkpt lat="45.90958" lon="4.73455">
        <ele>175</ele>
        <time>2018-02-18T09:54:32Z</time>
      </trkpt>
      <trkpt lat="45.90952" lon="4.73457">
        <ele>175</ele>
        <time>2018-02-18T09:54:33Z</time>
      </trkpt>
      <trkpt lat="45.90947" lon="4.7346">
        <ele>175</ele>
        <time>2018-02-18T09:54:34Z</time>
      </trkpt>
      <trkpt lat="45.9094" lon="4.73462">
        <ele>175</ele>
        <time>2018-02-18T09:54:35Z</time>
      </trkpt>
      <trkpt lat="45.90934" lon="4.73465">
        <ele>175</ele>
        <time>2018-02-18T09:54:36Z</time>
      </trkpt>
      <trkpt lat="45.9093" lon="4.73467">
        <ele>175</ele>
        <time>2018-02-18T09:54:37Z</time>
      </trkpt>
      <trkpt lat="45.90924" lon="4.73469">
        <ele>175</ele>
        <time>2018-02-18T09:54:38Z</time>
      </trkpt>
      <trkpt lat="45.90917" lon="4.73471">
        <ele>175</ele>
        <time>2018-02-18T09:54:39Z</time>
      </trkpt>
      <trkpt lat="45.90912" lon="4.73474">
        <ele>175</ele>
        <time>2018-02-18T09:54:40Z</time>
      </trkpt>
      <trkpt lat="45.90906" lon="4.73476">
        <ele>175</ele>
        <time>2018-02-18T09:54:41Z</time>
      </trkpt>
      <trkpt lat="45.90901" lon="4.73478">
        <ele>175</ele>
        <time>2018-02-18T09:54:42Z</time>
      </trkpt>
      <trkpt lat="45.90896" lon="4.73481">
        <ele>175</ele>
        <time>2018-02-18T09:54:43Z</time>
      </trkpt>
      <trkpt lat="45.90889" lon="4.73482">
        <ele>175</ele>
        <time>2018-02-18T09:54:44Z</time>
      </trkpt>
      <trkpt lat="45.90885" lon="4.73485">
        <ele>175</ele>
        <time>2018-02-18T09:54:45Z</time>
      </trkpt>
      <trkpt lat="45.90878" lon="4.73487">
        <ele>175</ele>
        <time>2018-02-18T09:54:46Z</time>
      </trkpt>
      <trkpt lat="45.90873" lon="4.7349">
        <ele>175</ele>
        <time>2018-02-18T09:54:47Z</time>
      </trkpt>
      <trkpt lat="45.90868" lon="4.73492">
        <ele>175</ele>
        <time>2018-02-18T09:54:48Z</time>
      </trkpt>
      <trkpt lat="45.90863" lon="4.73496">
        <ele>175</ele>
        <time>2018-02-18T09:54:49Z</time>
      </trkpt>
      <trkpt lat="45.90858" lon="4.73498">
        <ele>174</ele>
        <time>2018-02-18T09:54:50Z</time>
      </trkpt>
      <trkpt lat="45.90852" lon="4.73501">
        <ele>174</ele>
        <time>2018-02-18T09:54:51Z</time>
      </trkpt>
      <trkpt lat="45.90845" lon="4.73503">
        <ele>174</ele>
        <time>2018-02-18T09:54:52Z</time>
      </trkpt>
      <trkpt lat="45.90841" lon="4.73505">
        <ele>174</ele>
        <time>2018-02-18T09:54:53Z</time>
      </trkpt>
      <trkpt lat="45.90835" lon="4.73507">
        <ele>174</ele>
        <time>2018-02-18T09:54:54Z</time>
      </trkpt>
      <trkpt lat="45.90829" lon="4.7351">
        <ele>175</ele>
        <time>2018-02-18T09:54:55Z</time>
      </trkpt>
      <trkpt lat="45.90822" lon="4.73513">
        <ele>175</ele>
        <time>2018-02-18T09:54:56Z</time>
      </trkpt>
      <trkpt lat="45.90817" lon="4.73515">
        <ele>175</ele>
        <time>2018-02-18T09:54:57Z</time>
      </trkpt>
      <trkpt lat="45.90812" lon="4.73517">
        <ele>175</ele>
        <time>2018-02-18T09:54:58Z</time>
      </trkpt>
      <trkpt lat="45.90806" lon="4.7352">
        <ele>175</ele>
        <time>2018-02-18T09:54:59Z</time>
      </trkpt>
      <trkpt lat="45.90802" lon="4.73522">
        <ele>175</ele>
        <time>2018-02-18T09:55:00Z</time>
      </trkpt>
      <trkpt lat="45.90797" lon="4.73524">
        <ele>175</ele>
        <time>2018-02-18T09:55:01Z</time>
      </trkpt>
      <trkpt lat="45.90792" lon="4.73526">
        <ele>176</ele>
        <time>2018-02-18T09:55:02Z</time>
      </trkpt>
      <trkpt lat="45.90787" lon="4.73528">
        <ele>176</ele>
        <time>2018-02-18T09:55:03Z</time>
      </trkpt>
      <trkpt lat="45.90781" lon="4.7353">
        <ele>176</ele>
        <time>2018-02-18T09:55:04Z</time>
      </trkpt>
      <trkpt lat="45.90775" lon="4.73532">
        <ele>176</ele>
        <time>2018-02-18T09:55:05Z</time>
      </trkpt>
      <trkpt lat="45.9077" lon="4.73535">
        <ele>176</ele>
        <time>2018-02-18T09:55:06Z</time>
      </trkpt>
      <trkpt lat="45.90766" lon="4.7354">
        <ele>176</ele>
        <time>2018-02-18T09:55:07Z</time>
      </trkpt>
      <trkpt lat="45.90762" lon="4.73542">
        <ele>176</ele>
        <time>2018-02-18T09:55:08Z</time>
      </trkpt>
      <trkpt lat="45.90757" lon="4.73543">
        <ele>176</ele>
        <time>2018-02-18T09:55:09Z</time>
      </trkpt>
      <trkpt lat="45.90751" lon="4.73546">
        <ele>176</ele>
        <time>2018-02-18T09:55:10Z</time>
      </trkpt>
      <trkpt lat="45.90747" lon="4.73549">
        <ele>178</ele>
        <time>2018-02-18T09:55:11Z</time>
      </trkpt>
      <trkpt lat="45.90741" lon="4.73551">
        <ele>178</ele>
        <time>2018-02-18T09:55:12Z</time>
      </trkpt>
      <trkpt lat="45.90736" lon="4.73553">
        <ele>178</ele>
        <time>2018-02-18T09:55:13Z</time>
      </trkpt>
      <trkpt lat="45.9073" lon="4.73555">
        <ele>178</ele>
        <time>2018-02-18T09:55:14Z</time>
      </trkpt>
      <trkpt lat="45.90725" lon="4.73557">
        <ele>178</ele>
        <time>2018-02-18T09:55:15Z</time>
      </trkpt>
      <trkpt lat="45.9072" lon="4.73559">
        <ele>178</ele>
        <time>2018-02-18T09:55:16Z</time>
      </trkpt>
      <trkpt lat="45.90714" lon="4.7356">
        <ele>178</ele>
        <time>2018-02-18T09:55:17Z</time>
      </trkpt>
      <trkpt lat="45.90708" lon="4.73562">
        <ele>178</ele>
        <time>2018-02-18T09:55:18Z</time>
      </trkpt>
      <trkpt lat="45.907" lon="4.73565">
        <ele>178</ele>
        <time>2018-02-18T09:55:20Z</time>
      </trkpt>
      <trkpt lat="45.90694" lon="4.73567">
        <ele>178</ele>
        <time>2018-02-18T09:55:21Z</time>
      </trkpt>
      <trkpt lat="45.90689" lon="4.73569">
        <ele>178</ele>
        <time>2018-02-18T09:55:22Z</time>
      </trkpt>
      <trkpt lat="45.90685" lon="4.73571">
        <ele>179</ele>
        <time>2018-02-18T09:55:23Z</time>
      </trkpt>
      <trkpt lat="45.9068" lon="4.73573">
        <ele>179</ele>
        <time>2018-02-18T09:55:24Z</time>
      </trkpt>
      <trkpt lat="45.90675" lon="4.73575">
        <ele>179</ele>
        <time>2018-02-18T09:55:25Z</time>
      </trkpt>
      <trkpt lat="45.90667" lon="4.73578">
        <ele>180</ele>
        <time>2018-02-18T09:55:27Z</time>
      </trkpt>
      <trkpt lat="45.90663" lon="4.7358">
        <ele>180</ele>
        <time>2018-02-18T09:55:28Z</time>
      </trkpt>
      <trkpt lat="45.90654" lon="4.73584">
        <ele>180</ele>
        <time>2018-02-18T09:55:30Z</time>
      </trkpt>
      <trkpt lat="45.9065" lon="4.73586">
        <ele>181</ele>
        <time>2018-02-18T09:55:31Z</time>
      </trkpt>
      <trkpt lat="45.90643" lon="4.73588">
        <ele>181</ele>
        <time>2018-02-18T09:55:33Z</time>
      </trkpt>
      <trkpt lat="45.90639" lon="4.7359">
        <ele>181</ele>
        <time>2018-02-18T09:55:34Z</time>
      </trkpt>
      <trkpt lat="45.90632" lon="4.73592">
        <ele>181</ele>
        <time>2018-02-18T09:55:36Z</time>
      </trkpt>
      <trkpt lat="45.90629" lon="4.73593">
        <ele>181</ele>
        <time>2018-02-18T09:55:37Z</time>
      </trkpt>
      <trkpt lat="45.90622" lon="4.73597">
        <ele>181</ele>
        <time>2018-02-18T09:55:39Z</time>
      </trkpt>
      <trkpt lat="45.90619" lon="4.73599">
        <ele>180</ele>
        <time>2018-02-18T09:55:40Z</time>
      </trkpt>
      <trkpt lat="45.90611" lon="4.73602">
        <ele>180</ele>
        <time>2018-02-18T09:55:42Z</time>
      </trkpt>
      <trkpt lat="45.90608" lon="4.73604">
        <ele>180</ele>
        <time>2018-02-18T09:55:43Z</time>
      </trkpt>
      <trkpt lat="45.906" lon="4.73607">
        <ele>180</ele>
        <time>2018-02-18T09:55:45Z</time>
      </trkpt>
      <trkpt lat="45.90597" lon="4.73608">
        <ele>180</ele>
        <time>2018-02-18T09:55:46Z</time>
      </trkpt>
      <trkpt lat="45.90589" lon="4.73611">
        <ele>180</ele>
        <time>2018-02-18T09:55:48Z</time>
      </trkpt>
      <trkpt lat="45.90585" lon="4.73613">
        <ele>180</ele>
        <time>2018-02-18T09:55:49Z</time>
      </trkpt>
      <trkpt lat="45.90578" lon="4.73616">
        <ele>179</ele>
        <time>2018-02-18T09:55:51Z</time>
      </trkpt>
      <trkpt lat="45.90574" lon="4.73617">
        <ele>179</ele>
        <time>2018-02-18T09:55:52Z</time>
      </trkpt>
      <trkpt lat="45.90566" lon="4.7362">
        <ele>178</ele>
        <time>2018-02-18T09:55:54Z</time>
      </trkpt>
      <trkpt lat="45.90562" lon="4.73622">
        <ele>178</ele>
        <time>2018-02-18T09:55:55Z</time>
      </trkpt>
      <trkpt lat="45.90554" lon="4.73625">
        <ele>178</ele>
        <time>2018-02-18T09:55:57Z</time>
      </trkpt>
      <trkpt lat="45.9055" lon="4.73627">
        <ele>178</ele>
        <time>2018-02-18T09:55:58Z</time>
      </trkpt>
      <trkpt lat="45.90542" lon="4.7363">
        <ele>178</ele>
        <time>2018-02-18T09:56:00Z</time>
      </trkpt>
      <trkpt lat="45.90538" lon="4.73631">
        <ele>178</ele>
        <time>2018-02-18T09:56:01Z</time>
      </trkpt>
      <trkpt lat="45.90534" lon="4.73634">
        <ele>178</ele>
        <time>2018-02-18T09:56:02Z</time>
      </trkpt>
      <trkpt lat="45.9053" lon="4.73636">
        <ele>178</ele>
        <time>2018-02-18T09:56:03Z</time>
      </trkpt>
      <trkpt lat="45.90521" lon="4.73639">
        <ele>178</ele>
        <time>2018-02-18T09:56:05Z</time>
      </trkpt>
      <trkpt lat="45.90516" lon="4.73641">
        <ele>178</ele>
        <time>2018-02-18T09:56:06Z</time>
      </trkpt>
      <trkpt lat="45.90512" lon="4.73643">
        <ele>178</ele>
        <time>2018-02-18T09:56:07Z</time>
      </trkpt>
      <trkpt lat="45.90507" lon="4.73645">
        <ele>178</ele>
        <time>2018-02-18T09:56:08Z</time>
      </trkpt>
      <trkpt lat="45.90499" lon="4.73649">
        <ele>177</ele>
        <time>2018-02-18T09:56:10Z</time>
      </trkpt>
      <trkpt lat="45.90496" lon="4.7365">
        <ele>177</ele>
        <time>2018-02-18T09:56:11Z</time>
      </trkpt>
      <trkpt lat="45.90491" lon="4.73652">
        <ele>177</ele>
        <time>2018-02-18T09:56:12Z</time>
      </trkpt>
      <trkpt lat="45.90486" lon="4.73655">
        <ele>177</ele>
        <time>2018-02-18T09:56:13Z</time>
      </trkpt>
      <trkpt lat="45.90477" lon="4.73658">
        <ele>177</ele>
        <time>2018-02-18T09:56:15Z</time>
      </trkpt>
      <trkpt lat="45.90473" lon="4.73661">
        <ele>177</ele>
        <time>2018-02-18T09:56:16Z</time>
      </trkpt>
      <trkpt lat="45.90467" lon="4.73662">
        <ele>177</ele>
        <time>2018-02-18T09:56:17Z</time>
      </trkpt>
      <trkpt lat="45.90461" lon="4.73665">
        <ele>177</ele>
        <time>2018-02-18T09:56:18Z</time>
      </trkpt>
      <trkpt lat="45.90456" lon="4.73667">
        <ele>176</ele>
        <time>2018-02-18T09:56:19Z</time>
      </trkpt>
      <trkpt lat="45.90451" lon="4.7367">
        <ele>176</ele>
        <time>2018-02-18T09:56:20Z</time>
      </trkpt>
      <trkpt lat="45.90446" lon="4.73673">
        <ele>176</ele>
        <time>2018-02-18T09:56:21Z</time>
      </trkpt>
      <trkpt lat="45.90439" lon="4.73674">
        <ele>176</ele>
        <time>2018-02-18T09:56:22Z</time>
      </trkpt>
      <trkpt lat="45.90433" lon="4.73677">
        <ele>177</ele>
        <time>2018-02-18T09:56:23Z</time>
      </trkpt>
      <trkpt lat="45.90427" lon="4.73681">
        <ele>177</ele>
        <time>2018-02-18T09:56:24Z</time>
      </trkpt>
      <trkpt lat="45.90421" lon="4.73683">
        <ele>177</ele>
        <time>2018-02-18T09:56:25Z</time>
      </trkpt>
      <trkpt lat="45.90417" lon="4.73685">
        <ele>177</ele>
        <time>2018-02-18T09:56:26Z</time>
      </trkpt>
      <trkpt lat="45.9041" lon="4.73688">
        <ele>177</ele>
        <time>2018-02-18T09:56:27Z</time>
      </trkpt>
      <trkpt lat="45.90404" lon="4.73691">
        <ele>177</ele>
        <time>2018-02-18T09:56:28Z</time>
      </trkpt>
      <trkpt lat="45.90397" lon="4.73694">
        <ele>177</ele>
        <time>2018-02-18T09:56:29Z</time>
      </trkpt>
      <trkpt lat="45.90391" lon="4.73697">
        <ele>177</ele>
        <time>2018-02-18T09:56:30Z</time>
      </trkpt>
      <trkpt lat="45.90385" lon="4.737">
        <ele>177</ele>
        <time>2018-02-18T09:56:31Z</time>
      </trkpt>
      <trkpt lat="45.90378" lon="4.73703">
        <ele>177</ele>
        <time>2018-02-18T09:56:32Z</time>
      </trkpt>
      <trkpt lat="45.90372" lon="4.73706">
        <ele>177</ele>
        <time>2018-02-18T09:56:33Z</time>
      </trkpt>
      <trkpt lat="45.90364" lon="4.73709">
        <ele>177</ele>
        <time>2018-02-18T09:56:34Z</time>
      </trkpt>
      <trkpt lat="45.90356" lon="4.73712">
        <ele>177</ele>
        <time>2018-02-18T09:56:35Z</time>
      </trkpt>
      <trkpt lat="45.90351" lon="4.73715">
        <ele>177</ele>
        <time>2018-02-18T09:56:36Z</time>
      </trkpt>
      <trkpt lat="45.90341" lon="4.73719">
        <ele>177</ele>
        <time>2018-02-18T09:56:37Z</time>
      </trkpt>
      <trkpt lat="45.90334" lon="4.73722">
        <ele>177</ele>
        <time>2018-02-18T09:56:38Z</time>
      </trkpt>
      <trkpt lat="45.90327" lon="4.73725">
        <ele>177</ele>
        <time>2018-02-18T09:56:39Z</time>
      </trkpt>
      <trkpt lat="45.90319" lon="4.73728">
        <ele>177</ele>
        <time>2018-02-18T09:56:40Z</time>
      </trkpt>
      <trkpt lat="45.90311" lon="4.7373">
        <ele>177</ele>
        <time>2018-02-18T09:56:41Z</time>
      </trkpt>
      <trkpt lat="45.90305" lon="4.73732">
        <ele>177</ele>
        <time>2018-02-18T09:56:42Z</time>
      </trkpt>
      <trkpt lat="45.90297" lon="4.73734">
        <ele>177</ele>
        <time>2018-02-18T09:56:43Z</time>
      </trkpt>
      <trkpt lat="45.9029" lon="4.73737">
        <ele>177</ele>
        <time>2018-02-18T09:56:44Z</time>
      </trkpt>
      <trkpt lat="45.90282" lon="4.73739">
        <ele>177</ele>
        <time>2018-02-18T09:56:45Z</time>
      </trkpt>
      <trkpt lat="45.90276" lon="4.73741">
        <ele>177</ele>
        <time>2018-02-18T09:56:46Z</time>
      </trkpt>
      <trkpt lat="45.9027" lon="4.73745">
        <ele>178</ele>
        <time>2018-02-18T09:56:47Z</time>
      </trkpt>
      <trkpt lat="45.90263" lon="4.73748">
        <ele>178</ele>
        <time>2018-02-18T09:56:48Z</time>
      </trkpt>
      <trkpt lat="45.90257" lon="4.73751">
        <ele>178</ele>
        <time>2018-02-18T09:56:49Z</time>
      </trkpt>
      <trkpt lat="45.90252" lon="4.73754">
        <ele>178</ele>
        <time>2018-02-18T09:56:50Z</time>
      </trkpt>
      <trkpt lat="45.90246" lon="4.73757">
        <ele>178</ele>
        <time>2018-02-18T09:56:51Z</time>
      </trkpt>
      <trkpt lat="45.9024" lon="4.73759">
        <ele>178</ele>
        <time>2018-02-18T09:56:52Z</time>
      </trkpt>
      <trkpt lat="45.90234" lon="4.73762">
        <ele>177</ele>
        <time>2018-02-18T09:56:53Z</time>
      </trkpt>
      <trkpt lat="45.90227" lon="4.73765">
        <ele>177</ele>
        <time>2018-02-18T09:56:54Z</time>
      </trkpt>
      <trkpt lat="45.90222" lon="4.73767">
        <ele>177</ele>
        <time>2018-02-18T09:56:55Z</time>
      </trkpt>
      <trkpt lat="45.90215" lon="4.7377">
        <ele>177</ele>
        <time>2018-02-18T09:56:56Z</time>
      </trkpt>
      <trkpt lat="45.90209" lon="4.73773">
        <ele>177</ele>
        <time>2018-02-18T09:56:57Z</time>
      </trkpt>
      <trkpt lat="45.90202" lon="4.73775">
        <ele>177</ele>
        <time>2018-02-18T09:56:58Z</time>
      </trkpt>
      <trkpt lat="45.90195" lon="4.73778">
        <ele>177</ele>
        <time>2018-02-18T09:56:59Z</time>
      </trkpt>
      <trkpt lat="45.90189" lon="4.7378">
        <ele>177</ele>
        <time>2018-02-18T09:57:00Z</time>
      </trkpt>
      <trkpt lat="45.90183" lon="4.73783">
        <ele>177</ele>
        <time>2018-02-18T09:57:01Z</time>
      </trkpt>
      <trkpt lat="45.90178" lon="4.73784">
        <ele>177</ele>
        <time>2018-02-18T09:57:02Z</time>
      </trkpt>
      <trkpt lat="45.90173" lon="4.73785">
        <ele>177</ele>
        <time>2018-02-18T09:57:03Z</time>
      </trkpt>
      <trkpt lat="45.90167" lon="4.73788">
        <ele>177</ele>
        <time>2018-02-18T09:57:04Z</time>
      </trkpt>
      <trkpt lat="45.90161" lon="4.73791">
        <ele>176</ele>
        <time>2018-02-18T09:57:05Z</time>
      </trkpt>
      <trkpt lat="45.90155" lon="4.73794">
        <ele>177</ele>
        <time>2018-02-18T09:57:06Z</time>
      </trkpt>
      <trkpt lat="45.90149" lon="4.73797">
        <ele>177</ele>
        <time>2018-02-18T09:57:07Z</time>
      </trkpt>
      <trkpt lat="45.90143" lon="4.738">
        <ele>177</ele>
        <time>2018-02-18T09:57:08Z</time>
      </trkpt>
      <trkpt lat="45.90137" lon="4.73803">
        <ele>177</ele>
        <time>2018-02-18T09:57:09Z</time>
      </trkpt>
      <trkpt lat="45.90132" lon="4.73806">
        <ele>177</ele>
        <time>2018-02-18T09:57:10Z</time>
      </trkpt>
      <trkpt lat="45.90125" lon="4.73809">
        <ele>177</ele>
        <time>2018-02-18T09:57:11Z</time>
      </trkpt>
      <trkpt lat="45.90119" lon="4.73811">
        <ele>177</ele>
        <time>2018-02-18T09:57:12Z</time>
      </trkpt>
      <trkpt lat="45.90114" lon="4.73813">
        <ele>177</ele>
        <time>2018-02-18T09:57:13Z</time>
      </trkpt>
      <trkpt lat="45.90108" lon="4.73816">
        <ele>177</ele>
        <time>2018-02-18T09:57:14Z</time>
      </trkpt>
      <trkpt lat="45.90102" lon="4.73818">
        <ele>177</ele>
        <time>2018-02-18T09:57:15Z</time>
      </trkpt>
      <trkpt lat="45.90097" lon="4.7382">
        <ele>177</ele>
        <time>2018-02-18T09:57:16Z</time>
      </trkpt>
      <trkpt lat="45.90091" lon="4.73822">
        <ele>177</ele>
        <time>2018-02-18T09:57:17Z</time>
      </trkpt>
      <trkpt lat="45.90086" lon="4.73824">
        <ele>178</ele>
        <time>2018-02-18T09:57:18Z</time>
      </trkpt>
      <trkpt lat="45.9008" lon="4.73827">
        <ele>178</ele>
        <time>2018-02-18T09:57:19Z</time>
      </trkpt>
      <trkpt lat="45.90074" lon="4.73829">
        <ele>178</ele>
        <time>2018-02-18T09:57:20Z</time>
      </trkpt>
      <trkpt lat="45.90069" lon="4.73831">
        <ele>178</ele>
        <time>2018-02-18T09:57:21Z</time>
      </trkpt>
      <trkpt lat="45.90063" lon="4.73834">
        <ele>178</ele>
        <time>2018-02-18T09:57:22Z</time>
      </trkpt>
      <trkpt lat="45.90058" lon="4.73836">
        <ele>178</ele>
        <time>2018-02-18T09:57:23Z</time>
      </trkpt>
      <trkpt lat="45.90052" lon="4.73839">
        <ele>178</ele>
        <time>2018-02-18T09:57:24Z</time>
      </trkpt>
      <trkpt lat="45.90047" lon="4.73841">
        <ele>178</ele>
        <time>2018-02-18T09:57:25Z</time>
      </trkpt>
      <trkpt lat="45.90042" lon="4.73843">
        <ele>178</ele>
        <time>2018-02-18T09:57:26Z</time>
      </trkpt>
      <trkpt lat="45.90036" lon="4.73846">
        <ele>178</ele>
        <time>2018-02-18T09:57:27Z</time>
      </trkpt>
      <trkpt lat="45.9003" lon="4.73848">
        <ele>178</ele>
        <time>2018-02-18T09:57:28Z</time>
      </trkpt>
      <trkpt lat="45.90025" lon="4.7385">
        <ele>178</ele>
        <time>2018-02-18T09:57:29Z</time>
      </trkpt>
      <trkpt lat="45.90018" lon="4.73852">
        <ele>178</ele>
        <time>2018-02-18T09:57:30Z</time>
      </trkpt>
      <trkpt lat="45.90013" lon="4.73855">
        <ele>178</ele>
        <time>2018-02-18T09:57:31Z</time>
      </trkpt>
      <trkpt lat="45.90007" lon="4.73857">
        <ele>178</ele>
        <time>2018-02-18T09:57:32Z</time>
      </trkpt>
      <trkpt lat="45.90001" lon="4.73859">
        <ele>178</ele>
        <time>2018-02-18T09:57:33Z</time>
      </trkpt>
      <trkpt lat="45.89994" lon="4.73862">
        <ele>178</ele>
        <time>2018-02-18T09:57:34Z</time>
      </trkpt>
      <trkpt lat="45.89989" lon="4.73864">
        <ele>178</ele>
        <time>2018-02-18T09:57:35Z</time>
      </trkpt>
      <trkpt lat="45.89985" lon="4.73865">
        <ele>178</ele>
        <time>2018-02-18T09:57:36Z</time>
      </trkpt>
      <trkpt lat="45.89979" lon="4.73869">
        <ele>178</ele>
        <time>2018-02-18T09:57:37Z</time>
      </trkpt>
      <trkpt lat="45.89975" lon="4.73872">
        <ele>178</ele>
        <time>2018-02-18T09:57:38Z</time>
      </trkpt>
      <trkpt lat="45.8997" lon="4.73875">
        <ele>178</ele>
        <time>2018-02-18T09:57:39Z</time>
      </trkpt>
      <trkpt lat="45.89965" lon="4.73875">
        <ele>178</ele>
        <time>2018-02-18T09:57:40Z</time>
      </trkpt>
      <trkpt lat="45.8996" lon="4.73877">
        <ele>178</ele>
        <time>2018-02-18T09:57:41Z</time>
      </trkpt>
      <trkpt lat="45.89954" lon="4.73879">
        <ele>178</ele>
        <time>2018-02-18T09:57:42Z</time>
      </trkpt>
      <trkpt lat="45.8995" lon="4.7388">
        <ele>178</ele>
        <time>2018-02-18T09:57:43Z</time>
      </trkpt>
      <trkpt lat="45.89944" lon="4.73882">
        <ele>178</ele>
        <time>2018-02-18T09:57:44Z</time>
      </trkpt>
      <trkpt lat="45.89938" lon="4.73884">
        <ele>178</ele>
        <time>2018-02-18T09:57:45Z</time>
      </trkpt>
      <trkpt lat="45.89932" lon="4.73888">
        <ele>178</ele>
        <time>2018-02-18T09:57:46Z</time>
      </trkpt>
      <trkpt lat="45.89927" lon="4.7389">
        <ele>178</ele>
        <time>2018-02-18T09:57:47Z</time>
      </trkpt>
      <trkpt lat="45.8992" lon="4.73894">
        <ele>178</ele>
        <time>2018-02-18T09:57:48Z</time>
      </trkpt>
      <trkpt lat="45.89915" lon="4.73896">
        <ele>178</ele>
        <time>2018-02-18T09:57:49Z</time>
      </trkpt>
      <trkpt lat="45.89909" lon="4.73898">
        <ele>178</ele>
        <time>2018-02-18T09:57:50Z</time>
      </trkpt>
      <trkpt lat="45.89903" lon="4.73901">
        <ele>178</ele>
        <time>2018-02-18T09:57:51Z</time>
      </trkpt>
      <trkpt lat="45.89896" lon="4.73904">
        <ele>178</ele>
        <time>2018-02-18T09:57:52Z</time>
      </trkpt>
      <trkpt lat="45.8989" lon="4.73905">
        <ele>179</ele>
        <time>2018-02-18T09:57:53Z</time>
      </trkpt>
      <trkpt lat="45.89885" lon="4.73907">
        <ele>179</ele>
        <time>2018-02-18T09:57:54Z</time>
      </trkpt>
      <trkpt lat="45.89879" lon="4.7391">
        <ele>179</ele>
        <time>2018-02-18T09:57:55Z</time>
      </trkpt>
      <trkpt lat="45.89872" lon="4.73913">
        <ele>179</ele>
        <time>2018-02-18T09:57:56Z</time>
      </trkpt>
      <trkpt lat="45.89867" lon="4.73916">
        <ele>179</ele>
        <time>2018-02-18T09:57:57Z</time>
      </trkpt>
      <trkpt lat="45.89861" lon="4.73919">
        <ele>179</ele>
        <time>2018-02-18T09:57:58Z</time>
      </trkpt>
      <trkpt lat="45.89856" lon="4.73922">
        <ele>179</ele>
        <time>2018-02-18T09:57:59Z</time>
      </trkpt>
      <trkpt lat="45.8985" lon="4.73924">
        <ele>179</ele>
        <time>2018-02-18T09:58:00Z</time>
      </trkpt>
      <trkpt lat="45.89845" lon="4.73927">
        <ele>179</ele>
        <time>2018-02-18T09:58:01Z</time>
      </trkpt>
      <trkpt lat="45.89839" lon="4.73929">
        <ele>179</ele>
        <time>2018-02-18T09:58:02Z</time>
      </trkpt>
      <trkpt lat="45.89835" lon="4.73932">
        <ele>179</ele>
        <time>2018-02-18T09:58:03Z</time>
      </trkpt>
      <trkpt lat="45.89829" lon="4.73935">
        <ele>179</ele>
        <time>2018-02-18T09:58:04Z</time>
      </trkpt>
      <trkpt lat="45.89825" lon="4.73938">
        <ele>179</ele>
        <time>2018-02-18T09:58:05Z</time>
      </trkpt>
      <trkpt lat="45.89819" lon="4.73941">
        <ele>179</ele>
        <time>2018-02-18T09:58:06Z</time>
      </trkpt>
      <trkpt lat="45.89813" lon="4.73943">
        <ele>179</ele>
        <time>2018-02-18T09:58:07Z</time>
      </trkpt>
      <trkpt lat="45.89808" lon="4.73946">
        <ele>179</ele>
        <time>2018-02-18T09:58:08Z</time>
      </trkpt>
      <trkpt lat="45.89804" lon="4.73948">
        <ele>179</ele>
        <time>2018-02-18T09:58:09Z</time>
      </trkpt>
      <trkpt lat="45.89799" lon="4.7395">
        <ele>179</ele>
        <time>2018-02-18T09:58:10Z</time>
      </trkpt>
      <trkpt lat="45.89794" lon="4.73952">
        <ele>179</ele>
        <time>2018-02-18T09:58:11Z</time>
      </trkpt>
      <trkpt lat="45.89789" lon="4.73954">
        <ele>179</ele>
        <time>2018-02-18T09:58:12Z</time>
      </trkpt>
      <trkpt lat="45.89783" lon="4.73955">
        <ele>179</ele>
        <time>2018-02-18T09:58:13Z</time>
      </trkpt>
      <trkpt lat="45.89778" lon="4.73958">
        <ele>179</ele>
        <time>2018-02-18T09:58:14Z</time>
      </trkpt>
      <trkpt lat="45.89773" lon="4.73959">
        <ele>179</ele>
        <time>2018-02-18T09:58:15Z</time>
      </trkpt>
      <trkpt lat="45.89769" lon="4.73961">
        <ele>179</ele>
        <time>2018-02-18T09:58:16Z</time>
      </trkpt>
      <trkpt lat="45.89764" lon="4.73964">
        <ele>179</ele>
        <time>2018-02-18T09:58:17Z</time>
      </trkpt>
      <trkpt lat="45.89758" lon="4.73967">
        <ele>178</ele>
        <time>2018-02-18T09:58:18Z</time>
      </trkpt>
      <trkpt lat="45.89753" lon="4.73968">
        <ele>178</ele>
        <time>2018-02-18T09:58:19Z</time>
      </trkpt>
      <trkpt lat="45.89748" lon="4.7397">
        <ele>178</ele>
        <time>2018-02-18T09:58:20Z</time>
      </trkpt>
      <trkpt lat="45.89742" lon="4.73972">
        <ele>178</ele>
        <time>2018-02-18T09:58:21Z</time>
      </trkpt>
      <trkpt lat="45.89737" lon="4.73975">
        <ele>178</ele>
        <time>2018-02-18T09:58:22Z</time>
      </trkpt>
      <trkpt lat="45.89731" lon="4.73976">
        <ele>178</ele>
        <time>2018-02-18T09:58:23Z</time>
      </trkpt>
      <trkpt lat="45.89725" lon="4.73979">
        <ele>178</ele>
        <time>2018-02-18T09:58:24Z</time>
      </trkpt>
      <trkpt lat="45.8972" lon="4.73982">
        <ele>178</ele>
        <time>2018-02-18T09:58:25Z</time>
      </trkpt>
      <trkpt lat="45.89713" lon="4.73983">
        <ele>178</ele>
        <time>2018-02-18T09:58:26Z</time>
      </trkpt>
      <trkpt lat="45.89707" lon="4.73986">
        <ele>178</ele>
        <time>2018-02-18T09:58:27Z</time>
      </trkpt>
      <trkpt lat="45.89702" lon="4.73988">
        <ele>178</ele>
        <time>2018-02-18T09:58:28Z</time>
      </trkpt>
      <trkpt lat="45.89697" lon="4.73991">
        <ele>178</ele>
        <time>2018-02-18T09:58:29Z</time>
      </trkpt>
      <trkpt lat="45.89691" lon="4.73993">
        <ele>178</ele>
        <time>2018-02-18T09:58:30Z</time>
      </trkpt>
      <trkpt lat="45.89686" lon="4.73996">
        <ele>179</ele>
        <time>2018-02-18T09:58:31Z</time>
      </trkpt>
      <trkpt lat="45.89679" lon="4.73999">
        <ele>179</ele>
        <time>2018-02-18T09:58:32Z</time>
      </trkpt>
      <trkpt lat="45.89674" lon="4.74001">
        <ele>179</ele>
        <time>2018-02-18T09:58:33Z</time>
      </trkpt>
      <trkpt lat="45.89668" lon="4.74002">
        <ele>179</ele>
        <time>2018-02-18T09:58:34Z</time>
      </trkpt>
      <trkpt lat="45.89663" lon="4.74004">
        <ele>179</ele>
        <time>2018-02-18T09:58:35Z</time>
      </trkpt>
      <trkpt lat="45.89657" lon="4.74008">
        <ele>179</ele>
        <time>2018-02-18T09:58:36Z</time>
      </trkpt>
      <trkpt lat="45.89653" lon="4.7401">
        <ele>179</ele>
        <time>2018-02-18T09:58:37Z</time>
      </trkpt>
      <trkpt lat="45.89646" lon="4.74011">
        <ele>180</ele>
        <time>2018-02-18T09:58:38Z</time>
      </trkpt>
      <trkpt lat="45.89641" lon="4.74014">
        <ele>180</ele>
        <time>2018-02-18T09:58:39Z</time>
      </trkpt>
      <trkpt lat="45.89634" lon="4.74016">
        <ele>180</ele>
        <time>2018-02-18T09:58:40Z</time>
      </trkpt>
      <trkpt lat="45.89629" lon="4.74017">
        <ele>180</ele>
        <time>2018-02-18T09:58:41Z</time>
      </trkpt>
      <trkpt lat="45.89624" lon="4.7402">
        <ele>180</ele>
        <time>2018-02-18T09:58:42Z</time>
      </trkpt>
      <trkpt lat="45.89619" lon="4.74022">
        <ele>180</ele>
        <time>2018-02-18T09:58:43Z</time>
      </trkpt>
      <trkpt lat="45.89614" lon="4.74024">
        <ele>180</ele>
        <time>2018-02-18T09:58:44Z</time>
      </trkpt>
      <trkpt lat="45.89608" lon="4.74024">
        <ele>180</ele>
        <time>2018-02-18T09:58:45Z</time>
      </trkpt>
      <trkpt lat="45.89603" lon="4.74026">
        <ele>180</ele>
        <time>2018-02-18T09:58:46Z</time>
      </trkpt>
      <trkpt lat="45.89598" lon="4.74028">
        <ele>180</ele>
        <time>2018-02-18T09:58:47Z</time>
      </trkpt>
      <trkpt lat="45.89592" lon="4.74031">
        <ele>180</ele>
        <time>2018-02-18T09:58:48Z</time>
      </trkpt>
      <trkpt lat="45.89587" lon="4.74033">
        <ele>180</ele>
        <time>2018-02-18T09:58:49Z</time>
      </trkpt>
      <trkpt lat="45.89582" lon="4.74036">
        <ele>181</ele>
        <time>2018-02-18T09:58:50Z</time>
      </trkpt>
      <trkpt lat="45.89577" lon="4.74038">
        <ele>181</ele>
        <time>2018-02-18T09:58:51Z</time>
      </trkpt>
      <trkpt lat="45.89572" lon="4.74041">
        <ele>181</ele>
        <time>2018-02-18T09:58:52Z</time>
      </trkpt>
      <trkpt lat="45.89567" lon="4.74044">
        <ele>181</ele>
        <time>2018-02-18T09:58:53Z</time>
      </trkpt>
      <trkpt lat="45.89562" lon="4.74046">
        <ele>181</ele>
        <time>2018-02-18T09:58:54Z</time>
      </trkpt>
      <trkpt lat="45.89557" lon="4.74048">
        <ele>181</ele>
        <time>2018-02-18T09:58:55Z</time>
      </trkpt>
      <trkpt lat="45.89548" lon="4.74051">
        <ele>181</ele>
        <time>2018-02-18T09:58:57Z</time>
      </trkpt>
      <trkpt lat="45.89544" lon="4.74054">
        <ele>181</ele>
        <time>2018-02-18T09:58:58Z</time>
      </trkpt>
      <trkpt lat="45.89539" lon="4.74056">
        <ele>181</ele>
        <time>2018-02-18T09:58:59Z</time>
      </trkpt>
      <trkpt lat="45.89535" lon="4.74058">
        <ele>181</ele>
        <time>2018-02-18T09:59:00Z</time>
      </trkpt>
      <trkpt lat="45.89531" lon="4.7406">
        <ele>181</ele>
        <time>2018-02-18T09:59:01Z</time>
      </trkpt>
      <trkpt lat="45.89526" lon="4.74062">
        <ele>181</ele>
        <time>2018-02-18T09:59:02Z</time>
      </trkpt>
      <trkpt lat="45.89521" lon="4.74064">
        <ele>181</ele>
        <time>2018-02-18T09:59:03Z</time>
      </trkpt>
      <trkpt lat="45.89516" lon="4.74066">
        <ele>181</ele>
        <time>2018-02-18T09:59:04Z</time>
      </trkpt>
      <trkpt lat="45.89511" lon="4.74068">
        <ele>181</ele>
        <time>2018-02-18T09:59:05Z</time>
      </trkpt>
      <trkpt lat="45.89506" lon="4.74071">
        <ele>181</ele>
        <time>2018-02-18T09:59:06Z</time>
      </trkpt>
      <trkpt lat="45.89501" lon="4.74073">
        <ele>181</ele>
        <time>2018-02-18T09:59:07Z</time>
      </trkpt>
      <trkpt lat="45.89496" lon="4.74075">
        <ele>181</ele>
        <time>2018-02-18T09:59:08Z</time>
      </trkpt>
      <trkpt lat="45.89487" lon="4.74078">
        <ele>181</ele>
        <time>2018-02-18T09:59:10Z</time>
      </trkpt>
      <trkpt lat="45.89482" lon="4.74081">
        <ele>181</ele>
        <time>2018-02-18T09:59:11Z</time>
      </trkpt>
      <trkpt lat="45.89477" lon="4.74083">
        <ele>181</ele>
        <time>2018-02-18T09:59:12Z</time>
      </trkpt>
      <trkpt lat="45.89471" lon="4.74084">
        <ele>182</ele>
        <time>2018-02-18T09:59:13Z</time>
      </trkpt>
      <trkpt lat="45.89467" lon="4.74086">
        <ele>182</ele>
        <time>2018-02-18T09:59:14Z</time>
      </trkpt>
      <trkpt lat="45.89463" lon="4.74088">
        <ele>182</ele>
        <time>2018-02-18T09:59:15Z</time>
      </trkpt>
      <trkpt lat="45.89458" lon="4.74091">
        <ele>182</ele>
        <time>2018-02-18T09:59:16Z</time>
      </trkpt>
      <trkpt lat="45.89454" lon="4.74093">
        <ele>182</ele>
        <time>2018-02-18T09:59:17Z</time>
      </trkpt>
      <trkpt lat="45.89448" lon="4.74095">
        <ele>182</ele>
        <time>2018-02-18T09:59:18Z</time>
      </trkpt>
      <trkpt lat="45.89443" lon="4.74097">
        <ele>182</ele>
        <time>2018-02-18T09:59:19Z</time>
      </trkpt>
      <trkpt lat="45.89438" lon="4.74099">
        <ele>182</ele>
        <time>2018-02-18T09:59:20Z</time>
      </trkpt>
      <trkpt lat="45.89433" lon="4.74101">
        <ele>182</ele>
        <time>2018-02-18T09:59:21Z</time>
      </trkpt>
      <trkpt lat="45.89427" lon="4.74104">
        <ele>182</ele>
        <time>2018-02-18T09:59:22Z</time>
      </trkpt>
      <trkpt lat="45.89422" lon="4.74106">
        <ele>182</ele>
        <time>2018-02-18T09:59:23Z</time>
      </trkpt>
      <trkpt lat="45.89417" lon="4.74108">
        <ele>183</ele>
        <time>2018-02-18T09:59:24Z</time>
      </trkpt>
      <trkpt lat="45.89412" lon="4.7411">
        <ele>183</ele>
        <time>2018-02-18T09:59:25Z</time>
      </trkpt>
      <trkpt lat="45.89406" lon="4.74112">
        <ele>183</ele>
        <time>2018-02-18T09:59:26Z</time>
      </trkpt>
      <trkpt lat="45.89401" lon="4.74115">
        <ele>184</ele>
        <time>2018-02-18T09:59:27Z</time>
      </trkpt>
      <trkpt lat="45.89395" lon="4.74117">
        <ele>184</ele>
        <time>2018-02-18T09:59:28Z</time>
      </trkpt>
      <trkpt lat="45.8939" lon="4.7412">
        <ele>184</ele>
        <time>2018-02-18T09:59:29Z</time>
      </trkpt>
      <trkpt lat="45.89385" lon="4.74123">
        <ele>184</ele>
        <time>2018-02-18T09:59:30Z</time>
      </trkpt>
      <trkpt lat="45.8938" lon="4.74126">
        <ele>184</ele>
        <time>2018-02-18T09:59:31Z</time>
      </trkpt>
      <trkpt lat="45.89374" lon="4.74129">
        <ele>184</ele>
        <time>2018-02-18T09:59:32Z</time>
      </trkpt>
      <trkpt lat="45.89369" lon="4.74132">
        <ele>184</ele>
        <time>2018-02-18T09:59:33Z</time>
      </trkpt>
      <trkpt lat="45.89363" lon="4.74134">
        <ele>184</ele>
        <time>2018-02-18T09:59:34Z</time>
      </trkpt>
      <trkpt lat="45.89358" lon="4.74136">
        <ele>184</ele>
        <time>2018-02-18T09:59:35Z</time>
      </trkpt>
      <trkpt lat="45.89353" lon="4.74138">
        <ele>184</ele>
        <time>2018-02-18T09:59:36Z</time>
      </trkpt>
      <trkpt lat="45.89347" lon="4.7414">
        <ele>185</ele>
        <time>2018-02-18T09:59:37Z</time>
      </trkpt>
      <trkpt lat="45.89339" lon="4.74143">
        <ele>185</ele>
        <time>2018-02-18T09:59:39Z</time>
      </trkpt>
      <trkpt lat="45.89334" lon="4.74145">
        <ele>185</ele>
        <time>2018-02-18T09:59:40Z</time>
      </trkpt>
      <trkpt lat="45.89329" lon="4.74147">
        <ele>185</ele>
        <time>2018-02-18T09:59:41Z</time>
      </trkpt>
      <trkpt lat="45.89324" lon="4.74149">
        <ele>185</ele>
        <time>2018-02-18T09:59:42Z</time>
      </trkpt>
      <trkpt lat="45.8932" lon="4.74152">
        <ele>185</ele>
        <time>2018-02-18T09:59:43Z</time>
      </trkpt>
      <trkpt lat="45.89314" lon="4.74154">
        <ele>185</ele>
        <time>2018-02-18T09:59:44Z</time>
      </trkpt>
      <trkpt lat="45.89308" lon="4.74156">
        <ele>185</ele>
        <time>2018-02-18T09:59:45Z</time>
      </trkpt>
      <trkpt lat="45.89303" lon="4.74158">
        <ele>185</ele>
        <time>2018-02-18T09:59:46Z</time>
      </trkpt>
      <trkpt lat="45.89297" lon="4.74161">
        <ele>185</ele>
        <time>2018-02-18T09:59:47Z</time>
      </trkpt>
      <trkpt lat="45.89292" lon="4.74164">
        <ele>185</ele>
        <time>2018-02-18T09:59:48Z</time>
      </trkpt>
      <trkpt lat="45.89286" lon="4.74167">
        <ele>186</ele>
        <time>2018-02-18T09:59:49Z</time>
      </trkpt>
      <trkpt lat="45.89279" lon="4.7417">
        <ele>186</ele>
        <time>2018-02-18T09:59:50Z</time>
      </trkpt>
      <trkpt lat="45.89273" lon="4.74172">
        <ele>186</ele>
        <time>2018-02-18T09:59:51Z</time>
      </trkpt>
      <trkpt lat="45.89268" lon="4.74175">
        <ele>186</ele>
        <time>2018-02-18T09:59:52Z</time>
      </trkpt>
      <trkpt lat="45.89262" lon="4.74178">
        <ele>186</ele>
        <time>2018-02-18T09:59:53Z</time>
      </trkpt>
      <trkpt lat="45.89257" lon="4.7418">
        <ele>185</ele>
        <time>2018-02-18T09:59:54Z</time>
      </trkpt>
      <trkpt lat="45.89251" lon="4.74183">
        <ele>186</ele>
        <time>2018-02-18T09:59:55Z</time>
      </trkpt>
      <trkpt lat="45.89245" lon="4.74185">
        <ele>186</ele>
        <time>2018-02-18T09:59:56Z</time>
      </trkpt>
      <trkpt lat="45.8924" lon="4.74188">
        <ele>186</ele>
        <time>2018-02-18T09:59:57Z</time>
      </trkpt>
      <trkpt lat="45.89235" lon="4.7419">
        <ele>186</ele>
        <time>2018-02-18T09:59:58Z</time>
      </trkpt>
      <trkpt lat="45.8923" lon="4.74192">
        <ele>186</ele>
        <time>2018-02-18T09:59:59Z</time>
      </trkpt>
      <trkpt lat="45.89224" lon="4.74194">
        <ele>186</ele>
        <time>2018-02-18T10:00:00Z</time>
      </trkpt>
      <trkpt lat="45.89218" lon="4.74196">
        <ele>186</ele>
        <time>2018-02-18T10:00:01Z</time>
      </trkpt>
      <trkpt lat="45.89213" lon="4.74199">
        <ele>186</ele>
        <time>2018-02-18T10:00:02Z</time>
      </trkpt>
      <trkpt lat="45.89208" lon="4.74201">
        <ele>186</ele>
        <time>2018-02-18T10:00:03Z</time>
      </trkpt>
      <trkpt lat="45.89203" lon="4.74203">
        <ele>186</ele>
        <time>2018-02-18T10:00:04Z</time>
      </trkpt>
      <trkpt lat="45.89198" lon="4.74206">
        <ele>186</ele>
        <time>2018-02-18T10:00:05Z</time>
      </trkpt>
      <trkpt lat="45.89193" lon="4.74209">
        <ele>186</ele>
        <time>2018-02-18T10:00:06Z</time>
      </trkpt>
      <trkpt lat="45.89187" lon="4.74211">
        <ele>186</ele>
        <time>2018-02-18T10:00:07Z</time>
      </trkpt>
      <trkpt lat="45.89182" lon="4.74213">
        <ele>186</ele>
        <time>2018-02-18T10:00:08Z</time>
      </trkpt>
      <trkpt lat="45.89176" lon="4.74216">
        <ele>186</ele>
        <time>2018-02-18T10:00:09Z</time>
      </trkpt>
      <trkpt lat="45.89171" lon="4.74218">
        <ele>186</ele>
        <time>2018-02-18T10:00:10Z</time>
      </trkpt>
      <trkpt lat="45.89166" lon="4.7422">
        <ele>186</ele>
        <time>2018-02-18T10:00:11Z</time>
      </trkpt>
      <trkpt lat="45.89161" lon="4.74222">
        <ele>186</ele>
        <time>2018-02-18T10:00:12Z</time>
      </trkpt>
      <trkpt lat="45.89157" lon="4.74224">
        <ele>186</ele>
        <time>2018-02-18T10:00:13Z</time>
      </trkpt>
      <trkpt lat="45.89151" lon="4.74226">
        <ele>186</ele>
        <time>2018-02-18T10:00:14Z</time>
      </trkpt>
      <trkpt lat="45.89147" lon="4.74227">
        <ele>186</ele>
        <time>2018-02-18T10:00:15Z</time>
      </trkpt>
      <trkpt lat="45.89142" lon="4.74229">
        <ele>186</ele>
        <time>2018-02-18T10:00:16Z</time>
      </trkpt>
      <trkpt lat="45.89137" lon="4.74232">
        <ele>186</ele>
        <time>2018-02-18T10:00:17Z</time>
      </trkpt>
      <trkpt lat="45.89132" lon="4.74233">
        <ele>186</ele>
        <time>2018-02-18T10:00:18Z</time>
      </trkpt>
      <trkpt lat="45.89126" lon="4.74236">
        <ele>186</ele>
        <time>2018-02-18T10:00:19Z</time>
      </trkpt>
      <trkpt lat="45.89121" lon="4.74238">
        <ele>186</ele>
        <time>2018-02-18T10:00:20Z</time>
      </trkpt>
      <trkpt lat="45.89116" lon="4.7424">
        <ele>186</ele>
        <time>2018-02-18T10:00:21Z</time>
      </trkpt>
      <trkpt lat="45.89111" lon="4.74241">
        <ele>186</ele>
        <time>2018-02-18T10:00:22Z</time>
      </trkpt>
      <trkpt lat="45.89107" lon="4.74242">
        <ele>186</ele>
        <time>2018-02-18T10:00:23Z</time>
      </trkpt>
      <trkpt lat="45.89102" lon="4.74244">
        <ele>186</ele>
        <time>2018-02-18T10:00:24Z</time>
      </trkpt>
      <trkpt lat="45.89097" lon="4.74247">
        <ele>186</ele>
        <time>2018-02-18T10:00:25Z</time>
      </trkpt>
      <trkpt lat="45.89092" lon="4.74248">
        <ele>186</ele>
        <time>2018-02-18T10:00:26Z</time>
      </trkpt>
      <trkpt lat="45.89088" lon="4.74249">
        <ele>186</ele>
        <time>2018-02-18T10:00:27Z</time>
      </trkpt>
      <trkpt lat="45.89083" lon="4.7425">
        <ele>186</ele>
        <time>2018-02-18T10:00:28Z</time>
      </trkpt>
      <trkpt lat="45.89078" lon="4.74252">
        <ele>186</ele>
        <time>2018-02-18T10:00:29Z</time>
      </trkpt>
      <trkpt lat="45.89074" lon="4.74254">
        <ele>186</ele>
        <time>2018-02-18T10:00:30Z</time>
      </trkpt>
      <trkpt lat="45.8907" lon="4.74256">
        <ele>186</ele>
        <time>2018-02-18T10:00:31Z</time>
      </trkpt>
      <trkpt lat="45.89064" lon="4.74258">
        <ele>186</ele>
        <time>2018-02-18T10:00:32Z</time>
      </trkpt>
      <trkpt lat="45.8906" lon="4.7426">
        <ele>187</ele>
        <time>2018-02-18T10:00:33Z</time>
      </trkpt>
      <trkpt lat="45.89055" lon="4.74262">
        <ele>187</ele>
        <time>2018-02-18T10:00:34Z</time>
      </trkpt>
      <trkpt lat="45.8905" lon="4.74264">
        <ele>187</ele>
        <time>2018-02-18T10:00:35Z</time>
      </trkpt>
      <trkpt lat="45.89045" lon="4.74266">
        <ele>187</ele>
        <time>2018-02-18T10:00:36Z</time>
      </trkpt>
      <trkpt lat="45.8904" lon="4.74268">
        <ele>187</ele>
        <time>2018-02-18T10:00:37Z</time>
      </trkpt>
      <trkpt lat="45.89035" lon="4.74269">
        <ele>187</ele>
        <time>2018-02-18T10:00:38Z</time>
      </trkpt>
      <trkpt lat="45.8903" lon="4.74271">
        <ele>187</ele>
        <time>2018-02-18T10:00:39Z</time>
      </trkpt>
      <trkpt lat="45.89025" lon="4.74271">
        <ele>187</ele>
        <time>2018-02-18T10:00:40Z</time>
      </trkpt>
      <trkpt lat="45.8902" lon="4.74273">
        <ele>187</ele>
        <time>2018-02-18T10:00:41Z</time>
      </trkpt>
      <trkpt lat="45.89016" lon="4.74275">
        <ele>187</ele>
        <time>2018-02-18T10:00:42Z</time>
      </trkpt>
      <trkpt lat="45.89011" lon="4.74275">
        <ele>187</ele>
        <time>2018-02-18T10:00:43Z</time>
      </trkpt>
      <trkpt lat="45.89006" lon="4.74275">
        <ele>187</ele>
        <time>2018-02-18T10:00:44Z</time>
      </trkpt>
      <trkpt lat="45.89001" lon="4.74277">
        <ele>187</ele>
        <time>2018-02-18T10:00:45Z</time>
      </trkpt>
      <trkpt lat="45.88996" lon="4.74278">
        <ele>187</ele>
        <time>2018-02-18T10:00:46Z</time>
      </trkpt>
      <trkpt lat="45.88992" lon="4.7428">
        <ele>187</ele>
        <time>2018-02-18T10:00:47Z</time>
      </trkpt>
      <trkpt lat="45.88987" lon="4.7428">
        <ele>187</ele>
        <time>2018-02-18T10:00:48Z</time>
      </trkpt>
      <trkpt lat="45.88982" lon="4.74281">
        <ele>187</ele>
        <time>2018-02-18T10:00:49Z</time>
      </trkpt>
      <trkpt lat="45.88977" lon="4.74281">
        <ele>187</ele>
        <time>2018-02-18T10:00:50Z</time>
      </trkpt>
      <trkpt lat="45.8897" lon="4.7428">
        <ele>187</ele>
        <time>2018-02-18T10:00:52Z</time>
      </trkpt>
      <trkpt lat="45.88967" lon="4.74278">
        <ele>187</ele>
        <time>2018-02-18T10:00:53Z</time>
      </trkpt>
      <trkpt lat="45.8896" lon="4.74274">
        <ele>187</ele>
        <time>2018-02-18T10:00:55Z</time>
      </trkpt>
      <trkpt lat="45.88954" lon="4.74272">
        <ele>187</ele>
        <time>2018-02-18T10:00:56Z</time>
      </trkpt>
      <trkpt lat="45.88947" lon="4.74269">
        <ele>187</ele>
        <time>2018-02-18T10:00:58Z</time>
      </trkpt>
      <trkpt lat="45.88944" lon="4.74269">
        <ele>187</ele>
        <time>2018-02-18T10:00:59Z</time>
      </trkpt>
      <trkpt lat="45.88937" lon="4.74265">
        <ele>187</ele>
        <time>2018-02-18T10:01:01Z</time>
      </trkpt>
      <trkpt lat="45.88932" lon="4.74264">
        <ele>187</ele>
        <time>2018-02-18T10:01:02Z</time>
      </trkpt>
      <trkpt lat="45.88924" lon="4.74261">
        <ele>187</ele>
        <time>2018-02-18T10:01:04Z</time>
      </trkpt>
      <trkpt lat="45.88919" lon="4.74258">
        <ele>187</ele>
        <time>2018-02-18T10:01:05Z</time>
      </trkpt>
      <trkpt lat="45.88912" lon="4.74251">
        <ele>187</ele>
        <time>2018-02-18T10:01:07Z</time>
      </trkpt>
      <trkpt lat="45.88907" lon="4.7425">
        <ele>187</ele>
        <time>2018-02-18T10:01:08Z</time>
      </trkpt>
      <trkpt lat="45.88903" lon="4.74245">
        <ele>187</ele>
        <time>2018-02-18T10:01:09Z</time>
      </trkpt>
      <trkpt lat="45.88898" lon="4.74242">
        <ele>187</ele>
        <time>2018-02-18T10:01:10Z</time>
      </trkpt>
      <trkpt lat="45.88892" lon="4.7424">
        <ele>187</ele>
        <time>2018-02-18T10:01:11Z</time>
      </trkpt>
      <trkpt lat="45.88887" lon="4.74238">
        <ele>187</ele>
        <time>2018-02-18T10:01:12Z</time>
      </trkpt>
      <trkpt lat="45.88879" lon="4.74234">
        <ele>187</ele>
        <time>2018-02-18T10:01:14Z</time>
      </trkpt>
      <trkpt lat="45.88874" lon="4.74229">
        <ele>187</ele>
        <time>2018-02-18T10:01:15Z</time>
      </trkpt>
      <trkpt lat="45.8887" lon="4.74225">
        <ele>187</ele>
        <time>2018-02-18T10:01:16Z</time>
      </trkpt>
      <trkpt lat="45.88865" lon="4.74222">
        <ele>187</ele>
        <time>2018-02-18T10:01:17Z</time>
      </trkpt>
      <trkpt lat="45.88858" lon="4.74216">
        <ele>187</ele>
        <time>2018-02-18T10:01:19Z</time>
      </trkpt>
      <trkpt lat="45.88854" lon="4.74212">
        <ele>187</ele>
        <time>2018-02-18T10:01:20Z</time>
      </trkpt>
      <trkpt lat="45.8885" lon="4.74209">
        <ele>187</ele>
        <time>2018-02-18T10:01:21Z</time>
      </trkpt>
      <trkpt lat="45.88845" lon="4.74207">
        <ele>187</ele>
        <time>2018-02-18T10:01:22Z</time>
      </trkpt>
      <trkpt lat="45.88839" lon="4.74205">
        <ele>187</ele>
        <time>2018-02-18T10:01:23Z</time>
      </trkpt>
      <trkpt lat="45.88834" lon="4.74202">
        <ele>187</ele>
        <time>2018-02-18T10:01:24Z</time>
      </trkpt>
      <trkpt lat="45.88829" lon="4.74199">
        <ele>187</ele>
        <time>2018-02-18T10:01:25Z</time>
      </trkpt>
      <trkpt lat="45.88825" lon="4.74195">
        <ele>187</ele>
        <time>2018-02-18T10:01:26Z</time>
      </trkpt>
      <trkpt lat="45.88819" lon="4.74192">
        <ele>187</ele>
        <time>2018-02-18T10:01:27Z</time>
      </trkpt>
      <trkpt lat="45.88814" lon="4.74189">
        <ele>187</ele>
        <time>2018-02-18T10:01:28Z</time>
      </trkpt>
      <trkpt lat="45.88808" lon="4.74186">
        <ele>187</ele>
        <time>2018-02-18T10:01:29Z</time>
      </trkpt>
      <trkpt lat="45.88803" lon="4.74183">
        <ele>187</ele>
        <time>2018-02-18T10:01:30Z</time>
      </trkpt>
      <trkpt lat="45.88798" lon="4.7418">
        <ele>187</ele>
        <time>2018-02-18T10:01:31Z</time>
      </trkpt>
      <trkpt lat="45.88793" lon="4.74178">
        <ele>187</ele>
        <time>2018-02-18T10:01:32Z</time>
      </trkpt>
      <trkpt lat="45.88789" lon="4.74174">
        <ele>188</ele>
        <time>2018-02-18T10:01:33Z</time>
      </trkpt>
      <trkpt lat="45.88784" lon="4.74172">
        <ele>188</ele>
        <time>2018-02-18T10:01:34Z</time>
      </trkpt>
      <trkpt lat="45.8878" lon="4.7417">
        <ele>188</ele>
        <time>2018-02-18T10:01:35Z</time>
      </trkpt>
      <trkpt lat="45.88775" lon="4.74168">
        <ele>188</ele>
        <time>2018-02-18T10:01:36Z</time>
      </trkpt>
      <trkpt lat="45.88767" lon="4.74164">
        <ele>187</ele>
        <time>2018-02-18T10:01:38Z</time>
      </trkpt>
      <trkpt lat="45.88762" lon="4.74162">
        <ele>187</ele>
        <time>2018-02-18T10:01:39Z</time>
      </trkpt>
      <trkpt lat="45.88759" lon="4.74159">
        <ele>187</ele>
        <time>2018-02-18T10:01:40Z</time>
      </trkpt>
      <trkpt lat="45.88755" lon="4.74154">
        <ele>187</ele>
        <time>2018-02-18T10:01:41Z</time>
      </trkpt>
      <trkpt lat="45.88751" lon="4.74151">
        <ele>187</ele>
        <time>2018-02-18T10:01:42Z</time>
      </trkpt>
      <trkpt lat="45.88747" lon="4.74148">
        <ele>188</ele>
        <time>2018-02-18T10:01:43Z</time>
      </trkpt>
      <trkpt lat="45.88742" lon="4.74144">
        <ele>188</ele>
        <time>2018-02-18T10:01:44Z</time>
      </trkpt>
      <trkpt lat="45.88738" lon="4.7414">
        <ele>188</ele>
        <time>2018-02-18T10:01:45Z</time>
      </trkpt>
      <trkpt lat="45.88733" lon="4.74136">
        <ele>188</ele>
        <time>2018-02-18T10:01:46Z</time>
      </trkpt>
      <trkpt lat="45.88728" lon="4.74132">
        <ele>188</ele>
        <time>2018-02-18T10:01:47Z</time>
      </trkpt>
      <trkpt lat="45.88721" lon="4.74124">
        <ele>188</ele>
        <time>2018-02-18T10:01:49Z</time>
      </trkpt>
      <trkpt lat="45.88717" lon="4.74121">
        <ele>188</ele>
        <time>2018-02-18T10:01:50Z</time>
      </trkpt>
      <trkpt lat="45.88712" lon="4.74116">
        <ele>188</ele>
        <time>2018-02-18T10:01:51Z</time>
      </trkpt>
      <trkpt lat="45.88709" lon="4.74113">
        <ele>188</ele>
        <time>2018-02-18T10:01:52Z</time>
      </trkpt>
      <trkpt lat="45.887" lon="4.7411">
        <ele>188</ele>
        <time>2018-02-18T10:01:54Z</time>
      </trkpt>
      <trkpt lat="45.88695" lon="4.74109">
        <ele>188</ele>
        <time>2018-02-18T10:01:55Z</time>
      </trkpt>
      <trkpt lat="45.8869" lon="4.74109">
        <ele>188</ele>
        <time>2018-02-18T10:01:56Z</time>
      </trkpt>
      <trkpt lat="45.88684" lon="4.74109">
        <ele>188</ele>
        <time>2018-02-18T10:01:57Z</time>
      </trkpt>
      <trkpt lat="45.88677" lon="4.74104">
        <ele>188</ele>
        <time>2018-02-18T10:01:59Z</time>
      </trkpt>
      <trkpt lat="45.88674" lon="4.74098">
        <ele>188</ele>
        <time>2018-02-18T10:02:00Z</time>
      </trkpt>
      <trkpt lat="45.88672" lon="4.74092">
        <ele>188</ele>
        <time>2018-02-18T10:02:01Z</time>
      </trkpt>
      <trkpt lat="45.8867" lon="4.74086">
        <ele>188</ele>
        <time>2018-02-18T10:02:02Z</time>
      </trkpt>
      <trkpt lat="45.88669" lon="4.7408">
        <ele>188</ele>
        <time>2018-02-18T10:02:03Z</time>
      </trkpt>
      <trkpt lat="45.88666" lon="4.74074">
        <ele>188</ele>
        <time>2018-02-18T10:02:04Z</time>
      </trkpt>
      <trkpt lat="45.88664" lon="4.74066">
        <ele>188</ele>
        <time>2018-02-18T10:02:05Z</time>
      </trkpt>
      <trkpt lat="45.88662" lon="4.74059">
        <ele>187</ele>
        <time>2018-02-18T10:02:06Z</time>
      </trkpt>
      <trkpt lat="45.88661" lon="4.74051">
        <ele>187</ele>
        <time>2018-02-18T10:02:07Z</time>
      </trkpt>
      <trkpt lat="45.88659" lon="4.74043">
        <ele>187</ele>
        <time>2018-02-18T10:02:08Z</time>
      </trkpt>
      <trkpt lat="45.88658" lon="4.74036">
        <ele>187</ele>
        <time>2018-02-18T10:02:09Z</time>
      </trkpt>
      <trkpt lat="45.88656" lon="4.74027">
        <ele>187</ele>
        <time>2018-02-18T10:02:10Z</time>
      </trkpt>
      <trkpt lat="45.88654" lon="4.74016">
        <ele>187</ele>
        <time>2018-02-18T10:02:11Z</time>
      </trkpt>
      <trkpt lat="45.88655" lon="4.74002">
        <ele>186</ele>
        <time>2018-02-18T10:02:12Z</time>
      </trkpt>
      <trkpt lat="45.88654" lon="4.73993">
        <ele>186</ele>
        <time>2018-02-18T10:02:13Z</time>
      </trkpt>
      <trkpt lat="45.88652" lon="4.73985">
        <ele>186</ele>
        <time>2018-02-18T10:02:14Z</time>
      </trkpt>
      <trkpt lat="45.88651" lon="4.73976">
        <ele>187</ele>
        <time>2018-02-18T10:02:15Z</time>
      </trkpt>
      <trkpt lat="45.8865" lon="4.73968">
        <ele>187</ele>
        <time>2018-02-18T10:02:16Z</time>
      </trkpt>
      <trkpt lat="45.88649" lon="4.7396">
        <ele>187</ele>
        <time>2018-02-18T10:02:17Z</time>
      </trkpt>
      <trkpt lat="45.88648" lon="4.73951">
        <ele>187</ele>
        <time>2018-02-18T10:02:18Z</time>
      </trkpt>
      <trkpt lat="45.88647" lon="4.73943">
        <ele>187</ele>
        <time>2018-02-18T10:02:19Z</time>
      </trkpt>
      <trkpt lat="45.88647" lon="4.73933">
        <ele>187</ele>
        <time>2018-02-18T10:02:20Z</time>
      </trkpt>
      <trkpt lat="45.88645" lon="4.73924">
        <ele>187</ele>
        <time>2018-02-18T10:02:21Z</time>
      </trkpt>
      <trkpt lat="45.88645" lon="4.73916">
        <ele>187</ele>
        <time>2018-02-18T10:02:22Z</time>
      </trkpt>
      <trkpt lat="45.88645" lon="4.73907">
        <ele>187</ele>
        <time>2018-02-18T10:02:23Z</time>
      </trkpt>
      <trkpt lat="45.88645" lon="4.73899">
        <ele>187</ele>
        <time>2018-02-18T10:02:24Z</time>
      </trkpt>
      <trkpt lat="45.88645" lon="4.73891">
        <ele>187</ele>
        <time>2018-02-18T10:02:25Z</time>
      </trkpt>
      <trkpt lat="45.88644" lon="4.73884">
        <ele>187</ele>
        <time>2018-02-18T10:02:26Z</time>
      </trkpt>
      <trkpt lat="45.88645" lon="4.73876">
        <ele>187</ele>
        <time>2018-02-18T10:02:27Z</time>
      </trkpt>
      <trkpt lat="45.88644" lon="4.73869">
        <ele>187</ele>
        <time>2018-02-18T10:02:28Z</time>
      </trkpt>
      <trkpt lat="45.88644" lon="4.73862">
        <ele>187</ele>
        <time>2018-02-18T10:02:29Z</time>
      </trkpt>
      <trkpt lat="45.88644" lon="4.73856">
        <ele>187</ele>
        <time>2018-02-18T10:02:30Z</time>
      </trkpt>
      <trkpt lat="45.88645" lon="4.73847">
        <ele>187</ele>
        <time>2018-02-18T10:02:31Z</time>
      </trkpt>
      <trkpt lat="45.88645" lon="4.7384">
        <ele>187</ele>
        <time>2018-02-18T10:02:32Z</time>
      </trkpt>
      <trkpt lat="45.88645" lon="4.73833">
        <ele>187</ele>
        <time>2018-02-18T10:02:33Z</time>
      </trkpt>
      <trkpt lat="45.88646" lon="4.73823">
        <ele>187</ele>
        <time>2018-02-18T10:02:34Z</time>
      </trkpt>
      <trkpt lat="45.88645" lon="4.7381">
        <ele>187</ele>
        <time>2018-02-18T10:02:36Z</time>
      </trkpt>
      <trkpt lat="45.88645" lon="4.73804">
        <ele>187</ele>
        <time>2018-02-18T10:02:37Z</time>
      </trkpt>
      <trkpt lat="45.88645" lon="4.73797">
        <ele>187</ele>
        <time>2018-02-18T10:02:38Z</time>
      </trkpt>
      <trkpt lat="45.88645" lon="4.7379">
        <ele>187</ele>
        <time>2018-02-18T10:02:39Z</time>
      </trkpt>
      <trkpt lat="45.88647" lon="4.73778">
        <ele>187</ele>
        <time>2018-02-18T10:02:41Z</time>
      </trkpt>
      <trkpt lat="45.88647" lon="4.73772">
        <ele>187</ele>
        <time>2018-02-18T10:02:42Z</time>
      </trkpt>
      <trkpt lat="45.88647" lon="4.73759">
        <ele>187</ele>
        <time>2018-02-18T10:02:44Z</time>
      </trkpt>
      <trkpt lat="45.88647" lon="4.73753">
        <ele>187</ele>
        <time>2018-02-18T10:02:45Z</time>
      </trkpt>
      <trkpt lat="45.88646" lon="4.73742">
        <ele>187</ele>
        <time>2018-02-18T10:02:47Z</time>
      </trkpt>
      <trkpt lat="45.88647" lon="4.73735">
        <ele>187</ele>
        <time>2018-02-18T10:02:48Z</time>
      </trkpt>
      <trkpt lat="45.88648" lon="4.73723">
        <ele>186</ele>
        <time>2018-02-18T10:02:50Z</time>
      </trkpt>
      <trkpt lat="45.88648" lon="4.73717">
        <ele>186</ele>
        <time>2018-02-18T10:02:51Z</time>
      </trkpt>
      <trkpt lat="45.88648" lon="4.73707">
        <ele>186</ele>
        <time>2018-02-18T10:02:53Z</time>
      </trkpt>
      <trkpt lat="45.88648" lon="4.73701">
        <ele>186</ele>
        <time>2018-02-18T10:02:54Z</time>
      </trkpt>
      <trkpt lat="45.88648" lon="4.73692">
        <ele>186</ele>
        <time>2018-02-18T10:02:56Z</time>
      </trkpt>
      <trkpt lat="45.88648" lon="4.73687">
        <ele>186</ele>
        <time>2018-02-18T10:02:57Z</time>
      </trkpt>
      <trkpt lat="45.88648" lon="4.73677">
        <ele>186</ele>
        <time>2018-02-18T10:02:59Z</time>
      </trkpt>
      <trkpt lat="45.88648" lon="4.73672">
        <ele>186</ele>
        <time>2018-02-18T10:03:00Z</time>
      </trkpt>
      <trkpt lat="45.88648" lon="4.73662">
        <ele>186</ele>
        <time>2018-02-18T10:03:02Z</time>
      </trkpt>
      <trkpt lat="45.88648" lon="4.73657">
        <ele>186</ele>
        <time>2018-02-18T10:03:03Z</time>
      </trkpt>
      <trkpt lat="45.88648" lon="4.73646">
        <ele>186</ele>
        <time>2018-02-18T10:03:05Z</time>
      </trkpt>
      <trkpt lat="45.88648" lon="4.7364">
        <ele>186</ele>
        <time>2018-02-18T10:03:06Z</time>
      </trkpt>
      <trkpt lat="45.8865" lon="4.73628">
        <ele>186</ele>
        <time>2018-02-18T10:03:08Z</time>
      </trkpt>
      <trkpt lat="45.88649" lon="4.73621">
        <ele>186</ele>
        <time>2018-02-18T10:03:09Z</time>
      </trkpt>
      <trkpt lat="45.88649" lon="4.73614">
        <ele>186</ele>
        <time>2018-02-18T10:03:10Z</time>
      </trkpt>
      <trkpt lat="45.88648" lon="4.73608">
        <ele>186</ele>
        <time>2018-02-18T10:03:11Z</time>
      </trkpt>
      <trkpt lat="45.88648" lon="4.73601">
        <ele>186</ele>
        <time>2018-02-18T10:03:12Z</time>
      </trkpt>
      <trkpt lat="45.88649" lon="4.73594">
        <ele>185</ele>
        <time>2018-02-18T10:03:13Z</time>
      </trkpt>
      <trkpt lat="45.88648" lon="4.73586">
        <ele>185</ele>
        <time>2018-02-18T10:03:14Z</time>
      </trkpt>
      <trkpt lat="45.88649" lon="4.73577">
        <ele>185</ele>
        <time>2018-02-18T10:03:15Z</time>
      </trkpt>
      <trkpt lat="45.88648" lon="4.73568">
        <ele>185</ele>
        <time>2018-02-18T10:03:16Z</time>
      </trkpt>
      <trkpt lat="45.88648" lon="4.7356">
        <ele>185</ele>
        <time>2018-02-18T10:03:17Z</time>
      </trkpt>
      <trkpt lat="45.88648" lon="4.7355">
        <ele>185</ele>
        <time>2018-02-18T10:03:18Z</time>
      </trkpt>
      <trkpt lat="45.88648" lon="4.73538">
        <ele>185</ele>
        <time>2018-02-18T10:03:19Z</time>
      </trkpt>
      <trkpt lat="45.88649" lon="4.73528">
        <ele>185</ele>
        <time>2018-02-18T10:03:20Z</time>
      </trkpt>
      <trkpt lat="45.88651" lon="4.73518">
        <ele>185</ele>
        <time>2018-02-18T10:03:21Z</time>
      </trkpt>
      <trkpt lat="45.88653" lon="4.73508">
        <ele>184</ele>
        <time>2018-02-18T10:03:22Z</time>
      </trkpt>
      <trkpt lat="45.88655" lon="4.735">
        <ele>184</ele>
        <time>2018-02-18T10:03:23Z</time>
      </trkpt>
      <trkpt lat="45.88656" lon="4.73493">
        <ele>184</ele>
        <time>2018-02-18T10:03:24Z</time>
      </trkpt>
      <trkpt lat="45.88657" lon="4.73486">
        <ele>184</ele>
        <time>2018-02-18T10:03:25Z</time>
      </trkpt>
      <trkpt lat="45.88655" lon="4.73478">
        <ele>184</ele>
        <time>2018-02-18T10:03:26Z</time>
      </trkpt>
      <trkpt lat="45.88652" lon="4.73472">
        <ele>184</ele>
        <time>2018-02-18T10:03:27Z</time>
      </trkpt>
      <trkpt lat="45.88648" lon="4.7347">
        <ele>184</ele>
        <time>2018-02-18T10:03:28Z</time>
      </trkpt>
      <trkpt lat="45.88642" lon="4.7347">
        <ele>184</ele>
        <time>2018-02-18T10:03:29Z</time>
      </trkpt>
      <trkpt lat="45.88639" lon="4.73465">
        <ele>184</ele>
        <time>2018-02-18T10:03:30Z</time>
      </trkpt>
      <trkpt lat="45.88636" lon="4.73459">
        <ele>184</ele>
        <time>2018-02-18T10:03:31Z</time>
      </trkpt>
      <trkpt lat="45.88635" lon="4.73452">
        <ele>184</ele>
        <time>2018-02-18T10:03:32Z</time>
      </trkpt>
      <trkpt lat="45.88634" lon="4.73444">
        <ele>184</ele>
        <time>2018-02-18T10:03:33Z</time>
      </trkpt>
      <trkpt lat="45.88636" lon="4.73438">
        <ele>184</ele>
        <time>2018-02-18T10:03:34Z</time>
      </trkpt>
      <trkpt lat="45.88637" lon="4.73431">
        <ele>184</ele>
        <time>2018-02-18T10:03:35Z</time>
      </trkpt>
      <trkpt lat="45.88638" lon="4.73424">
        <ele>184</ele>
        <time>2018-02-18T10:03:36Z</time>
      </trkpt>
      <trkpt lat="45.88638" lon="4.73418">
        <ele>184</ele>
        <time>2018-02-18T10:03:37Z</time>
      </trkpt>
      <trkpt lat="45.88637" lon="4.7341">
        <ele>184</ele>
        <time>2018-02-18T10:03:38Z</time>
      </trkpt>
      <trkpt lat="45.88634" lon="4.73402">
        <ele>183</ele>
        <time>2018-02-18T10:03:39Z</time>
      </trkpt>
      <trkpt lat="45.88631" lon="4.73396">
        <ele>183</ele>
        <time>2018-02-18T10:03:40Z</time>
      </trkpt>
      <trkpt lat="45.88626" lon="4.7339">
        <ele>183</ele>
        <time>2018-02-18T10:03:41Z</time>
      </trkpt>
      <trkpt lat="45.88622" lon="4.73386">
        <ele>183</ele>
        <time>2018-02-18T10:03:42Z</time>
      </trkpt>
      <trkpt lat="45.88616" lon="4.73386">
        <ele>183</ele>
        <time>2018-02-18T10:03:43Z</time>
      </trkpt>
      <trkpt lat="45.88611" lon="4.73387">
        <ele>183</ele>
        <time>2018-02-18T10:03:44Z</time>
      </trkpt>
      <trkpt lat="45.88606" lon="4.73387">
        <ele>183</ele>
        <time>2018-02-18T10:03:45Z</time>
      </trkpt>
      <trkpt lat="45.88602" lon="4.73388">
        <ele>183</ele>
        <time>2018-02-18T10:03:46Z</time>
      </trkpt>
      <trkpt lat="45.88597" lon="4.73389">
        <ele>183</ele>
        <time>2018-02-18T10:03:47Z</time>
      </trkpt>
      <trkpt lat="45.88592" lon="4.73391">
        <ele>183</ele>
        <time>2018-02-18T10:03:48Z</time>
      </trkpt>
      <trkpt lat="45.88588" lon="4.73393">
        <ele>183</ele>
        <time>2018-02-18T10:03:49Z</time>
      </trkpt>
      <trkpt lat="45.88583" lon="4.73395">
        <ele>183</ele>
        <time>2018-02-18T10:03:50Z</time>
      </trkpt>
      <trkpt lat="45.88579" lon="4.73397">
        <ele>183</ele>
        <time>2018-02-18T10:03:51Z</time>
      </trkpt>
      <trkpt lat="45.88574" lon="4.73398">
        <ele>183</ele>
        <time>2018-02-18T10:03:52Z</time>
      </trkpt>
      <trkpt lat="45.88569" lon="4.73399">
        <ele>183</ele>
        <time>2018-02-18T10:03:53Z</time>
      </trkpt>
      <trkpt lat="45.88565" lon="4.73402">
        <ele>183</ele>
        <time>2018-02-18T10:03:54Z</time>
      </trkpt>
      <trkpt lat="45.88559" lon="4.73403">
        <ele>183</ele>
        <time>2018-02-18T10:03:55Z</time>
      </trkpt>
      <trkpt lat="45.88555" lon="4.73404">
        <ele>183</ele>
        <time>2018-02-18T10:03:56Z</time>
      </trkpt>
      <trkpt lat="45.8855" lon="4.73406">
        <ele>183</ele>
        <time>2018-02-18T10:03:57Z</time>
      </trkpt>
      <trkpt lat="45.88541" lon="4.7341">
        <ele>183</ele>
        <time>2018-02-18T10:03:59Z</time>
      </trkpt>
      <trkpt lat="45.88536" lon="4.73411">
        <ele>183</ele>
        <time>2018-02-18T10:04:00Z</time>
      </trkpt>
      <trkpt lat="45.88531" lon="4.73413">
        <ele>183</ele>
        <time>2018-02-18T10:04:01Z</time>
      </trkpt>
      <trkpt lat="45.88527" lon="4.73414">
        <ele>183</ele>
        <time>2018-02-18T10:04:02Z</time>
      </trkpt>
      <trkpt lat="45.88521" lon="4.73415">
        <ele>184</ele>
        <time>2018-02-18T10:04:03Z</time>
      </trkpt>
      <trkpt lat="45.88516" lon="4.73417">
        <ele>184</ele>
        <time>2018-02-18T10:04:04Z</time>
      </trkpt>
      <trkpt lat="45.8851" lon="4.73419">
        <ele>184</ele>
        <time>2018-02-18T10:04:05Z</time>
      </trkpt>
      <trkpt lat="45.88504" lon="4.73421">
        <ele>184</ele>
        <time>2018-02-18T10:04:06Z</time>
      </trkpt>
      <trkpt lat="45.88498" lon="4.73422">
        <ele>184</ele>
        <time>2018-02-18T10:04:07Z</time>
      </trkpt>
      <trkpt lat="45.88493" lon="4.73423">
        <ele>184</ele>
        <time>2018-02-18T10:04:08Z</time>
      </trkpt>
      <trkpt lat="45.88488" lon="4.73424">
        <ele>184</ele>
        <time>2018-02-18T10:04:09Z</time>
      </trkpt>
      <trkpt lat="45.88482" lon="4.73425">
        <ele>184</ele>
        <time>2018-02-18T10:04:10Z</time>
      </trkpt>
      <trkpt lat="45.88477" lon="4.73426">
        <ele>184</ele>
        <time>2018-02-18T10:04:11Z</time>
      </trkpt>
      <trkpt lat="45.88472" lon="4.73428">
        <ele>184</ele>
        <time>2018-02-18T10:04:12Z</time>
      </trkpt>
      <trkpt lat="45.88467" lon="4.7343">
        <ele>184</ele>
        <time>2018-02-18T10:04:13Z</time>
      </trkpt>
      <trkpt lat="45.88463" lon="4.73432">
        <ele>184</ele>
        <time>2018-02-18T10:04:14Z</time>
      </trkpt>
      <trkpt lat="45.88458" lon="4.73433">
        <ele>184</ele>
        <time>2018-02-18T10:04:15Z</time>
      </trkpt>
      <trkpt lat="45.88453" lon="4.73435">
        <ele>184</ele>
        <time>2018-02-18T10:04:16Z</time>
      </trkpt>
      <trkpt lat="45.88448" lon="4.73435">
        <ele>184</ele>
        <time>2018-02-18T10:04:17Z</time>
      </trkpt>
      <trkpt lat="45.88442" lon="4.73436">
        <ele>184</ele>
        <time>2018-02-18T10:04:18Z</time>
      </trkpt>
      <trkpt lat="45.88437" lon="4.73436">
        <ele>184</ele>
        <time>2018-02-18T10:04:19Z</time>
      </trkpt>
      <trkpt lat="45.88432" lon="4.73438">
        <ele>184</ele>
        <time>2018-02-18T10:04:20Z</time>
      </trkpt>
      <trkpt lat="45.88427" lon="4.7344">
        <ele>184</ele>
        <time>2018-02-18T10:04:21Z</time>
      </trkpt>
      <trkpt lat="45.88422" lon="4.73441">
        <ele>184</ele>
        <time>2018-02-18T10:04:22Z</time>
      </trkpt>
      <trkpt lat="45.88418" lon="4.73443">
        <ele>184</ele>
        <time>2018-02-18T10:04:23Z</time>
      </trkpt>
      <trkpt lat="45.88413" lon="4.73445">
        <ele>184</ele>
        <time>2018-02-18T10:04:24Z</time>
      </trkpt>
      <trkpt lat="45.88408" lon="4.73446">
        <ele>184</ele>
        <time>2018-02-18T10:04:25Z</time>
      </trkpt>
      <trkpt lat="45.88403" lon="4.73447">
        <ele>184</ele>
        <time>2018-02-18T10:04:26Z</time>
      </trkpt>
      <trkpt lat="45.88398" lon="4.73448">
        <ele>184</ele>
        <time>2018-02-18T10:04:27Z</time>
      </trkpt>
      <trkpt lat="45.88393" lon="4.7345">
        <ele>184</ele>
        <time>2018-02-18T10:04:28Z</time>
      </trkpt>
      <trkpt lat="45.88387" lon="4.73451">
        <ele>184</ele>
        <time>2018-02-18T10:04:29Z</time>
      </trkpt>
      <trkpt lat="45.88382" lon="4.73453">
        <ele>184</ele>
        <time>2018-02-18T10:04:30Z</time>
      </trkpt>
      <trkpt lat="45.88378" lon="4.73454">
        <ele>184</ele>
        <time>2018-02-18T10:04:31Z</time>
      </trkpt>
      <trkpt lat="45.88372" lon="4.73455">
        <ele>184</ele>
        <time>2018-02-18T10:04:32Z</time>
      </trkpt>
      <trkpt lat="45.88367" lon="4.73456">
        <ele>184</ele>
        <time>2018-02-18T10:04:33Z</time>
      </trkpt>
      <trkpt lat="45.88362" lon="4.73456">
        <ele>184</ele>
        <time>2018-02-18T10:04:34Z</time>
      </trkpt>
      <trkpt lat="45.88357" lon="4.73458">
        <ele>184</ele>
        <time>2018-02-18T10:04:35Z</time>
      </trkpt>
      <trkpt lat="45.88354" lon="4.7346">
        <ele>184</ele>
        <time>2018-02-18T10:04:36Z</time>
      </trkpt>
      <trkpt lat="45.88349" lon="4.73462">
        <ele>184</ele>
        <time>2018-02-18T10:04:37Z</time>
      </trkpt>
      <trkpt lat="45.88343" lon="4.73464">
        <ele>184</ele>
        <time>2018-02-18T10:04:38Z</time>
      </trkpt>
      <trkpt lat="45.88338" lon="4.73465">
        <ele>184</ele>
        <time>2018-02-18T10:04:39Z</time>
      </trkpt>
      <trkpt lat="45.88334" lon="4.73467">
        <ele>184</ele>
        <time>2018-02-18T10:04:40Z</time>
      </trkpt>
      <trkpt lat="45.88328" lon="4.73467">
        <ele>184</ele>
        <time>2018-02-18T10:04:41Z</time>
      </trkpt>
      <trkpt lat="45.88323" lon="4.73468">
        <ele>184</ele>
        <time>2018-02-18T10:04:42Z</time>
      </trkpt>
      <trkpt lat="45.88318" lon="4.7347">
        <ele>184</ele>
        <time>2018-02-18T10:04:43Z</time>
      </trkpt>
      <trkpt lat="45.88314" lon="4.73472">
        <ele>184</ele>
        <time>2018-02-18T10:04:44Z</time>
      </trkpt>
      <trkpt lat="45.88308" lon="4.73473">
        <ele>184</ele>
        <time>2018-02-18T10:04:45Z</time>
      </trkpt>
      <trkpt lat="45.88304" lon="4.73474">
        <ele>184</ele>
        <time>2018-02-18T10:04:46Z</time>
      </trkpt>
      <trkpt lat="45.883" lon="4.73476">
        <ele>184</ele>
        <time>2018-02-18T10:04:47Z</time>
      </trkpt>
      <trkpt lat="45.88295" lon="4.73477">
        <ele>184</ele>
        <time>2018-02-18T10:04:48Z</time>
      </trkpt>
      <trkpt lat="45.88291" lon="4.7348">
        <ele>184</ele>
        <time>2018-02-18T10:04:49Z</time>
      </trkpt>
      <trkpt lat="45.88287" lon="4.73483">
        <ele>184</ele>
        <time>2018-02-18T10:04:50Z</time>
      </trkpt>
      <trkpt lat="45.88281" lon="4.73485">
        <ele>184</ele>
        <time>2018-02-18T10:04:51Z</time>
      </trkpt>
      <trkpt lat="45.88276" lon="4.73489">
        <ele>184</ele>
        <time>2018-02-18T10:04:52Z</time>
      </trkpt>
      <trkpt lat="45.88272" lon="4.73491">
        <ele>184</ele>
        <time>2018-02-18T10:04:53Z</time>
      </trkpt>
      <trkpt lat="45.88267" lon="4.73494">
        <ele>184</ele>
        <time>2018-02-18T10:04:54Z</time>
      </trkpt>
      <trkpt lat="45.88262" lon="4.73497">
        <ele>185</ele>
        <time>2018-02-18T10:04:55Z</time>
      </trkpt>
      <trkpt lat="45.88258" lon="4.735">
        <ele>185</ele>
        <time>2018-02-18T10:04:56Z</time>
      </trkpt>
      <trkpt lat="45.88253" lon="4.73502">
        <ele>185</ele>
        <time>2018-02-18T10:04:57Z</time>
      </trkpt>
      <trkpt lat="45.88249" lon="4.73506">
        <ele>185</ele>
        <time>2018-02-18T10:04:58Z</time>
      </trkpt>
      <trkpt lat="45.88245" lon="4.73509">
        <ele>185</ele>
        <time>2018-02-18T10:04:59Z</time>
      </trkpt>
      <trkpt lat="45.8824" lon="4.73513">
        <ele>185</ele>
        <time>2018-02-18T10:05:00Z</time>
      </trkpt>
      <trkpt lat="45.88236" lon="4.73516">
        <ele>185</ele>
        <time>2018-02-18T10:05:01Z</time>
      </trkpt>
      <trkpt lat="45.88231" lon="4.73521">
        <ele>185</ele>
        <time>2018-02-18T10:05:02Z</time>
      </trkpt>
      <trkpt lat="45.88227" lon="4.73524">
        <ele>185</ele>
        <time>2018-02-18T10:05:03Z</time>
      </trkpt>
      <trkpt lat="45.88222" lon="4.73528">
        <ele>185</ele>
        <time>2018-02-18T10:05:04Z</time>
      </trkpt>
      <trkpt lat="45.88218" lon="4.7353">
        <ele>185</ele>
        <time>2018-02-18T10:05:05Z</time>
      </trkpt>
      <trkpt lat="45.88213" lon="4.73533">
        <ele>185</ele>
        <time>2018-02-18T10:05:06Z</time>
      </trkpt>
      <trkpt lat="45.88208" lon="4.73537">
        <ele>186</ele>
        <time>2018-02-18T10:05:07Z</time>
      </trkpt>
      <trkpt lat="45.88204" lon="4.7354">
        <ele>186</ele>
        <time>2018-02-18T10:05:08Z</time>
      </trkpt>
      <trkpt lat="45.882" lon="4.73543">
        <ele>186</ele>
        <time>2018-02-18T10:05:09Z</time>
      </trkpt>
      <trkpt lat="45.88196" lon="4.73545">
        <ele>186</ele>
        <time>2018-02-18T10:05:10Z</time>
      </trkpt>
      <trkpt lat="45.88192" lon="4.73548">
        <ele>186</ele>
        <time>2018-02-18T10:05:11Z</time>
      </trkpt>
      <trkpt lat="45.88187" lon="4.73551">
        <ele>186</ele>
        <time>2018-02-18T10:05:12Z</time>
      </trkpt>
      <trkpt lat="45.88183" lon="4.73553">
        <ele>186</ele>
        <time>2018-02-18T10:05:13Z</time>
      </trkpt>
      <trkpt lat="45.88179" lon="4.73556">
        <ele>186</ele>
        <time>2018-02-18T10:05:14Z</time>
      </trkpt>
      <trkpt lat="45.88174" lon="4.73559">
        <ele>186</ele>
        <time>2018-02-18T10:05:15Z</time>
      </trkpt>
      <trkpt lat="45.8817" lon="4.73563">
        <ele>186</ele>
        <time>2018-02-18T10:05:16Z</time>
      </trkpt>
      <trkpt lat="45.88166" lon="4.73566">
        <ele>186</ele>
        <time>2018-02-18T10:05:17Z</time>
      </trkpt>
      <trkpt lat="45.88162" lon="4.7357">
        <ele>186</ele>
        <time>2018-02-18T10:05:18Z</time>
      </trkpt>
      <trkpt lat="45.88158" lon="4.73574">
        <ele>186</ele>
        <time>2018-02-18T10:05:19Z</time>
      </trkpt>
      <trkpt lat="45.88154" lon="4.73576">
        <ele>186</ele>
        <time>2018-02-18T10:05:20Z</time>
      </trkpt>
      <trkpt lat="45.88146" lon="4.73581">
        <ele>186</ele>
        <time>2018-02-18T10:05:22Z</time>
      </trkpt>
      <trkpt lat="45.88141" lon="4.73583">
        <ele>186</ele>
        <time>2018-02-18T10:05:23Z</time>
      </trkpt>
      <trkpt lat="45.88136" lon="4.73586">
        <ele>187</ele>
        <time>2018-02-18T10:05:24Z</time>
      </trkpt>
      <trkpt lat="45.88131" lon="4.73588">
        <ele>187</ele>
        <time>2018-02-18T10:05:25Z</time>
      </trkpt>
      <trkpt lat="45.88127" lon="4.73592">
        <ele>187</ele>
        <time>2018-02-18T10:05:26Z</time>
      </trkpt>
      <trkpt lat="45.88122" lon="4.73595">
        <ele>187</ele>
        <time>2018-02-18T10:05:27Z</time>
      </trkpt>
      <trkpt lat="45.88118" lon="4.73597">
        <ele>187</ele>
        <time>2018-02-18T10:05:28Z</time>
      </trkpt>
      <trkpt lat="45.88114" lon="4.736">
        <ele>187</ele>
        <time>2018-02-18T10:05:29Z</time>
      </trkpt>
      <trkpt lat="45.88106" lon="4.73604">
        <ele>188</ele>
        <time>2018-02-18T10:05:31Z</time>
      </trkpt>
      <trkpt lat="45.88101" lon="4.73606">
        <ele>188</ele>
        <time>2018-02-18T10:05:32Z</time>
      </trkpt>
      <trkpt lat="45.88097" lon="4.7361">
        <ele>188</ele>
        <time>2018-02-18T10:05:33Z</time>
      </trkpt>
      <trkpt lat="45.88092" lon="4.73613">
        <ele>188</ele>
        <time>2018-02-18T10:05:34Z</time>
      </trkpt>
      <trkpt lat="45.88088" lon="4.73617">
        <ele>188</ele>
        <time>2018-02-18T10:05:35Z</time>
      </trkpt>
      <trkpt lat="45.88084" lon="4.7362">
        <ele>188</ele>
        <time>2018-02-18T10:05:36Z</time>
      </trkpt>
      <trkpt lat="45.88076" lon="4.73626">
        <ele>189</ele>
        <time>2018-02-18T10:05:38Z</time>
      </trkpt>
      <trkpt lat="45.88072" lon="4.73628">
        <ele>189</ele>
        <time>2018-02-18T10:05:39Z</time>
      </trkpt>
      <trkpt lat="45.88064" lon="4.73634">
        <ele>189</ele>
        <time>2018-02-18T10:05:41Z</time>
      </trkpt>
      <trkpt lat="45.88059" lon="4.73638">
        <ele>189</ele>
        <time>2018-02-18T10:05:42Z</time>
      </trkpt>
      <trkpt lat="45.88054" lon="4.73641">
        <ele>189</ele>
        <time>2018-02-18T10:05:43Z</time>
      </trkpt>
      <trkpt lat="45.8805" lon="4.73644">
        <ele>189</ele>
        <time>2018-02-18T10:05:44Z</time>
      </trkpt>
      <trkpt lat="45.88045" lon="4.73646">
        <ele>189</ele>
        <time>2018-02-18T10:05:45Z</time>
      </trkpt>
      <trkpt lat="45.88041" lon="4.73648">
        <ele>189</ele>
        <time>2018-02-18T10:05:46Z</time>
      </trkpt>
      <trkpt lat="45.88036" lon="4.73651">
        <ele>189</ele>
        <time>2018-02-18T10:05:47Z</time>
      </trkpt>
      <trkpt lat="45.88033" lon="4.73653">
        <ele>189</ele>
        <time>2018-02-18T10:05:48Z</time>
      </trkpt>
      <trkpt lat="45.88027" lon="4.73654">
        <ele>189</ele>
        <time>2018-02-18T10:05:49Z</time>
      </trkpt>
      <trkpt lat="45.88022" lon="4.73655">
        <ele>189</ele>
        <time>2018-02-18T10:05:50Z</time>
      </trkpt>
      <trkpt lat="45.88017" lon="4.73655">
        <ele>189</ele>
        <time>2018-02-18T10:05:51Z</time>
      </trkpt>
      <trkpt lat="45.88012" lon="4.73655">
        <ele>189</ele>
        <time>2018-02-18T10:05:52Z</time>
      </trkpt>
      <trkpt lat="45.88007" lon="4.73654">
        <ele>189</ele>
        <time>2018-02-18T10:05:53Z</time>
      </trkpt>
      <trkpt lat="45.88001" lon="4.73654">
        <ele>190</ele>
        <time>2018-02-18T10:05:54Z</time>
      </trkpt>
      <trkpt lat="45.87996" lon="4.73651">
        <ele>190</ele>
        <time>2018-02-18T10:05:55Z</time>
      </trkpt>
      <trkpt lat="45.87991" lon="4.73648">
        <ele>190</ele>
        <time>2018-02-18T10:05:56Z</time>
      </trkpt>
      <trkpt lat="45.87985" lon="4.73647">
        <ele>190</ele>
        <time>2018-02-18T10:05:57Z</time>
      </trkpt>
      <trkpt lat="45.87981" lon="4.73645">
        <ele>189</ele>
        <time>2018-02-18T10:05:58Z</time>
      </trkpt>
      <trkpt lat="45.87976" lon="4.73644">
        <ele>189</ele>
        <time>2018-02-18T10:05:59Z</time>
      </trkpt>
      <trkpt lat="45.87971" lon="4.73642">
        <ele>189</ele>
        <time>2018-02-18T10:06:00Z</time>
      </trkpt>
      <trkpt lat="45.87965" lon="4.7364">
        <ele>189</ele>
        <time>2018-02-18T10:06:01Z</time>
      </trkpt>
      <trkpt lat="45.8796" lon="4.73639">
        <ele>189</ele>
        <time>2018-02-18T10:06:02Z</time>
      </trkpt>
      <trkpt lat="45.87955" lon="4.73637">
        <ele>189</ele>
        <time>2018-02-18T10:06:03Z</time>
      </trkpt>
      <trkpt lat="45.8795" lon="4.73636">
        <ele>189</ele>
        <time>2018-02-18T10:06:04Z</time>
      </trkpt>
      <trkpt lat="45.87945" lon="4.73635">
        <ele>189</ele>
        <time>2018-02-18T10:06:05Z</time>
      </trkpt>
      <trkpt lat="45.8794" lon="4.73635">
        <ele>189</ele>
        <time>2018-02-18T10:06:06Z</time>
      </trkpt>
      <trkpt lat="45.87936" lon="4.73633">
        <ele>189</ele>
        <time>2018-02-18T10:06:07Z</time>
      </trkpt>
      <trkpt lat="45.8793" lon="4.73632">
        <ele>189</ele>
        <time>2018-02-18T10:06:08Z</time>
      </trkpt>
      <trkpt lat="45.87925" lon="4.73632">
        <ele>189</ele>
        <time>2018-02-18T10:06:09Z</time>
      </trkpt>
      <trkpt lat="45.8792" lon="4.7363">
        <ele>189</ele>
        <time>2018-02-18T10:06:10Z</time>
      </trkpt>
      <trkpt lat="45.87915" lon="4.73628">
        <ele>190</ele>
        <time>2018-02-18T10:06:11Z</time>
      </trkpt>
      <trkpt lat="45.8791" lon="4.73626">
        <ele>190</ele>
        <time>2018-02-18T10:06:12Z</time>
      </trkpt>
      <trkpt lat="45.87905" lon="4.73625">
        <ele>190</ele>
        <time>2018-02-18T10:06:13Z</time>
      </trkpt>
      <trkpt lat="45.87901" lon="4.73622">
        <ele>190</ele>
        <time>2018-02-18T10:06:14Z</time>
      </trkpt>
      <trkpt lat="45.87896" lon="4.7362">
        <ele>190</ele>
        <time>2018-02-18T10:06:15Z</time>
      </trkpt>
      <trkpt lat="45.87892" lon="4.73619">
        <ele>190</ele>
        <time>2018-02-18T10:06:16Z</time>
      </trkpt>
      <trkpt lat="45.87887" lon="4.73618">
        <ele>190</ele>
        <time>2018-02-18T10:06:17Z</time>
      </trkpt>
      <trkpt lat="45.87883" lon="4.73617">
        <ele>190</ele>
        <time>2018-02-18T10:06:18Z</time>
      </trkpt>
      <trkpt lat="45.87877" lon="4.73617">
        <ele>190</ele>
        <time>2018-02-18T10:06:19Z</time>
      </trkpt>
      <trkpt lat="45.87872" lon="4.73617">
        <ele>190</ele>
        <time>2018-02-18T10:06:20Z</time>
      </trkpt>
      <trkpt lat="45.87867" lon="4.73618">
        <ele>190</ele>
        <time>2018-02-18T10:06:21Z</time>
      </trkpt>
      <trkpt lat="45.87862" lon="4.73621">
        <ele>190</ele>
        <time>2018-02-18T10:06:22Z</time>
      </trkpt>
      <trkpt lat="45.87855" lon="4.73627">
        <ele>190</ele>
        <time>2018-02-18T10:06:24Z</time>
      </trkpt>
      <trkpt lat="45.87852" lon="4.7363">
        <ele>191</ele>
        <time>2018-02-18T10:06:25Z</time>
      </trkpt>
      <trkpt lat="45.87848" lon="4.73631">
        <ele>191</ele>
        <time>2018-02-18T10:06:26Z</time>
      </trkpt>
      <trkpt lat="45.87841" lon="4.73636">
        <ele>191</ele>
        <time>2018-02-18T10:06:27Z</time>
      </trkpt>
      <trkpt lat="45.87834" lon="4.73631">
        <ele>191</ele>
        <time>2018-02-18T10:06:29Z</time>
      </trkpt>
      <trkpt lat="45.87832" lon="4.73628">
        <ele>190</ele>
        <time>2018-02-18T10:06:30Z</time>
      </trkpt>
      <trkpt lat="45.87829" lon="4.73617">
        <ele>190</ele>
        <time>2018-02-18T10:06:32Z</time>
      </trkpt>
      <trkpt lat="45.87826" lon="4.7361">
        <ele>190</ele>
        <time>2018-02-18T10:06:33Z</time>
      </trkpt>
      <trkpt lat="45.87824" lon="4.73604">
        <ele>190</ele>
        <time>2018-02-18T10:06:34Z</time>
      </trkpt>
      <trkpt lat="45.87822" lon="4.73598">
        <ele>190</ele>
        <time>2018-02-18T10:06:35Z</time>
      </trkpt>
      <trkpt lat="45.87819" lon="4.73591">
        <ele>190</ele>
        <time>2018-02-18T10:06:36Z</time>
      </trkpt>
      <trkpt lat="45.87816" lon="4.73585">
        <ele>190</ele>
        <time>2018-02-18T10:06:37Z</time>
      </trkpt>
      <trkpt lat="45.87813" lon="4.73578">
        <ele>189</ele>
        <time>2018-02-18T10:06:38Z</time>
      </trkpt>
      <trkpt lat="45.8781" lon="4.73571">
        <ele>189</ele>
        <time>2018-02-18T10:06:39Z</time>
      </trkpt>
      <trkpt lat="45.87808" lon="4.73565">
        <ele>189</ele>
        <time>2018-02-18T10:06:40Z</time>
      </trkpt>
      <trkpt lat="45.87805" lon="4.73559">
        <ele>189</ele>
        <time>2018-02-18T10:06:41Z</time>
      </trkpt>
      <trkpt lat="45.87803" lon="4.73553">
        <ele>189</ele>
        <time>2018-02-18T10:06:42Z</time>
      </trkpt>
      <trkpt lat="45.878" lon="4.73547">
        <ele>189</ele>
        <time>2018-02-18T10:06:43Z</time>
      </trkpt>
      <trkpt lat="45.87797" lon="4.7354">
        <ele>189</ele>
        <time>2018-02-18T10:06:44Z</time>
      </trkpt>
      <trkpt lat="45.87794" lon="4.73533">
        <ele>189</ele>
        <time>2018-02-18T10:06:45Z</time>
      </trkpt>
      <trkpt lat="45.87791" lon="4.73526">
        <ele>189</ele>
        <time>2018-02-18T10:06:46Z</time>
      </trkpt>
      <trkpt lat="45.87787" lon="4.7352">
        <ele>189</ele>
        <time>2018-02-18T10:06:47Z</time>
      </trkpt>
      <trkpt lat="45.87784" lon="4.73515">
        <ele>189</ele>
        <time>2018-02-18T10:06:48Z</time>
      </trkpt>
      <trkpt lat="45.87781" lon="4.73509">
        <ele>189</ele>
        <time>2018-02-18T10:06:49Z</time>
      </trkpt>
      <trkpt lat="45.87778" lon="4.73503">
        <ele>189</ele>
        <time>2018-02-18T10:06:50Z</time>
      </trkpt>
      <trkpt lat="45.87775" lon="4.73497">
        <ele>188</ele>
        <time>2018-02-18T10:06:51Z</time>
      </trkpt>
      <trkpt lat="45.87772" lon="4.7349">
        <ele>188</ele>
        <time>2018-02-18T10:06:52Z</time>
      </trkpt>
      <trkpt lat="45.8777" lon="4.73485">
        <ele>188</ele>
        <time>2018-02-18T10:06:53Z</time>
      </trkpt>
      <trkpt lat="45.87767" lon="4.73478">
        <ele>188</ele>
        <time>2018-02-18T10:06:54Z</time>
      </trkpt>
      <trkpt lat="45.87763" lon="4.73472">
        <ele>188</ele>
        <time>2018-02-18T10:06:55Z</time>
      </trkpt>
      <trkpt lat="45.87761" lon="4.73466">
        <ele>188</ele>
        <time>2018-02-18T10:06:56Z</time>
      </trkpt>
      <trkpt lat="45.87758" lon="4.73459">
        <ele>188</ele>
        <time>2018-02-18T10:06:57Z</time>
      </trkpt>
      <trkpt lat="45.87755" lon="4.73453">
        <ele>188</ele>
        <time>2018-02-18T10:06:58Z</time>
      </trkpt>
      <trkpt lat="45.87752" lon="4.73446">
        <ele>188</ele>
        <time>2018-02-18T10:06:59Z</time>
      </trkpt>
      <trkpt lat="45.87749" lon="4.7344">
        <ele>189</ele>
        <time>2018-02-18T10:07:00Z</time>
      </trkpt>
      <trkpt lat="45.87746" lon="4.73435">
        <ele>188</ele>
        <time>2018-02-18T10:07:01Z</time>
      </trkpt>
      <trkpt lat="45.87743" lon="4.73429">
        <ele>188</ele>
        <time>2018-02-18T10:07:02Z</time>
      </trkpt>
      <trkpt lat="45.8774" lon="4.73424">
        <ele>188</ele>
        <time>2018-02-18T10:07:03Z</time>
      </trkpt>
      <trkpt lat="45.87737" lon="4.73418">
        <ele>188</ele>
        <time>2018-02-18T10:07:04Z</time>
      </trkpt>
      <trkpt lat="45.87735" lon="4.73411">
        <ele>188</ele>
        <time>2018-02-18T10:07:05Z</time>
      </trkpt>
      <trkpt lat="45.87731" lon="4.73404">
        <ele>188</ele>
        <time>2018-02-18T10:07:06Z</time>
      </trkpt>
      <trkpt lat="45.87729" lon="4.73398">
        <ele>188</ele>
        <time>2018-02-18T10:07:07Z</time>
      </trkpt>
      <trkpt lat="45.87727" lon="4.73392">
        <ele>188</ele>
        <time>2018-02-18T10:07:08Z</time>
      </trkpt>
      <trkpt lat="45.87724" lon="4.73385">
        <ele>188</ele>
        <time>2018-02-18T10:07:09Z</time>
      </trkpt>
      <trkpt lat="45.87721" lon="4.73378">
        <ele>187</ele>
        <time>2018-02-18T10:07:10Z</time>
      </trkpt>
      <trkpt lat="45.87718" lon="4.73372">
        <ele>187</ele>
        <time>2018-02-18T10:07:11Z</time>
      </trkpt>
      <trkpt lat="45.87714" lon="4.73365">
        <ele>187</ele>
        <time>2018-02-18T10:07:12Z</time>
      </trkpt>
      <trkpt lat="45.8771" lon="4.73359">
        <ele>187</ele>
        <time>2018-02-18T10:07:13Z</time>
      </trkpt>
      <trkpt lat="45.87708" lon="4.73351">
        <ele>187</ele>
        <time>2018-02-18T10:07:14Z</time>
      </trkpt>
      <trkpt lat="45.87703" lon="4.73345">
        <ele>187</ele>
        <time>2018-02-18T10:07:15Z</time>
      </trkpt>
      <trkpt lat="45.877" lon="4.73338">
        <ele>187</ele>
        <time>2018-02-18T10:07:16Z</time>
      </trkpt>
      <trkpt lat="45.87698" lon="4.73332">
        <ele>187</ele>
        <time>2018-02-18T10:07:17Z</time>
      </trkpt>
      <trkpt lat="45.87695" lon="4.73324">
        <ele>188</ele>
        <time>2018-02-18T10:07:18Z</time>
      </trkpt>
      <trkpt lat="45.87691" lon="4.73318">
        <ele>188</ele>
        <time>2018-02-18T10:07:19Z</time>
      </trkpt>
      <trkpt lat="45.87688" lon="4.73311">
        <ele>188</ele>
        <time>2018-02-18T10:07:20Z</time>
      </trkpt>
      <trkpt lat="45.87684" lon="4.73304">
        <ele>188</ele>
        <time>2018-02-18T10:07:21Z</time>
      </trkpt>
      <trkpt lat="45.87682" lon="4.73298">
        <ele>188</ele>
        <time>2018-02-18T10:07:22Z</time>
      </trkpt>
      <trkpt lat="45.87679" lon="4.73291">
        <ele>188</ele>
        <time>2018-02-18T10:07:23Z</time>
      </trkpt>
      <trkpt lat="45.87677" lon="4.73284">
        <ele>188</ele>
        <time>2018-02-18T10:07:24Z</time>
      </trkpt>
      <trkpt lat="45.87673" lon="4.73277">
        <ele>188</ele>
        <time>2018-02-18T10:07:25Z</time>
      </trkpt>
      <trkpt lat="45.87672" lon="4.73271">
        <ele>188</ele>
        <time>2018-02-18T10:07:26Z</time>
      </trkpt>
      <trkpt lat="45.87671" lon="4.73265">
        <ele>188</ele>
        <time>2018-02-18T10:07:27Z</time>
      </trkpt>
      <trkpt lat="45.87668" lon="4.73259">
        <ele>189</ele>
        <time>2018-02-18T10:07:28Z</time>
      </trkpt>
      <trkpt lat="45.87665" lon="4.73253">
        <ele>189</ele>
        <time>2018-02-18T10:07:29Z</time>
      </trkpt>
      <trkpt lat="45.87661" lon="4.73247">
        <ele>189</ele>
        <time>2018-02-18T10:07:30Z</time>
      </trkpt>
      <trkpt lat="45.87657" lon="4.73241">
        <ele>188</ele>
        <time>2018-02-18T10:07:31Z</time>
      </trkpt>
      <trkpt lat="45.87654" lon="4.73234">
        <ele>188</ele>
        <time>2018-02-18T10:07:32Z</time>
      </trkpt>
      <trkpt lat="45.8765" lon="4.73227">
        <ele>188</ele>
        <time>2018-02-18T10:07:33Z</time>
      </trkpt>
      <trkpt lat="45.87646" lon="4.73221">
        <ele>188</ele>
        <time>2018-02-18T10:07:34Z</time>
      </trkpt>
      <trkpt lat="45.87643" lon="4.73216">
        <ele>188</ele>
        <time>2018-02-18T10:07:35Z</time>
      </trkpt>
      <trkpt lat="45.8764" lon="4.7321">
        <ele>188</ele>
        <time>2018-02-18T10:07:36Z</time>
      </trkpt>
      <trkpt lat="45.87638" lon="4.73203">
        <ele>188</ele>
        <time>2018-02-18T10:07:37Z</time>
      </trkpt>
      <trkpt lat="45.87635" lon="4.73198">
        <ele>188</ele>
        <time>2018-02-18T10:07:38Z</time>
      </trkpt>
      <trkpt lat="45.87632" lon="4.73191">
        <ele>188</ele>
        <time>2018-02-18T10:07:39Z</time>
      </trkpt>
      <trkpt lat="45.87629" lon="4.73185">
        <ele>188</ele>
        <time>2018-02-18T10:07:40Z</time>
      </trkpt>
      <trkpt lat="45.87625" lon="4.73178">
        <ele>188</ele>
        <time>2018-02-18T10:07:41Z</time>
      </trkpt>
      <trkpt lat="45.87621" lon="4.73171">
        <ele>187</ele>
        <time>2018-02-18T10:07:42Z</time>
      </trkpt>
      <trkpt lat="45.87618" lon="4.73165">
        <ele>187</ele>
        <time>2018-02-18T10:07:43Z</time>
      </trkpt>
      <trkpt lat="45.87615" lon="4.73157">
        <ele>187</ele>
        <time>2018-02-18T10:07:44Z</time>
      </trkpt>
      <trkpt lat="45.87611" lon="4.7315">
        <ele>187</ele>
        <time>2018-02-18T10:07:45Z</time>
      </trkpt>
      <trkpt lat="45.87608" lon="4.73143">
        <ele>187</ele>
        <time>2018-02-18T10:07:46Z</time>
      </trkpt>
      <trkpt lat="45.87604" lon="4.73136">
        <ele>187</ele>
        <time>2018-02-18T10:07:47Z</time>
      </trkpt>
      <trkpt lat="45.876" lon="4.73129">
        <ele>187</ele>
        <time>2018-02-18T10:07:48Z</time>
      </trkpt>
      <trkpt lat="45.87597" lon="4.73122">
        <ele>188</ele>
        <time>2018-02-18T10:07:49Z</time>
      </trkpt>
      <trkpt lat="45.87593" lon="4.73114">
        <ele>188</ele>
        <time>2018-02-18T10:07:50Z</time>
      </trkpt>
      <trkpt lat="45.87589" lon="4.73106">
        <ele>188</ele>
        <time>2018-02-18T10:07:51Z</time>
      </trkpt>
      <trkpt lat="45.87585" lon="4.73099">
        <ele>188</ele>
        <time>2018-02-18T10:07:52Z</time>
      </trkpt>
      <trkpt lat="45.8758" lon="4.73092">
        <ele>188</ele>
        <time>2018-02-18T10:07:53Z</time>
      </trkpt>
      <trkpt lat="45.87576" lon="4.73084">
        <ele>188</ele>
        <time>2018-02-18T10:07:54Z</time>
      </trkpt>
      <trkpt lat="45.87573" lon="4.73075">
        <ele>188</ele>
        <time>2018-02-18T10:07:55Z</time>
      </trkpt>
      <trkpt lat="45.8757" lon="4.73067">
        <ele>188</ele>
        <time>2018-02-18T10:07:56Z</time>
      </trkpt>
      <trkpt lat="45.87567" lon="4.73059">
        <ele>188</ele>
        <time>2018-02-18T10:07:57Z</time>
      </trkpt>
      <trkpt lat="45.87565" lon="4.73052">
        <ele>188</ele>
        <time>2018-02-18T10:07:58Z</time>
      </trkpt>
      <trkpt lat="45.8756" lon="4.73044">
        <ele>188</ele>
        <time>2018-02-18T10:07:59Z</time>
      </trkpt>
      <trkpt lat="45.87556" lon="4.73036">
        <ele>188</ele>
        <time>2018-02-18T10:08:00Z</time>
      </trkpt>
      <trkpt lat="45.87552" lon="4.73028">
        <ele>188</ele>
        <time>2018-02-18T10:08:01Z</time>
      </trkpt>
      <trkpt lat="45.87549" lon="4.73021">
        <ele>188</ele>
        <time>2018-02-18T10:08:02Z</time>
      </trkpt>
      <trkpt lat="45.87547" lon="4.73013">
        <ele>188</ele>
        <time>2018-02-18T10:08:03Z</time>
      </trkpt>
      <trkpt lat="45.87544" lon="4.73006">
        <ele>188</ele>
        <time>2018-02-18T10:08:04Z</time>
      </trkpt>
      <trkpt lat="45.87539" lon="4.73">
        <ele>187</ele>
        <time>2018-02-18T10:08:05Z</time>
      </trkpt>
      <trkpt lat="45.87536" lon="4.72993">
        <ele>187</ele>
        <time>2018-02-18T10:08:06Z</time>
      </trkpt>
      <trkpt lat="45.87532" lon="4.72987">
        <ele>187</ele>
        <time>2018-02-18T10:08:07Z</time>
      </trkpt>
      <trkpt lat="45.87528" lon="4.72981">
        <ele>187</ele>
        <time>2018-02-18T10:08:08Z</time>
      </trkpt>
      <trkpt lat="45.87524" lon="4.72974">
        <ele>187</ele>
        <time>2018-02-18T10:08:09Z</time>
      </trkpt>
      <trkpt lat="45.8752" lon="4.72969">
        <ele>187</ele>
        <time>2018-02-18T10:08:10Z</time>
      </trkpt>
      <trkpt lat="45.87517" lon="4.72964">
        <ele>187</ele>
        <time>2018-02-18T10:08:11Z</time>
      </trkpt>
      <trkpt lat="45.87514" lon="4.7296">
        <ele>187</ele>
        <time>2018-02-18T10:08:12Z</time>
      </trkpt>
      <trkpt lat="45.87509" lon="4.72955">
        <ele>187</ele>
        <time>2018-02-18T10:08:13Z</time>
      </trkpt>
      <trkpt lat="45.87505" lon="4.72951">
        <ele>187</ele>
        <time>2018-02-18T10:08:14Z</time>
      </trkpt>
      <trkpt lat="45.87501" lon="4.72946">
        <ele>187</ele>
        <time>2018-02-18T10:08:15Z</time>
      </trkpt>
      <trkpt lat="45.87496" lon="4.72943">
        <ele>188</ele>
        <time>2018-02-18T10:08:16Z</time>
      </trkpt>
      <trkpt lat="45.87492" lon="4.72939">
        <ele>188</ele>
        <time>2018-02-18T10:08:17Z</time>
      </trkpt>
      <trkpt lat="45.87485" lon="4.72931">
        <ele>188</ele>
        <time>2018-02-18T10:08:19Z</time>
      </trkpt>
      <trkpt lat="45.87482" lon="4.72928">
        <ele>188</ele>
        <time>2018-02-18T10:08:20Z</time>
      </trkpt>
      <trkpt lat="45.87477" lon="4.7292">
        <ele>188</ele>
        <time>2018-02-18T10:08:22Z</time>
      </trkpt>
      <trkpt lat="45.87474" lon="4.72913">
        <ele>188</ele>
        <time>2018-02-18T10:08:23Z</time>
      </trkpt>
      <trkpt lat="45.87471" lon="4.72904">
        <ele>188</ele>
        <time>2018-02-18T10:08:25Z</time>
      </trkpt>
      <trkpt lat="45.8747" lon="4.72899">
        <ele>188</ele>
        <time>2018-02-18T10:08:26Z</time>
      </trkpt>
      <trkpt lat="45.87466" lon="4.72891">
        <ele>188</ele>
        <time>2018-02-18T10:08:28Z</time>
      </trkpt>
      <trkpt lat="45.87465" lon="4.72887">
        <ele>188</ele>
        <time>2018-02-18T10:08:29Z</time>
      </trkpt>
      <trkpt lat="45.87462" lon="4.72877">
        <ele>188</ele>
        <time>2018-02-18T10:08:31Z</time>
      </trkpt>
      <trkpt lat="45.87461" lon="4.72872">
        <ele>188</ele>
        <time>2018-02-18T10:08:32Z</time>
      </trkpt>
      <trkpt lat="45.87458" lon="4.72866">
        <ele>188</ele>
        <time>2018-02-18T10:08:33Z</time>
      </trkpt>
      <trkpt lat="45.87456" lon="4.72859">
        <ele>188</ele>
        <time>2018-02-18T10:08:34Z</time>
      </trkpt>
      <trkpt lat="45.8745" lon="4.72853">
        <ele>188</ele>
        <time>2018-02-18T10:08:35Z</time>
      </trkpt>
      <trkpt lat="45.87449" lon="4.72847">
        <ele>188</ele>
        <time>2018-02-18T10:08:36Z</time>
      </trkpt>
      <trkpt lat="45.87447" lon="4.72841">
        <ele>188</ele>
        <time>2018-02-18T10:08:37Z</time>
      </trkpt>
      <trkpt lat="45.87443" lon="4.72833">
        <ele>189</ele>
        <time>2018-02-18T10:08:38Z</time>
      </trkpt>
      <trkpt lat="45.87438" lon="4.72823">
        <ele>189</ele>
        <time>2018-02-18T10:08:40Z</time>
      </trkpt>
      <trkpt lat="45.87435" lon="4.72817">
        <ele>189</ele>
        <time>2018-02-18T10:08:41Z</time>
      </trkpt>
      <trkpt lat="45.87433" lon="4.72811">
        <ele>189</ele>
        <time>2018-02-18T10:08:42Z</time>
      </trkpt>
      <trkpt lat="45.87431" lon="4.72805">
        <ele>189</ele>
        <time>2018-02-18T10:08:43Z</time>
      </trkpt>
      <trkpt lat="45.87429" lon="4.728">
        <ele>189</ele>
        <time>2018-02-18T10:08:44Z</time>
      </trkpt>
      <trkpt lat="45.87426" lon="4.72794">
        <ele>189</ele>
        <time>2018-02-18T10:08:45Z</time>
      </trkpt>
      <trkpt lat="45.87423" lon="4.72787">
        <ele>189</ele>
        <time>2018-02-18T10:08:46Z</time>
      </trkpt>
      <trkpt lat="45.8742" lon="4.72781">
        <ele>189</ele>
        <time>2018-02-18T10:08:47Z</time>
      </trkpt>
      <trkpt lat="45.87416" lon="4.7277">
        <ele>189</ele>
        <time>2018-02-18T10:08:49Z</time>
      </trkpt>
      <trkpt lat="45.87414" lon="4.72765">
        <ele>189</ele>
        <time>2018-02-18T10:08:50Z</time>
      </trkpt>
      <trkpt lat="45.87412" lon="4.7276">
        <ele>189</ele>
        <time>2018-02-18T10:08:51Z</time>
      </trkpt>
      <trkpt lat="45.87408" lon="4.72754">
        <ele>189</ele>
        <time>2018-02-18T10:08:52Z</time>
      </trkpt>
      <trkpt lat="45.87405" lon="4.72747">
        <ele>189</ele>
        <time>2018-02-18T10:08:53Z</time>
      </trkpt>
      <trkpt lat="45.87401" lon="4.72742">
        <ele>189</ele>
        <time>2018-02-18T10:08:54Z</time>
      </trkpt>
      <trkpt lat="45.87397" lon="4.7274">
        <ele>189</ele>
        <time>2018-02-18T10:08:55Z</time>
      </trkpt>
      <trkpt lat="45.87393" lon="4.72735">
        <ele>190</ele>
        <time>2018-02-18T10:08:56Z</time>
      </trkpt>
      <trkpt lat="45.87391" lon="4.7273">
        <ele>190</ele>
        <time>2018-02-18T10:08:57Z</time>
      </trkpt>
      <trkpt lat="45.87388" lon="4.72724">
        <ele>190</ele>
        <time>2018-02-18T10:08:58Z</time>
      </trkpt>
      <trkpt lat="45.87384" lon="4.72714">
        <ele>190</ele>
        <time>2018-02-18T10:09:00Z</time>
      </trkpt>
      <trkpt lat="45.8738" lon="4.72708">
        <ele>190</ele>
        <time>2018-02-18T10:09:01Z</time>
      </trkpt>
      <trkpt lat="45.87376" lon="4.72697">
        <ele>190</ele>
        <time>2018-02-18T10:09:03Z</time>
      </trkpt>
      <trkpt lat="45.87373" lon="4.72691">
        <ele>190</ele>
        <time>2018-02-18T10:09:04Z</time>
      </trkpt>
      <trkpt lat="45.87369" lon="4.72685">
        <ele>190</ele>
        <time>2018-02-18T10:09:05Z</time>
      </trkpt>
      <trkpt lat="45.87365" lon="4.72679">
        <ele>190</ele>
        <time>2018-02-18T10:09:06Z</time>
      </trkpt>
      <trkpt lat="45.87362" lon="4.72676">
        <ele>190</ele>
        <time>2018-02-18T10:09:07Z</time>
      </trkpt>
      <trkpt lat="45.87357" lon="4.72672">
        <ele>190</ele>
        <time>2018-02-18T10:09:08Z</time>
      </trkpt>
      <trkpt lat="45.87352" lon="4.72667">
        <ele>190</ele>
        <time>2018-02-18T10:09:09Z</time>
      </trkpt>
      <trkpt lat="45.87348" lon="4.72664">
        <ele>190</ele>
        <time>2018-02-18T10:09:10Z</time>
      </trkpt>
      <trkpt lat="45.87343" lon="4.7266">
        <ele>190</ele>
        <time>2018-02-18T10:09:11Z</time>
      </trkpt>
      <trkpt lat="45.8734" lon="4.72656">
        <ele>190</ele>
        <time>2018-02-18T10:09:12Z</time>
      </trkpt>
      <trkpt lat="45.87335" lon="4.72651">
        <ele>190</ele>
        <time>2018-02-18T10:09:13Z</time>
      </trkpt>
      <trkpt lat="45.87332" lon="4.72647">
        <ele>192</ele>
        <time>2018-02-18T10:09:14Z</time>
      </trkpt>
      <trkpt lat="45.87328" lon="4.72643">
        <ele>192</ele>
        <time>2018-02-18T10:09:15Z</time>
      </trkpt>
      <trkpt lat="45.87324" lon="4.72638">
        <ele>193</ele>
        <time>2018-02-18T10:09:16Z</time>
      </trkpt>
      <trkpt lat="45.8732" lon="4.72633">
        <ele>193</ele>
        <time>2018-02-18T10:09:17Z</time>
      </trkpt>
      <trkpt lat="45.87316" lon="4.72629">
        <ele>193</ele>
        <time>2018-02-18T10:09:18Z</time>
      </trkpt>
      <trkpt lat="45.87309" lon="4.72621">
        <ele>193</ele>
        <time>2018-02-18T10:09:20Z</time>
      </trkpt>
      <trkpt lat="45.87308" lon="4.72617">
        <ele>193</ele>
        <time>2018-02-18T10:09:21Z</time>
      </trkpt>
      <trkpt lat="45.87303" lon="4.72614">
        <ele>193</ele>
        <time>2018-02-18T10:09:22Z</time>
      </trkpt>
      <trkpt lat="45.87298" lon="4.72609">
        <ele>194</ele>
        <time>2018-02-18T10:09:23Z</time>
      </trkpt>
      <trkpt lat="45.87295" lon="4.72603">
        <ele>194</ele>
        <time>2018-02-18T10:09:24Z</time>
      </trkpt>
      <trkpt lat="45.87292" lon="4.72598">
        <ele>194</ele>
        <time>2018-02-18T10:09:25Z</time>
      </trkpt>
      <trkpt lat="45.87286" lon="4.72589">
        <ele>194</ele>
        <time>2018-02-18T10:09:27Z</time>
      </trkpt>
      <trkpt lat="45.87282" lon="4.72583">
        <ele>194</ele>
        <time>2018-02-18T10:09:28Z</time>
      </trkpt>
      <trkpt lat="45.87277" lon="4.72574">
        <ele>194</ele>
        <time>2018-02-18T10:09:30Z</time>
      </trkpt>
      <trkpt lat="45.87274" lon="4.72568">
        <ele>194</ele>
        <time>2018-02-18T10:09:31Z</time>
      </trkpt>
      <trkpt lat="45.87268" lon="4.72565">
        <ele>194</ele>
        <time>2018-02-18T10:09:32Z</time>
      </trkpt>
      <trkpt lat="45.87265" lon="4.72562">
        <ele>194</ele>
        <time>2018-02-18T10:09:33Z</time>
      </trkpt>
      <trkpt lat="45.87258" lon="4.72555">
        <ele>194</ele>
        <time>2018-02-18T10:09:35Z</time>
      </trkpt>
      <trkpt lat="45.87256" lon="4.72548">
        <ele>194</ele>
        <time>2018-02-18T10:09:36Z</time>
      </trkpt>
      <trkpt lat="45.87253" lon="4.72545">
        <ele>194</ele>
        <time>2018-02-18T10:09:37Z</time>
      </trkpt>
      <trkpt lat="45.87248" lon="4.72541">
        <ele>197</ele>
        <time>2018-02-18T10:09:38Z</time>
      </trkpt>
      <trkpt lat="45.87244" lon="4.72531">
        <ele>197</ele>
        <time>2018-02-18T10:09:41Z</time>
      </trkpt>
      <trkpt lat="45.87244" lon="4.72527">
        <ele>196</ele>
        <time>2018-02-18T10:09:42Z</time>
      </trkpt>
      <trkpt lat="45.8724" lon="4.72517">
        <ele>196</ele>
        <time>2018-02-18T10:09:44Z</time>
      </trkpt>
      <trkpt lat="45.87238" lon="4.72512">
        <ele>196</ele>
        <time>2018-02-18T10:09:45Z</time>
      </trkpt>
      <trkpt lat="45.87233" lon="4.72503">
        <ele>196</ele>
        <time>2018-02-18T10:09:47Z</time>
      </trkpt>
      <trkpt lat="45.8723" lon="4.72499">
        <ele>194</ele>
        <time>2018-02-18T10:09:48Z</time>
      </trkpt>
      <trkpt lat="45.87225" lon="4.7249">
        <ele>194</ele>
        <time>2018-02-18T10:09:50Z</time>
      </trkpt>
      <trkpt lat="45.87222" lon="4.72486">
        <ele>194</ele>
        <time>2018-02-18T10:09:51Z</time>
      </trkpt>
      <trkpt lat="45.87217" lon="4.72477">
        <ele>194</ele>
        <time>2018-02-18T10:09:53Z</time>
      </trkpt>
      <trkpt lat="45.87215" lon="4.72473">
        <ele>194</ele>
        <time>2018-02-18T10:09:54Z</time>
      </trkpt>
      <trkpt lat="45.8721" lon="4.72465">
        <ele>194</ele>
        <time>2018-02-18T10:09:56Z</time>
      </trkpt>
      <trkpt lat="45.87207" lon="4.72461">
        <ele>194</ele>
        <time>2018-02-18T10:09:57Z</time>
      </trkpt>
      <trkpt lat="45.87203" lon="4.72452">
        <ele>194</ele>
        <time>2018-02-18T10:09:59Z</time>
      </trkpt>
      <trkpt lat="45.872" lon="4.72448">
        <ele>194</ele>
        <time>2018-02-18T10:10:00Z</time>
      </trkpt>
      <trkpt lat="45.87195" lon="4.72439">
        <ele>194</ele>
        <time>2018-02-18T10:10:02Z</time>
      </trkpt>
      <trkpt lat="45.87192" lon="4.72436">
        <ele>194</ele>
        <time>2018-02-18T10:10:03Z</time>
      </trkpt>
      <trkpt lat="45.87187" lon="4.72429">
        <ele>194</ele>
        <time>2018-02-18T10:10:05Z</time>
      </trkpt>
      <trkpt lat="45.87184" lon="4.72426">
        <ele>194</ele>
        <time>2018-02-18T10:10:06Z</time>
      </trkpt>
      <trkpt lat="45.87178" lon="4.72418">
        <ele>194</ele>
        <time>2018-02-18T10:10:09Z</time>
      </trkpt>
      <trkpt lat="45.87176" lon="4.72415">
        <ele>192</ele>
        <time>2018-02-18T10:10:10Z</time>
      </trkpt>
      <trkpt lat="45.87172" lon="4.72407">
        <ele>192</ele>
        <time>2018-02-18T10:10:12Z</time>
      </trkpt>
      <trkpt lat="45.87169" lon="4.72402">
        <ele>192</ele>
        <time>2018-02-18T10:10:13Z</time>
      </trkpt>
      <trkpt lat="45.87167" lon="4.72397">
        <ele>196</ele>
        <time>2018-02-18T10:10:14Z</time>
      </trkpt>
      <trkpt lat="45.87164" lon="4.72389">
        <ele>197</ele>
        <time>2018-02-18T10:10:15Z</time>
      </trkpt>
      <trkpt lat="45.87161" lon="4.72383">
        <ele>197</ele>
        <time>2018-02-18T10:10:16Z</time>
      </trkpt>
      <trkpt lat="45.87159" lon="4.72377">
        <ele>197</ele>
        <time>2018-02-18T10:10:17Z</time>
      </trkpt>
      <trkpt lat="45.87157" lon="4.72371">
        <ele>197</ele>
        <time>2018-02-18T10:10:18Z</time>
      </trkpt>
      <trkpt lat="45.87154" lon="4.72365">
        <ele>197</ele>
        <time>2018-02-18T10:10:19Z</time>
      </trkpt>
      <trkpt lat="45.87151" lon="4.7236">
        <ele>196</ele>
        <time>2018-02-18T10:10:20Z</time>
      </trkpt>
      <trkpt lat="45.87149" lon="4.72354">
        <ele>196</ele>
        <time>2018-02-18T10:10:21Z</time>
      </trkpt>
      <trkpt lat="45.87146" lon="4.72348">
        <ele>196</ele>
        <time>2018-02-18T10:10:22Z</time>
      </trkpt>
      <trkpt lat="45.87144" lon="4.72343">
        <ele>196</ele>
        <time>2018-02-18T10:10:23Z</time>
      </trkpt>
      <trkpt lat="45.87141" lon="4.72335">
        <ele>196</ele>
        <time>2018-02-18T10:10:24Z</time>
      </trkpt>
      <trkpt lat="45.87138" lon="4.72329">
        <ele>195</ele>
        <time>2018-02-18T10:10:25Z</time>
      </trkpt>
      <trkpt lat="45.87134" lon="4.7232">
        <ele>195</ele>
        <time>2018-02-18T10:10:27Z</time>
      </trkpt>
      <trkpt lat="45.87131" lon="4.72314">
        <ele>196</ele>
        <time>2018-02-18T10:10:28Z</time>
      </trkpt>
      <trkpt lat="45.87128" lon="4.72309">
        <ele>196</ele>
        <time>2018-02-18T10:10:29Z</time>
      </trkpt>
      <trkpt lat="45.87125" lon="4.72303">
        <ele>196</ele>
        <time>2018-02-18T10:10:30Z</time>
      </trkpt>
      <trkpt lat="45.87122" lon="4.72297">
        <ele>196</ele>
        <time>2018-02-18T10:10:31Z</time>
      </trkpt>
      <trkpt lat="45.87119" lon="4.72291">
        <ele>197</ele>
        <time>2018-02-18T10:10:32Z</time>
      </trkpt>
      <trkpt lat="45.87115" lon="4.72285">
        <ele>197</ele>
        <time>2018-02-18T10:10:33Z</time>
      </trkpt>
      <trkpt lat="45.87111" lon="4.7228">
        <ele>197</ele>
        <time>2018-02-18T10:10:34Z</time>
      </trkpt>
      <trkpt lat="45.87107" lon="4.72274">
        <ele>197</ele>
        <time>2018-02-18T10:10:35Z</time>
      </trkpt>
      <trkpt lat="45.87103" lon="4.72269">
        <ele>197</ele>
        <time>2018-02-18T10:10:36Z</time>
      </trkpt>
      <trkpt lat="45.871" lon="4.72264">
        <ele>197</ele>
        <time>2018-02-18T10:10:37Z</time>
      </trkpt>
      <trkpt lat="45.87096" lon="4.72259">
        <ele>198</ele>
        <time>2018-02-18T10:10:38Z</time>
      </trkpt>
      <trkpt lat="45.87091" lon="4.72255">
        <ele>198</ele>
        <time>2018-02-18T10:10:39Z</time>
      </trkpt>
      <trkpt lat="45.87088" lon="4.7225">
        <ele>198</ele>
        <time>2018-02-18T10:10:40Z</time>
      </trkpt>
      <trkpt lat="45.87084" lon="4.72246">
        <ele>198</ele>
        <time>2018-02-18T10:10:41Z</time>
      </trkpt>
      <trkpt lat="45.87079" lon="4.72239">
        <ele>200</ele>
        <time>2018-02-18T10:10:42Z</time>
      </trkpt>
      <trkpt lat="45.87074" lon="4.72234">
        <ele>200</ele>
        <time>2018-02-18T10:10:43Z</time>
      </trkpt>
      <trkpt lat="45.8707" lon="4.72229">
        <ele>200</ele>
        <time>2018-02-18T10:10:44Z</time>
      </trkpt>
      <trkpt lat="45.87066" lon="4.72225">
        <ele>200</ele>
        <time>2018-02-18T10:10:45Z</time>
      </trkpt>
      <trkpt lat="45.87062" lon="4.72221">
        <ele>200</ele>
        <time>2018-02-18T10:10:46Z</time>
      </trkpt>
      <trkpt lat="45.87057" lon="4.72217">
        <ele>200</ele>
        <time>2018-02-18T10:10:47Z</time>
      </trkpt>
      <trkpt lat="45.87052" lon="4.72213">
        <ele>200</ele>
        <time>2018-02-18T10:10:48Z</time>
      </trkpt>
      <trkpt lat="45.87047" lon="4.7221">
        <ele>200</ele>
        <time>2018-02-18T10:10:49Z</time>
      </trkpt>
      <trkpt lat="45.87042" lon="4.72206">
        <ele>201</ele>
        <time>2018-02-18T10:10:50Z</time>
      </trkpt>
      <trkpt lat="45.87037" lon="4.72204">
        <ele>201</ele>
        <time>2018-02-18T10:10:51Z</time>
      </trkpt>
      <trkpt lat="45.87032" lon="4.722">
        <ele>201</ele>
        <time>2018-02-18T10:10:52Z</time>
      </trkpt>
      <trkpt lat="45.87027" lon="4.72196">
        <ele>201</ele>
        <time>2018-02-18T10:10:53Z</time>
      </trkpt>
      <trkpt lat="45.87021" lon="4.72191">
        <ele>201</ele>
        <time>2018-02-18T10:10:54Z</time>
      </trkpt>
      <trkpt lat="45.87016" lon="4.72188">
        <ele>201</ele>
        <time>2018-02-18T10:10:55Z</time>
      </trkpt>
      <trkpt lat="45.87009" lon="4.72183">
        <ele>201</ele>
        <time>2018-02-18T10:10:56Z</time>
      </trkpt>
      <trkpt lat="45.87003" lon="4.7218">
        <ele>201</ele>
        <time>2018-02-18T10:10:57Z</time>
      </trkpt>
      <trkpt lat="45.86997" lon="4.72176">
        <ele>205</ele>
        <time>2018-02-18T10:10:58Z</time>
      </trkpt>
      <trkpt lat="45.86991" lon="4.72172">
        <ele>205</ele>
        <time>2018-02-18T10:10:59Z</time>
      </trkpt>
      <trkpt lat="45.86986" lon="4.72169">
        <ele>206</ele>
        <time>2018-02-18T10:11:00Z</time>
      </trkpt>
      <trkpt lat="45.8698" lon="4.72165">
        <ele>201</ele>
        <time>2018-02-18T10:11:01Z</time>
      </trkpt>
      <trkpt lat="45.86975" lon="4.72161">
        <ele>201</ele>
        <time>2018-02-18T10:11:02Z</time>
      </trkpt>
      <trkpt lat="45.86969" lon="4.72158">
        <ele>201</ele>
        <time>2018-02-18T10:11:03Z</time>
      </trkpt>
      <trkpt lat="45.86965" lon="4.72154">
        <ele>201</ele>
        <time>2018-02-18T10:11:04Z</time>
      </trkpt>
      <trkpt lat="45.8696" lon="4.7215">
        <ele>201</ele>
        <time>2018-02-18T10:11:05Z</time>
      </trkpt>
      <trkpt lat="45.86955" lon="4.72147">
        <ele>201</ele>
        <time>2018-02-18T10:11:06Z</time>
      </trkpt>
      <trkpt lat="45.8695" lon="4.72144">
        <ele>201</ele>
        <time>2018-02-18T10:11:07Z</time>
      </trkpt>
      <trkpt lat="45.86945" lon="4.7214">
        <ele>201</ele>
        <time>2018-02-18T10:11:08Z</time>
      </trkpt>
      <trkpt lat="45.86939" lon="4.72138">
        <ele>201</ele>
        <time>2018-02-18T10:11:09Z</time>
      </trkpt>
      <trkpt lat="45.86935" lon="4.72135">
        <ele>201</ele>
        <time>2018-02-18T10:11:10Z</time>
      </trkpt>
      <trkpt lat="45.8693" lon="4.72133">
        <ele>201</ele>
        <time>2018-02-18T10:11:11Z</time>
      </trkpt>
      <trkpt lat="45.86924" lon="4.72131">
        <ele>201</ele>
        <time>2018-02-18T10:11:12Z</time>
      </trkpt>
      <trkpt lat="45.86916" lon="4.72125">
        <ele>202</ele>
        <time>2018-02-18T10:11:14Z</time>
      </trkpt>
      <trkpt lat="45.86909" lon="4.72125">
        <ele>202</ele>
        <time>2018-02-18T10:11:15Z</time>
      </trkpt>
      <trkpt lat="45.86904" lon="4.72122">
        <ele>202</ele>
        <time>2018-02-18T10:11:16Z</time>
      </trkpt>
      <trkpt lat="45.86899" lon="4.72121">
        <ele>202</ele>
        <time>2018-02-18T10:11:17Z</time>
      </trkpt>
      <trkpt lat="45.86894" lon="4.72118">
        <ele>201</ele>
        <time>2018-02-18T10:11:18Z</time>
      </trkpt>
      <trkpt lat="45.86889" lon="4.72115">
        <ele>201</ele>
        <time>2018-02-18T10:11:19Z</time>
      </trkpt>
      <trkpt lat="45.86881" lon="4.72111">
        <ele>201</ele>
        <time>2018-02-18T10:11:21Z</time>
      </trkpt>
      <trkpt lat="45.86876" lon="4.72109">
        <ele>201</ele>
        <time>2018-02-18T10:11:22Z</time>
      </trkpt>
      <trkpt lat="45.8687" lon="4.72107">
        <ele>201</ele>
        <time>2018-02-18T10:11:23Z</time>
      </trkpt>
      <trkpt lat="45.86865" lon="4.72103">
        <ele>200</ele>
        <time>2018-02-18T10:11:24Z</time>
      </trkpt>
      <trkpt lat="45.86859" lon="4.72101">
        <ele>200</ele>
        <time>2018-02-18T10:11:25Z</time>
      </trkpt>
      <trkpt lat="45.86853" lon="4.72098">
        <ele>199</ele>
        <time>2018-02-18T10:11:26Z</time>
      </trkpt>
      <trkpt lat="45.86848" lon="4.72095">
        <ele>198</ele>
        <time>2018-02-18T10:11:27Z</time>
      </trkpt>
      <trkpt lat="45.86839" lon="4.72093">
        <ele>197</ele>
        <time>2018-02-18T10:11:28Z</time>
      </trkpt>
      <trkpt lat="45.86836" lon="4.72089">
        <ele>195</ele>
        <time>2018-02-18T10:11:29Z</time>
      </trkpt>
      <trkpt lat="45.8683" lon="4.72088">
        <ele>195</ele>
        <time>2018-02-18T10:11:30Z</time>
      </trkpt>
      <trkpt lat="45.86824" lon="4.72085">
        <ele>197</ele>
        <time>2018-02-18T10:11:31Z</time>
      </trkpt>
      <trkpt lat="45.86817" lon="4.72082">
        <ele>194</ele>
        <time>2018-02-18T10:11:32Z</time>
      </trkpt>
      <trkpt lat="45.86812" lon="4.72078">
        <ele>194</ele>
        <time>2018-02-18T10:11:33Z</time>
      </trkpt>
      <trkpt lat="45.86805" lon="4.72075">
        <ele>194</ele>
        <time>2018-02-18T10:11:34Z</time>
      </trkpt>
      <trkpt lat="45.86799" lon="4.72072">
        <ele>194</ele>
        <time>2018-02-18T10:11:35Z</time>
      </trkpt>
      <trkpt lat="45.86793" lon="4.7207">
        <ele>194</ele>
        <time>2018-02-18T10:11:36Z</time>
      </trkpt>
      <trkpt lat="45.86786" lon="4.72067">
        <ele>194</ele>
        <time>2018-02-18T10:11:37Z</time>
      </trkpt>
      <trkpt lat="45.86779" lon="4.72065">
        <ele>194</ele>
        <time>2018-02-18T10:11:38Z</time>
      </trkpt>
      <trkpt lat="45.86774" lon="4.72062">
        <ele>195</ele>
        <time>2018-02-18T10:11:39Z</time>
      </trkpt>
      <trkpt lat="45.86768" lon="4.7206">
        <ele>195</ele>
        <time>2018-02-18T10:11:40Z</time>
      </trkpt>
      <trkpt lat="45.86762" lon="4.72058">
        <ele>195</ele>
        <time>2018-02-18T10:11:41Z</time>
      </trkpt>
      <trkpt lat="45.86756" lon="4.72055">
        <ele>195</ele>
        <time>2018-02-18T10:11:42Z</time>
      </trkpt>
      <trkpt lat="45.86749" lon="4.72054">
        <ele>197</ele>
        <time>2018-02-18T10:11:43Z</time>
      </trkpt>
      <trkpt lat="45.86743" lon="4.72051">
        <ele>197</ele>
        <time>2018-02-18T10:11:44Z</time>
      </trkpt>
      <trkpt lat="45.86738" lon="4.72049">
        <ele>197</ele>
        <time>2018-02-18T10:11:45Z</time>
      </trkpt>
      <trkpt lat="45.86732" lon="4.72046">
        <ele>197</ele>
        <time>2018-02-18T10:11:46Z</time>
      </trkpt>
      <trkpt lat="45.86726" lon="4.72043">
        <ele>197</ele>
        <time>2018-02-18T10:11:47Z</time>
      </trkpt>
      <trkpt lat="45.86721" lon="4.7204">
        <ele>197</ele>
        <time>2018-02-18T10:11:48Z</time>
      </trkpt>
      <trkpt lat="45.86716" lon="4.72035">
        <ele>197</ele>
        <time>2018-02-18T10:11:49Z</time>
      </trkpt>
      <trkpt lat="45.86711" lon="4.72031">
        <ele>197</ele>
        <time>2018-02-18T10:11:50Z</time>
      </trkpt>
      <trkpt lat="45.86705" lon="4.72027">
        <ele>197</ele>
        <time>2018-02-18T10:11:51Z</time>
      </trkpt>
      <trkpt lat="45.867" lon="4.72024">
        <ele>197</ele>
        <time>2018-02-18T10:11:52Z</time>
      </trkpt>
      <trkpt lat="45.86694" lon="4.7202">
        <ele>197</ele>
        <time>2018-02-18T10:11:53Z</time>
      </trkpt>
      <trkpt lat="45.8669" lon="4.72016">
        <ele>196</ele>
        <time>2018-02-18T10:11:54Z</time>
      </trkpt>
      <trkpt lat="45.86685" lon="4.72012">
        <ele>196</ele>
        <time>2018-02-18T10:11:55Z</time>
      </trkpt>
      <trkpt lat="45.8668" lon="4.72009">
        <ele>196</ele>
        <time>2018-02-18T10:11:56Z</time>
      </trkpt>
      <trkpt lat="45.86677" lon="4.72006">
        <ele>196</ele>
        <time>2018-02-18T10:11:57Z</time>
      </trkpt>
      <trkpt lat="45.86671" lon="4.72003">
        <ele>195</ele>
        <time>2018-02-18T10:11:58Z</time>
      </trkpt>
      <trkpt lat="45.86666" lon="4.72">
        <ele>195</ele>
        <time>2018-02-18T10:11:59Z</time>
      </trkpt>
      <trkpt lat="45.86662" lon="4.71997">
        <ele>195</ele>
        <time>2018-02-18T10:12:00Z</time>
      </trkpt>
      <trkpt lat="45.86657" lon="4.71992">
        <ele>195</ele>
        <time>2018-02-18T10:12:01Z</time>
      </trkpt>
      <trkpt lat="45.86653" lon="4.71988">
        <ele>195</ele>
        <time>2018-02-18T10:12:02Z</time>
      </trkpt>
      <trkpt lat="45.86648" lon="4.71985">
        <ele>195</ele>
        <time>2018-02-18T10:12:03Z</time>
      </trkpt>
      <trkpt lat="45.86643" lon="4.71982">
        <ele>195</ele>
        <time>2018-02-18T10:12:04Z</time>
      </trkpt>
      <trkpt lat="45.86638" lon="4.71978">
        <ele>195</ele>
        <time>2018-02-18T10:12:05Z</time>
      </trkpt>
      <trkpt lat="45.86634" lon="4.71974">
        <ele>195</ele>
        <time>2018-02-18T10:12:06Z</time>
      </trkpt>
      <trkpt lat="45.86629" lon="4.71969">
        <ele>195</ele>
        <time>2018-02-18T10:12:07Z</time>
      </trkpt>
      <trkpt lat="45.86624" lon="4.71965">
        <ele>195</ele>
        <time>2018-02-18T10:12:08Z</time>
      </trkpt>
      <trkpt lat="45.8662" lon="4.71961">
        <ele>195</ele>
        <time>2018-02-18T10:12:09Z</time>
      </trkpt>
      <trkpt lat="45.86615" lon="4.71957">
        <ele>194</ele>
        <time>2018-02-18T10:12:10Z</time>
      </trkpt>
      <trkpt lat="45.8661" lon="4.71952">
        <ele>194</ele>
        <time>2018-02-18T10:12:11Z</time>
      </trkpt>
      <trkpt lat="45.86605" lon="4.7195">
        <ele>194</ele>
        <time>2018-02-18T10:12:12Z</time>
      </trkpt>
      <trkpt lat="45.866" lon="4.71946">
        <ele>194</ele>
        <time>2018-02-18T10:12:13Z</time>
      </trkpt>
      <trkpt lat="45.86596" lon="4.71942">
        <ele>194</ele>
        <time>2018-02-18T10:12:14Z</time>
      </trkpt>
      <trkpt lat="45.86591" lon="4.71938">
        <ele>194</ele>
        <time>2018-02-18T10:12:15Z</time>
      </trkpt>
      <trkpt lat="45.86586" lon="4.71934">
        <ele>194</ele>
        <time>2018-02-18T10:12:16Z</time>
      </trkpt>
      <trkpt lat="45.86582" lon="4.7193">
        <ele>195</ele>
        <time>2018-02-18T10:12:17Z</time>
      </trkpt>
      <trkpt lat="45.86578" lon="4.71926">
        <ele>195</ele>
        <time>2018-02-18T10:12:18Z</time>
      </trkpt>
      <trkpt lat="45.86573" lon="4.71923">
        <ele>195</ele>
        <time>2018-02-18T10:12:19Z</time>
      </trkpt>
      <trkpt lat="45.86569" lon="4.7192">
        <ele>195</ele>
        <time>2018-02-18T10:12:20Z</time>
      </trkpt>
      <trkpt lat="45.86565" lon="4.71916">
        <ele>195</ele>
        <time>2018-02-18T10:12:21Z</time>
      </trkpt>
      <trkpt lat="45.86561" lon="4.71911">
        <ele>195</ele>
        <time>2018-02-18T10:12:22Z</time>
      </trkpt>
      <trkpt lat="45.86556" lon="4.71908">
        <ele>195</ele>
        <time>2018-02-18T10:12:23Z</time>
      </trkpt>
      <trkpt lat="45.86552" lon="4.71905">
        <ele>195</ele>
        <time>2018-02-18T10:12:24Z</time>
      </trkpt>
      <trkpt lat="45.86547" lon="4.71901">
        <ele>195</ele>
        <time>2018-02-18T10:12:25Z</time>
      </trkpt>
      <trkpt lat="45.86542" lon="4.71897">
        <ele>195</ele>
        <time>2018-02-18T10:12:26Z</time>
      </trkpt>
      <trkpt lat="45.86538" lon="4.71894">
        <ele>195</ele>
        <time>2018-02-18T10:12:27Z</time>
      </trkpt>
      <trkpt lat="45.86533" lon="4.7189">
        <ele>195</ele>
        <time>2018-02-18T10:12:28Z</time>
      </trkpt>
      <trkpt lat="45.86529" lon="4.71887">
        <ele>195</ele>
        <time>2018-02-18T10:12:29Z</time>
      </trkpt>
      <trkpt lat="45.86525" lon="4.71883">
        <ele>195</ele>
        <time>2018-02-18T10:12:30Z</time>
      </trkpt>
      <trkpt lat="45.86521" lon="4.71879">
        <ele>195</ele>
        <time>2018-02-18T10:12:31Z</time>
      </trkpt>
      <trkpt lat="45.86517" lon="4.71876">
        <ele>195</ele>
        <time>2018-02-18T10:12:32Z</time>
      </trkpt>
      <trkpt lat="45.86512" lon="4.71872">
        <ele>195</ele>
        <time>2018-02-18T10:12:33Z</time>
      </trkpt>
      <trkpt lat="45.86508" lon="4.71869">
        <ele>195</ele>
        <time>2018-02-18T10:12:34Z</time>
      </trkpt>
      <trkpt lat="45.86503" lon="4.71865">
        <ele>195</ele>
        <time>2018-02-18T10:12:35Z</time>
      </trkpt>
      <trkpt lat="45.86499" lon="4.71862">
        <ele>198</ele>
        <time>2018-02-18T10:12:36Z</time>
      </trkpt>
      <trkpt lat="45.86493" lon="4.71858">
        <ele>198</ele>
        <time>2018-02-18T10:12:37Z</time>
      </trkpt>
      <trkpt lat="45.86489" lon="4.71855">
        <ele>198</ele>
        <time>2018-02-18T10:12:38Z</time>
      </trkpt>
      <trkpt lat="45.86484" lon="4.71853">
        <ele>198</ele>
        <time>2018-02-18T10:12:39Z</time>
      </trkpt>
      <trkpt lat="45.8648" lon="4.71848">
        <ele>198</ele>
        <time>2018-02-18T10:12:40Z</time>
      </trkpt>
      <trkpt lat="45.86475" lon="4.71845">
        <ele>198</ele>
        <time>2018-02-18T10:12:41Z</time>
      </trkpt>
      <trkpt lat="45.86471" lon="4.71841">
        <ele>199</ele>
        <time>2018-02-18T10:12:42Z</time>
      </trkpt>
      <trkpt lat="45.86467" lon="4.71837">
        <ele>199</ele>
        <time>2018-02-18T10:12:43Z</time>
      </trkpt>
      <trkpt lat="45.86462" lon="4.71835">
        <ele>199</ele>
        <time>2018-02-18T10:12:44Z</time>
      </trkpt>
      <trkpt lat="45.86457" lon="4.71831">
        <ele>197</ele>
        <time>2018-02-18T10:12:45Z</time>
      </trkpt>
      <trkpt lat="45.8645" lon="4.71827">
        <ele>197</ele>
        <time>2018-02-18T10:12:46Z</time>
      </trkpt>
      <trkpt lat="45.86446" lon="4.71823">
        <ele>197</ele>
        <time>2018-02-18T10:12:47Z</time>
      </trkpt>
      <trkpt lat="45.86441" lon="4.7182">
        <ele>197</ele>
        <time>2018-02-18T10:12:48Z</time>
      </trkpt>
      <trkpt lat="45.86435" lon="4.71816">
        <ele>198</ele>
        <time>2018-02-18T10:12:49Z</time>
      </trkpt>
      <trkpt lat="45.86431" lon="4.71812">
        <ele>198</ele>
        <time>2018-02-18T10:12:50Z</time>
      </trkpt>
      <trkpt lat="45.86424" lon="4.71806">
        <ele>197</ele>
        <time>2018-02-18T10:12:52Z</time>
      </trkpt>
      <trkpt lat="45.86419" lon="4.71802">
        <ele>197</ele>
        <time>2018-02-18T10:12:53Z</time>
      </trkpt>
      <trkpt lat="45.86415" lon="4.71797">
        <ele>199</ele>
        <time>2018-02-18T10:12:54Z</time>
      </trkpt>
      <trkpt lat="45.8641" lon="4.71794">
        <ele>199</ele>
        <time>2018-02-18T10:12:55Z</time>
      </trkpt>
      <trkpt lat="45.86404" lon="4.71789">
        <ele>198</ele>
        <time>2018-02-18T10:12:56Z</time>
      </trkpt>
      <trkpt lat="45.86399" lon="4.71786">
        <ele>198</ele>
        <time>2018-02-18T10:12:57Z</time>
      </trkpt>
      <trkpt lat="45.86394" lon="4.71782">
        <ele>198</ele>
        <time>2018-02-18T10:12:58Z</time>
      </trkpt>
      <trkpt lat="45.86391" lon="4.71779">
        <ele>198</ele>
        <time>2018-02-18T10:12:59Z</time>
      </trkpt>
      <trkpt lat="45.86386" lon="4.71776">
        <ele>198</ele>
        <time>2018-02-18T10:13:00Z</time>
      </trkpt>
      <trkpt lat="45.86383" lon="4.71774">
        <ele>198</ele>
        <time>2018-02-18T10:13:01Z</time>
      </trkpt>
      <trkpt lat="45.86378" lon="4.7177">
        <ele>198</ele>
        <time>2018-02-18T10:13:02Z</time>
      </trkpt>
      <trkpt lat="45.86372" lon="4.71766">
        <ele>198</ele>
        <time>2018-02-18T10:13:03Z</time>
      </trkpt>
      <trkpt lat="45.86367" lon="4.71762">
        <ele>198</ele>
        <time>2018-02-18T10:13:04Z</time>
      </trkpt>
      <trkpt lat="45.86361" lon="4.71758">
        <ele>198</ele>
        <time>2018-02-18T10:13:05Z</time>
      </trkpt>
      <trkpt lat="45.86356" lon="4.71754">
        <ele>197</ele>
        <time>2018-02-18T10:13:06Z</time>
      </trkpt>
      <trkpt lat="45.86351" lon="4.71751">
        <ele>197</ele>
        <time>2018-02-18T10:13:07Z</time>
      </trkpt>
      <trkpt lat="45.86346" lon="4.71747">
        <ele>195</ele>
        <time>2018-02-18T10:13:08Z</time>
      </trkpt>
      <trkpt lat="45.86342" lon="4.71744">
        <ele>195</ele>
        <time>2018-02-18T10:13:09Z</time>
      </trkpt>
      <trkpt lat="45.86337" lon="4.7174">
        <ele>195</ele>
        <time>2018-02-18T10:13:10Z</time>
      </trkpt>
      <trkpt lat="45.86333" lon="4.71736">
        <ele>196</ele>
        <time>2018-02-18T10:13:11Z</time>
      </trkpt>
      <trkpt lat="45.86329" lon="4.71733">
        <ele>196</ele>
        <time>2018-02-18T10:13:12Z</time>
      </trkpt>
      <trkpt lat="45.86325" lon="4.71728">
        <ele>196</ele>
        <time>2018-02-18T10:13:13Z</time>
      </trkpt>
      <trkpt lat="45.8632" lon="4.71724">
        <ele>196</ele>
        <time>2018-02-18T10:13:14Z</time>
      </trkpt>
      <trkpt lat="45.86316" lon="4.71721">
        <ele>196</ele>
        <time>2018-02-18T10:13:15Z</time>
      </trkpt>
      <trkpt lat="45.86312" lon="4.71717">
        <ele>196</ele>
        <time>2018-02-18T10:13:16Z</time>
      </trkpt>
      <trkpt lat="45.86307" lon="4.71714">
        <ele>195</ele>
        <time>2018-02-18T10:13:17Z</time>
      </trkpt>
      <trkpt lat="45.86299" lon="4.71708">
        <ele>195</ele>
        <time>2018-02-18T10:13:19Z</time>
      </trkpt>
      <trkpt lat="45.86294" lon="4.71703">
        <ele>195</ele>
        <time>2018-02-18T10:13:20Z</time>
      </trkpt>
      <trkpt lat="45.86291" lon="4.717">
        <ele>195</ele>
        <time>2018-02-18T10:13:21Z</time>
      </trkpt>
      <trkpt lat="45.86285" lon="4.71697">
        <ele>195</ele>
        <time>2018-02-18T10:13:22Z</time>
      </trkpt>
      <trkpt lat="45.86281" lon="4.71693">
        <ele>195</ele>
        <time>2018-02-18T10:13:23Z</time>
      </trkpt>
      <trkpt lat="45.86277" lon="4.71689">
        <ele>195</ele>
        <time>2018-02-18T10:13:24Z</time>
      </trkpt>
      <trkpt lat="45.86272" lon="4.71685">
        <ele>195</ele>
        <time>2018-02-18T10:13:25Z</time>
      </trkpt>
      <trkpt lat="45.86267" lon="4.7168">
        <ele>195</ele>
        <time>2018-02-18T10:13:26Z</time>
      </trkpt>
      <trkpt lat="45.86262" lon="4.71676">
        <ele>195</ele>
        <time>2018-02-18T10:13:27Z</time>
      </trkpt>
      <trkpt lat="45.86257" lon="4.71672">
        <ele>195</ele>
        <time>2018-02-18T10:13:28Z</time>
      </trkpt>
      <trkpt lat="45.86252" lon="4.71669">
        <ele>195</ele>
        <time>2018-02-18T10:13:29Z</time>
      </trkpt>
      <trkpt lat="45.86247" lon="4.71666">
        <ele>195</ele>
        <time>2018-02-18T10:13:30Z</time>
      </trkpt>
      <trkpt lat="45.86243" lon="4.71662">
        <ele>195</ele>
        <time>2018-02-18T10:13:31Z</time>
      </trkpt>
      <trkpt lat="45.86238" lon="4.71659">
        <ele>195</ele>
        <time>2018-02-18T10:13:32Z</time>
      </trkpt>
      <trkpt lat="45.86232" lon="4.71653">
        <ele>195</ele>
        <time>2018-02-18T10:13:34Z</time>
      </trkpt>
      <trkpt lat="45.86228" lon="4.7165">
        <ele>195</ele>
        <time>2018-02-18T10:13:35Z</time>
      </trkpt>
      <trkpt lat="45.86221" lon="4.71643">
        <ele>195</ele>
        <time>2018-02-18T10:13:37Z</time>
      </trkpt>
      <trkpt lat="45.8622" lon="4.71639">
        <ele>195</ele>
        <time>2018-02-18T10:13:38Z</time>
      </trkpt>
      <trkpt lat="45.86218" lon="4.71629">
        <ele>195</ele>
        <time>2018-02-18T10:13:39Z</time>
      </trkpt>
      <trkpt lat="45.86217" lon="4.71623">
        <ele>195</ele>
        <time>2018-02-18T10:13:40Z</time>
      </trkpt>
      <trkpt lat="45.86216" lon="4.71616">
        <ele>195</ele>
        <time>2018-02-18T10:13:41Z</time>
      </trkpt>
      <trkpt lat="45.86215" lon="4.7161">
        <ele>195</ele>
        <time>2018-02-18T10:13:42Z</time>
      </trkpt>
      <trkpt lat="45.86209" lon="4.716">
        <ele>195</ele>
        <time>2018-02-18T10:13:44Z</time>
      </trkpt>
      <trkpt lat="45.86206" lon="4.71596">
        <ele>195</ele>
        <time>2018-02-18T10:13:45Z</time>
      </trkpt>
      <trkpt lat="45.86202" lon="4.71592">
        <ele>195</ele>
        <time>2018-02-18T10:13:46Z</time>
      </trkpt>
      <trkpt lat="45.86198" lon="4.71588">
        <ele>195</ele>
        <time>2018-02-18T10:13:47Z</time>
      </trkpt>
      <trkpt lat="45.86193" lon="4.71583">
        <ele>195</ele>
        <time>2018-02-18T10:13:48Z</time>
      </trkpt>
      <trkpt lat="45.8619" lon="4.71578">
        <ele>195</ele>
        <time>2018-02-18T10:13:49Z</time>
      </trkpt>
      <trkpt lat="45.86185" lon="4.71574">
        <ele>195</ele>
        <time>2018-02-18T10:13:50Z</time>
      </trkpt>
      <trkpt lat="45.86182" lon="4.71569">
        <ele>195</ele>
        <time>2018-02-18T10:13:51Z</time>
      </trkpt>
      <trkpt lat="45.86176" lon="4.71561">
        <ele>195</ele>
        <time>2018-02-18T10:13:53Z</time>
      </trkpt>
      <trkpt lat="45.86174" lon="4.71554">
        <ele>195</ele>
        <time>2018-02-18T10:13:54Z</time>
      </trkpt>
      <trkpt lat="45.86171" lon="4.71548">
        <ele>195</ele>
        <time>2018-02-18T10:13:55Z</time>
      </trkpt>
      <trkpt lat="45.86168" lon="4.71543">
        <ele>195</ele>
        <time>2018-02-18T10:13:56Z</time>
      </trkpt>
      <trkpt lat="45.86164" lon="4.71538">
        <ele>195</ele>
        <time>2018-02-18T10:13:57Z</time>
      </trkpt>
      <trkpt lat="45.86161" lon="4.71532">
        <ele>195</ele>
        <time>2018-02-18T10:13:58Z</time>
      </trkpt>
      <trkpt lat="45.86158" lon="4.71527">
        <ele>195</ele>
        <time>2018-02-18T10:13:59Z</time>
      </trkpt>
      <trkpt lat="45.86154" lon="4.71521">
        <ele>195</ele>
        <time>2018-02-18T10:14:00Z</time>
      </trkpt>
      <trkpt lat="45.86149" lon="4.71511">
        <ele>195</ele>
        <time>2018-02-18T10:14:02Z</time>
      </trkpt>
      <trkpt lat="45.86147" lon="4.71505">
        <ele>195</ele>
        <time>2018-02-18T10:14:03Z</time>
      </trkpt>
      <trkpt lat="45.86144" lon="4.71493">
        <ele>195</ele>
        <time>2018-02-18T10:14:05Z</time>
      </trkpt>
      <trkpt lat="45.86142" lon="4.71488">
        <ele>195</ele>
        <time>2018-02-18T10:14:06Z</time>
      </trkpt>
      <trkpt lat="45.8614" lon="4.7148">
        <ele>195</ele>
        <time>2018-02-18T10:14:07Z</time>
      </trkpt>
      <trkpt lat="45.86137" lon="4.71474">
        <ele>195</ele>
        <time>2018-02-18T10:14:08Z</time>
      </trkpt>
      <trkpt lat="45.86135" lon="4.71468">
        <ele>195</ele>
        <time>2018-02-18T10:14:09Z</time>
      </trkpt>
      <trkpt lat="45.86133" lon="4.71463">
        <ele>195</ele>
        <time>2018-02-18T10:14:10Z</time>
      </trkpt>
      <trkpt lat="45.86129" lon="4.71451">
        <ele>195</ele>
        <time>2018-02-18T10:14:12Z</time>
      </trkpt>
      <trkpt lat="45.86129" lon="4.71446">
        <ele>195</ele>
        <time>2018-02-18T10:14:13Z</time>
      </trkpt>
      <trkpt lat="45.86127" lon="4.71439">
        <ele>195</ele>
        <time>2018-02-18T10:14:14Z</time>
      </trkpt>
      <trkpt lat="45.86126" lon="4.71433">
        <ele>195</ele>
        <time>2018-02-18T10:14:15Z</time>
      </trkpt>
      <trkpt lat="45.86124" lon="4.71426">
        <ele>195</ele>
        <time>2018-02-18T10:14:16Z</time>
      </trkpt>
      <trkpt lat="45.86124" lon="4.7142">
        <ele>195</ele>
        <time>2018-02-18T10:14:17Z</time>
      </trkpt>
      <trkpt lat="45.86121" lon="4.71412">
        <ele>196</ele>
        <time>2018-02-18T10:14:18Z</time>
      </trkpt>
      <trkpt lat="45.86118" lon="4.71405">
        <ele>196</ele>
        <time>2018-02-18T10:14:19Z</time>
      </trkpt>
      <trkpt lat="45.86116" lon="4.71393">
        <ele>196</ele>
        <time>2018-02-18T10:14:21Z</time>
      </trkpt>
      <trkpt lat="45.86116" lon="4.71388">
        <ele>196</ele>
        <time>2018-02-18T10:14:22Z</time>
      </trkpt>
      <trkpt lat="45.86115" lon="4.7138">
        <ele>196</ele>
        <time>2018-02-18T10:14:23Z</time>
      </trkpt>
      <trkpt lat="45.86115" lon="4.71373">
        <ele>196</ele>
        <time>2018-02-18T10:14:24Z</time>
      </trkpt>
      <trkpt lat="45.86113" lon="4.71361">
        <ele>196</ele>
        <time>2018-02-18T10:14:26Z</time>
      </trkpt>
      <trkpt lat="45.86114" lon="4.71353">
        <ele>196</ele>
        <time>2018-02-18T10:14:27Z</time>
      </trkpt>
      <trkpt lat="45.86113" lon="4.71341">
        <ele>196</ele>
        <time>2018-02-18T10:14:29Z</time>
      </trkpt>
      <trkpt lat="45.86111" lon="4.71335">
        <ele>196</ele>
        <time>2018-02-18T10:14:30Z</time>
      </trkpt>
      <trkpt lat="45.8611" lon="4.71329">
        <ele>196</ele>
        <time>2018-02-18T10:14:31Z</time>
      </trkpt>
      <trkpt lat="45.86108" lon="4.71323">
        <ele>196</ele>
        <time>2018-02-18T10:14:32Z</time>
      </trkpt>
      <trkpt lat="45.86107" lon="4.71316">
        <ele>196</ele>
        <time>2018-02-18T10:14:33Z</time>
      </trkpt>
      <trkpt lat="45.86106" lon="4.71309">
        <ele>196</ele>
        <time>2018-02-18T10:14:34Z</time>
      </trkpt>
      <trkpt lat="45.86105" lon="4.71302">
        <ele>196</ele>
        <time>2018-02-18T10:14:35Z</time>
      </trkpt>
      <trkpt lat="45.86103" lon="4.71295">
        <ele>197</ele>
        <time>2018-02-18T10:14:36Z</time>
      </trkpt>
      <trkpt lat="45.86102" lon="4.71289">
        <ele>197</ele>
        <time>2018-02-18T10:14:37Z</time>
      </trkpt>
      <trkpt lat="45.86101" lon="4.71282">
        <ele>197</ele>
        <time>2018-02-18T10:14:38Z</time>
      </trkpt>
      <trkpt lat="45.86099" lon="4.71272">
        <ele>197</ele>
        <time>2018-02-18T10:14:40Z</time>
      </trkpt>
      <trkpt lat="45.86096" lon="4.71266">
        <ele>197</ele>
        <time>2018-02-18T10:14:41Z</time>
      </trkpt>
      <trkpt lat="45.86091" lon="4.71257">
        <ele>197</ele>
        <time>2018-02-18T10:14:43Z</time>
      </trkpt>
      <trkpt lat="45.86089" lon="4.71252">
        <ele>198</ele>
        <time>2018-02-18T10:14:44Z</time>
      </trkpt>
      <trkpt lat="45.86084" lon="4.71241">
        <ele>198</ele>
        <time>2018-02-18T10:14:46Z</time>
      </trkpt>
      <trkpt lat="45.86085" lon="4.71233">
        <ele>197</ele>
        <time>2018-02-18T10:14:47Z</time>
      </trkpt>
      <trkpt lat="45.86086" lon="4.71222">
        <ele>197</ele>
        <time>2018-02-18T10:14:49Z</time>
      </trkpt>
      <trkpt lat="45.86087" lon="4.71214">
        <ele>197</ele>
        <time>2018-02-18T10:14:50Z</time>
      </trkpt>
      <trkpt lat="45.86086" lon="4.71206">
        <ele>197</ele>
        <time>2018-02-18T10:14:51Z</time>
      </trkpt>
      <trkpt lat="45.86087" lon="4.712">
        <ele>197</ele>
        <time>2018-02-18T10:14:52Z</time>
      </trkpt>
      <trkpt lat="45.86089" lon="4.71187">
        <ele>197</ele>
        <time>2018-02-18T10:14:54Z</time>
      </trkpt>
      <trkpt lat="45.86089" lon="4.71181">
        <ele>197</ele>
        <time>2018-02-18T10:14:55Z</time>
      </trkpt>
      <trkpt lat="45.86089" lon="4.71174">
        <ele>198</ele>
        <time>2018-02-18T10:14:56Z</time>
      </trkpt>
      <trkpt lat="45.8609" lon="4.71166">
        <ele>198</ele>
        <time>2018-02-18T10:14:57Z</time>
      </trkpt>
      <trkpt lat="45.8609" lon="4.71158">
        <ele>197</ele>
        <time>2018-02-18T10:14:58Z</time>
      </trkpt>
      <trkpt lat="45.8609" lon="4.71152">
        <ele>197</ele>
        <time>2018-02-18T10:14:59Z</time>
      </trkpt>
      <trkpt lat="45.8609" lon="4.71143">
        <ele>197</ele>
        <time>2018-02-18T10:15:01Z</time>
      </trkpt>
      <trkpt lat="45.86087" lon="4.71138">
        <ele>197</ele>
        <time>2018-02-18T10:15:02Z</time>
      </trkpt>
      <trkpt lat="45.8608" lon="4.71133">
        <ele>197</ele>
        <time>2018-02-18T10:15:04Z</time>
      </trkpt>
      <trkpt lat="45.86076" lon="4.71133">
        <ele>197</ele>
        <time>2018-02-18T10:15:05Z</time>
      </trkpt>
      <trkpt lat="45.86069" lon="4.71127">
        <ele>197</ele>
        <time>2018-02-18T10:15:07Z</time>
      </trkpt>
      <trkpt lat="45.86066" lon="4.71125">
        <ele>197</ele>
        <time>2018-02-18T10:15:08Z</time>
      </trkpt>
      <trkpt lat="45.8606" lon="4.71123">
        <ele>197</ele>
        <time>2018-02-18T10:15:09Z</time>
      </trkpt>
      <trkpt lat="45.86057" lon="4.71119">
        <ele>197</ele>
        <time>2018-02-18T10:15:10Z</time>
      </trkpt>
      <trkpt lat="45.86054" lon="4.71115">
        <ele>197</ele>
        <time>2018-02-18T10:15:11Z</time>
      </trkpt>
      <trkpt lat="45.86052" lon="4.71107">
        <ele>197</ele>
        <time>2018-02-18T10:15:12Z</time>
      </trkpt>
      <trkpt lat="45.86047" lon="4.71097">
        <ele>197</ele>
        <time>2018-02-18T10:15:14Z</time>
      </trkpt>
      <trkpt lat="45.86044" lon="4.7109">
        <ele>197</ele>
        <time>2018-02-18T10:15:15Z</time>
      </trkpt>
      <trkpt lat="45.86041" lon="4.71084">
        <ele>197</ele>
        <time>2018-02-18T10:15:16Z</time>
      </trkpt>
      <trkpt lat="45.86039" lon="4.71076">
        <ele>197</ele>
        <time>2018-02-18T10:15:17Z</time>
      </trkpt>
      <trkpt lat="45.86037" lon="4.7107">
        <ele>197</ele>
        <time>2018-02-18T10:15:18Z</time>
      </trkpt>
      <trkpt lat="45.86035" lon="4.71064">
        <ele>197</ele>
        <time>2018-02-18T10:15:19Z</time>
      </trkpt>
      <trkpt lat="45.86034" lon="4.71057">
        <ele>197</ele>
        <time>2018-02-18T10:15:20Z</time>
      </trkpt>
      <trkpt lat="45.86032" lon="4.71051">
        <ele>197</ele>
        <time>2018-02-18T10:15:21Z</time>
      </trkpt>
      <trkpt lat="45.86031" lon="4.71045">
        <ele>197</ele>
        <time>2018-02-18T10:15:22Z</time>
      </trkpt>
      <trkpt lat="45.8603" lon="4.71038">
        <ele>197</ele>
        <time>2018-02-18T10:15:23Z</time>
      </trkpt>
      <trkpt lat="45.86028" lon="4.71027">
        <ele>197</ele>
        <time>2018-02-18T10:15:25Z</time>
      </trkpt>
      <trkpt lat="45.86026" lon="4.71022">
        <ele>197</ele>
        <time>2018-02-18T10:15:26Z</time>
      </trkpt>
      <trkpt lat="45.86021" lon="4.71011">
        <ele>197</ele>
        <time>2018-02-18T10:15:28Z</time>
      </trkpt>
      <trkpt lat="45.86018" lon="4.71005">
        <ele>197</ele>
        <time>2018-02-18T10:15:29Z</time>
      </trkpt>
      <trkpt lat="45.86012" lon="4.70997">
        <ele>197</ele>
        <time>2018-02-18T10:15:31Z</time>
      </trkpt>
      <trkpt lat="45.86009" lon="4.70993">
        <ele>197</ele>
        <time>2018-02-18T10:15:32Z</time>
      </trkpt>
      <trkpt lat="45.86004" lon="4.7099">
        <ele>197</ele>
        <time>2018-02-18T10:15:33Z</time>
      </trkpt>
      <trkpt lat="45.86001" lon="4.70987">
        <ele>197</ele>
        <time>2018-02-18T10:15:34Z</time>
      </trkpt>
      <trkpt lat="45.85994" lon="4.70981">
        <ele>197</ele>
        <time>2018-02-18T10:15:36Z</time>
      </trkpt>
      <trkpt lat="45.8599" lon="4.70977">
        <ele>197</ele>
        <time>2018-02-18T10:15:37Z</time>
      </trkpt>
      <trkpt lat="45.85982" lon="4.70972">
        <ele>197</ele>
        <time>2018-02-18T10:15:39Z</time>
      </trkpt>
      <trkpt lat="45.85979" lon="4.7097">
        <ele>197</ele>
        <time>2018-02-18T10:15:40Z</time>
      </trkpt>
      <trkpt lat="45.85971" lon="4.70968">
        <ele>197</ele>
        <time>2018-02-18T10:15:42Z</time>
      </trkpt>
      <trkpt lat="45.85967" lon="4.70968">
        <ele>197</ele>
        <time>2018-02-18T10:15:43Z</time>
      </trkpt>
      <trkpt lat="45.85959" lon="4.70967">
        <ele>197</ele>
        <time>2018-02-18T10:15:45Z</time>
      </trkpt>
      <trkpt lat="45.85955" lon="4.70967">
        <ele>197</ele>
        <time>2018-02-18T10:15:46Z</time>
      </trkpt>
      <trkpt lat="45.85946" lon="4.70962">
        <ele>197</ele>
        <time>2018-02-18T10:15:48Z</time>
      </trkpt>
      <trkpt lat="45.85944" lon="4.70958">
        <ele>197</ele>
        <time>2018-02-18T10:15:49Z</time>
      </trkpt>
      <trkpt lat="45.85943" lon="4.70948">
        <ele>197</ele>
        <time>2018-02-18T10:15:51Z</time>
      </trkpt>
      <trkpt lat="45.85944" lon="4.70942">
        <ele>197</ele>
        <time>2018-02-18T10:15:52Z</time>
      </trkpt>
      <trkpt lat="45.85945" lon="4.70935">
        <ele>197</ele>
        <time>2018-02-18T10:15:53Z</time>
      </trkpt>
      <trkpt lat="45.85946" lon="4.70929">
        <ele>197</ele>
        <time>2018-02-18T10:15:54Z</time>
      </trkpt>
      <trkpt lat="45.85949" lon="4.70917">
        <ele>197</ele>
        <time>2018-02-18T10:15:56Z</time>
      </trkpt>
      <trkpt lat="45.85951" lon="4.70912">
        <ele>197</ele>
        <time>2018-02-18T10:15:57Z</time>
      </trkpt>
      <trkpt lat="45.85953" lon="4.70905">
        <ele>197</ele>
        <time>2018-02-18T10:15:58Z</time>
      </trkpt>
      <trkpt lat="45.85955" lon="4.70899">
        <ele>197</ele>
        <time>2018-02-18T10:15:59Z</time>
      </trkpt>
      <trkpt lat="45.85956" lon="4.70888">
        <ele>197</ele>
        <time>2018-02-18T10:16:01Z</time>
      </trkpt>
      <trkpt lat="45.85957" lon="4.70882">
        <ele>197</ele>
        <time>2018-02-18T10:16:02Z</time>
      </trkpt>
      <trkpt lat="45.85958" lon="4.70876">
        <ele>197</ele>
        <time>2018-02-18T10:16:03Z</time>
      </trkpt>
      <trkpt lat="45.85958" lon="4.70869">
        <ele>196</ele>
        <time>2018-02-18T10:16:04Z</time>
      </trkpt>
      <trkpt lat="45.8596" lon="4.70857">
        <ele>196</ele>
        <time>2018-02-18T10:16:06Z</time>
      </trkpt>
      <trkpt lat="45.8596" lon="4.7085">
        <ele>196</ele>
        <time>2018-02-18T10:16:07Z</time>
      </trkpt>
      <trkpt lat="45.8596" lon="4.70844">
        <ele>196</ele>
        <time>2018-02-18T10:16:08Z</time>
      </trkpt>
      <trkpt lat="45.85961" lon="4.70837">
        <ele>196</ele>
        <time>2018-02-18T10:16:09Z</time>
      </trkpt>
      <trkpt lat="45.85962" lon="4.7083">
        <ele>196</ele>
        <time>2018-02-18T10:16:10Z</time>
      </trkpt>
      <trkpt lat="45.85961" lon="4.70823">
        <ele>195</ele>
        <time>2018-02-18T10:16:11Z</time>
      </trkpt>
      <trkpt lat="45.8596" lon="4.70817">
        <ele>195</ele>
        <time>2018-02-18T10:16:12Z</time>
      </trkpt>
      <trkpt lat="45.8596" lon="4.7081">
        <ele>195</ele>
        <time>2018-02-18T10:16:13Z</time>
      </trkpt>
      <trkpt lat="45.85959" lon="4.70803">
        <ele>195</ele>
        <time>2018-02-18T10:16:14Z</time>
      </trkpt>
      <trkpt lat="45.85956" lon="4.70797">
        <ele>195</ele>
        <time>2018-02-18T10:16:15Z</time>
      </trkpt>
      <trkpt lat="45.85954" lon="4.70791">
        <ele>195</ele>
        <time>2018-02-18T10:16:16Z</time>
      </trkpt>
      <trkpt lat="45.85955" lon="4.70783">
        <ele>195</ele>
        <time>2018-02-18T10:16:17Z</time>
      </trkpt>
      <trkpt lat="45.85955" lon="4.70771">
        <ele>195</ele>
        <time>2018-02-18T10:16:19Z</time>
      </trkpt>
      <trkpt lat="45.85955" lon="4.70765">
        <ele>195</ele>
        <time>2018-02-18T10:16:20Z</time>
      </trkpt>
      <trkpt lat="45.85957" lon="4.70753">
        <ele>195</ele>
        <time>2018-02-18T10:16:22Z</time>
      </trkpt>
      <trkpt lat="45.85957" lon="4.70748">
        <ele>194</ele>
        <time>2018-02-18T10:16:23Z</time>
      </trkpt>
      <trkpt lat="45.85958" lon="4.70741">
        <ele>194</ele>
        <time>2018-02-18T10:16:24Z</time>
      </trkpt>
      <trkpt lat="45.8596" lon="4.70734">
        <ele>194</ele>
        <time>2018-02-18T10:16:25Z</time>
      </trkpt>
      <trkpt lat="45.85961" lon="4.70728">
        <ele>194</ele>
        <time>2018-02-18T10:16:26Z</time>
      </trkpt>
      <trkpt lat="45.85961" lon="4.70721">
        <ele>194</ele>
        <time>2018-02-18T10:16:27Z</time>
      </trkpt>
      <trkpt lat="45.8596" lon="4.70712">
        <ele>194</ele>
        <time>2018-02-18T10:16:28Z</time>
      </trkpt>
      <trkpt lat="45.85961" lon="4.70704">
        <ele>194</ele>
        <time>2018-02-18T10:16:29Z</time>
      </trkpt>
      <trkpt lat="45.85961" lon="4.70698">
        <ele>194</ele>
        <time>2018-02-18T10:16:30Z</time>
      </trkpt>
      <trkpt lat="45.85961" lon="4.70691">
        <ele>194</ele>
        <time>2018-02-18T10:16:31Z</time>
      </trkpt>
      <trkpt lat="45.85961" lon="4.70684">
        <ele>194</ele>
        <time>2018-02-18T10:16:32Z</time>
      </trkpt>
      <trkpt lat="45.85959" lon="4.70678">
        <ele>194</ele>
        <time>2018-02-18T10:16:33Z</time>
      </trkpt>
      <trkpt lat="45.85957" lon="4.7067">
        <ele>194</ele>
        <time>2018-02-18T10:16:34Z</time>
      </trkpt>
      <trkpt lat="45.85954" lon="4.70665">
        <ele>194</ele>
        <time>2018-02-18T10:16:35Z</time>
      </trkpt>
      <trkpt lat="45.85951" lon="4.70659">
        <ele>194</ele>
        <time>2018-02-18T10:16:36Z</time>
      </trkpt>
      <trkpt lat="45.85948" lon="4.70654">
        <ele>194</ele>
        <time>2018-02-18T10:16:37Z</time>
      </trkpt>
      <trkpt lat="45.85944" lon="4.70648">
        <ele>194</ele>
        <time>2018-02-18T10:16:38Z</time>
      </trkpt>
      <trkpt lat="45.85941" lon="4.70642">
        <ele>194</ele>
        <time>2018-02-18T10:16:39Z</time>
      </trkpt>
      <trkpt lat="45.85937" lon="4.70636">
        <ele>194</ele>
        <time>2018-02-18T10:16:40Z</time>
      </trkpt>
      <trkpt lat="45.85933" lon="4.70631">
        <ele>194</ele>
        <time>2018-02-18T10:16:41Z</time>
      </trkpt>
      <trkpt lat="45.85929" lon="4.70625">
        <ele>194</ele>
        <time>2018-02-18T10:16:42Z</time>
      </trkpt>
      <trkpt lat="45.85925" lon="4.7062">
        <ele>194</ele>
        <time>2018-02-18T10:16:43Z</time>
      </trkpt>
      <trkpt lat="45.85923" lon="4.70614">
        <ele>194</ele>
        <time>2018-02-18T10:16:44Z</time>
      </trkpt>
      <trkpt lat="45.85919" lon="4.7061">
        <ele>194</ele>
        <time>2018-02-18T10:16:45Z</time>
      </trkpt>
      <trkpt lat="45.85915" lon="4.70604">
        <ele>195</ele>
        <time>2018-02-18T10:16:46Z</time>
      </trkpt>
      <trkpt lat="45.85912" lon="4.70598">
        <ele>195</ele>
        <time>2018-02-18T10:16:47Z</time>
      </trkpt>
      <trkpt lat="45.85909" lon="4.70593">
        <ele>195</ele>
        <time>2018-02-18T10:16:48Z</time>
      </trkpt>
      <trkpt lat="45.85905" lon="4.70587">
        <ele>195</ele>
        <time>2018-02-18T10:16:49Z</time>
      </trkpt>
      <trkpt lat="45.85901" lon="4.70583">
        <ele>195</ele>
        <time>2018-02-18T10:16:50Z</time>
      </trkpt>
      <trkpt lat="45.85897" lon="4.7058">
        <ele>195</ele>
        <time>2018-02-18T10:16:51Z</time>
      </trkpt>
      <trkpt lat="45.85891" lon="4.70577">
        <ele>195</ele>
        <time>2018-02-18T10:16:52Z</time>
      </trkpt>
      <trkpt lat="45.85886" lon="4.70575">
        <ele>195</ele>
        <time>2018-02-18T10:16:53Z</time>
      </trkpt>
      <trkpt lat="45.85878" lon="4.70573">
        <ele>195</ele>
        <time>2018-02-18T10:16:55Z</time>
      </trkpt>
      <trkpt lat="45.85874" lon="4.70571">
        <ele>195</ele>
        <time>2018-02-18T10:16:56Z</time>
      </trkpt>
      <trkpt lat="45.85868" lon="4.70565">
        <ele>195</ele>
        <time>2018-02-18T10:16:59Z</time>
      </trkpt>
      <trkpt lat="45.85862" lon="4.70563">
        <ele>195</ele>
        <time>2018-02-18T10:17:00Z</time>
      </trkpt>
      <trkpt lat="45.85855" lon="4.70562">
        <ele>195</ele>
        <time>2018-02-18T10:17:01Z</time>
      </trkpt>
      <trkpt lat="45.85849" lon="4.70561">
        <ele>195</ele>
        <time>2018-02-18T10:17:02Z</time>
      </trkpt>
      <trkpt lat="45.85844" lon="4.70558">
        <ele>195</ele>
        <time>2018-02-18T10:17:03Z</time>
      </trkpt>
      <trkpt lat="45.85838" lon="4.70557">
        <ele>195</ele>
        <time>2018-02-18T10:17:04Z</time>
      </trkpt>
      <trkpt lat="45.85832" lon="4.70555">
        <ele>195</ele>
        <time>2018-02-18T10:17:05Z</time>
      </trkpt>
      <trkpt lat="45.85828" lon="4.70554">
        <ele>195</ele>
        <time>2018-02-18T10:17:06Z</time>
      </trkpt>
      <trkpt lat="45.85823" lon="4.70551">
        <ele>195</ele>
        <time>2018-02-18T10:17:07Z</time>
      </trkpt>
      <trkpt lat="45.85819" lon="4.70548">
        <ele>195</ele>
        <time>2018-02-18T10:17:08Z</time>
      </trkpt>
      <trkpt lat="45.8581" lon="4.70546">
        <ele>195</ele>
        <time>2018-02-18T10:17:10Z</time>
      </trkpt>
      <trkpt lat="45.85806" lon="4.70545">
        <ele>195</ele>
        <time>2018-02-18T10:17:11Z</time>
      </trkpt>
      <trkpt lat="45.85798" lon="4.70541">
        <ele>195</ele>
        <time>2018-02-18T10:17:13Z</time>
      </trkpt>
      <trkpt lat="45.85794" lon="4.70539">
        <ele>195</ele>
        <time>2018-02-18T10:17:14Z</time>
      </trkpt>
      <trkpt lat="45.8579" lon="4.70536">
        <ele>196</ele>
        <time>2018-02-18T10:17:15Z</time>
      </trkpt>
      <trkpt lat="45.85785" lon="4.70534">
        <ele>196</ele>
        <time>2018-02-18T10:17:16Z</time>
      </trkpt>
      <trkpt lat="45.8578" lon="4.7053">
        <ele>196</ele>
        <time>2018-02-18T10:17:17Z</time>
      </trkpt>
      <trkpt lat="45.85776" lon="4.70527">
        <ele>196</ele>
        <time>2018-02-18T10:17:18Z</time>
      </trkpt>
      <trkpt lat="45.85771" lon="4.70524">
        <ele>196</ele>
        <time>2018-02-18T10:17:19Z</time>
      </trkpt>
      <trkpt lat="45.85767" lon="4.7052">
        <ele>196</ele>
        <time>2018-02-18T10:17:20Z</time>
      </trkpt>
      <trkpt lat="45.85762" lon="4.70516">
        <ele>196</ele>
        <time>2018-02-18T10:17:21Z</time>
      </trkpt>
      <trkpt lat="45.85758" lon="4.70512">
        <ele>196</ele>
        <time>2018-02-18T10:17:22Z</time>
      </trkpt>
      <trkpt lat="45.85754" lon="4.70509">
        <ele>196</ele>
        <time>2018-02-18T10:17:23Z</time>
      </trkpt>
      <trkpt lat="45.85748" lon="4.70505">
        <ele>196</ele>
        <time>2018-02-18T10:17:24Z</time>
      </trkpt>
      <trkpt lat="45.85744" lon="4.70501">
        <ele>196</ele>
        <time>2018-02-18T10:17:25Z</time>
      </trkpt>
      <trkpt lat="45.85741" lon="4.70497">
        <ele>196</ele>
        <time>2018-02-18T10:17:26Z</time>
      </trkpt>
      <trkpt lat="45.85737" lon="4.70492">
        <ele>196</ele>
        <time>2018-02-18T10:17:27Z</time>
      </trkpt>
      <trkpt lat="45.85734" lon="4.70487">
        <ele>196</ele>
        <time>2018-02-18T10:17:28Z</time>
      </trkpt>
      <trkpt lat="45.85732" lon="4.70481">
        <ele>196</ele>
        <time>2018-02-18T10:17:29Z</time>
      </trkpt>
      <trkpt lat="45.85728" lon="4.70473">
        <ele>196</ele>
        <time>2018-02-18T10:17:30Z</time>
      </trkpt>
      <trkpt lat="45.85725" lon="4.7046">
        <ele>196</ele>
        <time>2018-02-18T10:17:32Z</time>
      </trkpt>
      <trkpt lat="45.85724" lon="4.70455">
        <ele>196</ele>
        <time>2018-02-18T10:17:33Z</time>
      </trkpt>
      <trkpt lat="45.85723" lon="4.70442">
        <ele>196</ele>
        <time>2018-02-18T10:17:35Z</time>
      </trkpt>
      <trkpt lat="45.85722" lon="4.70435">
        <ele>196</ele>
        <time>2018-02-18T10:17:36Z</time>
      </trkpt>
      <trkpt lat="45.85721" lon="4.70428">
        <ele>196</ele>
        <time>2018-02-18T10:17:37Z</time>
      </trkpt>
      <trkpt lat="45.8572" lon="4.70421">
        <ele>196</ele>
        <time>2018-02-18T10:17:38Z</time>
      </trkpt>
      <trkpt lat="45.85719" lon="4.70414">
        <ele>196</ele>
        <time>2018-02-18T10:17:39Z</time>
      </trkpt>
      <trkpt lat="45.85717" lon="4.70406">
        <ele>196</ele>
        <time>2018-02-18T10:17:40Z</time>
      </trkpt>
      <trkpt lat="45.85716" lon="4.70399">
        <ele>196</ele>
        <time>2018-02-18T10:17:41Z</time>
      </trkpt>
      <trkpt lat="45.85714" lon="4.7039">
        <ele>196</ele>
        <time>2018-02-18T10:17:42Z</time>
      </trkpt>
      <trkpt lat="45.85713" lon="4.70382">
        <ele>196</ele>
        <time>2018-02-18T10:17:43Z</time>
      </trkpt>
      <trkpt lat="45.85711" lon="4.70372">
        <ele>196</ele>
        <time>2018-02-18T10:17:44Z</time>
      </trkpt>
      <trkpt lat="45.8571" lon="4.70365">
        <ele>196</ele>
        <time>2018-02-18T10:17:45Z</time>
      </trkpt>
      <trkpt lat="45.8571" lon="4.70357">
        <ele>196</ele>
        <time>2018-02-18T10:17:46Z</time>
      </trkpt>
      <trkpt lat="45.85709" lon="4.70348">
        <ele>196</ele>
        <time>2018-02-18T10:17:47Z</time>
      </trkpt>
      <trkpt lat="45.85708" lon="4.70339">
        <ele>196</ele>
        <time>2018-02-18T10:17:48Z</time>
      </trkpt>
      <trkpt lat="45.85707" lon="4.70331">
        <ele>197</ele>
        <time>2018-02-18T10:17:49Z</time>
      </trkpt>
      <trkpt lat="45.85707" lon="4.70323">
        <ele>197</ele>
        <time>2018-02-18T10:17:50Z</time>
      </trkpt>
      <trkpt lat="45.85707" lon="4.70315">
        <ele>197</ele>
        <time>2018-02-18T10:17:51Z</time>
      </trkpt>
      <trkpt lat="45.85706" lon="4.70306">
        <ele>197</ele>
        <time>2018-02-18T10:17:52Z</time>
      </trkpt>
      <trkpt lat="45.85705" lon="4.70298">
        <ele>197</ele>
        <time>2018-02-18T10:17:53Z</time>
      </trkpt>
      <trkpt lat="45.85704" lon="4.7029">
        <ele>197</ele>
        <time>2018-02-18T10:17:54Z</time>
      </trkpt>
      <trkpt lat="45.85703" lon="4.70282">
        <ele>197</ele>
        <time>2018-02-18T10:17:55Z</time>
      </trkpt>
      <trkpt lat="45.85702" lon="4.70274">
        <ele>197</ele>
        <time>2018-02-18T10:17:56Z</time>
      </trkpt>
      <trkpt lat="45.85701" lon="4.70265">
        <ele>197</ele>
        <time>2018-02-18T10:17:57Z</time>
      </trkpt>
      <trkpt lat="45.85702" lon="4.70257">
        <ele>197</ele>
        <time>2018-02-18T10:17:58Z</time>
      </trkpt>
      <trkpt lat="45.85701" lon="4.7025">
        <ele>197</ele>
        <time>2018-02-18T10:17:59Z</time>
      </trkpt>
      <trkpt lat="45.857" lon="4.70241">
        <ele>197</ele>
        <time>2018-02-18T10:18:00Z</time>
      </trkpt>
      <trkpt lat="45.85697" lon="4.70232">
        <ele>197</ele>
        <time>2018-02-18T10:18:01Z</time>
      </trkpt>
      <trkpt lat="45.85697" lon="4.70225">
        <ele>197</ele>
        <time>2018-02-18T10:18:02Z</time>
      </trkpt>
      <trkpt lat="45.85694" lon="4.70213">
        <ele>197</ele>
        <time>2018-02-18T10:18:04Z</time>
      </trkpt>
      <trkpt lat="45.85694" lon="4.70206">
        <ele>197</ele>
        <time>2018-02-18T10:18:05Z</time>
      </trkpt>
      <trkpt lat="45.85692" lon="4.70199">
        <ele>197</ele>
        <time>2018-02-18T10:18:06Z</time>
      </trkpt>
      <trkpt lat="45.85691" lon="4.70193">
        <ele>197</ele>
        <time>2018-02-18T10:18:07Z</time>
      </trkpt>
      <trkpt lat="45.85689" lon="4.70181">
        <ele>197</ele>
        <time>2018-02-18T10:18:09Z</time>
      </trkpt>
      <trkpt lat="45.85687" lon="4.70174">
        <ele>197</ele>
        <time>2018-02-18T10:18:10Z</time>
      </trkpt>
      <trkpt lat="45.85684" lon="4.70168">
        <ele>197</ele>
        <time>2018-02-18T10:18:11Z</time>
      </trkpt>
      <trkpt lat="45.85683" lon="4.70161">
        <ele>197</ele>
        <time>2018-02-18T10:18:12Z</time>
      </trkpt>
      <trkpt lat="45.8568" lon="4.70149">
        <ele>197</ele>
        <time>2018-02-18T10:18:14Z</time>
      </trkpt>
      <trkpt lat="45.8568" lon="4.70142">
        <ele>197</ele>
        <time>2018-02-18T10:18:15Z</time>
      </trkpt>
      <trkpt lat="45.85678" lon="4.70135">
        <ele>197</ele>
        <time>2018-02-18T10:18:16Z</time>
      </trkpt>
      <trkpt lat="45.85678" lon="4.70128">
        <ele>197</ele>
        <time>2018-02-18T10:18:17Z</time>
      </trkpt>
      <trkpt lat="45.85676" lon="4.70121">
        <ele>197</ele>
        <time>2018-02-18T10:18:18Z</time>
      </trkpt>
      <trkpt lat="45.85676" lon="4.70114">
        <ele>197</ele>
        <time>2018-02-18T10:18:19Z</time>
      </trkpt>
      <trkpt lat="45.85676" lon="4.70106">
        <ele>196</ele>
        <time>2018-02-18T10:18:20Z</time>
      </trkpt>
      <trkpt lat="45.85676" lon="4.701">
        <ele>196</ele>
        <time>2018-02-18T10:18:21Z</time>
      </trkpt>
      <trkpt lat="45.85677" lon="4.70094">
        <ele>196</ele>
        <time>2018-02-18T10:18:22Z</time>
      </trkpt>
      <trkpt lat="45.85675" lon="4.70087">
        <ele>196</ele>
        <time>2018-02-18T10:18:23Z</time>
      </trkpt>
      <trkpt lat="45.85677" lon="4.70075">
        <ele>196</ele>
        <time>2018-02-18T10:18:25Z</time>
      </trkpt>
      <trkpt lat="45.85678" lon="4.7007">
        <ele>196</ele>
        <time>2018-02-18T10:18:26Z</time>
      </trkpt>
      <trkpt lat="45.85681" lon="4.7006">
        <ele>196</ele>
        <time>2018-02-18T10:18:28Z</time>
      </trkpt>
      <trkpt lat="45.85682" lon="4.70055">
        <ele>195</ele>
        <time>2018-02-18T10:18:29Z</time>
      </trkpt>
      <trkpt lat="45.85685" lon="4.70045">
        <ele>195</ele>
        <time>2018-02-18T10:18:31Z</time>
      </trkpt>
      <trkpt lat="45.85686" lon="4.7004">
        <ele>195</ele>
        <time>2018-02-18T10:18:32Z</time>
      </trkpt>
      <trkpt lat="45.85687" lon="4.70027">
        <ele>195</ele>
        <time>2018-02-18T10:18:34Z</time>
      </trkpt>
      <trkpt lat="45.85688" lon="4.7002">
        <ele>195</ele>
        <time>2018-02-18T10:18:35Z</time>
      </trkpt>
      <trkpt lat="45.85689" lon="4.70014">
        <ele>195</ele>
        <time>2018-02-18T10:18:36Z</time>
      </trkpt>
      <trkpt lat="45.8569" lon="4.70007">
        <ele>195</ele>
        <time>2018-02-18T10:18:37Z</time>
      </trkpt>
      <trkpt lat="45.8569" lon="4.69999">
        <ele>195</ele>
        <time>2018-02-18T10:18:38Z</time>
      </trkpt>
      <trkpt lat="45.85691" lon="4.69992">
        <ele>195</ele>
        <time>2018-02-18T10:18:39Z</time>
      </trkpt>
      <trkpt lat="45.8569" lon="4.69984">
        <ele>195</ele>
        <time>2018-02-18T10:18:40Z</time>
      </trkpt>
      <trkpt lat="45.85689" lon="4.69977">
        <ele>195</ele>
        <time>2018-02-18T10:18:41Z</time>
      </trkpt>
      <trkpt lat="45.85688" lon="4.6997">
        <ele>195</ele>
        <time>2018-02-18T10:18:42Z</time>
      </trkpt>
      <trkpt lat="45.85687" lon="4.69963">
        <ele>195</ele>
        <time>2018-02-18T10:18:43Z</time>
      </trkpt>
      <trkpt lat="45.85686" lon="4.69956">
        <ele>195</ele>
        <time>2018-02-18T10:18:44Z</time>
      </trkpt>
      <trkpt lat="45.85684" lon="4.6995">
        <ele>195</ele>
        <time>2018-02-18T10:18:45Z</time>
      </trkpt>
      <trkpt lat="45.85683" lon="4.69943">
        <ele>195</ele>
        <time>2018-02-18T10:18:46Z</time>
      </trkpt>
      <trkpt lat="45.8568" lon="4.69936">
        <ele>195</ele>
        <time>2018-02-18T10:18:47Z</time>
      </trkpt>
      <trkpt lat="45.85678" lon="4.69929">
        <ele>195</ele>
        <time>2018-02-18T10:18:48Z</time>
      </trkpt>
      <trkpt lat="45.85677" lon="4.69922">
        <ele>195</ele>
        <time>2018-02-18T10:18:49Z</time>
      </trkpt>
      <trkpt lat="45.85676" lon="4.69915">
        <ele>195</ele>
        <time>2018-02-18T10:18:50Z</time>
      </trkpt>
      <trkpt lat="45.85675" lon="4.69909">
        <ele>195</ele>
        <time>2018-02-18T10:18:51Z</time>
      </trkpt>
      <trkpt lat="45.85674" lon="4.69902">
        <ele>195</ele>
        <time>2018-02-18T10:18:52Z</time>
      </trkpt>
      <trkpt lat="45.85672" lon="4.69895">
        <ele>195</ele>
        <time>2018-02-18T10:18:53Z</time>
      </trkpt>
      <trkpt lat="45.85671" lon="4.69887">
        <ele>195</ele>
        <time>2018-02-18T10:18:54Z</time>
      </trkpt>
      <trkpt lat="45.8567" lon="4.69879">
        <ele>195</ele>
        <time>2018-02-18T10:18:55Z</time>
      </trkpt>
      <trkpt lat="45.85669" lon="4.69872">
        <ele>195</ele>
        <time>2018-02-18T10:18:56Z</time>
      </trkpt>
      <trkpt lat="45.85666" lon="4.69864">
        <ele>195</ele>
        <time>2018-02-18T10:18:57Z</time>
      </trkpt>
      <trkpt lat="45.85666" lon="4.69857">
        <ele>195</ele>
        <time>2018-02-18T10:18:58Z</time>
      </trkpt>
      <trkpt lat="45.85666" lon="4.69851">
        <ele>195</ele>
        <time>2018-02-18T10:18:59Z</time>
      </trkpt>
      <trkpt lat="45.85665" lon="4.69843">
        <ele>195</ele>
        <time>2018-02-18T10:19:00Z</time>
      </trkpt>
      <trkpt lat="45.85664" lon="4.69836">
        <ele>195</ele>
        <time>2018-02-18T10:19:01Z</time>
      </trkpt>
      <trkpt lat="45.85663" lon="4.69829">
        <ele>195</ele>
        <time>2018-02-18T10:19:02Z</time>
      </trkpt>
      <trkpt lat="45.85663" lon="4.69823">
        <ele>195</ele>
        <time>2018-02-18T10:19:03Z</time>
      </trkpt>
      <trkpt lat="45.85661" lon="4.69815">
        <ele>195</ele>
        <time>2018-02-18T10:19:04Z</time>
      </trkpt>
      <trkpt lat="45.85661" lon="4.69809">
        <ele>195</ele>
        <time>2018-02-18T10:19:05Z</time>
      </trkpt>
      <trkpt lat="45.85659" lon="4.69801">
        <ele>195</ele>
        <time>2018-02-18T10:19:06Z</time>
      </trkpt>
      <trkpt lat="45.85659" lon="4.69794">
        <ele>195</ele>
        <time>2018-02-18T10:19:07Z</time>
      </trkpt>
      <trkpt lat="45.85658" lon="4.69781">
        <ele>195</ele>
        <time>2018-02-18T10:19:09Z</time>
      </trkpt>
      <trkpt lat="45.85658" lon="4.69775">
        <ele>195</ele>
        <time>2018-02-18T10:19:10Z</time>
      </trkpt>
      <trkpt lat="45.85657" lon="4.69763">
        <ele>195</ele>
        <time>2018-02-18T10:19:12Z</time>
      </trkpt>
      <trkpt lat="45.85656" lon="4.69756">
        <ele>195</ele>
        <time>2018-02-18T10:19:13Z</time>
      </trkpt>
      <trkpt lat="45.85655" lon="4.6975">
        <ele>195</ele>
        <time>2018-02-18T10:19:14Z</time>
      </trkpt>
      <trkpt lat="45.85654" lon="4.69743">
        <ele>195</ele>
        <time>2018-02-18T10:19:15Z</time>
      </trkpt>
      <trkpt lat="45.85653" lon="4.69731">
        <ele>195</ele>
        <time>2018-02-18T10:19:17Z</time>
      </trkpt>
      <trkpt lat="45.85653" lon="4.69724">
        <ele>195</ele>
        <time>2018-02-18T10:19:18Z</time>
      </trkpt>
      <trkpt lat="45.85652" lon="4.69711">
        <ele>196</ele>
        <time>2018-02-18T10:19:20Z</time>
      </trkpt>
      <trkpt lat="45.85651" lon="4.69705">
        <ele>196</ele>
        <time>2018-02-18T10:19:21Z</time>
      </trkpt>
      <trkpt lat="45.8565" lon="4.69697">
        <ele>196</ele>
        <time>2018-02-18T10:19:22Z</time>
      </trkpt>
      <trkpt lat="45.85649" lon="4.6969">
        <ele>196</ele>
        <time>2018-02-18T10:19:23Z</time>
      </trkpt>
      <trkpt lat="45.85649" lon="4.69683">
        <ele>196</ele>
        <time>2018-02-18T10:19:24Z</time>
      </trkpt>
      <trkpt lat="45.85648" lon="4.69677">
        <ele>196</ele>
        <time>2018-02-18T10:19:25Z</time>
      </trkpt>
      <trkpt lat="45.85648" lon="4.69671">
        <ele>196</ele>
        <time>2018-02-18T10:19:26Z</time>
      </trkpt>
      <trkpt lat="45.85647" lon="4.69664">
        <ele>197</ele>
        <time>2018-02-18T10:19:27Z</time>
      </trkpt>
      <trkpt lat="45.85647" lon="4.69651">
        <ele>197</ele>
        <time>2018-02-18T10:19:29Z</time>
      </trkpt>
      <trkpt lat="45.85646" lon="4.69644">
        <ele>197</ele>
        <time>2018-02-18T10:19:30Z</time>
      </trkpt>
      <trkpt lat="45.85645" lon="4.69638">
        <ele>197</ele>
        <time>2018-02-18T10:19:31Z</time>
      </trkpt>
      <trkpt lat="45.85644" lon="4.69631">
        <ele>197</ele>
        <time>2018-02-18T10:19:32Z</time>
      </trkpt>
      <trkpt lat="45.85644" lon="4.69625">
        <ele>197</ele>
        <time>2018-02-18T10:19:33Z</time>
      </trkpt>
      <trkpt lat="45.85643" lon="4.69618">
        <ele>197</ele>
        <time>2018-02-18T10:19:34Z</time>
      </trkpt>
      <trkpt lat="45.85642" lon="4.69611">
        <ele>197</ele>
        <time>2018-02-18T10:19:35Z</time>
      </trkpt>
      <trkpt lat="45.85641" lon="4.69604">
        <ele>197</ele>
        <time>2018-02-18T10:19:36Z</time>
      </trkpt>
      <trkpt lat="45.85641" lon="4.69597">
        <ele>197</ele>
        <time>2018-02-18T10:19:37Z</time>
      </trkpt>
      <trkpt lat="45.8564" lon="4.69591">
        <ele>197</ele>
        <time>2018-02-18T10:19:38Z</time>
      </trkpt>
      <trkpt lat="45.8564" lon="4.69584">
        <ele>197</ele>
        <time>2018-02-18T10:19:39Z</time>
      </trkpt>
      <trkpt lat="45.85639" lon="4.69577">
        <ele>198</ele>
        <time>2018-02-18T10:19:40Z</time>
      </trkpt>
      <trkpt lat="45.85638" lon="4.6957">
        <ele>198</ele>
        <time>2018-02-18T10:19:41Z</time>
      </trkpt>
      <trkpt lat="45.85638" lon="4.69563">
        <ele>198</ele>
        <time>2018-02-18T10:19:42Z</time>
      </trkpt>
      <trkpt lat="45.85637" lon="4.69556">
        <ele>198</ele>
        <time>2018-02-18T10:19:43Z</time>
      </trkpt>
      <trkpt lat="45.85636" lon="4.6955">
        <ele>198</ele>
        <time>2018-02-18T10:19:44Z</time>
      </trkpt>
      <trkpt lat="45.85635" lon="4.69537">
        <ele>198</ele>
        <time>2018-02-18T10:19:46Z</time>
      </trkpt>
      <trkpt lat="45.85634" lon="4.69531">
        <ele>198</ele>
        <time>2018-02-18T10:19:47Z</time>
      </trkpt>
      <trkpt lat="45.85632" lon="4.69519">
        <ele>198</ele>
        <time>2018-02-18T10:19:49Z</time>
      </trkpt>
      <trkpt lat="45.85631" lon="4.69513">
        <ele>198</ele>
        <time>2018-02-18T10:19:50Z</time>
      </trkpt>
      <trkpt lat="45.8563" lon="4.69505">
        <ele>198</ele>
        <time>2018-02-18T10:19:51Z</time>
      </trkpt>
      <trkpt lat="45.85629" lon="4.69498">
        <ele>198</ele>
        <time>2018-02-18T10:19:52Z</time>
      </trkpt>
      <trkpt lat="45.8563" lon="4.69491">
        <ele>198</ele>
        <time>2018-02-18T10:19:53Z</time>
      </trkpt>
      <trkpt lat="45.8563" lon="4.69485">
        <ele>198</ele>
        <time>2018-02-18T10:19:54Z</time>
      </trkpt>
      <trkpt lat="45.8563" lon="4.69477">
        <ele>198</ele>
        <time>2018-02-18T10:19:55Z</time>
      </trkpt>
      <trkpt lat="45.8563" lon="4.69471">
        <ele>198</ele>
        <time>2018-02-18T10:19:56Z</time>
      </trkpt>
      <trkpt lat="45.85629" lon="4.69459">
        <ele>198</ele>
        <time>2018-02-18T10:19:58Z</time>
      </trkpt>
      <trkpt lat="45.85628" lon="4.69453">
        <ele>198</ele>
        <time>2018-02-18T10:19:59Z</time>
      </trkpt>
      <trkpt lat="45.85627" lon="4.69445">
        <ele>198</ele>
        <time>2018-02-18T10:20:00Z</time>
      </trkpt>
      <trkpt lat="45.85628" lon="4.69438">
        <ele>198</ele>
        <time>2018-02-18T10:20:01Z</time>
      </trkpt>
      <trkpt lat="45.85627" lon="4.69432">
        <ele>198</ele>
        <time>2018-02-18T10:20:02Z</time>
      </trkpt>
      <trkpt lat="45.85626" lon="4.69425">
        <ele>198</ele>
        <time>2018-02-18T10:20:03Z</time>
      </trkpt>
      <trkpt lat="45.85625" lon="4.69418">
        <ele>198</ele>
        <time>2018-02-18T10:20:04Z</time>
      </trkpt>
      <trkpt lat="45.85625" lon="4.69412">
        <ele>198</ele>
        <time>2018-02-18T10:20:05Z</time>
      </trkpt>
      <trkpt lat="45.85624" lon="4.69405">
        <ele>198</ele>
        <time>2018-02-18T10:20:06Z</time>
      </trkpt>
      <trkpt lat="45.85623" lon="4.69398">
        <ele>198</ele>
        <time>2018-02-18T10:20:07Z</time>
      </trkpt>
      <trkpt lat="45.85623" lon="4.69392">
        <ele>198</ele>
        <time>2018-02-18T10:20:08Z</time>
      </trkpt>
      <trkpt lat="45.85622" lon="4.69384">
        <ele>198</ele>
        <time>2018-02-18T10:20:09Z</time>
      </trkpt>
      <trkpt lat="45.85622" lon="4.69377">
        <ele>198</ele>
        <time>2018-02-18T10:20:10Z</time>
      </trkpt>
      <trkpt lat="45.85621" lon="4.6937">
        <ele>198</ele>
        <time>2018-02-18T10:20:11Z</time>
      </trkpt>
      <trkpt lat="45.85621" lon="4.69364">
        <ele>198</ele>
        <time>2018-02-18T10:20:12Z</time>
      </trkpt>
      <trkpt lat="45.8562" lon="4.69357">
        <ele>198</ele>
        <time>2018-02-18T10:20:13Z</time>
      </trkpt>
      <trkpt lat="45.85618" lon="4.69345">
        <ele>198</ele>
        <time>2018-02-18T10:20:15Z</time>
      </trkpt>
      <trkpt lat="45.85618" lon="4.69338">
        <ele>198</ele>
        <time>2018-02-18T10:20:16Z</time>
      </trkpt>
      <trkpt lat="45.85617" lon="4.69331">
        <ele>198</ele>
        <time>2018-02-18T10:20:17Z</time>
      </trkpt>
      <trkpt lat="45.85617" lon="4.69325">
        <ele>198</ele>
        <time>2018-02-18T10:20:18Z</time>
      </trkpt>
      <trkpt lat="45.85616" lon="4.69318">
        <ele>198</ele>
        <time>2018-02-18T10:20:19Z</time>
      </trkpt>
      <trkpt lat="45.85615" lon="4.69311">
        <ele>198</ele>
        <time>2018-02-18T10:20:20Z</time>
      </trkpt>
      <trkpt lat="45.85614" lon="4.69304">
        <ele>198</ele>
        <time>2018-02-18T10:20:21Z</time>
      </trkpt>
      <trkpt lat="45.85613" lon="4.69297">
        <ele>198</ele>
        <time>2018-02-18T10:20:22Z</time>
      </trkpt>
      <trkpt lat="45.85613" lon="4.6929">
        <ele>198</ele>
        <time>2018-02-18T10:20:23Z</time>
      </trkpt>
      <trkpt lat="45.85613" lon="4.69283">
        <ele>198</ele>
        <time>2018-02-18T10:20:24Z</time>
      </trkpt>
      <trkpt lat="45.85613" lon="4.69276">
        <ele>198</ele>
        <time>2018-02-18T10:20:25Z</time>
      </trkpt>
      <trkpt lat="45.85614" lon="4.69268">
        <ele>198</ele>
        <time>2018-02-18T10:20:26Z</time>
      </trkpt>
      <trkpt lat="45.85614" lon="4.69261">
        <ele>198</ele>
        <time>2018-02-18T10:20:27Z</time>
      </trkpt>
      <trkpt lat="45.85613" lon="4.69254">
        <ele>198</ele>
        <time>2018-02-18T10:20:28Z</time>
      </trkpt>
      <trkpt lat="45.85611" lon="4.69247">
        <ele>199</ele>
        <time>2018-02-18T10:20:29Z</time>
      </trkpt>
      <trkpt lat="45.8561" lon="4.6924">
        <ele>199</ele>
        <time>2018-02-18T10:20:30Z</time>
      </trkpt>
      <trkpt lat="45.85608" lon="4.69233">
        <ele>199</ele>
        <time>2018-02-18T10:20:31Z</time>
      </trkpt>
      <trkpt lat="45.85606" lon="4.69225">
        <ele>199</ele>
        <time>2018-02-18T10:20:32Z</time>
      </trkpt>
      <trkpt lat="45.85606" lon="4.69217">
        <ele>199</ele>
        <time>2018-02-18T10:20:33Z</time>
      </trkpt>
      <trkpt lat="45.85605" lon="4.6921">
        <ele>199</ele>
        <time>2018-02-18T10:20:34Z</time>
      </trkpt>
      <trkpt lat="45.85603" lon="4.692">
        <ele>199</ele>
        <time>2018-02-18T10:20:35Z</time>
      </trkpt>
      <trkpt lat="45.85603" lon="4.69193">
        <ele>199</ele>
        <time>2018-02-18T10:20:36Z</time>
      </trkpt>
      <trkpt lat="45.85603" lon="4.69185">
        <ele>199</ele>
        <time>2018-02-18T10:20:37Z</time>
      </trkpt>
      <trkpt lat="45.85602" lon="4.69177">
        <ele>199</ele>
        <time>2018-02-18T10:20:38Z</time>
      </trkpt>
      <trkpt lat="45.85601" lon="4.6917">
        <ele>199</ele>
        <time>2018-02-18T10:20:39Z</time>
      </trkpt>
      <trkpt lat="45.85601" lon="4.69162">
        <ele>199</ele>
        <time>2018-02-18T10:20:40Z</time>
      </trkpt>
      <trkpt lat="45.856" lon="4.69155">
        <ele>199</ele>
        <time>2018-02-18T10:20:41Z</time>
      </trkpt>
      <trkpt lat="45.856" lon="4.69148">
        <ele>199</ele>
        <time>2018-02-18T10:20:42Z</time>
      </trkpt>
      <trkpt lat="45.856" lon="4.69142">
        <ele>199</ele>
        <time>2018-02-18T10:20:43Z</time>
      </trkpt>
      <trkpt lat="45.85598" lon="4.69132">
        <ele>198</ele>
        <time>2018-02-18T10:20:44Z</time>
      </trkpt>
      <trkpt lat="45.85597" lon="4.69126">
        <ele>198</ele>
        <time>2018-02-18T10:20:45Z</time>
      </trkpt>
      <trkpt lat="45.85596" lon="4.69118">
        <ele>198</ele>
        <time>2018-02-18T10:20:46Z</time>
      </trkpt>
      <trkpt lat="45.85596" lon="4.69111">
        <ele>199</ele>
        <time>2018-02-18T10:20:47Z</time>
      </trkpt>
      <trkpt lat="45.85595" lon="4.69104">
        <ele>199</ele>
        <time>2018-02-18T10:20:48Z</time>
      </trkpt>
      <trkpt lat="45.85594" lon="4.69096">
        <ele>199</ele>
        <time>2018-02-18T10:20:49Z</time>
      </trkpt>
      <trkpt lat="45.85594" lon="4.69089">
        <ele>199</ele>
        <time>2018-02-18T10:20:50Z</time>
      </trkpt>
      <trkpt lat="45.85593" lon="4.6908">
        <ele>199</ele>
        <time>2018-02-18T10:20:51Z</time>
      </trkpt>
      <trkpt lat="45.85591" lon="4.69073">
        <ele>199</ele>
        <time>2018-02-18T10:20:52Z</time>
      </trkpt>
      <trkpt lat="45.85591" lon="4.69065">
        <ele>199</ele>
        <time>2018-02-18T10:20:53Z</time>
      </trkpt>
      <trkpt lat="45.8559" lon="4.69058">
        <ele>199</ele>
        <time>2018-02-18T10:20:54Z</time>
      </trkpt>
      <trkpt lat="45.85589" lon="4.69051">
        <ele>199</ele>
        <time>2018-02-18T10:20:55Z</time>
      </trkpt>
      <trkpt lat="45.85589" lon="4.69045">
        <ele>199</ele>
        <time>2018-02-18T10:20:56Z</time>
      </trkpt>
      <trkpt lat="45.85589" lon="4.69037">
        <ele>199</ele>
        <time>2018-02-18T10:20:57Z</time>
      </trkpt>
      <trkpt lat="45.85589" lon="4.6903">
        <ele>199</ele>
        <time>2018-02-18T10:20:58Z</time>
      </trkpt>
      <trkpt lat="45.85588" lon="4.69023">
        <ele>199</ele>
        <time>2018-02-18T10:20:59Z</time>
      </trkpt>
      <trkpt lat="45.85587" lon="4.69015">
        <ele>199</ele>
        <time>2018-02-18T10:21:00Z</time>
      </trkpt>
      <trkpt lat="45.85586" lon="4.69008">
        <ele>200</ele>
        <time>2018-02-18T10:21:01Z</time>
      </trkpt>
      <trkpt lat="45.85585" lon="4.69">
        <ele>200</ele>
        <time>2018-02-18T10:21:02Z</time>
      </trkpt>
      <trkpt lat="45.85586" lon="4.68991">
        <ele>200</ele>
        <time>2018-02-18T10:21:03Z</time>
      </trkpt>
      <trkpt lat="45.85586" lon="4.68983">
        <ele>200</ele>
        <time>2018-02-18T10:21:04Z</time>
      </trkpt>
      <trkpt lat="45.85585" lon="4.68975">
        <ele>200</ele>
        <time>2018-02-18T10:21:05Z</time>
      </trkpt>
      <trkpt lat="45.85585" lon="4.68967">
        <ele>200</ele>
        <time>2018-02-18T10:21:06Z</time>
      </trkpt>
      <trkpt lat="45.85584" lon="4.68959">
        <ele>200</ele>
        <time>2018-02-18T10:21:07Z</time>
      </trkpt>
      <trkpt lat="45.85583" lon="4.68951">
        <ele>200</ele>
        <time>2018-02-18T10:21:08Z</time>
      </trkpt>
      <trkpt lat="45.85582" lon="4.68944">
        <ele>200</ele>
        <time>2018-02-18T10:21:09Z</time>
      </trkpt>
      <trkpt lat="45.85581" lon="4.68937">
        <ele>200</ele>
        <time>2018-02-18T10:21:10Z</time>
      </trkpt>
      <trkpt lat="45.8558" lon="4.68928">
        <ele>200</ele>
        <time>2018-02-18T10:21:11Z</time>
      </trkpt>
      <trkpt lat="45.85579" lon="4.68922">
        <ele>200</ele>
        <time>2018-02-18T10:21:12Z</time>
      </trkpt>
      <trkpt lat="45.85578" lon="4.68915">
        <ele>200</ele>
        <time>2018-02-18T10:21:13Z</time>
      </trkpt>
      <trkpt lat="45.85577" lon="4.68908">
        <ele>200</ele>
        <time>2018-02-18T10:21:14Z</time>
      </trkpt>
      <trkpt lat="45.85577" lon="4.689">
        <ele>200</ele>
        <time>2018-02-18T10:21:15Z</time>
      </trkpt>
      <trkpt lat="45.85576" lon="4.68893">
        <ele>200</ele>
        <time>2018-02-18T10:21:16Z</time>
      </trkpt>
      <trkpt lat="45.85574" lon="4.68885">
        <ele>200</ele>
        <time>2018-02-18T10:21:17Z</time>
      </trkpt>
      <trkpt lat="45.85574" lon="4.68878">
        <ele>200</ele>
        <time>2018-02-18T10:21:18Z</time>
      </trkpt>
      <trkpt lat="45.85573" lon="4.6887">
        <ele>200</ele>
        <time>2018-02-18T10:21:19Z</time>
      </trkpt>
      <trkpt lat="45.85573" lon="4.68863">
        <ele>200</ele>
        <time>2018-02-18T10:21:20Z</time>
      </trkpt>
      <trkpt lat="45.85572" lon="4.68856">
        <ele>200</ele>
        <time>2018-02-18T10:21:21Z</time>
      </trkpt>
      <trkpt lat="45.85571" lon="4.68849">
        <ele>200</ele>
        <time>2018-02-18T10:21:22Z</time>
      </trkpt>
      <trkpt lat="45.8557" lon="4.68842">
        <ele>200</ele>
        <time>2018-02-18T10:21:23Z</time>
      </trkpt>
      <trkpt lat="45.85569" lon="4.68834">
        <ele>200</ele>
        <time>2018-02-18T10:21:24Z</time>
      </trkpt>
      <trkpt lat="45.85569" lon="4.68827">
        <ele>200</ele>
        <time>2018-02-18T10:21:25Z</time>
      </trkpt>
      <trkpt lat="45.85568" lon="4.6882">
        <ele>200</ele>
        <time>2018-02-18T10:21:26Z</time>
      </trkpt>
      <trkpt lat="45.85567" lon="4.68813">
        <ele>200</ele>
        <time>2018-02-18T10:21:27Z</time>
      </trkpt>
      <trkpt lat="45.85566" lon="4.68805">
        <ele>200</ele>
        <time>2018-02-18T10:21:28Z</time>
      </trkpt>
      <trkpt lat="45.85566" lon="4.68798">
        <ele>200</ele>
        <time>2018-02-18T10:21:29Z</time>
      </trkpt>
      <trkpt lat="45.85565" lon="4.68791">
        <ele>200</ele>
        <time>2018-02-18T10:21:30Z</time>
      </trkpt>
      <trkpt lat="45.85565" lon="4.68784">
        <ele>200</ele>
        <time>2018-02-18T10:21:31Z</time>
      </trkpt>
      <trkpt lat="45.85565" lon="4.68777">
        <ele>200</ele>
        <time>2018-02-18T10:21:32Z</time>
      </trkpt>
      <trkpt lat="45.85565" lon="4.6877">
        <ele>200</ele>
        <time>2018-02-18T10:21:33Z</time>
      </trkpt>
      <trkpt lat="45.85564" lon="4.68762">
        <ele>200</ele>
        <time>2018-02-18T10:21:34Z</time>
      </trkpt>
      <trkpt lat="45.85563" lon="4.68754">
        <ele>200</ele>
        <time>2018-02-18T10:21:35Z</time>
      </trkpt>
      <trkpt lat="45.85562" lon="4.68746">
        <ele>200</ele>
        <time>2018-02-18T10:21:36Z</time>
      </trkpt>
      <trkpt lat="45.85562" lon="4.68739">
        <ele>200</ele>
        <time>2018-02-18T10:21:37Z</time>
      </trkpt>
      <trkpt lat="45.85562" lon="4.6873">
        <ele>200</ele>
        <time>2018-02-18T10:21:38Z</time>
      </trkpt>
      <trkpt lat="45.85561" lon="4.68723">
        <ele>200</ele>
        <time>2018-02-18T10:21:39Z</time>
      </trkpt>
      <trkpt lat="45.8556" lon="4.68715">
        <ele>200</ele>
        <time>2018-02-18T10:21:40Z</time>
      </trkpt>
      <trkpt lat="45.85559" lon="4.68708">
        <ele>200</ele>
        <time>2018-02-18T10:21:41Z</time>
      </trkpt>
      <trkpt lat="45.85558" lon="4.687">
        <ele>200</ele>
        <time>2018-02-18T10:21:42Z</time>
      </trkpt>
      <trkpt lat="45.85557" lon="4.6869">
        <ele>200</ele>
        <time>2018-02-18T10:21:43Z</time>
      </trkpt>
      <trkpt lat="45.85557" lon="4.68682">
        <ele>200</ele>
        <time>2018-02-18T10:21:44Z</time>
      </trkpt>
      <trkpt lat="45.85556" lon="4.68675">
        <ele>200</ele>
        <time>2018-02-18T10:21:45Z</time>
      </trkpt>
      <trkpt lat="45.85555" lon="4.68667">
        <ele>200</ele>
        <time>2018-02-18T10:21:46Z</time>
      </trkpt>
      <trkpt lat="45.85555" lon="4.68659">
        <ele>200</ele>
        <time>2018-02-18T10:21:47Z</time>
      </trkpt>
      <trkpt lat="45.85555" lon="4.68651">
        <ele>201</ele>
        <time>2018-02-18T10:21:48Z</time>
      </trkpt>
      <trkpt lat="45.85554" lon="4.68643">
        <ele>201</ele>
        <time>2018-02-18T10:21:49Z</time>
      </trkpt>
      <trkpt lat="45.85553" lon="4.68636">
        <ele>201</ele>
        <time>2018-02-18T10:21:50Z</time>
      </trkpt>
      <trkpt lat="45.85553" lon="4.68629">
        <ele>201</ele>
        <time>2018-02-18T10:21:51Z</time>
      </trkpt>
      <trkpt lat="45.85552" lon="4.68622">
        <ele>201</ele>
        <time>2018-02-18T10:21:52Z</time>
      </trkpt>
      <trkpt lat="45.85551" lon="4.68615">
        <ele>201</ele>
        <time>2018-02-18T10:21:53Z</time>
      </trkpt>
      <trkpt lat="45.85551" lon="4.68608">
        <ele>201</ele>
        <time>2018-02-18T10:21:54Z</time>
      </trkpt>
      <trkpt lat="45.85549" lon="4.686">
        <ele>201</ele>
        <time>2018-02-18T10:21:55Z</time>
      </trkpt>
      <trkpt lat="45.85548" lon="4.68593">
        <ele>201</ele>
        <time>2018-02-18T10:21:56Z</time>
      </trkpt>
      <trkpt lat="45.85547" lon="4.68586">
        <ele>201</ele>
        <time>2018-02-18T10:21:57Z</time>
      </trkpt>
      <trkpt lat="45.85546" lon="4.68578">
        <ele>201</ele>
        <time>2018-02-18T10:21:58Z</time>
      </trkpt>
      <trkpt lat="45.85545" lon="4.68571">
        <ele>201</ele>
        <time>2018-02-18T10:21:59Z</time>
      </trkpt>
      <trkpt lat="45.85544" lon="4.68564">
        <ele>201</ele>
        <time>2018-02-18T10:22:00Z</time>
      </trkpt>
      <trkpt lat="45.85544" lon="4.68557">
        <ele>201</ele>
        <time>2018-02-18T10:22:01Z</time>
      </trkpt>
      <trkpt lat="45.85543" lon="4.68549">
        <ele>201</ele>
        <time>2018-02-18T10:22:02Z</time>
      </trkpt>
      <trkpt lat="45.85542" lon="4.68542">
        <ele>201</ele>
        <time>2018-02-18T10:22:03Z</time>
      </trkpt>
      <trkpt lat="45.85542" lon="4.68535">
        <ele>201</ele>
        <time>2018-02-18T10:22:04Z</time>
      </trkpt>
      <trkpt lat="45.85541" lon="4.68527">
        <ele>201</ele>
        <time>2018-02-18T10:22:05Z</time>
      </trkpt>
      <trkpt lat="45.8554" lon="4.6852">
        <ele>201</ele>
        <time>2018-02-18T10:22:06Z</time>
      </trkpt>
      <trkpt lat="45.8554" lon="4.68514">
        <ele>201</ele>
        <time>2018-02-18T10:22:07Z</time>
      </trkpt>
      <trkpt lat="45.8554" lon="4.68507">
        <ele>201</ele>
        <time>2018-02-18T10:22:08Z</time>
      </trkpt>
      <trkpt lat="45.85539" lon="4.68497">
        <ele>200</ele>
        <time>2018-02-18T10:22:10Z</time>
      </trkpt>
      <trkpt lat="45.85538" lon="4.68491">
        <ele>200</ele>
        <time>2018-02-18T10:22:11Z</time>
      </trkpt>
      <trkpt lat="45.85537" lon="4.68486">
        <ele>200</ele>
        <time>2018-02-18T10:22:12Z</time>
      </trkpt>
      <trkpt lat="45.85536" lon="4.68477">
        <ele>200</ele>
        <time>2018-02-18T10:22:13Z</time>
      </trkpt>
      <trkpt lat="45.85534" lon="4.6847">
        <ele>200</ele>
        <time>2018-02-18T10:22:14Z</time>
      </trkpt>
      <trkpt lat="45.85533" lon="4.68464">
        <ele>200</ele>
        <time>2018-02-18T10:22:15Z</time>
      </trkpt>
      <trkpt lat="45.85532" lon="4.68456">
        <ele>200</ele>
        <time>2018-02-18T10:22:16Z</time>
      </trkpt>
      <trkpt lat="45.85531" lon="4.68449">
        <ele>200</ele>
        <time>2018-02-18T10:22:17Z</time>
      </trkpt>
      <trkpt lat="45.8553" lon="4.68442">
        <ele>200</ele>
        <time>2018-02-18T10:22:18Z</time>
      </trkpt>
      <trkpt lat="45.85529" lon="4.68436">
        <ele>200</ele>
        <time>2018-02-18T10:22:19Z</time>
      </trkpt>
      <trkpt lat="45.85529" lon="4.68429">
        <ele>200</ele>
        <time>2018-02-18T10:22:20Z</time>
      </trkpt>
      <trkpt lat="45.85528" lon="4.6842">
        <ele>200</ele>
        <time>2018-02-18T10:22:21Z</time>
      </trkpt>
      <trkpt lat="45.85527" lon="4.68411">
        <ele>200</ele>
        <time>2018-02-18T10:22:22Z</time>
      </trkpt>
      <trkpt lat="45.85527" lon="4.68402">
        <ele>200</ele>
        <time>2018-02-18T10:22:23Z</time>
      </trkpt>
      <trkpt lat="45.85527" lon="4.68394">
        <ele>200</ele>
        <time>2018-02-18T10:22:24Z</time>
      </trkpt>
      <trkpt lat="45.85526" lon="4.68387">
        <ele>200</ele>
        <time>2018-02-18T10:22:25Z</time>
      </trkpt>
      <trkpt lat="45.85527" lon="4.68381">
        <ele>201</ele>
        <time>2018-02-18T10:22:26Z</time>
      </trkpt>
      <trkpt lat="45.85526" lon="4.68374">
        <ele>201</ele>
        <time>2018-02-18T10:22:27Z</time>
      </trkpt>
      <trkpt lat="45.85525" lon="4.68367">
        <ele>201</ele>
        <time>2018-02-18T10:22:28Z</time>
      </trkpt>
      <trkpt lat="45.85525" lon="4.68361">
        <ele>201</ele>
        <time>2018-02-18T10:22:29Z</time>
      </trkpt>
      <trkpt lat="45.85524" lon="4.68354">
        <ele>201</ele>
        <time>2018-02-18T10:22:30Z</time>
      </trkpt>
      <trkpt lat="45.85523" lon="4.68347">
        <ele>201</ele>
        <time>2018-02-18T10:22:31Z</time>
      </trkpt>
      <trkpt lat="45.85523" lon="4.6834">
        <ele>201</ele>
        <time>2018-02-18T10:22:32Z</time>
      </trkpt>
      <trkpt lat="45.85524" lon="4.68332">
        <ele>202</ele>
        <time>2018-02-18T10:22:33Z</time>
      </trkpt>
      <trkpt lat="45.85523" lon="4.68324">
        <ele>202</ele>
        <time>2018-02-18T10:22:34Z</time>
      </trkpt>
      <trkpt lat="45.85523" lon="4.68317">
        <ele>202</ele>
        <time>2018-02-18T10:22:35Z</time>
      </trkpt>
      <trkpt lat="45.85522" lon="4.68311">
        <ele>202</ele>
        <time>2018-02-18T10:22:36Z</time>
      </trkpt>
      <trkpt lat="45.85522" lon="4.68304">
        <ele>202</ele>
        <time>2018-02-18T10:22:37Z</time>
      </trkpt>
      <trkpt lat="45.85522" lon="4.68296">
        <ele>202</ele>
        <time>2018-02-18T10:22:38Z</time>
      </trkpt>
      <trkpt lat="45.8552" lon="4.68287">
        <ele>202</ele>
        <time>2018-02-18T10:22:39Z</time>
      </trkpt>
      <trkpt lat="45.85518" lon="4.6828">
        <ele>202</ele>
        <time>2018-02-18T10:22:40Z</time>
      </trkpt>
      <trkpt lat="45.85518" lon="4.68273">
        <ele>202</ele>
        <time>2018-02-18T10:22:41Z</time>
      </trkpt>
      <trkpt lat="45.85517" lon="4.68265">
        <ele>202</ele>
        <time>2018-02-18T10:22:42Z</time>
      </trkpt>
      <trkpt lat="45.85516" lon="4.68258">
        <ele>202</ele>
        <time>2018-02-18T10:22:43Z</time>
      </trkpt>
      <trkpt lat="45.85515" lon="4.6825">
        <ele>203</ele>
        <time>2018-02-18T10:22:44Z</time>
      </trkpt>
      <trkpt lat="45.85515" lon="4.68243">
        <ele>203</ele>
        <time>2018-02-18T10:22:45Z</time>
      </trkpt>
      <trkpt lat="45.85513" lon="4.68236">
        <ele>203</ele>
        <time>2018-02-18T10:22:46Z</time>
      </trkpt>
      <trkpt lat="45.85512" lon="4.6823">
        <ele>203</ele>
        <time>2018-02-18T10:22:47Z</time>
      </trkpt>
      <trkpt lat="45.85511" lon="4.68222">
        <ele>203</ele>
        <time>2018-02-18T10:22:48Z</time>
      </trkpt>
      <trkpt lat="45.85511" lon="4.68213">
        <ele>203</ele>
        <time>2018-02-18T10:22:49Z</time>
      </trkpt>
      <trkpt lat="45.85511" lon="4.68207">
        <ele>203</ele>
        <time>2018-02-18T10:22:50Z</time>
      </trkpt>
      <trkpt lat="45.8551" lon="4.682">
        <ele>203</ele>
        <time>2018-02-18T10:22:51Z</time>
      </trkpt>
      <trkpt lat="45.8551" lon="4.68194">
        <ele>203</ele>
        <time>2018-02-18T10:22:52Z</time>
      </trkpt>
      <trkpt lat="45.8551" lon="4.68185">
        <ele>203</ele>
        <time>2018-02-18T10:22:53Z</time>
      </trkpt>
      <trkpt lat="45.85508" lon="4.68173">
        <ele>204</ele>
        <time>2018-02-18T10:22:55Z</time>
      </trkpt>
      <trkpt lat="45.85507" lon="4.68166">
        <ele>204</ele>
        <time>2018-02-18T10:22:56Z</time>
      </trkpt>
      <trkpt lat="45.85507" lon="4.68154">
        <ele>203</ele>
        <time>2018-02-18T10:22:58Z</time>
      </trkpt>
      <trkpt lat="45.85506" lon="4.68147">
        <ele>203</ele>
        <time>2018-02-18T10:22:59Z</time>
      </trkpt>
      <trkpt lat="45.85507" lon="4.68141">
        <ele>203</ele>
        <time>2018-02-18T10:23:00Z</time>
      </trkpt>
      <trkpt lat="45.85506" lon="4.68133">
        <ele>203</ele>
        <time>2018-02-18T10:23:01Z</time>
      </trkpt>
      <trkpt lat="45.85504" lon="4.68126">
        <ele>203</ele>
        <time>2018-02-18T10:23:02Z</time>
      </trkpt>
      <trkpt lat="45.85504" lon="4.68119">
        <ele>203</ele>
        <time>2018-02-18T10:23:03Z</time>
      </trkpt>
      <trkpt lat="45.85501" lon="4.68107">
        <ele>203</ele>
        <time>2018-02-18T10:23:05Z</time>
      </trkpt>
      <trkpt lat="45.855" lon="4.68101">
        <ele>204</ele>
        <time>2018-02-18T10:23:06Z</time>
      </trkpt>
      <trkpt lat="45.85499" lon="4.68094">
        <ele>204</ele>
        <time>2018-02-18T10:23:07Z</time>
      </trkpt>
      <trkpt lat="45.855" lon="4.68087">
        <ele>204</ele>
        <time>2018-02-18T10:23:08Z</time>
      </trkpt>
      <trkpt lat="45.855" lon="4.6808">
        <ele>204</ele>
        <time>2018-02-18T10:23:09Z</time>
      </trkpt>
      <trkpt lat="45.85498" lon="4.68072">
        <ele>205</ele>
        <time>2018-02-18T10:23:10Z</time>
      </trkpt>
      <trkpt lat="45.85497" lon="4.68062">
        <ele>206</ele>
        <time>2018-02-18T10:23:11Z</time>
      </trkpt>
      <trkpt lat="45.85497" lon="4.68055">
        <ele>206</ele>
        <time>2018-02-18T10:23:12Z</time>
      </trkpt>
      <trkpt lat="45.85496" lon="4.68047">
        <ele>206</ele>
        <time>2018-02-18T10:23:13Z</time>
      </trkpt>
      <trkpt lat="45.85495" lon="4.68039">
        <ele>206</ele>
        <time>2018-02-18T10:23:14Z</time>
      </trkpt>
      <trkpt lat="45.85495" lon="4.68033">
        <ele>207</ele>
        <time>2018-02-18T10:23:15Z</time>
      </trkpt>
      <trkpt lat="45.85494" lon="4.68024">
        <ele>207</ele>
        <time>2018-02-18T10:23:16Z</time>
      </trkpt>
      <trkpt lat="45.85494" lon="4.68018">
        <ele>207</ele>
        <time>2018-02-18T10:23:17Z</time>
      </trkpt>
      <trkpt lat="45.85496" lon="4.68011">
        <ele>206</ele>
        <time>2018-02-18T10:23:18Z</time>
      </trkpt>
      <trkpt lat="45.85496" lon="4.68004">
        <ele>206</ele>
        <time>2018-02-18T10:23:19Z</time>
      </trkpt>
      <trkpt lat="45.85497" lon="4.67998">
        <ele>207</ele>
        <time>2018-02-18T10:23:20Z</time>
      </trkpt>
      <trkpt lat="45.85498" lon="4.67992">
        <ele>208</ele>
        <time>2018-02-18T10:23:21Z</time>
      </trkpt>
      <trkpt lat="45.85502" lon="4.67987">
        <ele>206</ele>
        <time>2018-02-18T10:23:22Z</time>
      </trkpt>
      <trkpt lat="45.85507" lon="4.67979">
        <ele>206</ele>
        <time>2018-02-18T10:23:24Z</time>
      </trkpt>
      <trkpt lat="45.85513" lon="4.67973">
        <ele>206</ele>
        <time>2018-02-18T10:23:25Z</time>
      </trkpt>
      <trkpt lat="45.85516" lon="4.67969">
        <ele>206</ele>
        <time>2018-02-18T10:23:26Z</time>
      </trkpt>
      <trkpt lat="45.85519" lon="4.67964">
        <ele>206</ele>
        <time>2018-02-18T10:23:27Z</time>
      </trkpt>
      <trkpt lat="45.85523" lon="4.67961">
        <ele>206</ele>
        <time>2018-02-18T10:23:28Z</time>
      </trkpt>
      <trkpt lat="45.85527" lon="4.67957">
        <ele>206</ele>
        <time>2018-02-18T10:23:29Z</time>
      </trkpt>
      <trkpt lat="45.85531" lon="4.67953">
        <ele>206</ele>
        <time>2018-02-18T10:23:30Z</time>
      </trkpt>
      <trkpt lat="45.85536" lon="4.6795">
        <ele>206</ele>
        <time>2018-02-18T10:23:31Z</time>
      </trkpt>
      <trkpt lat="45.8554" lon="4.67946">
        <ele>206</ele>
        <time>2018-02-18T10:23:32Z</time>
      </trkpt>
      <trkpt lat="45.85545" lon="4.67942">
        <ele>205</ele>
        <time>2018-02-18T10:23:33Z</time>
      </trkpt>
      <trkpt lat="45.85548" lon="4.67938">
        <ele>205</ele>
        <time>2018-02-18T10:23:34Z</time>
      </trkpt>
      <trkpt lat="45.85552" lon="4.67934">
        <ele>205</ele>
        <time>2018-02-18T10:23:35Z</time>
      </trkpt>
      <trkpt lat="45.85559" lon="4.67927">
        <ele>205</ele>
        <time>2018-02-18T10:23:37Z</time>
      </trkpt>
      <trkpt lat="45.85564" lon="4.67924">
        <ele>205</ele>
        <time>2018-02-18T10:23:38Z</time>
      </trkpt>
      <trkpt lat="45.85572" lon="4.67919">
        <ele>205</ele>
        <time>2018-02-18T10:23:40Z</time>
      </trkpt>
      <trkpt lat="45.85575" lon="4.67914">
        <ele>205</ele>
        <time>2018-02-18T10:23:41Z</time>
      </trkpt>
      <trkpt lat="45.85575" lon="4.67909">
        <ele>205</ele>
        <time>2018-02-18T10:23:42Z</time>
      </trkpt>
      <trkpt lat="45.85573" lon="4.67901">
        <ele>206</ele>
        <time>2018-02-18T10:23:43Z</time>
      </trkpt>
      <trkpt lat="45.85573" lon="4.67895">
        <ele>206</ele>
        <time>2018-02-18T10:23:44Z</time>
      </trkpt>
      <trkpt lat="45.85573" lon="4.67887">
        <ele>206</ele>
        <time>2018-02-18T10:23:45Z</time>
      </trkpt>
      <trkpt lat="45.85574" lon="4.6788">
        <ele>206</ele>
        <time>2018-02-18T10:23:46Z</time>
      </trkpt>
      <trkpt lat="45.85575" lon="4.67872">
        <ele>207</ele>
        <time>2018-02-18T10:23:47Z</time>
      </trkpt>
      <trkpt lat="45.85575" lon="4.67865">
        <ele>207</ele>
        <time>2018-02-18T10:23:48Z</time>
      </trkpt>
      <trkpt lat="45.85576" lon="4.67859">
        <ele>206</ele>
        <time>2018-02-18T10:23:49Z</time>
      </trkpt>
      <trkpt lat="45.85575" lon="4.6785">
        <ele>206</ele>
        <time>2018-02-18T10:23:50Z</time>
      </trkpt>
      <trkpt lat="45.85576" lon="4.67841">
        <ele>206</ele>
        <time>2018-02-18T10:23:51Z</time>
      </trkpt>
      <trkpt lat="45.85578" lon="4.67835">
        <ele>206</ele>
        <time>2018-02-18T10:23:52Z</time>
      </trkpt>
      <trkpt lat="45.85579" lon="4.67827">
        <ele>206</ele>
        <time>2018-02-18T10:23:53Z</time>
      </trkpt>
      <trkpt lat="45.8558" lon="4.67821">
        <ele>206</ele>
        <time>2018-02-18T10:23:54Z</time>
      </trkpt>
      <trkpt lat="45.85583" lon="4.67815">
        <ele>209</ele>
        <time>2018-02-18T10:23:55Z</time>
      </trkpt>
      <trkpt lat="45.85587" lon="4.67808">
        <ele>209</ele>
        <time>2018-02-18T10:23:56Z</time>
      </trkpt>
      <trkpt lat="45.85588" lon="4.67801">
        <ele>210</ele>
        <time>2018-02-18T10:23:57Z</time>
      </trkpt>
      <trkpt lat="45.85587" lon="4.67788">
        <ele>209</ele>
        <time>2018-02-18T10:23:58Z</time>
      </trkpt>
      <trkpt lat="45.85588" lon="4.67782">
        <ele>209</ele>
        <time>2018-02-18T10:23:59Z</time>
      </trkpt>
      <trkpt lat="45.8559" lon="4.67775">
        <ele>209</ele>
        <time>2018-02-18T10:24:00Z</time>
      </trkpt>
      <trkpt lat="45.85592" lon="4.67769">
        <ele>208</ele>
        <time>2018-02-18T10:24:01Z</time>
      </trkpt>
      <trkpt lat="45.85594" lon="4.67763">
        <ele>208</ele>
        <time>2018-02-18T10:24:02Z</time>
      </trkpt>
      <trkpt lat="45.85597" lon="4.67757">
        <ele>208</ele>
        <time>2018-02-18T10:24:03Z</time>
      </trkpt>
      <trkpt lat="45.85599" lon="4.67752">
        <ele>208</ele>
        <time>2018-02-18T10:24:04Z</time>
      </trkpt>
      <trkpt lat="45.85602" lon="4.67746">
        <ele>207</ele>
        <time>2018-02-18T10:24:05Z</time>
      </trkpt>
      <trkpt lat="45.85605" lon="4.6774">
        <ele>207</ele>
        <time>2018-02-18T10:24:06Z</time>
      </trkpt>
      <trkpt lat="45.85608" lon="4.67734">
        <ele>208</ele>
        <time>2018-02-18T10:24:07Z</time>
      </trkpt>
      <trkpt lat="45.85611" lon="4.67728">
        <ele>208</ele>
        <time>2018-02-18T10:24:08Z</time>
      </trkpt>
      <trkpt lat="45.85614" lon="4.67723">
        <ele>208</ele>
        <time>2018-02-18T10:24:09Z</time>
      </trkpt>
      <trkpt lat="45.85618" lon="4.67719">
        <ele>209</ele>
        <time>2018-02-18T10:24:10Z</time>
      </trkpt>
      <trkpt lat="45.85621" lon="4.67714">
        <ele>209</ele>
        <time>2018-02-18T10:24:11Z</time>
      </trkpt>
      <trkpt lat="45.85626" lon="4.67709">
        <ele>209</ele>
        <time>2018-02-18T10:24:12Z</time>
      </trkpt>
      <trkpt lat="45.8563" lon="4.67704">
        <ele>209</ele>
        <time>2018-02-18T10:24:13Z</time>
      </trkpt>
      <trkpt lat="45.85634" lon="4.677">
        <ele>209</ele>
        <time>2018-02-18T10:24:14Z</time>
      </trkpt>
      <trkpt lat="45.85638" lon="4.67696">
        <ele>209</ele>
        <time>2018-02-18T10:24:15Z</time>
      </trkpt>
      <trkpt lat="45.85642" lon="4.67691">
        <ele>209</ele>
        <time>2018-02-18T10:24:16Z</time>
      </trkpt>
      <trkpt lat="45.85646" lon="4.67686">
        <ele>209</ele>
        <time>2018-02-18T10:24:17Z</time>
      </trkpt>
      <trkpt lat="45.85651" lon="4.67681">
        <ele>209</ele>
        <time>2018-02-18T10:24:18Z</time>
      </trkpt>
      <trkpt lat="45.85656" lon="4.67679">
        <ele>209</ele>
        <time>2018-02-18T10:24:19Z</time>
      </trkpt>
      <trkpt lat="45.85662" lon="4.67672">
        <ele>209</ele>
        <time>2018-02-18T10:24:20Z</time>
      </trkpt>
      <trkpt lat="45.8567" lon="4.67667">
        <ele>211</ele>
        <time>2018-02-18T10:24:22Z</time>
      </trkpt>
      <trkpt lat="45.85674" lon="4.67664">
        <ele>210</ele>
        <time>2018-02-18T10:24:23Z</time>
      </trkpt>
      <trkpt lat="45.85679" lon="4.67661">
        <ele>210</ele>
        <time>2018-02-18T10:24:24Z</time>
      </trkpt>
      <trkpt lat="45.85683" lon="4.67658">
        <ele>210</ele>
        <time>2018-02-18T10:24:25Z</time>
      </trkpt>
      <trkpt lat="45.85691" lon="4.67653">
        <ele>211</ele>
        <time>2018-02-18T10:24:27Z</time>
      </trkpt>
      <trkpt lat="45.85696" lon="4.6765">
        <ele>211</ele>
        <time>2018-02-18T10:24:28Z</time>
      </trkpt>
      <trkpt lat="45.85701" lon="4.67648">
        <ele>211</ele>
        <time>2018-02-18T10:24:29Z</time>
      </trkpt>
      <trkpt lat="45.85706" lon="4.67645">
        <ele>211</ele>
        <time>2018-02-18T10:24:30Z</time>
      </trkpt>
      <trkpt lat="45.8571" lon="4.67642">
        <ele>212</ele>
        <time>2018-02-18T10:24:31Z</time>
      </trkpt>
      <trkpt lat="45.85715" lon="4.67639">
        <ele>212</ele>
        <time>2018-02-18T10:24:32Z</time>
      </trkpt>
      <trkpt lat="45.8572" lon="4.67635">
        <ele>212</ele>
        <time>2018-02-18T10:24:33Z</time>
      </trkpt>
      <trkpt lat="45.85724" lon="4.67632">
        <ele>212</ele>
        <time>2018-02-18T10:24:34Z</time>
      </trkpt>
      <trkpt lat="45.85729" lon="4.67629">
        <ele>212</ele>
        <time>2018-02-18T10:24:35Z</time>
      </trkpt>
      <trkpt lat="45.85733" lon="4.67627">
        <ele>212</ele>
        <time>2018-02-18T10:24:36Z</time>
      </trkpt>
      <trkpt lat="45.85737" lon="4.67623">
        <ele>211</ele>
        <time>2018-02-18T10:24:37Z</time>
      </trkpt>
      <trkpt lat="45.85742" lon="4.67621">
        <ele>211</ele>
        <time>2018-02-18T10:24:38Z</time>
      </trkpt>
      <trkpt lat="45.85748" lon="4.67615">
        <ele>210</ele>
        <time>2018-02-18T10:24:40Z</time>
      </trkpt>
      <trkpt lat="45.85754" lon="4.67614">
        <ele>218</ele>
        <time>2018-02-18T10:24:41Z</time>
      </trkpt>
      <trkpt lat="45.85758" lon="4.67611">
        <ele>217</ele>
        <time>2018-02-18T10:24:42Z</time>
      </trkpt>
      <trkpt lat="45.85763" lon="4.67607">
        <ele>217</ele>
        <time>2018-02-18T10:24:43Z</time>
      </trkpt>
      <trkpt lat="45.85767" lon="4.67604">
        <ele>217</ele>
        <time>2018-02-18T10:24:44Z</time>
      </trkpt>
      <trkpt lat="45.85771" lon="4.67599">
        <ele>217</ele>
        <time>2018-02-18T10:24:45Z</time>
      </trkpt>
      <trkpt lat="45.85776" lon="4.67595">
        <ele>217</ele>
        <time>2018-02-18T10:24:46Z</time>
      </trkpt>
      <trkpt lat="45.85781" lon="4.6759">
        <ele>218</ele>
        <time>2018-02-18T10:24:47Z</time>
      </trkpt>
      <trkpt lat="45.85784" lon="4.67586">
        <ele>218</ele>
        <time>2018-02-18T10:24:48Z</time>
      </trkpt>
      <trkpt lat="45.85787" lon="4.6758">
        <ele>210</ele>
        <time>2018-02-18T10:24:49Z</time>
      </trkpt>
      <trkpt lat="45.85791" lon="4.67576">
        <ele>211</ele>
        <time>2018-02-18T10:24:50Z</time>
      </trkpt>
      <trkpt lat="45.85795" lon="4.67571">
        <ele>211</ele>
        <time>2018-02-18T10:24:51Z</time>
      </trkpt>
      <trkpt lat="45.858" lon="4.67563">
        <ele>211</ele>
        <time>2018-02-18T10:24:53Z</time>
      </trkpt>
      <trkpt lat="45.85803" lon="4.67557">
        <ele>211</ele>
        <time>2018-02-18T10:24:54Z</time>
      </trkpt>
      <trkpt lat="45.85806" lon="4.67555">
        <ele>211</ele>
        <time>2018-02-18T10:24:55Z</time>
      </trkpt>
      <trkpt lat="45.85811" lon="4.67548">
        <ele>211</ele>
        <time>2018-02-18T10:24:56Z</time>
      </trkpt>
      <trkpt lat="45.85816" lon="4.67538">
        <ele>210</ele>
        <time>2018-02-18T10:24:58Z</time>
      </trkpt>
      <trkpt lat="45.85818" lon="4.67533">
        <ele>210</ele>
        <time>2018-02-18T10:24:59Z</time>
      </trkpt>
      <trkpt lat="45.85822" lon="4.67525">
        <ele>209</ele>
        <time>2018-02-18T10:25:01Z</time>
      </trkpt>
      <trkpt lat="45.85822" lon="4.67517">
        <ele>208</ele>
        <time>2018-02-18T10:25:02Z</time>
      </trkpt>
      <trkpt lat="45.85822" lon="4.6751">
        <ele>208</ele>
        <time>2018-02-18T10:25:03Z</time>
      </trkpt>
      <trkpt lat="45.85826" lon="4.67504">
        <ele>207</ele>
        <time>2018-02-18T10:25:04Z</time>
      </trkpt>
      <trkpt lat="45.85828" lon="4.67498">
        <ele>206</ele>
        <time>2018-02-18T10:25:05Z</time>
      </trkpt>
      <trkpt lat="45.85833" lon="4.67493">
        <ele>205</ele>
        <time>2018-02-18T10:25:06Z</time>
      </trkpt>
      <trkpt lat="45.85837" lon="4.67489">
        <ele>209</ele>
        <time>2018-02-18T10:25:07Z</time>
      </trkpt>
      <trkpt lat="45.85839" lon="4.67484">
        <ele>210</ele>
        <time>2018-02-18T10:25:08Z</time>
      </trkpt>
      <trkpt lat="45.85841" lon="4.67476">
        <ele>211</ele>
        <time>2018-02-18T10:25:09Z</time>
      </trkpt>
      <trkpt lat="45.85844" lon="4.67469">
        <ele>212</ele>
        <time>2018-02-18T10:25:10Z</time>
      </trkpt>
      <trkpt lat="45.85845" lon="4.67457">
        <ele>212</ele>
        <time>2018-02-18T10:25:12Z</time>
      </trkpt>
      <trkpt lat="45.85849" lon="4.67451">
        <ele>212</ele>
        <time>2018-02-18T10:25:13Z</time>
      </trkpt>
      <trkpt lat="45.85854" lon="4.67445">
        <ele>212</ele>
        <time>2018-02-18T10:25:14Z</time>
      </trkpt>
      <trkpt lat="45.85856" lon="4.67438">
        <ele>211</ele>
        <time>2018-02-18T10:25:15Z</time>
      </trkpt>
      <trkpt lat="45.85858" lon="4.67428">
        <ele>211</ele>
        <time>2018-02-18T10:25:16Z</time>
      </trkpt>
      <trkpt lat="45.8586" lon="4.67421">
        <ele>211</ele>
        <time>2018-02-18T10:25:17Z</time>
      </trkpt>
      <trkpt lat="45.85864" lon="4.6741">
        <ele>208</ele>
        <time>2018-02-18T10:25:19Z</time>
      </trkpt>
      <trkpt lat="45.85869" lon="4.67402">
        <ele>209</ele>
        <time>2018-02-18T10:25:20Z</time>
      </trkpt>
      <trkpt lat="45.85869" lon="4.67396">
        <ele>209</ele>
        <time>2018-02-18T10:25:21Z</time>
      </trkpt>
      <trkpt lat="45.85869" lon="4.67387">
        <ele>209</ele>
        <time>2018-02-18T10:25:22Z</time>
      </trkpt>
      <trkpt lat="45.85869" lon="4.67379">
        <ele>209</ele>
        <time>2018-02-18T10:25:23Z</time>
      </trkpt>
      <trkpt lat="45.8587" lon="4.67371">
        <ele>209</ele>
        <time>2018-02-18T10:25:24Z</time>
      </trkpt>
      <trkpt lat="45.8587" lon="4.67362">
        <ele>208</ele>
        <time>2018-02-18T10:25:25Z</time>
      </trkpt>
      <trkpt lat="45.85871" lon="4.67352">
        <ele>208</ele>
        <time>2018-02-18T10:25:26Z</time>
      </trkpt>
      <trkpt lat="45.85873" lon="4.67345">
        <ele>208</ele>
        <time>2018-02-18T10:25:27Z</time>
      </trkpt>
      <trkpt lat="45.85873" lon="4.67336">
        <ele>208</ele>
        <time>2018-02-18T10:25:28Z</time>
      </trkpt>
      <trkpt lat="45.85873" lon="4.67328">
        <ele>206</ele>
        <time>2018-02-18T10:25:29Z</time>
      </trkpt>
      <trkpt lat="45.85872" lon="4.67321">
        <ele>205</ele>
        <time>2018-02-18T10:25:30Z</time>
      </trkpt>
      <trkpt lat="45.85872" lon="4.67314">
        <ele>205</ele>
        <time>2018-02-18T10:25:31Z</time>
      </trkpt>
      <trkpt lat="45.85874" lon="4.67307">
        <ele>205</ele>
        <time>2018-02-18T10:25:32Z</time>
      </trkpt>
      <trkpt lat="45.85876" lon="4.67294">
        <ele>205</ele>
        <time>2018-02-18T10:25:34Z</time>
      </trkpt>
      <trkpt lat="45.85877" lon="4.67287">
        <ele>205</ele>
        <time>2018-02-18T10:25:35Z</time>
      </trkpt>
      <trkpt lat="45.85878" lon="4.67281">
        <ele>205</ele>
        <time>2018-02-18T10:25:36Z</time>
      </trkpt>
      <trkpt lat="45.8588" lon="4.67271">
        <ele>205</ele>
        <time>2018-02-18T10:25:37Z</time>
      </trkpt>
      <trkpt lat="45.8588" lon="4.67263">
        <ele>205</ele>
        <time>2018-02-18T10:25:38Z</time>
      </trkpt>
      <trkpt lat="45.85881" lon="4.67255">
        <ele>205</ele>
        <time>2018-02-18T10:25:39Z</time>
      </trkpt>
      <trkpt lat="45.85881" lon="4.67246">
        <ele>204</ele>
        <time>2018-02-18T10:25:40Z</time>
      </trkpt>
      <trkpt lat="45.85882" lon="4.67237">
        <ele>204</ele>
        <time>2018-02-18T10:25:41Z</time>
      </trkpt>
      <trkpt lat="45.85883" lon="4.67228">
        <ele>204</ele>
        <time>2018-02-18T10:25:42Z</time>
      </trkpt>
      <trkpt lat="45.85884" lon="4.67222">
        <ele>204</ele>
        <time>2018-02-18T10:25:43Z</time>
      </trkpt>
      <trkpt lat="45.85886" lon="4.6721">
        <ele>204</ele>
        <time>2018-02-18T10:25:45Z</time>
      </trkpt>
      <trkpt lat="45.85886" lon="4.67201">
        <ele>204</ele>
        <time>2018-02-18T10:25:46Z</time>
      </trkpt>
      <trkpt lat="45.85888" lon="4.67194">
        <ele>204</ele>
        <time>2018-02-18T10:25:47Z</time>
      </trkpt>
      <trkpt lat="45.85887" lon="4.67185">
        <ele>204</ele>
        <time>2018-02-18T10:25:48Z</time>
      </trkpt>
      <trkpt lat="45.85887" lon="4.67175">
        <ele>204</ele>
        <time>2018-02-18T10:25:49Z</time>
      </trkpt>
      <trkpt lat="45.85887" lon="4.67168">
        <ele>204</ele>
        <time>2018-02-18T10:25:50Z</time>
      </trkpt>
      <trkpt lat="45.85888" lon="4.67162">
        <ele>204</ele>
        <time>2018-02-18T10:25:51Z</time>
      </trkpt>
      <trkpt lat="45.8589" lon="4.67155">
        <ele>204</ele>
        <time>2018-02-18T10:25:52Z</time>
      </trkpt>
      <trkpt lat="45.85892" lon="4.6715">
        <ele>204</ele>
        <time>2018-02-18T10:25:53Z</time>
      </trkpt>
      <trkpt lat="45.85892" lon="4.67142">
        <ele>204</ele>
        <time>2018-02-18T10:25:54Z</time>
      </trkpt>
      <trkpt lat="45.85892" lon="4.67134">
        <ele>204</ele>
        <time>2018-02-18T10:25:55Z</time>
      </trkpt>
      <trkpt lat="45.85893" lon="4.67126">
        <ele>204</ele>
        <time>2018-02-18T10:25:56Z</time>
      </trkpt>
      <trkpt lat="45.85894" lon="4.67119">
        <ele>204</ele>
        <time>2018-02-18T10:25:57Z</time>
      </trkpt>
      <trkpt lat="45.85895" lon="4.67112">
        <ele>204</ele>
        <time>2018-02-18T10:25:58Z</time>
      </trkpt>
      <trkpt lat="45.85896" lon="4.67104">
        <ele>204</ele>
        <time>2018-02-18T10:25:59Z</time>
      </trkpt>
      <trkpt lat="45.85897" lon="4.67096">
        <ele>204</ele>
        <time>2018-02-18T10:26:00Z</time>
      </trkpt>
      <trkpt lat="45.85898" lon="4.6709">
        <ele>204</ele>
        <time>2018-02-18T10:26:01Z</time>
      </trkpt>
      <trkpt lat="45.85899" lon="4.67084">
        <ele>204</ele>
        <time>2018-02-18T10:26:02Z</time>
      </trkpt>
      <trkpt lat="45.859" lon="4.67076">
        <ele>204</ele>
        <time>2018-02-18T10:26:03Z</time>
      </trkpt>
      <trkpt lat="45.85901" lon="4.67069">
        <ele>205</ele>
        <time>2018-02-18T10:26:04Z</time>
      </trkpt>
      <trkpt lat="45.85902" lon="4.67062">
        <ele>205</ele>
        <time>2018-02-18T10:26:05Z</time>
      </trkpt>
      <trkpt lat="45.85902" lon="4.67054">
        <ele>205</ele>
        <time>2018-02-18T10:26:06Z</time>
      </trkpt>
      <trkpt lat="45.85902" lon="4.67047">
        <ele>205</ele>
        <time>2018-02-18T10:26:07Z</time>
      </trkpt>
      <trkpt lat="45.85906" lon="4.67041">
        <ele>205</ele>
        <time>2018-02-18T10:26:08Z</time>
      </trkpt>
      <trkpt lat="45.85907" lon="4.67028">
        <ele>205</ele>
        <time>2018-02-18T10:26:10Z</time>
      </trkpt>
      <trkpt lat="45.85908" lon="4.67022">
        <ele>205</ele>
        <time>2018-02-18T10:26:11Z</time>
      </trkpt>
      <trkpt lat="45.8591" lon="4.67011">
        <ele>206</ele>
        <time>2018-02-18T10:26:13Z</time>
      </trkpt>
      <trkpt lat="45.85912" lon="4.67005">
        <ele>206</ele>
        <time>2018-02-18T10:26:14Z</time>
      </trkpt>
      <trkpt lat="45.85916" lon="4.66996">
        <ele>206</ele>
        <time>2018-02-18T10:26:16Z</time>
      </trkpt>
      <trkpt lat="45.85919" lon="4.66993">
        <ele>207</ele>
        <time>2018-02-18T10:26:17Z</time>
      </trkpt>
      <trkpt lat="45.85924" lon="4.66983">
        <ele>208</ele>
        <time>2018-02-18T10:26:19Z</time>
      </trkpt>
      <trkpt lat="45.85925" lon="4.66976">
        <ele>208</ele>
        <time>2018-02-18T10:26:20Z</time>
      </trkpt>
      <trkpt lat="45.85926" lon="4.66969">
        <ele>209</ele>
        <time>2018-02-18T10:26:21Z</time>
      </trkpt>
      <trkpt lat="45.85926" lon="4.66961">
        <ele>209</ele>
        <time>2018-02-18T10:26:22Z</time>
      </trkpt>
      <trkpt lat="45.85925" lon="4.66954">
        <ele>209</ele>
        <time>2018-02-18T10:26:23Z</time>
      </trkpt>
      <trkpt lat="45.85922" lon="4.66945">
        <ele>209</ele>
        <time>2018-02-18T10:26:24Z</time>
      </trkpt>
      <trkpt lat="45.85923" lon="4.66935">
        <ele>208</ele>
        <time>2018-02-18T10:26:25Z</time>
      </trkpt>
      <trkpt lat="45.85922" lon="4.66927">
        <ele>208</ele>
        <time>2018-02-18T10:26:26Z</time>
      </trkpt>
      <trkpt lat="45.85924" lon="4.66919">
        <ele>208</ele>
        <time>2018-02-18T10:26:27Z</time>
      </trkpt>
      <trkpt lat="45.85925" lon="4.66911">
        <ele>208</ele>
        <time>2018-02-18T10:26:28Z</time>
      </trkpt>
      <trkpt lat="45.85927" lon="4.66904">
        <ele>209</ele>
        <time>2018-02-18T10:26:29Z</time>
      </trkpt>
      <trkpt lat="45.85928" lon="4.66896">
        <ele>209</ele>
        <time>2018-02-18T10:26:30Z</time>
      </trkpt>
      <trkpt lat="45.8593" lon="4.66891">
        <ele>210</ele>
        <time>2018-02-18T10:26:31Z</time>
      </trkpt>
      <trkpt lat="45.85931" lon="4.66884">
        <ele>210</ele>
        <time>2018-02-18T10:26:32Z</time>
      </trkpt>
      <trkpt lat="45.85932" lon="4.66876">
        <ele>210</ele>
        <time>2018-02-18T10:26:33Z</time>
      </trkpt>
      <trkpt lat="45.85933" lon="4.66869">
        <ele>210</ele>
        <time>2018-02-18T10:26:34Z</time>
      </trkpt>
      <trkpt lat="45.85934" lon="4.66863">
        <ele>210</ele>
        <time>2018-02-18T10:26:35Z</time>
      </trkpt>
      <trkpt lat="45.85936" lon="4.66857">
        <ele>210</ele>
        <time>2018-02-18T10:26:36Z</time>
      </trkpt>
      <trkpt lat="45.85939" lon="4.66845">
        <ele>210</ele>
        <time>2018-02-18T10:26:38Z</time>
      </trkpt>
      <trkpt lat="45.85941" lon="4.66839">
        <ele>210</ele>
        <time>2018-02-18T10:26:39Z</time>
      </trkpt>
      <trkpt lat="45.85944" lon="4.66827">
        <ele>212</ele>
        <time>2018-02-18T10:26:41Z</time>
      </trkpt>
      <trkpt lat="45.85946" lon="4.66822">
        <ele>212</ele>
        <time>2018-02-18T10:26:42Z</time>
      </trkpt>
      <trkpt lat="45.85948" lon="4.66816">
        <ele>212</ele>
        <time>2018-02-18T10:26:43Z</time>
      </trkpt>
      <trkpt lat="45.85951" lon="4.66809">
        <ele>213</ele>
        <time>2018-02-18T10:26:44Z</time>
      </trkpt>
      <trkpt lat="45.85953" lon="4.66802">
        <ele>213</ele>
        <time>2018-02-18T10:26:45Z</time>
      </trkpt>
      <trkpt lat="45.85955" lon="4.66794">
        <ele>213</ele>
        <time>2018-02-18T10:26:46Z</time>
      </trkpt>
      <trkpt lat="45.85958" lon="4.66788">
        <ele>213</ele>
        <time>2018-02-18T10:26:47Z</time>
      </trkpt>
      <trkpt lat="45.8596" lon="4.66782">
        <ele>213</ele>
        <time>2018-02-18T10:26:48Z</time>
      </trkpt>
      <trkpt lat="45.85963" lon="4.66775">
        <ele>214</ele>
        <time>2018-02-18T10:26:49Z</time>
      </trkpt>
      <trkpt lat="45.85965" lon="4.66766">
        <ele>214</ele>
        <time>2018-02-18T10:26:50Z</time>
      </trkpt>
      <trkpt lat="45.85966" lon="4.66758">
        <ele>214</ele>
        <time>2018-02-18T10:26:51Z</time>
      </trkpt>
      <trkpt lat="45.85969" lon="4.66752">
        <ele>214</ele>
        <time>2018-02-18T10:26:52Z</time>
      </trkpt>
      <trkpt lat="45.85971" lon="4.66745">
        <ele>216</ele>
        <time>2018-02-18T10:26:53Z</time>
      </trkpt>
      <trkpt lat="45.85973" lon="4.66738">
        <ele>216</ele>
        <time>2018-02-18T10:26:54Z</time>
      </trkpt>
      <trkpt lat="45.85976" lon="4.66732">
        <ele>216</ele>
        <time>2018-02-18T10:26:55Z</time>
      </trkpt>
      <trkpt lat="45.85979" lon="4.66727">
        <ele>216</ele>
        <time>2018-02-18T10:26:56Z</time>
      </trkpt>
      <trkpt lat="45.85982" lon="4.66719">
        <ele>215</ele>
        <time>2018-02-18T10:26:57Z</time>
      </trkpt>
      <trkpt lat="45.85985" lon="4.66714">
        <ele>215</ele>
        <time>2018-02-18T10:26:58Z</time>
      </trkpt>
      <trkpt lat="45.85987" lon="4.66707">
        <ele>215</ele>
        <time>2018-02-18T10:26:59Z</time>
      </trkpt>
      <trkpt lat="45.85988" lon="4.66701">
        <ele>215</ele>
        <time>2018-02-18T10:27:00Z</time>
      </trkpt>
      <trkpt lat="45.85992" lon="4.66696">
        <ele>214</ele>
        <time>2018-02-18T10:27:01Z</time>
      </trkpt>
      <trkpt lat="45.85995" lon="4.6669">
        <ele>214</ele>
        <time>2018-02-18T10:27:02Z</time>
      </trkpt>
      <trkpt lat="45.85998" lon="4.66686">
        <ele>214</ele>
        <time>2018-02-18T10:27:03Z</time>
      </trkpt>
      <trkpt lat="45.86004" lon="4.66677">
        <ele>215</ele>
        <time>2018-02-18T10:27:04Z</time>
      </trkpt>
      <trkpt lat="45.86009" lon="4.66671">
        <ele>215</ele>
        <time>2018-02-18T10:27:05Z</time>
      </trkpt>
      <trkpt lat="45.86013" lon="4.66666">
        <ele>212</ele>
        <time>2018-02-18T10:27:06Z</time>
      </trkpt>
      <trkpt lat="45.86017" lon="4.6666">
        <ele>213</ele>
        <time>2018-02-18T10:27:07Z</time>
      </trkpt>
      <trkpt lat="45.86021" lon="4.66657">
        <ele>213</ele>
        <time>2018-02-18T10:27:08Z</time>
      </trkpt>
      <trkpt lat="45.86025" lon="4.66651">
        <ele>213</ele>
        <time>2018-02-18T10:27:09Z</time>
      </trkpt>
      <trkpt lat="45.86029" lon="4.66643">
        <ele>213</ele>
        <time>2018-02-18T10:27:10Z</time>
      </trkpt>
      <trkpt lat="45.86033" lon="4.66639">
        <ele>213</ele>
        <time>2018-02-18T10:27:11Z</time>
      </trkpt>
      <trkpt lat="45.8604" lon="4.66637">
        <ele>214</ele>
        <time>2018-02-18T10:27:12Z</time>
      </trkpt>
      <trkpt lat="45.86044" lon="4.66632">
        <ele>214</ele>
        <time>2018-02-18T10:27:13Z</time>
      </trkpt>
      <trkpt lat="45.86047" lon="4.66627">
        <ele>214</ele>
        <time>2018-02-18T10:27:14Z</time>
      </trkpt>
      <trkpt lat="45.86053" lon="4.6662">
        <ele>213</ele>
        <time>2018-02-18T10:27:15Z</time>
      </trkpt>
      <trkpt lat="45.86056" lon="4.66616">
        <ele>213</ele>
        <time>2018-02-18T10:27:16Z</time>
      </trkpt>
      <trkpt lat="45.86061" lon="4.66612">
        <ele>213</ele>
        <time>2018-02-18T10:27:17Z</time>
      </trkpt>
      <trkpt lat="45.86065" lon="4.66609">
        <ele>213</ele>
        <time>2018-02-18T10:27:18Z</time>
      </trkpt>
      <trkpt lat="45.8607" lon="4.66606">
        <ele>213</ele>
        <time>2018-02-18T10:27:19Z</time>
      </trkpt>
      <trkpt lat="45.86074" lon="4.66603">
        <ele>212</ele>
        <time>2018-02-18T10:27:20Z</time>
      </trkpt>
      <trkpt lat="45.86081" lon="4.666">
        <ele>212</ele>
        <time>2018-02-18T10:27:21Z</time>
      </trkpt>
      <trkpt lat="45.86085" lon="4.66599">
        <ele>216</ele>
        <time>2018-02-18T10:27:22Z</time>
      </trkpt>
      <trkpt lat="45.86093" lon="4.66595">
        <ele>216</ele>
        <time>2018-02-18T10:27:24Z</time>
      </trkpt>
      <trkpt lat="45.86099" lon="4.66591">
        <ele>217</ele>
        <time>2018-02-18T10:27:25Z</time>
      </trkpt>
      <trkpt lat="45.86104" lon="4.66591">
        <ele>218</ele>
        <time>2018-02-18T10:27:26Z</time>
      </trkpt>
      <trkpt lat="45.8611" lon="4.6659">
        <ele>219</ele>
        <time>2018-02-18T10:27:27Z</time>
      </trkpt>
      <trkpt lat="45.86115" lon="4.66585">
        <ele>220</ele>
        <time>2018-02-18T10:27:28Z</time>
      </trkpt>
      <trkpt lat="45.86119" lon="4.66582">
        <ele>213</ele>
        <time>2018-02-18T10:27:29Z</time>
      </trkpt>
      <trkpt lat="45.86124" lon="4.66578">
        <ele>214</ele>
        <time>2018-02-18T10:27:30Z</time>
      </trkpt>
      <trkpt lat="45.8613" lon="4.66575">
        <ele>214</ele>
        <time>2018-02-18T10:27:31Z</time>
      </trkpt>
      <trkpt lat="45.86135" lon="4.66572">
        <ele>215</ele>
        <time>2018-02-18T10:27:32Z</time>
      </trkpt>
      <trkpt lat="45.86139" lon="4.66569">
        <ele>215</ele>
        <time>2018-02-18T10:27:33Z</time>
      </trkpt>
      <trkpt lat="45.86142" lon="4.66564">
        <ele>215</ele>
        <time>2018-02-18T10:27:34Z</time>
      </trkpt>
      <trkpt lat="45.86145" lon="4.66559">
        <ele>215</ele>
        <time>2018-02-18T10:27:35Z</time>
      </trkpt>
      <trkpt lat="45.86149" lon="4.66556">
        <ele>215</ele>
        <time>2018-02-18T10:27:36Z</time>
      </trkpt>
      <trkpt lat="45.86153" lon="4.66551">
        <ele>215</ele>
        <time>2018-02-18T10:27:37Z</time>
      </trkpt>
      <trkpt lat="45.86157" lon="4.66545">
        <ele>214</ele>
        <time>2018-02-18T10:27:38Z</time>
      </trkpt>
      <trkpt lat="45.86161" lon="4.66539">
        <ele>214</ele>
        <time>2018-02-18T10:27:39Z</time>
      </trkpt>
      <trkpt lat="45.86165" lon="4.66534">
        <ele>213</ele>
        <time>2018-02-18T10:27:40Z</time>
      </trkpt>
      <trkpt lat="45.86169" lon="4.66527">
        <ele>218</ele>
        <time>2018-02-18T10:27:41Z</time>
      </trkpt>
      <trkpt lat="45.86172" lon="4.66521">
        <ele>217</ele>
        <time>2018-02-18T10:27:42Z</time>
      </trkpt>
      <trkpt lat="45.86175" lon="4.66515">
        <ele>216</ele>
        <time>2018-02-18T10:27:43Z</time>
      </trkpt>
      <trkpt lat="45.8618" lon="4.6651">
        <ele>215</ele>
        <time>2018-02-18T10:27:44Z</time>
      </trkpt>
      <trkpt lat="45.86183" lon="4.66504">
        <ele>215</ele>
        <time>2018-02-18T10:27:45Z</time>
      </trkpt>
      <trkpt lat="45.86185" lon="4.66497">
        <ele>212</ele>
        <time>2018-02-18T10:27:46Z</time>
      </trkpt>
      <trkpt lat="45.86188" lon="4.66491">
        <ele>212</ele>
        <time>2018-02-18T10:27:47Z</time>
      </trkpt>
      <trkpt lat="45.86191" lon="4.66486">
        <ele>212</ele>
        <time>2018-02-18T10:27:48Z</time>
      </trkpt>
      <trkpt lat="45.86196" lon="4.66479">
        <ele>213</ele>
        <time>2018-02-18T10:27:49Z</time>
      </trkpt>
      <trkpt lat="45.86198" lon="4.66471">
        <ele>213</ele>
        <time>2018-02-18T10:27:50Z</time>
      </trkpt>
      <trkpt lat="45.86202" lon="4.66466">
        <ele>213</ele>
        <time>2018-02-18T10:27:51Z</time>
      </trkpt>
      <trkpt lat="45.86207" lon="4.66455">
        <ele>213</ele>
        <time>2018-02-18T10:27:53Z</time>
      </trkpt>
      <trkpt lat="45.8621" lon="4.66449">
        <ele>213</ele>
        <time>2018-02-18T10:27:54Z</time>
      </trkpt>
      <trkpt lat="45.86214" lon="4.66444">
        <ele>213</ele>
        <time>2018-02-18T10:27:55Z</time>
      </trkpt>
      <trkpt lat="45.86217" lon="4.66439">
        <ele>213</ele>
        <time>2018-02-18T10:27:56Z</time>
      </trkpt>
      <trkpt lat="45.86221" lon="4.66432">
        <ele>213</ele>
        <time>2018-02-18T10:27:57Z</time>
      </trkpt>
      <trkpt lat="45.86224" lon="4.66426">
        <ele>213</ele>
        <time>2018-02-18T10:27:58Z</time>
      </trkpt>
      <trkpt lat="45.86227" lon="4.66419">
        <ele>213</ele>
        <time>2018-02-18T10:27:59Z</time>
      </trkpt>
      <trkpt lat="45.8623" lon="4.66414">
        <ele>213</ele>
        <time>2018-02-18T10:28:00Z</time>
      </trkpt>
      <trkpt lat="45.86234" lon="4.66408">
        <ele>213</ele>
        <time>2018-02-18T10:28:01Z</time>
      </trkpt>
      <trkpt lat="45.86234" lon="4.66398">
        <ele>212</ele>
        <time>2018-02-18T10:28:02Z</time>
      </trkpt>
      <trkpt lat="45.86237" lon="4.66394">
        <ele>212</ele>
        <time>2018-02-18T10:28:03Z</time>
      </trkpt>
      <trkpt lat="45.8624" lon="4.66387">
        <ele>212</ele>
        <time>2018-02-18T10:28:04Z</time>
      </trkpt>
      <trkpt lat="45.86242" lon="4.66382">
        <ele>212</ele>
        <time>2018-02-18T10:28:05Z</time>
      </trkpt>
      <trkpt lat="45.86245" lon="4.66377">
        <ele>212</ele>
        <time>2018-02-18T10:28:06Z</time>
      </trkpt>
      <trkpt lat="45.86246" lon="4.66372">
        <ele>212</ele>
        <time>2018-02-18T10:28:07Z</time>
      </trkpt>
      <trkpt lat="45.8625" lon="4.66365">
        <ele>215</ele>
        <time>2018-02-18T10:28:08Z</time>
      </trkpt>
      <trkpt lat="45.86255" lon="4.66361">
        <ele>215</ele>
        <time>2018-02-18T10:28:09Z</time>
      </trkpt>
      <trkpt lat="45.86258" lon="4.66356">
        <ele>215</ele>
        <time>2018-02-18T10:28:10Z</time>
      </trkpt>
      <trkpt lat="45.86262" lon="4.66349">
        <ele>215</ele>
        <time>2018-02-18T10:28:11Z</time>
      </trkpt>
      <trkpt lat="45.86269" lon="4.66345">
        <ele>215</ele>
        <time>2018-02-18T10:28:12Z</time>
      </trkpt>
      <trkpt lat="45.86274" lon="4.66339">
        <ele>216</ele>
        <time>2018-02-18T10:28:13Z</time>
      </trkpt>
      <trkpt lat="45.86277" lon="4.66333">
        <ele>213</ele>
        <time>2018-02-18T10:28:14Z</time>
      </trkpt>
      <trkpt lat="45.86281" lon="4.66327">
        <ele>214</ele>
        <time>2018-02-18T10:28:15Z</time>
      </trkpt>
      <trkpt lat="45.86284" lon="4.66322">
        <ele>214</ele>
        <time>2018-02-18T10:28:16Z</time>
      </trkpt>
      <trkpt lat="45.86289" lon="4.66313">
        <ele>214</ele>
        <time>2018-02-18T10:28:18Z</time>
      </trkpt>
      <trkpt lat="45.86291" lon="4.66307">
        <ele>214</ele>
        <time>2018-02-18T10:28:19Z</time>
      </trkpt>
      <trkpt lat="45.86294" lon="4.66303">
        <ele>214</ele>
        <time>2018-02-18T10:28:20Z</time>
      </trkpt>
      <trkpt lat="45.86299" lon="4.66298">
        <ele>214</ele>
        <time>2018-02-18T10:28:21Z</time>
      </trkpt>
      <trkpt lat="45.86302" lon="4.66292">
        <ele>214</ele>
        <time>2018-02-18T10:28:22Z</time>
      </trkpt>
      <trkpt lat="45.86308" lon="4.6629">
        <ele>214</ele>
        <time>2018-02-18T10:28:23Z</time>
      </trkpt>
      <trkpt lat="45.86312" lon="4.66286">
        <ele>214</ele>
        <time>2018-02-18T10:28:24Z</time>
      </trkpt>
      <trkpt lat="45.86316" lon="4.66282">
        <ele>214</ele>
        <time>2018-02-18T10:28:25Z</time>
      </trkpt>
      <trkpt lat="45.8632" lon="4.66279">
        <ele>214</ele>
        <time>2018-02-18T10:28:26Z</time>
      </trkpt>
      <trkpt lat="45.86324" lon="4.66275">
        <ele>214</ele>
        <time>2018-02-18T10:28:27Z</time>
      </trkpt>
      <trkpt lat="45.86329" lon="4.66272">
        <ele>214</ele>
        <time>2018-02-18T10:28:28Z</time>
      </trkpt>
      <trkpt lat="45.86334" lon="4.66268">
        <ele>217</ele>
        <time>2018-02-18T10:28:29Z</time>
      </trkpt>
      <trkpt lat="45.86338" lon="4.66264">
        <ele>216</ele>
        <time>2018-02-18T10:28:30Z</time>
      </trkpt>
      <trkpt lat="45.86344" lon="4.66261">
        <ele>217</ele>
        <time>2018-02-18T10:28:31Z</time>
      </trkpt>
      <trkpt lat="45.86349" lon="4.66258">
        <ele>217</ele>
        <time>2018-02-18T10:28:32Z</time>
      </trkpt>
      <trkpt lat="45.86352" lon="4.66253">
        <ele>217</ele>
        <time>2018-02-18T10:28:33Z</time>
      </trkpt>
      <trkpt lat="45.86356" lon="4.6625">
        <ele>213</ele>
        <time>2018-02-18T10:28:34Z</time>
      </trkpt>
      <trkpt lat="45.86361" lon="4.66244">
        <ele>213</ele>
        <time>2018-02-18T10:28:35Z</time>
      </trkpt>
      <trkpt lat="45.86366" lon="4.66238">
        <ele>213</ele>
        <time>2018-02-18T10:28:36Z</time>
      </trkpt>
      <trkpt lat="45.86371" lon="4.66235">
        <ele>213</ele>
        <time>2018-02-18T10:28:37Z</time>
      </trkpt>
      <trkpt lat="45.86376" lon="4.66232">
        <ele>213</ele>
        <time>2018-02-18T10:28:38Z</time>
      </trkpt>
      <trkpt lat="45.86381" lon="4.6623">
        <ele>214</ele>
        <time>2018-02-18T10:28:39Z</time>
      </trkpt>
      <trkpt lat="45.86386" lon="4.66229">
        <ele>214</ele>
        <time>2018-02-18T10:28:40Z</time>
      </trkpt>
      <trkpt lat="45.86392" lon="4.66226">
        <ele>214</ele>
        <time>2018-02-18T10:28:41Z</time>
      </trkpt>
      <trkpt lat="45.864" lon="4.66223">
        <ele>214</ele>
        <time>2018-02-18T10:28:43Z</time>
      </trkpt>
      <trkpt lat="45.86405" lon="4.66223">
        <ele>214</ele>
        <time>2018-02-18T10:28:44Z</time>
      </trkpt>
      <trkpt lat="45.8641" lon="4.66221">
        <ele>214</ele>
        <time>2018-02-18T10:28:45Z</time>
      </trkpt>
      <trkpt lat="45.86415" lon="4.6622">
        <ele>214</ele>
        <time>2018-02-18T10:28:46Z</time>
      </trkpt>
      <trkpt lat="45.8642" lon="4.66219">
        <ele>218</ele>
        <time>2018-02-18T10:28:47Z</time>
      </trkpt>
      <trkpt lat="45.86425" lon="4.66217">
        <ele>217</ele>
        <time>2018-02-18T10:28:48Z</time>
      </trkpt>
      <trkpt lat="45.86429" lon="4.66216">
        <ele>217</ele>
        <time>2018-02-18T10:28:49Z</time>
      </trkpt>
      <trkpt lat="45.86434" lon="4.66215">
        <ele>217</ele>
        <time>2018-02-18T10:28:50Z</time>
      </trkpt>
      <trkpt lat="45.86441" lon="4.66213">
        <ele>217</ele>
        <time>2018-02-18T10:28:52Z</time>
      </trkpt>
      <trkpt lat="45.86446" lon="4.66212">
        <ele>217</ele>
        <time>2018-02-18T10:28:53Z</time>
      </trkpt>
      <trkpt lat="45.8645" lon="4.66211">
        <ele>217</ele>
        <time>2018-02-18T10:28:54Z</time>
      </trkpt>
      <trkpt lat="45.86455" lon="4.6621">
        <ele>217</ele>
        <time>2018-02-18T10:28:55Z</time>
      </trkpt>
      <trkpt lat="45.86462" lon="4.66207">
        <ele>218</ele>
        <time>2018-02-18T10:28:57Z</time>
      </trkpt>
      <trkpt lat="45.86467" lon="4.66206">
        <ele>218</ele>
        <time>2018-02-18T10:28:58Z</time>
      </trkpt>
      <trkpt lat="45.86471" lon="4.66204">
        <ele>218</ele>
        <time>2018-02-18T10:28:59Z</time>
      </trkpt>
      <trkpt lat="45.86476" lon="4.66201">
        <ele>218</ele>
        <time>2018-02-18T10:29:00Z</time>
      </trkpt>
      <trkpt lat="45.8648" lon="4.662">
        <ele>218</ele>
        <time>2018-02-18T10:29:01Z</time>
      </trkpt>
      <trkpt lat="45.86485" lon="4.66196">
        <ele>217</ele>
        <time>2018-02-18T10:29:02Z</time>
      </trkpt>
      <trkpt lat="45.86492" lon="4.66194">
        <ele>217</ele>
        <time>2018-02-18T10:29:04Z</time>
      </trkpt>
      <trkpt lat="45.86496" lon="4.66193">
        <ele>217</ele>
        <time>2018-02-18T10:29:05Z</time>
      </trkpt>
      <trkpt lat="45.86503" lon="4.66189">
        <ele>222</ele>
        <time>2018-02-18T10:29:07Z</time>
      </trkpt>
      <trkpt lat="45.86507" lon="4.66187">
        <ele>222</ele>
        <time>2018-02-18T10:29:08Z</time>
      </trkpt>
      <trkpt lat="45.86511" lon="4.66186">
        <ele>222</ele>
        <time>2018-02-18T10:29:10Z</time>
      </trkpt>
      <trkpt lat="45.86517" lon="4.66182">
        <ele>222</ele>
        <time>2018-02-18T10:29:11Z</time>
      </trkpt>
      <trkpt lat="45.86522" lon="4.66179">
        <ele>223</ele>
        <time>2018-02-18T10:29:12Z</time>
      </trkpt>
      <trkpt lat="45.86527" lon="4.66177">
        <ele>223</ele>
        <time>2018-02-18T10:29:13Z</time>
      </trkpt>
      <trkpt lat="45.86532" lon="4.66172">
        <ele>224</ele>
        <time>2018-02-18T10:29:14Z</time>
      </trkpt>
      <trkpt lat="45.86537" lon="4.66167">
        <ele>224</ele>
        <time>2018-02-18T10:29:15Z</time>
      </trkpt>
      <trkpt lat="45.86542" lon="4.66164">
        <ele>217</ele>
        <time>2018-02-18T10:29:16Z</time>
      </trkpt>
      <trkpt lat="45.86546" lon="4.66158">
        <ele>217</ele>
        <time>2018-02-18T10:29:17Z</time>
      </trkpt>
      <trkpt lat="45.86551" lon="4.66154">
        <ele>218</ele>
        <time>2018-02-18T10:29:18Z</time>
      </trkpt>
      <trkpt lat="45.86555" lon="4.66151">
        <ele>218</ele>
        <time>2018-02-18T10:29:19Z</time>
      </trkpt>
      <trkpt lat="45.8656" lon="4.66147">
        <ele>218</ele>
        <time>2018-02-18T10:29:20Z</time>
      </trkpt>
      <trkpt lat="45.86564" lon="4.66143">
        <ele>218</ele>
        <time>2018-02-18T10:29:21Z</time>
      </trkpt>
      <trkpt lat="45.86568" lon="4.66138">
        <ele>218</ele>
        <time>2018-02-18T10:29:22Z</time>
      </trkpt>
      <trkpt lat="45.86572" lon="4.66134">
        <ele>217</ele>
        <time>2018-02-18T10:29:23Z</time>
      </trkpt>
      <trkpt lat="45.86576" lon="4.6613">
        <ele>217</ele>
        <time>2018-02-18T10:29:24Z</time>
      </trkpt>
      <trkpt lat="45.86581" lon="4.66126">
        <ele>216</ele>
        <time>2018-02-18T10:29:25Z</time>
      </trkpt>
      <trkpt lat="45.86585" lon="4.66123">
        <ele>223</ele>
        <time>2018-02-18T10:29:26Z</time>
      </trkpt>
      <trkpt lat="45.86589" lon="4.6612">
        <ele>223</ele>
        <time>2018-02-18T10:29:27Z</time>
      </trkpt>
      <trkpt lat="45.86593" lon="4.66116">
        <ele>222</ele>
        <time>2018-02-18T10:29:28Z</time>
      </trkpt>
      <trkpt lat="45.86597" lon="4.66112">
        <ele>222</ele>
        <time>2018-02-18T10:29:29Z</time>
      </trkpt>
      <trkpt lat="45.86602" lon="4.66108">
        <ele>221</ele>
        <time>2018-02-18T10:29:30Z</time>
      </trkpt>
      <trkpt lat="45.86606" lon="4.66105">
        <ele>221</ele>
        <time>2018-02-18T10:29:31Z</time>
      </trkpt>
      <trkpt lat="45.86609" lon="4.66103">
        <ele>221</ele>
        <time>2018-02-18T10:29:32Z</time>
      </trkpt>
      <trkpt lat="45.86614" lon="4.66097">
        <ele>221</ele>
        <time>2018-02-18T10:29:33Z</time>
      </trkpt>
      <trkpt lat="45.86619" lon="4.66094">
        <ele>222</ele>
        <time>2018-02-18T10:29:34Z</time>
      </trkpt>
      <trkpt lat="45.86624" lon="4.66092">
        <ele>222</ele>
        <time>2018-02-18T10:29:35Z</time>
      </trkpt>
      <trkpt lat="45.86629" lon="4.66089">
        <ele>222</ele>
        <time>2018-02-18T10:29:36Z</time>
      </trkpt>
      <trkpt lat="45.86634" lon="4.66088">
        <ele>222</ele>
        <time>2018-02-18T10:29:37Z</time>
      </trkpt>
      <trkpt lat="45.86639" lon="4.66086">
        <ele>222</ele>
        <time>2018-02-18T10:29:38Z</time>
      </trkpt>
      <trkpt lat="45.86646" lon="4.66083">
        <ele>215</ele>
        <time>2018-02-18T10:29:39Z</time>
      </trkpt>
      <trkpt lat="45.86653" lon="4.6608">
        <ele>216</ele>
        <time>2018-02-18T10:29:40Z</time>
      </trkpt>
      <trkpt lat="45.86658" lon="4.66078">
        <ele>216</ele>
        <time>2018-02-18T10:29:41Z</time>
      </trkpt>
      <trkpt lat="45.86663" lon="4.66077">
        <ele>217</ele>
        <time>2018-02-18T10:29:42Z</time>
      </trkpt>
      <trkpt lat="45.86669" lon="4.66076">
        <ele>220</ele>
        <time>2018-02-18T10:29:43Z</time>
      </trkpt>
      <trkpt lat="45.86673" lon="4.66074">
        <ele>220</ele>
        <time>2018-02-18T10:29:44Z</time>
      </trkpt>
      <trkpt lat="45.86677" lon="4.66073">
        <ele>220</ele>
        <time>2018-02-18T10:29:45Z</time>
      </trkpt>
      <trkpt lat="45.86682" lon="4.6607">
        <ele>221</ele>
        <time>2018-02-18T10:29:46Z</time>
      </trkpt>
      <trkpt lat="45.86688" lon="4.66067">
        <ele>221</ele>
        <time>2018-02-18T10:29:47Z</time>
      </trkpt>
      <trkpt lat="45.86693" lon="4.66065">
        <ele>222</ele>
        <time>2018-02-18T10:29:48Z</time>
      </trkpt>
      <trkpt lat="45.867" lon="4.66061">
        <ele>222</ele>
        <time>2018-02-18T10:29:49Z</time>
      </trkpt>
      <trkpt lat="45.86706" lon="4.66058">
        <ele>223</ele>
        <time>2018-02-18T10:29:50Z</time>
      </trkpt>
      <trkpt lat="45.86711" lon="4.66056">
        <ele>223</ele>
        <time>2018-02-18T10:29:51Z</time>
      </trkpt>
      <trkpt lat="45.86716" lon="4.66054">
        <ele>223</ele>
        <time>2018-02-18T10:29:52Z</time>
      </trkpt>
      <trkpt lat="45.8672" lon="4.66052">
        <ele>224</ele>
        <time>2018-02-18T10:29:53Z</time>
      </trkpt>
      <trkpt lat="45.86725" lon="4.66049">
        <ele>224</ele>
        <time>2018-02-18T10:29:54Z</time>
      </trkpt>
      <trkpt lat="45.86728" lon="4.66046">
        <ele>223</ele>
        <time>2018-02-18T10:29:55Z</time>
      </trkpt>
      <trkpt lat="45.86733" lon="4.66043">
        <ele>223</ele>
        <time>2018-02-18T10:29:56Z</time>
      </trkpt>
      <trkpt lat="45.86737" lon="4.66039">
        <ele>223</ele>
        <time>2018-02-18T10:29:57Z</time>
      </trkpt>
      <trkpt lat="45.86743" lon="4.66031">
        <ele>222</ele>
        <time>2018-02-18T10:29:59Z</time>
      </trkpt>
      <trkpt lat="45.86747" lon="4.66027">
        <ele>221</ele>
        <time>2018-02-18T10:30:00Z</time>
      </trkpt>
      <trkpt lat="45.86753" lon="4.66019">
        <ele>228</ele>
        <time>2018-02-18T10:30:02Z</time>
      </trkpt>
      <trkpt lat="45.86757" lon="4.66014">
        <ele>226</ele>
        <time>2018-02-18T10:30:03Z</time>
      </trkpt>
      <trkpt lat="45.86764" lon="4.66007">
        <ele>226</ele>
        <time>2018-02-18T10:30:05Z</time>
      </trkpt>
      <trkpt lat="45.86771" lon="4.66003">
        <ele>228</ele>
        <time>2018-02-18T10:30:06Z</time>
      </trkpt>
      <trkpt lat="45.86778" lon="4.65995">
        <ele>221</ele>
        <time>2018-02-18T10:30:08Z</time>
      </trkpt>
      <trkpt lat="45.86782" lon="4.65988">
        <ele>221</ele>
        <time>2018-02-18T10:30:09Z</time>
      </trkpt>
      <trkpt lat="45.86787" lon="4.65984">
        <ele>222</ele>
        <time>2018-02-18T10:30:10Z</time>
      </trkpt>
      <trkpt lat="45.86791" lon="4.65977">
        <ele>222</ele>
        <time>2018-02-18T10:30:11Z</time>
      </trkpt>
      <trkpt lat="45.86795" lon="4.65972">
        <ele>222</ele>
        <time>2018-02-18T10:30:12Z</time>
      </trkpt>
      <trkpt lat="45.86799" lon="4.65966">
        <ele>222</ele>
        <time>2018-02-18T10:30:13Z</time>
      </trkpt>
      <trkpt lat="45.86803" lon="4.6596">
        <ele>222</ele>
        <time>2018-02-18T10:30:14Z</time>
      </trkpt>
      <trkpt lat="45.86806" lon="4.65954">
        <ele>222</ele>
        <time>2018-02-18T10:30:15Z</time>
      </trkpt>
      <trkpt lat="45.8681" lon="4.65947">
        <ele>222</ele>
        <time>2018-02-18T10:30:16Z</time>
      </trkpt>
      <trkpt lat="45.86813" lon="4.65942">
        <ele>222</ele>
        <time>2018-02-18T10:30:17Z</time>
      </trkpt>
      <trkpt lat="45.86817" lon="4.65935">
        <ele>222</ele>
        <time>2018-02-18T10:30:18Z</time>
      </trkpt>
      <trkpt lat="45.8682" lon="4.65929">
        <ele>221</ele>
        <time>2018-02-18T10:30:19Z</time>
      </trkpt>
      <trkpt lat="45.86823" lon="4.65923">
        <ele>221</ele>
        <time>2018-02-18T10:30:20Z</time>
      </trkpt>
      <trkpt lat="45.86827" lon="4.65913">
        <ele>219</ele>
        <time>2018-02-18T10:30:21Z</time>
      </trkpt>
      <trkpt lat="45.86831" lon="4.65907">
        <ele>219</ele>
        <time>2018-02-18T10:30:22Z</time>
      </trkpt>
      <trkpt lat="45.86834" lon="4.659">
        <ele>224</ele>
        <time>2018-02-18T10:30:23Z</time>
      </trkpt>
      <trkpt lat="45.86837" lon="4.65894">
        <ele>225</ele>
        <time>2018-02-18T10:30:24Z</time>
      </trkpt>
      <trkpt lat="45.86841" lon="4.65888">
        <ele>226</ele>
        <time>2018-02-18T10:30:25Z</time>
      </trkpt>
      <trkpt lat="45.86845" lon="4.65881">
        <ele>226</ele>
        <time>2018-02-18T10:30:26Z</time>
      </trkpt>
      <trkpt lat="45.86848" lon="4.65875">
        <ele>226</ele>
        <time>2018-02-18T10:30:27Z</time>
      </trkpt>
      <trkpt lat="45.86851" lon="4.65868">
        <ele>225</ele>
        <time>2018-02-18T10:30:28Z</time>
      </trkpt>
      <trkpt lat="45.86854" lon="4.65861">
        <ele>225</ele>
        <time>2018-02-18T10:30:29Z</time>
      </trkpt>
      <trkpt lat="45.86857" lon="4.65854">
        <ele>225</ele>
        <time>2018-02-18T10:30:30Z</time>
      </trkpt>
      <trkpt lat="45.86861" lon="4.65847">
        <ele>225</ele>
        <time>2018-02-18T10:30:31Z</time>
      </trkpt>
      <trkpt lat="45.86864" lon="4.65841">
        <ele>225</ele>
        <time>2018-02-18T10:30:32Z</time>
      </trkpt>
      <trkpt lat="45.86867" lon="4.65835">
        <ele>225</ele>
        <time>2018-02-18T10:30:33Z</time>
      </trkpt>
      <trkpt lat="45.86869" lon="4.65828">
        <ele>221</ele>
        <time>2018-02-18T10:30:34Z</time>
      </trkpt>
      <trkpt lat="45.8687" lon="4.6582">
        <ele>222</ele>
        <time>2018-02-18T10:30:35Z</time>
      </trkpt>
      <trkpt lat="45.86873" lon="4.65814">
        <ele>222</ele>
        <time>2018-02-18T10:30:36Z</time>
      </trkpt>
      <trkpt lat="45.86874" lon="4.65806">
        <ele>222</ele>
        <time>2018-02-18T10:30:37Z</time>
      </trkpt>
      <trkpt lat="45.86876" lon="4.658">
        <ele>222</ele>
        <time>2018-02-18T10:30:38Z</time>
      </trkpt>
      <trkpt lat="45.86878" lon="4.65793">
        <ele>222</ele>
        <time>2018-02-18T10:30:39Z</time>
      </trkpt>
      <trkpt lat="45.8688" lon="4.65785">
        <ele>223</ele>
        <time>2018-02-18T10:30:40Z</time>
      </trkpt>
      <trkpt lat="45.86881" lon="4.65778">
        <ele>223</ele>
        <time>2018-02-18T10:30:41Z</time>
      </trkpt>
      <trkpt lat="45.86883" lon="4.65771">
        <ele>223</ele>
        <time>2018-02-18T10:30:42Z</time>
      </trkpt>
      <trkpt lat="45.86884" lon="4.65763">
        <ele>223</ele>
        <time>2018-02-18T10:30:43Z</time>
      </trkpt>
      <trkpt lat="45.86885" lon="4.65757">
        <ele>223</ele>
        <time>2018-02-18T10:30:44Z</time>
      </trkpt>
      <trkpt lat="45.86887" lon="4.6575">
        <ele>223</ele>
        <time>2018-02-18T10:30:45Z</time>
      </trkpt>
      <trkpt lat="45.86888" lon="4.65743">
        <ele>223</ele>
        <time>2018-02-18T10:30:46Z</time>
      </trkpt>
      <trkpt lat="45.86888" lon="4.65735">
        <ele>223</ele>
        <time>2018-02-18T10:30:47Z</time>
      </trkpt>
      <trkpt lat="45.86889" lon="4.65727">
        <ele>223</ele>
        <time>2018-02-18T10:30:48Z</time>
      </trkpt>
      <trkpt lat="45.86889" lon="4.65718">
        <ele>223</ele>
        <time>2018-02-18T10:30:49Z</time>
      </trkpt>
      <trkpt lat="45.86889" lon="4.65709">
        <ele>223</ele>
        <time>2018-02-18T10:30:50Z</time>
      </trkpt>
      <trkpt lat="45.8689" lon="4.65702">
        <ele>223</ele>
        <time>2018-02-18T10:30:51Z</time>
      </trkpt>
      <trkpt lat="45.8689" lon="4.65694">
        <ele>223</ele>
        <time>2018-02-18T10:30:52Z</time>
      </trkpt>
      <trkpt lat="45.8689" lon="4.65685">
        <ele>223</ele>
        <time>2018-02-18T10:30:53Z</time>
      </trkpt>
      <trkpt lat="45.86891" lon="4.65677">
        <ele>224</ele>
        <time>2018-02-18T10:30:54Z</time>
      </trkpt>
      <trkpt lat="45.8689" lon="4.65668">
        <ele>224</ele>
        <time>2018-02-18T10:30:55Z</time>
      </trkpt>
      <trkpt lat="45.8689" lon="4.6566">
        <ele>224</ele>
        <time>2018-02-18T10:30:56Z</time>
      </trkpt>
      <trkpt lat="45.86891" lon="4.65652">
        <ele>223</ele>
        <time>2018-02-18T10:30:57Z</time>
      </trkpt>
      <trkpt lat="45.86891" lon="4.65644">
        <ele>223</ele>
        <time>2018-02-18T10:30:58Z</time>
      </trkpt>
      <trkpt lat="45.86892" lon="4.65636">
        <ele>223</ele>
        <time>2018-02-18T10:30:59Z</time>
      </trkpt>
      <trkpt lat="45.86894" lon="4.65628">
        <ele>222</ele>
        <time>2018-02-18T10:31:00Z</time>
      </trkpt>
      <trkpt lat="45.86895" lon="4.65621">
        <ele>222</ele>
        <time>2018-02-18T10:31:01Z</time>
      </trkpt>
      <trkpt lat="45.86896" lon="4.65612">
        <ele>222</ele>
        <time>2018-02-18T10:31:02Z</time>
      </trkpt>
      <trkpt lat="45.86898" lon="4.65604">
        <ele>223</ele>
        <time>2018-02-18T10:31:03Z</time>
      </trkpt>
      <trkpt lat="45.869" lon="4.65594">
        <ele>223</ele>
        <time>2018-02-18T10:31:04Z</time>
      </trkpt>
      <trkpt lat="45.86902" lon="4.65586">
        <ele>224</ele>
        <time>2018-02-18T10:31:05Z</time>
      </trkpt>
      <trkpt lat="45.86905" lon="4.65576">
        <ele>222</ele>
        <time>2018-02-18T10:31:06Z</time>
      </trkpt>
      <trkpt lat="45.86907" lon="4.65568">
        <ele>221</ele>
        <time>2018-02-18T10:31:07Z</time>
      </trkpt>
      <trkpt lat="45.8691" lon="4.65559">
        <ele>220</ele>
        <time>2018-02-18T10:31:08Z</time>
      </trkpt>
      <trkpt lat="45.86912" lon="4.6555">
        <ele>219</ele>
        <time>2018-02-18T10:31:09Z</time>
      </trkpt>
      <trkpt lat="45.86915" lon="4.65542">
        <ele>219</ele>
        <time>2018-02-18T10:31:10Z</time>
      </trkpt>
      <trkpt lat="45.86917" lon="4.65534">
        <ele>229</ele>
        <time>2018-02-18T10:31:11Z</time>
      </trkpt>
      <trkpt lat="45.86921" lon="4.65526">
        <ele>228</ele>
        <time>2018-02-18T10:31:12Z</time>
      </trkpt>
      <trkpt lat="45.86924" lon="4.65518">
        <ele>226</ele>
        <time>2018-02-18T10:31:13Z</time>
      </trkpt>
      <trkpt lat="45.86927" lon="4.6551">
        <ele>225</ele>
        <time>2018-02-18T10:31:14Z</time>
      </trkpt>
      <trkpt lat="45.86931" lon="4.65502">
        <ele>225</ele>
        <time>2018-02-18T10:31:15Z</time>
      </trkpt>
      <trkpt lat="45.86935" lon="4.65494">
        <ele>221</ele>
        <time>2018-02-18T10:31:16Z</time>
      </trkpt>
      <trkpt lat="45.8694" lon="4.65485">
        <ele>221</ele>
        <time>2018-02-18T10:31:17Z</time>
      </trkpt>
      <trkpt lat="45.86944" lon="4.65478">
        <ele>222</ele>
        <time>2018-02-18T10:31:18Z</time>
      </trkpt>
      <trkpt lat="45.86949" lon="4.65471">
        <ele>222</ele>
        <time>2018-02-18T10:31:19Z</time>
      </trkpt>
      <trkpt lat="45.86952" lon="4.65465">
        <ele>222</ele>
        <time>2018-02-18T10:31:20Z</time>
      </trkpt>
      <trkpt lat="45.86956" lon="4.65458">
        <ele>222</ele>
        <time>2018-02-18T10:31:21Z</time>
      </trkpt>
      <trkpt lat="45.86961" lon="4.65452">
        <ele>222</ele>
        <time>2018-02-18T10:31:22Z</time>
      </trkpt>
      <trkpt lat="45.86967" lon="4.65446">
        <ele>222</ele>
        <time>2018-02-18T10:31:23Z</time>
      </trkpt>
      <trkpt lat="45.86971" lon="4.65441">
        <ele>222</ele>
        <time>2018-02-18T10:31:24Z</time>
      </trkpt>
      <trkpt lat="45.86975" lon="4.65436">
        <ele>222</ele>
        <time>2018-02-18T10:31:25Z</time>
      </trkpt>
      <trkpt lat="45.8698" lon="4.65431">
        <ele>222</ele>
        <time>2018-02-18T10:31:26Z</time>
      </trkpt>
      <trkpt lat="45.86984" lon="4.65425">
        <ele>222</ele>
        <time>2018-02-18T10:31:27Z</time>
      </trkpt>
      <trkpt lat="45.86988" lon="4.65421">
        <ele>221</ele>
        <time>2018-02-18T10:31:28Z</time>
      </trkpt>
      <trkpt lat="45.86991" lon="4.65417">
        <ele>219</ele>
        <time>2018-02-18T10:31:29Z</time>
      </trkpt>
      <trkpt lat="45.86995" lon="4.65413">
        <ele>219</ele>
        <time>2018-02-18T10:31:30Z</time>
      </trkpt>
      <trkpt lat="45.86998" lon="4.65407">
        <ele>219</ele>
        <time>2018-02-18T10:31:31Z</time>
      </trkpt>
      <trkpt lat="45.87003" lon="4.65402">
        <ele>222</ele>
        <time>2018-02-18T10:31:32Z</time>
      </trkpt>
      <trkpt lat="45.87005" lon="4.65397">
        <ele>223</ele>
        <time>2018-02-18T10:31:33Z</time>
      </trkpt>
      <trkpt lat="45.8701" lon="4.65391">
        <ele>223</ele>
        <time>2018-02-18T10:31:34Z</time>
      </trkpt>
      <trkpt lat="45.87014" lon="4.65385">
        <ele>223</ele>
        <time>2018-02-18T10:31:35Z</time>
      </trkpt>
      <trkpt lat="45.87018" lon="4.65381">
        <ele>223</ele>
        <time>2018-02-18T10:31:36Z</time>
      </trkpt>
      <trkpt lat="45.87023" lon="4.65376">
        <ele>223</ele>
        <time>2018-02-18T10:31:37Z</time>
      </trkpt>
      <trkpt lat="45.87028" lon="4.6537">
        <ele>223</ele>
        <time>2018-02-18T10:31:38Z</time>
      </trkpt>
      <trkpt lat="45.87032" lon="4.65363">
        <ele>223</ele>
        <time>2018-02-18T10:31:39Z</time>
      </trkpt>
      <trkpt lat="45.87035" lon="4.65357">
        <ele>223</ele>
        <time>2018-02-18T10:31:40Z</time>
      </trkpt>
      <trkpt lat="45.87039" lon="4.65352">
        <ele>223</ele>
        <time>2018-02-18T10:31:41Z</time>
      </trkpt>
      <trkpt lat="45.87046" lon="4.65343">
        <ele>223</ele>
        <time>2018-02-18T10:31:42Z</time>
      </trkpt>
      <trkpt lat="45.87049" lon="4.65337">
        <ele>223</ele>
        <time>2018-02-18T10:31:43Z</time>
      </trkpt>
      <trkpt lat="45.87054" lon="4.65329">
        <ele>218</ele>
        <time>2018-02-18T10:31:44Z</time>
      </trkpt>
      <trkpt lat="45.87057" lon="4.65318">
        <ele>218</ele>
        <time>2018-02-18T10:31:46Z</time>
      </trkpt>
      <trkpt lat="45.87061" lon="4.65313">
        <ele>218</ele>
        <time>2018-02-18T10:31:47Z</time>
      </trkpt>
      <trkpt lat="45.87065" lon="4.65302">
        <ele>217</ele>
        <time>2018-02-18T10:31:49Z</time>
      </trkpt>
      <trkpt lat="45.87068" lon="4.65297">
        <ele>217</ele>
        <time>2018-02-18T10:31:50Z</time>
      </trkpt>
      <trkpt lat="45.87071" lon="4.65291">
        <ele>216</ele>
        <time>2018-02-18T10:31:51Z</time>
      </trkpt>
      <trkpt lat="45.87074" lon="4.65286">
        <ele>216</ele>
        <time>2018-02-18T10:31:52Z</time>
      </trkpt>
      <trkpt lat="45.87078" lon="4.65275">
        <ele>215</ele>
        <time>2018-02-18T10:31:54Z</time>
      </trkpt>
      <trkpt lat="45.87081" lon="4.65268">
        <ele>215</ele>
        <time>2018-02-18T10:31:55Z</time>
      </trkpt>
      <trkpt lat="45.87086" lon="4.65258">
        <ele>218</ele>
        <time>2018-02-18T10:31:57Z</time>
      </trkpt>
      <trkpt lat="45.87089" lon="4.6525">
        <ele>217</ele>
        <time>2018-02-18T10:31:58Z</time>
      </trkpt>
      <trkpt lat="45.87091" lon="4.65242">
        <ele>216</ele>
        <time>2018-02-18T10:31:59Z</time>
      </trkpt>
      <trkpt lat="45.87093" lon="4.65237">
        <ele>217</ele>
        <time>2018-02-18T10:32:00Z</time>
      </trkpt>
      <trkpt lat="45.87098" lon="4.65231">
        <ele>218</ele>
        <time>2018-02-18T10:32:01Z</time>
      </trkpt>
      <trkpt lat="45.87101" lon="4.65226">
        <ele>218</ele>
        <time>2018-02-18T10:32:02Z</time>
      </trkpt>
      <trkpt lat="45.87105" lon="4.6522">
        <ele>219</ele>
        <time>2018-02-18T10:32:03Z</time>
      </trkpt>
      <trkpt lat="45.87108" lon="4.65213">
        <ele>219</ele>
        <time>2018-02-18T10:32:04Z</time>
      </trkpt>
      <trkpt lat="45.87113" lon="4.65207">
        <ele>219</ele>
        <time>2018-02-18T10:32:05Z</time>
      </trkpt>
      <trkpt lat="45.87117" lon="4.65202">
        <ele>219</ele>
        <time>2018-02-18T10:32:06Z</time>
      </trkpt>
      <trkpt lat="45.8712" lon="4.65198">
        <ele>219</ele>
        <time>2018-02-18T10:32:07Z</time>
      </trkpt>
      <trkpt lat="45.87124" lon="4.65192">
        <ele>219</ele>
        <time>2018-02-18T10:32:08Z</time>
      </trkpt>
      <trkpt lat="45.87128" lon="4.6519">
        <ele>220</ele>
        <time>2018-02-18T10:32:09Z</time>
      </trkpt>
      <trkpt lat="45.87133" lon="4.65185">
        <ele>220</ele>
        <time>2018-02-18T10:32:10Z</time>
      </trkpt>
      <trkpt lat="45.87138" lon="4.6518">
        <ele>220</ele>
        <time>2018-02-18T10:32:11Z</time>
      </trkpt>
      <trkpt lat="45.87142" lon="4.65177">
        <ele>220</ele>
        <time>2018-02-18T10:32:12Z</time>
      </trkpt>
      <trkpt lat="45.87145" lon="4.65173">
        <ele>220</ele>
        <time>2018-02-18T10:32:13Z</time>
      </trkpt>
      <trkpt lat="45.8715" lon="4.6517">
        <ele>220</ele>
        <time>2018-02-18T10:32:14Z</time>
      </trkpt>
      <trkpt lat="45.87154" lon="4.65167">
        <ele>220</ele>
        <time>2018-02-18T10:32:15Z</time>
      </trkpt>
      <trkpt lat="45.87157" lon="4.65162">
        <ele>218</ele>
        <time>2018-02-18T10:32:16Z</time>
      </trkpt>
      <trkpt lat="45.87162" lon="4.65158">
        <ele>218</ele>
        <time>2018-02-18T10:32:17Z</time>
      </trkpt>
      <trkpt lat="45.87166" lon="4.65155">
        <ele>217</ele>
        <time>2018-02-18T10:32:18Z</time>
      </trkpt>
      <trkpt lat="45.8717" lon="4.65151">
        <ele>221</ele>
        <time>2018-02-18T10:32:19Z</time>
      </trkpt>
      <trkpt lat="45.87175" lon="4.65146">
        <ele>221</ele>
        <time>2018-02-18T10:32:20Z</time>
      </trkpt>
      <trkpt lat="45.87178" lon="4.65141">
        <ele>221</ele>
        <time>2018-02-18T10:32:21Z</time>
      </trkpt>
      <trkpt lat="45.87182" lon="4.65137">
        <ele>221</ele>
        <time>2018-02-18T10:32:22Z</time>
      </trkpt>
      <trkpt lat="45.87187" lon="4.65127">
        <ele>220</ele>
        <time>2018-02-18T10:32:24Z</time>
      </trkpt>
      <trkpt lat="45.87192" lon="4.65125">
        <ele>221</ele>
        <time>2018-02-18T10:32:25Z</time>
      </trkpt>
      <trkpt lat="45.87197" lon="4.65122">
        <ele>221</ele>
        <time>2018-02-18T10:32:26Z</time>
      </trkpt>
      <trkpt lat="45.87202" lon="4.65117">
        <ele>221</ele>
        <time>2018-02-18T10:32:27Z</time>
      </trkpt>
      <trkpt lat="45.87208" lon="4.65111">
        <ele>221</ele>
        <time>2018-02-18T10:32:28Z</time>
      </trkpt>
      <trkpt lat="45.87214" lon="4.65107">
        <ele>221</ele>
        <time>2018-02-18T10:32:29Z</time>
      </trkpt>
      <trkpt lat="45.87217" lon="4.65102">
        <ele>221</ele>
        <time>2018-02-18T10:32:30Z</time>
      </trkpt>
      <trkpt lat="45.87222" lon="4.65099">
        <ele>220</ele>
        <time>2018-02-18T10:32:31Z</time>
      </trkpt>
      <trkpt lat="45.87229" lon="4.65092">
        <ele>220</ele>
        <time>2018-02-18T10:32:33Z</time>
      </trkpt>
      <trkpt lat="45.87233" lon="4.65087">
        <ele>220</ele>
        <time>2018-02-18T10:32:34Z</time>
      </trkpt>
      <trkpt lat="45.87238" lon="4.65083">
        <ele>216</ele>
        <time>2018-02-18T10:32:35Z</time>
      </trkpt>
      <trkpt lat="45.87242" lon="4.65079">
        <ele>216</ele>
        <time>2018-02-18T10:32:36Z</time>
      </trkpt>
      <trkpt lat="45.87246" lon="4.65075">
        <ele>216</ele>
        <time>2018-02-18T10:32:37Z</time>
      </trkpt>
      <trkpt lat="45.87251" lon="4.65073">
        <ele>219</ele>
        <time>2018-02-18T10:32:38Z</time>
      </trkpt>
      <trkpt lat="45.87258" lon="4.65066">
        <ele>219</ele>
        <time>2018-02-18T10:32:40Z</time>
      </trkpt>
      <trkpt lat="45.87261" lon="4.65063">
        <ele>219</ele>
        <time>2018-02-18T10:32:41Z</time>
      </trkpt>
      <trkpt lat="45.87268" lon="4.65058">
        <ele>219</ele>
        <time>2018-02-18T10:32:43Z</time>
      </trkpt>
      <trkpt lat="45.87272" lon="4.65055">
        <ele>219</ele>
        <time>2018-02-18T10:32:44Z</time>
      </trkpt>
      <trkpt lat="45.87277" lon="4.65051">
        <ele>219</ele>
        <time>2018-02-18T10:32:45Z</time>
      </trkpt>
      <trkpt lat="45.8728" lon="4.65047">
        <ele>219</ele>
        <time>2018-02-18T10:32:46Z</time>
      </trkpt>
      <trkpt lat="45.87284" lon="4.65042">
        <ele>219</ele>
        <time>2018-02-18T10:32:47Z</time>
      </trkpt>
      <trkpt lat="45.87288" lon="4.65037">
        <ele>219</ele>
        <time>2018-02-18T10:32:48Z</time>
      </trkpt>
      <trkpt lat="45.87292" lon="4.65032">
        <ele>219</ele>
        <time>2018-02-18T10:32:49Z</time>
      </trkpt>
      <trkpt lat="45.87295" lon="4.65028">
        <ele>219</ele>
        <time>2018-02-18T10:32:50Z</time>
      </trkpt>
      <trkpt lat="45.87298" lon="4.65021">
        <ele>219</ele>
        <time>2018-02-18T10:32:51Z</time>
      </trkpt>
      <trkpt lat="45.87301" lon="4.65015">
        <ele>219</ele>
        <time>2018-02-18T10:32:52Z</time>
      </trkpt>
      <trkpt lat="45.87305" lon="4.65009">
        <ele>219</ele>
        <time>2018-02-18T10:32:53Z</time>
      </trkpt>
      <trkpt lat="45.8731" lon="4.65004">
        <ele>219</ele>
        <time>2018-02-18T10:32:54Z</time>
      </trkpt>
      <trkpt lat="45.87313" lon="4.64997">
        <ele>215</ele>
        <time>2018-02-18T10:32:55Z</time>
      </trkpt>
      <trkpt lat="45.87316" lon="4.64991">
        <ele>215</ele>
        <time>2018-02-18T10:32:56Z</time>
      </trkpt>
      <trkpt lat="45.8732" lon="4.64985">
        <ele>215</ele>
        <time>2018-02-18T10:32:57Z</time>
      </trkpt>
      <trkpt lat="45.87323" lon="4.64979">
        <ele>215</ele>
        <time>2018-02-18T10:32:58Z</time>
      </trkpt>
      <trkpt lat="45.87326" lon="4.64973">
        <ele>214</ele>
        <time>2018-02-18T10:32:59Z</time>
      </trkpt>
      <trkpt lat="45.87329" lon="4.64968">
        <ele>214</ele>
        <time>2018-02-18T10:33:00Z</time>
      </trkpt>
      <trkpt lat="45.87334" lon="4.64958">
        <ele>218</ele>
        <time>2018-02-18T10:33:02Z</time>
      </trkpt>
      <trkpt lat="45.87337" lon="4.64952">
        <ele>218</ele>
        <time>2018-02-18T10:33:03Z</time>
      </trkpt>
      <trkpt lat="45.8734" lon="4.64947">
        <ele>217</ele>
        <time>2018-02-18T10:33:04Z</time>
      </trkpt>
      <trkpt lat="45.87343" lon="4.64941">
        <ele>217</ele>
        <time>2018-02-18T10:33:05Z</time>
      </trkpt>
      <trkpt lat="45.87345" lon="4.64935">
        <ele>216</ele>
        <time>2018-02-18T10:33:06Z</time>
      </trkpt>
      <trkpt lat="45.87349" lon="4.6493">
        <ele>216</ele>
        <time>2018-02-18T10:33:07Z</time>
      </trkpt>
      <trkpt lat="45.87352" lon="4.64923">
        <ele>216</ele>
        <time>2018-02-18T10:33:08Z</time>
      </trkpt>
      <trkpt lat="45.87355" lon="4.64918">
        <ele>216</ele>
        <time>2018-02-18T10:33:09Z</time>
      </trkpt>
      <trkpt lat="45.87359" lon="4.64913">
        <ele>214</ele>
        <time>2018-02-18T10:33:10Z</time>
      </trkpt>
      <trkpt lat="45.87363" lon="4.64908">
        <ele>214</ele>
        <time>2018-02-18T10:33:11Z</time>
      </trkpt>
      <trkpt lat="45.87367" lon="4.64902">
        <ele>214</ele>
        <time>2018-02-18T10:33:12Z</time>
      </trkpt>
      <trkpt lat="45.8737" lon="4.64897">
        <ele>215</ele>
        <time>2018-02-18T10:33:13Z</time>
      </trkpt>
      <trkpt lat="45.87373" lon="4.64892">
        <ele>215</ele>
        <time>2018-02-18T10:33:14Z</time>
      </trkpt>
      <trkpt lat="45.87376" lon="4.64887">
        <ele>215</ele>
        <time>2018-02-18T10:33:15Z</time>
      </trkpt>
      <trkpt lat="45.8738" lon="4.64882">
        <ele>215</ele>
        <time>2018-02-18T10:33:16Z</time>
      </trkpt>
      <trkpt lat="45.87383" lon="4.64878">
        <ele>215</ele>
        <time>2018-02-18T10:33:17Z</time>
      </trkpt>
      <trkpt lat="45.87386" lon="4.64875">
        <ele>215</ele>
        <time>2018-02-18T10:33:18Z</time>
      </trkpt>
      <trkpt lat="45.8739" lon="4.6487">
        <ele>215</ele>
        <time>2018-02-18T10:33:19Z</time>
      </trkpt>
      <trkpt lat="45.87397" lon="4.64864">
        <ele>215</ele>
        <time>2018-02-18T10:33:21Z</time>
      </trkpt>
      <trkpt lat="45.874" lon="4.64861">
        <ele>215</ele>
        <time>2018-02-18T10:33:22Z</time>
      </trkpt>
      <trkpt lat="45.87402" lon="4.64856">
        <ele>215</ele>
        <time>2018-02-18T10:33:23Z</time>
      </trkpt>
      <trkpt lat="45.87407" lon="4.64852">
        <ele>215</ele>
        <time>2018-02-18T10:33:24Z</time>
      </trkpt>
      <trkpt lat="45.87411" lon="4.64847">
        <ele>215</ele>
        <time>2018-02-18T10:33:25Z</time>
      </trkpt>
      <trkpt lat="45.87414" lon="4.64843">
        <ele>215</ele>
        <time>2018-02-18T10:33:26Z</time>
      </trkpt>
      <trkpt lat="45.87418" lon="4.64838">
        <ele>216</ele>
        <time>2018-02-18T10:33:27Z</time>
      </trkpt>
      <trkpt lat="45.87422" lon="4.64834">
        <ele>216</ele>
        <time>2018-02-18T10:33:28Z</time>
      </trkpt>
      <trkpt lat="45.87428" lon="4.64826">
        <ele>215</ele>
        <time>2018-02-18T10:33:30Z</time>
      </trkpt>
      <trkpt lat="45.87432" lon="4.64821">
        <ele>215</ele>
        <time>2018-02-18T10:33:31Z</time>
      </trkpt>
      <trkpt lat="45.87435" lon="4.64817">
        <ele>215</ele>
        <time>2018-02-18T10:33:32Z</time>
      </trkpt>
      <trkpt lat="45.87439" lon="4.64812">
        <ele>214</ele>
        <time>2018-02-18T10:33:33Z</time>
      </trkpt>
      <trkpt lat="45.87443" lon="4.64808">
        <ele>214</ele>
        <time>2018-02-18T10:33:34Z</time>
      </trkpt>
      <trkpt lat="45.87447" lon="4.64804">
        <ele>214</ele>
        <time>2018-02-18T10:33:35Z</time>
      </trkpt>
      <trkpt lat="45.87451" lon="4.648">
        <ele>214</ele>
        <time>2018-02-18T10:33:36Z</time>
      </trkpt>
      <trkpt lat="45.87454" lon="4.64796">
        <ele>214</ele>
        <time>2018-02-18T10:33:37Z</time>
      </trkpt>
      <trkpt lat="45.87458" lon="4.64792">
        <ele>214</ele>
        <time>2018-02-18T10:33:38Z</time>
      </trkpt>
      <trkpt lat="45.87462" lon="4.64787">
        <ele>214</ele>
        <time>2018-02-18T10:33:39Z</time>
      </trkpt>
      <trkpt lat="45.87467" lon="4.6478">
        <ele>214</ele>
        <time>2018-02-18T10:33:40Z</time>
      </trkpt>
      <trkpt lat="45.87471" lon="4.64775">
        <ele>214</ele>
        <time>2018-02-18T10:33:41Z</time>
      </trkpt>
      <trkpt lat="45.87474" lon="4.6477">
        <ele>214</ele>
        <time>2018-02-18T10:33:42Z</time>
      </trkpt>
      <trkpt lat="45.87477" lon="4.64764">
        <ele>214</ele>
        <time>2018-02-18T10:33:43Z</time>
      </trkpt>
      <trkpt lat="45.87482" lon="4.64759">
        <ele>214</ele>
        <time>2018-02-18T10:33:44Z</time>
      </trkpt>
      <trkpt lat="45.87485" lon="4.64753">
        <ele>213</ele>
        <time>2018-02-18T10:33:45Z</time>
      </trkpt>
      <trkpt lat="45.8749" lon="4.64748">
        <ele>213</ele>
        <time>2018-02-18T10:33:46Z</time>
      </trkpt>
      <trkpt lat="45.87494" lon="4.64743">
        <ele>213</ele>
        <time>2018-02-18T10:33:47Z</time>
      </trkpt>
      <trkpt lat="45.87497" lon="4.64738">
        <ele>213</ele>
        <time>2018-02-18T10:33:48Z</time>
      </trkpt>
      <trkpt lat="45.87501" lon="4.64734">
        <ele>213</ele>
        <time>2018-02-18T10:33:49Z</time>
      </trkpt>
      <trkpt lat="45.87506" lon="4.64728">
        <ele>213</ele>
        <time>2018-02-18T10:33:50Z</time>
      </trkpt>
      <trkpt lat="45.8751" lon="4.64723">
        <ele>213</ele>
        <time>2018-02-18T10:33:51Z</time>
      </trkpt>
      <trkpt lat="45.87514" lon="4.64718">
        <ele>212</ele>
        <time>2018-02-18T10:33:52Z</time>
      </trkpt>
      <trkpt lat="45.87518" lon="4.64713">
        <ele>212</ele>
        <time>2018-02-18T10:33:53Z</time>
      </trkpt>
      <trkpt lat="45.87521" lon="4.64708">
        <ele>212</ele>
        <time>2018-02-18T10:33:54Z</time>
      </trkpt>
      <trkpt lat="45.87525" lon="4.64704">
        <ele>212</ele>
        <time>2018-02-18T10:33:55Z</time>
      </trkpt>
      <trkpt lat="45.87531" lon="4.64696">
        <ele>212</ele>
        <time>2018-02-18T10:33:57Z</time>
      </trkpt>
      <trkpt lat="45.87534" lon="4.64692">
        <ele>212</ele>
        <time>2018-02-18T10:33:58Z</time>
      </trkpt>
      <trkpt lat="45.87538" lon="4.64686">
        <ele>212</ele>
        <time>2018-02-18T10:33:59Z</time>
      </trkpt>
      <trkpt lat="45.87542" lon="4.64681">
        <ele>212</ele>
        <time>2018-02-18T10:34:00Z</time>
      </trkpt>
      <trkpt lat="45.87545" lon="4.64676">
        <ele>212</ele>
        <time>2018-02-18T10:34:01Z</time>
      </trkpt>
      <trkpt lat="45.87549" lon="4.64672">
        <ele>212</ele>
        <time>2018-02-18T10:34:02Z</time>
      </trkpt>
      <trkpt lat="45.87553" lon="4.64667">
        <ele>212</ele>
        <time>2018-02-18T10:34:03Z</time>
      </trkpt>
      <trkpt lat="45.87557" lon="4.64663">
        <ele>212</ele>
        <time>2018-02-18T10:34:04Z</time>
      </trkpt>
      <trkpt lat="45.87563" lon="4.64654">
        <ele>212</ele>
        <time>2018-02-18T10:34:06Z</time>
      </trkpt>
      <trkpt lat="45.87567" lon="4.6465">
        <ele>212</ele>
        <time>2018-02-18T10:34:07Z</time>
      </trkpt>
      <trkpt lat="45.87573" lon="4.64642">
        <ele>212</ele>
        <time>2018-02-18T10:34:09Z</time>
      </trkpt>
      <trkpt lat="45.87576" lon="4.64637">
        <ele>212</ele>
        <time>2018-02-18T10:34:10Z</time>
      </trkpt>
      <trkpt lat="45.87579" lon="4.64632">
        <ele>212</ele>
        <time>2018-02-18T10:34:11Z</time>
      </trkpt>
      <trkpt lat="45.87583" lon="4.64627">
        <ele>212</ele>
        <time>2018-02-18T10:34:12Z</time>
      </trkpt>
      <trkpt lat="45.87587" lon="4.64623">
        <ele>212</ele>
        <time>2018-02-18T10:34:13Z</time>
      </trkpt>
      <trkpt lat="45.8759" lon="4.64619">
        <ele>212</ele>
        <time>2018-02-18T10:34:14Z</time>
      </trkpt>
      <trkpt lat="45.87597" lon="4.6461">
        <ele>212</ele>
        <time>2018-02-18T10:34:16Z</time>
      </trkpt>
      <trkpt lat="45.876" lon="4.64605">
        <ele>212</ele>
        <time>2018-02-18T10:34:17Z</time>
      </trkpt>
      <trkpt lat="45.87606" lon="4.64596">
        <ele>212</ele>
        <time>2018-02-18T10:34:19Z</time>
      </trkpt>
      <trkpt lat="45.8761" lon="4.64591">
        <ele>212</ele>
        <time>2018-02-18T10:34:20Z</time>
      </trkpt>
      <trkpt lat="45.87615" lon="4.64582">
        <ele>212</ele>
        <time>2018-02-18T10:34:22Z</time>
      </trkpt>
      <trkpt lat="45.87619" lon="4.64577">
        <ele>212</ele>
        <time>2018-02-18T10:34:23Z</time>
      </trkpt>
      <trkpt lat="45.87624" lon="4.64569">
        <ele>212</ele>
        <time>2018-02-18T10:34:25Z</time>
      </trkpt>
      <trkpt lat="45.87627" lon="4.64565">
        <ele>212</ele>
        <time>2018-02-18T10:34:26Z</time>
      </trkpt>
      <trkpt lat="45.87631" lon="4.64561">
        <ele>212</ele>
        <time>2018-02-18T10:34:27Z</time>
      </trkpt>
      <trkpt lat="45.87634" lon="4.64556">
        <ele>212</ele>
        <time>2018-02-18T10:34:28Z</time>
      </trkpt>
      <trkpt lat="45.8764" lon="4.64548">
        <ele>212</ele>
        <time>2018-02-18T10:34:30Z</time>
      </trkpt>
      <trkpt lat="45.87642" lon="4.64542">
        <ele>212</ele>
        <time>2018-02-18T10:34:31Z</time>
      </trkpt>
      <trkpt lat="45.87648" lon="4.64535">
        <ele>213</ele>
        <time>2018-02-18T10:34:33Z</time>
      </trkpt>
      <trkpt lat="45.87651" lon="4.6453">
        <ele>213</ele>
        <time>2018-02-18T10:34:34Z</time>
      </trkpt>
      <trkpt lat="45.87654" lon="4.64525">
        <ele>213</ele>
        <time>2018-02-18T10:34:35Z</time>
      </trkpt>
      <trkpt lat="45.87656" lon="4.64518">
        <ele>213</ele>
        <time>2018-02-18T10:34:36Z</time>
      </trkpt>
      <trkpt lat="45.87662" lon="4.64511">
        <ele>213</ele>
        <time>2018-02-18T10:34:38Z</time>
      </trkpt>
      <trkpt lat="45.87665" lon="4.64508">
        <ele>214</ele>
        <time>2018-02-18T10:34:39Z</time>
      </trkpt>
      <trkpt lat="45.87671" lon="4.64501">
        <ele>214</ele>
        <time>2018-02-18T10:34:41Z</time>
      </trkpt>
      <trkpt lat="45.87673" lon="4.64498">
        <ele>214</ele>
        <time>2018-02-18T10:34:42Z</time>
      </trkpt>
      <trkpt lat="45.87679" lon="4.64491">
        <ele>214</ele>
        <time>2018-02-18T10:34:44Z</time>
      </trkpt>
      <trkpt lat="45.87684" lon="4.64495">
        <ele>214</ele>
        <time>2018-02-18T10:34:45Z</time>
      </trkpt>
      <trkpt lat="45.8769" lon="4.64503">
        <ele>215</ele>
        <time>2018-02-18T10:34:47Z</time>
      </trkpt>
      <trkpt lat="45.87694" lon="4.64506">
        <ele>215</ele>
        <time>2018-02-18T10:34:48Z</time>
      </trkpt>
      <trkpt lat="45.87698" lon="4.64511">
        <ele>215</ele>
        <time>2018-02-18T10:34:49Z</time>
      </trkpt>
      <trkpt lat="45.87701" lon="4.64515">
        <ele>215</ele>
        <time>2018-02-18T10:34:50Z</time>
      </trkpt>
      <trkpt lat="45.87706" lon="4.64518">
        <ele>215</ele>
        <time>2018-02-18T10:34:51Z</time>
      </trkpt>
      <trkpt lat="45.8771" lon="4.64522">
        <ele>216</ele>
        <time>2018-02-18T10:34:52Z</time>
      </trkpt>
      <trkpt lat="45.87715" lon="4.64531">
        <ele>216</ele>
        <time>2018-02-18T10:34:54Z</time>
      </trkpt>
      <trkpt lat="45.87714" lon="4.64533">
        <ele>216</ele>
        <time>2018-02-18T10:34:55Z</time>
      </trkpt>
      <trkpt lat="45.87719" lon="4.64541">
        <ele>216</ele>
        <time>2018-02-18T10:34:57Z</time>
      </trkpt>
      <trkpt lat="45.87721" lon="4.64545">
        <ele>216</ele>
        <time>2018-02-18T10:34:58Z</time>
      </trkpt>
      <trkpt lat="45.87723" lon="4.64551">
        <ele>216</ele>
        <time>2018-02-18T10:34:59Z</time>
      </trkpt>
      <trkpt lat="45.87725" lon="4.64556">
        <ele>217</ele>
        <time>2018-02-18T10:35:00Z</time>
      </trkpt>
      <trkpt lat="45.87727" lon="4.64566">
        <ele>217</ele>
        <time>2018-02-18T10:35:02Z</time>
      </trkpt>
      <trkpt lat="45.87728" lon="4.64571">
        <ele>217</ele>
        <time>2018-02-18T10:35:03Z</time>
      </trkpt>
      <trkpt lat="45.87728" lon="4.64582">
        <ele>217</ele>
        <time>2018-02-18T10:35:05Z</time>
      </trkpt>
      <trkpt lat="45.87727" lon="4.64587">
        <ele>218</ele>
        <time>2018-02-18T10:35:06Z</time>
      </trkpt>
      <trkpt lat="45.87726" lon="4.64598">
        <ele>217</ele>
        <time>2018-02-18T10:35:08Z</time>
      </trkpt>
      <trkpt lat="45.87727" lon="4.64604">
        <ele>217</ele>
        <time>2018-02-18T10:35:09Z</time>
      </trkpt>
      <trkpt lat="45.87729" lon="4.6461">
        <ele>217</ele>
        <time>2018-02-18T10:35:10Z</time>
      </trkpt>
      <trkpt lat="45.87732" lon="4.64617">
        <ele>217</ele>
        <time>2018-02-18T10:35:11Z</time>
      </trkpt>
      <trkpt lat="45.87734" lon="4.64625">
        <ele>217</ele>
        <time>2018-02-18T10:35:12Z</time>
      </trkpt>
      <trkpt lat="45.87735" lon="4.64631">
        <ele>217</ele>
        <time>2018-02-18T10:35:13Z</time>
      </trkpt>
      <trkpt lat="45.87735" lon="4.6464">
        <ele>217</ele>
        <time>2018-02-18T10:35:15Z</time>
      </trkpt>
      <trkpt lat="45.87734" lon="4.64647">
        <ele>217</ele>
        <time>2018-02-18T10:35:16Z</time>
      </trkpt>
      <trkpt lat="45.87732" lon="4.64658">
        <ele>217</ele>
        <time>2018-02-18T10:35:18Z</time>
      </trkpt>
      <trkpt lat="45.8773" lon="4.64667">
        <ele>217</ele>
        <time>2018-02-18T10:35:19Z</time>
      </trkpt>
      <trkpt lat="45.87728" lon="4.64678">
        <ele>216</ele>
        <time>2018-02-18T10:35:21Z</time>
      </trkpt>
      <trkpt lat="45.87727" lon="4.64685">
        <ele>216</ele>
        <time>2018-02-18T10:35:22Z</time>
      </trkpt>
      <trkpt lat="45.87727" lon="4.64691">
        <ele>216</ele>
        <time>2018-02-18T10:35:23Z</time>
      </trkpt>
      <trkpt lat="45.87727" lon="4.64698">
        <ele>215</ele>
        <time>2018-02-18T10:35:24Z</time>
      </trkpt>
      <trkpt lat="45.87728" lon="4.64709">
        <ele>215</ele>
        <time>2018-02-18T10:35:26Z</time>
      </trkpt>
      <trkpt lat="45.87729" lon="4.64715">
        <ele>215</ele>
        <time>2018-02-18T10:35:27Z</time>
      </trkpt>
      <trkpt lat="45.8773" lon="4.64726">
        <ele>215</ele>
        <time>2018-02-18T10:35:29Z</time>
      </trkpt>
      <trkpt lat="45.87732" lon="4.64732">
        <ele>214</ele>
        <time>2018-02-18T10:35:30Z</time>
      </trkpt>
      <trkpt lat="45.8773" lon="4.6474">
        <ele>214</ele>
        <time>2018-02-18T10:35:31Z</time>
      </trkpt>
      <trkpt lat="45.87732" lon="4.64745">
        <ele>214</ele>
        <time>2018-02-18T10:35:32Z</time>
      </trkpt>
      <trkpt lat="45.87733" lon="4.64756">
        <ele>213</ele>
        <time>2018-02-18T10:35:34Z</time>
      </trkpt>
      <trkpt lat="45.87736" lon="4.6476">
        <ele>213</ele>
        <time>2018-02-18T10:35:35Z</time>
      </trkpt>
      <trkpt lat="45.87739" lon="4.64771">
        <ele>213</ele>
        <time>2018-02-18T10:35:37Z</time>
      </trkpt>
      <trkpt lat="45.87742" lon="4.64777">
        <ele>213</ele>
        <time>2018-02-18T10:35:38Z</time>
      </trkpt>
      <trkpt lat="45.87747" lon="4.64785">
        <ele>213</ele>
        <time>2018-02-18T10:35:40Z</time>
      </trkpt>
      <trkpt lat="45.8775" lon="4.64788">
        <ele>213</ele>
        <time>2018-02-18T10:35:41Z</time>
      </trkpt>
      <trkpt lat="45.87755" lon="4.64796">
        <ele>214</ele>
        <time>2018-02-18T10:35:43Z</time>
      </trkpt>
      <trkpt lat="45.87757" lon="4.648">
        <ele>214</ele>
        <time>2018-02-18T10:35:44Z</time>
      </trkpt>
      <trkpt lat="45.87762" lon="4.6481">
        <ele>214</ele>
        <time>2018-02-18T10:35:47Z</time>
      </trkpt>
      <trkpt lat="45.87763" lon="4.64813">
        <ele>214</ele>
        <time>2018-02-18T10:35:48Z</time>
      </trkpt>
      <trkpt lat="45.87768" lon="4.64821">
        <ele>214</ele>
        <time>2018-02-18T10:35:52Z</time>
      </trkpt>
      <trkpt lat="45.87769" lon="4.64824">
        <ele>214</ele>
        <time>2018-02-18T10:35:53Z</time>
      </trkpt>
      <trkpt lat="45.87773" lon="4.64832">
        <ele>214</ele>
        <time>2018-02-18T10:35:56Z</time>
      </trkpt>
      <trkpt lat="45.87775" lon="4.64835">
        <ele>217</ele>
        <time>2018-02-18T10:35:57Z</time>
      </trkpt>
      <trkpt lat="45.87779" lon="4.64842">
        <ele>217</ele>
        <time>2018-02-18T10:36:00Z</time>
      </trkpt>
      <trkpt lat="45.87781" lon="4.64845">
        <ele>217</ele>
        <time>2018-02-18T10:36:01Z</time>
      </trkpt>
      <trkpt lat="45.87785" lon="4.64855">
        <ele>218</ele>
        <time>2018-02-18T10:36:05Z</time>
      </trkpt>
      <trkpt lat="45.87786" lon="4.64858">
        <ele>218</ele>
        <time>2018-02-18T10:36:06Z</time>
      </trkpt>
      <trkpt lat="45.87791" lon="4.64869">
        <ele>218</ele>
        <time>2018-02-18T10:36:10Z</time>
      </trkpt>
      <trkpt lat="45.87792" lon="4.64871">
        <ele>218</ele>
        <time>2018-02-18T10:36:11Z</time>
      </trkpt>
      <trkpt lat="45.87797" lon="4.64881">
        <ele>219</ele>
        <time>2018-02-18T10:36:15Z</time>
      </trkpt>
      <trkpt lat="45.87797" lon="4.64884">
        <ele>219</ele>
        <time>2018-02-18T10:36:16Z</time>
      </trkpt>
      <trkpt lat="45.87802" lon="4.64894">
        <ele>219</ele>
        <time>2018-02-18T10:36:20Z</time>
      </trkpt>
      <trkpt lat="45.87803" lon="4.64897">
        <ele>219</ele>
        <time>2018-02-18T10:36:21Z</time>
      </trkpt>
      <trkpt lat="45.87809" lon="4.64907">
        <ele>220</ele>
        <time>2018-02-18T10:36:25Z</time>
      </trkpt>
      <trkpt lat="45.87811" lon="4.64908">
        <ele>220</ele>
        <time>2018-02-18T10:36:26Z</time>
      </trkpt>
      <trkpt lat="45.87817" lon="4.64917">
        <ele>221</ele>
        <time>2018-02-18T10:36:30Z</time>
      </trkpt>
      <trkpt lat="45.87818" lon="4.64919">
        <ele>224</ele>
        <time>2018-02-18T10:36:31Z</time>
      </trkpt>
      <trkpt lat="45.87821" lon="4.6493">
        <ele>224</ele>
        <time>2018-02-18T10:36:35Z</time>
      </trkpt>
      <trkpt lat="45.87821" lon="4.64933">
        <ele>224</ele>
        <time>2018-02-18T10:36:36Z</time>
      </trkpt>
      <trkpt lat="45.87826" lon="4.64943">
        <ele>225</ele>
        <time>2018-02-18T10:36:40Z</time>
      </trkpt>
      <trkpt lat="45.87828" lon="4.64944">
        <ele>225</ele>
        <time>2018-02-18T10:36:41Z</time>
      </trkpt>
      <trkpt lat="45.87835" lon="4.64948">
        <ele>227</ele>
        <time>2018-02-18T10:36:46Z</time>
      </trkpt>
      <trkpt lat="45.87836" lon="4.64949">
        <ele>227</ele>
        <time>2018-02-18T10:36:47Z</time>
      </trkpt>
      <trkpt lat="45.87844" lon="4.64954">
        <ele>228</ele>
        <time>2018-02-18T10:36:52Z</time>
      </trkpt>
      <trkpt lat="45.87845" lon="4.64955">
        <ele>228</ele>
        <time>2018-02-18T10:36:53Z</time>
      </trkpt>
      <trkpt lat="45.8785" lon="4.64965">
        <ele>229</ele>
        <time>2018-02-18T10:36:57Z</time>
      </trkpt>
      <trkpt lat="45.87852" lon="4.64967">
        <ele>229</ele>
        <time>2018-02-18T10:36:58Z</time>
      </trkpt>
      <trkpt lat="45.87859" lon="4.64971">
        <ele>229</ele>
        <time>2018-02-18T10:37:02Z</time>
      </trkpt>
      <trkpt lat="45.87861" lon="4.64972">
        <ele>229</ele>
        <time>2018-02-18T10:37:03Z</time>
      </trkpt>
      <trkpt lat="45.87868" lon="4.64976">
        <ele>230</ele>
        <time>2018-02-18T10:37:07Z</time>
      </trkpt>
      <trkpt lat="45.8787" lon="4.64977">
        <ele>230</ele>
        <time>2018-02-18T10:37:08Z</time>
      </trkpt>
      <trkpt lat="45.87878" lon="4.64978">
        <ele>230</ele>
        <time>2018-02-18T10:37:13Z</time>
      </trkpt>
      <trkpt lat="45.8788" lon="4.64979">
        <ele>230</ele>
        <time>2018-02-18T10:37:14Z</time>
      </trkpt>
      <trkpt lat="45.87888" lon="4.64982">
        <ele>231</ele>
        <time>2018-02-18T10:37:19Z</time>
      </trkpt>
      <trkpt lat="45.87889" lon="4.64982">
        <ele>231</ele>
        <time>2018-02-18T10:37:20Z</time>
      </trkpt>
      <trkpt lat="45.87898" lon="4.64981">
        <ele>232</ele>
        <time>2018-02-18T10:37:25Z</time>
      </trkpt>
      <trkpt lat="45.879" lon="4.64981">
        <ele>232</ele>
        <time>2018-02-18T10:37:26Z</time>
      </trkpt>
      <trkpt lat="45.87907" lon="4.64982">
        <ele>232</ele>
        <time>2018-02-18T10:37:31Z</time>
      </trkpt>
      <trkpt lat="45.87909" lon="4.64983">
        <ele>233</ele>
        <time>2018-02-18T10:37:32Z</time>
      </trkpt>
      <trkpt lat="45.87917" lon="4.6498">
        <ele>237</ele>
        <time>2018-02-18T10:37:36Z</time>
      </trkpt>
      <trkpt lat="45.87919" lon="4.64979">
        <ele>237</ele>
        <time>2018-02-18T10:37:37Z</time>
      </trkpt>
      <trkpt lat="45.87927" lon="4.6498">
        <ele>237</ele>
        <time>2018-02-18T10:37:42Z</time>
      </trkpt>
      <trkpt lat="45.87928" lon="4.6498">
        <ele>237</ele>
        <time>2018-02-18T10:37:43Z</time>
      </trkpt>
      <trkpt lat="45.87935" lon="4.64974">
        <ele>237</ele>
        <time>2018-02-18T10:37:49Z</time>
      </trkpt>
      <trkpt lat="45.87936" lon="4.64973">
        <ele>237</ele>
        <time>2018-02-18T10:37:50Z</time>
      </trkpt>
      <trkpt lat="45.87944" lon="4.64972">
        <ele>237</ele>
        <time>2018-02-18T10:37:54Z</time>
      </trkpt>
      <trkpt lat="45.87946" lon="4.64971">
        <ele>237</ele>
        <time>2018-02-18T10:37:55Z</time>
      </trkpt>
      <trkpt lat="45.87953" lon="4.64965">
        <ele>237</ele>
        <time>2018-02-18T10:38:01Z</time>
      </trkpt>
      <trkpt lat="45.87955" lon="4.64963">
        <ele>237</ele>
        <time>2018-02-18T10:38:02Z</time>
      </trkpt>
      <trkpt lat="45.87962" lon="4.64958">
        <ele>237</ele>
        <time>2018-02-18T10:38:06Z</time>
      </trkpt>
      <trkpt lat="45.87964" lon="4.64956">
        <ele>237</ele>
        <time>2018-02-18T10:38:07Z</time>
      </trkpt>
      <trkpt lat="45.87971" lon="4.64951">
        <ele>237</ele>
        <time>2018-02-18T10:38:11Z</time>
      </trkpt>
      <trkpt lat="45.87973" lon="4.64949">
        <ele>237</ele>
        <time>2018-02-18T10:38:12Z</time>
      </trkpt>
      <trkpt lat="45.87981" lon="4.64945">
        <ele>237</ele>
        <time>2018-02-18T10:38:16Z</time>
      </trkpt>
      <trkpt lat="45.87982" lon="4.64944">
        <ele>237</ele>
        <time>2018-02-18T10:38:17Z</time>
      </trkpt>
      <trkpt lat="45.87988" lon="4.64937">
        <ele>237</ele>
        <time>2018-02-18T10:38:21Z</time>
      </trkpt>
      <trkpt lat="45.87989" lon="4.64934">
        <ele>236</ele>
        <time>2018-02-18T10:38:22Z</time>
      </trkpt>
      <trkpt lat="45.87997" lon="4.6493">
        <ele>236</ele>
        <time>2018-02-18T10:38:26Z</time>
      </trkpt>
      <trkpt lat="45.87999" lon="4.64929">
        <ele>236</ele>
        <time>2018-02-18T10:38:27Z</time>
      </trkpt>
      <trkpt lat="45.88005" lon="4.64922">
        <ele>239</ele>
        <time>2018-02-18T10:38:32Z</time>
      </trkpt>
      <trkpt lat="45.88006" lon="4.6492">
        <ele>239</ele>
        <time>2018-02-18T10:38:33Z</time>
      </trkpt>
      <trkpt lat="45.88013" lon="4.64914">
        <ele>236</ele>
        <time>2018-02-18T10:38:38Z</time>
      </trkpt>
      <trkpt lat="45.88014" lon="4.64913">
        <ele>237</ele>
        <time>2018-02-18T10:38:39Z</time>
      </trkpt>
      <trkpt lat="45.88021" lon="4.64907">
        <ele>237</ele>
        <time>2018-02-18T10:38:45Z</time>
      </trkpt>
      <trkpt lat="45.88023" lon="4.64905">
        <ele>237</ele>
        <time>2018-02-18T10:38:46Z</time>
      </trkpt>
      <trkpt lat="45.88029" lon="4.64899">
        <ele>238</ele>
        <time>2018-02-18T10:38:50Z</time>
      </trkpt>
      <trkpt lat="45.8803" lon="4.64898">
        <ele>238</ele>
        <time>2018-02-18T10:38:51Z</time>
      </trkpt>
      <trkpt lat="45.88037" lon="4.64892">
        <ele>238</ele>
        <time>2018-02-18T10:38:56Z</time>
      </trkpt>
      <trkpt lat="45.88039" lon="4.64891">
        <ele>239</ele>
        <time>2018-02-18T10:38:57Z</time>
      </trkpt>
      <trkpt lat="45.88045" lon="4.64886">
        <ele>239</ele>
        <time>2018-02-18T10:39:01Z</time>
      </trkpt>
      <trkpt lat="45.88047" lon="4.64885">
        <ele>239</ele>
        <time>2018-02-18T10:39:02Z</time>
      </trkpt>
      <trkpt lat="45.88054" lon="4.64879">
        <ele>239</ele>
        <time>2018-02-18T10:39:06Z</time>
      </trkpt>
      <trkpt lat="45.88055" lon="4.64878">
        <ele>239</ele>
        <time>2018-02-18T10:39:07Z</time>
      </trkpt>
      <trkpt lat="45.88062" lon="4.64871">
        <ele>239</ele>
        <time>2018-02-18T10:39:12Z</time>
      </trkpt>
      <trkpt lat="45.88064" lon="4.6487">
        <ele>239</ele>
        <time>2018-02-18T10:39:13Z</time>
      </trkpt>
      <trkpt lat="45.88071" lon="4.64864">
        <ele>239</ele>
        <time>2018-02-18T10:39:18Z</time>
      </trkpt>
      <trkpt lat="45.88073" lon="4.64863">
        <ele>239</ele>
        <time>2018-02-18T10:39:19Z</time>
      </trkpt>
      <trkpt lat="45.88081" lon="4.6486">
        <ele>238</ele>
        <time>2018-02-18T10:39:23Z</time>
      </trkpt>
      <trkpt lat="45.88082" lon="4.64859">
        <ele>238</ele>
        <time>2018-02-18T10:39:24Z</time>
      </trkpt>
      <trkpt lat="45.88089" lon="4.64855">
        <ele>244</ele>
        <time>2018-02-18T10:39:28Z</time>
      </trkpt>
      <trkpt lat="45.88091" lon="4.64854">
        <ele>244</ele>
        <time>2018-02-18T10:39:29Z</time>
      </trkpt>
      <trkpt lat="45.88098" lon="4.64851">
        <ele>244</ele>
        <time>2018-02-18T10:39:33Z</time>
      </trkpt>
      <trkpt lat="45.881" lon="4.6485">
        <ele>244</ele>
        <time>2018-02-18T10:39:34Z</time>
      </trkpt>
      <trkpt lat="45.88108" lon="4.64849">
        <ele>245</ele>
        <time>2018-02-18T10:39:39Z</time>
      </trkpt>
      <trkpt lat="45.88109" lon="4.64849">
        <ele>245</ele>
        <time>2018-02-18T10:39:40Z</time>
      </trkpt>
      <trkpt lat="45.88117" lon="4.64845">
        <ele>246</ele>
        <time>2018-02-18T10:39:45Z</time>
      </trkpt>
      <trkpt lat="45.88119" lon="4.64844">
        <ele>246</ele>
        <time>2018-02-18T10:39:46Z</time>
      </trkpt>
      <trkpt lat="45.88127" lon="4.64842">
        <ele>247</ele>
        <time>2018-02-18T10:39:50Z</time>
      </trkpt>
      <trkpt lat="45.88129" lon="4.64842">
        <ele>247</ele>
        <time>2018-02-18T10:39:51Z</time>
      </trkpt>
      <trkpt lat="45.88138" lon="4.6484">
        <ele>247</ele>
        <time>2018-02-18T10:39:55Z</time>
      </trkpt>
      <trkpt lat="45.8814" lon="4.64839">
        <ele>247</ele>
        <time>2018-02-18T10:39:56Z</time>
      </trkpt>
      <trkpt lat="45.88147" lon="4.64838">
        <ele>247</ele>
        <time>2018-02-18T10:39:59Z</time>
      </trkpt>
      <trkpt lat="45.88149" lon="4.64838">
        <ele>247</ele>
        <time>2018-02-18T10:40:00Z</time>
      </trkpt>
      <trkpt lat="45.88158" lon="4.64836">
        <ele>246</ele>
        <time>2018-02-18T10:40:04Z</time>
      </trkpt>
      <trkpt lat="45.8816" lon="4.64835">
        <ele>246</ele>
        <time>2018-02-18T10:40:05Z</time>
      </trkpt>
      <trkpt lat="45.88167" lon="4.64833">
        <ele>245</ele>
        <time>2018-02-18T10:40:09Z</time>
      </trkpt>
      <trkpt lat="45.88169" lon="4.64833">
        <ele>245</ele>
        <time>2018-02-18T10:40:10Z</time>
      </trkpt>
      <trkpt lat="45.88177" lon="4.64834">
        <ele>249</ele>
        <time>2018-02-18T10:40:14Z</time>
      </trkpt>
      <trkpt lat="45.88179" lon="4.64834">
        <ele>250</ele>
        <time>2018-02-18T10:40:15Z</time>
      </trkpt>
      <trkpt lat="45.88186" lon="4.64832">
        <ele>245</ele>
        <time>2018-02-18T10:40:19Z</time>
      </trkpt>
      <trkpt lat="45.88188" lon="4.64831">
        <ele>245</ele>
        <time>2018-02-18T10:40:20Z</time>
      </trkpt>
      <trkpt lat="45.88196" lon="4.64828">
        <ele>245</ele>
        <time>2018-02-18T10:40:24Z</time>
      </trkpt>
      <trkpt lat="45.88198" lon="4.64827">
        <ele>245</ele>
        <time>2018-02-18T10:40:25Z</time>
      </trkpt>
      <trkpt lat="45.88207" lon="4.64826">
        <ele>246</ele>
        <time>2018-02-18T10:40:29Z</time>
      </trkpt>
      <trkpt lat="45.88209" lon="4.64826">
        <ele>246</ele>
        <time>2018-02-18T10:40:30Z</time>
      </trkpt>
      <trkpt lat="45.88216" lon="4.64825">
        <ele>247</ele>
        <time>2018-02-18T10:40:35Z</time>
      </trkpt>
      <trkpt lat="45.88218" lon="4.64825">
        <ele>247</ele>
        <time>2018-02-18T10:40:36Z</time>
      </trkpt>
      <trkpt lat="45.88226" lon="4.64825">
        <ele>248</ele>
        <time>2018-02-18T10:40:41Z</time>
      </trkpt>
      <trkpt lat="45.88228" lon="4.64824">
        <ele>249</ele>
        <time>2018-02-18T10:40:42Z</time>
      </trkpt>
      <trkpt lat="45.88235" lon="4.64819">
        <ele>249</ele>
        <time>2018-02-18T10:40:46Z</time>
      </trkpt>
      <trkpt lat="45.88237" lon="4.64819">
        <ele>250</ele>
        <time>2018-02-18T10:40:47Z</time>
      </trkpt>
      <trkpt lat="45.88245" lon="4.64815">
        <ele>250</ele>
        <time>2018-02-18T10:40:52Z</time>
      </trkpt>
      <trkpt lat="45.88246" lon="4.64813">
        <ele>249</ele>
        <time>2018-02-18T10:40:53Z</time>
      </trkpt>
      <trkpt lat="45.88254" lon="4.64811">
        <ele>256</ele>
        <time>2018-02-18T10:40:58Z</time>
      </trkpt>
      <trkpt lat="45.88255" lon="4.64811">
        <ele>256</ele>
        <time>2018-02-18T10:40:59Z</time>
      </trkpt>
      <trkpt lat="45.88263" lon="4.64809">
        <ele>257</ele>
        <time>2018-02-18T10:41:05Z</time>
      </trkpt>
      <trkpt lat="45.88264" lon="4.64808">
        <ele>257</ele>
        <time>2018-02-18T10:41:06Z</time>
      </trkpt>
      <trkpt lat="45.88272" lon="4.64805">
        <ele>257</ele>
        <time>2018-02-18T10:41:11Z</time>
      </trkpt>
      <trkpt lat="45.88273" lon="4.64804">
        <ele>257</ele>
        <time>2018-02-18T10:41:12Z</time>
      </trkpt>
      <trkpt lat="45.88282" lon="4.648">
        <ele>257</ele>
        <time>2018-02-18T10:41:19Z</time>
      </trkpt>
      <trkpt lat="45.88283" lon="4.64798">
        <ele>257</ele>
        <time>2018-02-18T10:41:20Z</time>
      </trkpt>
      <trkpt lat="45.88292" lon="4.64797">
        <ele>258</ele>
        <time>2018-02-18T10:41:26Z</time>
      </trkpt>
      <trkpt lat="45.88293" lon="4.64796">
        <ele>258</ele>
        <time>2018-02-18T10:41:27Z</time>
      </trkpt>
      <trkpt lat="45.88302" lon="4.64794">
        <ele>258</ele>
        <time>2018-02-18T10:41:32Z</time>
      </trkpt>
      <trkpt lat="45.88304" lon="4.64793">
        <ele>258</ele>
        <time>2018-02-18T10:41:33Z</time>
      </trkpt>
      <trkpt lat="45.88311" lon="4.64789">
        <ele>259</ele>
        <time>2018-02-18T10:41:37Z</time>
      </trkpt>
      <trkpt lat="45.88313" lon="4.64789">
        <ele>259</ele>
        <time>2018-02-18T10:41:38Z</time>
      </trkpt>
      <trkpt lat="45.88321" lon="4.64789">
        <ele>259</ele>
        <time>2018-02-18T10:41:42Z</time>
      </trkpt>
      <trkpt lat="45.88323" lon="4.64789">
        <ele>259</ele>
        <time>2018-02-18T10:41:43Z</time>
      </trkpt>
      <trkpt lat="45.88331" lon="4.64787">
        <ele>259</ele>
        <time>2018-02-18T10:41:47Z</time>
      </trkpt>
      <trkpt lat="45.88332" lon="4.64787">
        <ele>259</ele>
        <time>2018-02-18T10:41:48Z</time>
      </trkpt>
      <trkpt lat="45.88341" lon="4.64786">
        <ele>266</ele>
        <time>2018-02-18T10:41:53Z</time>
      </trkpt>
      <trkpt lat="45.88343" lon="4.64785">
        <ele>266</ele>
        <time>2018-02-18T10:41:54Z</time>
      </trkpt>
      <trkpt lat="45.8835" lon="4.64786">
        <ele>266</ele>
        <time>2018-02-18T10:41:58Z</time>
      </trkpt>
      <trkpt lat="45.88352" lon="4.64786">
        <ele>266</ele>
        <time>2018-02-18T10:41:59Z</time>
      </trkpt>
      <trkpt lat="45.88361" lon="4.64786">
        <ele>266</ele>
        <time>2018-02-18T10:42:04Z</time>
      </trkpt>
      <trkpt lat="45.88363" lon="4.64785">
        <ele>266</ele>
        <time>2018-02-18T10:42:05Z</time>
      </trkpt>
      <trkpt lat="45.88371" lon="4.64783">
        <ele>267</ele>
        <time>2018-02-18T10:42:10Z</time>
      </trkpt>
      <trkpt lat="45.88372" lon="4.64783">
        <ele>267</ele>
        <time>2018-02-18T10:42:11Z</time>
      </trkpt>
      <trkpt lat="45.88381" lon="4.64784">
        <ele>267</ele>
        <time>2018-02-18T10:42:16Z</time>
      </trkpt>
      <trkpt lat="45.88383" lon="4.64783">
        <ele>267</ele>
        <time>2018-02-18T10:42:17Z</time>
      </trkpt>
      <trkpt lat="45.88391" lon="4.64781">
        <ele>267</ele>
        <time>2018-02-18T10:42:21Z</time>
      </trkpt>
      <trkpt lat="45.88392" lon="4.64781">
        <ele>267</ele>
        <time>2018-02-18T10:42:22Z</time>
      </trkpt>
      <trkpt lat="45.88401" lon="4.64781">
        <ele>267</ele>
        <time>2018-02-18T10:42:26Z</time>
      </trkpt>
      <trkpt lat="45.88403" lon="4.64781">
        <ele>267</ele>
        <time>2018-02-18T10:42:27Z</time>
      </trkpt>
      <trkpt lat="45.88411" lon="4.6478">
        <ele>267</ele>
        <time>2018-02-18T10:42:32Z</time>
      </trkpt>
      <trkpt lat="45.88413" lon="4.6478">
        <ele>267</ele>
        <time>2018-02-18T10:42:33Z</time>
      </trkpt>
      <trkpt lat="45.8842" lon="4.64778">
        <ele>270</ele>
        <time>2018-02-18T10:42:36Z</time>
      </trkpt>
      <trkpt lat="45.88422" lon="4.64777">
        <ele>270</ele>
        <time>2018-02-18T10:42:37Z</time>
      </trkpt>
      <trkpt lat="45.8843" lon="4.64777">
        <ele>270</ele>
        <time>2018-02-18T10:42:42Z</time>
      </trkpt>
      <trkpt lat="45.88433" lon="4.64777">
        <ele>270</ele>
        <time>2018-02-18T10:42:43Z</time>
      </trkpt>
      <trkpt lat="45.88441" lon="4.64773">
        <ele>270</ele>
        <time>2018-02-18T10:42:47Z</time>
      </trkpt>
      <trkpt lat="45.88443" lon="4.64773">
        <ele>270</ele>
        <time>2018-02-18T10:42:48Z</time>
      </trkpt>
      <trkpt lat="45.88451" lon="4.6477">
        <ele>270</ele>
        <time>2018-02-18T10:42:53Z</time>
      </trkpt>
      <trkpt lat="45.88452" lon="4.64769">
        <ele>270</ele>
        <time>2018-02-18T10:42:54Z</time>
      </trkpt>
      <trkpt lat="45.8846" lon="4.64767">
        <ele>270</ele>
        <time>2018-02-18T10:42:58Z</time>
      </trkpt>
      <trkpt lat="45.88463" lon="4.64767">
        <ele>270</ele>
        <time>2018-02-18T10:42:59Z</time>
      </trkpt>
      <trkpt lat="45.8847" lon="4.64766">
        <ele>270</ele>
        <time>2018-02-18T10:43:03Z</time>
      </trkpt>
      <trkpt lat="45.88472" lon="4.64766">
        <ele>270</ele>
        <time>2018-02-18T10:43:04Z</time>
      </trkpt>
      <trkpt lat="45.88479" lon="4.64768">
        <ele>270</ele>
        <time>2018-02-18T10:43:08Z</time>
      </trkpt>
      <trkpt lat="45.88481" lon="4.64767">
        <ele>270</ele>
        <time>2018-02-18T10:43:09Z</time>
      </trkpt>
      <trkpt lat="45.88489" lon="4.64766">
        <ele>270</ele>
        <time>2018-02-18T10:43:13Z</time>
      </trkpt>
      <trkpt lat="45.8849" lon="4.64766">
        <ele>270</ele>
        <time>2018-02-18T10:43:14Z</time>
      </trkpt>
      <trkpt lat="45.88499" lon="4.64766">
        <ele>270</ele>
        <time>2018-02-18T10:43:19Z</time>
      </trkpt>
      <trkpt lat="45.88501" lon="4.64767">
        <ele>270</ele>
        <time>2018-02-18T10:43:20Z</time>
      </trkpt>
      <trkpt lat="45.88509" lon="4.64768">
        <ele>270</ele>
        <time>2018-02-18T10:43:23Z</time>
      </trkpt>
      <trkpt lat="45.88511" lon="4.64768">
        <ele>270</ele>
        <time>2018-02-18T10:43:24Z</time>
      </trkpt>
      <trkpt lat="45.8852" lon="4.64767">
        <ele>270</ele>
        <time>2018-02-18T10:43:28Z</time>
      </trkpt>
      <trkpt lat="45.88522" lon="4.64767">
        <ele>270</ele>
        <time>2018-02-18T10:43:29Z</time>
      </trkpt>
      <trkpt lat="45.88529" lon="4.64772">
        <ele>271</ele>
        <time>2018-02-18T10:43:33Z</time>
      </trkpt>
      <trkpt lat="45.88531" lon="4.64774">
        <ele>271</ele>
        <time>2018-02-18T10:43:34Z</time>
      </trkpt>
      <trkpt lat="45.88538" lon="4.6478">
        <ele>271</ele>
        <time>2018-02-18T10:43:39Z</time>
      </trkpt>
      <trkpt lat="45.88539" lon="4.64782">
        <ele>271</ele>
        <time>2018-02-18T10:43:40Z</time>
      </trkpt>
      <trkpt lat="45.88546" lon="4.6479">
        <ele>272</ele>
        <time>2018-02-18T10:43:45Z</time>
      </trkpt>
      <trkpt lat="45.88547" lon="4.64792">
        <ele>272</ele>
        <time>2018-02-18T10:43:46Z</time>
      </trkpt>
      <trkpt lat="45.8855" lon="4.64802">
        <ele>272</ele>
        <time>2018-02-18T10:43:49Z</time>
      </trkpt>
      <trkpt lat="45.88551" lon="4.64806">
        <ele>272</ele>
        <time>2018-02-18T10:43:50Z</time>
      </trkpt>
      <trkpt lat="45.88552" lon="4.64818">
        <ele>273</ele>
        <time>2018-02-18T10:43:54Z</time>
      </trkpt>
      <trkpt lat="45.88552" lon="4.64821">
        <ele>273</ele>
        <time>2018-02-18T10:43:55Z</time>
      </trkpt>
      <trkpt lat="45.88553" lon="4.64833">
        <ele>273</ele>
        <time>2018-02-18T10:44:00Z</time>
      </trkpt>
      <trkpt lat="45.88553" lon="4.64835">
        <ele>276</ele>
        <time>2018-02-18T10:44:01Z</time>
      </trkpt>
      <trkpt lat="45.88552" lon="4.64847">
        <ele>276</ele>
        <time>2018-02-18T10:44:06Z</time>
      </trkpt>
      <trkpt lat="45.88552" lon="4.64849">
        <ele>276</ele>
        <time>2018-02-18T10:44:07Z</time>
      </trkpt>
      <trkpt lat="45.88551" lon="4.6486">
        <ele>276</ele>
        <time>2018-02-18T10:44:12Z</time>
      </trkpt>
      <trkpt lat="45.88551" lon="4.64862">
        <ele>276</ele>
        <time>2018-02-18T10:44:13Z</time>
      </trkpt>
      <trkpt lat="45.8855" lon="4.64874">
        <ele>277</ele>
        <time>2018-02-18T10:44:18Z</time>
      </trkpt>
      <trkpt lat="45.88551" lon="4.64876">
        <ele>277</ele>
        <time>2018-02-18T10:44:19Z</time>
      </trkpt>
      <trkpt lat="45.8855" lon="4.64889">
        <ele>277</ele>
        <time>2018-02-18T10:44:25Z</time>
      </trkpt>
      <trkpt lat="45.88549" lon="4.64891">
        <ele>277</ele>
        <time>2018-02-18T10:44:26Z</time>
      </trkpt>
      <trkpt lat="45.88548" lon="4.64902">
        <ele>277</ele>
        <time>2018-02-18T10:44:31Z</time>
      </trkpt>
      <trkpt lat="45.88548" lon="4.64905">
        <ele>277</ele>
        <time>2018-02-18T10:44:32Z</time>
      </trkpt>
      <trkpt lat="45.88543" lon="4.64913">
        <ele>277</ele>
        <time>2018-02-18T10:44:36Z</time>
      </trkpt>
      <trkpt lat="45.88542" lon="4.64916">
        <ele>277</ele>
        <time>2018-02-18T10:44:37Z</time>
      </trkpt>
      <trkpt lat="45.88541" lon="4.64926">
        <ele>280</ele>
        <time>2018-02-18T10:44:41Z</time>
      </trkpt>
      <trkpt lat="45.8854" lon="4.64929">
        <ele>280</ele>
        <time>2018-02-18T10:44:42Z</time>
      </trkpt>
      <trkpt lat="45.88538" lon="4.6494">
        <ele>280</ele>
        <time>2018-02-18T10:44:46Z</time>
      </trkpt>
      <trkpt lat="45.88538" lon="4.64943">
        <ele>280</ele>
        <time>2018-02-18T10:44:47Z</time>
      </trkpt>
      <trkpt lat="45.88537" lon="4.64956">
        <ele>281</ele>
        <time>2018-02-18T10:44:51Z</time>
      </trkpt>
      <trkpt lat="45.88537" lon="4.64959">
        <ele>281</ele>
        <time>2018-02-18T10:44:52Z</time>
      </trkpt>
      <trkpt lat="45.88534" lon="4.64969">
        <ele>281</ele>
        <time>2018-02-18T10:44:56Z</time>
      </trkpt>
      <trkpt lat="45.88534" lon="4.64972">
        <ele>281</ele>
        <time>2018-02-18T10:44:57Z</time>
      </trkpt>
      <trkpt lat="45.88531" lon="4.64983">
        <ele>282</ele>
        <time>2018-02-18T10:45:02Z</time>
      </trkpt>
      <trkpt lat="45.8853" lon="4.64986">
        <ele>282</ele>
        <time>2018-02-18T10:45:03Z</time>
      </trkpt>
      <trkpt lat="45.88528" lon="4.64998">
        <ele>283</ele>
        <time>2018-02-18T10:45:08Z</time>
      </trkpt>
      <trkpt lat="45.88528" lon="4.65">
        <ele>285</ele>
        <time>2018-02-18T10:45:09Z</time>
      </trkpt>
      <trkpt lat="45.88526" lon="4.65012">
        <ele>285</ele>
        <time>2018-02-18T10:45:14Z</time>
      </trkpt>
      <trkpt lat="45.88526" lon="4.65014">
        <ele>285</ele>
        <time>2018-02-18T10:45:15Z</time>
      </trkpt>
      <trkpt lat="45.88524" lon="4.65026">
        <ele>285</ele>
        <time>2018-02-18T10:45:20Z</time>
      </trkpt>
      <trkpt lat="45.88523" lon="4.65029">
        <ele>285</ele>
        <time>2018-02-18T10:45:21Z</time>
      </trkpt>
      <trkpt lat="45.88522" lon="4.65039">
        <ele>285</ele>
        <time>2018-02-18T10:45:26Z</time>
      </trkpt>
      <trkpt lat="45.88521" lon="4.65042">
        <ele>285</ele>
        <time>2018-02-18T10:45:27Z</time>
      </trkpt>
      <trkpt lat="45.88518" lon="4.65052">
        <ele>285</ele>
        <time>2018-02-18T10:45:32Z</time>
      </trkpt>
      <trkpt lat="45.88517" lon="4.65054">
        <ele>286</ele>
        <time>2018-02-18T10:45:33Z</time>
      </trkpt>
      <trkpt lat="45.88513" lon="4.65063">
        <ele>286</ele>
        <time>2018-02-18T10:45:37Z</time>
      </trkpt>
      <trkpt lat="45.88511" lon="4.65065">
        <ele>287</ele>
        <time>2018-02-18T10:45:38Z</time>
      </trkpt>
      <trkpt lat="45.88507" lon="4.65074">
        <ele>288</ele>
        <time>2018-02-18T10:45:42Z</time>
      </trkpt>
      <trkpt lat="45.88507" lon="4.65077">
        <ele>288</ele>
        <time>2018-02-18T10:45:43Z</time>
      </trkpt>
      <trkpt lat="45.88502" lon="4.65086">
        <ele>290</ele>
        <time>2018-02-18T10:45:47Z</time>
      </trkpt>
      <trkpt lat="45.88501" lon="4.65088">
        <ele>289</ele>
        <time>2018-02-18T10:45:48Z</time>
      </trkpt>
      <trkpt lat="45.88495" lon="4.65096">
        <ele>292</ele>
        <time>2018-02-18T10:45:52Z</time>
      </trkpt>
      <trkpt lat="45.88493" lon="4.65099">
        <ele>292</ele>
        <time>2018-02-18T10:45:53Z</time>
      </trkpt>
      <trkpt lat="45.88488" lon="4.65108">
        <ele>293</ele>
        <time>2018-02-18T10:45:57Z</time>
      </trkpt>
      <trkpt lat="45.88486" lon="4.65111">
        <ele>293</ele>
        <time>2018-02-18T10:45:58Z</time>
      </trkpt>
      <trkpt lat="45.88481" lon="4.65116">
        <ele>293</ele>
        <time>2018-02-18T10:46:01Z</time>
      </trkpt>
      <trkpt lat="45.88479" lon="4.65118">
        <ele>293</ele>
        <time>2018-02-18T10:46:02Z</time>
      </trkpt>
      <trkpt lat="45.88473" lon="4.65124">
        <ele>294</ele>
        <time>2018-02-18T10:46:05Z</time>
      </trkpt>
      <trkpt lat="45.88472" lon="4.65126">
        <ele>294</ele>
        <time>2018-02-18T10:46:06Z</time>
      </trkpt>
      <trkpt lat="45.88466" lon="4.65135">
        <ele>294</ele>
        <time>2018-02-18T10:46:10Z</time>
      </trkpt>
      <trkpt lat="45.88465" lon="4.65137">
        <ele>294</ele>
        <time>2018-02-18T10:46:11Z</time>
      </trkpt>
      <trkpt lat="45.88459" lon="4.65146">
        <ele>294</ele>
        <time>2018-02-18T10:46:15Z</time>
      </trkpt>
      <trkpt lat="45.88457" lon="4.65148">
        <ele>295</ele>
        <time>2018-02-18T10:46:16Z</time>
      </trkpt>
      <trkpt lat="45.88451" lon="4.65155">
        <ele>295</ele>
        <time>2018-02-18T10:46:21Z</time>
      </trkpt>
      <trkpt lat="45.88449" lon="4.65156">
        <ele>295</ele>
        <time>2018-02-18T10:46:22Z</time>
      </trkpt>
      <trkpt lat="45.88442" lon="4.65162">
        <ele>296</ele>
        <time>2018-02-18T10:46:26Z</time>
      </trkpt>
      <trkpt lat="45.8844" lon="4.65164">
        <ele>296</ele>
        <time>2018-02-18T10:46:27Z</time>
      </trkpt>
      <trkpt lat="45.88435" lon="4.6517">
        <ele>298</ele>
        <time>2018-02-18T10:46:30Z</time>
      </trkpt>
      <trkpt lat="45.88433" lon="4.65172">
        <ele>298</ele>
        <time>2018-02-18T10:46:31Z</time>
      </trkpt>
      <trkpt lat="45.88425" lon="4.65178">
        <ele>298</ele>
        <time>2018-02-18T10:46:35Z</time>
      </trkpt>
      <trkpt lat="45.88424" lon="4.6518">
        <ele>298</ele>
        <time>2018-02-18T10:46:36Z</time>
      </trkpt>
      <trkpt lat="45.88417" lon="4.65186">
        <ele>298</ele>
        <time>2018-02-18T10:46:41Z</time>
      </trkpt>
      <trkpt lat="45.88415" lon="4.65187">
        <ele>299</ele>
        <time>2018-02-18T10:46:42Z</time>
      </trkpt>
      <trkpt lat="45.88409" lon="4.65195">
        <ele>299</ele>
        <time>2018-02-18T10:46:47Z</time>
      </trkpt>
      <trkpt lat="45.88408" lon="4.65197">
        <ele>299</ele>
        <time>2018-02-18T10:46:48Z</time>
      </trkpt>
      <trkpt lat="45.88402" lon="4.65204">
        <ele>300</ele>
        <time>2018-02-18T10:46:52Z</time>
      </trkpt>
      <trkpt lat="45.884" lon="4.65205">
        <ele>300</ele>
        <time>2018-02-18T10:46:53Z</time>
      </trkpt>
      <trkpt lat="45.88395" lon="4.65215">
        <ele>300</ele>
        <time>2018-02-18T10:46:59Z</time>
      </trkpt>
      <trkpt lat="45.88393" lon="4.65217">
        <ele>300</ele>
        <time>2018-02-18T10:47:00Z</time>
      </trkpt>
      <trkpt lat="45.88387" lon="4.65222">
        <ele>300</ele>
        <time>2018-02-18T10:47:03Z</time>
      </trkpt>
      <trkpt lat="45.88385" lon="4.65224">
        <ele>300</ele>
        <time>2018-02-18T10:47:04Z</time>
      </trkpt>
      <trkpt lat="45.88378" lon="4.65231">
        <ele>300</ele>
        <time>2018-02-18T10:47:08Z</time>
      </trkpt>
      <trkpt lat="45.88377" lon="4.65234">
        <ele>300</ele>
        <time>2018-02-18T10:47:09Z</time>
      </trkpt>
      <trkpt lat="45.88371" lon="4.65241">
        <ele>300</ele>
        <time>2018-02-18T10:47:13Z</time>
      </trkpt>
      <trkpt lat="45.88369" lon="4.65243">
        <ele>300</ele>
        <time>2018-02-18T10:47:14Z</time>
      </trkpt>
      <trkpt lat="45.88362" lon="4.65248">
        <ele>300</ele>
        <time>2018-02-18T10:47:18Z</time>
      </trkpt>
      <trkpt lat="45.88361" lon="4.65249">
        <ele>300</ele>
        <time>2018-02-18T10:47:19Z</time>
      </trkpt>
      <trkpt lat="45.88355" lon="4.65256">
        <ele>301</ele>
        <time>2018-02-18T10:47:23Z</time>
      </trkpt>
      <trkpt lat="45.88353" lon="4.65257">
        <ele>301</ele>
        <time>2018-02-18T10:47:24Z</time>
      </trkpt>
      <trkpt lat="45.88348" lon="4.65264">
        <ele>301</ele>
        <time>2018-02-18T10:47:28Z</time>
      </trkpt>
      <trkpt lat="45.88346" lon="4.65266">
        <ele>301</ele>
        <time>2018-02-18T10:47:29Z</time>
      </trkpt>
      <trkpt lat="45.88339" lon="4.65273">
        <ele>302</ele>
        <time>2018-02-18T10:47:33Z</time>
      </trkpt>
      <trkpt lat="45.88337" lon="4.65274">
        <ele>302</ele>
        <time>2018-02-18T10:47:34Z</time>
      </trkpt>
      <trkpt lat="45.8833" lon="4.65282">
        <ele>304</ele>
        <time>2018-02-18T10:47:38Z</time>
      </trkpt>
      <trkpt lat="45.88329" lon="4.65284">
        <ele>304</ele>
        <time>2018-02-18T10:47:39Z</time>
      </trkpt>
      <trkpt lat="45.88324" lon="4.65291">
        <ele>304</ele>
        <time>2018-02-18T10:47:42Z</time>
      </trkpt>
      <trkpt lat="45.88322" lon="4.65293">
        <ele>304</ele>
        <time>2018-02-18T10:47:43Z</time>
      </trkpt>
      <trkpt lat="45.88318" lon="4.65303">
        <ele>305</ele>
        <time>2018-02-18T10:47:47Z</time>
      </trkpt>
      <trkpt lat="45.88317" lon="4.65305">
        <ele>305</ele>
        <time>2018-02-18T10:47:48Z</time>
      </trkpt>
      <trkpt lat="45.88313" lon="4.65314">
        <ele>305</ele>
        <time>2018-02-18T10:47:53Z</time>
      </trkpt>
      <trkpt lat="45.88311" lon="4.65316">
        <ele>305</ele>
        <time>2018-02-18T10:47:54Z</time>
      </trkpt>
      <trkpt lat="45.88307" lon="4.65325">
        <ele>305</ele>
        <time>2018-02-18T10:47:58Z</time>
      </trkpt>
      <trkpt lat="45.88306" lon="4.65328">
        <ele>305</ele>
        <time>2018-02-18T10:47:59Z</time>
      </trkpt>
      <trkpt lat="45.88303" lon="4.6534">
        <ele>307</ele>
        <time>2018-02-18T10:48:04Z</time>
      </trkpt>
      <trkpt lat="45.88302" lon="4.65342">
        <ele>307</ele>
        <time>2018-02-18T10:48:05Z</time>
      </trkpt>
      <trkpt lat="45.88298" lon="4.65352">
        <ele>307</ele>
        <time>2018-02-18T10:48:09Z</time>
      </trkpt>
      <trkpt lat="45.88297" lon="4.65355">
        <ele>307</ele>
        <time>2018-02-18T10:48:10Z</time>
      </trkpt>
      <trkpt lat="45.88294" lon="4.65365">
        <ele>308</ele>
        <time>2018-02-18T10:48:14Z</time>
      </trkpt>
      <trkpt lat="45.88293" lon="4.65368">
        <ele>308</ele>
        <time>2018-02-18T10:48:15Z</time>
      </trkpt>
      <trkpt lat="45.88288" lon="4.65378">
        <ele>308</ele>
        <time>2018-02-18T10:48:19Z</time>
      </trkpt>
      <trkpt lat="45.88287" lon="4.6538">
        <ele>308</ele>
        <time>2018-02-18T10:48:20Z</time>
      </trkpt>
      <trkpt lat="45.88281" lon="4.6539">
        <ele>308</ele>
        <time>2018-02-18T10:48:24Z</time>
      </trkpt>
      <trkpt lat="45.8828" lon="4.65393">
        <ele>308</ele>
        <time>2018-02-18T10:48:25Z</time>
      </trkpt>
      <trkpt lat="45.88277" lon="4.65402">
        <ele>309</ele>
        <time>2018-02-18T10:48:29Z</time>
      </trkpt>
      <trkpt lat="45.88276" lon="4.65405">
        <ele>309</ele>
        <time>2018-02-18T10:48:30Z</time>
      </trkpt>
      <trkpt lat="45.88272" lon="4.65415">
        <ele>309</ele>
        <time>2018-02-18T10:48:34Z</time>
      </trkpt>
      <trkpt lat="45.88271" lon="4.65418">
        <ele>310</ele>
        <time>2018-02-18T10:48:35Z</time>
      </trkpt>
      <trkpt lat="45.88268" lon="4.65428">
        <ele>311</ele>
        <time>2018-02-18T10:48:39Z</time>
      </trkpt>
      <trkpt lat="45.88268" lon="4.65431">
        <ele>311</ele>
        <time>2018-02-18T10:48:40Z</time>
      </trkpt>
      <trkpt lat="45.88264" lon="4.65441">
        <ele>311</ele>
        <time>2018-02-18T10:48:44Z</time>
      </trkpt>
      <trkpt lat="45.88264" lon="4.65443">
        <ele>311</ele>
        <time>2018-02-18T10:48:45Z</time>
      </trkpt>
      <trkpt lat="45.88262" lon="4.65456">
        <ele>311</ele>
        <time>2018-02-18T10:48:50Z</time>
      </trkpt>
      <trkpt lat="45.88261" lon="4.65458">
        <ele>311</ele>
        <time>2018-02-18T10:48:51Z</time>
      </trkpt>
      <trkpt lat="45.88257" lon="4.65467">
        <ele>312</ele>
        <time>2018-02-18T10:48:55Z</time>
      </trkpt>
      <trkpt lat="45.88256" lon="4.6547">
        <ele>312</ele>
        <time>2018-02-18T10:48:56Z</time>
      </trkpt>
      <trkpt lat="45.88252" lon="4.6548">
        <ele>312</ele>
        <time>2018-02-18T10:49:00Z</time>
      </trkpt>
      <trkpt lat="45.88251" lon="4.65483">
        <ele>313</ele>
        <time>2018-02-18T10:49:01Z</time>
      </trkpt>
      <trkpt lat="45.88249" lon="4.65494">
        <ele>315</ele>
        <time>2018-02-18T10:49:05Z</time>
      </trkpt>
      <trkpt lat="45.88249" lon="4.65496">
        <ele>315</ele>
        <time>2018-02-18T10:49:06Z</time>
      </trkpt>
      <trkpt lat="45.88245" lon="4.65507">
        <ele>317</ele>
        <time>2018-02-18T10:49:10Z</time>
      </trkpt>
      <trkpt lat="45.88244" lon="4.6551">
        <ele>317</ele>
        <time>2018-02-18T10:49:11Z</time>
      </trkpt>
      <trkpt lat="45.8824" lon="4.65519">
        <ele>318</ele>
        <time>2018-02-18T10:49:15Z</time>
      </trkpt>
      <trkpt lat="45.88239" lon="4.65522">
        <ele>318</ele>
        <time>2018-02-18T10:49:16Z</time>
      </trkpt>
      <trkpt lat="45.88235" lon="4.65532">
        <ele>319</ele>
        <time>2018-02-18T10:49:21Z</time>
      </trkpt>
      <trkpt lat="45.88234" lon="4.65535">
        <ele>319</ele>
        <time>2018-02-18T10:49:22Z</time>
      </trkpt>
      <trkpt lat="45.88229" lon="4.65543">
        <ele>320</ele>
        <time>2018-02-18T10:49:26Z</time>
      </trkpt>
      <trkpt lat="45.88228" lon="4.65546">
        <ele>320</ele>
        <time>2018-02-18T10:49:27Z</time>
      </trkpt>
      <trkpt lat="45.88225" lon="4.65555">
        <ele>320</ele>
        <time>2018-02-18T10:49:31Z</time>
      </trkpt>
      <trkpt lat="45.88225" lon="4.65558">
        <ele>320</ele>
        <time>2018-02-18T10:49:32Z</time>
      </trkpt>
      <trkpt lat="45.88223" lon="4.65568">
        <ele>320</ele>
        <time>2018-02-18T10:49:36Z</time>
      </trkpt>
      <trkpt lat="45.88221" lon="4.6557">
        <ele>320</ele>
        <time>2018-02-18T10:49:37Z</time>
      </trkpt>
      <trkpt lat="45.88218" lon="4.6558">
        <ele>321</ele>
        <time>2018-02-18T10:49:41Z</time>
      </trkpt>
      <trkpt lat="45.88217" lon="4.65583">
        <ele>321</ele>
        <time>2018-02-18T10:49:42Z</time>
      </trkpt>
      <trkpt lat="45.88212" lon="4.6559">
        <ele>321</ele>
        <time>2018-02-18T10:49:46Z</time>
      </trkpt>
      <trkpt lat="45.88211" lon="4.65593">
        <ele>321</ele>
        <time>2018-02-18T10:49:47Z</time>
      </trkpt>
      <trkpt lat="45.88209" lon="4.65602">
        <ele>321</ele>
        <time>2018-02-18T10:49:51Z</time>
      </trkpt>
      <trkpt lat="45.88208" lon="4.65605">
        <ele>321</ele>
        <time>2018-02-18T10:49:52Z</time>
      </trkpt>
      <trkpt lat="45.88205" lon="4.65616">
        <ele>321</ele>
        <time>2018-02-18T10:49:57Z</time>
      </trkpt>
      <trkpt lat="45.88205" lon="4.65619">
        <ele>321</ele>
        <time>2018-02-18T10:49:58Z</time>
      </trkpt>
      <trkpt lat="45.88201" lon="4.65629">
        <ele>321</ele>
        <time>2018-02-18T10:50:02Z</time>
      </trkpt>
      <trkpt lat="45.882" lon="4.65631">
        <ele>321</ele>
        <time>2018-02-18T10:50:03Z</time>
      </trkpt>
      <trkpt lat="45.88196" lon="4.65641">
        <ele>322</ele>
        <time>2018-02-18T10:50:07Z</time>
      </trkpt>
      <trkpt lat="45.88195" lon="4.65644">
        <ele>322</ele>
        <time>2018-02-18T10:50:08Z</time>
      </trkpt>
      <trkpt lat="45.8819" lon="4.65655">
        <ele>322</ele>
        <time>2018-02-18T10:50:12Z</time>
      </trkpt>
      <trkpt lat="45.88189" lon="4.65657">
        <ele>322</ele>
        <time>2018-02-18T10:50:13Z</time>
      </trkpt>
      <trkpt lat="45.88184" lon="4.65666">
        <ele>323</ele>
        <time>2018-02-18T10:50:17Z</time>
      </trkpt>
      <trkpt lat="45.88183" lon="4.65669">
        <ele>323</ele>
        <time>2018-02-18T10:50:18Z</time>
      </trkpt>
      <trkpt lat="45.88179" lon="4.65678">
        <ele>323</ele>
        <time>2018-02-18T10:50:22Z</time>
      </trkpt>
      <trkpt lat="45.88178" lon="4.6568">
        <ele>322</ele>
        <time>2018-02-18T10:50:23Z</time>
      </trkpt>
      <trkpt lat="45.88173" lon="4.6569">
        <ele>322</ele>
        <time>2018-02-18T10:50:27Z</time>
      </trkpt>
      <trkpt lat="45.88172" lon="4.65693">
        <ele>322</ele>
        <time>2018-02-18T10:50:28Z</time>
      </trkpt>
      <trkpt lat="45.88167" lon="4.65702">
        <ele>330</ele>
        <time>2018-02-18T10:50:32Z</time>
      </trkpt>
      <trkpt lat="45.88165" lon="4.65704">
        <ele>331</ele>
        <time>2018-02-18T10:50:33Z</time>
      </trkpt>
      <trkpt lat="45.8816" lon="4.65713">
        <ele>331</ele>
        <time>2018-02-18T10:50:37Z</time>
      </trkpt>
      <trkpt lat="45.88158" lon="4.65715">
        <ele>331</ele>
        <time>2018-02-18T10:50:38Z</time>
      </trkpt>
      <trkpt lat="45.88153" lon="4.65723">
        <ele>331</ele>
        <time>2018-02-18T10:50:42Z</time>
      </trkpt>
      <trkpt lat="45.88152" lon="4.65725">
        <ele>331</ele>
        <time>2018-02-18T10:50:43Z</time>
      </trkpt>
      <trkpt lat="45.88147" lon="4.65733">
        <ele>331</ele>
        <time>2018-02-18T10:50:47Z</time>
      </trkpt>
      <trkpt lat="45.88146" lon="4.65735">
        <ele>331</ele>
        <time>2018-02-18T10:50:48Z</time>
      </trkpt>
      <trkpt lat="45.88138" lon="4.65743">
        <ele>332</ele>
        <time>2018-02-18T10:50:53Z</time>
      </trkpt>
      <trkpt lat="45.88137" lon="4.65744">
        <ele>332</ele>
        <time>2018-02-18T10:50:54Z</time>
      </trkpt>
      <trkpt lat="45.88131" lon="4.65753">
        <ele>332</ele>
        <time>2018-02-18T10:50:59Z</time>
      </trkpt>
      <trkpt lat="45.8813" lon="4.65755">
        <ele>332</ele>
        <time>2018-02-18T10:51:00Z</time>
      </trkpt>
      <trkpt lat="45.88124" lon="4.65765">
        <ele>333</ele>
        <time>2018-02-18T10:51:05Z</time>
      </trkpt>
      <trkpt lat="45.88123" lon="4.65766">
        <ele>333</ele>
        <time>2018-02-18T10:51:06Z</time>
      </trkpt>
      <trkpt lat="45.88116" lon="4.65772">
        <ele>334</ele>
        <time>2018-02-18T10:51:11Z</time>
      </trkpt>
      <trkpt lat="45.88115" lon="4.65774">
        <ele>334</ele>
        <time>2018-02-18T10:51:12Z</time>
      </trkpt>
      <trkpt lat="45.88109" lon="4.65783">
        <ele>334</ele>
        <time>2018-02-18T10:51:17Z</time>
      </trkpt>
      <trkpt lat="45.88108" lon="4.65785">
        <ele>334</ele>
        <time>2018-02-18T10:51:18Z</time>
      </trkpt>
      <trkpt lat="45.88102" lon="4.65793">
        <ele>334</ele>
        <time>2018-02-18T10:51:23Z</time>
      </trkpt>
      <trkpt lat="45.88101" lon="4.65795">
        <ele>334</ele>
        <time>2018-02-18T10:51:24Z</time>
      </trkpt>
      <trkpt lat="45.88095" lon="4.65802">
        <ele>334</ele>
        <time>2018-02-18T10:51:28Z</time>
      </trkpt>
      <trkpt lat="45.88093" lon="4.65803">
        <ele>334</ele>
        <time>2018-02-18T10:51:29Z</time>
      </trkpt>
      <trkpt lat="45.88086" lon="4.65807">
        <ele>334</ele>
        <time>2018-02-18T10:51:33Z</time>
      </trkpt>
      <trkpt lat="45.88084" lon="4.65808">
        <ele>334</ele>
        <time>2018-02-18T10:51:34Z</time>
      </trkpt>
      <trkpt lat="45.88076" lon="4.65812">
        <ele>340</ele>
        <time>2018-02-18T10:51:39Z</time>
      </trkpt>
      <trkpt lat="45.88075" lon="4.65814">
        <ele>340</ele>
        <time>2018-02-18T10:51:40Z</time>
      </trkpt>
      <trkpt lat="45.88068" lon="4.6582">
        <ele>340</ele>
        <time>2018-02-18T10:51:44Z</time>
      </trkpt>
      <trkpt lat="45.88067" lon="4.65821">
        <ele>340</ele>
        <time>2018-02-18T10:51:45Z</time>
      </trkpt>
      <trkpt lat="45.8806" lon="4.65826">
        <ele>340</ele>
        <time>2018-02-18T10:51:49Z</time>
      </trkpt>
      <trkpt lat="45.88058" lon="4.65827">
        <ele>341</ele>
        <time>2018-02-18T10:51:50Z</time>
      </trkpt>
      <trkpt lat="45.88049" lon="4.65828">
        <ele>342</ele>
        <time>2018-02-18T10:51:54Z</time>
      </trkpt>
      <trkpt lat="45.88047" lon="4.65828">
        <ele>342</ele>
        <time>2018-02-18T10:51:55Z</time>
      </trkpt>
      <trkpt lat="45.8804" lon="4.6583">
        <ele>343</ele>
        <time>2018-02-18T10:51:59Z</time>
      </trkpt>
      <trkpt lat="45.88038" lon="4.65831">
        <ele>343</ele>
        <time>2018-02-18T10:52:00Z</time>
      </trkpt>
      <trkpt lat="45.8803" lon="4.65836">
        <ele>339</ele>
        <time>2018-02-18T10:52:05Z</time>
      </trkpt>
      <trkpt lat="45.88028" lon="4.65838">
        <ele>339</ele>
        <time>2018-02-18T10:52:06Z</time>
      </trkpt>
      <trkpt lat="45.8802" lon="4.65843">
        <ele>340</ele>
        <time>2018-02-18T10:52:09Z</time>
      </trkpt>
      <trkpt lat="45.88018" lon="4.65845">
        <ele>340</ele>
        <time>2018-02-18T10:52:10Z</time>
      </trkpt>
      <trkpt lat="45.8801" lon="4.6585">
        <ele>340</ele>
        <time>2018-02-18T10:52:14Z</time>
      </trkpt>
      <trkpt lat="45.88007" lon="4.65852">
        <ele>340</ele>
        <time>2018-02-18T10:52:15Z</time>
      </trkpt>
      <trkpt lat="45.88001" lon="4.65857">
        <ele>340</ele>
        <time>2018-02-18T10:52:18Z</time>
      </trkpt>
      <trkpt lat="45.87999" lon="4.65859">
        <ele>344</ele>
        <time>2018-02-18T10:52:19Z</time>
      </trkpt>
      <trkpt lat="45.87991" lon="4.65867">
        <ele>343</ele>
        <time>2018-02-18T10:52:22Z</time>
      </trkpt>
      <trkpt lat="45.87989" lon="4.6587">
        <ele>343</ele>
        <time>2018-02-18T10:52:23Z</time>
      </trkpt>
      <trkpt lat="45.87984" lon="4.65876">
        <ele>343</ele>
        <time>2018-02-18T10:52:25Z</time>
      </trkpt>
      <trkpt lat="45.87982" lon="4.65879">
        <ele>343</ele>
        <time>2018-02-18T10:52:26Z</time>
      </trkpt>
      <trkpt lat="45.87976" lon="4.65886">
        <ele>343</ele>
        <time>2018-02-18T10:52:29Z</time>
      </trkpt>
      <trkpt lat="45.87974" lon="4.65888">
        <ele>343</ele>
        <time>2018-02-18T10:52:30Z</time>
      </trkpt>
      <trkpt lat="45.87969" lon="4.65894">
        <ele>343</ele>
        <time>2018-02-18T10:52:32Z</time>
      </trkpt>
      <trkpt lat="45.87967" lon="4.65897">
        <ele>343</ele>
        <time>2018-02-18T10:52:33Z</time>
      </trkpt>
      <trkpt lat="45.87963" lon="4.65903">
        <ele>343</ele>
        <time>2018-02-18T10:52:35Z</time>
      </trkpt>
      <trkpt lat="45.8796" lon="4.65906">
        <ele>343</ele>
        <time>2018-02-18T10:52:36Z</time>
      </trkpt>
      <trkpt lat="45.87955" lon="4.65916">
        <ele>343</ele>
        <time>2018-02-18T10:52:39Z</time>
      </trkpt>
      <trkpt lat="45.87953" lon="4.65919">
        <ele>340</ele>
        <time>2018-02-18T10:52:40Z</time>
      </trkpt>
      <trkpt lat="45.87948" lon="4.65927">
        <ele>341</ele>
        <time>2018-02-18T10:52:43Z</time>
      </trkpt>
      <trkpt lat="45.87946" lon="4.6593">
        <ele>341</ele>
        <time>2018-02-18T10:52:44Z</time>
      </trkpt>
      <trkpt lat="45.8794" lon="4.65937">
        <ele>341</ele>
        <time>2018-02-18T10:52:47Z</time>
      </trkpt>
      <trkpt lat="45.87939" lon="4.6594">
        <ele>341</ele>
        <time>2018-02-18T10:52:48Z</time>
      </trkpt>
      <trkpt lat="45.87935" lon="4.65948">
        <ele>341</ele>
        <time>2018-02-18T10:52:51Z</time>
      </trkpt>
      <trkpt lat="45.87934" lon="4.65951">
        <ele>341</ele>
        <time>2018-02-18T10:52:52Z</time>
      </trkpt>
      <trkpt lat="45.8793" lon="4.65961">
        <ele>341</ele>
        <time>2018-02-18T10:52:55Z</time>
      </trkpt>
      <trkpt lat="45.87929" lon="4.65964">
        <ele>341</ele>
        <time>2018-02-18T10:52:56Z</time>
      </trkpt>
      <trkpt lat="45.87927" lon="4.65974">
        <ele>341</ele>
        <time>2018-02-18T10:52:59Z</time>
      </trkpt>
      <trkpt lat="45.87927" lon="4.65977">
        <ele>341</ele>
        <time>2018-02-18T10:53:00Z</time>
      </trkpt>
      <trkpt lat="45.87926" lon="4.65987">
        <ele>342</ele>
        <time>2018-02-18T10:53:03Z</time>
      </trkpt>
      <trkpt lat="45.87926" lon="4.6599">
        <ele>342</ele>
        <time>2018-02-18T10:53:04Z</time>
      </trkpt>
      <trkpt lat="45.87927" lon="4.66">
        <ele>342</ele>
        <time>2018-02-18T10:53:07Z</time>
      </trkpt>
      <trkpt lat="45.87927" lon="4.66004">
        <ele>342</ele>
        <time>2018-02-18T10:53:08Z</time>
      </trkpt>
      <trkpt lat="45.87927" lon="4.66014">
        <ele>342</ele>
        <time>2018-02-18T10:53:11Z</time>
      </trkpt>
      <trkpt lat="45.87927" lon="4.66017">
        <ele>342</ele>
        <time>2018-02-18T10:53:12Z</time>
      </trkpt>
      <trkpt lat="45.87927" lon="4.66027">
        <ele>342</ele>
        <time>2018-02-18T10:53:15Z</time>
      </trkpt>
      <trkpt lat="45.87927" lon="4.66031">
        <ele>342</ele>
        <time>2018-02-18T10:53:16Z</time>
      </trkpt>
      <trkpt lat="45.87927" lon="4.66043">
        <ele>342</ele>
        <time>2018-02-18T10:53:20Z</time>
      </trkpt>
      <trkpt lat="45.87926" lon="4.66046">
        <ele>342</ele>
        <time>2018-02-18T10:53:21Z</time>
      </trkpt>
      <trkpt lat="45.87925" lon="4.66058">
        <ele>342</ele>
        <time>2018-02-18T10:53:25Z</time>
      </trkpt>
      <trkpt lat="45.87925" lon="4.66061">
        <ele>342</ele>
        <time>2018-02-18T10:53:26Z</time>
      </trkpt>
      <trkpt lat="45.87925" lon="4.66074">
        <ele>343</ele>
        <time>2018-02-18T10:53:30Z</time>
      </trkpt>
      <trkpt lat="45.87925" lon="4.66077">
        <ele>343</ele>
        <time>2018-02-18T10:53:31Z</time>
      </trkpt>
      <trkpt lat="45.87924" lon="4.66087">
        <ele>345</ele>
        <time>2018-02-18T10:53:34Z</time>
      </trkpt>
      <trkpt lat="45.87924" lon="4.66091">
        <ele>345</ele>
        <time>2018-02-18T10:53:35Z</time>
      </trkpt>
      <trkpt lat="45.87923" lon="4.66102">
        <ele>346</ele>
        <time>2018-02-18T10:53:38Z</time>
      </trkpt>
      <trkpt lat="45.87923" lon="4.66105">
        <ele>346</ele>
        <time>2018-02-18T10:53:39Z</time>
      </trkpt>
      <trkpt lat="45.87923" lon="4.66118">
        <ele>347</ele>
        <time>2018-02-18T10:53:43Z</time>
      </trkpt>
      <trkpt lat="45.87923" lon="4.66121">
        <ele>348</ele>
        <time>2018-02-18T10:53:44Z</time>
      </trkpt>
      <trkpt lat="45.87925" lon="4.66133">
        <ele>348</ele>
        <time>2018-02-18T10:53:48Z</time>
      </trkpt>
      <trkpt lat="45.87927" lon="4.66135">
        <ele>349</ele>
        <time>2018-02-18T10:53:49Z</time>
      </trkpt>
      <trkpt lat="45.87934" lon="4.6614">
        <ele>349</ele>
        <time>2018-02-18T10:53:52Z</time>
      </trkpt>
      <trkpt lat="45.87937" lon="4.6614">
        <ele>349</ele>
        <time>2018-02-18T10:53:53Z</time>
      </trkpt>
      <trkpt lat="45.87945" lon="4.66141">
        <ele>349</ele>
        <time>2018-02-18T10:53:56Z</time>
      </trkpt>
      <trkpt lat="45.87947" lon="4.66141">
        <ele>349</ele>
        <time>2018-02-18T10:53:57Z</time>
      </trkpt>
      <trkpt lat="45.87954" lon="4.66142">
        <ele>348</ele>
        <time>2018-02-18T10:54:00Z</time>
      </trkpt>
      <trkpt lat="45.87957" lon="4.66143">
        <ele>348</ele>
        <time>2018-02-18T10:54:01Z</time>
      </trkpt>
      <trkpt lat="45.87964" lon="4.66142">
        <ele>348</ele>
        <time>2018-02-18T10:54:04Z</time>
      </trkpt>
      <trkpt lat="45.87967" lon="4.66142">
        <ele>348</ele>
        <time>2018-02-18T10:54:05Z</time>
      </trkpt>
      <trkpt lat="45.87975" lon="4.66143">
        <ele>348</ele>
        <time>2018-02-18T10:54:08Z</time>
      </trkpt>
      <trkpt lat="45.87978" lon="4.66142">
        <ele>348</ele>
        <time>2018-02-18T10:54:09Z</time>
      </trkpt>
      <trkpt lat="45.87984" lon="4.66142">
        <ele>348</ele>
        <time>2018-02-18T10:54:12Z</time>
      </trkpt>
      <trkpt lat="45.87987" lon="4.66143">
        <ele>348</ele>
        <time>2018-02-18T10:54:13Z</time>
      </trkpt>
      <trkpt lat="45.87993" lon="4.66143">
        <ele>349</ele>
        <time>2018-02-18T10:54:15Z</time>
      </trkpt>
      <trkpt lat="45.87996" lon="4.66143">
        <ele>349</ele>
        <time>2018-02-18T10:54:16Z</time>
      </trkpt>
      <trkpt lat="45.88005" lon="4.66143">
        <ele>348</ele>
        <time>2018-02-18T10:54:19Z</time>
      </trkpt>
      <trkpt lat="45.88008" lon="4.66142">
        <ele>348</ele>
        <time>2018-02-18T10:54:20Z</time>
      </trkpt>
      <trkpt lat="45.88016" lon="4.66141">
        <ele>348</ele>
        <time>2018-02-18T10:54:23Z</time>
      </trkpt>
      <trkpt lat="45.88019" lon="4.6614">
        <ele>348</ele>
        <time>2018-02-18T10:54:24Z</time>
      </trkpt>
      <trkpt lat="45.88027" lon="4.66141">
        <ele>348</ele>
        <time>2018-02-18T10:54:27Z</time>
      </trkpt>
      <trkpt lat="45.8803" lon="4.66141">
        <ele>348</ele>
        <time>2018-02-18T10:54:28Z</time>
      </trkpt>
      <trkpt lat="45.88038" lon="4.66141">
        <ele>348</ele>
        <time>2018-02-18T10:54:31Z</time>
      </trkpt>
      <trkpt lat="45.88041" lon="4.6614">
        <ele>348</ele>
        <time>2018-02-18T10:54:32Z</time>
      </trkpt>
      <trkpt lat="45.88049" lon="4.66138">
        <ele>348</ele>
        <time>2018-02-18T10:54:35Z</time>
      </trkpt>
      <trkpt lat="45.88052" lon="4.66138">
        <ele>348</ele>
        <time>2018-02-18T10:54:36Z</time>
      </trkpt>
      <trkpt lat="45.88058" lon="4.66137">
        <ele>348</ele>
        <time>2018-02-18T10:54:38Z</time>
      </trkpt>
      <trkpt lat="45.88061" lon="4.66137">
        <ele>348</ele>
        <time>2018-02-18T10:54:39Z</time>
      </trkpt>
      <trkpt lat="45.8807" lon="4.66136">
        <ele>348</ele>
        <time>2018-02-18T10:54:42Z</time>
      </trkpt>
      <trkpt lat="45.88072" lon="4.66136">
        <ele>348</ele>
        <time>2018-02-18T10:54:43Z</time>
      </trkpt>
      <trkpt lat="45.88079" lon="4.66136">
        <ele>348</ele>
        <time>2018-02-18T10:54:46Z</time>
      </trkpt>
      <trkpt lat="45.88082" lon="4.66135">
        <ele>348</ele>
        <time>2018-02-18T10:54:47Z</time>
      </trkpt>
      <trkpt lat="45.88089" lon="4.66135">
        <ele>349</ele>
        <time>2018-02-18T10:54:50Z</time>
      </trkpt>
      <trkpt lat="45.88091" lon="4.66134">
        <ele>349</ele>
        <time>2018-02-18T10:54:51Z</time>
      </trkpt>
      <trkpt lat="45.881" lon="4.66133">
        <ele>349</ele>
        <time>2018-02-18T10:54:54Z</time>
      </trkpt>
      <trkpt lat="45.88103" lon="4.66132">
        <ele>348</ele>
        <time>2018-02-18T10:54:55Z</time>
      </trkpt>
      <trkpt lat="45.88112" lon="4.66132">
        <ele>349</ele>
        <time>2018-02-18T10:54:58Z</time>
      </trkpt>
      <trkpt lat="45.88114" lon="4.66132">
        <ele>349</ele>
        <time>2018-02-18T10:54:59Z</time>
      </trkpt>
      <trkpt lat="45.88122" lon="4.6613">
        <ele>349</ele>
        <time>2018-02-18T10:55:02Z</time>
      </trkpt>
      <trkpt lat="45.88125" lon="4.6613">
        <ele>349</ele>
        <time>2018-02-18T10:55:03Z</time>
      </trkpt>
      <trkpt lat="45.88131" lon="4.6613">
        <ele>349</ele>
        <time>2018-02-18T10:55:05Z</time>
      </trkpt>
      <trkpt lat="45.88135" lon="4.6613">
        <ele>349</ele>
        <time>2018-02-18T10:55:06Z</time>
      </trkpt>
      <trkpt lat="45.88141" lon="4.66129">
        <ele>349</ele>
        <time>2018-02-18T10:55:08Z</time>
      </trkpt>
      <trkpt lat="45.88144" lon="4.66129">
        <ele>349</ele>
        <time>2018-02-18T10:55:09Z</time>
      </trkpt>
      <trkpt lat="45.88151" lon="4.66127">
        <ele>349</ele>
        <time>2018-02-18T10:55:11Z</time>
      </trkpt>
      <trkpt lat="45.88154" lon="4.66127">
        <ele>349</ele>
        <time>2018-02-18T10:55:12Z</time>
      </trkpt>
      <trkpt lat="45.8816" lon="4.66127">
        <ele>349</ele>
        <time>2018-02-18T10:55:14Z</time>
      </trkpt>
      <trkpt lat="45.88163" lon="4.66127">
        <ele>349</ele>
        <time>2018-02-18T10:55:15Z</time>
      </trkpt>
      <trkpt lat="45.88169" lon="4.66127">
        <ele>349</ele>
        <time>2018-02-18T10:55:17Z</time>
      </trkpt>
      <trkpt lat="45.88172" lon="4.66126">
        <ele>349</ele>
        <time>2018-02-18T10:55:18Z</time>
      </trkpt>
      <trkpt lat="45.88181" lon="4.66126">
        <ele>349</ele>
        <time>2018-02-18T10:55:21Z</time>
      </trkpt>
      <trkpt lat="45.88184" lon="4.66127">
        <ele>349</ele>
        <time>2018-02-18T10:55:22Z</time>
      </trkpt>
      <trkpt lat="45.88191" lon="4.66128">
        <ele>350</ele>
        <time>2018-02-18T10:55:25Z</time>
      </trkpt>
      <trkpt lat="45.88194" lon="4.66128">
        <ele>350</ele>
        <time>2018-02-18T10:55:26Z</time>
      </trkpt>
      <trkpt lat="45.88201" lon="4.66131">
        <ele>350</ele>
        <time>2018-02-18T10:55:29Z</time>
      </trkpt>
      <trkpt lat="45.88203" lon="4.66132">
        <ele>350</ele>
        <time>2018-02-18T10:55:30Z</time>
      </trkpt>
      <trkpt lat="45.88211" lon="4.66131">
        <ele>350</ele>
        <time>2018-02-18T10:55:33Z</time>
      </trkpt>
      <trkpt lat="45.88213" lon="4.66132">
        <ele>350</ele>
        <time>2018-02-18T10:55:34Z</time>
      </trkpt>
      <trkpt lat="45.88221" lon="4.66132">
        <ele>350</ele>
        <time>2018-02-18T10:55:37Z</time>
      </trkpt>
      <trkpt lat="45.88223" lon="4.66133">
        <ele>350</ele>
        <time>2018-02-18T10:55:38Z</time>
      </trkpt>
      <trkpt lat="45.88232" lon="4.66134">
        <ele>350</ele>
        <time>2018-02-18T10:55:41Z</time>
      </trkpt>
      <trkpt lat="45.88234" lon="4.66134">
        <ele>350</ele>
        <time>2018-02-18T10:55:42Z</time>
      </trkpt>
      <trkpt lat="45.88242" lon="4.66134">
        <ele>350</ele>
        <time>2018-02-18T10:55:45Z</time>
      </trkpt>
      <trkpt lat="45.88245" lon="4.66135">
        <ele>350</ele>
        <time>2018-02-18T10:55:46Z</time>
      </trkpt>
      <trkpt lat="45.88252" lon="4.66136">
        <ele>352</ele>
        <time>2018-02-18T10:55:49Z</time>
      </trkpt>
      <trkpt lat="45.88255" lon="4.66137">
        <ele>352</ele>
        <time>2018-02-18T10:55:50Z</time>
      </trkpt>
      <trkpt lat="45.88262" lon="4.66138">
        <ele>352</ele>
        <time>2018-02-18T10:55:53Z</time>
      </trkpt>
      <trkpt lat="45.88264" lon="4.66138">
        <ele>352</ele>
        <time>2018-02-18T10:55:54Z</time>
      </trkpt>
      <trkpt lat="45.88272" lon="4.66137">
        <ele>352</ele>
        <time>2018-02-18T10:55:58Z</time>
      </trkpt>
      <trkpt lat="45.88275" lon="4.66137">
        <ele>352</ele>
        <time>2018-02-18T10:55:59Z</time>
      </trkpt>
      <trkpt lat="45.88282" lon="4.66137">
        <ele>352</ele>
        <time>2018-02-18T10:56:02Z</time>
      </trkpt>
      <trkpt lat="45.88285" lon="4.66137">
        <ele>352</ele>
        <time>2018-02-18T10:56:03Z</time>
      </trkpt>
      <trkpt lat="45.88292" lon="4.66136">
        <ele>352</ele>
        <time>2018-02-18T10:56:06Z</time>
      </trkpt>
      <trkpt lat="45.88295" lon="4.66136">
        <ele>352</ele>
        <time>2018-02-18T10:56:07Z</time>
      </trkpt>
      <trkpt lat="45.88302" lon="4.66137">
        <ele>353</ele>
        <time>2018-02-18T10:56:10Z</time>
      </trkpt>
      <trkpt lat="45.88305" lon="4.66137">
        <ele>353</ele>
        <time>2018-02-18T10:56:11Z</time>
      </trkpt>
      <trkpt lat="45.88312" lon="4.66137">
        <ele>353</ele>
        <time>2018-02-18T10:56:14Z</time>
      </trkpt>
      <trkpt lat="45.88314" lon="4.66136">
        <ele>353</ele>
        <time>2018-02-18T10:56:15Z</time>
      </trkpt>
      <trkpt lat="45.88322" lon="4.66137">
        <ele>354</ele>
        <time>2018-02-18T10:56:19Z</time>
      </trkpt>
      <trkpt lat="45.88324" lon="4.66137">
        <ele>354</ele>
        <time>2018-02-18T10:56:20Z</time>
      </trkpt>
      <trkpt lat="45.88331" lon="4.66136">
        <ele>354</ele>
        <time>2018-02-18T10:56:23Z</time>
      </trkpt>
      <trkpt lat="45.88333" lon="4.66136">
        <ele>356</ele>
        <time>2018-02-18T10:56:24Z</time>
      </trkpt>
      <trkpt lat="45.88341" lon="4.66136">
        <ele>356</ele>
        <time>2018-02-18T10:56:27Z</time>
      </trkpt>
      <trkpt lat="45.88343" lon="4.66136">
        <ele>356</ele>
        <time>2018-02-18T10:56:28Z</time>
      </trkpt>
      <trkpt lat="45.8835" lon="4.66136">
        <ele>356</ele>
        <time>2018-02-18T10:56:31Z</time>
      </trkpt>
      <trkpt lat="45.88352" lon="4.66137">
        <ele>356</ele>
        <time>2018-02-18T10:56:32Z</time>
      </trkpt>
      <trkpt lat="45.88359" lon="4.66139">
        <ele>357</ele>
        <time>2018-02-18T10:56:35Z</time>
      </trkpt>
      <trkpt lat="45.88361" lon="4.6614">
        <ele>357</ele>
        <time>2018-02-18T10:56:36Z</time>
      </trkpt>
      <trkpt lat="45.88368" lon="4.66141">
        <ele>357</ele>
        <time>2018-02-18T10:56:39Z</time>
      </trkpt>
      <trkpt lat="45.8837" lon="4.6614">
        <ele>357</ele>
        <time>2018-02-18T10:56:40Z</time>
      </trkpt>
      <trkpt lat="45.88378" lon="4.6614">
        <ele>357</ele>
        <time>2018-02-18T10:56:44Z</time>
      </trkpt>
      <trkpt lat="45.88379" lon="4.6614">
        <ele>357</ele>
        <time>2018-02-18T10:56:45Z</time>
      </trkpt>
      <trkpt lat="45.88387" lon="4.66139">
        <ele>357</ele>
        <time>2018-02-18T10:56:50Z</time>
      </trkpt>
      <trkpt lat="45.88389" lon="4.66139">
        <ele>357</ele>
        <time>2018-02-18T10:56:51Z</time>
      </trkpt>
      <trkpt lat="45.88397" lon="4.6614">
        <ele>358</ele>
        <time>2018-02-18T10:56:56Z</time>
      </trkpt>
      <trkpt lat="45.88399" lon="4.6614">
        <ele>358</ele>
        <time>2018-02-18T10:56:57Z</time>
      </trkpt>
      <trkpt lat="45.88407" lon="4.66143">
        <ele>358</ele>
        <time>2018-02-18T10:57:02Z</time>
      </trkpt>
      <trkpt lat="45.88409" lon="4.66143">
        <ele>359</ele>
        <time>2018-02-18T10:57:03Z</time>
      </trkpt>
      <trkpt lat="45.88416" lon="4.66144">
        <ele>359</ele>
        <time>2018-02-18T10:57:07Z</time>
      </trkpt>
      <trkpt lat="45.88418" lon="4.66145">
        <ele>361</ele>
        <time>2018-02-18T10:57:08Z</time>
      </trkpt>
      <trkpt lat="45.88426" lon="4.66146">
        <ele>361</ele>
        <time>2018-02-18T10:57:13Z</time>
      </trkpt>
      <trkpt lat="45.88427" lon="4.66146">
        <ele>361</ele>
        <time>2018-02-18T10:57:14Z</time>
      </trkpt>
      <trkpt lat="45.88436" lon="4.66145">
        <ele>361</ele>
        <time>2018-02-18T10:57:19Z</time>
      </trkpt>
      <trkpt lat="45.88438" lon="4.66145">
        <ele>361</ele>
        <time>2018-02-18T10:57:20Z</time>
      </trkpt>
      <trkpt lat="45.88446" lon="4.66148">
        <ele>361</ele>
        <time>2018-02-18T10:57:25Z</time>
      </trkpt>
      <trkpt lat="45.88448" lon="4.66147">
        <ele>361</ele>
        <time>2018-02-18T10:57:26Z</time>
      </trkpt>
      <trkpt lat="45.88456" lon="4.66146">
        <ele>361</ele>
        <time>2018-02-18T10:57:31Z</time>
      </trkpt>
      <trkpt lat="45.88458" lon="4.66146">
        <ele>361</ele>
        <time>2018-02-18T10:57:32Z</time>
      </trkpt>
      <trkpt lat="45.88466" lon="4.66149">
        <ele>362</ele>
        <time>2018-02-18T10:57:36Z</time>
      </trkpt>
      <trkpt lat="45.88468" lon="4.6615">
        <ele>362</ele>
        <time>2018-02-18T10:57:37Z</time>
      </trkpt>
      <trkpt lat="45.88476" lon="4.66155">
        <ele>362</ele>
        <time>2018-02-18T10:57:42Z</time>
      </trkpt>
      <trkpt lat="45.88477" lon="4.66156">
        <ele>363</ele>
        <time>2018-02-18T10:57:43Z</time>
      </trkpt>
      <trkpt lat="45.88485" lon="4.66159">
        <ele>364</ele>
        <time>2018-02-18T10:57:48Z</time>
      </trkpt>
      <trkpt lat="45.88487" lon="4.6616">
        <ele>364</ele>
        <time>2018-02-18T10:57:49Z</time>
      </trkpt>
      <trkpt lat="45.88494" lon="4.66164">
        <ele>365</ele>
        <time>2018-02-18T10:57:53Z</time>
      </trkpt>
      <trkpt lat="45.88496" lon="4.66166">
        <ele>366</ele>
        <time>2018-02-18T10:57:54Z</time>
      </trkpt>
      <trkpt lat="45.88502" lon="4.66173">
        <ele>368</ele>
        <time>2018-02-18T10:57:58Z</time>
      </trkpt>
      <trkpt lat="45.88504" lon="4.66175">
        <ele>368</ele>
        <time>2018-02-18T10:57:59Z</time>
      </trkpt>
      <trkpt lat="45.88512" lon="4.66179">
        <ele>369</ele>
        <time>2018-02-18T10:58:04Z</time>
      </trkpt>
      <trkpt lat="45.88513" lon="4.66181">
        <ele>369</ele>
        <time>2018-02-18T10:58:05Z</time>
      </trkpt>
      <trkpt lat="45.88521" lon="4.66186">
        <ele>369</ele>
        <time>2018-02-18T10:58:09Z</time>
      </trkpt>
      <trkpt lat="45.88523" lon="4.66187">
        <ele>369</ele>
        <time>2018-02-18T10:58:10Z</time>
      </trkpt>
      <trkpt lat="45.88529" lon="4.66193">
        <ele>369</ele>
        <time>2018-02-18T10:58:14Z</time>
      </trkpt>
      <trkpt lat="45.8853" lon="4.66195">
        <ele>370</ele>
        <time>2018-02-18T10:58:15Z</time>
      </trkpt>
      <trkpt lat="45.88537" lon="4.66201">
        <ele>370</ele>
        <time>2018-02-18T10:58:19Z</time>
      </trkpt>
      <trkpt lat="45.88538" lon="4.66203">
        <ele>370</ele>
        <time>2018-02-18T10:58:20Z</time>
      </trkpt>
      <trkpt lat="45.88544" lon="4.6621">
        <ele>370</ele>
        <time>2018-02-18T10:58:24Z</time>
      </trkpt>
      <trkpt lat="45.88546" lon="4.66211">
        <ele>370</ele>
        <time>2018-02-18T10:58:25Z</time>
      </trkpt>
      <trkpt lat="45.88552" lon="4.66216">
        <ele>370</ele>
        <time>2018-02-18T10:58:29Z</time>
      </trkpt>
      <trkpt lat="45.88554" lon="4.66218">
        <ele>370</ele>
        <time>2018-02-18T10:58:30Z</time>
      </trkpt>
      <trkpt lat="45.88561" lon="4.66224">
        <ele>370</ele>
        <time>2018-02-18T10:58:34Z</time>
      </trkpt>
      <trkpt lat="45.88562" lon="4.66226">
        <ele>370</ele>
        <time>2018-02-18T10:58:35Z</time>
      </trkpt>
      <trkpt lat="45.88566" lon="4.66233">
        <ele>370</ele>
        <time>2018-02-18T10:58:38Z</time>
      </trkpt>
      <trkpt lat="45.88568" lon="4.66236">
        <ele>371</ele>
        <time>2018-02-18T10:58:39Z</time>
      </trkpt>
      <trkpt lat="45.88574" lon="4.66243">
        <ele>371</ele>
        <time>2018-02-18T10:58:43Z</time>
      </trkpt>
      <trkpt lat="45.88576" lon="4.66244">
        <ele>371</ele>
        <time>2018-02-18T10:58:44Z</time>
      </trkpt>
      <trkpt lat="45.88582" lon="4.6625">
        <ele>371</ele>
        <time>2018-02-18T10:58:48Z</time>
      </trkpt>
      <trkpt lat="45.88583" lon="4.66252">
        <ele>372</ele>
        <time>2018-02-18T10:58:49Z</time>
      </trkpt>
      <trkpt lat="45.8859" lon="4.6626">
        <ele>371</ele>
        <time>2018-02-18T10:58:54Z</time>
      </trkpt>
      <trkpt lat="45.88591" lon="4.66261">
        <ele>372</ele>
        <time>2018-02-18T10:58:55Z</time>
      </trkpt>
      <trkpt lat="45.88595" lon="4.66272">
        <ele>372</ele>
        <time>2018-02-18T10:59:00Z</time>
      </trkpt>
      <trkpt lat="45.88596" lon="4.66274">
        <ele>372</ele>
        <time>2018-02-18T10:59:01Z</time>
      </trkpt>
      <trkpt lat="45.886" lon="4.66284">
        <ele>373</ele>
        <time>2018-02-18T10:59:05Z</time>
      </trkpt>
      <trkpt lat="45.88601" lon="4.66286">
        <ele>373</ele>
        <time>2018-02-18T10:59:06Z</time>
      </trkpt>
      <trkpt lat="45.88606" lon="4.66293">
        <ele>373</ele>
        <time>2018-02-18T10:59:10Z</time>
      </trkpt>
      <trkpt lat="45.88608" lon="4.66295">
        <ele>373</ele>
        <time>2018-02-18T10:59:11Z</time>
      </trkpt>
      <trkpt lat="45.88613" lon="4.66303">
        <ele>373</ele>
        <time>2018-02-18T10:59:15Z</time>
      </trkpt>
      <trkpt lat="45.88614" lon="4.66305">
        <ele>374</ele>
        <time>2018-02-18T10:59:16Z</time>
      </trkpt>
      <trkpt lat="45.88618" lon="4.66314">
        <ele>374</ele>
        <time>2018-02-18T10:59:20Z</time>
      </trkpt>
      <trkpt lat="45.88619" lon="4.66316">
        <ele>374</ele>
        <time>2018-02-18T10:59:21Z</time>
      </trkpt>
      <trkpt lat="45.88622" lon="4.66326">
        <ele>374</ele>
        <time>2018-02-18T10:59:25Z</time>
      </trkpt>
      <trkpt lat="45.88623" lon="4.66329">
        <ele>374</ele>
        <time>2018-02-18T10:59:26Z</time>
      </trkpt>
      <trkpt lat="45.88628" lon="4.66339">
        <ele>380</ele>
        <time>2018-02-18T10:59:30Z</time>
      </trkpt>
      <trkpt lat="45.8863" lon="4.66341">
        <ele>380</ele>
        <time>2018-02-18T10:59:31Z</time>
      </trkpt>
      <trkpt lat="45.88635" lon="4.66349">
        <ele>380</ele>
        <time>2018-02-18T10:59:35Z</time>
      </trkpt>
      <trkpt lat="45.88637" lon="4.66351">
        <ele>380</ele>
        <time>2018-02-18T10:59:36Z</time>
      </trkpt>
      <trkpt lat="45.88642" lon="4.6636">
        <ele>380</ele>
        <time>2018-02-18T10:59:40Z</time>
      </trkpt>
      <trkpt lat="45.88644" lon="4.66362">
        <ele>380</ele>
        <time>2018-02-18T10:59:41Z</time>
      </trkpt>
      <trkpt lat="45.8865" lon="4.6637">
        <ele>381</ele>
        <time>2018-02-18T10:59:45Z</time>
      </trkpt>
      <trkpt lat="45.88651" lon="4.66372">
        <ele>381</ele>
        <time>2018-02-18T10:59:46Z</time>
      </trkpt>
      <trkpt lat="45.88656" lon="4.6638">
        <ele>381</ele>
        <time>2018-02-18T10:59:50Z</time>
      </trkpt>
      <trkpt lat="45.88658" lon="4.66382">
        <ele>381</ele>
        <time>2018-02-18T10:59:51Z</time>
      </trkpt>
      <trkpt lat="45.88664" lon="4.66388">
        <ele>382</ele>
        <time>2018-02-18T10:59:55Z</time>
      </trkpt>
      <trkpt lat="45.88669" lon="4.66392">
        <ele>378</ele>
        <time>2018-02-18T10:59:58Z</time>
      </trkpt>
      <trkpt lat="45.88676" lon="4.66399">
        <ele>379</ele>
        <time>2018-02-18T11:00:02Z</time>
      </trkpt>
      <trkpt lat="45.88678" lon="4.66401">
        <ele>379</ele>
        <time>2018-02-18T11:00:03Z</time>
      </trkpt>
      <trkpt lat="45.88685" lon="4.66406">
        <ele>379</ele>
        <time>2018-02-18T11:00:07Z</time>
      </trkpt>
      <trkpt lat="45.88687" lon="4.66408">
        <ele>379</ele>
        <time>2018-02-18T11:00:08Z</time>
      </trkpt>
      <trkpt lat="45.88694" lon="4.66415">
        <ele>378</ele>
        <time>2018-02-18T11:00:12Z</time>
      </trkpt>
      <trkpt lat="45.88695" lon="4.66416">
        <ele>378</ele>
        <time>2018-02-18T11:00:13Z</time>
      </trkpt>
      <trkpt lat="45.88702" lon="4.66423">
        <ele>384</ele>
        <time>2018-02-18T11:00:17Z</time>
      </trkpt>
      <trkpt lat="45.88703" lon="4.66425">
        <ele>384</ele>
        <time>2018-02-18T11:00:18Z</time>
      </trkpt>
      <trkpt lat="45.8871" lon="4.66432">
        <ele>383</ele>
        <time>2018-02-18T11:00:22Z</time>
      </trkpt>
      <trkpt lat="45.88711" lon="4.66433">
        <ele>383</ele>
        <time>2018-02-18T11:00:23Z</time>
      </trkpt>
      <trkpt lat="45.88718" lon="4.66439">
        <ele>383</ele>
        <time>2018-02-18T11:00:27Z</time>
      </trkpt>
      <trkpt lat="45.8872" lon="4.66441">
        <ele>383</ele>
        <time>2018-02-18T11:00:28Z</time>
      </trkpt>
      <trkpt lat="45.88727" lon="4.66448">
        <ele>384</ele>
        <time>2018-02-18T11:00:32Z</time>
      </trkpt>
      <trkpt lat="45.88728" lon="4.6645">
        <ele>384</ele>
        <time>2018-02-18T11:00:33Z</time>
      </trkpt>
      <trkpt lat="45.88735" lon="4.66457">
        <ele>384</ele>
        <time>2018-02-18T11:00:37Z</time>
      </trkpt>
      <trkpt lat="45.88736" lon="4.66459">
        <ele>384</ele>
        <time>2018-02-18T11:00:38Z</time>
      </trkpt>
      <trkpt lat="45.88742" lon="4.66466">
        <ele>385</ele>
        <time>2018-02-18T11:00:42Z</time>
      </trkpt>
      <trkpt lat="45.88743" lon="4.66468">
        <ele>385</ele>
        <time>2018-02-18T11:00:43Z</time>
      </trkpt>
      <trkpt lat="45.88749" lon="4.66475">
        <ele>385</ele>
        <time>2018-02-18T11:00:47Z</time>
      </trkpt>
      <trkpt lat="45.8875" lon="4.66478">
        <ele>383</ele>
        <time>2018-02-18T11:00:48Z</time>
      </trkpt>
      <trkpt lat="45.88757" lon="4.66485">
        <ele>384</ele>
        <time>2018-02-18T11:00:52Z</time>
      </trkpt>
      <trkpt lat="45.88758" lon="4.66487">
        <ele>384</ele>
        <time>2018-02-18T11:00:53Z</time>
      </trkpt>
      <trkpt lat="45.88763" lon="4.66493">
        <ele>384</ele>
        <time>2018-02-18T11:00:57Z</time>
      </trkpt>
      <trkpt lat="45.88765" lon="4.66495">
        <ele>384</ele>
        <time>2018-02-18T11:00:58Z</time>
      </trkpt>
      <trkpt lat="45.88772" lon="4.66502">
        <ele>389</ele>
        <time>2018-02-18T11:01:02Z</time>
      </trkpt>
      <trkpt lat="45.88773" lon="4.66504">
        <ele>389</ele>
        <time>2018-02-18T11:01:03Z</time>
      </trkpt>
      <trkpt lat="45.88778" lon="4.66511">
        <ele>390</ele>
        <time>2018-02-18T11:01:07Z</time>
      </trkpt>
      <trkpt lat="45.8878" lon="4.66513">
        <ele>390</ele>
        <time>2018-02-18T11:01:08Z</time>
      </trkpt>
      <trkpt lat="45.88785" lon="4.66523">
        <ele>390</ele>
        <time>2018-02-18T11:01:13Z</time>
      </trkpt>
      <trkpt lat="45.88786" lon="4.66525">
        <ele>391</ele>
        <time>2018-02-18T11:01:14Z</time>
      </trkpt>
      <trkpt lat="45.88793" lon="4.66531">
        <ele>391</ele>
        <time>2018-02-18T11:01:18Z</time>
      </trkpt>
      <trkpt lat="45.88794" lon="4.66532">
        <ele>391</ele>
        <time>2018-02-18T11:01:19Z</time>
      </trkpt>
      <trkpt lat="45.88801" lon="4.66536">
        <ele>391</ele>
        <time>2018-02-18T11:01:24Z</time>
      </trkpt>
      <trkpt lat="45.88803" lon="4.66538">
        <ele>391</ele>
        <time>2018-02-18T11:01:25Z</time>
      </trkpt>
      <trkpt lat="45.8881" lon="4.66545">
        <ele>392</ele>
        <time>2018-02-18T11:01:30Z</time>
      </trkpt>
      <trkpt lat="45.88812" lon="4.66546">
        <ele>392</ele>
        <time>2018-02-18T11:01:31Z</time>
      </trkpt>
      <trkpt lat="45.8882" lon="4.6655">
        <ele>392</ele>
        <time>2018-02-18T11:01:36Z</time>
      </trkpt>
      <trkpt lat="45.88821" lon="4.66551">
        <ele>392</ele>
        <time>2018-02-18T11:01:37Z</time>
      </trkpt>
      <trkpt lat="45.88829" lon="4.66553">
        <ele>393</ele>
        <time>2018-02-18T11:01:42Z</time>
      </trkpt>
      <trkpt lat="45.88831" lon="4.66554">
        <ele>393</ele>
        <time>2018-02-18T11:01:43Z</time>
      </trkpt>
      <trkpt lat="45.88838" lon="4.66558">
        <ele>391</ele>
        <time>2018-02-18T11:01:48Z</time>
      </trkpt>
      <trkpt lat="45.88839" lon="4.66559">
        <ele>391</ele>
        <time>2018-02-18T11:01:49Z</time>
      </trkpt>
      <trkpt lat="45.88846" lon="4.66563">
        <ele>392</ele>
        <time>2018-02-18T11:01:53Z</time>
      </trkpt>
      <trkpt lat="45.88848" lon="4.66565">
        <ele>392</ele>
        <time>2018-02-18T11:01:54Z</time>
      </trkpt>
      <trkpt lat="45.88853" lon="4.66572">
        <ele>392</ele>
        <time>2018-02-18T11:01:58Z</time>
      </trkpt>
      <trkpt lat="45.88855" lon="4.66573">
        <ele>392</ele>
        <time>2018-02-18T11:01:59Z</time>
      </trkpt>
      <trkpt lat="45.88862" lon="4.66579">
        <ele>392</ele>
        <time>2018-02-18T11:02:04Z</time>
      </trkpt>
      <trkpt lat="45.88864" lon="4.66581">
        <ele>392</ele>
        <time>2018-02-18T11:02:05Z</time>
      </trkpt>
      <trkpt lat="45.8887" lon="4.66588">
        <ele>399</ele>
        <time>2018-02-18T11:02:09Z</time>
      </trkpt>
      <trkpt lat="45.88872" lon="4.6659">
        <ele>399</ele>
        <time>2018-02-18T11:02:10Z</time>
      </trkpt>
      <trkpt lat="45.88877" lon="4.66598">
        <ele>399</ele>
        <time>2018-02-18T11:02:15Z</time>
      </trkpt>
      <trkpt lat="45.88879" lon="4.666">
        <ele>400</ele>
        <time>2018-02-18T11:02:16Z</time>
      </trkpt>
      <trkpt lat="45.88884" lon="4.66607">
        <ele>400</ele>
        <time>2018-02-18T11:02:21Z</time>
      </trkpt>
      <trkpt lat="45.88885" lon="4.66609">
        <ele>400</ele>
        <time>2018-02-18T11:02:22Z</time>
      </trkpt>
      <trkpt lat="45.8889" lon="4.66618">
        <ele>400</ele>
        <time>2018-02-18T11:02:31Z</time>
      </trkpt>
      <trkpt lat="45.88891" lon="4.66619">
        <ele>400</ele>
        <time>2018-02-18T11:02:32Z</time>
      </trkpt>
      <trkpt lat="45.88898" lon="4.66626">
        <ele>401</ele>
        <time>2018-02-18T11:02:36Z</time>
      </trkpt>
      <trkpt lat="45.88899" lon="4.66629">
        <ele>401</ele>
        <time>2018-02-18T11:02:37Z</time>
      </trkpt>
      <trkpt lat="45.88904" lon="4.66638">
        <ele>402</ele>
        <time>2018-02-18T11:02:41Z</time>
      </trkpt>
      <trkpt lat="45.88905" lon="4.6664">
        <ele>402</ele>
        <time>2018-02-18T11:02:42Z</time>
      </trkpt>
      <trkpt lat="45.88911" lon="4.66647">
        <ele>403</ele>
        <time>2018-02-18T11:02:46Z</time>
      </trkpt>
      <trkpt lat="45.88913" lon="4.66649">
        <ele>403</ele>
        <time>2018-02-18T11:02:47Z</time>
      </trkpt>
      <trkpt lat="45.88919" lon="4.66656">
        <ele>403</ele>
        <time>2018-02-18T11:02:51Z</time>
      </trkpt>
      <trkpt lat="45.8892" lon="4.66658">
        <ele>404</ele>
        <time>2018-02-18T11:02:52Z</time>
      </trkpt>
      <trkpt lat="45.88928" lon="4.66664">
        <ele>403</ele>
        <time>2018-02-18T11:02:56Z</time>
      </trkpt>
      <trkpt lat="45.8893" lon="4.66665">
        <ele>403</ele>
        <time>2018-02-18T11:02:57Z</time>
      </trkpt>
      <trkpt lat="45.88937" lon="4.66672">
        <ele>408</ele>
        <time>2018-02-18T11:03:02Z</time>
      </trkpt>
      <trkpt lat="45.88938" lon="4.66673">
        <ele>408</ele>
        <time>2018-02-18T11:03:03Z</time>
      </trkpt>
      <trkpt lat="45.88945" lon="4.66679">
        <ele>408</ele>
        <time>2018-02-18T11:03:08Z</time>
      </trkpt>
      <trkpt lat="45.88947" lon="4.6668">
        <ele>408</ele>
        <time>2018-02-18T11:03:09Z</time>
      </trkpt>
      <trkpt lat="45.88953" lon="4.66687">
        <ele>409</ele>
        <time>2018-02-18T11:03:13Z</time>
      </trkpt>
      <trkpt lat="45.88955" lon="4.66688">
        <ele>409</ele>
        <time>2018-02-18T11:03:14Z</time>
      </trkpt>
      <trkpt lat="45.88961" lon="4.66694">
        <ele>409</ele>
        <time>2018-02-18T11:03:18Z</time>
      </trkpt>
      <trkpt lat="45.88963" lon="4.66695">
        <ele>409</ele>
        <time>2018-02-18T11:03:19Z</time>
      </trkpt>
      <trkpt lat="45.88971" lon="4.66699">
        <ele>409</ele>
        <time>2018-02-18T11:03:23Z</time>
      </trkpt>
      <trkpt lat="45.88973" lon="4.667">
        <ele>409</ele>
        <time>2018-02-18T11:03:24Z</time>
      </trkpt>
      <trkpt lat="45.88981" lon="4.66703">
        <ele>409</ele>
        <time>2018-02-18T11:03:28Z</time>
      </trkpt>
      <trkpt lat="45.88984" lon="4.66703">
        <ele>409</ele>
        <time>2018-02-18T11:03:29Z</time>
      </trkpt>
      <trkpt lat="45.88992" lon="4.66706">
        <ele>409</ele>
        <time>2018-02-18T11:03:33Z</time>
      </trkpt>
      <trkpt lat="45.88993" lon="4.66707">
        <ele>409</ele>
        <time>2018-02-18T11:03:34Z</time>
      </trkpt>
      <trkpt lat="45.89002" lon="4.6671">
        <ele>407</ele>
        <time>2018-02-18T11:03:39Z</time>
      </trkpt>
      <trkpt lat="45.89004" lon="4.66711">
        <ele>407</ele>
        <time>2018-02-18T11:03:40Z</time>
      </trkpt>
      <trkpt lat="45.89012" lon="4.66715">
        <ele>407</ele>
        <time>2018-02-18T11:03:44Z</time>
      </trkpt>
      <trkpt lat="45.89015" lon="4.66717">
        <ele>407</ele>
        <time>2018-02-18T11:03:45Z</time>
      </trkpt>
      <trkpt lat="45.89023" lon="4.66721">
        <ele>407</ele>
        <time>2018-02-18T11:03:49Z</time>
      </trkpt>
      <trkpt lat="45.89025" lon="4.66723">
        <ele>407</ele>
        <time>2018-02-18T11:03:50Z</time>
      </trkpt>
      <trkpt lat="45.89031" lon="4.66726">
        <ele>407</ele>
        <time>2018-02-18T11:03:53Z</time>
      </trkpt>
      <trkpt lat="45.89034" lon="4.66727">
        <ele>407</ele>
        <time>2018-02-18T11:03:54Z</time>
      </trkpt>
      <trkpt lat="45.89039" lon="4.66727">
        <ele>407</ele>
        <time>2018-02-18T11:03:56Z</time>
      </trkpt>
      <trkpt lat="45.89048" lon="4.6674">
        <ele>407</ele>
        <time>2018-02-18T11:03:57Z</time>
      </trkpt>
      <trkpt lat="45.89056" lon="4.66746">
        <ele>407</ele>
        <time>2018-02-18T11:03:59Z</time>
      </trkpt>
      <trkpt lat="45.89058" lon="4.66749">
        <ele>407</ele>
        <time>2018-02-18T11:04:00Z</time>
      </trkpt>
      <trkpt lat="45.89066" lon="4.66754">
        <ele>412</ele>
        <time>2018-02-18T11:04:03Z</time>
      </trkpt>
      <trkpt lat="45.89067" lon="4.66755">
        <ele>411</ele>
        <time>2018-02-18T11:04:04Z</time>
      </trkpt>
      <trkpt lat="45.89072" lon="4.66766">
        <ele>412</ele>
        <time>2018-02-18T11:04:09Z</time>
      </trkpt>
      <trkpt lat="45.89075" lon="4.66767">
        <ele>412</ele>
        <time>2018-02-18T11:04:10Z</time>
      </trkpt>
      <trkpt lat="45.89081" lon="4.66771">
        <ele>412</ele>
        <time>2018-02-18T11:04:13Z</time>
      </trkpt>
      <trkpt lat="45.89083" lon="4.66772">
        <ele>412</ele>
        <time>2018-02-18T11:04:14Z</time>
      </trkpt>
      <trkpt lat="45.8909" lon="4.66777">
        <ele>410</ele>
        <time>2018-02-18T11:04:18Z</time>
      </trkpt>
      <trkpt lat="45.89092" lon="4.66779">
        <ele>410</ele>
        <time>2018-02-18T11:04:19Z</time>
      </trkpt>
      <trkpt lat="45.89098" lon="4.66782">
        <ele>410</ele>
        <time>2018-02-18T11:04:22Z</time>
      </trkpt>
      <trkpt lat="45.891" lon="4.66784">
        <ele>410</ele>
        <time>2018-02-18T11:04:23Z</time>
      </trkpt>
      <trkpt lat="45.89107" lon="4.66792">
        <ele>410</ele>
        <time>2018-02-18T11:04:26Z</time>
      </trkpt>
      <trkpt lat="45.8911" lon="4.66794">
        <ele>410</ele>
        <time>2018-02-18T11:04:27Z</time>
      </trkpt>
      <trkpt lat="45.89116" lon="4.66798">
        <ele>410</ele>
        <time>2018-02-18T11:04:30Z</time>
      </trkpt>
      <trkpt lat="45.89119" lon="4.66799">
        <ele>410</ele>
        <time>2018-02-18T11:04:31Z</time>
      </trkpt>
      <trkpt lat="45.89124" lon="4.66801">
        <ele>410</ele>
        <time>2018-02-18T11:04:33Z</time>
      </trkpt>
      <trkpt lat="45.89127" lon="4.66803">
        <ele>410</ele>
        <time>2018-02-18T11:04:34Z</time>
      </trkpt>
      <trkpt lat="45.89131" lon="4.66813">
        <ele>411</ele>
        <time>2018-02-18T11:04:37Z</time>
      </trkpt>
      <trkpt lat="45.89131" lon="4.66816">
        <ele>411</ele>
        <time>2018-02-18T11:04:38Z</time>
      </trkpt>
      <trkpt lat="45.89125" lon="4.66824">
        <ele>411</ele>
        <time>2018-02-18T11:09:36Z</time>
      </trkpt>
      <trkpt lat="45.89122" lon="4.66825">
        <ele>411</ele>
        <time>2018-02-18T11:09:37Z</time>
      </trkpt>
      <trkpt lat="45.8912" lon="4.66827">
        <ele>412</ele>
        <time>2018-02-18T11:10:14Z</time>
      </trkpt>
      <trkpt lat="45.8912" lon="4.66827">
        <ele>412</ele>
        <time>2018-02-18T11:10:15Z</time>
      </trkpt>
      <trkpt lat="45.89123" lon="4.66826">
        <ele>411</ele>
        <time>2018-02-18T11:11:58Z</time>
      </trkpt>
      <trkpt lat="45.89123" lon="4.66826">
        <ele>411</ele>
        <time>2018-02-18T11:11:59Z</time>
      </trkpt>
      <trkpt lat="45.89118" lon="4.66827">
        <ele>412</ele>
        <time>2018-02-18T11:15:18Z</time>
      </trkpt>
      <trkpt lat="45.89118" lon="4.66826">
        <ele>412</ele>
        <time>2018-02-18T11:15:19Z</time>
      </trkpt>
      <trkpt lat="45.89118" lon="4.66826">
        <ele>412</ele>
        <time>2018-02-18T11:15:20Z</time>
      </trkpt>
      <trkpt lat="45.89118" lon="4.66826">
        <ele>412</ele>
        <time>2018-02-18T11:15:21Z</time>
      </trkpt>
      <trkpt lat="45.89127" lon="4.66821">
        <ele>411</ele>
        <time>2018-02-18T11:21:10Z</time>
      </trkpt>
      <trkpt lat="45.89127" lon="4.6682">
        <ele>411</ele>
        <time>2018-02-18T11:21:11Z</time>
      </trkpt>
      <trkpt lat="45.8913" lon="4.66811">
        <ele>411</ele>
        <time>2018-02-18T11:21:14Z</time>
      </trkpt>
      <trkpt lat="45.89133" lon="4.66809">
        <ele>411</ele>
        <time>2018-02-18T11:21:15Z</time>
      </trkpt>
      <trkpt lat="45.8914" lon="4.66811">
        <ele>411</ele>
        <time>2018-02-18T11:21:18Z</time>
      </trkpt>
      <trkpt lat="45.89143" lon="4.66812">
        <ele>411</ele>
        <time>2018-02-18T11:21:19Z</time>
      </trkpt>
      <trkpt lat="45.8915" lon="4.66815">
        <ele>411</ele>
        <time>2018-02-18T11:21:21Z</time>
      </trkpt>
      <trkpt lat="45.89153" lon="4.66818">
        <ele>411</ele>
        <time>2018-02-18T11:21:22Z</time>
      </trkpt>
      <trkpt lat="45.89157" lon="4.66826">
        <ele>412</ele>
        <time>2018-02-18T11:21:25Z</time>
      </trkpt>
      <trkpt lat="45.89157" lon="4.6683">
        <ele>413</ele>
        <time>2018-02-18T11:21:26Z</time>
      </trkpt>
      <trkpt lat="45.89157" lon="4.66841">
        <ele>414</ele>
        <time>2018-02-18T11:21:29Z</time>
      </trkpt>
      <trkpt lat="45.89157" lon="4.66844">
        <ele>414</ele>
        <time>2018-02-18T11:21:30Z</time>
      </trkpt>
      <trkpt lat="45.89157" lon="4.66856">
        <ele>414</ele>
        <time>2018-02-18T11:21:33Z</time>
      </trkpt>
      <trkpt lat="45.89157" lon="4.66861">
        <ele>414</ele>
        <time>2018-02-18T11:21:34Z</time>
      </trkpt>
      <trkpt lat="45.89156" lon="4.6687">
        <ele>414</ele>
        <time>2018-02-18T11:21:36Z</time>
      </trkpt>
      <trkpt lat="45.89156" lon="4.66875">
        <ele>414</ele>
        <time>2018-02-18T11:21:37Z</time>
      </trkpt>
      <trkpt lat="45.89156" lon="4.66887">
        <ele>414</ele>
        <time>2018-02-18T11:21:39Z</time>
      </trkpt>
      <trkpt lat="45.89157" lon="4.66892">
        <ele>414</ele>
        <time>2018-02-18T11:21:40Z</time>
      </trkpt>
      <trkpt lat="45.89159" lon="4.66901">
        <ele>415</ele>
        <time>2018-02-18T11:21:42Z</time>
      </trkpt>
      <trkpt lat="45.89161" lon="4.66907">
        <ele>415</ele>
        <time>2018-02-18T11:21:43Z</time>
      </trkpt>
      <trkpt lat="45.89164" lon="4.66915">
        <ele>415</ele>
        <time>2018-02-18T11:21:45Z</time>
      </trkpt>
      <trkpt lat="45.89164" lon="4.6692">
        <ele>414</ele>
        <time>2018-02-18T11:21:46Z</time>
      </trkpt>
      <trkpt lat="45.89168" lon="4.66929">
        <ele>415</ele>
        <time>2018-02-18T11:21:48Z</time>
      </trkpt>
      <trkpt lat="45.89169" lon="4.66933">
        <ele>415</ele>
        <time>2018-02-18T11:21:49Z</time>
      </trkpt>
      <trkpt lat="45.89171" lon="4.66941">
        <ele>415</ele>
        <time>2018-02-18T11:21:51Z</time>
      </trkpt>
      <trkpt lat="45.89172" lon="4.66946">
        <ele>415</ele>
        <time>2018-02-18T11:21:52Z</time>
      </trkpt>
      <trkpt lat="45.89174" lon="4.66956">
        <ele>415</ele>
        <time>2018-02-18T11:21:55Z</time>
      </trkpt>
      <trkpt lat="45.8918" lon="4.66962">
        <ele>415</ele>
        <time>2018-02-18T11:21:56Z</time>
      </trkpt>
      <trkpt lat="45.89181" lon="4.66973">
        <ele>415</ele>
        <time>2018-02-18T11:21:58Z</time>
      </trkpt>
      <trkpt lat="45.89182" lon="4.66979">
        <ele>415</ele>
        <time>2018-02-18T11:21:59Z</time>
      </trkpt>
      <trkpt lat="45.89185" lon="4.6699">
        <ele>414</ele>
        <time>2018-02-18T11:22:01Z</time>
      </trkpt>
      <trkpt lat="45.89186" lon="4.66996">
        <ele>414</ele>
        <time>2018-02-18T11:22:02Z</time>
      </trkpt>
      <trkpt lat="45.89187" lon="4.67002">
        <ele>413</ele>
        <time>2018-02-18T11:22:03Z</time>
      </trkpt>
      <trkpt lat="45.89189" lon="4.67009">
        <ele>413</ele>
        <time>2018-02-18T11:22:04Z</time>
      </trkpt>
      <trkpt lat="45.89191" lon="4.67018">
        <ele>413</ele>
        <time>2018-02-18T11:22:06Z</time>
      </trkpt>
      <trkpt lat="45.89193" lon="4.67024">
        <ele>413</ele>
        <time>2018-02-18T11:22:07Z</time>
      </trkpt>
      <trkpt lat="45.89194" lon="4.67034">
        <ele>413</ele>
        <time>2018-02-18T11:22:09Z</time>
      </trkpt>
      <trkpt lat="45.89196" lon="4.6704">
        <ele>413</ele>
        <time>2018-02-18T11:22:10Z</time>
      </trkpt>
      <trkpt lat="45.89198" lon="4.67046">
        <ele>412</ele>
        <time>2018-02-18T11:22:11Z</time>
      </trkpt>
      <trkpt lat="45.89199" lon="4.67053">
        <ele>412</ele>
        <time>2018-02-18T11:22:12Z</time>
      </trkpt>
      <trkpt lat="45.89203" lon="4.67064">
        <ele>412</ele>
        <time>2018-02-18T11:22:14Z</time>
      </trkpt>
      <trkpt lat="45.89205" lon="4.6707">
        <ele>412</ele>
        <time>2018-02-18T11:22:15Z</time>
      </trkpt>
      <trkpt lat="45.89209" lon="4.67081">
        <ele>412</ele>
        <time>2018-02-18T11:22:17Z</time>
      </trkpt>
      <trkpt lat="45.89211" lon="4.67086">
        <ele>410</ele>
        <time>2018-02-18T11:22:18Z</time>
      </trkpt>
      <trkpt lat="45.89213" lon="4.67091">
        <ele>410</ele>
        <time>2018-02-18T11:22:19Z</time>
      </trkpt>
      <trkpt lat="45.89215" lon="4.67097">
        <ele>411</ele>
        <time>2018-02-18T11:22:20Z</time>
      </trkpt>
      <trkpt lat="45.89218" lon="4.67105">
        <ele>411</ele>
        <time>2018-02-18T11:22:21Z</time>
      </trkpt>
      <trkpt lat="45.89222" lon="4.6711">
        <ele>411</ele>
        <time>2018-02-18T11:22:22Z</time>
      </trkpt>
      <trkpt lat="45.89224" lon="4.67115">
        <ele>411</ele>
        <time>2018-02-18T11:22:23Z</time>
      </trkpt>
      <trkpt lat="45.89226" lon="4.67121">
        <ele>411</ele>
        <time>2018-02-18T11:22:24Z</time>
      </trkpt>
      <trkpt lat="45.89229" lon="4.67127">
        <ele>411</ele>
        <time>2018-02-18T11:22:25Z</time>
      </trkpt>
      <trkpt lat="45.89232" lon="4.67132">
        <ele>411</ele>
        <time>2018-02-18T11:22:26Z</time>
      </trkpt>
      <trkpt lat="45.89237" lon="4.67142">
        <ele>411</ele>
        <time>2018-02-18T11:22:28Z</time>
      </trkpt>
      <trkpt lat="45.8924" lon="4.67146">
        <ele>411</ele>
        <time>2018-02-18T11:22:29Z</time>
      </trkpt>
      <trkpt lat="45.89245" lon="4.67155">
        <ele>412</ele>
        <time>2018-02-18T11:22:31Z</time>
      </trkpt>
      <trkpt lat="45.89247" lon="4.67158">
        <ele>412</ele>
        <time>2018-02-18T11:22:32Z</time>
      </trkpt>
      <trkpt lat="45.8925" lon="4.67163">
        <ele>414</ele>
        <time>2018-02-18T11:22:33Z</time>
      </trkpt>
      <trkpt lat="45.89255" lon="4.67167">
        <ele>413</ele>
        <time>2018-02-18T11:22:34Z</time>
      </trkpt>
      <trkpt lat="45.89259" lon="4.6717">
        <ele>412</ele>
        <time>2018-02-18T11:22:35Z</time>
      </trkpt>
      <trkpt lat="45.89263" lon="4.67176">
        <ele>412</ele>
        <time>2018-02-18T11:22:36Z</time>
      </trkpt>
      <trkpt lat="45.89268" lon="4.6718">
        <ele>412</ele>
        <time>2018-02-18T11:22:37Z</time>
      </trkpt>
      <trkpt lat="45.89272" lon="4.67184">
        <ele>412</ele>
        <time>2018-02-18T11:22:38Z</time>
      </trkpt>
      <trkpt lat="45.89277" lon="4.67186">
        <ele>412</ele>
        <time>2018-02-18T11:22:39Z</time>
      </trkpt>
      <trkpt lat="45.89282" lon="4.67188">
        <ele>412</ele>
        <time>2018-02-18T11:22:40Z</time>
      </trkpt>
      <trkpt lat="45.89287" lon="4.6719">
        <ele>412</ele>
        <time>2018-02-18T11:22:41Z</time>
      </trkpt>
      <trkpt lat="45.89291" lon="4.67191">
        <ele>412</ele>
        <time>2018-02-18T11:22:42Z</time>
      </trkpt>
      <trkpt lat="45.89295" lon="4.67193">
        <ele>412</ele>
        <time>2018-02-18T11:22:43Z</time>
      </trkpt>
      <trkpt lat="45.89301" lon="4.67198">
        <ele>412</ele>
        <time>2018-02-18T11:22:44Z</time>
      </trkpt>
      <trkpt lat="45.89306" lon="4.67198">
        <ele>412</ele>
        <time>2018-02-18T11:22:45Z</time>
      </trkpt>
      <trkpt lat="45.8931" lon="4.67199">
        <ele>412</ele>
        <time>2018-02-18T11:22:46Z</time>
      </trkpt>
      <trkpt lat="45.89314" lon="4.67202">
        <ele>412</ele>
        <time>2018-02-18T11:22:47Z</time>
      </trkpt>
      <trkpt lat="45.89318" lon="4.67205">
        <ele>412</ele>
        <time>2018-02-18T11:22:48Z</time>
      </trkpt>
      <trkpt lat="45.89323" lon="4.67206">
        <ele>412</ele>
        <time>2018-02-18T11:22:49Z</time>
      </trkpt>
      <trkpt lat="45.89327" lon="4.6721">
        <ele>412</ele>
        <time>2018-02-18T11:22:50Z</time>
      </trkpt>
      <trkpt lat="45.89331" lon="4.6721">
        <ele>412</ele>
        <time>2018-02-18T11:22:51Z</time>
      </trkpt>
      <trkpt lat="45.89336" lon="4.67214">
        <ele>415</ele>
        <time>2018-02-18T11:22:52Z</time>
      </trkpt>
      <trkpt lat="45.89341" lon="4.67218">
        <ele>415</ele>
        <time>2018-02-18T11:22:53Z</time>
      </trkpt>
      <trkpt lat="45.89347" lon="4.67222">
        <ele>415</ele>
        <time>2018-02-18T11:22:54Z</time>
      </trkpt>
      <trkpt lat="45.89351" lon="4.67227">
        <ele>415</ele>
        <time>2018-02-18T11:22:55Z</time>
      </trkpt>
      <trkpt lat="45.89356" lon="4.67233">
        <ele>415</ele>
        <time>2018-02-18T11:22:56Z</time>
      </trkpt>
      <trkpt lat="45.8936" lon="4.67239">
        <ele>415</ele>
        <time>2018-02-18T11:22:57Z</time>
      </trkpt>
      <trkpt lat="45.89364" lon="4.67245">
        <ele>415</ele>
        <time>2018-02-18T11:22:58Z</time>
      </trkpt>
      <trkpt lat="45.89368" lon="4.67252">
        <ele>409</ele>
        <time>2018-02-18T11:22:59Z</time>
      </trkpt>
      <trkpt lat="45.89371" lon="4.67258">
        <ele>409</ele>
        <time>2018-02-18T11:23:00Z</time>
      </trkpt>
      <trkpt lat="45.89374" lon="4.67265">
        <ele>409</ele>
        <time>2018-02-18T11:23:01Z</time>
      </trkpt>
      <trkpt lat="45.89377" lon="4.67271">
        <ele>409</ele>
        <time>2018-02-18T11:23:02Z</time>
      </trkpt>
      <trkpt lat="45.8938" lon="4.67277">
        <ele>409</ele>
        <time>2018-02-18T11:23:03Z</time>
      </trkpt>
      <trkpt lat="45.89384" lon="4.67283">
        <ele>408</ele>
        <time>2018-02-18T11:23:04Z</time>
      </trkpt>
      <trkpt lat="45.89388" lon="4.67289">
        <ele>408</ele>
        <time>2018-02-18T11:23:05Z</time>
      </trkpt>
      <trkpt lat="45.89391" lon="4.67295">
        <ele>408</ele>
        <time>2018-02-18T11:23:06Z</time>
      </trkpt>
      <trkpt lat="45.89394" lon="4.67301">
        <ele>408</ele>
        <time>2018-02-18T11:23:07Z</time>
      </trkpt>
      <trkpt lat="45.89398" lon="4.67306">
        <ele>408</ele>
        <time>2018-02-18T11:23:08Z</time>
      </trkpt>
      <trkpt lat="45.89404" lon="4.67314">
        <ele>407</ele>
        <time>2018-02-18T11:23:10Z</time>
      </trkpt>
      <trkpt lat="45.89408" lon="4.6732">
        <ele>407</ele>
        <time>2018-02-18T11:23:11Z</time>
      </trkpt>
      <trkpt lat="45.89413" lon="4.67324">
        <ele>407</ele>
        <time>2018-02-18T11:23:12Z</time>
      </trkpt>
      <trkpt lat="45.89417" lon="4.6733">
        <ele>408</ele>
        <time>2018-02-18T11:23:13Z</time>
      </trkpt>
      <trkpt lat="45.89421" lon="4.67334">
        <ele>407</ele>
        <time>2018-02-18T11:23:14Z</time>
      </trkpt>
      <trkpt lat="45.89426" lon="4.67339">
        <ele>407</ele>
        <time>2018-02-18T11:23:15Z</time>
      </trkpt>
      <trkpt lat="45.89431" lon="4.67345">
        <ele>407</ele>
        <time>2018-02-18T11:23:16Z</time>
      </trkpt>
      <trkpt lat="45.89435" lon="4.6735">
        <ele>407</ele>
        <time>2018-02-18T11:23:17Z</time>
      </trkpt>
      <trkpt lat="45.89441" lon="4.67355">
        <ele>407</ele>
        <time>2018-02-18T11:23:18Z</time>
      </trkpt>
      <trkpt lat="45.89446" lon="4.6736">
        <ele>407</ele>
        <time>2018-02-18T11:23:19Z</time>
      </trkpt>
      <trkpt lat="45.89452" lon="4.67366">
        <ele>407</ele>
        <time>2018-02-18T11:23:20Z</time>
      </trkpt>
      <trkpt lat="45.89457" lon="4.6737">
        <ele>407</ele>
        <time>2018-02-18T11:23:21Z</time>
      </trkpt>
      <trkpt lat="45.89462" lon="4.67374">
        <ele>407</ele>
        <time>2018-02-18T11:23:22Z</time>
      </trkpt>
      <trkpt lat="45.89468" lon="4.67379">
        <ele>407</ele>
        <time>2018-02-18T11:23:23Z</time>
      </trkpt>
      <trkpt lat="45.89473" lon="4.67383">
        <ele>407</ele>
        <time>2018-02-18T11:23:24Z</time>
      </trkpt>
      <trkpt lat="45.89478" lon="4.67387">
        <ele>407</ele>
        <time>2018-02-18T11:23:25Z</time>
      </trkpt>
      <trkpt lat="45.89484" lon="4.6739">
        <ele>407</ele>
        <time>2018-02-18T11:23:26Z</time>
      </trkpt>
      <trkpt lat="45.89487" lon="4.67392">
        <ele>407</ele>
        <time>2018-02-18T11:23:27Z</time>
      </trkpt>
      <trkpt lat="45.89491" lon="4.67397">
        <ele>406</ele>
        <time>2018-02-18T11:23:28Z</time>
      </trkpt>
      <trkpt lat="45.89494" lon="4.67401">
        <ele>406</ele>
        <time>2018-02-18T11:23:29Z</time>
      </trkpt>
      <trkpt lat="45.89497" lon="4.67404">
        <ele>406</ele>
        <time>2018-02-18T11:23:30Z</time>
      </trkpt>
      <trkpt lat="45.89503" lon="4.67407">
        <ele>407</ele>
        <time>2018-02-18T11:23:31Z</time>
      </trkpt>
      <trkpt lat="45.8951" lon="4.67412">
        <ele>407</ele>
        <time>2018-02-18T11:23:32Z</time>
      </trkpt>
      <trkpt lat="45.89515" lon="4.67415">
        <ele>408</ele>
        <time>2018-02-18T11:23:33Z</time>
      </trkpt>
      <trkpt lat="45.89521" lon="4.67418">
        <ele>402</ele>
        <time>2018-02-18T11:23:34Z</time>
      </trkpt>
      <trkpt lat="45.89527" lon="4.67422">
        <ele>402</ele>
        <time>2018-02-18T11:23:35Z</time>
      </trkpt>
      <trkpt lat="45.89534" lon="4.67422">
        <ele>402</ele>
        <time>2018-02-18T11:23:36Z</time>
      </trkpt>
      <trkpt lat="45.8954" lon="4.67425">
        <ele>402</ele>
        <time>2018-02-18T11:23:37Z</time>
      </trkpt>
      <trkpt lat="45.89547" lon="4.67426">
        <ele>402</ele>
        <time>2018-02-18T11:23:38Z</time>
      </trkpt>
      <trkpt lat="45.89553" lon="4.67429">
        <ele>403</ele>
        <time>2018-02-18T11:23:39Z</time>
      </trkpt>
      <trkpt lat="45.89559" lon="4.6743">
        <ele>403</ele>
        <time>2018-02-18T11:23:40Z</time>
      </trkpt>
      <trkpt lat="45.89566" lon="4.67431">
        <ele>404</ele>
        <time>2018-02-18T11:23:41Z</time>
      </trkpt>
      <trkpt lat="45.89573" lon="4.67436">
        <ele>404</ele>
        <time>2018-02-18T11:23:42Z</time>
      </trkpt>
      <trkpt lat="45.89579" lon="4.67436">
        <ele>404</ele>
        <time>2018-02-18T11:23:43Z</time>
      </trkpt>
      <trkpt lat="45.89586" lon="4.67439">
        <ele>405</ele>
        <time>2018-02-18T11:23:44Z</time>
      </trkpt>
      <trkpt lat="45.89594" lon="4.67441">
        <ele>405</ele>
        <time>2018-02-18T11:23:45Z</time>
      </trkpt>
      <trkpt lat="45.89601" lon="4.67444">
        <ele>404</ele>
        <time>2018-02-18T11:23:46Z</time>
      </trkpt>
      <trkpt lat="45.89608" lon="4.67444">
        <ele>404</ele>
        <time>2018-02-18T11:23:47Z</time>
      </trkpt>
      <trkpt lat="45.89614" lon="4.67448">
        <ele>404</ele>
        <time>2018-02-18T11:23:48Z</time>
      </trkpt>
      <trkpt lat="45.8962" lon="4.67451">
        <ele>404</ele>
        <time>2018-02-18T11:23:49Z</time>
      </trkpt>
      <trkpt lat="45.89625" lon="4.67453">
        <ele>404</ele>
        <time>2018-02-18T11:23:50Z</time>
      </trkpt>
      <trkpt lat="45.89631" lon="4.67457">
        <ele>403</ele>
        <time>2018-02-18T11:23:51Z</time>
      </trkpt>
      <trkpt lat="45.89636" lon="4.67457">
        <ele>403</ele>
        <time>2018-02-18T11:23:52Z</time>
      </trkpt>
      <trkpt lat="45.89641" lon="4.67458">
        <ele>403</ele>
        <time>2018-02-18T11:23:53Z</time>
      </trkpt>
      <trkpt lat="45.89648" lon="4.67457">
        <ele>404</ele>
        <time>2018-02-18T11:23:54Z</time>
      </trkpt>
      <trkpt lat="45.89652" lon="4.67459">
        <ele>404</ele>
        <time>2018-02-18T11:23:55Z</time>
      </trkpt>
      <trkpt lat="45.89659" lon="4.67461">
        <ele>403</ele>
        <time>2018-02-18T11:23:56Z</time>
      </trkpt>
      <trkpt lat="45.89665" lon="4.67465">
        <ele>403</ele>
        <time>2018-02-18T11:23:57Z</time>
      </trkpt>
      <trkpt lat="45.89671" lon="4.67469">
        <ele>403</ele>
        <time>2018-02-18T11:23:58Z</time>
      </trkpt>
      <trkpt lat="45.89678" lon="4.67473">
        <ele>403</ele>
        <time>2018-02-18T11:23:59Z</time>
      </trkpt>
      <trkpt lat="45.89685" lon="4.67477">
        <ele>403</ele>
        <time>2018-02-18T11:24:00Z</time>
      </trkpt>
      <trkpt lat="45.89691" lon="4.67479">
        <ele>402</ele>
        <time>2018-02-18T11:24:01Z</time>
      </trkpt>
      <trkpt lat="45.89697" lon="4.67481">
        <ele>402</ele>
        <time>2018-02-18T11:24:02Z</time>
      </trkpt>
      <trkpt lat="45.89704" lon="4.67483">
        <ele>402</ele>
        <time>2018-02-18T11:24:03Z</time>
      </trkpt>
      <trkpt lat="45.89708" lon="4.67486">
        <ele>402</ele>
        <time>2018-02-18T11:24:04Z</time>
      </trkpt>
      <trkpt lat="45.89713" lon="4.67487">
        <ele>402</ele>
        <time>2018-02-18T11:24:05Z</time>
      </trkpt>
      <trkpt lat="45.89718" lon="4.67489">
        <ele>402</ele>
        <time>2018-02-18T11:24:06Z</time>
      </trkpt>
      <trkpt lat="45.89726" lon="4.67491">
        <ele>402</ele>
        <time>2018-02-18T11:24:07Z</time>
      </trkpt>
      <trkpt lat="45.89733" lon="4.67494">
        <ele>401</ele>
        <time>2018-02-18T11:24:08Z</time>
      </trkpt>
      <trkpt lat="45.89739" lon="4.67496">
        <ele>401</ele>
        <time>2018-02-18T11:24:09Z</time>
      </trkpt>
      <trkpt lat="45.89745" lon="4.67496">
        <ele>400</ele>
        <time>2018-02-18T11:24:10Z</time>
      </trkpt>
      <trkpt lat="45.89751" lon="4.67495">
        <ele>399</ele>
        <time>2018-02-18T11:24:11Z</time>
      </trkpt>
      <trkpt lat="45.89757" lon="4.67495">
        <ele>399</ele>
        <time>2018-02-18T11:24:12Z</time>
      </trkpt>
      <trkpt lat="45.89764" lon="4.67494">
        <ele>399</ele>
        <time>2018-02-18T11:24:13Z</time>
      </trkpt>
      <trkpt lat="45.89772" lon="4.67493">
        <ele>399</ele>
        <time>2018-02-18T11:24:14Z</time>
      </trkpt>
      <trkpt lat="45.89779" lon="4.67491">
        <ele>399</ele>
        <time>2018-02-18T11:24:15Z</time>
      </trkpt>
      <trkpt lat="45.89785" lon="4.67489">
        <ele>399</ele>
        <time>2018-02-18T11:24:16Z</time>
      </trkpt>
      <trkpt lat="45.89792" lon="4.67486">
        <ele>399</ele>
        <time>2018-02-18T11:24:17Z</time>
      </trkpt>
      <trkpt lat="45.89799" lon="4.67479">
        <ele>399</ele>
        <time>2018-02-18T11:24:18Z</time>
      </trkpt>
      <trkpt lat="45.89805" lon="4.67473">
        <ele>399</ele>
        <time>2018-02-18T11:24:19Z</time>
      </trkpt>
      <trkpt lat="45.8981" lon="4.67465">
        <ele>399</ele>
        <time>2018-02-18T11:24:20Z</time>
      </trkpt>
      <trkpt lat="45.89814" lon="4.67456">
        <ele>399</ele>
        <time>2018-02-18T11:24:21Z</time>
      </trkpt>
      <trkpt lat="45.89816" lon="4.67446">
        <ele>399</ele>
        <time>2018-02-18T11:24:22Z</time>
      </trkpt>
      <trkpt lat="45.89818" lon="4.67436">
        <ele>399</ele>
        <time>2018-02-18T11:24:23Z</time>
      </trkpt>
      <trkpt lat="45.89819" lon="4.67426">
        <ele>398</ele>
        <time>2018-02-18T11:24:24Z</time>
      </trkpt>
      <trkpt lat="45.89822" lon="4.67416">
        <ele>400</ele>
        <time>2018-02-18T11:24:25Z</time>
      </trkpt>
      <trkpt lat="45.89825" lon="4.67407">
        <ele>401</ele>
        <time>2018-02-18T11:24:26Z</time>
      </trkpt>
      <trkpt lat="45.89828" lon="4.67397">
        <ele>402</ele>
        <time>2018-02-18T11:24:27Z</time>
      </trkpt>
      <trkpt lat="45.89832" lon="4.67389">
        <ele>403</ele>
        <time>2018-02-18T11:24:28Z</time>
      </trkpt>
      <trkpt lat="45.89836" lon="4.67382">
        <ele>398</ele>
        <time>2018-02-18T11:24:29Z</time>
      </trkpt>
      <trkpt lat="45.89841" lon="4.67375">
        <ele>398</ele>
        <time>2018-02-18T11:24:30Z</time>
      </trkpt>
      <trkpt lat="45.89847" lon="4.67369">
        <ele>398</ele>
        <time>2018-02-18T11:24:31Z</time>
      </trkpt>
      <trkpt lat="45.89852" lon="4.67364">
        <ele>399</ele>
        <time>2018-02-18T11:24:32Z</time>
      </trkpt>
      <trkpt lat="45.89858" lon="4.67359">
        <ele>399</ele>
        <time>2018-02-18T11:24:33Z</time>
      </trkpt>
      <trkpt lat="45.89864" lon="4.67355">
        <ele>399</ele>
        <time>2018-02-18T11:24:34Z</time>
      </trkpt>
      <trkpt lat="45.89871" lon="4.67353">
        <ele>398</ele>
        <time>2018-02-18T11:24:35Z</time>
      </trkpt>
      <trkpt lat="45.89879" lon="4.6735">
        <ele>398</ele>
        <time>2018-02-18T11:24:36Z</time>
      </trkpt>
      <trkpt lat="45.89885" lon="4.67349">
        <ele>398</ele>
        <time>2018-02-18T11:24:37Z</time>
      </trkpt>
      <trkpt lat="45.89892" lon="4.67351">
        <ele>398</ele>
        <time>2018-02-18T11:24:38Z</time>
      </trkpt>
      <trkpt lat="45.89899" lon="4.67352">
        <ele>398</ele>
        <time>2018-02-18T11:24:39Z</time>
      </trkpt>
      <trkpt lat="45.89907" lon="4.67353">
        <ele>398</ele>
        <time>2018-02-18T11:24:40Z</time>
      </trkpt>
      <trkpt lat="45.89915" lon="4.67354">
        <ele>398</ele>
        <time>2018-02-18T11:24:41Z</time>
      </trkpt>
      <trkpt lat="45.89922" lon="4.67356">
        <ele>396</ele>
        <time>2018-02-18T11:24:42Z</time>
      </trkpt>
      <trkpt lat="45.89929" lon="4.67359">
        <ele>395</ele>
        <time>2018-02-18T11:24:43Z</time>
      </trkpt>
      <trkpt lat="45.89937" lon="4.6736">
        <ele>395</ele>
        <time>2018-02-18T11:24:44Z</time>
      </trkpt>
      <trkpt lat="45.89943" lon="4.67362">
        <ele>395</ele>
        <time>2018-02-18T11:24:45Z</time>
      </trkpt>
      <trkpt lat="45.8995" lon="4.67364">
        <ele>395</ele>
        <time>2018-02-18T11:24:46Z</time>
      </trkpt>
      <trkpt lat="45.89959" lon="4.67367">
        <ele>394</ele>
        <time>2018-02-18T11:24:47Z</time>
      </trkpt>
      <trkpt lat="45.89967" lon="4.67368">
        <ele>394</ele>
        <time>2018-02-18T11:24:48Z</time>
      </trkpt>
      <trkpt lat="45.89976" lon="4.67371">
        <ele>394</ele>
        <time>2018-02-18T11:24:49Z</time>
      </trkpt>
      <trkpt lat="45.89985" lon="4.67375">
        <ele>394</ele>
        <time>2018-02-18T11:24:50Z</time>
      </trkpt>
      <trkpt lat="45.89993" lon="4.67378">
        <ele>393</ele>
        <time>2018-02-18T11:24:51Z</time>
      </trkpt>
      <trkpt lat="45.9" lon="4.67382">
        <ele>396</ele>
        <time>2018-02-18T11:24:52Z</time>
      </trkpt>
      <trkpt lat="45.90008" lon="4.67387">
        <ele>395</ele>
        <time>2018-02-18T11:24:53Z</time>
      </trkpt>
      <trkpt lat="45.90015" lon="4.67394">
        <ele>394</ele>
        <time>2018-02-18T11:24:54Z</time>
      </trkpt>
      <trkpt lat="45.90023" lon="4.67399">
        <ele>394</ele>
        <time>2018-02-18T11:24:55Z</time>
      </trkpt>
      <trkpt lat="45.90029" lon="4.67406">
        <ele>394</ele>
        <time>2018-02-18T11:24:56Z</time>
      </trkpt>
      <trkpt lat="45.90036" lon="4.67412">
        <ele>395</ele>
        <time>2018-02-18T11:24:57Z</time>
      </trkpt>
      <trkpt lat="45.90042" lon="4.67419">
        <ele>385</ele>
        <time>2018-02-18T11:24:58Z</time>
      </trkpt>
      <trkpt lat="45.90049" lon="4.67428">
        <ele>385</ele>
        <time>2018-02-18T11:24:59Z</time>
      </trkpt>
      <trkpt lat="45.90056" lon="4.67435">
        <ele>385</ele>
        <time>2018-02-18T11:25:00Z</time>
      </trkpt>
      <trkpt lat="45.90062" lon="4.67442">
        <ele>385</ele>
        <time>2018-02-18T11:25:01Z</time>
      </trkpt>
      <trkpt lat="45.90069" lon="4.67449">
        <ele>384</ele>
        <time>2018-02-18T11:25:02Z</time>
      </trkpt>
      <trkpt lat="45.90075" lon="4.67457">
        <ele>383</ele>
        <time>2018-02-18T11:25:03Z</time>
      </trkpt>
      <trkpt lat="45.90081" lon="4.67464">
        <ele>382</ele>
        <time>2018-02-18T11:25:04Z</time>
      </trkpt>
      <trkpt lat="45.90088" lon="4.67472">
        <ele>386</ele>
        <time>2018-02-18T11:25:05Z</time>
      </trkpt>
      <trkpt lat="45.90094" lon="4.67478">
        <ele>385</ele>
        <time>2018-02-18T11:25:06Z</time>
      </trkpt>
      <trkpt lat="45.901" lon="4.67485">
        <ele>384</ele>
        <time>2018-02-18T11:25:07Z</time>
      </trkpt>
      <trkpt lat="45.90106" lon="4.67491">
        <ele>385</ele>
        <time>2018-02-18T11:25:08Z</time>
      </trkpt>
      <trkpt lat="45.90111" lon="4.675">
        <ele>377</ele>
        <time>2018-02-18T11:25:09Z</time>
      </trkpt>
      <trkpt lat="45.90117" lon="4.67507">
        <ele>378</ele>
        <time>2018-02-18T11:25:10Z</time>
      </trkpt>
      <trkpt lat="45.90121" lon="4.67515">
        <ele>378</ele>
        <time>2018-02-18T11:25:11Z</time>
      </trkpt>
      <trkpt lat="45.90125" lon="4.67525">
        <ele>378</ele>
        <time>2018-02-18T11:25:12Z</time>
      </trkpt>
      <trkpt lat="45.90131" lon="4.67534">
        <ele>377</ele>
        <time>2018-02-18T11:25:13Z</time>
      </trkpt>
      <trkpt lat="45.90135" lon="4.67545">
        <ele>377</ele>
        <time>2018-02-18T11:25:14Z</time>
      </trkpt>
      <trkpt lat="45.9014" lon="4.67553">
        <ele>377</ele>
        <time>2018-02-18T11:25:15Z</time>
      </trkpt>
      <trkpt lat="45.90145" lon="4.67563">
        <ele>376</ele>
        <time>2018-02-18T11:25:16Z</time>
      </trkpt>
      <trkpt lat="45.90151" lon="4.67571">
        <ele>376</ele>
        <time>2018-02-18T11:25:17Z</time>
      </trkpt>
      <trkpt lat="45.90157" lon="4.67581">
        <ele>376</ele>
        <time>2018-02-18T11:25:18Z</time>
      </trkpt>
      <trkpt lat="45.90163" lon="4.67589">
        <ele>374</ele>
        <time>2018-02-18T11:25:19Z</time>
      </trkpt>
      <trkpt lat="45.90169" lon="4.67596">
        <ele>376</ele>
        <time>2018-02-18T11:25:20Z</time>
      </trkpt>
      <trkpt lat="45.90176" lon="4.67604">
        <ele>376</ele>
        <time>2018-02-18T11:25:21Z</time>
      </trkpt>
      <trkpt lat="45.90182" lon="4.67612">
        <ele>376</ele>
        <time>2018-02-18T11:25:22Z</time>
      </trkpt>
      <trkpt lat="45.90188" lon="4.67619">
        <ele>376</ele>
        <time>2018-02-18T11:25:23Z</time>
      </trkpt>
      <trkpt lat="45.90193" lon="4.67625">
        <ele>375</ele>
        <time>2018-02-18T11:25:24Z</time>
      </trkpt>
      <trkpt lat="45.902" lon="4.67633">
        <ele>375</ele>
        <time>2018-02-18T11:25:25Z</time>
      </trkpt>
      <trkpt lat="45.90206" lon="4.6764">
        <ele>375</ele>
        <time>2018-02-18T11:25:26Z</time>
      </trkpt>
      <trkpt lat="45.90212" lon="4.67647">
        <ele>375</ele>
        <time>2018-02-18T11:25:27Z</time>
      </trkpt>
      <trkpt lat="45.90218" lon="4.67653">
        <ele>375</ele>
        <time>2018-02-18T11:25:28Z</time>
      </trkpt>
      <trkpt lat="45.90224" lon="4.67659">
        <ele>375</ele>
        <time>2018-02-18T11:25:29Z</time>
      </trkpt>
      <trkpt lat="45.9023" lon="4.67664">
        <ele>375</ele>
        <time>2018-02-18T11:25:30Z</time>
      </trkpt>
      <trkpt lat="45.90235" lon="4.67669">
        <ele>373</ele>
        <time>2018-02-18T11:25:31Z</time>
      </trkpt>
      <trkpt lat="45.90242" lon="4.67673">
        <ele>373</ele>
        <time>2018-02-18T11:25:32Z</time>
      </trkpt>
      <trkpt lat="45.90249" lon="4.67677">
        <ele>373</ele>
        <time>2018-02-18T11:25:33Z</time>
      </trkpt>
      <trkpt lat="45.90255" lon="4.6768">
        <ele>374</ele>
        <time>2018-02-18T11:25:34Z</time>
      </trkpt>
      <trkpt lat="45.90261" lon="4.67683">
        <ele>374</ele>
        <time>2018-02-18T11:25:35Z</time>
      </trkpt>
      <trkpt lat="45.90268" lon="4.67685">
        <ele>374</ele>
        <time>2018-02-18T11:25:36Z</time>
      </trkpt>
      <trkpt lat="45.90274" lon="4.67688">
        <ele>374</ele>
        <time>2018-02-18T11:25:37Z</time>
      </trkpt>
      <trkpt lat="45.9028" lon="4.67689">
        <ele>374</ele>
        <time>2018-02-18T11:25:38Z</time>
      </trkpt>
      <trkpt lat="45.90286" lon="4.67692">
        <ele>374</ele>
        <time>2018-02-18T11:25:39Z</time>
      </trkpt>
      <trkpt lat="45.90292" lon="4.67694">
        <ele>374</ele>
        <time>2018-02-18T11:25:40Z</time>
      </trkpt>
      <trkpt lat="45.90299" lon="4.67697">
        <ele>374</ele>
        <time>2018-02-18T11:25:41Z</time>
      </trkpt>
      <trkpt lat="45.90305" lon="4.677">
        <ele>374</ele>
        <time>2018-02-18T11:25:42Z</time>
      </trkpt>
      <trkpt lat="45.90313" lon="4.67703">
        <ele>374</ele>
        <time>2018-02-18T11:25:43Z</time>
      </trkpt>
      <trkpt lat="45.90319" lon="4.67705">
        <ele>374</ele>
        <time>2018-02-18T11:25:44Z</time>
      </trkpt>
      <trkpt lat="45.90326" lon="4.67707">
        <ele>374</ele>
        <time>2018-02-18T11:25:45Z</time>
      </trkpt>
      <trkpt lat="45.90333" lon="4.6771">
        <ele>373</ele>
        <time>2018-02-18T11:25:46Z</time>
      </trkpt>
      <trkpt lat="45.9034" lon="4.67712">
        <ele>372</ele>
        <time>2018-02-18T11:25:47Z</time>
      </trkpt>
      <trkpt lat="45.90347" lon="4.67715">
        <ele>371</ele>
        <time>2018-02-18T11:25:48Z</time>
      </trkpt>
      <trkpt lat="45.90354" lon="4.67717">
        <ele>371</ele>
        <time>2018-02-18T11:25:49Z</time>
      </trkpt>
      <trkpt lat="45.90361" lon="4.67719">
        <ele>371</ele>
        <time>2018-02-18T11:25:50Z</time>
      </trkpt>
      <trkpt lat="45.90369" lon="4.67721">
        <ele>371</ele>
        <time>2018-02-18T11:25:51Z</time>
      </trkpt>
      <trkpt lat="45.90376" lon="4.67723">
        <ele>370</ele>
        <time>2018-02-18T11:25:52Z</time>
      </trkpt>
      <trkpt lat="45.90383" lon="4.67725">
        <ele>370</ele>
        <time>2018-02-18T11:25:53Z</time>
      </trkpt>
      <trkpt lat="45.9039" lon="4.67728">
        <ele>370</ele>
        <time>2018-02-18T11:25:54Z</time>
      </trkpt>
      <trkpt lat="45.90399" lon="4.67731">
        <ele>369</ele>
        <time>2018-02-18T11:25:55Z</time>
      </trkpt>
      <trkpt lat="45.90406" lon="4.67734">
        <ele>368</ele>
        <time>2018-02-18T11:25:56Z</time>
      </trkpt>
      <trkpt lat="45.90413" lon="4.67737">
        <ele>368</ele>
        <time>2018-02-18T11:25:57Z</time>
      </trkpt>
      <trkpt lat="45.9042" lon="4.67739">
        <ele>366</ele>
        <time>2018-02-18T11:25:58Z</time>
      </trkpt>
      <trkpt lat="45.90427" lon="4.67741">
        <ele>366</ele>
        <time>2018-02-18T11:25:59Z</time>
      </trkpt>
      <trkpt lat="45.90434" lon="4.67744">
        <ele>366</ele>
        <time>2018-02-18T11:26:00Z</time>
      </trkpt>
      <trkpt lat="45.90442" lon="4.67748">
        <ele>366</ele>
        <time>2018-02-18T11:26:01Z</time>
      </trkpt>
      <trkpt lat="45.90449" lon="4.6775">
        <ele>367</ele>
        <time>2018-02-18T11:26:02Z</time>
      </trkpt>
      <trkpt lat="45.90455" lon="4.67752">
        <ele>364</ele>
        <time>2018-02-18T11:26:03Z</time>
      </trkpt>
      <trkpt lat="45.90462" lon="4.67755">
        <ele>364</ele>
        <time>2018-02-18T11:26:04Z</time>
      </trkpt>
      <trkpt lat="45.90471" lon="4.67757">
        <ele>364</ele>
        <time>2018-02-18T11:26:05Z</time>
      </trkpt>
      <trkpt lat="45.90478" lon="4.6776">
        <ele>364</ele>
        <time>2018-02-18T11:26:06Z</time>
      </trkpt>
      <trkpt lat="45.90485" lon="4.67762">
        <ele>364</ele>
        <time>2018-02-18T11:26:07Z</time>
      </trkpt>
      <trkpt lat="45.90491" lon="4.67764">
        <ele>364</ele>
        <time>2018-02-18T11:26:08Z</time>
      </trkpt>
      <trkpt lat="45.90498" lon="4.67765">
        <ele>364</ele>
        <time>2018-02-18T11:26:09Z</time>
      </trkpt>
      <trkpt lat="45.90505" lon="4.67766">
        <ele>364</ele>
        <time>2018-02-18T11:26:10Z</time>
      </trkpt>
      <trkpt lat="45.90511" lon="4.67769">
        <ele>365</ele>
        <time>2018-02-18T11:26:11Z</time>
      </trkpt>
      <trkpt lat="45.90517" lon="4.67768">
        <ele>365</ele>
        <time>2018-02-18T11:26:12Z</time>
      </trkpt>
      <trkpt lat="45.90522" lon="4.67773">
        <ele>365</ele>
        <time>2018-02-18T11:26:13Z</time>
      </trkpt>
      <trkpt lat="45.90528" lon="4.67775">
        <ele>365</ele>
        <time>2018-02-18T11:26:14Z</time>
      </trkpt>
      <trkpt lat="45.90533" lon="4.67777">
        <ele>365</ele>
        <time>2018-02-18T11:26:15Z</time>
      </trkpt>
      <trkpt lat="45.90539" lon="4.67779">
        <ele>365</ele>
        <time>2018-02-18T11:26:16Z</time>
      </trkpt>
      <trkpt lat="45.90544" lon="4.67781">
        <ele>365</ele>
        <time>2018-02-18T11:26:17Z</time>
      </trkpt>
      <trkpt lat="45.9055" lon="4.67784">
        <ele>365</ele>
        <time>2018-02-18T11:26:18Z</time>
      </trkpt>
      <trkpt lat="45.90555" lon="4.67785">
        <ele>365</ele>
        <time>2018-02-18T11:26:19Z</time>
      </trkpt>
      <trkpt lat="45.90559" lon="4.67787">
        <ele>365</ele>
        <time>2018-02-18T11:26:20Z</time>
      </trkpt>
      <trkpt lat="45.90564" lon="4.67789">
        <ele>365</ele>
        <time>2018-02-18T11:26:21Z</time>
      </trkpt>
      <trkpt lat="45.90569" lon="4.67789">
        <ele>365</ele>
        <time>2018-02-18T11:26:22Z</time>
      </trkpt>
      <trkpt lat="45.90574" lon="4.6779">
        <ele>365</ele>
        <time>2018-02-18T11:26:23Z</time>
      </trkpt>
      <trkpt lat="45.9058" lon="4.6779">
        <ele>366</ele>
        <time>2018-02-18T11:26:24Z</time>
      </trkpt>
      <trkpt lat="45.90584" lon="4.6779">
        <ele>367</ele>
        <time>2018-02-18T11:26:25Z</time>
      </trkpt>
      <trkpt lat="45.90589" lon="4.67792">
        <ele>367</ele>
        <time>2018-02-18T11:26:26Z</time>
      </trkpt>
      <trkpt lat="45.90594" lon="4.67793">
        <ele>367</ele>
        <time>2018-02-18T11:26:27Z</time>
      </trkpt>
      <trkpt lat="45.90599" lon="4.67793">
        <ele>367</ele>
        <time>2018-02-18T11:26:28Z</time>
      </trkpt>
      <trkpt lat="45.90607" lon="4.67795">
        <ele>367</ele>
        <time>2018-02-18T11:26:30Z</time>
      </trkpt>
      <trkpt lat="45.90612" lon="4.67797">
        <ele>367</ele>
        <time>2018-02-18T11:26:31Z</time>
      </trkpt>
      <trkpt lat="45.90621" lon="4.67797">
        <ele>367</ele>
        <time>2018-02-18T11:26:33Z</time>
      </trkpt>
      <trkpt lat="45.90625" lon="4.67796">
        <ele>367</ele>
        <time>2018-02-18T11:26:34Z</time>
      </trkpt>
      <trkpt lat="45.90633" lon="4.67796">
        <ele>367</ele>
        <time>2018-02-18T11:26:36Z</time>
      </trkpt>
      <trkpt lat="45.90637" lon="4.67797">
        <ele>367</ele>
        <time>2018-02-18T11:26:37Z</time>
      </trkpt>
      <trkpt lat="45.90645" lon="4.67796">
        <ele>367</ele>
        <time>2018-02-18T11:26:39Z</time>
      </trkpt>
      <trkpt lat="45.90649" lon="4.67796">
        <ele>368</ele>
        <time>2018-02-18T11:26:40Z</time>
      </trkpt>
      <trkpt lat="45.90657" lon="4.67797">
        <ele>368</ele>
        <time>2018-02-18T11:26:42Z</time>
      </trkpt>
      <trkpt lat="45.90661" lon="4.67798">
        <ele>368</ele>
        <time>2018-02-18T11:26:43Z</time>
      </trkpt>
      <trkpt lat="45.90669" lon="4.67799">
        <ele>368</ele>
        <time>2018-02-18T11:26:45Z</time>
      </trkpt>
      <trkpt lat="45.90673" lon="4.67801">
        <ele>368</ele>
        <time>2018-02-18T11:26:46Z</time>
      </trkpt>
      <trkpt lat="45.90681" lon="4.67802">
        <ele>368</ele>
        <time>2018-02-18T11:26:48Z</time>
      </trkpt>
      <trkpt lat="45.90685" lon="4.67803">
        <ele>368</ele>
        <time>2018-02-18T11:26:49Z</time>
      </trkpt>
      <trkpt lat="45.90693" lon="4.67804">
        <ele>368</ele>
        <time>2018-02-18T11:26:51Z</time>
      </trkpt>
      <trkpt lat="45.90696" lon="4.67805">
        <ele>368</ele>
        <time>2018-02-18T11:26:52Z</time>
      </trkpt>
      <trkpt lat="45.90703" lon="4.67807">
        <ele>368</ele>
        <time>2018-02-18T11:26:54Z</time>
      </trkpt>
      <trkpt lat="45.90707" lon="4.67809">
        <ele>368</ele>
        <time>2018-02-18T11:26:55Z</time>
      </trkpt>
      <trkpt lat="45.90713" lon="4.67812">
        <ele>369</ele>
        <time>2018-02-18T11:26:57Z</time>
      </trkpt>
      <trkpt lat="45.90716" lon="4.67814">
        <ele>369</ele>
        <time>2018-02-18T11:26:58Z</time>
      </trkpt>
      <trkpt lat="45.90722" lon="4.67817">
        <ele>369</ele>
        <time>2018-02-18T11:27:00Z</time>
      </trkpt>
      <trkpt lat="45.90725" lon="4.67819">
        <ele>369</ele>
        <time>2018-02-18T11:27:01Z</time>
      </trkpt>
      <trkpt lat="45.90732" lon="4.67821">
        <ele>369</ele>
        <time>2018-02-18T11:27:03Z</time>
      </trkpt>
      <trkpt lat="45.90735" lon="4.67821">
        <ele>369</ele>
        <time>2018-02-18T11:27:04Z</time>
      </trkpt>
      <trkpt lat="45.90741" lon="4.67823">
        <ele>370</ele>
        <time>2018-02-18T11:27:06Z</time>
      </trkpt>
      <trkpt lat="45.90744" lon="4.67824">
        <ele>370</ele>
        <time>2018-02-18T11:27:07Z</time>
      </trkpt>
      <trkpt lat="45.90751" lon="4.67829">
        <ele>370</ele>
        <time>2018-02-18T11:27:09Z</time>
      </trkpt>
      <trkpt lat="45.90755" lon="4.67831">
        <ele>370</ele>
        <time>2018-02-18T11:27:10Z</time>
      </trkpt>
      <trkpt lat="45.90762" lon="4.67833">
        <ele>370</ele>
        <time>2018-02-18T11:27:12Z</time>
      </trkpt>
      <trkpt lat="45.90766" lon="4.67834">
        <ele>371</ele>
        <time>2018-02-18T11:27:13Z</time>
      </trkpt>
      <trkpt lat="45.90772" lon="4.67837">
        <ele>371</ele>
        <time>2018-02-18T11:27:15Z</time>
      </trkpt>
      <trkpt lat="45.90776" lon="4.67838">
        <ele>371</ele>
        <time>2018-02-18T11:27:16Z</time>
      </trkpt>
      <trkpt lat="45.90783" lon="4.67841">
        <ele>371</ele>
        <time>2018-02-18T11:27:18Z</time>
      </trkpt>
      <trkpt lat="45.90786" lon="4.67843">
        <ele>371</ele>
        <time>2018-02-18T11:27:19Z</time>
      </trkpt>
      <trkpt lat="45.90793" lon="4.67847">
        <ele>371</ele>
        <time>2018-02-18T11:27:21Z</time>
      </trkpt>
      <trkpt lat="45.90796" lon="4.67848">
        <ele>371</ele>
        <time>2018-02-18T11:27:22Z</time>
      </trkpt>
      <trkpt lat="45.90805" lon="4.67848">
        <ele>371</ele>
        <time>2018-02-18T11:27:25Z</time>
      </trkpt>
      <trkpt lat="45.90808" lon="4.67849">
        <ele>371</ele>
        <time>2018-02-18T11:27:26Z</time>
      </trkpt>
      <trkpt lat="45.90815" lon="4.6785">
        <ele>371</ele>
        <time>2018-02-18T11:27:28Z</time>
      </trkpt>
      <trkpt lat="45.90819" lon="4.67851">
        <ele>371</ele>
        <time>2018-02-18T11:27:29Z</time>
      </trkpt>
      <trkpt lat="45.90827" lon="4.67854">
        <ele>371</ele>
        <time>2018-02-18T11:27:31Z</time>
      </trkpt>
      <trkpt lat="45.90831" lon="4.67855">
        <ele>371</ele>
        <time>2018-02-18T11:27:32Z</time>
      </trkpt>
      <trkpt lat="45.90839" lon="4.67857">
        <ele>370</ele>
        <time>2018-02-18T11:27:34Z</time>
      </trkpt>
      <trkpt lat="45.90843" lon="4.67858">
        <ele>370</ele>
        <time>2018-02-18T11:27:35Z</time>
      </trkpt>
      <trkpt lat="45.90852" lon="4.6786">
        <ele>370</ele>
        <time>2018-02-18T11:27:37Z</time>
      </trkpt>
      <trkpt lat="45.90856" lon="4.67862">
        <ele>370</ele>
        <time>2018-02-18T11:27:38Z</time>
      </trkpt>
      <trkpt lat="45.90864" lon="4.67866">
        <ele>370</ele>
        <time>2018-02-18T11:27:40Z</time>
      </trkpt>
      <trkpt lat="45.90869" lon="4.67866">
        <ele>370</ele>
        <time>2018-02-18T11:27:41Z</time>
      </trkpt>
      <trkpt lat="45.90877" lon="4.6787">
        <ele>370</ele>
        <time>2018-02-18T11:27:43Z</time>
      </trkpt>
      <trkpt lat="45.90881" lon="4.67872">
        <ele>370</ele>
        <time>2018-02-18T11:27:44Z</time>
      </trkpt>
      <trkpt lat="45.90889" lon="4.67876">
        <ele>370</ele>
        <time>2018-02-18T11:27:46Z</time>
      </trkpt>
      <trkpt lat="45.90894" lon="4.67878">
        <ele>370</ele>
        <time>2018-02-18T11:27:47Z</time>
      </trkpt>
      <trkpt lat="45.90902" lon="4.67882">
        <ele>370</ele>
        <time>2018-02-18T11:27:49Z</time>
      </trkpt>
      <trkpt lat="45.90906" lon="4.67883">
        <ele>370</ele>
        <time>2018-02-18T11:27:50Z</time>
      </trkpt>
      <trkpt lat="45.90914" lon="4.67885">
        <ele>370</ele>
        <time>2018-02-18T11:27:52Z</time>
      </trkpt>
      <trkpt lat="45.90918" lon="4.67887">
        <ele>370</ele>
        <time>2018-02-18T11:27:53Z</time>
      </trkpt>
      <trkpt lat="45.90926" lon="4.67891">
        <ele>370</ele>
        <time>2018-02-18T11:27:55Z</time>
      </trkpt>
      <trkpt lat="45.9093" lon="4.67893">
        <ele>370</ele>
        <time>2018-02-18T11:27:56Z</time>
      </trkpt>
      <trkpt lat="45.90937" lon="4.67895">
        <ele>370</ele>
        <time>2018-02-18T11:27:58Z</time>
      </trkpt>
      <trkpt lat="45.90941" lon="4.67896">
        <ele>370</ele>
        <time>2018-02-18T11:27:59Z</time>
      </trkpt>
      <trkpt lat="45.90949" lon="4.67899">
        <ele>370</ele>
        <time>2018-02-18T11:28:01Z</time>
      </trkpt>
      <trkpt lat="45.90953" lon="4.67901">
        <ele>370</ele>
        <time>2018-02-18T11:28:02Z</time>
      </trkpt>
      <trkpt lat="45.90961" lon="4.67904">
        <ele>370</ele>
        <time>2018-02-18T11:28:04Z</time>
      </trkpt>
      <trkpt lat="45.90965" lon="4.67906">
        <ele>370</ele>
        <time>2018-02-18T11:28:05Z</time>
      </trkpt>
      <trkpt lat="45.90973" lon="4.6791">
        <ele>370</ele>
        <time>2018-02-18T11:28:07Z</time>
      </trkpt>
      <trkpt lat="45.90976" lon="4.67912">
        <ele>370</ele>
        <time>2018-02-18T11:28:08Z</time>
      </trkpt>
      <trkpt lat="45.90983" lon="4.67916">
        <ele>371</ele>
        <time>2018-02-18T11:28:10Z</time>
      </trkpt>
      <trkpt lat="45.90987" lon="4.67917">
        <ele>372</ele>
        <time>2018-02-18T11:28:11Z</time>
      </trkpt>
      <trkpt lat="45.90993" lon="4.67918">
        <ele>372</ele>
        <time>2018-02-18T11:28:13Z</time>
      </trkpt>
      <trkpt lat="45.90996" lon="4.6792">
        <ele>372</ele>
        <time>2018-02-18T11:28:14Z</time>
      </trkpt>
      <trkpt lat="45.91003" lon="4.67923">
        <ele>373</ele>
        <time>2018-02-18T11:28:16Z</time>
      </trkpt>
      <trkpt lat="45.91006" lon="4.67925">
        <ele>373</ele>
        <time>2018-02-18T11:28:17Z</time>
      </trkpt>
      <trkpt lat="45.91013" lon="4.67928">
        <ele>373</ele>
        <time>2018-02-18T11:28:19Z</time>
      </trkpt>
      <trkpt lat="45.91017" lon="4.6793">
        <ele>373</ele>
        <time>2018-02-18T11:28:20Z</time>
      </trkpt>
      <trkpt lat="45.91023" lon="4.67933">
        <ele>374</ele>
        <time>2018-02-18T11:28:22Z</time>
      </trkpt>
      <trkpt lat="45.91026" lon="4.67934">
        <ele>374</ele>
        <time>2018-02-18T11:28:23Z</time>
      </trkpt>
      <trkpt lat="45.91032" lon="4.67936">
        <ele>374</ele>
        <time>2018-02-18T11:28:25Z</time>
      </trkpt>
      <trkpt lat="45.91035" lon="4.67938">
        <ele>374</ele>
        <time>2018-02-18T11:28:26Z</time>
      </trkpt>
      <trkpt lat="45.91041" lon="4.67943">
        <ele>374</ele>
        <time>2018-02-18T11:28:28Z</time>
      </trkpt>
      <trkpt lat="45.91045" lon="4.67945">
        <ele>374</ele>
        <time>2018-02-18T11:28:29Z</time>
      </trkpt>
      <trkpt lat="45.91052" lon="4.67948">
        <ele>375</ele>
        <time>2018-02-18T11:28:31Z</time>
      </trkpt>
      <trkpt lat="45.91055" lon="4.67949">
        <ele>375</ele>
        <time>2018-02-18T11:28:32Z</time>
      </trkpt>
      <trkpt lat="45.91062" lon="4.67951">
        <ele>375</ele>
        <time>2018-02-18T11:28:34Z</time>
      </trkpt>
      <trkpt lat="45.91065" lon="4.67952">
        <ele>375</ele>
        <time>2018-02-18T11:28:35Z</time>
      </trkpt>
      <trkpt lat="45.91071" lon="4.67955">
        <ele>375</ele>
        <time>2018-02-18T11:28:37Z</time>
      </trkpt>
      <trkpt lat="45.91074" lon="4.67956">
        <ele>375</ele>
        <time>2018-02-18T11:28:38Z</time>
      </trkpt>
      <trkpt lat="45.9108" lon="4.67958">
        <ele>375</ele>
        <time>2018-02-18T11:28:40Z</time>
      </trkpt>
      <trkpt lat="45.91083" lon="4.67958">
        <ele>376</ele>
        <time>2018-02-18T11:28:41Z</time>
      </trkpt>
      <trkpt lat="45.9109" lon="4.6796">
        <ele>377</ele>
        <time>2018-02-18T11:28:43Z</time>
      </trkpt>
      <trkpt lat="45.91093" lon="4.67961">
        <ele>377</ele>
        <time>2018-02-18T11:28:44Z</time>
      </trkpt>
      <trkpt lat="45.91102" lon="4.67962">
        <ele>377</ele>
        <time>2018-02-18T11:28:47Z</time>
      </trkpt>
      <trkpt lat="45.91105" lon="4.67963">
        <ele>377</ele>
        <time>2018-02-18T11:28:48Z</time>
      </trkpt>
      <trkpt lat="45.91112" lon="4.67964">
        <ele>377</ele>
        <time>2018-02-18T11:28:50Z</time>
      </trkpt>
      <trkpt lat="45.91115" lon="4.67965">
        <ele>377</ele>
        <time>2018-02-18T11:28:51Z</time>
      </trkpt>
      <trkpt lat="45.91121" lon="4.67966">
        <ele>377</ele>
        <time>2018-02-18T11:28:53Z</time>
      </trkpt>
      <trkpt lat="45.91124" lon="4.67968">
        <ele>377</ele>
        <time>2018-02-18T11:28:54Z</time>
      </trkpt>
      <trkpt lat="45.9113" lon="4.6797">
        <ele>377</ele>
        <time>2018-02-18T11:28:56Z</time>
      </trkpt>
      <trkpt lat="45.91133" lon="4.6797">
        <ele>377</ele>
        <time>2018-02-18T11:28:57Z</time>
      </trkpt>
      <trkpt lat="45.9114" lon="4.67972">
        <ele>377</ele>
        <time>2018-02-18T11:28:59Z</time>
      </trkpt>
      <trkpt lat="45.91143" lon="4.67973">
        <ele>378</ele>
        <time>2018-02-18T11:29:00Z</time>
      </trkpt>
      <trkpt lat="45.91149" lon="4.67977">
        <ele>378</ele>
        <time>2018-02-18T11:29:02Z</time>
      </trkpt>
      <trkpt lat="45.91152" lon="4.67979">
        <ele>378</ele>
        <time>2018-02-18T11:29:03Z</time>
      </trkpt>
      <trkpt lat="45.91158" lon="4.67982">
        <ele>379</ele>
        <time>2018-02-18T11:29:05Z</time>
      </trkpt>
      <trkpt lat="45.91161" lon="4.67984">
        <ele>379</ele>
        <time>2018-02-18T11:29:06Z</time>
      </trkpt>
      <trkpt lat="45.91168" lon="4.67987">
        <ele>380</ele>
        <time>2018-02-18T11:29:08Z</time>
      </trkpt>
      <trkpt lat="45.91171" lon="4.67989">
        <ele>380</ele>
        <time>2018-02-18T11:29:09Z</time>
      </trkpt>
      <trkpt lat="45.91177" lon="4.67993">
        <ele>380</ele>
        <time>2018-02-18T11:29:11Z</time>
      </trkpt>
      <trkpt lat="45.9118" lon="4.67995">
        <ele>380</ele>
        <time>2018-02-18T11:29:12Z</time>
      </trkpt>
      <trkpt lat="45.91187" lon="4.68">
        <ele>382</ele>
        <time>2018-02-18T11:29:14Z</time>
      </trkpt>
      <trkpt lat="45.9119" lon="4.68003">
        <ele>382</ele>
        <time>2018-02-18T11:29:15Z</time>
      </trkpt>
      <trkpt lat="45.91196" lon="4.68008">
        <ele>383</ele>
        <time>2018-02-18T11:29:17Z</time>
      </trkpt>
      <trkpt lat="45.91198" lon="4.6801">
        <ele>383</ele>
        <time>2018-02-18T11:29:18Z</time>
      </trkpt>
      <trkpt lat="45.91204" lon="4.68012">
        <ele>383</ele>
        <time>2018-02-18T11:29:20Z</time>
      </trkpt>
      <trkpt lat="45.91207" lon="4.68014">
        <ele>383</ele>
        <time>2018-02-18T11:29:21Z</time>
      </trkpt>
      <trkpt lat="45.91213" lon="4.68017">
        <ele>383</ele>
        <time>2018-02-18T11:29:23Z</time>
      </trkpt>
      <trkpt lat="45.91216" lon="4.68018">
        <ele>383</ele>
        <time>2018-02-18T11:29:24Z</time>
      </trkpt>
      <trkpt lat="45.91223" lon="4.68021">
        <ele>384</ele>
        <time>2018-02-18T11:29:26Z</time>
      </trkpt>
      <trkpt lat="45.91226" lon="4.68023">
        <ele>384</ele>
        <time>2018-02-18T11:29:27Z</time>
      </trkpt>
      <trkpt lat="45.91233" lon="4.68025">
        <ele>384</ele>
        <time>2018-02-18T11:29:29Z</time>
      </trkpt>
      <trkpt lat="45.91236" lon="4.68026">
        <ele>384</ele>
        <time>2018-02-18T11:29:30Z</time>
      </trkpt>
      <trkpt lat="45.91242" lon="4.68029">
        <ele>384</ele>
        <time>2018-02-18T11:29:32Z</time>
      </trkpt>
      <trkpt lat="45.91245" lon="4.68032">
        <ele>384</ele>
        <time>2018-02-18T11:29:33Z</time>
      </trkpt>
      <trkpt lat="45.91251" lon="4.68036">
        <ele>385</ele>
        <time>2018-02-18T11:29:35Z</time>
      </trkpt>
      <trkpt lat="45.91254" lon="4.68038">
        <ele>385</ele>
        <time>2018-02-18T11:29:36Z</time>
      </trkpt>
      <trkpt lat="45.91261" lon="4.6804">
        <ele>385</ele>
        <time>2018-02-18T11:29:38Z</time>
      </trkpt>
      <trkpt lat="45.91264" lon="4.68041">
        <ele>385</ele>
        <time>2018-02-18T11:29:39Z</time>
      </trkpt>
      <trkpt lat="45.91271" lon="4.68044">
        <ele>385</ele>
        <time>2018-02-18T11:29:41Z</time>
      </trkpt>
      <trkpt lat="45.91275" lon="4.68047">
        <ele>385</ele>
        <time>2018-02-18T11:29:42Z</time>
      </trkpt>
      <trkpt lat="45.91281" lon="4.6805">
        <ele>385</ele>
        <time>2018-02-18T11:29:44Z</time>
      </trkpt>
      <trkpt lat="45.91285" lon="4.68051">
        <ele>385</ele>
        <time>2018-02-18T11:29:45Z</time>
      </trkpt>
      <trkpt lat="45.91293" lon="4.68053">
        <ele>385</ele>
        <time>2018-02-18T11:29:47Z</time>
      </trkpt>
      <trkpt lat="45.91296" lon="4.68055">
        <ele>385</ele>
        <time>2018-02-18T11:29:48Z</time>
      </trkpt>
      <trkpt lat="45.91303" lon="4.68059">
        <ele>385</ele>
        <time>2018-02-18T11:29:50Z</time>
      </trkpt>
      <trkpt lat="45.91307" lon="4.68061">
        <ele>385</ele>
        <time>2018-02-18T11:29:51Z</time>
      </trkpt>
      <trkpt lat="45.91314" lon="4.68065">
        <ele>385</ele>
        <time>2018-02-18T11:29:53Z</time>
      </trkpt>
      <trkpt lat="45.91318" lon="4.68067">
        <ele>385</ele>
        <time>2018-02-18T11:29:54Z</time>
      </trkpt>
      <trkpt lat="45.91326" lon="4.6807">
        <ele>385</ele>
        <time>2018-02-18T11:29:56Z</time>
      </trkpt>
      <trkpt lat="45.9133" lon="4.68072">
        <ele>385</ele>
        <time>2018-02-18T11:29:57Z</time>
      </trkpt>
      <trkpt lat="45.91338" lon="4.68075">
        <ele>385</ele>
        <time>2018-02-18T11:29:59Z</time>
      </trkpt>
      <trkpt lat="45.91342" lon="4.68076">
        <ele>385</ele>
        <time>2018-02-18T11:30:00Z</time>
      </trkpt>
      <trkpt lat="45.9135" lon="4.68078">
        <ele>385</ele>
        <time>2018-02-18T11:30:02Z</time>
      </trkpt>
      <trkpt lat="45.91354" lon="4.68079">
        <ele>385</ele>
        <time>2018-02-18T11:30:03Z</time>
      </trkpt>
      <trkpt lat="45.91362" lon="4.68082">
        <ele>385</ele>
        <time>2018-02-18T11:30:05Z</time>
      </trkpt>
      <trkpt lat="45.91365" lon="4.68084">
        <ele>386</ele>
        <time>2018-02-18T11:30:06Z</time>
      </trkpt>
      <trkpt lat="45.91372" lon="4.68087">
        <ele>386</ele>
        <time>2018-02-18T11:30:08Z</time>
      </trkpt>
      <trkpt lat="45.91376" lon="4.68089">
        <ele>386</ele>
        <time>2018-02-18T11:30:09Z</time>
      </trkpt>
      <trkpt lat="45.91383" lon="4.6809">
        <ele>386</ele>
        <time>2018-02-18T11:30:11Z</time>
      </trkpt>
      <trkpt lat="45.91388" lon="4.6809">
        <ele>386</ele>
        <time>2018-02-18T11:30:12Z</time>
      </trkpt>
      <trkpt lat="45.91395" lon="4.68091">
        <ele>386</ele>
        <time>2018-02-18T11:30:14Z</time>
      </trkpt>
      <trkpt lat="45.91398" lon="4.68091">
        <ele>386</ele>
        <time>2018-02-18T11:30:15Z</time>
      </trkpt>
      <trkpt lat="45.91407" lon="4.6809">
        <ele>386</ele>
        <time>2018-02-18T11:30:17Z</time>
      </trkpt>
      <trkpt lat="45.91411" lon="4.68088">
        <ele>386</ele>
        <time>2018-02-18T11:30:18Z</time>
      </trkpt>
      <trkpt lat="45.91419" lon="4.68086">
        <ele>386</ele>
        <time>2018-02-18T11:30:20Z</time>
      </trkpt>
      <trkpt lat="45.91424" lon="4.68086">
        <ele>385</ele>
        <time>2018-02-18T11:30:21Z</time>
      </trkpt>
      <trkpt lat="45.91428" lon="4.68087">
        <ele>385</ele>
        <time>2018-02-18T11:30:22Z</time>
      </trkpt>
      <trkpt lat="45.91432" lon="4.68088">
        <ele>385</ele>
        <time>2018-02-18T11:30:23Z</time>
      </trkpt>
      <trkpt lat="45.91441" lon="4.68091">
        <ele>385</ele>
        <time>2018-02-18T11:30:25Z</time>
      </trkpt>
      <trkpt lat="45.91445" lon="4.68092">
        <ele>384</ele>
        <time>2018-02-18T11:30:26Z</time>
      </trkpt>
      <trkpt lat="45.9145" lon="4.68093">
        <ele>384</ele>
        <time>2018-02-18T11:30:27Z</time>
      </trkpt>
      <trkpt lat="45.91454" lon="4.68093">
        <ele>384</ele>
        <time>2018-02-18T11:30:28Z</time>
      </trkpt>
      <trkpt lat="45.91459" lon="4.68095">
        <ele>384</ele>
        <time>2018-02-18T11:30:29Z</time>
      </trkpt>
      <trkpt lat="45.91463" lon="4.68098">
        <ele>384</ele>
        <time>2018-02-18T11:30:30Z</time>
      </trkpt>
      <trkpt lat="45.91468" lon="4.68099">
        <ele>384</ele>
        <time>2018-02-18T11:30:31Z</time>
      </trkpt>
      <trkpt lat="45.91473" lon="4.68102">
        <ele>384</ele>
        <time>2018-02-18T11:30:32Z</time>
      </trkpt>
      <trkpt lat="45.91478" lon="4.68105">
        <ele>383</ele>
        <time>2018-02-18T11:30:33Z</time>
      </trkpt>
      <trkpt lat="45.91483" lon="4.68108">
        <ele>383</ele>
        <time>2018-02-18T11:30:34Z</time>
      </trkpt>
      <trkpt lat="45.91489" lon="4.68112">
        <ele>383</ele>
        <time>2018-02-18T11:30:35Z</time>
      </trkpt>
      <trkpt lat="45.91494" lon="4.68116">
        <ele>383</ele>
        <time>2018-02-18T11:30:36Z</time>
      </trkpt>
      <trkpt lat="45.915" lon="4.68119">
        <ele>383</ele>
        <time>2018-02-18T11:30:37Z</time>
      </trkpt>
      <trkpt lat="45.91506" lon="4.68123">
        <ele>380</ele>
        <time>2018-02-18T11:30:38Z</time>
      </trkpt>
      <trkpt lat="45.91511" lon="4.68126">
        <ele>380</ele>
        <time>2018-02-18T11:30:39Z</time>
      </trkpt>
      <trkpt lat="45.91518" lon="4.68128">
        <ele>380</ele>
        <time>2018-02-18T11:30:40Z</time>
      </trkpt>
      <trkpt lat="45.91524" lon="4.68131">
        <ele>379</ele>
        <time>2018-02-18T11:30:41Z</time>
      </trkpt>
      <trkpt lat="45.9153" lon="4.68134">
        <ele>379</ele>
        <time>2018-02-18T11:30:42Z</time>
      </trkpt>
      <trkpt lat="45.91536" lon="4.68138">
        <ele>379</ele>
        <time>2018-02-18T11:30:43Z</time>
      </trkpt>
      <trkpt lat="45.91543" lon="4.68141">
        <ele>379</ele>
        <time>2018-02-18T11:30:44Z</time>
      </trkpt>
      <trkpt lat="45.91549" lon="4.68144">
        <ele>379</ele>
        <time>2018-02-18T11:30:45Z</time>
      </trkpt>
      <trkpt lat="45.91556" lon="4.68148">
        <ele>379</ele>
        <time>2018-02-18T11:30:46Z</time>
      </trkpt>
      <trkpt lat="45.91562" lon="4.68151">
        <ele>378</ele>
        <time>2018-02-18T11:30:47Z</time>
      </trkpt>
      <trkpt lat="45.91569" lon="4.68154">
        <ele>378</ele>
        <time>2018-02-18T11:30:48Z</time>
      </trkpt>
      <trkpt lat="45.91576" lon="4.6816">
        <ele>378</ele>
        <time>2018-02-18T11:30:49Z</time>
      </trkpt>
      <trkpt lat="45.91583" lon="4.68163">
        <ele>378</ele>
        <time>2018-02-18T11:30:50Z</time>
      </trkpt>
      <trkpt lat="45.9159" lon="4.68168">
        <ele>377</ele>
        <time>2018-02-18T11:30:51Z</time>
      </trkpt>
      <trkpt lat="45.91597" lon="4.68173">
        <ele>377</ele>
        <time>2018-02-18T11:30:52Z</time>
      </trkpt>
      <trkpt lat="45.91603" lon="4.68177">
        <ele>376</ele>
        <time>2018-02-18T11:30:53Z</time>
      </trkpt>
      <trkpt lat="45.9161" lon="4.68182">
        <ele>376</ele>
        <time>2018-02-18T11:30:54Z</time>
      </trkpt>
      <trkpt lat="45.91616" lon="4.68188">
        <ele>375</ele>
        <time>2018-02-18T11:30:55Z</time>
      </trkpt>
      <trkpt lat="45.91624" lon="4.68194">
        <ele>375</ele>
        <time>2018-02-18T11:30:56Z</time>
      </trkpt>
      <trkpt lat="45.91632" lon="4.68199">
        <ele>375</ele>
        <time>2018-02-18T11:30:57Z</time>
      </trkpt>
      <trkpt lat="45.91639" lon="4.68203">
        <ele>374</ele>
        <time>2018-02-18T11:30:58Z</time>
      </trkpt>
      <trkpt lat="45.91646" lon="4.68208">
        <ele>374</ele>
        <time>2018-02-18T11:30:59Z</time>
      </trkpt>
      <trkpt lat="45.91654" lon="4.68213">
        <ele>374</ele>
        <time>2018-02-18T11:31:00Z</time>
      </trkpt>
      <trkpt lat="45.91662" lon="4.68219">
        <ele>374</ele>
        <time>2018-02-18T11:31:01Z</time>
      </trkpt>
      <trkpt lat="45.91669" lon="4.68223">
        <ele>371</ele>
        <time>2018-02-18T11:31:02Z</time>
      </trkpt>
      <trkpt lat="45.91676" lon="4.68229">
        <ele>371</ele>
        <time>2018-02-18T11:31:03Z</time>
      </trkpt>
      <trkpt lat="45.91683" lon="4.68233">
        <ele>371</ele>
        <time>2018-02-18T11:31:04Z</time>
      </trkpt>
      <trkpt lat="45.9169" lon="4.68237">
        <ele>371</ele>
        <time>2018-02-18T11:31:05Z</time>
      </trkpt>
      <trkpt lat="45.91697" lon="4.68243">
        <ele>371</ele>
        <time>2018-02-18T11:31:06Z</time>
      </trkpt>
      <trkpt lat="45.91704" lon="4.68248">
        <ele>370</ele>
        <time>2018-02-18T11:31:07Z</time>
      </trkpt>
      <trkpt lat="45.91711" lon="4.68252">
        <ele>373</ele>
        <time>2018-02-18T11:31:08Z</time>
      </trkpt>
      <trkpt lat="45.91719" lon="4.68256">
        <ele>372</ele>
        <time>2018-02-18T11:31:09Z</time>
      </trkpt>
      <trkpt lat="45.91725" lon="4.68256">
        <ele>372</ele>
        <time>2018-02-18T11:31:10Z</time>
      </trkpt>
      <trkpt lat="45.91732" lon="4.68258">
        <ele>372</ele>
        <time>2018-02-18T11:31:11Z</time>
      </trkpt>
      <trkpt lat="45.91738" lon="4.68261">
        <ele>372</ele>
        <time>2018-02-18T11:31:12Z</time>
      </trkpt>
      <trkpt lat="45.91744" lon="4.68261">
        <ele>371</ele>
        <time>2018-02-18T11:31:13Z</time>
      </trkpt>
      <trkpt lat="45.9175" lon="4.68263">
        <ele>371</ele>
        <time>2018-02-18T11:31:14Z</time>
      </trkpt>
      <trkpt lat="45.91754" lon="4.68264">
        <ele>371</ele>
        <time>2018-02-18T11:31:15Z</time>
      </trkpt>
      <trkpt lat="45.9176" lon="4.68265">
        <ele>372</ele>
        <time>2018-02-18T11:31:16Z</time>
      </trkpt>
      <trkpt lat="45.91765" lon="4.68267">
        <ele>372</ele>
        <time>2018-02-18T11:31:17Z</time>
      </trkpt>
      <trkpt lat="45.91771" lon="4.68267">
        <ele>372</ele>
        <time>2018-02-18T11:31:18Z</time>
      </trkpt>
      <trkpt lat="45.9178" lon="4.68269">
        <ele>372</ele>
        <time>2018-02-18T11:31:20Z</time>
      </trkpt>
      <trkpt lat="45.91784" lon="4.6827">
        <ele>372</ele>
        <time>2018-02-18T11:31:21Z</time>
      </trkpt>
      <trkpt lat="45.91792" lon="4.68273">
        <ele>372</ele>
        <time>2018-02-18T11:31:23Z</time>
      </trkpt>
      <trkpt lat="45.91796" lon="4.68274">
        <ele>372</ele>
        <time>2018-02-18T11:31:24Z</time>
      </trkpt>
      <trkpt lat="45.91801" lon="4.68275">
        <ele>372</ele>
        <time>2018-02-18T11:31:25Z</time>
      </trkpt>
      <trkpt lat="45.91806" lon="4.68276">
        <ele>372</ele>
        <time>2018-02-18T11:31:26Z</time>
      </trkpt>
      <trkpt lat="45.91811" lon="4.68277">
        <ele>372</ele>
        <time>2018-02-18T11:31:27Z</time>
      </trkpt>
      <trkpt lat="45.91816" lon="4.68279">
        <ele>372</ele>
        <time>2018-02-18T11:31:28Z</time>
      </trkpt>
      <trkpt lat="45.91824" lon="4.68281">
        <ele>373</ele>
        <time>2018-02-18T11:31:30Z</time>
      </trkpt>
      <trkpt lat="45.91828" lon="4.68281">
        <ele>373</ele>
        <time>2018-02-18T11:31:31Z</time>
      </trkpt>
      <trkpt lat="45.91837" lon="4.68283">
        <ele>374</ele>
        <time>2018-02-18T11:31:33Z</time>
      </trkpt>
      <trkpt lat="45.91842" lon="4.68285">
        <ele>375</ele>
        <time>2018-02-18T11:31:34Z</time>
      </trkpt>
      <trkpt lat="45.91849" lon="4.68286">
        <ele>375</ele>
        <time>2018-02-18T11:31:36Z</time>
      </trkpt>
      <trkpt lat="45.91852" lon="4.68287">
        <ele>375</ele>
        <time>2018-02-18T11:31:37Z</time>
      </trkpt>
      <trkpt lat="45.9186" lon="4.68289">
        <ele>375</ele>
        <time>2018-02-18T11:31:39Z</time>
      </trkpt>
      <trkpt lat="45.91863" lon="4.6829">
        <ele>375</ele>
        <time>2018-02-18T11:31:40Z</time>
      </trkpt>
      <trkpt lat="45.91872" lon="4.68292">
        <ele>376</ele>
        <time>2018-02-18T11:31:42Z</time>
      </trkpt>
      <trkpt lat="45.91876" lon="4.68292">
        <ele>376</ele>
        <time>2018-02-18T11:31:43Z</time>
      </trkpt>
      <trkpt lat="45.91883" lon="4.68293">
        <ele>376</ele>
        <time>2018-02-18T11:31:45Z</time>
      </trkpt>
      <trkpt lat="45.91886" lon="4.68293">
        <ele>376</ele>
        <time>2018-02-18T11:31:46Z</time>
      </trkpt>
      <trkpt lat="45.91893" lon="4.68294">
        <ele>376</ele>
        <time>2018-02-18T11:31:48Z</time>
      </trkpt>
      <trkpt lat="45.91897" lon="4.68294">
        <ele>376</ele>
        <time>2018-02-18T11:31:49Z</time>
      </trkpt>
      <trkpt lat="45.91905" lon="4.68294">
        <ele>377</ele>
        <time>2018-02-18T11:31:51Z</time>
      </trkpt>
      <trkpt lat="45.91909" lon="4.68295">
        <ele>377</ele>
        <time>2018-02-18T11:31:52Z</time>
      </trkpt>
      <trkpt lat="45.91917" lon="4.68296">
        <ele>377</ele>
        <time>2018-02-18T11:31:54Z</time>
      </trkpt>
      <trkpt lat="45.9192" lon="4.68297">
        <ele>379</ele>
        <time>2018-02-18T11:31:55Z</time>
      </trkpt>
      <trkpt lat="45.91928" lon="4.68299">
        <ele>379</ele>
        <time>2018-02-18T11:31:57Z</time>
      </trkpt>
      <trkpt lat="45.91932" lon="4.68301">
        <ele>379</ele>
        <time>2018-02-18T11:31:58Z</time>
      </trkpt>
      <trkpt lat="45.91939" lon="4.68304">
        <ele>379</ele>
        <time>2018-02-18T11:32:00Z</time>
      </trkpt>
      <trkpt lat="45.91943" lon="4.68305">
        <ele>379</ele>
        <time>2018-02-18T11:32:01Z</time>
      </trkpt>
      <trkpt lat="45.91951" lon="4.68308">
        <ele>379</ele>
        <time>2018-02-18T11:32:03Z</time>
      </trkpt>
      <trkpt lat="45.91955" lon="4.68309">
        <ele>380</ele>
        <time>2018-02-18T11:32:04Z</time>
      </trkpt>
      <trkpt lat="45.91963" lon="4.68311">
        <ele>380</ele>
        <time>2018-02-18T11:32:06Z</time>
      </trkpt>
      <trkpt lat="45.91966" lon="4.68311">
        <ele>380</ele>
        <time>2018-02-18T11:32:07Z</time>
      </trkpt>
      <trkpt lat="45.91974" lon="4.68313">
        <ele>380</ele>
        <time>2018-02-18T11:32:09Z</time>
      </trkpt>
      <trkpt lat="45.91978" lon="4.68313">
        <ele>380</ele>
        <time>2018-02-18T11:32:10Z</time>
      </trkpt>
      <trkpt lat="45.91985" lon="4.68314">
        <ele>380</ele>
        <time>2018-02-18T11:32:12Z</time>
      </trkpt>
      <trkpt lat="45.91989" lon="4.68315">
        <ele>381</ele>
        <time>2018-02-18T11:32:13Z</time>
      </trkpt>
      <trkpt lat="45.91996" lon="4.68317">
        <ele>381</ele>
        <time>2018-02-18T11:32:15Z</time>
      </trkpt>
      <trkpt lat="45.91999" lon="4.68318">
        <ele>381</ele>
        <time>2018-02-18T11:32:16Z</time>
      </trkpt>
      <trkpt lat="45.92007" lon="4.68321">
        <ele>381</ele>
        <time>2018-02-18T11:32:18Z</time>
      </trkpt>
      <trkpt lat="45.92011" lon="4.68321">
        <ele>381</ele>
        <time>2018-02-18T11:32:19Z</time>
      </trkpt>
      <trkpt lat="45.92019" lon="4.68321">
        <ele>380</ele>
        <time>2018-02-18T11:32:21Z</time>
      </trkpt>
      <trkpt lat="45.92024" lon="4.68321">
        <ele>380</ele>
        <time>2018-02-18T11:32:22Z</time>
      </trkpt>
      <trkpt lat="45.92032" lon="4.68322">
        <ele>380</ele>
        <time>2018-02-18T11:32:24Z</time>
      </trkpt>
      <trkpt lat="45.92036" lon="4.6832">
        <ele>380</ele>
        <time>2018-02-18T11:32:25Z</time>
      </trkpt>
      <trkpt lat="45.92044" lon="4.68321">
        <ele>380</ele>
        <time>2018-02-18T11:32:27Z</time>
      </trkpt>
      <trkpt lat="45.92049" lon="4.68322">
        <ele>380</ele>
        <time>2018-02-18T11:32:28Z</time>
      </trkpt>
      <trkpt lat="45.92058" lon="4.68322">
        <ele>380</ele>
        <time>2018-02-18T11:32:30Z</time>
      </trkpt>
      <trkpt lat="45.92062" lon="4.68323">
        <ele>380</ele>
        <time>2018-02-18T11:32:31Z</time>
      </trkpt>
      <trkpt lat="45.92071" lon="4.68325">
        <ele>380</ele>
        <time>2018-02-18T11:32:33Z</time>
      </trkpt>
      <trkpt lat="45.92076" lon="4.68326">
        <ele>381</ele>
        <time>2018-02-18T11:32:34Z</time>
      </trkpt>
      <trkpt lat="45.9208" lon="4.68328">
        <ele>381</ele>
        <time>2018-02-18T11:32:35Z</time>
      </trkpt>
      <trkpt lat="45.92085" lon="4.68329">
        <ele>381</ele>
        <time>2018-02-18T11:32:36Z</time>
      </trkpt>
      <trkpt lat="45.92092" lon="4.68331">
        <ele>380</ele>
        <time>2018-02-18T11:32:38Z</time>
      </trkpt>
      <trkpt lat="45.92097" lon="4.68333">
        <ele>380</ele>
        <time>2018-02-18T11:32:39Z</time>
      </trkpt>
      <trkpt lat="45.92103" lon="4.68332">
        <ele>379</ele>
        <time>2018-02-18T11:32:41Z</time>
      </trkpt>
      <trkpt lat="45.92107" lon="4.68334">
        <ele>383</ele>
        <time>2018-02-18T11:32:42Z</time>
      </trkpt>
      <trkpt lat="45.92114" lon="4.68339">
        <ele>383</ele>
        <time>2018-02-18T11:32:44Z</time>
      </trkpt>
      <trkpt lat="45.92117" lon="4.68341">
        <ele>383</ele>
        <time>2018-02-18T11:32:45Z</time>
      </trkpt>
      <trkpt lat="45.92125" lon="4.68346">
        <ele>383</ele>
        <time>2018-02-18T11:32:47Z</time>
      </trkpt>
      <trkpt lat="45.92128" lon="4.68349">
        <ele>383</ele>
        <time>2018-02-18T11:32:48Z</time>
      </trkpt>
      <trkpt lat="45.92135" lon="4.68355">
        <ele>383</ele>
        <time>2018-02-18T11:32:50Z</time>
      </trkpt>
      <trkpt lat="45.92138" lon="4.68358">
        <ele>383</ele>
        <time>2018-02-18T11:32:51Z</time>
      </trkpt>
      <trkpt lat="45.92144" lon="4.68365">
        <ele>383</ele>
        <time>2018-02-18T11:32:53Z</time>
      </trkpt>
      <trkpt lat="45.92147" lon="4.68368">
        <ele>383</ele>
        <time>2018-02-18T11:32:54Z</time>
      </trkpt>
      <trkpt lat="45.92153" lon="4.68376">
        <ele>384</ele>
        <time>2018-02-18T11:32:56Z</time>
      </trkpt>
      <trkpt lat="45.92156" lon="4.6838">
        <ele>384</ele>
        <time>2018-02-18T11:32:57Z</time>
      </trkpt>
      <trkpt lat="45.92162" lon="4.68386">
        <ele>384</ele>
        <time>2018-02-18T11:32:59Z</time>
      </trkpt>
      <trkpt lat="45.92166" lon="4.6839">
        <ele>384</ele>
        <time>2018-02-18T11:33:00Z</time>
      </trkpt>
      <trkpt lat="45.92172" lon="4.68399">
        <ele>384</ele>
        <time>2018-02-18T11:33:02Z</time>
      </trkpt>
      <trkpt lat="45.92175" lon="4.68403">
        <ele>384</ele>
        <time>2018-02-18T11:33:03Z</time>
      </trkpt>
      <trkpt lat="45.92182" lon="4.68412">
        <ele>384</ele>
        <time>2018-02-18T11:33:05Z</time>
      </trkpt>
      <trkpt lat="45.92185" lon="4.68415">
        <ele>384</ele>
        <time>2018-02-18T11:33:06Z</time>
      </trkpt>
      <trkpt lat="45.92193" lon="4.6842">
        <ele>386</ele>
        <time>2018-02-18T11:33:08Z</time>
      </trkpt>
      <trkpt lat="45.92197" lon="4.68422">
        <ele>386</ele>
        <time>2018-02-18T11:33:09Z</time>
      </trkpt>
      <trkpt lat="45.92205" lon="4.68426">
        <ele>386</ele>
        <time>2018-02-18T11:33:11Z</time>
      </trkpt>
      <trkpt lat="45.92209" lon="4.68428">
        <ele>386</ele>
        <time>2018-02-18T11:33:12Z</time>
      </trkpt>
      <trkpt lat="45.92216" lon="4.68435">
        <ele>386</ele>
        <time>2018-02-18T11:33:14Z</time>
      </trkpt>
      <trkpt lat="45.9222" lon="4.68438">
        <ele>386</ele>
        <time>2018-02-18T11:33:15Z</time>
      </trkpt>
      <trkpt lat="45.92227" lon="4.68445">
        <ele>386</ele>
        <time>2018-02-18T11:33:17Z</time>
      </trkpt>
      <trkpt lat="45.9223" lon="4.68449">
        <ele>386</ele>
        <time>2018-02-18T11:33:18Z</time>
      </trkpt>
      <trkpt lat="45.92234" lon="4.68454">
        <ele>386</ele>
        <time>2018-02-18T11:33:19Z</time>
      </trkpt>
      <trkpt lat="45.92237" lon="4.68458">
        <ele>386</ele>
        <time>2018-02-18T11:33:20Z</time>
      </trkpt>
      <trkpt lat="45.92245" lon="4.68465">
        <ele>386</ele>
        <time>2018-02-18T11:33:22Z</time>
      </trkpt>
      <trkpt lat="45.92248" lon="4.68468">
        <ele>386</ele>
        <time>2018-02-18T11:33:23Z</time>
      </trkpt>
      <trkpt lat="45.92255" lon="4.68474">
        <ele>384</ele>
        <time>2018-02-18T11:33:25Z</time>
      </trkpt>
      <trkpt lat="45.92258" lon="4.68478">
        <ele>384</ele>
        <time>2018-02-18T11:33:26Z</time>
      </trkpt>
      <trkpt lat="45.92265" lon="4.68485">
        <ele>384</ele>
        <time>2018-02-18T11:33:28Z</time>
      </trkpt>
      <trkpt lat="45.92269" lon="4.6849">
        <ele>384</ele>
        <time>2018-02-18T11:33:29Z</time>
      </trkpt>
      <trkpt lat="45.92276" lon="4.68497">
        <ele>384</ele>
        <time>2018-02-18T11:33:31Z</time>
      </trkpt>
      <trkpt lat="45.92279" lon="4.68502">
        <ele>387</ele>
        <time>2018-02-18T11:33:32Z</time>
      </trkpt>
      <trkpt lat="45.92287" lon="4.68508">
        <ele>387</ele>
        <time>2018-02-18T11:33:34Z</time>
      </trkpt>
      <trkpt lat="45.9229" lon="4.6851">
        <ele>387</ele>
        <time>2018-02-18T11:33:35Z</time>
      </trkpt>
      <trkpt lat="45.92297" lon="4.68517">
        <ele>387</ele>
        <time>2018-02-18T11:33:37Z</time>
      </trkpt>
      <trkpt lat="45.92301" lon="4.68521">
        <ele>387</ele>
        <time>2018-02-18T11:33:38Z</time>
      </trkpt>
      <trkpt lat="45.92307" lon="4.68527">
        <ele>387</ele>
        <time>2018-02-18T11:33:40Z</time>
      </trkpt>
      <trkpt lat="45.92311" lon="4.6853">
        <ele>387</ele>
        <time>2018-02-18T11:33:41Z</time>
      </trkpt>
      <trkpt lat="45.92318" lon="4.68537">
        <ele>388</ele>
        <time>2018-02-18T11:33:43Z</time>
      </trkpt>
      <trkpt lat="45.92322" lon="4.68541">
        <ele>388</ele>
        <time>2018-02-18T11:33:44Z</time>
      </trkpt>
      <trkpt lat="45.9233" lon="4.68547">
        <ele>388</ele>
        <time>2018-02-18T11:33:46Z</time>
      </trkpt>
      <trkpt lat="45.92334" lon="4.6855">
        <ele>385</ele>
        <time>2018-02-18T11:33:47Z</time>
      </trkpt>
      <trkpt lat="45.92337" lon="4.68552">
        <ele>385</ele>
        <time>2018-02-18T11:33:48Z</time>
      </trkpt>
      <trkpt lat="45.92343" lon="4.68555">
        <ele>385</ele>
        <time>2018-02-18T11:33:49Z</time>
      </trkpt>
      <trkpt lat="45.92347" lon="4.68558">
        <ele>385</ele>
        <time>2018-02-18T11:33:50Z</time>
      </trkpt>
      <trkpt lat="45.92352" lon="4.68561">
        <ele>385</ele>
        <time>2018-02-18T11:33:51Z</time>
      </trkpt>
      <trkpt lat="45.92356" lon="4.68564">
        <ele>385</ele>
        <time>2018-02-18T11:33:52Z</time>
      </trkpt>
      <trkpt lat="45.9236" lon="4.68567">
        <ele>385</ele>
        <time>2018-02-18T11:33:53Z</time>
      </trkpt>
      <trkpt lat="45.92365" lon="4.6857">
        <ele>385</ele>
        <time>2018-02-18T11:33:54Z</time>
      </trkpt>
      <trkpt lat="45.92369" lon="4.68575">
        <ele>384</ele>
        <time>2018-02-18T11:33:55Z</time>
      </trkpt>
      <trkpt lat="45.92374" lon="4.68577">
        <ele>384</ele>
        <time>2018-02-18T11:33:56Z</time>
      </trkpt>
      <trkpt lat="45.92379" lon="4.6858">
        <ele>384</ele>
        <time>2018-02-18T11:33:57Z</time>
      </trkpt>
      <trkpt lat="45.92384" lon="4.68584">
        <ele>387</ele>
        <time>2018-02-18T11:33:58Z</time>
      </trkpt>
      <trkpt lat="45.92388" lon="4.68588">
        <ele>386</ele>
        <time>2018-02-18T11:33:59Z</time>
      </trkpt>
      <trkpt lat="45.92392" lon="4.68592">
        <ele>386</ele>
        <time>2018-02-18T11:34:00Z</time>
      </trkpt>
      <trkpt lat="45.92397" lon="4.68595">
        <ele>386</ele>
        <time>2018-02-18T11:34:01Z</time>
      </trkpt>
      <trkpt lat="45.92403" lon="4.68597">
        <ele>385</ele>
        <time>2018-02-18T11:34:02Z</time>
      </trkpt>
      <trkpt lat="45.92408" lon="4.68599">
        <ele>385</ele>
        <time>2018-02-18T11:34:03Z</time>
      </trkpt>
      <trkpt lat="45.92414" lon="4.68603">
        <ele>385</ele>
        <time>2018-02-18T11:34:04Z</time>
      </trkpt>
      <trkpt lat="45.92418" lon="4.68608">
        <ele>381</ele>
        <time>2018-02-18T11:34:05Z</time>
      </trkpt>
      <trkpt lat="45.92422" lon="4.68611">
        <ele>381</ele>
        <time>2018-02-18T11:34:06Z</time>
      </trkpt>
      <trkpt lat="45.92429" lon="4.68613">
        <ele>381</ele>
        <time>2018-02-18T11:34:07Z</time>
      </trkpt>
      <trkpt lat="45.92433" lon="4.68615">
        <ele>381</ele>
        <time>2018-02-18T11:34:08Z</time>
      </trkpt>
      <trkpt lat="45.9244" lon="4.68617">
        <ele>381</ele>
        <time>2018-02-18T11:34:09Z</time>
      </trkpt>
      <trkpt lat="45.92447" lon="4.6862">
        <ele>380</ele>
        <time>2018-02-18T11:34:10Z</time>
      </trkpt>
      <trkpt lat="45.92454" lon="4.68622">
        <ele>380</ele>
        <time>2018-02-18T11:34:11Z</time>
      </trkpt>
      <trkpt lat="45.9246" lon="4.68624">
        <ele>380</ele>
        <time>2018-02-18T11:34:12Z</time>
      </trkpt>
      <trkpt lat="45.92466" lon="4.68627">
        <ele>380</ele>
        <time>2018-02-18T11:34:13Z</time>
      </trkpt>
      <trkpt lat="45.92472" lon="4.68629">
        <ele>379</ele>
        <time>2018-02-18T11:34:14Z</time>
      </trkpt>
      <trkpt lat="45.92478" lon="4.68632">
        <ele>379</ele>
        <time>2018-02-18T11:34:15Z</time>
      </trkpt>
      <trkpt lat="45.92486" lon="4.68634">
        <ele>379</ele>
        <time>2018-02-18T11:34:16Z</time>
      </trkpt>
      <trkpt lat="45.92493" lon="4.68636">
        <ele>379</ele>
        <time>2018-02-18T11:34:17Z</time>
      </trkpt>
      <trkpt lat="45.925" lon="4.68638">
        <ele>379</ele>
        <time>2018-02-18T11:34:18Z</time>
      </trkpt>
      <trkpt lat="45.92505" lon="4.6864">
        <ele>375</ele>
        <time>2018-02-18T11:34:19Z</time>
      </trkpt>
      <trkpt lat="45.92514" lon="4.68642">
        <ele>375</ele>
        <time>2018-02-18T11:34:20Z</time>
      </trkpt>
      <trkpt lat="45.92522" lon="4.68643">
        <ele>375</ele>
        <time>2018-02-18T11:34:21Z</time>
      </trkpt>
      <trkpt lat="45.9253" lon="4.68645">
        <ele>375</ele>
        <time>2018-02-18T11:34:22Z</time>
      </trkpt>
      <trkpt lat="45.92536" lon="4.68646">
        <ele>375</ele>
        <time>2018-02-18T11:34:23Z</time>
      </trkpt>
      <trkpt lat="45.92542" lon="4.68648">
        <ele>374</ele>
        <time>2018-02-18T11:34:24Z</time>
      </trkpt>
      <trkpt lat="45.92548" lon="4.68649">
        <ele>374</ele>
        <time>2018-02-18T11:34:25Z</time>
      </trkpt>
      <trkpt lat="45.92553" lon="4.68649">
        <ele>374</ele>
        <time>2018-02-18T11:34:26Z</time>
      </trkpt>
      <trkpt lat="45.92559" lon="4.6865">
        <ele>374</ele>
        <time>2018-02-18T11:34:27Z</time>
      </trkpt>
      <trkpt lat="45.92565" lon="4.68648">
        <ele>374</ele>
        <time>2018-02-18T11:34:28Z</time>
      </trkpt>
      <trkpt lat="45.9257" lon="4.68646">
        <ele>374</ele>
        <time>2018-02-18T11:34:29Z</time>
      </trkpt>
      <trkpt lat="45.92575" lon="4.68642">
        <ele>374</ele>
        <time>2018-02-18T11:34:30Z</time>
      </trkpt>
      <trkpt lat="45.92579" lon="4.68639">
        <ele>373</ele>
        <time>2018-02-18T11:34:31Z</time>
      </trkpt>
      <trkpt lat="45.92586" lon="4.68634">
        <ele>370</ele>
        <time>2018-02-18T11:34:33Z</time>
      </trkpt>
      <trkpt lat="45.92589" lon="4.6863">
        <ele>370</ele>
        <time>2018-02-18T11:34:34Z</time>
      </trkpt>
      <trkpt lat="45.92598" lon="4.68626">
        <ele>369</ele>
        <time>2018-02-18T11:34:37Z</time>
      </trkpt>
      <trkpt lat="45.926" lon="4.68624">
        <ele>369</ele>
        <time>2018-02-18T11:34:38Z</time>
      </trkpt>
      <trkpt lat="45.92606" lon="4.68625">
        <ele>369</ele>
        <time>2018-02-18T11:34:41Z</time>
      </trkpt>
      <trkpt lat="45.9261" lon="4.68624">
        <ele>369</ele>
        <time>2018-02-18T11:34:42Z</time>
      </trkpt>
      <trkpt lat="45.92614" lon="4.68623">
        <ele>369</ele>
        <time>2018-02-18T11:34:43Z</time>
      </trkpt>
      <trkpt lat="45.92619" lon="4.68623">
        <ele>369</ele>
        <time>2018-02-18T11:34:44Z</time>
      </trkpt>
      <trkpt lat="45.92624" lon="4.6862">
        <ele>368</ele>
        <time>2018-02-18T11:34:45Z</time>
      </trkpt>
      <trkpt lat="45.92629" lon="4.68619">
        <ele>368</ele>
        <time>2018-02-18T11:34:46Z</time>
      </trkpt>
      <trkpt lat="45.92637" lon="4.68617">
        <ele>368</ele>
        <time>2018-02-18T11:34:48Z</time>
      </trkpt>
      <trkpt lat="45.92642" lon="4.68614">
        <ele>367</ele>
        <time>2018-02-18T11:34:49Z</time>
      </trkpt>
      <trkpt lat="45.9265" lon="4.68612">
        <ele>367</ele>
        <time>2018-02-18T11:34:51Z</time>
      </trkpt>
      <trkpt lat="45.92655" lon="4.6861">
        <ele>367</ele>
        <time>2018-02-18T11:34:52Z</time>
      </trkpt>
      <trkpt lat="45.92663" lon="4.68606">
        <ele>367</ele>
        <time>2018-02-18T11:34:54Z</time>
      </trkpt>
      <trkpt lat="45.92667" lon="4.68604">
        <ele>364</ele>
        <time>2018-02-18T11:34:55Z</time>
      </trkpt>
      <trkpt lat="45.92674" lon="4.68602">
        <ele>364</ele>
        <time>2018-02-18T11:34:57Z</time>
      </trkpt>
      <trkpt lat="45.92682" lon="4.68595">
        <ele>364</ele>
        <time>2018-02-18T11:34:58Z</time>
      </trkpt>
      <trkpt lat="45.92687" lon="4.68592">
        <ele>364</ele>
        <time>2018-02-18T11:34:59Z</time>
      </trkpt>
      <trkpt lat="45.92692" lon="4.6859">
        <ele>364</ele>
        <time>2018-02-18T11:35:00Z</time>
      </trkpt>
      <trkpt lat="45.92697" lon="4.68589">
        <ele>364</ele>
        <time>2018-02-18T11:35:01Z</time>
      </trkpt>
      <trkpt lat="45.92702" lon="4.68587">
        <ele>364</ele>
        <time>2018-02-18T11:35:02Z</time>
      </trkpt>
      <trkpt lat="45.92706" lon="4.68586">
        <ele>364</ele>
        <time>2018-02-18T11:35:03Z</time>
      </trkpt>
      <trkpt lat="45.92711" lon="4.68584">
        <ele>364</ele>
        <time>2018-02-18T11:35:04Z</time>
      </trkpt>
      <trkpt lat="45.92716" lon="4.68583">
        <ele>366</ele>
        <time>2018-02-18T11:35:05Z</time>
      </trkpt>
      <trkpt lat="45.92721" lon="4.68582">
        <ele>366</ele>
        <time>2018-02-18T11:35:06Z</time>
      </trkpt>
      <trkpt lat="45.92727" lon="4.6858">
        <ele>366</ele>
        <time>2018-02-18T11:35:07Z</time>
      </trkpt>
      <trkpt lat="45.92732" lon="4.68578">
        <ele>366</ele>
        <time>2018-02-18T11:35:08Z</time>
      </trkpt>
      <trkpt lat="45.92739" lon="4.68577">
        <ele>366</ele>
        <time>2018-02-18T11:35:09Z</time>
      </trkpt>
      <trkpt lat="45.92744" lon="4.68577">
        <ele>366</ele>
        <time>2018-02-18T11:35:10Z</time>
      </trkpt>
      <trkpt lat="45.9275" lon="4.68576">
        <ele>366</ele>
        <time>2018-02-18T11:35:11Z</time>
      </trkpt>
      <trkpt lat="45.92756" lon="4.68576">
        <ele>366</ele>
        <time>2018-02-18T11:35:12Z</time>
      </trkpt>
      <trkpt lat="45.92761" lon="4.68577">
        <ele>365</ele>
        <time>2018-02-18T11:35:13Z</time>
      </trkpt>
      <trkpt lat="45.92766" lon="4.68578">
        <ele>365</ele>
        <time>2018-02-18T11:35:14Z</time>
      </trkpt>
      <trkpt lat="45.92772" lon="4.68578">
        <ele>365</ele>
        <time>2018-02-18T11:35:15Z</time>
      </trkpt>
      <trkpt lat="45.92778" lon="4.68576">
        <ele>365</ele>
        <time>2018-02-18T11:35:16Z</time>
      </trkpt>
      <trkpt lat="45.92783" lon="4.68575">
        <ele>365</ele>
        <time>2018-02-18T11:35:17Z</time>
      </trkpt>
      <trkpt lat="45.92789" lon="4.68575">
        <ele>364</ele>
        <time>2018-02-18T11:35:18Z</time>
      </trkpt>
      <trkpt lat="45.92795" lon="4.68578">
        <ele>364</ele>
        <time>2018-02-18T11:35:19Z</time>
      </trkpt>
      <trkpt lat="45.92801" lon="4.68577">
        <ele>364</ele>
        <time>2018-02-18T11:35:20Z</time>
      </trkpt>
      <trkpt lat="45.92806" lon="4.68578">
        <ele>364</ele>
        <time>2018-02-18T11:35:21Z</time>
      </trkpt>
      <trkpt lat="45.92812" lon="4.6858">
        <ele>363</ele>
        <time>2018-02-18T11:35:22Z</time>
      </trkpt>
      <trkpt lat="45.92818" lon="4.68581">
        <ele>363</ele>
        <time>2018-02-18T11:35:23Z</time>
      </trkpt>
      <trkpt lat="45.92823" lon="4.68581">
        <ele>362</ele>
        <time>2018-02-18T11:35:24Z</time>
      </trkpt>
      <trkpt lat="45.92827" lon="4.68583">
        <ele>362</ele>
        <time>2018-02-18T11:35:25Z</time>
      </trkpt>
      <trkpt lat="45.92833" lon="4.68585">
        <ele>361</ele>
        <time>2018-02-18T11:35:26Z</time>
      </trkpt>
      <trkpt lat="45.92839" lon="4.68586">
        <ele>360</ele>
        <time>2018-02-18T11:35:27Z</time>
      </trkpt>
      <trkpt lat="45.92844" lon="4.68588">
        <ele>360</ele>
        <time>2018-02-18T11:35:28Z</time>
      </trkpt>
      <trkpt lat="45.9285" lon="4.68589">
        <ele>359</ele>
        <time>2018-02-18T11:35:29Z</time>
      </trkpt>
      <trkpt lat="45.92857" lon="4.6859">
        <ele>359</ele>
        <time>2018-02-18T11:35:30Z</time>
      </trkpt>
      <trkpt lat="45.92864" lon="4.68591">
        <ele>359</ele>
        <time>2018-02-18T11:35:31Z</time>
      </trkpt>
      <trkpt lat="45.9287" lon="4.68591">
        <ele>359</ele>
        <time>2018-02-18T11:35:32Z</time>
      </trkpt>
      <trkpt lat="45.92876" lon="4.68592">
        <ele>358</ele>
        <time>2018-02-18T11:35:33Z</time>
      </trkpt>
      <trkpt lat="45.92883" lon="4.68593">
        <ele>358</ele>
        <time>2018-02-18T11:35:34Z</time>
      </trkpt>
      <trkpt lat="45.9289" lon="4.68594">
        <ele>358</ele>
        <time>2018-02-18T11:35:35Z</time>
      </trkpt>
      <trkpt lat="45.92897" lon="4.68595">
        <ele>358</ele>
        <time>2018-02-18T11:35:36Z</time>
      </trkpt>
      <trkpt lat="45.92904" lon="4.68595">
        <ele>358</ele>
        <time>2018-02-18T11:35:37Z</time>
      </trkpt>
      <trkpt lat="45.92911" lon="4.68597">
        <ele>358</ele>
        <time>2018-02-18T11:35:38Z</time>
      </trkpt>
      <trkpt lat="45.92917" lon="4.68598">
        <ele>359</ele>
        <time>2018-02-18T11:35:39Z</time>
      </trkpt>
      <trkpt lat="45.92923" lon="4.68599">
        <ele>359</ele>
        <time>2018-02-18T11:35:40Z</time>
      </trkpt>
      <trkpt lat="45.9293" lon="4.686">
        <ele>358</ele>
        <time>2018-02-18T11:35:41Z</time>
      </trkpt>
      <trkpt lat="45.92936" lon="4.686">
        <ele>358</ele>
        <time>2018-02-18T11:35:42Z</time>
      </trkpt>
      <trkpt lat="45.92942" lon="4.686">
        <ele>358</ele>
        <time>2018-02-18T11:35:43Z</time>
      </trkpt>
      <trkpt lat="45.92948" lon="4.68602">
        <ele>358</ele>
        <time>2018-02-18T11:35:44Z</time>
      </trkpt>
      <trkpt lat="45.92955" lon="4.68603">
        <ele>358</ele>
        <time>2018-02-18T11:35:45Z</time>
      </trkpt>
      <trkpt lat="45.92962" lon="4.68604">
        <ele>358</ele>
        <time>2018-02-18T11:35:46Z</time>
      </trkpt>
      <trkpt lat="45.92969" lon="4.68606">
        <ele>358</ele>
        <time>2018-02-18T11:35:47Z</time>
      </trkpt>
      <trkpt lat="45.92976" lon="4.68608">
        <ele>358</ele>
        <time>2018-02-18T11:35:48Z</time>
      </trkpt>
      <trkpt lat="45.92983" lon="4.68611">
        <ele>358</ele>
        <time>2018-02-18T11:35:49Z</time>
      </trkpt>
      <trkpt lat="45.92989" lon="4.68612">
        <ele>358</ele>
        <time>2018-02-18T11:35:50Z</time>
      </trkpt>
      <trkpt lat="45.92995" lon="4.68615">
        <ele>358</ele>
        <time>2018-02-18T11:35:51Z</time>
      </trkpt>
      <trkpt lat="45.93" lon="4.68616">
        <ele>356</ele>
        <time>2018-02-18T11:35:52Z</time>
      </trkpt>
      <trkpt lat="45.93008" lon="4.68617">
        <ele>356</ele>
        <time>2018-02-18T11:35:53Z</time>
      </trkpt>
      <trkpt lat="45.93015" lon="4.68618">
        <ele>356</ele>
        <time>2018-02-18T11:35:54Z</time>
      </trkpt>
      <trkpt lat="45.9302" lon="4.68617">
        <ele>356</ele>
        <time>2018-02-18T11:35:55Z</time>
      </trkpt>
      <trkpt lat="45.93026" lon="4.68617">
        <ele>355</ele>
        <time>2018-02-18T11:35:56Z</time>
      </trkpt>
      <trkpt lat="45.93033" lon="4.68618">
        <ele>355</ele>
        <time>2018-02-18T11:35:57Z</time>
      </trkpt>
      <trkpt lat="45.93038" lon="4.68619">
        <ele>355</ele>
        <time>2018-02-18T11:35:58Z</time>
      </trkpt>
      <trkpt lat="45.93043" lon="4.6862">
        <ele>355</ele>
        <time>2018-02-18T11:35:59Z</time>
      </trkpt>
      <trkpt lat="45.9305" lon="4.68625">
        <ele>355</ele>
        <time>2018-02-18T11:36:00Z</time>
      </trkpt>
      <trkpt lat="45.93057" lon="4.68626">
        <ele>354</ele>
        <time>2018-02-18T11:36:01Z</time>
      </trkpt>
      <trkpt lat="45.93064" lon="4.68626">
        <ele>354</ele>
        <time>2018-02-18T11:36:02Z</time>
      </trkpt>
      <trkpt lat="45.93071" lon="4.68626">
        <ele>354</ele>
        <time>2018-02-18T11:36:03Z</time>
      </trkpt>
      <trkpt lat="45.93078" lon="4.68629">
        <ele>354</ele>
        <time>2018-02-18T11:36:04Z</time>
      </trkpt>
      <trkpt lat="45.93086" lon="4.68631">
        <ele>349</ele>
        <time>2018-02-18T11:36:05Z</time>
      </trkpt>
      <trkpt lat="45.93094" lon="4.68633">
        <ele>349</ele>
        <time>2018-02-18T11:36:06Z</time>
      </trkpt>
      <trkpt lat="45.93102" lon="4.68634">
        <ele>349</ele>
        <time>2018-02-18T11:36:07Z</time>
      </trkpt>
      <trkpt lat="45.93109" lon="4.68637">
        <ele>348</ele>
        <time>2018-02-18T11:36:08Z</time>
      </trkpt>
      <trkpt lat="45.93117" lon="4.68639">
        <ele>348</ele>
        <time>2018-02-18T11:36:09Z</time>
      </trkpt>
      <trkpt lat="45.93125" lon="4.68642">
        <ele>348</ele>
        <time>2018-02-18T11:36:10Z</time>
      </trkpt>
      <trkpt lat="45.93133" lon="4.68645">
        <ele>348</ele>
        <time>2018-02-18T11:36:11Z</time>
      </trkpt>
      <trkpt lat="45.93141" lon="4.68647">
        <ele>347</ele>
        <time>2018-02-18T11:36:12Z</time>
      </trkpt>
      <trkpt lat="45.93149" lon="4.68649">
        <ele>347</ele>
        <time>2018-02-18T11:36:13Z</time>
      </trkpt>
      <trkpt lat="45.93157" lon="4.68651">
        <ele>347</ele>
        <time>2018-02-18T11:36:14Z</time>
      </trkpt>
      <trkpt lat="45.93164" lon="4.68653">
        <ele>347</ele>
        <time>2018-02-18T11:36:15Z</time>
      </trkpt>
      <trkpt lat="45.93173" lon="4.68655">
        <ele>345</ele>
        <time>2018-02-18T11:36:16Z</time>
      </trkpt>
      <trkpt lat="45.93181" lon="4.68657">
        <ele>345</ele>
        <time>2018-02-18T11:36:17Z</time>
      </trkpt>
      <trkpt lat="45.93189" lon="4.68659">
        <ele>345</ele>
        <time>2018-02-18T11:36:18Z</time>
      </trkpt>
      <trkpt lat="45.93197" lon="4.68661">
        <ele>345</ele>
        <time>2018-02-18T11:36:19Z</time>
      </trkpt>
      <trkpt lat="45.93205" lon="4.68663">
        <ele>344</ele>
        <time>2018-02-18T11:36:20Z</time>
      </trkpt>
      <trkpt lat="45.93212" lon="4.68664">
        <ele>344</ele>
        <time>2018-02-18T11:36:21Z</time>
      </trkpt>
      <trkpt lat="45.93219" lon="4.68666">
        <ele>344</ele>
        <time>2018-02-18T11:36:22Z</time>
      </trkpt>
      <trkpt lat="45.93225" lon="4.68667">
        <ele>345</ele>
        <time>2018-02-18T11:36:23Z</time>
      </trkpt>
      <trkpt lat="45.93233" lon="4.68669">
        <ele>345</ele>
        <time>2018-02-18T11:36:24Z</time>
      </trkpt>
      <trkpt lat="45.9324" lon="4.6867">
        <ele>344</ele>
        <time>2018-02-18T11:36:25Z</time>
      </trkpt>
      <trkpt lat="45.93247" lon="4.68671">
        <ele>344</ele>
        <time>2018-02-18T11:36:26Z</time>
      </trkpt>
      <trkpt lat="45.93253" lon="4.68672">
        <ele>344</ele>
        <time>2018-02-18T11:36:27Z</time>
      </trkpt>
      <trkpt lat="45.9326" lon="4.68674">
        <ele>344</ele>
        <time>2018-02-18T11:36:28Z</time>
      </trkpt>
      <trkpt lat="45.93265" lon="4.68676">
        <ele>344</ele>
        <time>2018-02-18T11:36:29Z</time>
      </trkpt>
      <trkpt lat="45.93272" lon="4.68677">
        <ele>344</ele>
        <time>2018-02-18T11:36:30Z</time>
      </trkpt>
      <trkpt lat="45.93278" lon="4.68679">
        <ele>344</ele>
        <time>2018-02-18T11:36:31Z</time>
      </trkpt>
      <trkpt lat="45.93284" lon="4.6868">
        <ele>344</ele>
        <time>2018-02-18T11:36:32Z</time>
      </trkpt>
      <trkpt lat="45.9329" lon="4.68682">
        <ele>344</ele>
        <time>2018-02-18T11:36:33Z</time>
      </trkpt>
      <trkpt lat="45.93295" lon="4.68684">
        <ele>344</ele>
        <time>2018-02-18T11:36:34Z</time>
      </trkpt>
      <trkpt lat="45.93302" lon="4.68685">
        <ele>344</ele>
        <time>2018-02-18T11:36:35Z</time>
      </trkpt>
      <trkpt lat="45.93309" lon="4.68685">
        <ele>344</ele>
        <time>2018-02-18T11:36:36Z</time>
      </trkpt>
      <trkpt lat="45.93316" lon="4.68686">
        <ele>344</ele>
        <time>2018-02-18T11:36:37Z</time>
      </trkpt>
      <trkpt lat="45.93323" lon="4.68688">
        <ele>344</ele>
        <time>2018-02-18T11:36:38Z</time>
      </trkpt>
      <trkpt lat="45.93329" lon="4.6869">
        <ele>344</ele>
        <time>2018-02-18T11:36:39Z</time>
      </trkpt>
      <trkpt lat="45.93335" lon="4.68691">
        <ele>344</ele>
        <time>2018-02-18T11:36:40Z</time>
      </trkpt>
      <trkpt lat="45.93342" lon="4.68693">
        <ele>344</ele>
        <time>2018-02-18T11:36:41Z</time>
      </trkpt>
      <trkpt lat="45.93347" lon="4.68694">
        <ele>344</ele>
        <time>2018-02-18T11:36:42Z</time>
      </trkpt>
      <trkpt lat="45.93354" lon="4.68695">
        <ele>344</ele>
        <time>2018-02-18T11:36:43Z</time>
      </trkpt>
      <trkpt lat="45.9336" lon="4.68696">
        <ele>344</ele>
        <time>2018-02-18T11:36:44Z</time>
      </trkpt>
      <trkpt lat="45.93366" lon="4.68697">
        <ele>344</ele>
        <time>2018-02-18T11:36:45Z</time>
      </trkpt>
      <trkpt lat="45.93371" lon="4.68698">
        <ele>344</ele>
        <time>2018-02-18T11:36:46Z</time>
      </trkpt>
      <trkpt lat="45.93377" lon="4.68699">
        <ele>344</ele>
        <time>2018-02-18T11:36:47Z</time>
      </trkpt>
      <trkpt lat="45.93382" lon="4.687">
        <ele>344</ele>
        <time>2018-02-18T11:36:48Z</time>
      </trkpt>
      <trkpt lat="45.93387" lon="4.68701">
        <ele>344</ele>
        <time>2018-02-18T11:36:49Z</time>
      </trkpt>
      <trkpt lat="45.93393" lon="4.68703">
        <ele>344</ele>
        <time>2018-02-18T11:36:50Z</time>
      </trkpt>
      <trkpt lat="45.93399" lon="4.68705">
        <ele>344</ele>
        <time>2018-02-18T11:36:51Z</time>
      </trkpt>
      <trkpt lat="45.93405" lon="4.68706">
        <ele>344</ele>
        <time>2018-02-18T11:36:52Z</time>
      </trkpt>
      <trkpt lat="45.93411" lon="4.68709">
        <ele>343</ele>
        <time>2018-02-18T11:36:53Z</time>
      </trkpt>
      <trkpt lat="45.93417" lon="4.6871">
        <ele>343</ele>
        <time>2018-02-18T11:36:54Z</time>
      </trkpt>
      <trkpt lat="45.93423" lon="4.68711">
        <ele>343</ele>
        <time>2018-02-18T11:36:55Z</time>
      </trkpt>
      <trkpt lat="45.93429" lon="4.68712">
        <ele>343</ele>
        <time>2018-02-18T11:36:56Z</time>
      </trkpt>
      <trkpt lat="45.93435" lon="4.68713">
        <ele>343</ele>
        <time>2018-02-18T11:36:57Z</time>
      </trkpt>
      <trkpt lat="45.93441" lon="4.68714">
        <ele>343</ele>
        <time>2018-02-18T11:36:58Z</time>
      </trkpt>
      <trkpt lat="45.93447" lon="4.68715">
        <ele>343</ele>
        <time>2018-02-18T11:36:59Z</time>
      </trkpt>
      <trkpt lat="45.93453" lon="4.68716">
        <ele>343</ele>
        <time>2018-02-18T11:37:00Z</time>
      </trkpt>
      <trkpt lat="45.93458" lon="4.68718">
        <ele>342</ele>
        <time>2018-02-18T11:37:01Z</time>
      </trkpt>
      <trkpt lat="45.93464" lon="4.6872">
        <ele>342</ele>
        <time>2018-02-18T11:37:02Z</time>
      </trkpt>
      <trkpt lat="45.9347" lon="4.68722">
        <ele>342</ele>
        <time>2018-02-18T11:37:03Z</time>
      </trkpt>
      <trkpt lat="45.93475" lon="4.68723">
        <ele>342</ele>
        <time>2018-02-18T11:37:04Z</time>
      </trkpt>
      <trkpt lat="45.93481" lon="4.68724">
        <ele>342</ele>
        <time>2018-02-18T11:37:05Z</time>
      </trkpt>
      <trkpt lat="45.93486" lon="4.68725">
        <ele>342</ele>
        <time>2018-02-18T11:37:06Z</time>
      </trkpt>
      <trkpt lat="45.93492" lon="4.68726">
        <ele>342</ele>
        <time>2018-02-18T11:37:07Z</time>
      </trkpt>
      <trkpt lat="45.93497" lon="4.68727">
        <ele>342</ele>
        <time>2018-02-18T11:37:08Z</time>
      </trkpt>
      <trkpt lat="45.93502" lon="4.68728">
        <ele>342</ele>
        <time>2018-02-18T11:37:09Z</time>
      </trkpt>
      <trkpt lat="45.93507" lon="4.6873">
        <ele>342</ele>
        <time>2018-02-18T11:37:10Z</time>
      </trkpt>
      <trkpt lat="45.93511" lon="4.68731">
        <ele>342</ele>
        <time>2018-02-18T11:37:11Z</time>
      </trkpt>
      <trkpt lat="45.93516" lon="4.68733">
        <ele>342</ele>
        <time>2018-02-18T11:37:12Z</time>
      </trkpt>
      <trkpt lat="45.93522" lon="4.68734">
        <ele>342</ele>
        <time>2018-02-18T11:37:13Z</time>
      </trkpt>
      <trkpt lat="45.93527" lon="4.68735">
        <ele>342</ele>
        <time>2018-02-18T11:37:14Z</time>
      </trkpt>
      <trkpt lat="45.93532" lon="4.68735">
        <ele>342</ele>
        <time>2018-02-18T11:37:15Z</time>
      </trkpt>
      <trkpt lat="45.93536" lon="4.68738">
        <ele>342</ele>
        <time>2018-02-18T11:37:16Z</time>
      </trkpt>
      <trkpt lat="45.9354" lon="4.68737">
        <ele>342</ele>
        <time>2018-02-18T11:37:17Z</time>
      </trkpt>
      <trkpt lat="45.93545" lon="4.68739">
        <ele>342</ele>
        <time>2018-02-18T11:37:18Z</time>
      </trkpt>
      <trkpt lat="45.9355" lon="4.6874">
        <ele>342</ele>
        <time>2018-02-18T11:37:19Z</time>
      </trkpt>
      <trkpt lat="45.93554" lon="4.68742">
        <ele>342</ele>
        <time>2018-02-18T11:37:20Z</time>
      </trkpt>
      <trkpt lat="45.93559" lon="4.68743">
        <ele>342</ele>
        <time>2018-02-18T11:37:21Z</time>
      </trkpt>
      <trkpt lat="45.93563" lon="4.68745">
        <ele>343</ele>
        <time>2018-02-18T11:37:22Z</time>
      </trkpt>
      <trkpt lat="45.93568" lon="4.68747">
        <ele>343</ele>
        <time>2018-02-18T11:37:23Z</time>
      </trkpt>
      <trkpt lat="45.93573" lon="4.68748">
        <ele>343</ele>
        <time>2018-02-18T11:37:24Z</time>
      </trkpt>
      <trkpt lat="45.93578" lon="4.68749">
        <ele>343</ele>
        <time>2018-02-18T11:37:25Z</time>
      </trkpt>
      <trkpt lat="45.93583" lon="4.6875">
        <ele>344</ele>
        <time>2018-02-18T11:37:26Z</time>
      </trkpt>
      <trkpt lat="45.93587" lon="4.68751">
        <ele>344</ele>
        <time>2018-02-18T11:37:27Z</time>
      </trkpt>
      <trkpt lat="45.93592" lon="4.68753">
        <ele>344</ele>
        <time>2018-02-18T11:37:28Z</time>
      </trkpt>
      <trkpt lat="45.93597" lon="4.68753">
        <ele>344</ele>
        <time>2018-02-18T11:37:29Z</time>
      </trkpt>
      <trkpt lat="45.93602" lon="4.68754">
        <ele>344</ele>
        <time>2018-02-18T11:37:30Z</time>
      </trkpt>
      <trkpt lat="45.93607" lon="4.68755">
        <ele>344</ele>
        <time>2018-02-18T11:37:31Z</time>
      </trkpt>
      <trkpt lat="45.93612" lon="4.68756">
        <ele>344</ele>
        <time>2018-02-18T11:37:32Z</time>
      </trkpt>
      <trkpt lat="45.93617" lon="4.68757">
        <ele>343</ele>
        <time>2018-02-18T11:37:33Z</time>
      </trkpt>
      <trkpt lat="45.93621" lon="4.68758">
        <ele>343</ele>
        <time>2018-02-18T11:37:34Z</time>
      </trkpt>
      <trkpt lat="45.93626" lon="4.6876">
        <ele>343</ele>
        <time>2018-02-18T11:37:35Z</time>
      </trkpt>
      <trkpt lat="45.93631" lon="4.68762">
        <ele>343</ele>
        <time>2018-02-18T11:37:36Z</time>
      </trkpt>
      <trkpt lat="45.93636" lon="4.68764">
        <ele>343</ele>
        <time>2018-02-18T11:37:37Z</time>
      </trkpt>
      <trkpt lat="45.93641" lon="4.68766">
        <ele>343</ele>
        <time>2018-02-18T11:37:38Z</time>
      </trkpt>
      <trkpt lat="45.93646" lon="4.68769">
        <ele>343</ele>
        <time>2018-02-18T11:37:39Z</time>
      </trkpt>
      <trkpt lat="45.93651" lon="4.68771">
        <ele>343</ele>
        <time>2018-02-18T11:37:40Z</time>
      </trkpt>
      <trkpt lat="45.93656" lon="4.68772">
        <ele>343</ele>
        <time>2018-02-18T11:37:41Z</time>
      </trkpt>
      <trkpt lat="45.93661" lon="4.68772">
        <ele>343</ele>
        <time>2018-02-18T11:37:42Z</time>
      </trkpt>
      <trkpt lat="45.93667" lon="4.68772">
        <ele>342</ele>
        <time>2018-02-18T11:37:43Z</time>
      </trkpt>
      <trkpt lat="45.93672" lon="4.68772">
        <ele>342</ele>
        <time>2018-02-18T11:37:44Z</time>
      </trkpt>
      <trkpt lat="45.93676" lon="4.68775">
        <ele>342</ele>
        <time>2018-02-18T11:37:45Z</time>
      </trkpt>
      <trkpt lat="45.93681" lon="4.68777">
        <ele>342</ele>
        <time>2018-02-18T11:37:46Z</time>
      </trkpt>
      <trkpt lat="45.93686" lon="4.68779">
        <ele>342</ele>
        <time>2018-02-18T11:37:47Z</time>
      </trkpt>
      <trkpt lat="45.9369" lon="4.6878">
        <ele>342</ele>
        <time>2018-02-18T11:37:48Z</time>
      </trkpt>
      <trkpt lat="45.93695" lon="4.68781">
        <ele>342</ele>
        <time>2018-02-18T11:37:49Z</time>
      </trkpt>
      <trkpt lat="45.93701" lon="4.68783">
        <ele>342</ele>
        <time>2018-02-18T11:37:50Z</time>
      </trkpt>
      <trkpt lat="45.93705" lon="4.68785">
        <ele>342</ele>
        <time>2018-02-18T11:37:51Z</time>
      </trkpt>
      <trkpt lat="45.9371" lon="4.68785">
        <ele>342</ele>
        <time>2018-02-18T11:37:52Z</time>
      </trkpt>
      <trkpt lat="45.93715" lon="4.68787">
        <ele>342</ele>
        <time>2018-02-18T11:37:53Z</time>
      </trkpt>
      <trkpt lat="45.93719" lon="4.68787">
        <ele>342</ele>
        <time>2018-02-18T11:37:54Z</time>
      </trkpt>
      <trkpt lat="45.93725" lon="4.68791">
        <ele>342</ele>
        <time>2018-02-18T11:37:55Z</time>
      </trkpt>
      <trkpt lat="45.93729" lon="4.6879">
        <ele>342</ele>
        <time>2018-02-18T11:37:56Z</time>
      </trkpt>
      <trkpt lat="45.93734" lon="4.68791">
        <ele>342</ele>
        <time>2018-02-18T11:37:57Z</time>
      </trkpt>
      <trkpt lat="45.93739" lon="4.68792">
        <ele>342</ele>
        <time>2018-02-18T11:37:58Z</time>
      </trkpt>
      <trkpt lat="45.93743" lon="4.68795">
        <ele>342</ele>
        <time>2018-02-18T11:37:59Z</time>
      </trkpt>
      <trkpt lat="45.93748" lon="4.68796">
        <ele>342</ele>
        <time>2018-02-18T11:38:00Z</time>
      </trkpt>
      <trkpt lat="45.93754" lon="4.68796">
        <ele>341</ele>
        <time>2018-02-18T11:38:01Z</time>
      </trkpt>
      <trkpt lat="45.93758" lon="4.68796">
        <ele>341</ele>
        <time>2018-02-18T11:38:02Z</time>
      </trkpt>
      <trkpt lat="45.93767" lon="4.688">
        <ele>341</ele>
        <time>2018-02-18T11:38:04Z</time>
      </trkpt>
      <trkpt lat="45.93772" lon="4.68802">
        <ele>341</ele>
        <time>2018-02-18T11:38:05Z</time>
      </trkpt>
      <trkpt lat="45.93776" lon="4.68804">
        <ele>341</ele>
        <time>2018-02-18T11:38:06Z</time>
      </trkpt>
      <trkpt lat="45.93782" lon="4.68806">
        <ele>341</ele>
        <time>2018-02-18T11:38:07Z</time>
      </trkpt>
      <trkpt lat="45.93787" lon="4.6881">
        <ele>341</ele>
        <time>2018-02-18T11:38:08Z</time>
      </trkpt>
      <trkpt lat="45.93792" lon="4.68812">
        <ele>341</ele>
        <time>2018-02-18T11:38:09Z</time>
      </trkpt>
      <trkpt lat="45.93797" lon="4.68815">
        <ele>341</ele>
        <time>2018-02-18T11:38:10Z</time>
      </trkpt>
      <trkpt lat="45.93802" lon="4.68818">
        <ele>341</ele>
        <time>2018-02-18T11:38:11Z</time>
      </trkpt>
      <trkpt lat="45.93807" lon="4.6882">
        <ele>341</ele>
        <time>2018-02-18T11:38:12Z</time>
      </trkpt>
      <trkpt lat="45.93811" lon="4.68823">
        <ele>341</ele>
        <time>2018-02-18T11:38:13Z</time>
      </trkpt>
      <trkpt lat="45.93816" lon="4.68825">
        <ele>341</ele>
        <time>2018-02-18T11:38:14Z</time>
      </trkpt>
      <trkpt lat="45.93822" lon="4.68828">
        <ele>341</ele>
        <time>2018-02-18T11:38:15Z</time>
      </trkpt>
      <trkpt lat="45.93826" lon="4.68831">
        <ele>342</ele>
        <time>2018-02-18T11:38:16Z</time>
      </trkpt>
      <trkpt lat="45.93831" lon="4.68834">
        <ele>342</ele>
        <time>2018-02-18T11:38:17Z</time>
      </trkpt>
      <trkpt lat="45.93835" lon="4.68837">
        <ele>342</ele>
        <time>2018-02-18T11:38:18Z</time>
      </trkpt>
      <trkpt lat="45.9384" lon="4.6884">
        <ele>342</ele>
        <time>2018-02-18T11:38:19Z</time>
      </trkpt>
      <trkpt lat="45.93844" lon="4.68843">
        <ele>342</ele>
        <time>2018-02-18T11:38:20Z</time>
      </trkpt>
      <trkpt lat="45.93848" lon="4.68846">
        <ele>342</ele>
        <time>2018-02-18T11:38:21Z</time>
      </trkpt>
      <trkpt lat="45.93853" lon="4.68848">
        <ele>342</ele>
        <time>2018-02-18T11:38:22Z</time>
      </trkpt>
      <trkpt lat="45.93857" lon="4.68852">
        <ele>342</ele>
        <time>2018-02-18T11:38:23Z</time>
      </trkpt>
      <trkpt lat="45.93865" lon="4.68858">
        <ele>342</ele>
        <time>2018-02-18T11:38:25Z</time>
      </trkpt>
      <trkpt lat="45.93869" lon="4.68862">
        <ele>342</ele>
        <time>2018-02-18T11:38:26Z</time>
      </trkpt>
      <trkpt lat="45.93873" lon="4.68865">
        <ele>342</ele>
        <time>2018-02-18T11:38:27Z</time>
      </trkpt>
      <trkpt lat="45.93879" lon="4.68868">
        <ele>343</ele>
        <time>2018-02-18T11:38:28Z</time>
      </trkpt>
      <trkpt lat="45.93883" lon="4.68872">
        <ele>343</ele>
        <time>2018-02-18T11:38:29Z</time>
      </trkpt>
      <trkpt lat="45.93887" lon="4.68875">
        <ele>343</ele>
        <time>2018-02-18T11:38:30Z</time>
      </trkpt>
      <trkpt lat="45.93892" lon="4.68877">
        <ele>342</ele>
        <time>2018-02-18T11:38:31Z</time>
      </trkpt>
      <trkpt lat="45.93896" lon="4.68879">
        <ele>342</ele>
        <time>2018-02-18T11:38:32Z</time>
      </trkpt>
      <trkpt lat="45.93901" lon="4.68881">
        <ele>342</ele>
        <time>2018-02-18T11:38:33Z</time>
      </trkpt>
      <trkpt lat="45.93906" lon="4.68883">
        <ele>342</ele>
        <time>2018-02-18T11:38:34Z</time>
      </trkpt>
      <trkpt lat="45.93911" lon="4.68885">
        <ele>342</ele>
        <time>2018-02-18T11:38:35Z</time>
      </trkpt>
      <trkpt lat="45.93916" lon="4.68886">
        <ele>342</ele>
        <time>2018-02-18T11:38:36Z</time>
      </trkpt>
      <trkpt lat="45.93921" lon="4.68887">
        <ele>342</ele>
        <time>2018-02-18T11:38:37Z</time>
      </trkpt>
      <trkpt lat="45.93926" lon="4.68889">
        <ele>342</ele>
        <time>2018-02-18T11:38:38Z</time>
      </trkpt>
      <trkpt lat="45.9393" lon="4.68891">
        <ele>342</ele>
        <time>2018-02-18T11:38:39Z</time>
      </trkpt>
      <trkpt lat="45.93935" lon="4.68892">
        <ele>342</ele>
        <time>2018-02-18T11:38:40Z</time>
      </trkpt>
      <trkpt lat="45.93939" lon="4.68893">
        <ele>342</ele>
        <time>2018-02-18T11:38:41Z</time>
      </trkpt>
      <trkpt lat="45.93944" lon="4.68894">
        <ele>342</ele>
        <time>2018-02-18T11:38:42Z</time>
      </trkpt>
      <trkpt lat="45.93953" lon="4.68898">
        <ele>342</ele>
        <time>2018-02-18T11:38:44Z</time>
      </trkpt>
      <trkpt lat="45.93958" lon="4.689">
        <ele>342</ele>
        <time>2018-02-18T11:38:45Z</time>
      </trkpt>
      <trkpt lat="45.93963" lon="4.68902">
        <ele>342</ele>
        <time>2018-02-18T11:38:46Z</time>
      </trkpt>
      <trkpt lat="45.93968" lon="4.68904">
        <ele>342</ele>
        <time>2018-02-18T11:38:47Z</time>
      </trkpt>
      <trkpt lat="45.93973" lon="4.68906">
        <ele>342</ele>
        <time>2018-02-18T11:38:48Z</time>
      </trkpt>
      <trkpt lat="45.93978" lon="4.68908">
        <ele>342</ele>
        <time>2018-02-18T11:38:49Z</time>
      </trkpt>
      <trkpt lat="45.93982" lon="4.68911">
        <ele>342</ele>
        <time>2018-02-18T11:38:50Z</time>
      </trkpt>
      <trkpt lat="45.93987" lon="4.68912">
        <ele>342</ele>
        <time>2018-02-18T11:38:51Z</time>
      </trkpt>
      <trkpt lat="45.93991" lon="4.68913">
        <ele>342</ele>
        <time>2018-02-18T11:38:52Z</time>
      </trkpt>
      <trkpt lat="45.93997" lon="4.68914">
        <ele>342</ele>
        <time>2018-02-18T11:38:53Z</time>
      </trkpt>
      <trkpt lat="45.94002" lon="4.68915">
        <ele>342</ele>
        <time>2018-02-18T11:38:54Z</time>
      </trkpt>
      <trkpt lat="45.94008" lon="4.68918">
        <ele>342</ele>
        <time>2018-02-18T11:38:55Z</time>
      </trkpt>
      <trkpt lat="45.94013" lon="4.68919">
        <ele>342</ele>
        <time>2018-02-18T11:38:56Z</time>
      </trkpt>
      <trkpt lat="45.94018" lon="4.68921">
        <ele>341</ele>
        <time>2018-02-18T11:38:57Z</time>
      </trkpt>
      <trkpt lat="45.94023" lon="4.68924">
        <ele>341</ele>
        <time>2018-02-18T11:38:58Z</time>
      </trkpt>
      <trkpt lat="45.94027" lon="4.68926">
        <ele>341</ele>
        <time>2018-02-18T11:38:59Z</time>
      </trkpt>
      <trkpt lat="45.94032" lon="4.68927">
        <ele>341</ele>
        <time>2018-02-18T11:39:00Z</time>
      </trkpt>
      <trkpt lat="45.94037" lon="4.68929">
        <ele>341</ele>
        <time>2018-02-18T11:39:01Z</time>
      </trkpt>
      <trkpt lat="45.94042" lon="4.68931">
        <ele>341</ele>
        <time>2018-02-18T11:39:02Z</time>
      </trkpt>
      <trkpt lat="45.94047" lon="4.68932">
        <ele>341</ele>
        <time>2018-02-18T11:39:03Z</time>
      </trkpt>
      <trkpt lat="45.94052" lon="4.68935">
        <ele>341</ele>
        <time>2018-02-18T11:39:04Z</time>
      </trkpt>
      <trkpt lat="45.94056" lon="4.68939">
        <ele>341</ele>
        <time>2018-02-18T11:39:05Z</time>
      </trkpt>
      <trkpt lat="45.9406" lon="4.68942">
        <ele>341</ele>
        <time>2018-02-18T11:39:06Z</time>
      </trkpt>
      <trkpt lat="45.94065" lon="4.68945">
        <ele>341</ele>
        <time>2018-02-18T11:39:07Z</time>
      </trkpt>
      <trkpt lat="45.9407" lon="4.68946">
        <ele>341</ele>
        <time>2018-02-18T11:39:08Z</time>
      </trkpt>
      <trkpt lat="45.94075" lon="4.68948">
        <ele>341</ele>
        <time>2018-02-18T11:39:09Z</time>
      </trkpt>
      <trkpt lat="45.9408" lon="4.68948">
        <ele>341</ele>
        <time>2018-02-18T11:39:10Z</time>
      </trkpt>
      <trkpt lat="45.94085" lon="4.68949">
        <ele>340</ele>
        <time>2018-02-18T11:39:11Z</time>
      </trkpt>
      <trkpt lat="45.9409" lon="4.68951">
        <ele>340</ele>
        <time>2018-02-18T11:39:12Z</time>
      </trkpt>
      <trkpt lat="45.94095" lon="4.68952">
        <ele>340</ele>
        <time>2018-02-18T11:39:13Z</time>
      </trkpt>
      <trkpt lat="45.941" lon="4.68954">
        <ele>340</ele>
        <time>2018-02-18T11:39:14Z</time>
      </trkpt>
      <trkpt lat="45.94105" lon="4.68956">
        <ele>340</ele>
        <time>2018-02-18T11:39:15Z</time>
      </trkpt>
      <trkpt lat="45.94111" lon="4.68958">
        <ele>340</ele>
        <time>2018-02-18T11:39:16Z</time>
      </trkpt>
      <trkpt lat="45.94116" lon="4.6896">
        <ele>340</ele>
        <time>2018-02-18T11:39:17Z</time>
      </trkpt>
      <trkpt lat="45.94122" lon="4.68961">
        <ele>340</ele>
        <time>2018-02-18T11:39:18Z</time>
      </trkpt>
      <trkpt lat="45.94127" lon="4.68963">
        <ele>340</ele>
        <time>2018-02-18T11:39:19Z</time>
      </trkpt>
      <trkpt lat="45.94133" lon="4.68964">
        <ele>340</ele>
        <time>2018-02-18T11:39:20Z</time>
      </trkpt>
      <trkpt lat="45.94138" lon="4.68966">
        <ele>340</ele>
        <time>2018-02-18T11:39:21Z</time>
      </trkpt>
      <trkpt lat="45.94143" lon="4.68967">
        <ele>340</ele>
        <time>2018-02-18T11:39:22Z</time>
      </trkpt>
      <trkpt lat="45.94149" lon="4.68969">
        <ele>340</ele>
        <time>2018-02-18T11:39:23Z</time>
      </trkpt>
      <trkpt lat="45.94154" lon="4.68971">
        <ele>340</ele>
        <time>2018-02-18T11:39:24Z</time>
      </trkpt>
      <trkpt lat="45.9416" lon="4.68972">
        <ele>340</ele>
        <time>2018-02-18T11:39:25Z</time>
      </trkpt>
      <trkpt lat="45.94165" lon="4.68974">
        <ele>340</ele>
        <time>2018-02-18T11:39:26Z</time>
      </trkpt>
      <trkpt lat="45.9417" lon="4.68976">
        <ele>339</ele>
        <time>2018-02-18T11:39:27Z</time>
      </trkpt>
      <trkpt lat="45.94176" lon="4.68978">
        <ele>339</ele>
        <time>2018-02-18T11:39:28Z</time>
      </trkpt>
      <trkpt lat="45.94181" lon="4.68978">
        <ele>339</ele>
        <time>2018-02-18T11:39:29Z</time>
      </trkpt>
      <trkpt lat="45.94186" lon="4.68979">
        <ele>338</ele>
        <time>2018-02-18T11:39:30Z</time>
      </trkpt>
      <trkpt lat="45.94191" lon="4.68979">
        <ele>338</ele>
        <time>2018-02-18T11:39:31Z</time>
      </trkpt>
      <trkpt lat="45.94196" lon="4.68981">
        <ele>338</ele>
        <time>2018-02-18T11:39:32Z</time>
      </trkpt>
      <trkpt lat="45.94201" lon="4.68982">
        <ele>338</ele>
        <time>2018-02-18T11:39:33Z</time>
      </trkpt>
      <trkpt lat="45.94206" lon="4.68983">
        <ele>338</ele>
        <time>2018-02-18T11:39:34Z</time>
      </trkpt>
      <trkpt lat="45.94212" lon="4.68985">
        <ele>338</ele>
        <time>2018-02-18T11:39:35Z</time>
      </trkpt>
      <trkpt lat="45.94218" lon="4.68987">
        <ele>338</ele>
        <time>2018-02-18T11:39:36Z</time>
      </trkpt>
      <trkpt lat="45.94224" lon="4.68988">
        <ele>338</ele>
        <time>2018-02-18T11:39:37Z</time>
      </trkpt>
      <trkpt lat="45.94229" lon="4.6899">
        <ele>338</ele>
        <time>2018-02-18T11:39:38Z</time>
      </trkpt>
      <trkpt lat="45.94234" lon="4.68992">
        <ele>338</ele>
        <time>2018-02-18T11:39:39Z</time>
      </trkpt>
      <trkpt lat="45.9424" lon="4.68994">
        <ele>338</ele>
        <time>2018-02-18T11:39:40Z</time>
      </trkpt>
      <trkpt lat="45.94245" lon="4.68995">
        <ele>338</ele>
        <time>2018-02-18T11:39:41Z</time>
      </trkpt>
      <trkpt lat="45.9425" lon="4.68995">
        <ele>338</ele>
        <time>2018-02-18T11:39:42Z</time>
      </trkpt>
      <trkpt lat="45.94255" lon="4.68996">
        <ele>338</ele>
        <time>2018-02-18T11:39:43Z</time>
      </trkpt>
      <trkpt lat="45.9426" lon="4.68997">
        <ele>337</ele>
        <time>2018-02-18T11:39:44Z</time>
      </trkpt>
      <trkpt lat="45.94264" lon="4.68999">
        <ele>337</ele>
        <time>2018-02-18T11:39:45Z</time>
      </trkpt>
      <trkpt lat="45.94269" lon="4.69">
        <ele>337</ele>
        <time>2018-02-18T11:39:46Z</time>
      </trkpt>
      <trkpt lat="45.94274" lon="4.69001">
        <ele>337</ele>
        <time>2018-02-18T11:39:47Z</time>
      </trkpt>
      <trkpt lat="45.94279" lon="4.69002">
        <ele>337</ele>
        <time>2018-02-18T11:39:48Z</time>
      </trkpt>
      <trkpt lat="45.94284" lon="4.69003">
        <ele>337</ele>
        <time>2018-02-18T11:39:49Z</time>
      </trkpt>
      <trkpt lat="45.94289" lon="4.69004">
        <ele>337</ele>
        <time>2018-02-18T11:39:50Z</time>
      </trkpt>
      <trkpt lat="45.94294" lon="4.69004">
        <ele>337</ele>
        <time>2018-02-18T11:39:51Z</time>
      </trkpt>
      <trkpt lat="45.94298" lon="4.69004">
        <ele>337</ele>
        <time>2018-02-18T11:39:52Z</time>
      </trkpt>
      <trkpt lat="45.94303" lon="4.69005">
        <ele>337</ele>
        <time>2018-02-18T11:39:53Z</time>
      </trkpt>
      <trkpt lat="45.94312" lon="4.69007">
        <ele>337</ele>
        <time>2018-02-18T11:39:55Z</time>
      </trkpt>
      <trkpt lat="45.94316" lon="4.69008">
        <ele>337</ele>
        <time>2018-02-18T11:39:56Z</time>
      </trkpt>
      <trkpt lat="45.9432" lon="4.6901">
        <ele>337</ele>
        <time>2018-02-18T11:39:57Z</time>
      </trkpt>
      <trkpt lat="45.94325" lon="4.69008">
        <ele>337</ele>
        <time>2018-02-18T11:39:58Z</time>
      </trkpt>
      <trkpt lat="45.9433" lon="4.6901">
        <ele>337</ele>
        <time>2018-02-18T11:39:59Z</time>
      </trkpt>
      <trkpt lat="45.94335" lon="4.6901">
        <ele>337</ele>
        <time>2018-02-18T11:40:00Z</time>
      </trkpt>
      <trkpt lat="45.94343" lon="4.69009">
        <ele>338</ele>
        <time>2018-02-18T11:40:02Z</time>
      </trkpt>
      <trkpt lat="45.94348" lon="4.6901">
        <ele>338</ele>
        <time>2018-02-18T11:40:03Z</time>
      </trkpt>
      <trkpt lat="45.94356" lon="4.69011">
        <ele>338</ele>
        <time>2018-02-18T11:40:05Z</time>
      </trkpt>
      <trkpt lat="45.94361" lon="4.6901">
        <ele>338</ele>
        <time>2018-02-18T11:40:06Z</time>
      </trkpt>
      <trkpt lat="45.9437" lon="4.69011">
        <ele>338</ele>
        <time>2018-02-18T11:40:08Z</time>
      </trkpt>
      <trkpt lat="45.94374" lon="4.69012">
        <ele>338</ele>
        <time>2018-02-18T11:40:09Z</time>
      </trkpt>
      <trkpt lat="45.94382" lon="4.6901">
        <ele>338</ele>
        <time>2018-02-18T11:40:11Z</time>
      </trkpt>
      <trkpt lat="45.94387" lon="4.69009">
        <ele>338</ele>
        <time>2018-02-18T11:40:12Z</time>
      </trkpt>
      <trkpt lat="45.94391" lon="4.69009">
        <ele>338</ele>
        <time>2018-02-18T11:40:13Z</time>
      </trkpt>
      <trkpt lat="45.94396" lon="4.6901">
        <ele>339</ele>
        <time>2018-02-18T11:40:14Z</time>
      </trkpt>
      <trkpt lat="45.94404" lon="4.69011">
        <ele>339</ele>
        <time>2018-02-18T11:40:16Z</time>
      </trkpt>
      <trkpt lat="45.94408" lon="4.69011">
        <ele>339</ele>
        <time>2018-02-18T11:40:17Z</time>
      </trkpt>
      <trkpt lat="45.94416" lon="4.69011">
        <ele>339</ele>
        <time>2018-02-18T11:40:19Z</time>
      </trkpt>
      <trkpt lat="45.9442" lon="4.69011">
        <ele>340</ele>
        <time>2018-02-18T11:40:20Z</time>
      </trkpt>
      <trkpt lat="45.94428" lon="4.6901">
        <ele>340</ele>
        <time>2018-02-18T11:40:22Z</time>
      </trkpt>
      <trkpt lat="45.94431" lon="4.69011">
        <ele>340</ele>
        <time>2018-02-18T11:40:23Z</time>
      </trkpt>
      <trkpt lat="45.94439" lon="4.69012">
        <ele>340</ele>
        <time>2018-02-18T11:40:25Z</time>
      </trkpt>
      <trkpt lat="45.94442" lon="4.69012">
        <ele>340</ele>
        <time>2018-02-18T11:40:26Z</time>
      </trkpt>
      <trkpt lat="45.9445" lon="4.69014">
        <ele>340</ele>
        <time>2018-02-18T11:40:28Z</time>
      </trkpt>
      <trkpt lat="45.94454" lon="4.69014">
        <ele>340</ele>
        <time>2018-02-18T11:40:29Z</time>
      </trkpt>
      <trkpt lat="45.94461" lon="4.69015">
        <ele>341</ele>
        <time>2018-02-18T11:40:31Z</time>
      </trkpt>
      <trkpt lat="45.94465" lon="4.69015">
        <ele>341</ele>
        <time>2018-02-18T11:40:32Z</time>
      </trkpt>
      <trkpt lat="45.94472" lon="4.69016">
        <ele>341</ele>
        <time>2018-02-18T11:40:34Z</time>
      </trkpt>
      <trkpt lat="45.94476" lon="4.69016">
        <ele>341</ele>
        <time>2018-02-18T11:40:35Z</time>
      </trkpt>
      <trkpt lat="45.94484" lon="4.69017">
        <ele>341</ele>
        <time>2018-02-18T11:40:37Z</time>
      </trkpt>
      <trkpt lat="45.94488" lon="4.69017">
        <ele>341</ele>
        <time>2018-02-18T11:40:38Z</time>
      </trkpt>
      <trkpt lat="45.94495" lon="4.69019">
        <ele>341</ele>
        <time>2018-02-18T11:40:40Z</time>
      </trkpt>
      <trkpt lat="45.94499" lon="4.6902">
        <ele>341</ele>
        <time>2018-02-18T11:40:41Z</time>
      </trkpt>
      <trkpt lat="45.94507" lon="4.69021">
        <ele>342</ele>
        <time>2018-02-18T11:40:43Z</time>
      </trkpt>
      <trkpt lat="45.94511" lon="4.69022">
        <ele>342</ele>
        <time>2018-02-18T11:40:44Z</time>
      </trkpt>
      <trkpt lat="45.94518" lon="4.69025">
        <ele>342</ele>
        <time>2018-02-18T11:40:46Z</time>
      </trkpt>
      <trkpt lat="45.94522" lon="4.69026">
        <ele>342</ele>
        <time>2018-02-18T11:40:47Z</time>
      </trkpt>
      <trkpt lat="45.94529" lon="4.69028">
        <ele>342</ele>
        <time>2018-02-18T11:40:49Z</time>
      </trkpt>
      <trkpt lat="45.94533" lon="4.6903">
        <ele>342</ele>
        <time>2018-02-18T11:40:50Z</time>
      </trkpt>
      <trkpt lat="45.9454" lon="4.69032">
        <ele>342</ele>
        <time>2018-02-18T11:40:52Z</time>
      </trkpt>
      <trkpt lat="45.94544" lon="4.69032">
        <ele>342</ele>
        <time>2018-02-18T11:40:53Z</time>
      </trkpt>
      <trkpt lat="45.94552" lon="4.69035">
        <ele>342</ele>
        <time>2018-02-18T11:40:55Z</time>
      </trkpt>
      <trkpt lat="45.94556" lon="4.69037">
        <ele>342</ele>
        <time>2018-02-18T11:40:56Z</time>
      </trkpt>
      <trkpt lat="45.94564" lon="4.69039">
        <ele>342</ele>
        <time>2018-02-18T11:40:58Z</time>
      </trkpt>
      <trkpt lat="45.94568" lon="4.6904">
        <ele>342</ele>
        <time>2018-02-18T11:40:59Z</time>
      </trkpt>
      <trkpt lat="45.94576" lon="4.69043">
        <ele>342</ele>
        <time>2018-02-18T11:41:01Z</time>
      </trkpt>
      <trkpt lat="45.9458" lon="4.69044">
        <ele>342</ele>
        <time>2018-02-18T11:41:02Z</time>
      </trkpt>
      <trkpt lat="45.94588" lon="4.69046">
        <ele>342</ele>
        <time>2018-02-18T11:41:04Z</time>
      </trkpt>
      <trkpt lat="45.94592" lon="4.69047">
        <ele>342</ele>
        <time>2018-02-18T11:41:05Z</time>
      </trkpt>
      <trkpt lat="45.94599" lon="4.69049">
        <ele>342</ele>
        <time>2018-02-18T11:41:07Z</time>
      </trkpt>
      <trkpt lat="45.94603" lon="4.6905">
        <ele>342</ele>
        <time>2018-02-18T11:41:08Z</time>
      </trkpt>
      <trkpt lat="45.94611" lon="4.69053">
        <ele>342</ele>
        <time>2018-02-18T11:41:10Z</time>
      </trkpt>
      <trkpt lat="45.94615" lon="4.69055">
        <ele>342</ele>
        <time>2018-02-18T11:41:11Z</time>
      </trkpt>
      <trkpt lat="45.94622" lon="4.69057">
        <ele>342</ele>
        <time>2018-02-18T11:41:13Z</time>
      </trkpt>
      <trkpt lat="45.94625" lon="4.69057">
        <ele>342</ele>
        <time>2018-02-18T11:41:14Z</time>
      </trkpt>
      <trkpt lat="45.94633" lon="4.69059">
        <ele>342</ele>
        <time>2018-02-18T11:41:16Z</time>
      </trkpt>
      <trkpt lat="45.94637" lon="4.69061">
        <ele>342</ele>
        <time>2018-02-18T11:41:17Z</time>
      </trkpt>
      <trkpt lat="45.94645" lon="4.69062">
        <ele>342</ele>
        <time>2018-02-18T11:41:19Z</time>
      </trkpt>
      <trkpt lat="45.94649" lon="4.69063">
        <ele>342</ele>
        <time>2018-02-18T11:41:20Z</time>
      </trkpt>
      <trkpt lat="45.94657" lon="4.69066">
        <ele>342</ele>
        <time>2018-02-18T11:41:22Z</time>
      </trkpt>
      <trkpt lat="45.94661" lon="4.69067">
        <ele>342</ele>
        <time>2018-02-18T11:41:23Z</time>
      </trkpt>
      <trkpt lat="45.94669" lon="4.6907">
        <ele>342</ele>
        <time>2018-02-18T11:41:25Z</time>
      </trkpt>
      <trkpt lat="45.94673" lon="4.69071">
        <ele>342</ele>
        <time>2018-02-18T11:41:26Z</time>
      </trkpt>
      <trkpt lat="45.94678" lon="4.69073">
        <ele>342</ele>
        <time>2018-02-18T11:41:27Z</time>
      </trkpt>
      <trkpt lat="45.94683" lon="4.69074">
        <ele>342</ele>
        <time>2018-02-18T11:41:28Z</time>
      </trkpt>
      <trkpt lat="45.94687" lon="4.69075">
        <ele>342</ele>
        <time>2018-02-18T11:41:29Z</time>
      </trkpt>
      <trkpt lat="45.94692" lon="4.69076">
        <ele>342</ele>
        <time>2018-02-18T11:41:30Z</time>
      </trkpt>
      <trkpt lat="45.947" lon="4.69079">
        <ele>342</ele>
        <time>2018-02-18T11:41:32Z</time>
      </trkpt>
      <trkpt lat="45.94704" lon="4.69081">
        <ele>342</ele>
        <time>2018-02-18T11:41:33Z</time>
      </trkpt>
      <trkpt lat="45.94712" lon="4.69083">
        <ele>343</ele>
        <time>2018-02-18T11:41:35Z</time>
      </trkpt>
      <trkpt lat="45.94717" lon="4.69085">
        <ele>344</ele>
        <time>2018-02-18T11:41:36Z</time>
      </trkpt>
      <trkpt lat="45.94725" lon="4.69088">
        <ele>344</ele>
        <time>2018-02-18T11:41:38Z</time>
      </trkpt>
      <trkpt lat="45.94729" lon="4.6909">
        <ele>344</ele>
        <time>2018-02-18T11:41:39Z</time>
      </trkpt>
      <trkpt lat="45.94738" lon="4.69093">
        <ele>344</ele>
        <time>2018-02-18T11:41:41Z</time>
      </trkpt>
      <trkpt lat="45.94742" lon="4.69094">
        <ele>344</ele>
        <time>2018-02-18T11:41:42Z</time>
      </trkpt>
      <trkpt lat="45.94751" lon="4.69096">
        <ele>345</ele>
        <time>2018-02-18T11:41:44Z</time>
      </trkpt>
      <trkpt lat="45.94755" lon="4.69098">
        <ele>345</ele>
        <time>2018-02-18T11:41:45Z</time>
      </trkpt>
      <trkpt lat="45.9476" lon="4.69099">
        <ele>344</ele>
        <time>2018-02-18T11:41:46Z</time>
      </trkpt>
      <trkpt lat="45.94764" lon="4.691">
        <ele>344</ele>
        <time>2018-02-18T11:41:47Z</time>
      </trkpt>
      <trkpt lat="45.94769" lon="4.69102">
        <ele>344</ele>
        <time>2018-02-18T11:41:48Z</time>
      </trkpt>
      <trkpt lat="45.94773" lon="4.69104">
        <ele>344</ele>
        <time>2018-02-18T11:41:49Z</time>
      </trkpt>
      <trkpt lat="45.94778" lon="4.69106">
        <ele>344</ele>
        <time>2018-02-18T11:41:50Z</time>
      </trkpt>
      <trkpt lat="45.94782" lon="4.69107">
        <ele>344</ele>
        <time>2018-02-18T11:41:51Z</time>
      </trkpt>
      <trkpt lat="45.94787" lon="4.69108">
        <ele>344</ele>
        <time>2018-02-18T11:41:52Z</time>
      </trkpt>
      <trkpt lat="45.94792" lon="4.6911">
        <ele>344</ele>
        <time>2018-02-18T11:41:53Z</time>
      </trkpt>
      <trkpt lat="45.94796" lon="4.69112">
        <ele>344</ele>
        <time>2018-02-18T11:41:54Z</time>
      </trkpt>
      <trkpt lat="45.94801" lon="4.69114">
        <ele>344</ele>
        <time>2018-02-18T11:41:55Z</time>
      </trkpt>
      <trkpt lat="45.94806" lon="4.69115">
        <ele>344</ele>
        <time>2018-02-18T11:41:56Z</time>
      </trkpt>
      <trkpt lat="45.94811" lon="4.69117">
        <ele>344</ele>
        <time>2018-02-18T11:41:57Z</time>
      </trkpt>
      <trkpt lat="45.94815" lon="4.69118">
        <ele>344</ele>
        <time>2018-02-18T11:41:58Z</time>
      </trkpt>
      <trkpt lat="45.9482" lon="4.69119">
        <ele>344</ele>
        <time>2018-02-18T11:41:59Z</time>
      </trkpt>
      <trkpt lat="45.94826" lon="4.6912">
        <ele>344</ele>
        <time>2018-02-18T11:42:00Z</time>
      </trkpt>
      <trkpt lat="45.9483" lon="4.69122">
        <ele>344</ele>
        <time>2018-02-18T11:42:01Z</time>
      </trkpt>
      <trkpt lat="45.94836" lon="4.69123">
        <ele>342</ele>
        <time>2018-02-18T11:42:02Z</time>
      </trkpt>
      <trkpt lat="45.9484" lon="4.69125">
        <ele>342</ele>
        <time>2018-02-18T11:42:03Z</time>
      </trkpt>
      <trkpt lat="45.94845" lon="4.69127">
        <ele>342</ele>
        <time>2018-02-18T11:42:04Z</time>
      </trkpt>
      <trkpt lat="45.9485" lon="4.6913">
        <ele>342</ele>
        <time>2018-02-18T11:42:05Z</time>
      </trkpt>
      <trkpt lat="45.94855" lon="4.69132">
        <ele>342</ele>
        <time>2018-02-18T11:42:06Z</time>
      </trkpt>
      <trkpt lat="45.9486" lon="4.69133">
        <ele>342</ele>
        <time>2018-02-18T11:42:07Z</time>
      </trkpt>
      <trkpt lat="45.94865" lon="4.69135">
        <ele>342</ele>
        <time>2018-02-18T11:42:08Z</time>
      </trkpt>
      <trkpt lat="45.9487" lon="4.69138">
        <ele>342</ele>
        <time>2018-02-18T11:42:09Z</time>
      </trkpt>
      <trkpt lat="45.94875" lon="4.69141">
        <ele>342</ele>
        <time>2018-02-18T11:42:10Z</time>
      </trkpt>
      <trkpt lat="45.94879" lon="4.69142">
        <ele>342</ele>
        <time>2018-02-18T11:42:11Z</time>
      </trkpt>
      <trkpt lat="45.94884" lon="4.69145">
        <ele>342</ele>
        <time>2018-02-18T11:42:12Z</time>
      </trkpt>
      <trkpt lat="45.94889" lon="4.69148">
        <ele>342</ele>
        <time>2018-02-18T11:42:13Z</time>
      </trkpt>
      <trkpt lat="45.94893" lon="4.6915">
        <ele>342</ele>
        <time>2018-02-18T11:42:14Z</time>
      </trkpt>
      <trkpt lat="45.94899" lon="4.69153">
        <ele>342</ele>
        <time>2018-02-18T11:42:15Z</time>
      </trkpt>
      <trkpt lat="45.94904" lon="4.69156">
        <ele>342</ele>
        <time>2018-02-18T11:42:16Z</time>
      </trkpt>
      <trkpt lat="45.9491" lon="4.69159">
        <ele>342</ele>
        <time>2018-02-18T11:42:17Z</time>
      </trkpt>
      <trkpt lat="45.94915" lon="4.69163">
        <ele>342</ele>
        <time>2018-02-18T11:42:18Z</time>
      </trkpt>
      <trkpt lat="45.9492" lon="4.69166">
        <ele>341</ele>
        <time>2018-02-18T11:42:19Z</time>
      </trkpt>
      <trkpt lat="45.94925" lon="4.6917">
        <ele>341</ele>
        <time>2018-02-18T11:42:20Z</time>
      </trkpt>
      <trkpt lat="45.94931" lon="4.69173">
        <ele>341</ele>
        <time>2018-02-18T11:42:21Z</time>
      </trkpt>
      <trkpt lat="45.94936" lon="4.69177">
        <ele>341</ele>
        <time>2018-02-18T11:42:22Z</time>
      </trkpt>
      <trkpt lat="45.94941" lon="4.6918">
        <ele>341</ele>
        <time>2018-02-18T11:42:23Z</time>
      </trkpt>
      <trkpt lat="45.94946" lon="4.69183">
        <ele>340</ele>
        <time>2018-02-18T11:42:24Z</time>
      </trkpt>
      <trkpt lat="45.94952" lon="4.69187">
        <ele>340</ele>
        <time>2018-02-18T11:42:25Z</time>
      </trkpt>
      <trkpt lat="45.94957" lon="4.6919">
        <ele>340</ele>
        <time>2018-02-18T11:42:26Z</time>
      </trkpt>
      <trkpt lat="45.94962" lon="4.69194">
        <ele>340</ele>
        <time>2018-02-18T11:42:27Z</time>
      </trkpt>
      <trkpt lat="45.94966" lon="4.69198">
        <ele>340</ele>
        <time>2018-02-18T11:42:28Z</time>
      </trkpt>
      <trkpt lat="45.94971" lon="4.69204">
        <ele>340</ele>
        <time>2018-02-18T11:42:29Z</time>
      </trkpt>
      <trkpt lat="45.94976" lon="4.69209">
        <ele>340</ele>
        <time>2018-02-18T11:42:30Z</time>
      </trkpt>
      <trkpt lat="45.94982" lon="4.69213">
        <ele>340</ele>
        <time>2018-02-18T11:42:31Z</time>
      </trkpt>
      <trkpt lat="45.94988" lon="4.69216">
        <ele>340</ele>
        <time>2018-02-18T11:42:32Z</time>
      </trkpt>
      <trkpt lat="45.94993" lon="4.69218">
        <ele>340</ele>
        <time>2018-02-18T11:42:33Z</time>
      </trkpt>
      <trkpt lat="45.94999" lon="4.6922">
        <ele>340</ele>
        <time>2018-02-18T11:42:34Z</time>
      </trkpt>
      <trkpt lat="45.95006" lon="4.69222">
        <ele>337</ele>
        <time>2018-02-18T11:42:35Z</time>
      </trkpt>
      <trkpt lat="45.95012" lon="4.69225">
        <ele>337</ele>
        <time>2018-02-18T11:42:36Z</time>
      </trkpt>
      <trkpt lat="45.95018" lon="4.6923">
        <ele>337</ele>
        <time>2018-02-18T11:42:37Z</time>
      </trkpt>
      <trkpt lat="45.95024" lon="4.69235">
        <ele>337</ele>
        <time>2018-02-18T11:42:38Z</time>
      </trkpt>
      <trkpt lat="45.9503" lon="4.6924">
        <ele>337</ele>
        <time>2018-02-18T11:42:39Z</time>
      </trkpt>
      <trkpt lat="45.95036" lon="4.69245">
        <ele>336</ele>
        <time>2018-02-18T11:42:40Z</time>
      </trkpt>
      <trkpt lat="45.95042" lon="4.69252">
        <ele>337</ele>
        <time>2018-02-18T11:42:41Z</time>
      </trkpt>
      <trkpt lat="45.95048" lon="4.69258">
        <ele>337</ele>
        <time>2018-02-18T11:42:42Z</time>
      </trkpt>
      <trkpt lat="45.95053" lon="4.69263">
        <ele>336</ele>
        <time>2018-02-18T11:42:43Z</time>
      </trkpt>
      <trkpt lat="45.95059" lon="4.69269">
        <ele>336</ele>
        <time>2018-02-18T11:42:44Z</time>
      </trkpt>
      <trkpt lat="45.95065" lon="4.69274">
        <ele>336</ele>
        <time>2018-02-18T11:42:45Z</time>
      </trkpt>
      <trkpt lat="45.9507" lon="4.6928">
        <ele>336</ele>
        <time>2018-02-18T11:42:46Z</time>
      </trkpt>
      <trkpt lat="45.95076" lon="4.69286">
        <ele>336</ele>
        <time>2018-02-18T11:42:47Z</time>
      </trkpt>
      <trkpt lat="45.9508" lon="4.69292">
        <ele>336</ele>
        <time>2018-02-18T11:42:48Z</time>
      </trkpt>
      <trkpt lat="45.95085" lon="4.69297">
        <ele>334</ele>
        <time>2018-02-18T11:42:49Z</time>
      </trkpt>
      <trkpt lat="45.9509" lon="4.69301">
        <ele>334</ele>
        <time>2018-02-18T11:42:50Z</time>
      </trkpt>
      <trkpt lat="45.95094" lon="4.69306">
        <ele>334</ele>
        <time>2018-02-18T11:42:51Z</time>
      </trkpt>
      <trkpt lat="45.95098" lon="4.69311">
        <ele>334</ele>
        <time>2018-02-18T11:42:52Z</time>
      </trkpt>
      <trkpt lat="45.95103" lon="4.69316">
        <ele>334</ele>
        <time>2018-02-18T11:42:53Z</time>
      </trkpt>
      <trkpt lat="45.95108" lon="4.69322">
        <ele>334</ele>
        <time>2018-02-18T11:42:54Z</time>
      </trkpt>
      <trkpt lat="45.95114" lon="4.69327">
        <ele>334</ele>
        <time>2018-02-18T11:42:55Z</time>
      </trkpt>
      <trkpt lat="45.95119" lon="4.69332">
        <ele>334</ele>
        <time>2018-02-18T11:42:56Z</time>
      </trkpt>
      <trkpt lat="45.95123" lon="4.69337">
        <ele>336</ele>
        <time>2018-02-18T11:42:57Z</time>
      </trkpt>
      <trkpt lat="45.95128" lon="4.69341">
        <ele>337</ele>
        <time>2018-02-18T11:42:58Z</time>
      </trkpt>
      <trkpt lat="45.95132" lon="4.69343">
        <ele>337</ele>
        <time>2018-02-18T11:42:59Z</time>
      </trkpt>
      <trkpt lat="45.95138" lon="4.69349">
        <ele>337</ele>
        <time>2018-02-18T11:43:00Z</time>
      </trkpt>
      <trkpt lat="45.95143" lon="4.69355">
        <ele>337</ele>
        <time>2018-02-18T11:43:01Z</time>
      </trkpt>
      <trkpt lat="45.95147" lon="4.6936">
        <ele>337</ele>
        <time>2018-02-18T11:43:02Z</time>
      </trkpt>
      <trkpt lat="45.9515" lon="4.69364">
        <ele>337</ele>
        <time>2018-02-18T11:43:03Z</time>
      </trkpt>
      <trkpt lat="45.95155" lon="4.6937">
        <ele>337</ele>
        <time>2018-02-18T11:43:04Z</time>
      </trkpt>
      <trkpt lat="45.95159" lon="4.69372">
        <ele>337</ele>
        <time>2018-02-18T11:43:05Z</time>
      </trkpt>
      <trkpt lat="45.95163" lon="4.69376">
        <ele>337</ele>
        <time>2018-02-18T11:43:06Z</time>
      </trkpt>
      <trkpt lat="45.95167" lon="4.69379">
        <ele>337</ele>
        <time>2018-02-18T11:43:07Z</time>
      </trkpt>
      <trkpt lat="45.95175" lon="4.69386">
        <ele>337</ele>
        <time>2018-02-18T11:43:09Z</time>
      </trkpt>
      <trkpt lat="45.95179" lon="4.69389">
        <ele>337</ele>
        <time>2018-02-18T11:43:10Z</time>
      </trkpt>
      <trkpt lat="45.95183" lon="4.69393">
        <ele>337</ele>
        <time>2018-02-18T11:43:11Z</time>
      </trkpt>
      <trkpt lat="45.95187" lon="4.69395">
        <ele>337</ele>
        <time>2018-02-18T11:43:12Z</time>
      </trkpt>
      <trkpt lat="45.95192" lon="4.69397">
        <ele>337</ele>
        <time>2018-02-18T11:43:13Z</time>
      </trkpt>
      <trkpt lat="45.95195" lon="4.694">
        <ele>337</ele>
        <time>2018-02-18T11:43:14Z</time>
      </trkpt>
      <trkpt lat="45.95203" lon="4.69406">
        <ele>337</ele>
        <time>2018-02-18T11:43:16Z</time>
      </trkpt>
      <trkpt lat="45.95206" lon="4.69408">
        <ele>337</ele>
        <time>2018-02-18T11:43:17Z</time>
      </trkpt>
      <trkpt lat="45.95214" lon="4.69411">
        <ele>337</ele>
        <time>2018-02-18T11:43:19Z</time>
      </trkpt>
      <trkpt lat="45.95218" lon="4.69415">
        <ele>337</ele>
        <time>2018-02-18T11:43:20Z</time>
      </trkpt>
      <trkpt lat="45.95222" lon="4.69418">
        <ele>340</ele>
        <time>2018-02-18T11:43:21Z</time>
      </trkpt>
      <trkpt lat="45.95227" lon="4.6942">
        <ele>340</ele>
        <time>2018-02-18T11:43:22Z</time>
      </trkpt>
      <trkpt lat="45.95235" lon="4.69423">
        <ele>339</ele>
        <time>2018-02-18T11:43:24Z</time>
      </trkpt>
      <trkpt lat="45.95239" lon="4.69425">
        <ele>339</ele>
        <time>2018-02-18T11:43:25Z</time>
      </trkpt>
      <trkpt lat="45.95247" lon="4.69429">
        <ele>339</ele>
        <time>2018-02-18T11:43:27Z</time>
      </trkpt>
      <trkpt lat="45.95251" lon="4.69431">
        <ele>338</ele>
        <time>2018-02-18T11:43:28Z</time>
      </trkpt>
      <trkpt lat="45.95259" lon="4.69435">
        <ele>338</ele>
        <time>2018-02-18T11:43:30Z</time>
      </trkpt>
      <trkpt lat="45.95263" lon="4.69437">
        <ele>339</ele>
        <time>2018-02-18T11:43:31Z</time>
      </trkpt>
      <trkpt lat="45.9527" lon="4.69442">
        <ele>339</ele>
        <time>2018-02-18T11:43:33Z</time>
      </trkpt>
      <trkpt lat="45.95275" lon="4.69443">
        <ele>339</ele>
        <time>2018-02-18T11:43:34Z</time>
      </trkpt>
      <trkpt lat="45.95279" lon="4.69445">
        <ele>339</ele>
        <time>2018-02-18T11:43:35Z</time>
      </trkpt>
      <trkpt lat="45.95284" lon="4.69446">
        <ele>338</ele>
        <time>2018-02-18T11:43:36Z</time>
      </trkpt>
      <trkpt lat="45.95289" lon="4.69449">
        <ele>338</ele>
        <time>2018-02-18T11:43:37Z</time>
      </trkpt>
      <trkpt lat="45.95293" lon="4.69451">
        <ele>338</ele>
        <time>2018-02-18T11:43:38Z</time>
      </trkpt>
      <trkpt lat="45.95302" lon="4.69454">
        <ele>338</ele>
        <time>2018-02-18T11:43:40Z</time>
      </trkpt>
      <trkpt lat="45.95306" lon="4.69455">
        <ele>338</ele>
        <time>2018-02-18T11:43:41Z</time>
      </trkpt>
      <trkpt lat="45.95315" lon="4.69458">
        <ele>338</ele>
        <time>2018-02-18T11:43:43Z</time>
      </trkpt>
      <trkpt lat="45.9532" lon="4.6946">
        <ele>338</ele>
        <time>2018-02-18T11:43:44Z</time>
      </trkpt>
      <trkpt lat="45.95324" lon="4.69465">
        <ele>339</ele>
        <time>2018-02-18T11:43:45Z</time>
      </trkpt>
      <trkpt lat="45.95329" lon="4.69467">
        <ele>339</ele>
        <time>2018-02-18T11:43:46Z</time>
      </trkpt>
      <trkpt lat="45.95334" lon="4.6947">
        <ele>337</ele>
        <time>2018-02-18T11:43:47Z</time>
      </trkpt>
      <trkpt lat="45.95338" lon="4.69472">
        <ele>337</ele>
        <time>2018-02-18T11:43:48Z</time>
      </trkpt>
      <trkpt lat="45.95342" lon="4.69473">
        <ele>337</ele>
        <time>2018-02-18T11:43:49Z</time>
      </trkpt>
      <trkpt lat="45.95347" lon="4.69477">
        <ele>337</ele>
        <time>2018-02-18T11:43:50Z</time>
      </trkpt>
      <trkpt lat="45.95352" lon="4.6948">
        <ele>337</ele>
        <time>2018-02-18T11:43:51Z</time>
      </trkpt>
      <trkpt lat="45.95356" lon="4.69482">
        <ele>337</ele>
        <time>2018-02-18T11:43:52Z</time>
      </trkpt>
      <trkpt lat="45.9536" lon="4.69486">
        <ele>337</ele>
        <time>2018-02-18T11:43:53Z</time>
      </trkpt>
      <trkpt lat="45.95365" lon="4.69489">
        <ele>337</ele>
        <time>2018-02-18T11:43:54Z</time>
      </trkpt>
      <trkpt lat="45.9537" lon="4.69494">
        <ele>337</ele>
        <time>2018-02-18T11:43:55Z</time>
      </trkpt>
      <trkpt lat="45.95374" lon="4.69497">
        <ele>337</ele>
        <time>2018-02-18T11:43:56Z</time>
      </trkpt>
      <trkpt lat="45.95383" lon="4.69499">
        <ele>337</ele>
        <time>2018-02-18T11:43:58Z</time>
      </trkpt>
      <trkpt lat="45.95387" lon="4.695">
        <ele>337</ele>
        <time>2018-02-18T11:43:59Z</time>
      </trkpt>
      <trkpt lat="45.95391" lon="4.69502">
        <ele>339</ele>
        <time>2018-02-18T11:44:00Z</time>
      </trkpt>
      <trkpt lat="45.95395" lon="4.69505">
        <ele>339</ele>
        <time>2018-02-18T11:44:01Z</time>
      </trkpt>
      <trkpt lat="45.95399" lon="4.69507">
        <ele>339</ele>
        <time>2018-02-18T11:44:02Z</time>
      </trkpt>
      <trkpt lat="45.95404" lon="4.6951">
        <ele>339</ele>
        <time>2018-02-18T11:44:03Z</time>
      </trkpt>
      <trkpt lat="45.95408" lon="4.69513">
        <ele>339</ele>
        <time>2018-02-18T11:44:04Z</time>
      </trkpt>
      <trkpt lat="45.95413" lon="4.69516">
        <ele>339</ele>
        <time>2018-02-18T11:44:05Z</time>
      </trkpt>
      <trkpt lat="45.95417" lon="4.69519">
        <ele>337</ele>
        <time>2018-02-18T11:44:06Z</time>
      </trkpt>
      <trkpt lat="45.95423" lon="4.69521">
        <ele>337</ele>
        <time>2018-02-18T11:44:07Z</time>
      </trkpt>
      <trkpt lat="45.95428" lon="4.69523">
        <ele>337</ele>
        <time>2018-02-18T11:44:08Z</time>
      </trkpt>
      <trkpt lat="45.95433" lon="4.69526">
        <ele>337</ele>
        <time>2018-02-18T11:44:09Z</time>
      </trkpt>
      <trkpt lat="45.95439" lon="4.69532">
        <ele>337</ele>
        <time>2018-02-18T11:44:10Z</time>
      </trkpt>
      <trkpt lat="45.95444" lon="4.69535">
        <ele>337</ele>
        <time>2018-02-18T11:44:11Z</time>
      </trkpt>
      <trkpt lat="45.9545" lon="4.69537">
        <ele>337</ele>
        <time>2018-02-18T11:44:12Z</time>
      </trkpt>
      <trkpt lat="45.95455" lon="4.6954">
        <ele>337</ele>
        <time>2018-02-18T11:44:13Z</time>
      </trkpt>
      <trkpt lat="45.9546" lon="4.69543">
        <ele>336</ele>
        <time>2018-02-18T11:44:14Z</time>
      </trkpt>
      <trkpt lat="45.95465" lon="4.69546">
        <ele>336</ele>
        <time>2018-02-18T11:44:15Z</time>
      </trkpt>
      <trkpt lat="45.9547" lon="4.69547">
        <ele>336</ele>
        <time>2018-02-18T11:44:16Z</time>
      </trkpt>
      <trkpt lat="45.95476" lon="4.6955">
        <ele>336</ele>
        <time>2018-02-18T11:44:17Z</time>
      </trkpt>
      <trkpt lat="45.95481" lon="4.69552">
        <ele>336</ele>
        <time>2018-02-18T11:44:18Z</time>
      </trkpt>
      <trkpt lat="45.95488" lon="4.69555">
        <ele>336</ele>
        <time>2018-02-18T11:44:19Z</time>
      </trkpt>
      <trkpt lat="45.95493" lon="4.69558">
        <ele>336</ele>
        <time>2018-02-18T11:44:20Z</time>
      </trkpt>
      <trkpt lat="45.955" lon="4.69566">
        <ele>334</ele>
        <time>2018-02-18T11:44:21Z</time>
      </trkpt>
      <trkpt lat="45.95506" lon="4.69568">
        <ele>334</ele>
        <time>2018-02-18T11:44:22Z</time>
      </trkpt>
      <trkpt lat="45.95512" lon="4.69571">
        <ele>334</ele>
        <time>2018-02-18T11:44:23Z</time>
      </trkpt>
      <trkpt lat="45.95518" lon="4.69575">
        <ele>334</ele>
        <time>2018-02-18T11:44:24Z</time>
      </trkpt>
      <trkpt lat="45.95524" lon="4.69576">
        <ele>333</ele>
        <time>2018-02-18T11:44:25Z</time>
      </trkpt>
      <trkpt lat="45.9553" lon="4.6958">
        <ele>333</ele>
        <time>2018-02-18T11:44:26Z</time>
      </trkpt>
      <trkpt lat="45.95536" lon="4.69583">
        <ele>332</ele>
        <time>2018-02-18T11:44:27Z</time>
      </trkpt>
      <trkpt lat="45.95543" lon="4.69585">
        <ele>331</ele>
        <time>2018-02-18T11:44:28Z</time>
      </trkpt>
      <trkpt lat="45.95549" lon="4.69588">
        <ele>331</ele>
        <time>2018-02-18T11:44:29Z</time>
      </trkpt>
      <trkpt lat="45.95555" lon="4.69588">
        <ele>331</ele>
        <time>2018-02-18T11:44:30Z</time>
      </trkpt>
      <trkpt lat="45.9556" lon="4.6959">
        <ele>330</ele>
        <time>2018-02-18T11:44:31Z</time>
      </trkpt>
      <trkpt lat="45.95568" lon="4.69589">
        <ele>330</ele>
        <time>2018-02-18T11:44:32Z</time>
      </trkpt>
      <trkpt lat="45.95575" lon="4.69591">
        <ele>329</ele>
        <time>2018-02-18T11:44:33Z</time>
      </trkpt>
      <trkpt lat="45.95583" lon="4.69599">
        <ele>329</ele>
        <time>2018-02-18T11:44:34Z</time>
      </trkpt>
      <trkpt lat="45.95589" lon="4.69602">
        <ele>328</ele>
        <time>2018-02-18T11:44:35Z</time>
      </trkpt>
      <trkpt lat="45.95596" lon="4.69607">
        <ele>328</ele>
        <time>2018-02-18T11:44:36Z</time>
      </trkpt>
      <trkpt lat="45.95603" lon="4.69609">
        <ele>328</ele>
        <time>2018-02-18T11:44:37Z</time>
      </trkpt>
      <trkpt lat="45.9561" lon="4.69612">
        <ele>328</ele>
        <time>2018-02-18T11:44:38Z</time>
      </trkpt>
      <trkpt lat="45.95617" lon="4.69618">
        <ele>328</ele>
        <time>2018-02-18T11:44:39Z</time>
      </trkpt>
      <trkpt lat="45.95625" lon="4.6962">
        <ele>328</ele>
        <time>2018-02-18T11:44:40Z</time>
      </trkpt>
      <trkpt lat="45.95631" lon="4.69623">
        <ele>328</ele>
        <time>2018-02-18T11:44:41Z</time>
      </trkpt>
      <trkpt lat="45.95638" lon="4.69626">
        <ele>328</ele>
        <time>2018-02-18T11:44:42Z</time>
      </trkpt>
      <trkpt lat="45.95643" lon="4.69629">
        <ele>328</ele>
        <time>2018-02-18T11:44:43Z</time>
      </trkpt>
      <trkpt lat="45.9565" lon="4.69631">
        <ele>328</ele>
        <time>2018-02-18T11:44:44Z</time>
      </trkpt>
      <trkpt lat="45.95657" lon="4.69633">
        <ele>328</ele>
        <time>2018-02-18T11:44:45Z</time>
      </trkpt>
      <trkpt lat="45.95663" lon="4.69635">
        <ele>327</ele>
        <time>2018-02-18T11:44:46Z</time>
      </trkpt>
      <trkpt lat="45.95669" lon="4.69637">
        <ele>326</ele>
        <time>2018-02-18T11:44:47Z</time>
      </trkpt>
      <trkpt lat="45.95676" lon="4.6964">
        <ele>326</ele>
        <time>2018-02-18T11:44:48Z</time>
      </trkpt>
      <trkpt lat="45.95681" lon="4.69642">
        <ele>326</ele>
        <time>2018-02-18T11:44:49Z</time>
      </trkpt>
      <trkpt lat="45.95687" lon="4.69642">
        <ele>326</ele>
        <time>2018-02-18T11:44:50Z</time>
      </trkpt>
      <trkpt lat="45.95692" lon="4.69645">
        <ele>326</ele>
        <time>2018-02-18T11:44:51Z</time>
      </trkpt>
      <trkpt lat="45.95698" lon="4.69647">
        <ele>326</ele>
        <time>2018-02-18T11:44:52Z</time>
      </trkpt>
      <trkpt lat="45.95704" lon="4.69651">
        <ele>326</ele>
        <time>2018-02-18T11:44:53Z</time>
      </trkpt>
      <trkpt lat="45.9571" lon="4.69653">
        <ele>326</ele>
        <time>2018-02-18T11:44:54Z</time>
      </trkpt>
      <trkpt lat="45.95716" lon="4.69655">
        <ele>326</ele>
        <time>2018-02-18T11:44:55Z</time>
      </trkpt>
      <trkpt lat="45.95722" lon="4.69656">
        <ele>326</ele>
        <time>2018-02-18T11:44:56Z</time>
      </trkpt>
      <trkpt lat="45.95727" lon="4.69657">
        <ele>326</ele>
        <time>2018-02-18T11:44:57Z</time>
      </trkpt>
      <trkpt lat="45.95733" lon="4.69661">
        <ele>326</ele>
        <time>2018-02-18T11:44:58Z</time>
      </trkpt>
      <trkpt lat="45.95738" lon="4.69663">
        <ele>326</ele>
        <time>2018-02-18T11:44:59Z</time>
      </trkpt>
      <trkpt lat="45.95744" lon="4.69668">
        <ele>326</ele>
        <time>2018-02-18T11:45:00Z</time>
      </trkpt>
      <trkpt lat="45.95748" lon="4.69671">
        <ele>326</ele>
        <time>2018-02-18T11:45:01Z</time>
      </trkpt>
      <trkpt lat="45.95753" lon="4.69675">
        <ele>326</ele>
        <time>2018-02-18T11:45:02Z</time>
      </trkpt>
      <trkpt lat="45.95757" lon="4.69677">
        <ele>326</ele>
        <time>2018-02-18T11:45:03Z</time>
      </trkpt>
      <trkpt lat="45.95762" lon="4.6968">
        <ele>326</ele>
        <time>2018-02-18T11:45:04Z</time>
      </trkpt>
      <trkpt lat="45.95769" lon="4.69682">
        <ele>326</ele>
        <time>2018-02-18T11:45:06Z</time>
      </trkpt>
      <trkpt lat="45.95773" lon="4.69685">
        <ele>326</ele>
        <time>2018-02-18T11:45:07Z</time>
      </trkpt>
      <trkpt lat="45.95777" lon="4.69689">
        <ele>326</ele>
        <time>2018-02-18T11:45:08Z</time>
      </trkpt>
      <trkpt lat="45.95781" lon="4.69693">
        <ele>326</ele>
        <time>2018-02-18T11:45:09Z</time>
      </trkpt>
      <trkpt lat="45.95786" lon="4.69697">
        <ele>326</ele>
        <time>2018-02-18T11:45:10Z</time>
      </trkpt>
      <trkpt lat="45.9579" lon="4.69703">
        <ele>326</ele>
        <time>2018-02-18T11:45:11Z</time>
      </trkpt>
      <trkpt lat="45.95794" lon="4.69708">
        <ele>326</ele>
        <time>2018-02-18T11:45:12Z</time>
      </trkpt>
      <trkpt lat="45.95798" lon="4.69714">
        <ele>326</ele>
        <time>2018-02-18T11:45:13Z</time>
      </trkpt>
      <trkpt lat="45.95802" lon="4.69719">
        <ele>326</ele>
        <time>2018-02-18T11:45:14Z</time>
      </trkpt>
      <trkpt lat="45.95805" lon="4.69725">
        <ele>326</ele>
        <time>2018-02-18T11:45:15Z</time>
      </trkpt>
      <trkpt lat="45.95808" lon="4.69731">
        <ele>326</ele>
        <time>2018-02-18T11:45:16Z</time>
      </trkpt>
      <trkpt lat="45.95811" lon="4.69737">
        <ele>327</ele>
        <time>2018-02-18T11:45:17Z</time>
      </trkpt>
      <trkpt lat="45.95815" lon="4.69743">
        <ele>327</ele>
        <time>2018-02-18T11:45:18Z</time>
      </trkpt>
      <trkpt lat="45.95818" lon="4.69748">
        <ele>327</ele>
        <time>2018-02-18T11:45:19Z</time>
      </trkpt>
      <trkpt lat="45.95823" lon="4.69758">
        <ele>328</ele>
        <time>2018-02-18T11:45:21Z</time>
      </trkpt>
      <trkpt lat="45.95827" lon="4.69762">
        <ele>328</ele>
        <time>2018-02-18T11:45:22Z</time>
      </trkpt>
      <trkpt lat="45.95833" lon="4.6977">
        <ele>328</ele>
        <time>2018-02-18T11:45:24Z</time>
      </trkpt>
      <trkpt lat="45.95835" lon="4.69774">
        <ele>327</ele>
        <time>2018-02-18T11:45:25Z</time>
      </trkpt>
      <trkpt lat="45.95841" lon="4.69784">
        <ele>327</ele>
        <time>2018-02-18T11:45:27Z</time>
      </trkpt>
      <trkpt lat="45.95844" lon="4.69787">
        <ele>327</ele>
        <time>2018-02-18T11:45:28Z</time>
      </trkpt>
      <trkpt lat="45.95849" lon="4.69795">
        <ele>327</ele>
        <time>2018-02-18T11:45:30Z</time>
      </trkpt>
      <trkpt lat="45.95851" lon="4.698">
        <ele>327</ele>
        <time>2018-02-18T11:45:31Z</time>
      </trkpt>
      <trkpt lat="45.95855" lon="4.69809">
        <ele>327</ele>
        <time>2018-02-18T11:45:33Z</time>
      </trkpt>
      <trkpt lat="45.95857" lon="4.69813">
        <ele>328</ele>
        <time>2018-02-18T11:45:34Z</time>
      </trkpt>
      <trkpt lat="45.95862" lon="4.69821">
        <ele>328</ele>
        <time>2018-02-18T11:45:36Z</time>
      </trkpt>
      <trkpt lat="45.95864" lon="4.69824">
        <ele>328</ele>
        <time>2018-02-18T11:45:37Z</time>
      </trkpt>
      <trkpt lat="45.95867" lon="4.69833">
        <ele>328</ele>
        <time>2018-02-18T11:45:39Z</time>
      </trkpt>
      <trkpt lat="45.95869" lon="4.69838">
        <ele>329</ele>
        <time>2018-02-18T11:45:40Z</time>
      </trkpt>
      <trkpt lat="45.95872" lon="4.69848">
        <ele>329</ele>
        <time>2018-02-18T11:45:42Z</time>
      </trkpt>
      <trkpt lat="45.95873" lon="4.69854">
        <ele>329</ele>
        <time>2018-02-18T11:45:43Z</time>
      </trkpt>
      <trkpt lat="45.95876" lon="4.69865">
        <ele>329</ele>
        <time>2018-02-18T11:45:45Z</time>
      </trkpt>
      <trkpt lat="45.95878" lon="4.6987">
        <ele>329</ele>
        <time>2018-02-18T11:45:46Z</time>
      </trkpt>
      <trkpt lat="45.9588" lon="4.69882">
        <ele>329</ele>
        <time>2018-02-18T11:45:48Z</time>
      </trkpt>
      <trkpt lat="45.95881" lon="4.69888">
        <ele>329</ele>
        <time>2018-02-18T11:45:49Z</time>
      </trkpt>
      <trkpt lat="45.95883" lon="4.69901">
        <ele>329</ele>
        <time>2018-02-18T11:45:51Z</time>
      </trkpt>
      <trkpt lat="45.95884" lon="4.69907">
        <ele>329</ele>
        <time>2018-02-18T11:45:52Z</time>
      </trkpt>
      <trkpt lat="45.95885" lon="4.69913">
        <ele>329</ele>
        <time>2018-02-18T11:45:53Z</time>
      </trkpt>
      <trkpt lat="45.95887" lon="4.6992">
        <ele>328</ele>
        <time>2018-02-18T11:45:54Z</time>
      </trkpt>
      <trkpt lat="45.95888" lon="4.69926">
        <ele>328</ele>
        <time>2018-02-18T11:45:55Z</time>
      </trkpt>
      <trkpt lat="45.9589" lon="4.69932">
        <ele>328</ele>
        <time>2018-02-18T11:45:56Z</time>
      </trkpt>
      <trkpt lat="45.95892" lon="4.69944">
        <ele>328</ele>
        <time>2018-02-18T11:45:58Z</time>
      </trkpt>
      <trkpt lat="45.95895" lon="4.69951">
        <ele>328</ele>
        <time>2018-02-18T11:45:59Z</time>
      </trkpt>
      <trkpt lat="45.95896" lon="4.69963">
        <ele>328</ele>
        <time>2018-02-18T11:46:01Z</time>
      </trkpt>
      <trkpt lat="45.95898" lon="4.69969">
        <ele>328</ele>
        <time>2018-02-18T11:46:02Z</time>
      </trkpt>
      <trkpt lat="45.95899" lon="4.69975">
        <ele>328</ele>
        <time>2018-02-18T11:46:03Z</time>
      </trkpt>
      <trkpt lat="45.95902" lon="4.69981">
        <ele>328</ele>
        <time>2018-02-18T11:46:04Z</time>
      </trkpt>
      <trkpt lat="45.95904" lon="4.69987">
        <ele>328</ele>
        <time>2018-02-18T11:46:05Z</time>
      </trkpt>
      <trkpt lat="45.95907" lon="4.69993">
        <ele>328</ele>
        <time>2018-02-18T11:46:06Z</time>
      </trkpt>
      <trkpt lat="45.95911" lon="4.70004">
        <ele>328</ele>
        <time>2018-02-18T11:46:08Z</time>
      </trkpt>
      <trkpt lat="45.95913" lon="4.70009">
        <ele>328</ele>
        <time>2018-02-18T11:46:09Z</time>
      </trkpt>
      <trkpt lat="45.95916" lon="4.70015">
        <ele>328</ele>
        <time>2018-02-18T11:46:10Z</time>
      </trkpt>
      <trkpt lat="45.95919" lon="4.7002">
        <ele>328</ele>
        <time>2018-02-18T11:46:11Z</time>
      </trkpt>
      <trkpt lat="45.95921" lon="4.70026">
        <ele>328</ele>
        <time>2018-02-18T11:46:12Z</time>
      </trkpt>
      <trkpt lat="45.95924" lon="4.70032">
        <ele>328</ele>
        <time>2018-02-18T11:46:13Z</time>
      </trkpt>
      <trkpt lat="45.95927" lon="4.70038">
        <ele>328</ele>
        <time>2018-02-18T11:46:14Z</time>
      </trkpt>
      <trkpt lat="45.95929" lon="4.70044">
        <ele>328</ele>
        <time>2018-02-18T11:46:15Z</time>
      </trkpt>
      <trkpt lat="45.95932" lon="4.70049">
        <ele>328</ele>
        <time>2018-02-18T11:46:16Z</time>
      </trkpt>
      <trkpt lat="45.95936" lon="4.70054">
        <ele>328</ele>
        <time>2018-02-18T11:46:17Z</time>
      </trkpt>
      <trkpt lat="45.95939" lon="4.70058">
        <ele>328</ele>
        <time>2018-02-18T11:46:18Z</time>
      </trkpt>
      <trkpt lat="45.95943" lon="4.70063">
        <ele>328</ele>
        <time>2018-02-18T11:46:19Z</time>
      </trkpt>
      <trkpt lat="45.95949" lon="4.70071">
        <ele>328</ele>
        <time>2018-02-18T11:46:21Z</time>
      </trkpt>
      <trkpt lat="45.95953" lon="4.70075">
        <ele>328</ele>
        <time>2018-02-18T11:46:22Z</time>
      </trkpt>
      <trkpt lat="45.95956" lon="4.70079">
        <ele>328</ele>
        <time>2018-02-18T11:46:23Z</time>
      </trkpt>
      <trkpt lat="45.9596" lon="4.70083">
        <ele>328</ele>
        <time>2018-02-18T11:46:24Z</time>
      </trkpt>
      <trkpt lat="45.95963" lon="4.70087">
        <ele>328</ele>
        <time>2018-02-18T11:46:25Z</time>
      </trkpt>
      <trkpt lat="45.95968" lon="4.70091">
        <ele>328</ele>
        <time>2018-02-18T11:46:26Z</time>
      </trkpt>
      <trkpt lat="45.95971" lon="4.70095">
        <ele>328</ele>
        <time>2018-02-18T11:46:27Z</time>
      </trkpt>
      <trkpt lat="45.95975" lon="4.701">
        <ele>328</ele>
        <time>2018-02-18T11:46:28Z</time>
      </trkpt>
      <trkpt lat="45.95979" lon="4.70105">
        <ele>328</ele>
        <time>2018-02-18T11:46:29Z</time>
      </trkpt>
      <trkpt lat="45.95982" lon="4.70109">
        <ele>328</ele>
        <time>2018-02-18T11:46:30Z</time>
      </trkpt>
      <trkpt lat="45.95986" lon="4.70113">
        <ele>328</ele>
        <time>2018-02-18T11:46:31Z</time>
      </trkpt>
      <trkpt lat="45.95989" lon="4.70117">
        <ele>328</ele>
        <time>2018-02-18T11:46:32Z</time>
      </trkpt>
      <trkpt lat="45.95994" lon="4.70121">
        <ele>328</ele>
        <time>2018-02-18T11:46:33Z</time>
      </trkpt>
      <trkpt lat="45.95998" lon="4.70125">
        <ele>328</ele>
        <time>2018-02-18T11:46:34Z</time>
      </trkpt>
      <trkpt lat="45.96002" lon="4.70129">
        <ele>328</ele>
        <time>2018-02-18T11:46:35Z</time>
      </trkpt>
      <trkpt lat="45.96006" lon="4.70133">
        <ele>328</ele>
        <time>2018-02-18T11:46:36Z</time>
      </trkpt>
      <trkpt lat="45.9601" lon="4.70138">
        <ele>328</ele>
        <time>2018-02-18T11:46:37Z</time>
      </trkpt>
      <trkpt lat="45.96014" lon="4.70142">
        <ele>329</ele>
        <time>2018-02-18T11:46:38Z</time>
      </trkpt>
      <trkpt lat="45.96018" lon="4.70145">
        <ele>329</ele>
        <time>2018-02-18T11:46:39Z</time>
      </trkpt>
      <trkpt lat="45.96022" lon="4.7015">
        <ele>329</ele>
        <time>2018-02-18T11:46:40Z</time>
      </trkpt>
      <trkpt lat="45.96027" lon="4.70154">
        <ele>329</ele>
        <time>2018-02-18T11:46:41Z</time>
      </trkpt>
      <trkpt lat="45.96031" lon="4.70158">
        <ele>329</ele>
        <time>2018-02-18T11:46:42Z</time>
      </trkpt>
      <trkpt lat="45.96035" lon="4.70161">
        <ele>329</ele>
        <time>2018-02-18T11:46:43Z</time>
      </trkpt>
      <trkpt lat="45.96039" lon="4.70166">
        <ele>329</ele>
        <time>2018-02-18T11:46:44Z</time>
      </trkpt>
      <trkpt lat="45.96043" lon="4.7017">
        <ele>327</ele>
        <time>2018-02-18T11:46:45Z</time>
      </trkpt>
      <trkpt lat="45.96047" lon="4.70174">
        <ele>327</ele>
        <time>2018-02-18T11:46:46Z</time>
      </trkpt>
      <trkpt lat="45.96052" lon="4.70179">
        <ele>327</ele>
        <time>2018-02-18T11:46:47Z</time>
      </trkpt>
      <trkpt lat="45.96057" lon="4.70183">
        <ele>327</ele>
        <time>2018-02-18T11:46:48Z</time>
      </trkpt>
      <trkpt lat="45.96062" lon="4.70187">
        <ele>327</ele>
        <time>2018-02-18T11:46:49Z</time>
      </trkpt>
      <trkpt lat="45.96066" lon="4.70191">
        <ele>327</ele>
        <time>2018-02-18T11:46:50Z</time>
      </trkpt>
      <trkpt lat="45.96071" lon="4.70196">
        <ele>327</ele>
        <time>2018-02-18T11:46:51Z</time>
      </trkpt>
      <trkpt lat="45.96076" lon="4.702">
        <ele>327</ele>
        <time>2018-02-18T11:46:52Z</time>
      </trkpt>
      <trkpt lat="45.96082" lon="4.70204">
        <ele>327</ele>
        <time>2018-02-18T11:46:53Z</time>
      </trkpt>
      <trkpt lat="45.96086" lon="4.70208">
        <ele>327</ele>
        <time>2018-02-18T11:46:54Z</time>
      </trkpt>
      <trkpt lat="45.96092" lon="4.70212">
        <ele>327</ele>
        <time>2018-02-18T11:46:55Z</time>
      </trkpt>
      <trkpt lat="45.96098" lon="4.70217">
        <ele>327</ele>
        <time>2018-02-18T11:46:56Z</time>
      </trkpt>
      <trkpt lat="45.96103" lon="4.70222">
        <ele>327</ele>
        <time>2018-02-18T11:46:57Z</time>
      </trkpt>
      <trkpt lat="45.96109" lon="4.70226">
        <ele>327</ele>
        <time>2018-02-18T11:46:58Z</time>
      </trkpt>
      <trkpt lat="45.96115" lon="4.7023">
        <ele>327</ele>
        <time>2018-02-18T11:46:59Z</time>
      </trkpt>
      <trkpt lat="45.9612" lon="4.70236">
        <ele>327</ele>
        <time>2018-02-18T11:47:00Z</time>
      </trkpt>
      <trkpt lat="45.96125" lon="4.7024">
        <ele>327</ele>
        <time>2018-02-18T11:47:01Z</time>
      </trkpt>
      <trkpt lat="45.9613" lon="4.70246">
        <ele>327</ele>
        <time>2018-02-18T11:47:02Z</time>
      </trkpt>
      <trkpt lat="45.96135" lon="4.7025">
        <ele>324</ele>
        <time>2018-02-18T11:47:03Z</time>
      </trkpt>
      <trkpt lat="45.9614" lon="4.70256">
        <ele>324</ele>
        <time>2018-02-18T11:47:04Z</time>
      </trkpt>
      <trkpt lat="45.96145" lon="4.70261">
        <ele>324</ele>
        <time>2018-02-18T11:47:05Z</time>
      </trkpt>
      <trkpt lat="45.9615" lon="4.70266">
        <ele>324</ele>
        <time>2018-02-18T11:47:06Z</time>
      </trkpt>
      <trkpt lat="45.96155" lon="4.70271">
        <ele>324</ele>
        <time>2018-02-18T11:47:07Z</time>
      </trkpt>
      <trkpt lat="45.96161" lon="4.70277">
        <ele>323</ele>
        <time>2018-02-18T11:47:08Z</time>
      </trkpt>
      <trkpt lat="45.96165" lon="4.70283">
        <ele>323</ele>
        <time>2018-02-18T11:47:09Z</time>
      </trkpt>
      <trkpt lat="45.9617" lon="4.70288">
        <ele>326</ele>
        <time>2018-02-18T11:47:10Z</time>
      </trkpt>
      <trkpt lat="45.96174" lon="4.70292">
        <ele>326</ele>
        <time>2018-02-18T11:47:11Z</time>
      </trkpt>
      <trkpt lat="45.96179" lon="4.70298">
        <ele>326</ele>
        <time>2018-02-18T11:47:12Z</time>
      </trkpt>
      <trkpt lat="45.96184" lon="4.70304">
        <ele>325</ele>
        <time>2018-02-18T11:47:13Z</time>
      </trkpt>
      <trkpt lat="45.96187" lon="4.7031">
        <ele>325</ele>
        <time>2018-02-18T11:47:14Z</time>
      </trkpt>
      <trkpt lat="45.96192" lon="4.70316">
        <ele>325</ele>
        <time>2018-02-18T11:47:15Z</time>
      </trkpt>
      <trkpt lat="45.96196" lon="4.70323">
        <ele>325</ele>
        <time>2018-02-18T11:47:16Z</time>
      </trkpt>
      <trkpt lat="45.962" lon="4.70329">
        <ele>325</ele>
        <time>2018-02-18T11:47:17Z</time>
      </trkpt>
      <trkpt lat="45.96205" lon="4.70335">
        <ele>320</ele>
        <time>2018-02-18T11:47:18Z</time>
      </trkpt>
      <trkpt lat="45.9621" lon="4.70342">
        <ele>321</ele>
        <time>2018-02-18T11:47:19Z</time>
      </trkpt>
      <trkpt lat="45.96214" lon="4.70349">
        <ele>321</ele>
        <time>2018-02-18T11:47:20Z</time>
      </trkpt>
      <trkpt lat="45.96219" lon="4.70356">
        <ele>321</ele>
        <time>2018-02-18T11:47:21Z</time>
      </trkpt>
      <trkpt lat="45.96223" lon="4.70362">
        <ele>321</ele>
        <time>2018-02-18T11:47:22Z</time>
      </trkpt>
      <trkpt lat="45.96228" lon="4.7037">
        <ele>321</ele>
        <time>2018-02-18T11:47:23Z</time>
      </trkpt>
      <trkpt lat="45.96232" lon="4.70377">
        <ele>321</ele>
        <time>2018-02-18T11:47:24Z</time>
      </trkpt>
      <trkpt lat="45.96236" lon="4.70384">
        <ele>320</ele>
        <time>2018-02-18T11:47:25Z</time>
      </trkpt>
      <trkpt lat="45.96242" lon="4.70391">
        <ele>320</ele>
        <time>2018-02-18T11:47:26Z</time>
      </trkpt>
      <trkpt lat="45.96246" lon="4.70399">
        <ele>320</ele>
        <time>2018-02-18T11:47:27Z</time>
      </trkpt>
      <trkpt lat="45.96251" lon="4.70406">
        <ele>323</ele>
        <time>2018-02-18T11:47:28Z</time>
      </trkpt>
      <trkpt lat="45.96255" lon="4.70413">
        <ele>322</ele>
        <time>2018-02-18T11:47:29Z</time>
      </trkpt>
      <trkpt lat="45.96259" lon="4.7042">
        <ele>320</ele>
        <time>2018-02-18T11:47:30Z</time>
      </trkpt>
      <trkpt lat="45.96263" lon="4.70426">
        <ele>320</ele>
        <time>2018-02-18T11:47:31Z</time>
      </trkpt>
      <trkpt lat="45.96267" lon="4.70432">
        <ele>321</ele>
        <time>2018-02-18T11:47:32Z</time>
      </trkpt>
      <trkpt lat="45.96272" lon="4.70439">
        <ele>321</ele>
        <time>2018-02-18T11:47:33Z</time>
      </trkpt>
      <trkpt lat="45.96277" lon="4.70446">
        <ele>321</ele>
        <time>2018-02-18T11:47:34Z</time>
      </trkpt>
      <trkpt lat="45.96281" lon="4.70452">
        <ele>321</ele>
        <time>2018-02-18T11:47:35Z</time>
      </trkpt>
      <trkpt lat="45.96286" lon="4.70459">
        <ele>321</ele>
        <time>2018-02-18T11:47:36Z</time>
      </trkpt>
      <trkpt lat="45.96291" lon="4.70466">
        <ele>320</ele>
        <time>2018-02-18T11:47:37Z</time>
      </trkpt>
      <trkpt lat="45.96296" lon="4.70473">
        <ele>320</ele>
        <time>2018-02-18T11:47:38Z</time>
      </trkpt>
      <trkpt lat="45.963" lon="4.70481">
        <ele>320</ele>
        <time>2018-02-18T11:47:39Z</time>
      </trkpt>
      <trkpt lat="45.96305" lon="4.70488">
        <ele>320</ele>
        <time>2018-02-18T11:47:40Z</time>
      </trkpt>
      <trkpt lat="45.96311" lon="4.70496">
        <ele>320</ele>
        <time>2018-02-18T11:47:41Z</time>
      </trkpt>
      <trkpt lat="45.96316" lon="4.70502">
        <ele>316</ele>
        <time>2018-02-18T11:47:42Z</time>
      </trkpt>
      <trkpt lat="45.96321" lon="4.70509">
        <ele>317</ele>
        <time>2018-02-18T11:47:43Z</time>
      </trkpt>
      <trkpt lat="45.96327" lon="4.70516">
        <ele>316</ele>
        <time>2018-02-18T11:47:44Z</time>
      </trkpt>
      <trkpt lat="45.96332" lon="4.70523">
        <ele>315</ele>
        <time>2018-02-18T11:47:45Z</time>
      </trkpt>
      <trkpt lat="45.96339" lon="4.7053">
        <ele>319</ele>
        <time>2018-02-18T11:47:46Z</time>
      </trkpt>
      <trkpt lat="45.96344" lon="4.70537">
        <ele>319</ele>
        <time>2018-02-18T11:47:47Z</time>
      </trkpt>
      <trkpt lat="45.9635" lon="4.70545">
        <ele>318</ele>
        <time>2018-02-18T11:47:48Z</time>
      </trkpt>
      <trkpt lat="45.96357" lon="4.70553">
        <ele>318</ele>
        <time>2018-02-18T11:47:49Z</time>
      </trkpt>
      <trkpt lat="45.96363" lon="4.70561">
        <ele>318</ele>
        <time>2018-02-18T11:47:50Z</time>
      </trkpt>
      <trkpt lat="45.96368" lon="4.70568">
        <ele>318</ele>
        <time>2018-02-18T11:47:51Z</time>
      </trkpt>
      <trkpt lat="45.96374" lon="4.70576">
        <ele>318</ele>
        <time>2018-02-18T11:47:52Z</time>
      </trkpt>
      <trkpt lat="45.96381" lon="4.70584">
        <ele>312</ele>
        <time>2018-02-18T11:47:53Z</time>
      </trkpt>
      <trkpt lat="45.96387" lon="4.70592">
        <ele>312</ele>
        <time>2018-02-18T11:47:54Z</time>
      </trkpt>
      <trkpt lat="45.96393" lon="4.70599">
        <ele>312</ele>
        <time>2018-02-18T11:47:55Z</time>
      </trkpt>
      <trkpt lat="45.96399" lon="4.70606">
        <ele>312</ele>
        <time>2018-02-18T11:47:56Z</time>
      </trkpt>
      <trkpt lat="45.96406" lon="4.70614">
        <ele>312</ele>
        <time>2018-02-18T11:47:57Z</time>
      </trkpt>
      <trkpt lat="45.96413" lon="4.70622">
        <ele>311</ele>
        <time>2018-02-18T11:47:58Z</time>
      </trkpt>
      <trkpt lat="45.9642" lon="4.7063">
        <ele>313</ele>
        <time>2018-02-18T11:47:59Z</time>
      </trkpt>
      <trkpt lat="45.96427" lon="4.70639">
        <ele>313</ele>
        <time>2018-02-18T11:48:00Z</time>
      </trkpt>
      <trkpt lat="45.96434" lon="4.70646">
        <ele>312</ele>
        <time>2018-02-18T11:48:01Z</time>
      </trkpt>
      <trkpt lat="45.96442" lon="4.70654">
        <ele>312</ele>
        <time>2018-02-18T11:48:02Z</time>
      </trkpt>
      <trkpt lat="45.96449" lon="4.70662">
        <ele>312</ele>
        <time>2018-02-18T11:48:03Z</time>
      </trkpt>
      <trkpt lat="45.96457" lon="4.70669">
        <ele>305</ele>
        <time>2018-02-18T11:48:04Z</time>
      </trkpt>
      <trkpt lat="45.96465" lon="4.70676">
        <ele>305</ele>
        <time>2018-02-18T11:48:05Z</time>
      </trkpt>
      <trkpt lat="45.96473" lon="4.70683">
        <ele>305</ele>
        <time>2018-02-18T11:48:06Z</time>
      </trkpt>
      <trkpt lat="45.96481" lon="4.70692">
        <ele>305</ele>
        <time>2018-02-18T11:48:07Z</time>
      </trkpt>
      <trkpt lat="45.96489" lon="4.70699">
        <ele>305</ele>
        <time>2018-02-18T11:48:08Z</time>
      </trkpt>
      <trkpt lat="45.96497" lon="4.70708">
        <ele>304</ele>
        <time>2018-02-18T11:48:09Z</time>
      </trkpt>
      <trkpt lat="45.96506" lon="4.70714">
        <ele>306</ele>
        <time>2018-02-18T11:48:10Z</time>
      </trkpt>
      <trkpt lat="45.96515" lon="4.70721">
        <ele>305</ele>
        <time>2018-02-18T11:48:11Z</time>
      </trkpt>
      <trkpt lat="45.96524" lon="4.70726">
        <ele>305</ele>
        <time>2018-02-18T11:48:12Z</time>
      </trkpt>
      <trkpt lat="45.96534" lon="4.70733">
        <ele>305</ele>
        <time>2018-02-18T11:48:13Z</time>
      </trkpt>
      <trkpt lat="45.96543" lon="4.70742">
        <ele>305</ele>
        <time>2018-02-18T11:48:14Z</time>
      </trkpt>
      <trkpt lat="45.96552" lon="4.70749">
        <ele>305</ele>
        <time>2018-02-18T11:48:15Z</time>
      </trkpt>
      <trkpt lat="45.96561" lon="4.70756">
        <ele>299</ele>
        <time>2018-02-18T11:48:16Z</time>
      </trkpt>
      <trkpt lat="45.96569" lon="4.70762">
        <ele>299</ele>
        <time>2018-02-18T11:48:17Z</time>
      </trkpt>
      <trkpt lat="45.96577" lon="4.70768">
        <ele>299</ele>
        <time>2018-02-18T11:48:18Z</time>
      </trkpt>
      <trkpt lat="45.96586" lon="4.70775">
        <ele>300</ele>
        <time>2018-02-18T11:48:19Z</time>
      </trkpt>
      <trkpt lat="45.96596" lon="4.70781">
        <ele>299</ele>
        <time>2018-02-18T11:48:20Z</time>
      </trkpt>
      <trkpt lat="45.96605" lon="4.70786">
        <ele>299</ele>
        <time>2018-02-18T11:48:21Z</time>
      </trkpt>
      <trkpt lat="45.96614" lon="4.70793">
        <ele>298</ele>
        <time>2018-02-18T11:48:22Z</time>
      </trkpt>
      <trkpt lat="45.96623" lon="4.70798">
        <ele>298</ele>
        <time>2018-02-18T11:48:23Z</time>
      </trkpt>
      <trkpt lat="45.96632" lon="4.70804">
        <ele>298</ele>
        <time>2018-02-18T11:48:24Z</time>
      </trkpt>
      <trkpt lat="45.9664" lon="4.7081">
        <ele>298</ele>
        <time>2018-02-18T11:48:25Z</time>
      </trkpt>
      <trkpt lat="45.96649" lon="4.70816">
        <ele>297</ele>
        <time>2018-02-18T11:48:26Z</time>
      </trkpt>
      <trkpt lat="45.96658" lon="4.70822">
        <ele>297</ele>
        <time>2018-02-18T11:48:27Z</time>
      </trkpt>
      <trkpt lat="45.96667" lon="4.70827">
        <ele>296</ele>
        <time>2018-02-18T11:48:28Z</time>
      </trkpt>
      <trkpt lat="45.96675" lon="4.70832">
        <ele>296</ele>
        <time>2018-02-18T11:48:29Z</time>
      </trkpt>
      <trkpt lat="45.96684" lon="4.70839">
        <ele>292</ele>
        <time>2018-02-18T11:48:30Z</time>
      </trkpt>
      <trkpt lat="45.96693" lon="4.70845">
        <ele>291</ele>
        <time>2018-02-18T11:48:31Z</time>
      </trkpt>
      <trkpt lat="45.96701" lon="4.7085">
        <ele>290</ele>
        <time>2018-02-18T11:48:32Z</time>
      </trkpt>
      <trkpt lat="45.9671" lon="4.70855">
        <ele>290</ele>
        <time>2018-02-18T11:48:33Z</time>
      </trkpt>
      <trkpt lat="45.9672" lon="4.70864">
        <ele>289</ele>
        <time>2018-02-18T11:48:34Z</time>
      </trkpt>
      <trkpt lat="45.96729" lon="4.70869">
        <ele>289</ele>
        <time>2018-02-18T11:48:35Z</time>
      </trkpt>
      <trkpt lat="45.96738" lon="4.70874">
        <ele>288</ele>
        <time>2018-02-18T11:48:36Z</time>
      </trkpt>
      <trkpt lat="45.96746" lon="4.7088">
        <ele>288</ele>
        <time>2018-02-18T11:48:37Z</time>
      </trkpt>
      <trkpt lat="45.96755" lon="4.7089">
        <ele>288</ele>
        <time>2018-02-18T11:48:38Z</time>
      </trkpt>
      <trkpt lat="45.96763" lon="4.70897">
        <ele>287</ele>
        <time>2018-02-18T11:48:39Z</time>
      </trkpt>
      <trkpt lat="45.96772" lon="4.70902">
        <ele>287</ele>
        <time>2018-02-18T11:48:40Z</time>
      </trkpt>
      <trkpt lat="45.96781" lon="4.70908">
        <ele>288</ele>
        <time>2018-02-18T11:48:41Z</time>
      </trkpt>
      <trkpt lat="45.96789" lon="4.70913">
        <ele>288</ele>
        <time>2018-02-18T11:48:42Z</time>
      </trkpt>
      <trkpt lat="45.96798" lon="4.70919">
        <ele>280</ele>
        <time>2018-02-18T11:48:43Z</time>
      </trkpt>
      <trkpt lat="45.96806" lon="4.70924">
        <ele>281</ele>
        <time>2018-02-18T11:48:44Z</time>
      </trkpt>
      <trkpt lat="45.96815" lon="4.7093">
        <ele>281</ele>
        <time>2018-02-18T11:48:45Z</time>
      </trkpt>
      <trkpt lat="45.96824" lon="4.70935">
        <ele>281</ele>
        <time>2018-02-18T11:48:46Z</time>
      </trkpt>
      <trkpt lat="45.96831" lon="4.70941">
        <ele>280</ele>
        <time>2018-02-18T11:48:47Z</time>
      </trkpt>
      <trkpt lat="45.96839" lon="4.70946">
        <ele>281</ele>
        <time>2018-02-18T11:48:48Z</time>
      </trkpt>
      <trkpt lat="45.96847" lon="4.70952">
        <ele>280</ele>
        <time>2018-02-18T11:48:49Z</time>
      </trkpt>
      <trkpt lat="45.96855" lon="4.70958">
        <ele>279</ele>
        <time>2018-02-18T11:48:50Z</time>
      </trkpt>
      <trkpt lat="45.96863" lon="4.70962">
        <ele>279</ele>
        <time>2018-02-18T11:48:51Z</time>
      </trkpt>
      <trkpt lat="45.96872" lon="4.70967">
        <ele>279</ele>
        <time>2018-02-18T11:48:52Z</time>
      </trkpt>
      <trkpt lat="45.96881" lon="4.70971">
        <ele>278</ele>
        <time>2018-02-18T11:48:53Z</time>
      </trkpt>
      <trkpt lat="45.9689" lon="4.70973">
        <ele>278</ele>
        <time>2018-02-18T11:48:54Z</time>
      </trkpt>
      <trkpt lat="45.96898" lon="4.70977">
        <ele>277</ele>
        <time>2018-02-18T11:48:55Z</time>
      </trkpt>
      <trkpt lat="45.96906" lon="4.70979">
        <ele>277</ele>
        <time>2018-02-18T11:48:56Z</time>
      </trkpt>
      <trkpt lat="45.96916" lon="4.7098">
        <ele>277</ele>
        <time>2018-02-18T11:48:57Z</time>
      </trkpt>
      <trkpt lat="45.96925" lon="4.70982">
        <ele>275</ele>
        <time>2018-02-18T11:48:58Z</time>
      </trkpt>
      <trkpt lat="45.96934" lon="4.70984">
        <ele>275</ele>
        <time>2018-02-18T11:48:59Z</time>
      </trkpt>
      <trkpt lat="45.96943" lon="4.70986">
        <ele>275</ele>
        <time>2018-02-18T11:49:00Z</time>
      </trkpt>
      <trkpt lat="45.96951" lon="4.70985">
        <ele>275</ele>
        <time>2018-02-18T11:49:01Z</time>
      </trkpt>
      <trkpt lat="45.96961" lon="4.70987">
        <ele>274</ele>
        <time>2018-02-18T11:49:02Z</time>
      </trkpt>
      <trkpt lat="45.96971" lon="4.70987">
        <ele>274</ele>
        <time>2018-02-18T11:49:03Z</time>
      </trkpt>
      <trkpt lat="45.96979" lon="4.70988">
        <ele>273</ele>
        <time>2018-02-18T11:49:04Z</time>
      </trkpt>
      <trkpt lat="45.96988" lon="4.70988">
        <ele>272</ele>
        <time>2018-02-18T11:49:05Z</time>
      </trkpt>
      <trkpt lat="45.96998" lon="4.70989">
        <ele>271</ele>
        <time>2018-02-18T11:49:06Z</time>
      </trkpt>
      <trkpt lat="45.97007" lon="4.70989">
        <ele>269</ele>
        <time>2018-02-18T11:49:07Z</time>
      </trkpt>
      <trkpt lat="45.97016" lon="4.70989">
        <ele>269</ele>
        <time>2018-02-18T11:49:08Z</time>
      </trkpt>
      <trkpt lat="45.97025" lon="4.70989">
        <ele>269</ele>
        <time>2018-02-18T11:49:09Z</time>
      </trkpt>
      <trkpt lat="45.97034" lon="4.70989">
        <ele>269</ele>
        <time>2018-02-18T11:49:10Z</time>
      </trkpt>
      <trkpt lat="45.97044" lon="4.70988">
        <ele>269</ele>
        <time>2018-02-18T11:49:11Z</time>
      </trkpt>
      <trkpt lat="45.97053" lon="4.70987">
        <ele>269</ele>
        <time>2018-02-18T11:49:12Z</time>
      </trkpt>
      <trkpt lat="45.97064" lon="4.70985">
        <ele>268</ele>
        <time>2018-02-18T11:49:13Z</time>
      </trkpt>
      <trkpt lat="45.97074" lon="4.70983">
        <ele>267</ele>
        <time>2018-02-18T11:49:14Z</time>
      </trkpt>
      <trkpt lat="45.97083" lon="4.7098">
        <ele>267</ele>
        <time>2018-02-18T11:49:15Z</time>
      </trkpt>
      <trkpt lat="45.97093" lon="4.70979">
        <ele>264</ele>
        <time>2018-02-18T11:49:16Z</time>
      </trkpt>
      <trkpt lat="45.97102" lon="4.70976">
        <ele>264</ele>
        <time>2018-02-18T11:49:17Z</time>
      </trkpt>
      <trkpt lat="45.97109" lon="4.70974">
        <ele>264</ele>
        <time>2018-02-18T11:49:18Z</time>
      </trkpt>
      <trkpt lat="45.97119" lon="4.7097">
        <ele>264</ele>
        <time>2018-02-18T11:49:19Z</time>
      </trkpt>
      <trkpt lat="45.97129" lon="4.70966">
        <ele>263</ele>
        <time>2018-02-18T11:49:20Z</time>
      </trkpt>
      <trkpt lat="45.97138" lon="4.70961">
        <ele>263</ele>
        <time>2018-02-18T11:49:21Z</time>
      </trkpt>
      <trkpt lat="45.97147" lon="4.70957">
        <ele>263</ele>
        <time>2018-02-18T11:49:22Z</time>
      </trkpt>
      <trkpt lat="45.97156" lon="4.70952">
        <ele>263</ele>
        <time>2018-02-18T11:49:23Z</time>
      </trkpt>
      <trkpt lat="45.97165" lon="4.70948">
        <ele>263</ele>
        <time>2018-02-18T11:49:24Z</time>
      </trkpt>
      <trkpt lat="45.97173" lon="4.70944">
        <ele>258</ele>
        <time>2018-02-18T11:49:25Z</time>
      </trkpt>
      <trkpt lat="45.97181" lon="4.70937">
        <ele>258</ele>
        <time>2018-02-18T11:49:26Z</time>
      </trkpt>
      <trkpt lat="45.97189" lon="4.70932">
        <ele>258</ele>
        <time>2018-02-18T11:49:27Z</time>
      </trkpt>
      <trkpt lat="45.97197" lon="4.70926">
        <ele>257</ele>
        <time>2018-02-18T11:49:28Z</time>
      </trkpt>
      <trkpt lat="45.97203" lon="4.7092">
        <ele>257</ele>
        <time>2018-02-18T11:49:29Z</time>
      </trkpt>
      <trkpt lat="45.9721" lon="4.70913">
        <ele>260</ele>
        <time>2018-02-18T11:49:30Z</time>
      </trkpt>
      <trkpt lat="45.97217" lon="4.70906">
        <ele>259</ele>
        <time>2018-02-18T11:49:31Z</time>
      </trkpt>
      <trkpt lat="45.97224" lon="4.70898">
        <ele>259</ele>
        <time>2018-02-18T11:49:32Z</time>
      </trkpt>
      <trkpt lat="45.9723" lon="4.7089">
        <ele>259</ele>
        <time>2018-02-18T11:49:33Z</time>
      </trkpt>
      <trkpt lat="45.97237" lon="4.70881">
        <ele>259</ele>
        <time>2018-02-18T11:49:34Z</time>
      </trkpt>
      <trkpt lat="45.97242" lon="4.70871">
        <ele>259</ele>
        <time>2018-02-18T11:49:35Z</time>
      </trkpt>
      <trkpt lat="45.97249" lon="4.70862">
        <ele>259</ele>
        <time>2018-02-18T11:49:36Z</time>
      </trkpt>
      <trkpt lat="45.97254" lon="4.70853">
        <ele>254</ele>
        <time>2018-02-18T11:49:37Z</time>
      </trkpt>
      <trkpt lat="45.97261" lon="4.70843">
        <ele>254</ele>
        <time>2018-02-18T11:49:38Z</time>
      </trkpt>
      <trkpt lat="45.97267" lon="4.70833">
        <ele>256</ele>
        <time>2018-02-18T11:49:39Z</time>
      </trkpt>
      <trkpt lat="45.97274" lon="4.70824">
        <ele>255</ele>
        <time>2018-02-18T11:49:40Z</time>
      </trkpt>
      <trkpt lat="45.9728" lon="4.70816">
        <ele>254</ele>
        <time>2018-02-18T11:49:41Z</time>
      </trkpt>
      <trkpt lat="45.97287" lon="4.70808">
        <ele>254</ele>
        <time>2018-02-18T11:49:42Z</time>
      </trkpt>
      <trkpt lat="45.97293" lon="4.70801">
        <ele>254</ele>
        <time>2018-02-18T11:49:43Z</time>
      </trkpt>
      <trkpt lat="45.97299" lon="4.70794">
        <ele>253</ele>
        <time>2018-02-18T11:49:44Z</time>
      </trkpt>
      <trkpt lat="45.97306" lon="4.70786">
        <ele>253</ele>
        <time>2018-02-18T11:49:45Z</time>
      </trkpt>
      <trkpt lat="45.97313" lon="4.70781">
        <ele>252</ele>
        <time>2018-02-18T11:49:46Z</time>
      </trkpt>
      <trkpt lat="45.97321" lon="4.70776">
        <ele>252</ele>
        <time>2018-02-18T11:49:47Z</time>
      </trkpt>
      <trkpt lat="45.9733" lon="4.70771">
        <ele>251</ele>
        <time>2018-02-18T11:49:48Z</time>
      </trkpt>
      <trkpt lat="45.97338" lon="4.70766">
        <ele>246</ele>
        <time>2018-02-18T11:49:49Z</time>
      </trkpt>
      <trkpt lat="45.97347" lon="4.70763">
        <ele>246</ele>
        <time>2018-02-18T11:49:50Z</time>
      </trkpt>
      <trkpt lat="45.97356" lon="4.7076">
        <ele>245</ele>
        <time>2018-02-18T11:49:51Z</time>
      </trkpt>
      <trkpt lat="45.97364" lon="4.70756">
        <ele>245</ele>
        <time>2018-02-18T11:49:52Z</time>
      </trkpt>
      <trkpt lat="45.97372" lon="4.70753">
        <ele>244</ele>
        <time>2018-02-18T11:49:53Z</time>
      </trkpt>
      <trkpt lat="45.97381" lon="4.7075">
        <ele>243</ele>
        <time>2018-02-18T11:49:54Z</time>
      </trkpt>
      <trkpt lat="45.97389" lon="4.70751">
        <ele>243</ele>
        <time>2018-02-18T11:49:55Z</time>
      </trkpt>
      <trkpt lat="45.97397" lon="4.70752">
        <ele>242</ele>
        <time>2018-02-18T11:49:56Z</time>
      </trkpt>
      <trkpt lat="45.97406" lon="4.70753">
        <ele>241</ele>
        <time>2018-02-18T11:49:57Z</time>
      </trkpt>
      <trkpt lat="45.97415" lon="4.70754">
        <ele>241</ele>
        <time>2018-02-18T11:49:58Z</time>
      </trkpt>
      <trkpt lat="45.97424" lon="4.70755">
        <ele>239</ele>
        <time>2018-02-18T11:49:59Z</time>
      </trkpt>
      <trkpt lat="45.97433" lon="4.70755">
        <ele>239</ele>
        <time>2018-02-18T11:50:00Z</time>
      </trkpt>
      <trkpt lat="45.97442" lon="4.70755">
        <ele>238</ele>
        <time>2018-02-18T11:50:01Z</time>
      </trkpt>
      <trkpt lat="45.9745" lon="4.70755">
        <ele>238</ele>
        <time>2018-02-18T11:50:02Z</time>
      </trkpt>
      <trkpt lat="45.97459" lon="4.70756">
        <ele>237</ele>
        <time>2018-02-18T11:50:03Z</time>
      </trkpt>
      <trkpt lat="45.97467" lon="4.70754">
        <ele>237</ele>
        <time>2018-02-18T11:50:04Z</time>
      </trkpt>
      <trkpt lat="45.97474" lon="4.70752">
        <ele>237</ele>
        <time>2018-02-18T11:50:05Z</time>
      </trkpt>
      <trkpt lat="45.97482" lon="4.70749">
        <ele>237</ele>
        <time>2018-02-18T11:50:06Z</time>
      </trkpt>
      <trkpt lat="45.9749" lon="4.70747">
        <ele>237</ele>
        <time>2018-02-18T11:50:07Z</time>
      </trkpt>
      <trkpt lat="45.97498" lon="4.70744">
        <ele>236</ele>
        <time>2018-02-18T11:50:08Z</time>
      </trkpt>
      <trkpt lat="45.97505" lon="4.70742">
        <ele>235</ele>
        <time>2018-02-18T11:50:09Z</time>
      </trkpt>
      <trkpt lat="45.97512" lon="4.7074">
        <ele>235</ele>
        <time>2018-02-18T11:50:10Z</time>
      </trkpt>
      <trkpt lat="45.97517" lon="4.70741">
        <ele>235</ele>
        <time>2018-02-18T11:50:11Z</time>
      </trkpt>
      <trkpt lat="45.97523" lon="4.7074">
        <ele>234</ele>
        <time>2018-02-18T11:50:12Z</time>
      </trkpt>
      <trkpt lat="45.97534" lon="4.70736">
        <ele>234</ele>
        <time>2018-02-18T11:50:13Z</time>
      </trkpt>
      <trkpt lat="45.97541" lon="4.70734">
        <ele>234</ele>
        <time>2018-02-18T11:50:14Z</time>
      </trkpt>
      <trkpt lat="45.97548" lon="4.70733">
        <ele>233</ele>
        <time>2018-02-18T11:50:15Z</time>
      </trkpt>
      <trkpt lat="45.97556" lon="4.7073">
        <ele>233</ele>
        <time>2018-02-18T11:50:16Z</time>
      </trkpt>
      <trkpt lat="45.97565" lon="4.70727">
        <ele>233</ele>
        <time>2018-02-18T11:50:17Z</time>
      </trkpt>
      <trkpt lat="45.97572" lon="4.70725">
        <ele>233</ele>
        <time>2018-02-18T11:50:18Z</time>
      </trkpt>
      <trkpt lat="45.97579" lon="4.70725">
        <ele>232</ele>
        <time>2018-02-18T11:50:19Z</time>
      </trkpt>
      <trkpt lat="45.97585" lon="4.70725">
        <ele>229</ele>
        <time>2018-02-18T11:50:20Z</time>
      </trkpt>
      <trkpt lat="45.97595" lon="4.70727">
        <ele>229</ele>
        <time>2018-02-18T11:50:21Z</time>
      </trkpt>
      <trkpt lat="45.97602" lon="4.7073">
        <ele>229</ele>
        <time>2018-02-18T11:50:22Z</time>
      </trkpt>
      <trkpt lat="45.97611" lon="4.70731">
        <ele>229</ele>
        <time>2018-02-18T11:50:23Z</time>
      </trkpt>
      <trkpt lat="45.97618" lon="4.70733">
        <ele>228</ele>
        <time>2018-02-18T11:50:24Z</time>
      </trkpt>
      <trkpt lat="45.97626" lon="4.70737">
        <ele>228</ele>
        <time>2018-02-18T11:50:25Z</time>
      </trkpt>
      <trkpt lat="45.97632" lon="4.70741">
        <ele>227</ele>
        <time>2018-02-18T11:50:26Z</time>
      </trkpt>
      <trkpt lat="45.9764" lon="4.70743">
        <ele>227</ele>
        <time>2018-02-18T11:50:27Z</time>
      </trkpt>
      <trkpt lat="45.97648" lon="4.70745">
        <ele>226</ele>
        <time>2018-02-18T11:50:28Z</time>
      </trkpt>
      <trkpt lat="45.97656" lon="4.70749">
        <ele>225</ele>
        <time>2018-02-18T11:50:29Z</time>
      </trkpt>
      <trkpt lat="45.97664" lon="4.70754">
        <ele>225</ele>
        <time>2018-02-18T11:50:30Z</time>
      </trkpt>
      <trkpt lat="45.97672" lon="4.70757">
        <ele>224</ele>
        <time>2018-02-18T11:50:31Z</time>
      </trkpt>
      <trkpt lat="45.9768" lon="4.70758">
        <ele>223</ele>
        <time>2018-02-18T11:50:32Z</time>
      </trkpt>
      <trkpt lat="45.97689" lon="4.70761">
        <ele>223</ele>
        <time>2018-02-18T11:50:33Z</time>
      </trkpt>
      <trkpt lat="45.97697" lon="4.70762">
        <ele>223</ele>
        <time>2018-02-18T11:50:34Z</time>
      </trkpt>
      <trkpt lat="45.97704" lon="4.70765">
        <ele>223</ele>
        <time>2018-02-18T11:50:35Z</time>
      </trkpt>
      <trkpt lat="45.97712" lon="4.70768">
        <ele>223</ele>
        <time>2018-02-18T11:50:36Z</time>
      </trkpt>
      <trkpt lat="45.97719" lon="4.70771">
        <ele>222</ele>
        <time>2018-02-18T11:50:37Z</time>
      </trkpt>
      <trkpt lat="45.97727" lon="4.70773">
        <ele>222</ele>
        <time>2018-02-18T11:50:38Z</time>
      </trkpt>
      <trkpt lat="45.97735" lon="4.70776">
        <ele>222</ele>
        <time>2018-02-18T11:50:39Z</time>
      </trkpt>
      <trkpt lat="45.97742" lon="4.70778">
        <ele>222</ele>
        <time>2018-02-18T11:50:40Z</time>
      </trkpt>
      <trkpt lat="45.97749" lon="4.70779">
        <ele>222</ele>
        <time>2018-02-18T11:50:41Z</time>
      </trkpt>
      <trkpt lat="45.97756" lon="4.70785">
        <ele>221</ele>
        <time>2018-02-18T11:50:42Z</time>
      </trkpt>
      <trkpt lat="45.97761" lon="4.70786">
        <ele>221</ele>
        <time>2018-02-18T11:50:43Z</time>
      </trkpt>
      <trkpt lat="45.97766" lon="4.70786">
        <ele>221</ele>
        <time>2018-02-18T11:50:44Z</time>
      </trkpt>
      <trkpt lat="45.97772" lon="4.70788">
        <ele>221</ele>
        <time>2018-02-18T11:50:45Z</time>
      </trkpt>
      <trkpt lat="45.97779" lon="4.70794">
        <ele>221</ele>
        <time>2018-02-18T11:50:46Z</time>
      </trkpt>
      <trkpt lat="45.97784" lon="4.708">
        <ele>221</ele>
        <time>2018-02-18T11:50:47Z</time>
      </trkpt>
      <trkpt lat="45.9779" lon="4.70804">
        <ele>221</ele>
        <time>2018-02-18T11:50:48Z</time>
      </trkpt>
      <trkpt lat="45.97795" lon="4.70807">
        <ele>221</ele>
        <time>2018-02-18T11:50:49Z</time>
      </trkpt>
      <trkpt lat="45.97799" lon="4.70811">
        <ele>221</ele>
        <time>2018-02-18T11:50:50Z</time>
      </trkpt>
      <trkpt lat="45.97802" lon="4.70818">
        <ele>221</ele>
        <time>2018-02-18T11:50:51Z</time>
      </trkpt>
      <trkpt lat="45.97805" lon="4.70824">
        <ele>221</ele>
        <time>2018-02-18T11:50:52Z</time>
      </trkpt>
      <trkpt lat="45.97807" lon="4.70832">
        <ele>221</ele>
        <time>2018-02-18T11:50:53Z</time>
      </trkpt>
      <trkpt lat="45.9781" lon="4.7084">
        <ele>220</ele>
        <time>2018-02-18T11:50:54Z</time>
      </trkpt>
      <trkpt lat="45.97811" lon="4.70849">
        <ele>220</ele>
        <time>2018-02-18T11:50:55Z</time>
      </trkpt>
      <trkpt lat="45.97812" lon="4.70858">
        <ele>220</ele>
        <time>2018-02-18T11:50:56Z</time>
      </trkpt>
      <trkpt lat="45.97814" lon="4.70867">
        <ele>220</ele>
        <time>2018-02-18T11:50:57Z</time>
      </trkpt>
      <trkpt lat="45.97815" lon="4.70876">
        <ele>220</ele>
        <time>2018-02-18T11:50:58Z</time>
      </trkpt>
      <trkpt lat="45.97816" lon="4.70885">
        <ele>220</ele>
        <time>2018-02-18T11:50:59Z</time>
      </trkpt>
      <trkpt lat="45.97817" lon="4.70895">
        <ele>220</ele>
        <time>2018-02-18T11:51:00Z</time>
      </trkpt>
      <trkpt lat="45.97816" lon="4.70905">
        <ele>220</ele>
        <time>2018-02-18T11:51:01Z</time>
      </trkpt>
      <trkpt lat="45.97815" lon="4.70914">
        <ele>219</ele>
        <time>2018-02-18T11:51:02Z</time>
      </trkpt>
      <trkpt lat="45.97816" lon="4.70924">
        <ele>219</ele>
        <time>2018-02-18T11:51:03Z</time>
      </trkpt>
      <trkpt lat="45.97819" lon="4.70934">
        <ele>218</ele>
        <time>2018-02-18T11:51:04Z</time>
      </trkpt>
      <trkpt lat="45.97824" lon="4.70944">
        <ele>218</ele>
        <time>2018-02-18T11:51:05Z</time>
      </trkpt>
      <trkpt lat="45.97827" lon="4.70954">
        <ele>218</ele>
        <time>2018-02-18T11:51:06Z</time>
      </trkpt>
      <trkpt lat="45.9783" lon="4.70963">
        <ele>218</ele>
        <time>2018-02-18T11:51:07Z</time>
      </trkpt>
      <trkpt lat="45.97831" lon="4.70975">
        <ele>218</ele>
        <time>2018-02-18T11:51:08Z</time>
      </trkpt>
      <trkpt lat="45.97833" lon="4.70988">
        <ele>217</ele>
        <time>2018-02-18T11:51:09Z</time>
      </trkpt>
      <trkpt lat="45.97834" lon="4.70999">
        <ele>216</ele>
        <time>2018-02-18T11:51:10Z</time>
      </trkpt>
      <trkpt lat="45.97835" lon="4.7101">
        <ele>216</ele>
        <time>2018-02-18T11:51:11Z</time>
      </trkpt>
      <trkpt lat="45.97836" lon="4.71021">
        <ele>216</ele>
        <time>2018-02-18T11:51:12Z</time>
      </trkpt>
      <trkpt lat="45.97838" lon="4.71034">
        <ele>216</ele>
        <time>2018-02-18T11:51:13Z</time>
      </trkpt>
      <trkpt lat="45.9784" lon="4.71044">
        <ele>215</ele>
        <time>2018-02-18T11:51:14Z</time>
      </trkpt>
      <trkpt lat="45.97841" lon="4.71056">
        <ele>215</ele>
        <time>2018-02-18T11:51:15Z</time>
      </trkpt>
      <trkpt lat="45.97843" lon="4.71067">
        <ele>215</ele>
        <time>2018-02-18T11:51:16Z</time>
      </trkpt>
      <trkpt lat="45.97844" lon="4.71077">
        <ele>215</ele>
        <time>2018-02-18T11:51:17Z</time>
      </trkpt>
      <trkpt lat="45.97845" lon="4.71087">
        <ele>214</ele>
        <time>2018-02-18T11:51:18Z</time>
      </trkpt>
      <trkpt lat="45.97846" lon="4.71097">
        <ele>213</ele>
        <time>2018-02-18T11:51:19Z</time>
      </trkpt>
      <trkpt lat="45.97847" lon="4.71107">
        <ele>213</ele>
        <time>2018-02-18T11:51:20Z</time>
      </trkpt>
      <trkpt lat="45.97848" lon="4.71117">
        <ele>213</ele>
        <time>2018-02-18T11:51:21Z</time>
      </trkpt>
      <trkpt lat="45.9785" lon="4.71127">
        <ele>212</ele>
        <time>2018-02-18T11:51:22Z</time>
      </trkpt>
      <trkpt lat="45.97852" lon="4.71137">
        <ele>212</ele>
        <time>2018-02-18T11:51:23Z</time>
      </trkpt>
      <trkpt lat="45.97852" lon="4.71147">
        <ele>212</ele>
        <time>2018-02-18T11:51:24Z</time>
      </trkpt>
      <trkpt lat="45.97853" lon="4.71157">
        <ele>212</ele>
        <time>2018-02-18T11:51:25Z</time>
      </trkpt>
      <trkpt lat="45.97853" lon="4.71167">
        <ele>210</ele>
        <time>2018-02-18T11:51:26Z</time>
      </trkpt>
      <trkpt lat="45.97854" lon="4.71178">
        <ele>209</ele>
        <time>2018-02-18T11:51:27Z</time>
      </trkpt>
      <trkpt lat="45.97854" lon="4.71189">
        <ele>209</ele>
        <time>2018-02-18T11:51:28Z</time>
      </trkpt>
      <trkpt lat="45.97853" lon="4.71199">
        <ele>209</ele>
        <time>2018-02-18T11:51:29Z</time>
      </trkpt>
      <trkpt lat="45.97853" lon="4.7121">
        <ele>209</ele>
        <time>2018-02-18T11:51:30Z</time>
      </trkpt>
      <trkpt lat="45.97853" lon="4.71221">
        <ele>208</ele>
        <time>2018-02-18T11:51:31Z</time>
      </trkpt>
      <trkpt lat="45.97853" lon="4.71233">
        <ele>208</ele>
        <time>2018-02-18T11:51:32Z</time>
      </trkpt>
      <trkpt lat="45.97853" lon="4.71244">
        <ele>208</ele>
        <time>2018-02-18T11:51:33Z</time>
      </trkpt>
      <trkpt lat="45.97852" lon="4.71256">
        <ele>207</ele>
        <time>2018-02-18T11:51:34Z</time>
      </trkpt>
      <trkpt lat="45.97852" lon="4.71266">
        <ele>206</ele>
        <time>2018-02-18T11:51:35Z</time>
      </trkpt>
      <trkpt lat="45.97852" lon="4.71278">
        <ele>206</ele>
        <time>2018-02-18T11:51:36Z</time>
      </trkpt>
      <trkpt lat="45.97852" lon="4.71291">
        <ele>206</ele>
        <time>2018-02-18T11:51:37Z</time>
      </trkpt>
      <trkpt lat="45.97851" lon="4.71302">
        <ele>206</ele>
        <time>2018-02-18T11:51:38Z</time>
      </trkpt>
      <trkpt lat="45.97852" lon="4.71313">
        <ele>205</ele>
        <time>2018-02-18T11:51:39Z</time>
      </trkpt>
      <trkpt lat="45.97852" lon="4.71324">
        <ele>205</ele>
        <time>2018-02-18T11:51:40Z</time>
      </trkpt>
      <trkpt lat="45.97851" lon="4.71335">
        <ele>204</ele>
        <time>2018-02-18T11:51:41Z</time>
      </trkpt>
      <trkpt lat="45.97851" lon="4.71346">
        <ele>204</ele>
        <time>2018-02-18T11:51:42Z</time>
      </trkpt>
      <trkpt lat="45.9785" lon="4.71357">
        <ele>204</ele>
        <time>2018-02-18T11:51:43Z</time>
      </trkpt>
      <trkpt lat="45.9785" lon="4.71368">
        <ele>203</ele>
        <time>2018-02-18T11:51:44Z</time>
      </trkpt>
      <trkpt lat="45.97851" lon="4.71379">
        <ele>203</ele>
        <time>2018-02-18T11:51:45Z</time>
      </trkpt>
      <trkpt lat="45.97852" lon="4.71389">
        <ele>203</ele>
        <time>2018-02-18T11:51:46Z</time>
      </trkpt>
      <trkpt lat="45.97853" lon="4.71399">
        <ele>203</ele>
        <time>2018-02-18T11:51:47Z</time>
      </trkpt>
      <trkpt lat="45.97854" lon="4.71409">
        <ele>203</ele>
        <time>2018-02-18T11:51:48Z</time>
      </trkpt>
      <trkpt lat="45.97856" lon="4.7142">
        <ele>202</ele>
        <time>2018-02-18T11:51:49Z</time>
      </trkpt>
      <trkpt lat="45.97858" lon="4.71431">
        <ele>201</ele>
        <time>2018-02-18T11:51:50Z</time>
      </trkpt>
      <trkpt lat="45.9786" lon="4.71442">
        <ele>201</ele>
        <time>2018-02-18T11:51:51Z</time>
      </trkpt>
      <trkpt lat="45.97862" lon="4.71452">
        <ele>201</ele>
        <time>2018-02-18T11:51:52Z</time>
      </trkpt>
      <trkpt lat="45.97862" lon="4.71462">
        <ele>201</ele>
        <time>2018-02-18T11:51:53Z</time>
      </trkpt>
      <trkpt lat="45.97864" lon="4.71472">
        <ele>201</ele>
        <time>2018-02-18T11:51:54Z</time>
      </trkpt>
      <trkpt lat="45.97865" lon="4.71482">
        <ele>201</ele>
        <time>2018-02-18T11:51:55Z</time>
      </trkpt>
      <trkpt lat="45.97867" lon="4.71492">
        <ele>201</ele>
        <time>2018-02-18T11:51:56Z</time>
      </trkpt>
      <trkpt lat="45.97869" lon="4.71502">
        <ele>199</ele>
        <time>2018-02-18T11:51:57Z</time>
      </trkpt>
      <trkpt lat="45.97871" lon="4.71512">
        <ele>199</ele>
        <time>2018-02-18T11:51:58Z</time>
      </trkpt>
      <trkpt lat="45.97872" lon="4.71522">
        <ele>199</ele>
        <time>2018-02-18T11:51:59Z</time>
      </trkpt>
      <trkpt lat="45.97874" lon="4.71531">
        <ele>199</ele>
        <time>2018-02-18T11:52:00Z</time>
      </trkpt>
      <trkpt lat="45.97876" lon="4.71541">
        <ele>199</ele>
        <time>2018-02-18T11:52:01Z</time>
      </trkpt>
      <trkpt lat="45.97878" lon="4.7155">
        <ele>199</ele>
        <time>2018-02-18T11:52:02Z</time>
      </trkpt>
      <trkpt lat="45.97879" lon="4.71561">
        <ele>198</ele>
        <time>2018-02-18T11:52:03Z</time>
      </trkpt>
      <trkpt lat="45.97881" lon="4.7157">
        <ele>198</ele>
        <time>2018-02-18T11:52:04Z</time>
      </trkpt>
      <trkpt lat="45.97881" lon="4.7158">
        <ele>198</ele>
        <time>2018-02-18T11:52:05Z</time>
      </trkpt>
      <trkpt lat="45.97882" lon="4.71589">
        <ele>197</ele>
        <time>2018-02-18T11:52:06Z</time>
      </trkpt>
      <trkpt lat="45.97883" lon="4.716">
        <ele>197</ele>
        <time>2018-02-18T11:52:07Z</time>
      </trkpt>
      <trkpt lat="45.97883" lon="4.7161">
        <ele>197</ele>
        <time>2018-02-18T11:52:08Z</time>
      </trkpt>
      <trkpt lat="45.97883" lon="4.71619">
        <ele>197</ele>
        <time>2018-02-18T11:52:09Z</time>
      </trkpt>
      <trkpt lat="45.97883" lon="4.71629">
        <ele>197</ele>
        <time>2018-02-18T11:52:10Z</time>
      </trkpt>
      <trkpt lat="45.97884" lon="4.71639">
        <ele>197</ele>
        <time>2018-02-18T11:52:11Z</time>
      </trkpt>
      <trkpt lat="45.97882" lon="4.71648">
        <ele>197</ele>
        <time>2018-02-18T11:52:12Z</time>
      </trkpt>
      <trkpt lat="45.97879" lon="4.71656">
        <ele>197</ele>
        <time>2018-02-18T11:52:13Z</time>
      </trkpt>
      <trkpt lat="45.97876" lon="4.71663">
        <ele>197</ele>
        <time>2018-02-18T11:52:14Z</time>
      </trkpt>
      <trkpt lat="45.97875" lon="4.71671">
        <ele>196</ele>
        <time>2018-02-18T11:52:15Z</time>
      </trkpt>
      <trkpt lat="45.97873" lon="4.71681">
        <ele>196</ele>
        <time>2018-02-18T11:52:16Z</time>
      </trkpt>
      <trkpt lat="45.97871" lon="4.7169">
        <ele>196</ele>
        <time>2018-02-18T11:52:17Z</time>
      </trkpt>
      <trkpt lat="45.97869" lon="4.71698">
        <ele>196</ele>
        <time>2018-02-18T11:52:18Z</time>
      </trkpt>
      <trkpt lat="45.97866" lon="4.71705">
        <ele>196</ele>
        <time>2018-02-18T11:52:19Z</time>
      </trkpt>
      <trkpt lat="45.97864" lon="4.7171">
        <ele>196</ele>
        <time>2018-02-18T11:52:20Z</time>
      </trkpt>
      <trkpt lat="45.9786" lon="4.71715">
        <ele>196</ele>
        <time>2018-02-18T11:52:21Z</time>
      </trkpt>
      <trkpt lat="45.97856" lon="4.71719">
        <ele>196</ele>
        <time>2018-02-18T11:52:22Z</time>
      </trkpt>
      <trkpt lat="45.97852" lon="4.71724">
        <ele>196</ele>
        <time>2018-02-18T11:52:23Z</time>
      </trkpt>
      <trkpt lat="45.97851" lon="4.71731">
        <ele>196</ele>
        <time>2018-02-18T11:52:24Z</time>
      </trkpt>
      <trkpt lat="45.97848" lon="4.71736">
        <ele>196</ele>
        <time>2018-02-18T11:52:25Z</time>
      </trkpt>
      <trkpt lat="45.97844" lon="4.7174">
        <ele>195</ele>
        <time>2018-02-18T11:52:26Z</time>
      </trkpt>
      <trkpt lat="45.97839" lon="4.71742">
        <ele>195</ele>
        <time>2018-02-18T11:52:27Z</time>
      </trkpt>
      <trkpt lat="45.97832" lon="4.71743">
        <ele>195</ele>
        <time>2018-02-18T11:52:28Z</time>
      </trkpt>
      <trkpt lat="45.97825" lon="4.71742">
        <ele>196</ele>
        <time>2018-02-18T11:52:29Z</time>
      </trkpt>
      <trkpt lat="45.97819" lon="4.71742">
        <ele>196</ele>
        <time>2018-02-18T11:52:30Z</time>
      </trkpt>
      <trkpt lat="45.97811" lon="4.71742">
        <ele>196</ele>
        <time>2018-02-18T11:52:31Z</time>
      </trkpt>
      <trkpt lat="45.97805" lon="4.71741">
        <ele>196</ele>
        <time>2018-02-18T11:52:32Z</time>
      </trkpt>
      <trkpt lat="45.97799" lon="4.71739">
        <ele>196</ele>
        <time>2018-02-18T11:52:33Z</time>
      </trkpt>
      <trkpt lat="45.97792" lon="4.7174">
        <ele>196</ele>
        <time>2018-02-18T11:52:34Z</time>
      </trkpt>
      <trkpt lat="45.97786" lon="4.71739">
        <ele>196</ele>
        <time>2018-02-18T11:52:35Z</time>
      </trkpt>
      <trkpt lat="45.97779" lon="4.71739">
        <ele>196</ele>
        <time>2018-02-18T11:52:36Z</time>
      </trkpt>
      <trkpt lat="45.97773" lon="4.71737">
        <ele>196</ele>
        <time>2018-02-18T11:52:37Z</time>
      </trkpt>
      <trkpt lat="45.97766" lon="4.71737">
        <ele>196</ele>
        <time>2018-02-18T11:52:38Z</time>
      </trkpt>
      <trkpt lat="45.97758" lon="4.71736">
        <ele>196</ele>
        <time>2018-02-18T11:52:39Z</time>
      </trkpt>
      <trkpt lat="45.97751" lon="4.71735">
        <ele>196</ele>
        <time>2018-02-18T11:52:40Z</time>
      </trkpt>
      <trkpt lat="45.97745" lon="4.71735">
        <ele>196</ele>
        <time>2018-02-18T11:52:41Z</time>
      </trkpt>
      <trkpt lat="45.97739" lon="4.71733">
        <ele>196</ele>
        <time>2018-02-18T11:52:42Z</time>
      </trkpt>
      <trkpt lat="45.97732" lon="4.71733">
        <ele>196</ele>
        <time>2018-02-18T11:52:43Z</time>
      </trkpt>
      <trkpt lat="45.97725" lon="4.71733">
        <ele>196</ele>
        <time>2018-02-18T11:52:44Z</time>
      </trkpt>
      <trkpt lat="45.97719" lon="4.71731">
        <ele>196</ele>
        <time>2018-02-18T11:52:45Z</time>
      </trkpt>
      <trkpt lat="45.97712" lon="4.7173">
        <ele>196</ele>
        <time>2018-02-18T11:52:46Z</time>
      </trkpt>
      <trkpt lat="45.97704" lon="4.7173">
        <ele>196</ele>
        <time>2018-02-18T11:52:47Z</time>
      </trkpt>
      <trkpt lat="45.97698" lon="4.7173">
        <ele>196</ele>
        <time>2018-02-18T11:52:48Z</time>
      </trkpt>
      <trkpt lat="45.97691" lon="4.7173">
        <ele>196</ele>
        <time>2018-02-18T11:52:49Z</time>
      </trkpt>
      <trkpt lat="45.97684" lon="4.71729">
        <ele>196</ele>
        <time>2018-02-18T11:52:50Z</time>
      </trkpt>
      <trkpt lat="45.97676" lon="4.71728">
        <ele>196</ele>
        <time>2018-02-18T11:52:51Z</time>
      </trkpt>
      <trkpt lat="45.9767" lon="4.71727">
        <ele>196</ele>
        <time>2018-02-18T11:52:52Z</time>
      </trkpt>
      <trkpt lat="45.97663" lon="4.71726">
        <ele>196</ele>
        <time>2018-02-18T11:52:53Z</time>
      </trkpt>
      <trkpt lat="45.97657" lon="4.71725">
        <ele>196</ele>
        <time>2018-02-18T11:52:54Z</time>
      </trkpt>
      <trkpt lat="45.9765" lon="4.71725">
        <ele>196</ele>
        <time>2018-02-18T11:52:55Z</time>
      </trkpt>
      <trkpt lat="45.97644" lon="4.71724">
        <ele>196</ele>
        <time>2018-02-18T11:52:56Z</time>
      </trkpt>
      <trkpt lat="45.97638" lon="4.71724">
        <ele>196</ele>
        <time>2018-02-18T11:52:57Z</time>
      </trkpt>
      <trkpt lat="45.97634" lon="4.71721">
        <ele>197</ele>
        <time>2018-02-18T11:52:58Z</time>
      </trkpt>
      <trkpt lat="45.9763" lon="4.71717">
        <ele>197</ele>
        <time>2018-02-18T11:52:59Z</time>
      </trkpt>
      <trkpt lat="45.97624" lon="4.71714">
        <ele>197</ele>
        <time>2018-02-18T11:53:00Z</time>
      </trkpt>
      <trkpt lat="45.97618" lon="4.71712">
        <ele>197</ele>
        <time>2018-02-18T11:53:01Z</time>
      </trkpt>
      <trkpt lat="45.97612" lon="4.71712">
        <ele>197</ele>
        <time>2018-02-18T11:53:02Z</time>
      </trkpt>
      <trkpt lat="45.97606" lon="4.71714">
        <ele>197</ele>
        <time>2018-02-18T11:53:03Z</time>
      </trkpt>
      <trkpt lat="45.97602" lon="4.71716">
        <ele>197</ele>
        <time>2018-02-18T11:53:04Z</time>
      </trkpt>
      <trkpt lat="45.97598" lon="4.7172">
        <ele>197</ele>
        <time>2018-02-18T11:53:05Z</time>
      </trkpt>
      <trkpt lat="45.97593" lon="4.71722">
        <ele>197</ele>
        <time>2018-02-18T11:53:06Z</time>
      </trkpt>
      <trkpt lat="45.97587" lon="4.71722">
        <ele>197</ele>
        <time>2018-02-18T11:53:07Z</time>
      </trkpt>
      <trkpt lat="45.97581" lon="4.71721">
        <ele>197</ele>
        <time>2018-02-18T11:53:08Z</time>
      </trkpt>
      <trkpt lat="45.97574" lon="4.7172">
        <ele>198</ele>
        <time>2018-02-18T11:53:09Z</time>
      </trkpt>
      <trkpt lat="45.97568" lon="4.71718">
        <ele>198</ele>
        <time>2018-02-18T11:53:10Z</time>
      </trkpt>
      <trkpt lat="45.97561" lon="4.71718">
        <ele>198</ele>
        <time>2018-02-18T11:53:11Z</time>
      </trkpt>
      <trkpt lat="45.97555" lon="4.71717">
        <ele>198</ele>
        <time>2018-02-18T11:53:12Z</time>
      </trkpt>
      <trkpt lat="45.97548" lon="4.71717">
        <ele>198</ele>
        <time>2018-02-18T11:53:13Z</time>
      </trkpt>
      <trkpt lat="45.97542" lon="4.71716">
        <ele>198</ele>
        <time>2018-02-18T11:53:14Z</time>
      </trkpt>
      <trkpt lat="45.97536" lon="4.71716">
        <ele>198</ele>
        <time>2018-02-18T11:53:15Z</time>
      </trkpt>
      <trkpt lat="45.9753" lon="4.71714">
        <ele>198</ele>
        <time>2018-02-18T11:53:16Z</time>
      </trkpt>
      <trkpt lat="45.97523" lon="4.71713">
        <ele>198</ele>
        <time>2018-02-18T11:53:17Z</time>
      </trkpt>
      <trkpt lat="45.97517" lon="4.71712">
        <ele>199</ele>
        <time>2018-02-18T11:53:18Z</time>
      </trkpt>
      <trkpt lat="45.97511" lon="4.71712">
        <ele>199</ele>
        <time>2018-02-18T11:53:19Z</time>
      </trkpt>
      <trkpt lat="45.97505" lon="4.71711">
        <ele>199</ele>
        <time>2018-02-18T11:53:20Z</time>
      </trkpt>
      <trkpt lat="45.97498" lon="4.71712">
        <ele>198</ele>
        <time>2018-02-18T11:53:21Z</time>
      </trkpt>
      <trkpt lat="45.97492" lon="4.71712">
        <ele>198</ele>
        <time>2018-02-18T11:53:22Z</time>
      </trkpt>
      <trkpt lat="45.97486" lon="4.71711">
        <ele>198</ele>
        <time>2018-02-18T11:53:23Z</time>
      </trkpt>
      <trkpt lat="45.9748" lon="4.71711">
        <ele>198</ele>
        <time>2018-02-18T11:53:24Z</time>
      </trkpt>
      <trkpt lat="45.97473" lon="4.7171">
        <ele>198</ele>
        <time>2018-02-18T11:53:25Z</time>
      </trkpt>
      <trkpt lat="45.97466" lon="4.71711">
        <ele>197</ele>
        <time>2018-02-18T11:53:26Z</time>
      </trkpt>
      <trkpt lat="45.9746" lon="4.71711">
        <ele>197</ele>
        <time>2018-02-18T11:53:27Z</time>
      </trkpt>
      <trkpt lat="45.97455" lon="4.71709">
        <ele>197</ele>
        <time>2018-02-18T11:53:28Z</time>
      </trkpt>
      <trkpt lat="45.97448" lon="4.71708">
        <ele>197</ele>
        <time>2018-02-18T11:53:29Z</time>
      </trkpt>
      <trkpt lat="45.97442" lon="4.71708">
        <ele>197</ele>
        <time>2018-02-18T11:53:30Z</time>
      </trkpt>
      <trkpt lat="45.97434" lon="4.71708">
        <ele>197</ele>
        <time>2018-02-18T11:53:31Z</time>
      </trkpt>
      <trkpt lat="45.97428" lon="4.71707">
        <ele>197</ele>
        <time>2018-02-18T11:53:32Z</time>
      </trkpt>
      <trkpt lat="45.97421" lon="4.71707">
        <ele>196</ele>
        <time>2018-02-18T11:53:33Z</time>
      </trkpt>
      <trkpt lat="45.97414" lon="4.71707">
        <ele>195</ele>
        <time>2018-02-18T11:53:34Z</time>
      </trkpt>
      <trkpt lat="45.97408" lon="4.71707">
        <ele>195</ele>
        <time>2018-02-18T11:53:35Z</time>
      </trkpt>
      <trkpt lat="45.97401" lon="4.71707">
        <ele>195</ele>
        <time>2018-02-18T11:53:36Z</time>
      </trkpt>
      <trkpt lat="45.97395" lon="4.71707">
        <ele>195</ele>
        <time>2018-02-18T11:53:37Z</time>
      </trkpt>
      <trkpt lat="45.97389" lon="4.71706">
        <ele>195</ele>
        <time>2018-02-18T11:53:38Z</time>
      </trkpt>
      <trkpt lat="45.97382" lon="4.71707">
        <ele>195</ele>
        <time>2018-02-18T11:53:39Z</time>
      </trkpt>
      <trkpt lat="45.97376" lon="4.71706">
        <ele>195</ele>
        <time>2018-02-18T11:53:40Z</time>
      </trkpt>
      <trkpt lat="45.97369" lon="4.71705">
        <ele>195</ele>
        <time>2018-02-18T11:53:41Z</time>
      </trkpt>
      <trkpt lat="45.97363" lon="4.71705">
        <ele>195</ele>
        <time>2018-02-18T11:53:42Z</time>
      </trkpt>
      <trkpt lat="45.97357" lon="4.71705">
        <ele>195</ele>
        <time>2018-02-18T11:53:43Z</time>
      </trkpt>
      <trkpt lat="45.97351" lon="4.71705">
        <ele>195</ele>
        <time>2018-02-18T11:53:44Z</time>
      </trkpt>
      <trkpt lat="45.97345" lon="4.71704">
        <ele>195</ele>
        <time>2018-02-18T11:53:45Z</time>
      </trkpt>
      <trkpt lat="45.97339" lon="4.71703">
        <ele>195</ele>
        <time>2018-02-18T11:53:46Z</time>
      </trkpt>
      <trkpt lat="45.97332" lon="4.71702">
        <ele>196</ele>
        <time>2018-02-18T11:53:47Z</time>
      </trkpt>
      <trkpt lat="45.97326" lon="4.71701">
        <ele>196</ele>
        <time>2018-02-18T11:53:48Z</time>
      </trkpt>
      <trkpt lat="45.97321" lon="4.71698">
        <ele>196</ele>
        <time>2018-02-18T11:53:49Z</time>
      </trkpt>
      <trkpt lat="45.97315" lon="4.71694">
        <ele>196</ele>
        <time>2018-02-18T11:53:50Z</time>
      </trkpt>
      <trkpt lat="45.97307" lon="4.71691">
        <ele>196</ele>
        <time>2018-02-18T11:53:51Z</time>
      </trkpt>
      <trkpt lat="45.973" lon="4.71691">
        <ele>197</ele>
        <time>2018-02-18T11:53:52Z</time>
      </trkpt>
      <trkpt lat="45.97294" lon="4.71692">
        <ele>197</ele>
        <time>2018-02-18T11:53:53Z</time>
      </trkpt>
      <trkpt lat="45.97288" lon="4.71694">
        <ele>197</ele>
        <time>2018-02-18T11:53:54Z</time>
      </trkpt>
      <trkpt lat="45.97282" lon="4.71696">
        <ele>197</ele>
        <time>2018-02-18T11:53:55Z</time>
      </trkpt>
      <trkpt lat="45.97277" lon="4.71698">
        <ele>197</ele>
        <time>2018-02-18T11:53:56Z</time>
      </trkpt>
      <trkpt lat="45.97271" lon="4.71698">
        <ele>197</ele>
        <time>2018-02-18T11:53:57Z</time>
      </trkpt>
      <trkpt lat="45.97265" lon="4.71696">
        <ele>197</ele>
        <time>2018-02-18T11:53:58Z</time>
      </trkpt>
      <trkpt lat="45.97258" lon="4.71695">
        <ele>197</ele>
        <time>2018-02-18T11:53:59Z</time>
      </trkpt>
      <trkpt lat="45.97251" lon="4.71695">
        <ele>197</ele>
        <time>2018-02-18T11:54:00Z</time>
      </trkpt>
      <trkpt lat="45.97244" lon="4.71693">
        <ele>197</ele>
        <time>2018-02-18T11:54:01Z</time>
      </trkpt>
      <trkpt lat="45.97237" lon="4.71692">
        <ele>197</ele>
        <time>2018-02-18T11:54:02Z</time>
      </trkpt>
      <trkpt lat="45.9723" lon="4.71691">
        <ele>197</ele>
        <time>2018-02-18T11:54:03Z</time>
      </trkpt>
      <trkpt lat="45.97222" lon="4.7169">
        <ele>197</ele>
        <time>2018-02-18T11:54:04Z</time>
      </trkpt>
      <trkpt lat="45.97215" lon="4.71689">
        <ele>197</ele>
        <time>2018-02-18T11:54:05Z</time>
      </trkpt>
      <trkpt lat="45.97209" lon="4.71689">
        <ele>197</ele>
        <time>2018-02-18T11:54:06Z</time>
      </trkpt>
      <trkpt lat="45.97201" lon="4.71689">
        <ele>197</ele>
        <time>2018-02-18T11:54:07Z</time>
      </trkpt>
      <trkpt lat="45.97193" lon="4.71688">
        <ele>197</ele>
        <time>2018-02-18T11:54:08Z</time>
      </trkpt>
      <trkpt lat="45.97186" lon="4.71688">
        <ele>197</ele>
        <time>2018-02-18T11:54:09Z</time>
      </trkpt>
      <trkpt lat="45.97179" lon="4.71688">
        <ele>197</ele>
        <time>2018-02-18T11:54:10Z</time>
      </trkpt>
      <trkpt lat="45.97172" lon="4.71688">
        <ele>197</ele>
        <time>2018-02-18T11:54:11Z</time>
      </trkpt>
      <trkpt lat="45.97163" lon="4.71687">
        <ele>196</ele>
        <time>2018-02-18T11:54:12Z</time>
      </trkpt>
      <trkpt lat="45.97156" lon="4.71687">
        <ele>196</ele>
        <time>2018-02-18T11:54:13Z</time>
      </trkpt>
      <trkpt lat="45.97147" lon="4.71686">
        <ele>195</ele>
        <time>2018-02-18T11:54:14Z</time>
      </trkpt>
      <trkpt lat="45.9714" lon="4.71685">
        <ele>195</ele>
        <time>2018-02-18T11:54:15Z</time>
      </trkpt>
      <trkpt lat="45.97131" lon="4.71684">
        <ele>195</ele>
        <time>2018-02-18T11:54:16Z</time>
      </trkpt>
      <trkpt lat="45.97124" lon="4.71684">
        <ele>195</ele>
        <time>2018-02-18T11:54:17Z</time>
      </trkpt>
      <trkpt lat="45.97117" lon="4.71683">
        <ele>195</ele>
        <time>2018-02-18T11:54:18Z</time>
      </trkpt>
      <trkpt lat="45.9711" lon="4.71682">
        <ele>194</ele>
        <time>2018-02-18T11:54:19Z</time>
      </trkpt>
      <trkpt lat="45.97104" lon="4.71681">
        <ele>194</ele>
        <time>2018-02-18T11:54:20Z</time>
      </trkpt>
      <trkpt lat="45.97097" lon="4.7168">
        <ele>194</ele>
        <time>2018-02-18T11:54:21Z</time>
      </trkpt>
      <trkpt lat="45.97091" lon="4.71679">
        <ele>195</ele>
        <time>2018-02-18T11:54:22Z</time>
      </trkpt>
      <trkpt lat="45.97084" lon="4.71677">
        <ele>195</ele>
        <time>2018-02-18T11:54:23Z</time>
      </trkpt>
      <trkpt lat="45.97077" lon="4.71676">
        <ele>194</ele>
        <time>2018-02-18T11:54:24Z</time>
      </trkpt>
      <trkpt lat="45.97071" lon="4.71675">
        <ele>194</ele>
        <time>2018-02-18T11:54:25Z</time>
      </trkpt>
      <trkpt lat="45.97064" lon="4.71674">
        <ele>193</ele>
        <time>2018-02-18T11:54:26Z</time>
      </trkpt>
      <trkpt lat="45.97057" lon="4.71673">
        <ele>193</ele>
        <time>2018-02-18T11:54:27Z</time>
      </trkpt>
      <trkpt lat="45.9705" lon="4.71671">
        <ele>193</ele>
        <time>2018-02-18T11:54:28Z</time>
      </trkpt>
      <trkpt lat="45.97043" lon="4.71671">
        <ele>193</ele>
        <time>2018-02-18T11:54:29Z</time>
      </trkpt>
      <trkpt lat="45.97036" lon="4.7167">
        <ele>193</ele>
        <time>2018-02-18T11:54:30Z</time>
      </trkpt>
      <trkpt lat="45.97029" lon="4.7167">
        <ele>193</ele>
        <time>2018-02-18T11:54:31Z</time>
      </trkpt>
      <trkpt lat="45.97021" lon="4.7167">
        <ele>193</ele>
        <time>2018-02-18T11:54:32Z</time>
      </trkpt>
      <trkpt lat="45.97013" lon="4.71671">
        <ele>193</ele>
        <time>2018-02-18T11:54:33Z</time>
      </trkpt>
      <trkpt lat="45.97006" lon="4.7167">
        <ele>194</ele>
        <time>2018-02-18T11:54:34Z</time>
      </trkpt>
      <trkpt lat="45.96998" lon="4.71669">
        <ele>194</ele>
        <time>2018-02-18T11:54:35Z</time>
      </trkpt>
      <trkpt lat="45.96991" lon="4.71669">
        <ele>193</ele>
        <time>2018-02-18T11:54:36Z</time>
      </trkpt>
      <trkpt lat="45.96983" lon="4.71669">
        <ele>193</ele>
        <time>2018-02-18T11:54:37Z</time>
      </trkpt>
      <trkpt lat="45.96975" lon="4.71669">
        <ele>192</ele>
        <time>2018-02-18T11:54:38Z</time>
      </trkpt>
      <trkpt lat="45.96968" lon="4.71668">
        <ele>192</ele>
        <time>2018-02-18T11:54:39Z</time>
      </trkpt>
      <trkpt lat="45.9696" lon="4.71668">
        <ele>192</ele>
        <time>2018-02-18T11:54:40Z</time>
      </trkpt>
      <trkpt lat="45.96952" lon="4.71667">
        <ele>192</ele>
        <time>2018-02-18T11:54:41Z</time>
      </trkpt>
      <trkpt lat="45.96944" lon="4.71666">
        <ele>195</ele>
        <time>2018-02-18T11:54:42Z</time>
      </trkpt>
      <trkpt lat="45.96936" lon="4.71665">
        <ele>195</ele>
        <time>2018-02-18T11:54:43Z</time>
      </trkpt>
      <trkpt lat="45.96928" lon="4.71666">
        <ele>195</ele>
        <time>2018-02-18T11:54:44Z</time>
      </trkpt>
      <trkpt lat="45.9692" lon="4.71666">
        <ele>195</ele>
        <time>2018-02-18T11:54:45Z</time>
      </trkpt>
      <trkpt lat="45.96913" lon="4.71666">
        <ele>195</ele>
        <time>2018-02-18T11:54:46Z</time>
      </trkpt>
      <trkpt lat="45.96904" lon="4.71665">
        <ele>195</ele>
        <time>2018-02-18T11:54:47Z</time>
      </trkpt>
      <trkpt lat="45.96896" lon="4.71665">
        <ele>195</ele>
        <time>2018-02-18T11:54:48Z</time>
      </trkpt>
      <trkpt lat="45.96889" lon="4.71665">
        <ele>195</ele>
        <time>2018-02-18T11:54:49Z</time>
      </trkpt>
      <trkpt lat="45.96881" lon="4.71663">
        <ele>195</ele>
        <time>2018-02-18T11:54:50Z</time>
      </trkpt>
      <trkpt lat="45.96873" lon="4.71662">
        <ele>195</ele>
        <time>2018-02-18T11:54:51Z</time>
      </trkpt>
      <trkpt lat="45.96866" lon="4.7166">
        <ele>195</ele>
        <time>2018-02-18T11:54:52Z</time>
      </trkpt>
      <trkpt lat="45.96858" lon="4.71659">
        <ele>194</ele>
        <time>2018-02-18T11:54:53Z</time>
      </trkpt>
      <trkpt lat="45.9685" lon="4.71658">
        <ele>194</ele>
        <time>2018-02-18T11:54:54Z</time>
      </trkpt>
      <trkpt lat="45.96842" lon="4.71656">
        <ele>194</ele>
        <time>2018-02-18T11:54:55Z</time>
      </trkpt>
      <trkpt lat="45.96834" lon="4.71656">
        <ele>193</ele>
        <time>2018-02-18T11:54:56Z</time>
      </trkpt>
      <trkpt lat="45.96826" lon="4.71654">
        <ele>193</ele>
        <time>2018-02-18T11:54:57Z</time>
      </trkpt>
      <trkpt lat="45.96818" lon="4.71653">
        <ele>193</ele>
        <time>2018-02-18T11:54:58Z</time>
      </trkpt>
      <trkpt lat="45.9681" lon="4.71652">
        <ele>193</ele>
        <time>2018-02-18T11:54:59Z</time>
      </trkpt>
      <trkpt lat="45.96802" lon="4.7165">
        <ele>193</ele>
        <time>2018-02-18T11:55:00Z</time>
      </trkpt>
      <trkpt lat="45.96794" lon="4.7165">
        <ele>193</ele>
        <time>2018-02-18T11:55:01Z</time>
      </trkpt>
      <trkpt lat="45.96786" lon="4.71649">
        <ele>192</ele>
        <time>2018-02-18T11:55:02Z</time>
      </trkpt>
      <trkpt lat="45.96778" lon="4.71647">
        <ele>192</ele>
        <time>2018-02-18T11:55:03Z</time>
      </trkpt>
      <trkpt lat="45.9677" lon="4.71646">
        <ele>192</ele>
        <time>2018-02-18T11:55:04Z</time>
      </trkpt>
      <trkpt lat="45.96761" lon="4.71645">
        <ele>192</ele>
        <time>2018-02-18T11:55:05Z</time>
      </trkpt>
      <trkpt lat="45.96752" lon="4.71644">
        <ele>191</ele>
        <time>2018-02-18T11:55:06Z</time>
      </trkpt>
      <trkpt lat="45.96744" lon="4.71643">
        <ele>190</ele>
        <time>2018-02-18T11:55:07Z</time>
      </trkpt>
      <trkpt lat="45.96736" lon="4.71642">
        <ele>190</ele>
        <time>2018-02-18T11:55:08Z</time>
      </trkpt>
      <trkpt lat="45.96729" lon="4.7164">
        <ele>190</ele>
        <time>2018-02-18T11:55:09Z</time>
      </trkpt>
      <trkpt lat="45.96721" lon="4.71639">
        <ele>190</ele>
        <time>2018-02-18T11:55:10Z</time>
      </trkpt>
      <trkpt lat="45.96713" lon="4.71637">
        <ele>190</ele>
        <time>2018-02-18T11:55:11Z</time>
      </trkpt>
      <trkpt lat="45.96706" lon="4.71635">
        <ele>190</ele>
        <time>2018-02-18T11:55:12Z</time>
      </trkpt>
      <trkpt lat="45.96698" lon="4.71632">
        <ele>190</ele>
        <time>2018-02-18T11:55:13Z</time>
      </trkpt>
      <trkpt lat="45.96689" lon="4.71632">
        <ele>190</ele>
        <time>2018-02-18T11:55:14Z</time>
      </trkpt>
      <trkpt lat="45.96682" lon="4.71632">
        <ele>190</ele>
        <time>2018-02-18T11:55:15Z</time>
      </trkpt>
      <trkpt lat="45.96674" lon="4.7163">
        <ele>190</ele>
        <time>2018-02-18T11:55:16Z</time>
      </trkpt>
      <trkpt lat="45.96667" lon="4.71629">
        <ele>190</ele>
        <time>2018-02-18T11:55:17Z</time>
      </trkpt>
      <trkpt lat="45.96659" lon="4.71628">
        <ele>188</ele>
        <time>2018-02-18T11:55:18Z</time>
      </trkpt>
      <trkpt lat="45.9665" lon="4.71626">
        <ele>188</ele>
        <time>2018-02-18T11:55:19Z</time>
      </trkpt>
      <trkpt lat="45.96642" lon="4.71624">
        <ele>188</ele>
        <time>2018-02-18T11:55:20Z</time>
      </trkpt>
      <trkpt lat="45.96634" lon="4.71624">
        <ele>188</ele>
        <time>2018-02-18T11:55:21Z</time>
      </trkpt>
      <trkpt lat="45.96626" lon="4.71622">
        <ele>188</ele>
        <time>2018-02-18T11:55:22Z</time>
      </trkpt>
      <trkpt lat="45.96617" lon="4.71621">
        <ele>188</ele>
        <time>2018-02-18T11:55:23Z</time>
      </trkpt>
      <trkpt lat="45.96609" lon="4.71619">
        <ele>188</ele>
        <time>2018-02-18T11:55:24Z</time>
      </trkpt>
      <trkpt lat="45.96602" lon="4.71619">
        <ele>188</ele>
        <time>2018-02-18T11:55:25Z</time>
      </trkpt>
      <trkpt lat="45.96594" lon="4.71617">
        <ele>188</ele>
        <time>2018-02-18T11:55:26Z</time>
      </trkpt>
      <trkpt lat="45.96586" lon="4.71616">
        <ele>188</ele>
        <time>2018-02-18T11:55:27Z</time>
      </trkpt>
      <trkpt lat="45.96578" lon="4.71615">
        <ele>185</ele>
        <time>2018-02-18T11:55:28Z</time>
      </trkpt>
      <trkpt lat="45.9657" lon="4.71614">
        <ele>185</ele>
        <time>2018-02-18T11:55:29Z</time>
      </trkpt>
      <trkpt lat="45.96563" lon="4.71614">
        <ele>185</ele>
        <time>2018-02-18T11:55:30Z</time>
      </trkpt>
      <trkpt lat="45.96557" lon="4.71612">
        <ele>185</ele>
        <time>2018-02-18T11:55:31Z</time>
      </trkpt>
      <trkpt lat="45.9655" lon="4.7161">
        <ele>185</ele>
        <time>2018-02-18T11:55:32Z</time>
      </trkpt>
      <trkpt lat="45.96545" lon="4.71607">
        <ele>185</ele>
        <time>2018-02-18T11:55:33Z</time>
      </trkpt>
      <trkpt lat="45.9654" lon="4.71603">
        <ele>185</ele>
        <time>2018-02-18T11:55:34Z</time>
      </trkpt>
      <trkpt lat="45.96534" lon="4.71601">
        <ele>185</ele>
        <time>2018-02-18T11:55:35Z</time>
      </trkpt>
      <trkpt lat="45.96529" lon="4.71599">
        <ele>185</ele>
        <time>2018-02-18T11:55:36Z</time>
      </trkpt>
      <trkpt lat="45.96522" lon="4.71599">
        <ele>185</ele>
        <time>2018-02-18T11:55:37Z</time>
      </trkpt>
      <trkpt lat="45.96516" lon="4.71598">
        <ele>185</ele>
        <time>2018-02-18T11:55:38Z</time>
      </trkpt>
      <trkpt lat="45.96508" lon="4.71601">
        <ele>185</ele>
        <time>2018-02-18T11:55:39Z</time>
      </trkpt>
      <trkpt lat="45.96501" lon="4.71601">
        <ele>184</ele>
        <time>2018-02-18T11:55:40Z</time>
      </trkpt>
      <trkpt lat="45.96495" lon="4.716">
        <ele>184</ele>
        <time>2018-02-18T11:55:41Z</time>
      </trkpt>
      <trkpt lat="45.96488" lon="4.71599">
        <ele>184</ele>
        <time>2018-02-18T11:55:42Z</time>
      </trkpt>
      <trkpt lat="45.96482" lon="4.71597">
        <ele>184</ele>
        <time>2018-02-18T11:55:43Z</time>
      </trkpt>
      <trkpt lat="45.96475" lon="4.71597">
        <ele>183</ele>
        <time>2018-02-18T11:55:44Z</time>
      </trkpt>
      <trkpt lat="45.96468" lon="4.71596">
        <ele>183</ele>
        <time>2018-02-18T11:55:45Z</time>
      </trkpt>
      <trkpt lat="45.9646" lon="4.71595">
        <ele>183</ele>
        <time>2018-02-18T11:55:46Z</time>
      </trkpt>
      <trkpt lat="45.96453" lon="4.71594">
        <ele>183</ele>
        <time>2018-02-18T11:55:47Z</time>
      </trkpt>
      <trkpt lat="45.96446" lon="4.71593">
        <ele>183</ele>
        <time>2018-02-18T11:55:48Z</time>
      </trkpt>
      <trkpt lat="45.96438" lon="4.71592">
        <ele>184</ele>
        <time>2018-02-18T11:55:49Z</time>
      </trkpt>
      <trkpt lat="45.96431" lon="4.71591">
        <ele>184</ele>
        <time>2018-02-18T11:55:50Z</time>
      </trkpt>
      <trkpt lat="45.96423" lon="4.7159">
        <ele>184</ele>
        <time>2018-02-18T11:55:51Z</time>
      </trkpt>
      <trkpt lat="45.96416" lon="4.71589">
        <ele>184</ele>
        <time>2018-02-18T11:55:52Z</time>
      </trkpt>
      <trkpt lat="45.96408" lon="4.71589">
        <ele>184</ele>
        <time>2018-02-18T11:55:53Z</time>
      </trkpt>
      <trkpt lat="45.96401" lon="4.71588">
        <ele>183</ele>
        <time>2018-02-18T11:55:54Z</time>
      </trkpt>
      <trkpt lat="45.96394" lon="4.71588">
        <ele>183</ele>
        <time>2018-02-18T11:55:55Z</time>
      </trkpt>
      <trkpt lat="45.96387" lon="4.71587">
        <ele>183</ele>
        <time>2018-02-18T11:55:56Z</time>
      </trkpt>
      <trkpt lat="45.9638" lon="4.71586">
        <ele>183</ele>
        <time>2018-02-18T11:55:57Z</time>
      </trkpt>
      <trkpt lat="45.96373" lon="4.71585">
        <ele>182</ele>
        <time>2018-02-18T11:55:58Z</time>
      </trkpt>
      <trkpt lat="45.96367" lon="4.71583">
        <ele>182</ele>
        <time>2018-02-18T11:55:59Z</time>
      </trkpt>
      <trkpt lat="45.9636" lon="4.71583">
        <ele>185</ele>
        <time>2018-02-18T11:56:00Z</time>
      </trkpt>
      <trkpt lat="45.96354" lon="4.71582">
        <ele>185</ele>
        <time>2018-02-18T11:56:01Z</time>
      </trkpt>
      <trkpt lat="45.96348" lon="4.7158">
        <ele>185</ele>
        <time>2018-02-18T11:56:02Z</time>
      </trkpt>
      <trkpt lat="45.96341" lon="4.71579">
        <ele>184</ele>
        <time>2018-02-18T11:56:03Z</time>
      </trkpt>
      <trkpt lat="45.96334" lon="4.71579">
        <ele>184</ele>
        <time>2018-02-18T11:56:04Z</time>
      </trkpt>
      <trkpt lat="45.96327" lon="4.71578">
        <ele>184</ele>
        <time>2018-02-18T11:56:05Z</time>
      </trkpt>
      <trkpt lat="45.9632" lon="4.71576">
        <ele>184</ele>
        <time>2018-02-18T11:56:06Z</time>
      </trkpt>
      <trkpt lat="45.96313" lon="4.71575">
        <ele>184</ele>
        <time>2018-02-18T11:56:07Z</time>
      </trkpt>
      <trkpt lat="45.96306" lon="4.71574">
        <ele>184</ele>
        <time>2018-02-18T11:56:08Z</time>
      </trkpt>
      <trkpt lat="45.96299" lon="4.71572">
        <ele>184</ele>
        <time>2018-02-18T11:56:09Z</time>
      </trkpt>
      <trkpt lat="45.96292" lon="4.7157">
        <ele>184</ele>
        <time>2018-02-18T11:56:10Z</time>
      </trkpt>
      <trkpt lat="45.96285" lon="4.71569">
        <ele>184</ele>
        <time>2018-02-18T11:56:11Z</time>
      </trkpt>
      <trkpt lat="45.96277" lon="4.71569">
        <ele>184</ele>
        <time>2018-02-18T11:56:12Z</time>
      </trkpt>
      <trkpt lat="45.96269" lon="4.71567">
        <ele>184</ele>
        <time>2018-02-18T11:56:13Z</time>
      </trkpt>
      <trkpt lat="45.96263" lon="4.71567">
        <ele>183</ele>
        <time>2018-02-18T11:56:14Z</time>
      </trkpt>
      <trkpt lat="45.96256" lon="4.71567">
        <ele>183</ele>
        <time>2018-02-18T11:56:15Z</time>
      </trkpt>
      <trkpt lat="45.96248" lon="4.71566">
        <ele>183</ele>
        <time>2018-02-18T11:56:16Z</time>
      </trkpt>
      <trkpt lat="45.96242" lon="4.71565">
        <ele>183</ele>
        <time>2018-02-18T11:56:17Z</time>
      </trkpt>
      <trkpt lat="45.96234" lon="4.71564">
        <ele>183</ele>
        <time>2018-02-18T11:56:18Z</time>
      </trkpt>
      <trkpt lat="45.96227" lon="4.71562">
        <ele>183</ele>
        <time>2018-02-18T11:56:19Z</time>
      </trkpt>
      <trkpt lat="45.9622" lon="4.71561">
        <ele>183</ele>
        <time>2018-02-18T11:56:20Z</time>
      </trkpt>
      <trkpt lat="45.96213" lon="4.7156">
        <ele>183</ele>
        <time>2018-02-18T11:56:21Z</time>
      </trkpt>
      <trkpt lat="45.96206" lon="4.71559">
        <ele>183</ele>
        <time>2018-02-18T11:56:22Z</time>
      </trkpt>
      <trkpt lat="45.96199" lon="4.71558">
        <ele>183</ele>
        <time>2018-02-18T11:56:23Z</time>
      </trkpt>
      <trkpt lat="45.96193" lon="4.71556">
        <ele>183</ele>
        <time>2018-02-18T11:56:24Z</time>
      </trkpt>
      <trkpt lat="45.96187" lon="4.71555">
        <ele>183</ele>
        <time>2018-02-18T11:56:25Z</time>
      </trkpt>
      <trkpt lat="45.9618" lon="4.71554">
        <ele>183</ele>
        <time>2018-02-18T11:56:26Z</time>
      </trkpt>
      <trkpt lat="45.96175" lon="4.71553">
        <ele>183</ele>
        <time>2018-02-18T11:56:27Z</time>
      </trkpt>
      <trkpt lat="45.96169" lon="4.71551">
        <ele>183</ele>
        <time>2018-02-18T11:56:28Z</time>
      </trkpt>
      <trkpt lat="45.96163" lon="4.71549">
        <ele>184</ele>
        <time>2018-02-18T11:56:29Z</time>
      </trkpt>
      <trkpt lat="45.96157" lon="4.71547">
        <ele>184</ele>
        <time>2018-02-18T11:56:30Z</time>
      </trkpt>
      <trkpt lat="45.9615" lon="4.71545">
        <ele>184</ele>
        <time>2018-02-18T11:56:31Z</time>
      </trkpt>
      <trkpt lat="45.96144" lon="4.71545">
        <ele>184</ele>
        <time>2018-02-18T11:56:32Z</time>
      </trkpt>
      <trkpt lat="45.96138" lon="4.71544">
        <ele>185</ele>
        <time>2018-02-18T11:56:33Z</time>
      </trkpt>
      <trkpt lat="45.96132" lon="4.71543">
        <ele>185</ele>
        <time>2018-02-18T11:56:34Z</time>
      </trkpt>
      <trkpt lat="45.96126" lon="4.7154">
        <ele>185</ele>
        <time>2018-02-18T11:56:35Z</time>
      </trkpt>
      <trkpt lat="45.96119" lon="4.71539">
        <ele>185</ele>
        <time>2018-02-18T11:56:36Z</time>
      </trkpt>
      <trkpt lat="45.96112" lon="4.71538">
        <ele>185</ele>
        <time>2018-02-18T11:56:37Z</time>
      </trkpt>
      <trkpt lat="45.96106" lon="4.71536">
        <ele>185</ele>
        <time>2018-02-18T11:56:38Z</time>
      </trkpt>
      <trkpt lat="45.96099" lon="4.71535">
        <ele>185</ele>
        <time>2018-02-18T11:56:39Z</time>
      </trkpt>
      <trkpt lat="45.96093" lon="4.71534">
        <ele>185</ele>
        <time>2018-02-18T11:56:40Z</time>
      </trkpt>
      <trkpt lat="45.96086" lon="4.71533">
        <ele>185</ele>
        <time>2018-02-18T11:56:41Z</time>
      </trkpt>
      <trkpt lat="45.9608" lon="4.71532">
        <ele>186</ele>
        <time>2018-02-18T11:56:42Z</time>
      </trkpt>
      <trkpt lat="45.96074" lon="4.71531">
        <ele>186</ele>
        <time>2018-02-18T11:56:43Z</time>
      </trkpt>
      <trkpt lat="45.96068" lon="4.71529">
        <ele>186</ele>
        <time>2018-02-18T11:56:44Z</time>
      </trkpt>
      <trkpt lat="45.96062" lon="4.71526">
        <ele>186</ele>
        <time>2018-02-18T11:56:45Z</time>
      </trkpt>
      <trkpt lat="45.96056" lon="4.71524">
        <ele>186</ele>
        <time>2018-02-18T11:56:46Z</time>
      </trkpt>
      <trkpt lat="45.96049" lon="4.71522">
        <ele>186</ele>
        <time>2018-02-18T11:56:47Z</time>
      </trkpt>
      <trkpt lat="45.96042" lon="4.71522">
        <ele>186</ele>
        <time>2018-02-18T11:56:48Z</time>
      </trkpt>
      <trkpt lat="45.96036" lon="4.7152">
        <ele>186</ele>
        <time>2018-02-18T11:56:49Z</time>
      </trkpt>
      <trkpt lat="45.9603" lon="4.71519">
        <ele>186</ele>
        <time>2018-02-18T11:56:50Z</time>
      </trkpt>
      <trkpt lat="45.96025" lon="4.71518">
        <ele>186</ele>
        <time>2018-02-18T11:56:51Z</time>
      </trkpt>
      <trkpt lat="45.96019" lon="4.71516">
        <ele>186</ele>
        <time>2018-02-18T11:56:52Z</time>
      </trkpt>
      <trkpt lat="45.96013" lon="4.71515">
        <ele>186</ele>
        <time>2018-02-18T11:56:53Z</time>
      </trkpt>
      <trkpt lat="45.96007" lon="4.71514">
        <ele>187</ele>
        <time>2018-02-18T11:56:54Z</time>
      </trkpt>
      <trkpt lat="45.96002" lon="4.71512">
        <ele>187</ele>
        <time>2018-02-18T11:56:55Z</time>
      </trkpt>
      <trkpt lat="45.95998" lon="4.7151">
        <ele>186</ele>
        <time>2018-02-18T11:56:56Z</time>
      </trkpt>
      <trkpt lat="45.95993" lon="4.71506">
        <ele>187</ele>
        <time>2018-02-18T11:56:57Z</time>
      </trkpt>
      <trkpt lat="45.95987" lon="4.71503">
        <ele>186</ele>
        <time>2018-02-18T11:56:58Z</time>
      </trkpt>
      <trkpt lat="45.95981" lon="4.71502">
        <ele>186</ele>
        <time>2018-02-18T11:56:59Z</time>
      </trkpt>
      <trkpt lat="45.95975" lon="4.71505">
        <ele>185</ele>
        <time>2018-02-18T11:57:00Z</time>
      </trkpt>
      <trkpt lat="45.95969" lon="4.71509">
        <ele>185</ele>
        <time>2018-02-18T11:57:01Z</time>
      </trkpt>
      <trkpt lat="45.95963" lon="4.71512">
        <ele>184</ele>
        <time>2018-02-18T11:57:02Z</time>
      </trkpt>
      <trkpt lat="45.95956" lon="4.71514">
        <ele>184</ele>
        <time>2018-02-18T11:57:03Z</time>
      </trkpt>
      <trkpt lat="45.95949" lon="4.71515">
        <ele>184</ele>
        <time>2018-02-18T11:57:04Z</time>
      </trkpt>
      <trkpt lat="45.95942" lon="4.71516">
        <ele>184</ele>
        <time>2018-02-18T11:57:05Z</time>
      </trkpt>
      <trkpt lat="45.95934" lon="4.71517">
        <ele>184</ele>
        <time>2018-02-18T11:57:06Z</time>
      </trkpt>
      <trkpt lat="45.95926" lon="4.71517">
        <ele>184</ele>
        <time>2018-02-18T11:57:07Z</time>
      </trkpt>
      <trkpt lat="45.95919" lon="4.71517">
        <ele>184</ele>
        <time>2018-02-18T11:57:08Z</time>
      </trkpt>
      <trkpt lat="45.95911" lon="4.71518">
        <ele>183</ele>
        <time>2018-02-18T11:57:09Z</time>
      </trkpt>
      <trkpt lat="45.95904" lon="4.71517">
        <ele>183</ele>
        <time>2018-02-18T11:57:10Z</time>
      </trkpt>
      <trkpt lat="45.95896" lon="4.71516">
        <ele>183</ele>
        <time>2018-02-18T11:57:11Z</time>
      </trkpt>
      <trkpt lat="45.95888" lon="4.71516">
        <ele>182</ele>
        <time>2018-02-18T11:57:12Z</time>
      </trkpt>
      <trkpt lat="45.9588" lon="4.71515">
        <ele>182</ele>
        <time>2018-02-18T11:57:13Z</time>
      </trkpt>
      <trkpt lat="45.95873" lon="4.71515">
        <ele>182</ele>
        <time>2018-02-18T11:57:14Z</time>
      </trkpt>
      <trkpt lat="45.95865" lon="4.71515">
        <ele>182</ele>
        <time>2018-02-18T11:57:15Z</time>
      </trkpt>
      <trkpt lat="45.95858" lon="4.71515">
        <ele>182</ele>
        <time>2018-02-18T11:57:16Z</time>
      </trkpt>
      <trkpt lat="45.9585" lon="4.71515">
        <ele>182</ele>
        <time>2018-02-18T11:57:17Z</time>
      </trkpt>
      <trkpt lat="45.95842" lon="4.71514">
        <ele>183</ele>
        <time>2018-02-18T11:57:18Z</time>
      </trkpt>
      <trkpt lat="45.95835" lon="4.71514">
        <ele>183</ele>
        <time>2018-02-18T11:57:19Z</time>
      </trkpt>
      <trkpt lat="45.95828" lon="4.71513">
        <ele>182</ele>
        <time>2018-02-18T11:57:20Z</time>
      </trkpt>
      <trkpt lat="45.9582" lon="4.71513">
        <ele>182</ele>
        <time>2018-02-18T11:57:21Z</time>
      </trkpt>
      <trkpt lat="45.95812" lon="4.71514">
        <ele>182</ele>
        <time>2018-02-18T11:57:22Z</time>
      </trkpt>
      <trkpt lat="45.95804" lon="4.71513">
        <ele>181</ele>
        <time>2018-02-18T11:57:23Z</time>
      </trkpt>
      <trkpt lat="45.95796" lon="4.71512">
        <ele>181</ele>
        <time>2018-02-18T11:57:24Z</time>
      </trkpt>
      <trkpt lat="45.95788" lon="4.71511">
        <ele>181</ele>
        <time>2018-02-18T11:57:25Z</time>
      </trkpt>
      <trkpt lat="45.95781" lon="4.7151">
        <ele>181</ele>
        <time>2018-02-18T11:57:26Z</time>
      </trkpt>
      <trkpt lat="45.95773" lon="4.71509">
        <ele>181</ele>
        <time>2018-02-18T11:57:27Z</time>
      </trkpt>
      <trkpt lat="45.95764" lon="4.71509">
        <ele>181</ele>
        <time>2018-02-18T11:57:28Z</time>
      </trkpt>
      <trkpt lat="45.95756" lon="4.71508">
        <ele>181</ele>
        <time>2018-02-18T11:57:29Z</time>
      </trkpt>
      <trkpt lat="45.95747" lon="4.71507">
        <ele>181</ele>
        <time>2018-02-18T11:57:30Z</time>
      </trkpt>
      <trkpt lat="45.95739" lon="4.71507">
        <ele>181</ele>
        <time>2018-02-18T11:57:31Z</time>
      </trkpt>
      <trkpt lat="45.9573" lon="4.71507">
        <ele>181</ele>
        <time>2018-02-18T11:57:32Z</time>
      </trkpt>
      <trkpt lat="45.95722" lon="4.71506">
        <ele>180</ele>
        <time>2018-02-18T11:57:33Z</time>
      </trkpt>
      <trkpt lat="45.95714" lon="4.71506">
        <ele>180</ele>
        <time>2018-02-18T11:57:34Z</time>
      </trkpt>
      <trkpt lat="45.95705" lon="4.71505">
        <ele>180</ele>
        <time>2018-02-18T11:57:35Z</time>
      </trkpt>
      <trkpt lat="45.95697" lon="4.71504">
        <ele>180</ele>
        <time>2018-02-18T11:57:36Z</time>
      </trkpt>
      <trkpt lat="45.95689" lon="4.71503">
        <ele>181</ele>
        <time>2018-02-18T11:57:37Z</time>
      </trkpt>
      <trkpt lat="45.95681" lon="4.71503">
        <ele>181</ele>
        <time>2018-02-18T11:57:38Z</time>
      </trkpt>
      <trkpt lat="45.95673" lon="4.71503">
        <ele>181</ele>
        <time>2018-02-18T11:57:39Z</time>
      </trkpt>
      <trkpt lat="45.95663" lon="4.715">
        <ele>182</ele>
        <time>2018-02-18T11:57:40Z</time>
      </trkpt>
      <trkpt lat="45.95656" lon="4.71499">
        <ele>182</ele>
        <time>2018-02-18T11:57:41Z</time>
      </trkpt>
      <trkpt lat="45.95649" lon="4.71499">
        <ele>182</ele>
        <time>2018-02-18T11:57:42Z</time>
      </trkpt>
      <trkpt lat="45.95641" lon="4.71499">
        <ele>182</ele>
        <time>2018-02-18T11:57:43Z</time>
      </trkpt>
      <trkpt lat="45.95634" lon="4.71498">
        <ele>182</ele>
        <time>2018-02-18T11:57:44Z</time>
      </trkpt>
      <trkpt lat="45.95624" lon="4.71497">
        <ele>181</ele>
        <time>2018-02-18T11:57:45Z</time>
      </trkpt>
      <trkpt lat="45.95615" lon="4.71496">
        <ele>181</ele>
        <time>2018-02-18T11:57:46Z</time>
      </trkpt>
      <trkpt lat="45.95607" lon="4.71495">
        <ele>181</ele>
        <time>2018-02-18T11:57:47Z</time>
      </trkpt>
      <trkpt lat="45.95598" lon="4.71495">
        <ele>181</ele>
        <time>2018-02-18T11:57:48Z</time>
      </trkpt>
      <trkpt lat="45.9559" lon="4.71494">
        <ele>181</ele>
        <time>2018-02-18T11:57:49Z</time>
      </trkpt>
      <trkpt lat="45.95581" lon="4.71494">
        <ele>180</ele>
        <time>2018-02-18T11:57:50Z</time>
      </trkpt>
      <trkpt lat="45.95573" lon="4.71493">
        <ele>180</ele>
        <time>2018-02-18T11:57:51Z</time>
      </trkpt>
      <trkpt lat="45.95564" lon="4.71494">
        <ele>179</ele>
        <time>2018-02-18T11:57:52Z</time>
      </trkpt>
      <trkpt lat="45.95556" lon="4.71494">
        <ele>179</ele>
        <time>2018-02-18T11:57:53Z</time>
      </trkpt>
      <trkpt lat="45.95548" lon="4.71493">
        <ele>179</ele>
        <time>2018-02-18T11:57:54Z</time>
      </trkpt>
      <trkpt lat="45.9554" lon="4.71493">
        <ele>179</ele>
        <time>2018-02-18T11:57:55Z</time>
      </trkpt>
      <trkpt lat="45.95533" lon="4.71492">
        <ele>179</ele>
        <time>2018-02-18T11:57:56Z</time>
      </trkpt>
      <trkpt lat="45.95525" lon="4.71491">
        <ele>178</ele>
        <time>2018-02-18T11:57:57Z</time>
      </trkpt>
      <trkpt lat="45.95516" lon="4.71491">
        <ele>178</ele>
        <time>2018-02-18T11:57:58Z</time>
      </trkpt>
      <trkpt lat="45.95509" lon="4.71492">
        <ele>178</ele>
        <time>2018-02-18T11:57:59Z</time>
      </trkpt>
      <trkpt lat="45.95502" lon="4.71491">
        <ele>178</ele>
        <time>2018-02-18T11:58:00Z</time>
      </trkpt>
      <trkpt lat="45.95494" lon="4.71491">
        <ele>177</ele>
        <time>2018-02-18T11:58:01Z</time>
      </trkpt>
      <trkpt lat="45.95487" lon="4.71491">
        <ele>177</ele>
        <time>2018-02-18T11:58:02Z</time>
      </trkpt>
      <trkpt lat="45.95479" lon="4.71491">
        <ele>176</ele>
        <time>2018-02-18T11:58:03Z</time>
      </trkpt>
      <trkpt lat="45.95471" lon="4.71491">
        <ele>176</ele>
        <time>2018-02-18T11:58:04Z</time>
      </trkpt>
      <trkpt lat="45.95464" lon="4.71491">
        <ele>176</ele>
        <time>2018-02-18T11:58:05Z</time>
      </trkpt>
      <trkpt lat="45.95455" lon="4.7149">
        <ele>176</ele>
        <time>2018-02-18T11:58:06Z</time>
      </trkpt>
      <trkpt lat="45.95447" lon="4.7149">
        <ele>176</ele>
        <time>2018-02-18T11:58:07Z</time>
      </trkpt>
      <trkpt lat="45.9544" lon="4.7149">
        <ele>176</ele>
        <time>2018-02-18T11:58:08Z</time>
      </trkpt>
      <trkpt lat="45.95433" lon="4.71489">
        <ele>175</ele>
        <time>2018-02-18T11:58:09Z</time>
      </trkpt>
      <trkpt lat="45.95426" lon="4.71489">
        <ele>175</ele>
        <time>2018-02-18T11:58:10Z</time>
      </trkpt>
      <trkpt lat="45.95419" lon="4.71488">
        <ele>175</ele>
        <time>2018-02-18T11:58:11Z</time>
      </trkpt>
      <trkpt lat="45.95412" lon="4.71488">
        <ele>175</ele>
        <time>2018-02-18T11:58:12Z</time>
      </trkpt>
      <trkpt lat="45.95404" lon="4.71487">
        <ele>175</ele>
        <time>2018-02-18T11:58:13Z</time>
      </trkpt>
      <trkpt lat="45.95397" lon="4.71486">
        <ele>175</ele>
        <time>2018-02-18T11:58:14Z</time>
      </trkpt>
      <trkpt lat="45.9539" lon="4.71487">
        <ele>175</ele>
        <time>2018-02-18T11:58:15Z</time>
      </trkpt>
      <trkpt lat="45.95382" lon="4.71485">
        <ele>175</ele>
        <time>2018-02-18T11:58:16Z</time>
      </trkpt>
      <trkpt lat="45.95374" lon="4.71486">
        <ele>175</ele>
        <time>2018-02-18T11:58:17Z</time>
      </trkpt>
      <trkpt lat="45.95366" lon="4.71486">
        <ele>175</ele>
        <time>2018-02-18T11:58:18Z</time>
      </trkpt>
      <trkpt lat="45.95359" lon="4.71486">
        <ele>175</ele>
        <time>2018-02-18T11:58:19Z</time>
      </trkpt>
      <trkpt lat="45.95351" lon="4.71485">
        <ele>175</ele>
        <time>2018-02-18T11:58:20Z</time>
      </trkpt>
      <trkpt lat="45.95343" lon="4.71485">
        <ele>175</ele>
        <time>2018-02-18T11:58:21Z</time>
      </trkpt>
      <trkpt lat="45.95336" lon="4.71484">
        <ele>175</ele>
        <time>2018-02-18T11:58:22Z</time>
      </trkpt>
      <trkpt lat="45.95328" lon="4.71484">
        <ele>175</ele>
        <time>2018-02-18T11:58:23Z</time>
      </trkpt>
      <trkpt lat="45.95319" lon="4.71483">
        <ele>175</ele>
        <time>2018-02-18T11:58:24Z</time>
      </trkpt>
      <trkpt lat="45.95311" lon="4.71483">
        <ele>175</ele>
        <time>2018-02-18T11:58:25Z</time>
      </trkpt>
      <trkpt lat="45.95302" lon="4.71481">
        <ele>175</ele>
        <time>2018-02-18T11:58:26Z</time>
      </trkpt>
      <trkpt lat="45.95294" lon="4.7148">
        <ele>176</ele>
        <time>2018-02-18T11:58:27Z</time>
      </trkpt>
      <trkpt lat="45.95286" lon="4.71479">
        <ele>176</ele>
        <time>2018-02-18T11:58:28Z</time>
      </trkpt>
      <trkpt lat="45.95278" lon="4.71478">
        <ele>176</ele>
        <time>2018-02-18T11:58:29Z</time>
      </trkpt>
      <trkpt lat="45.95271" lon="4.71479">
        <ele>176</ele>
        <time>2018-02-18T11:58:30Z</time>
      </trkpt>
      <trkpt lat="45.95264" lon="4.71478">
        <ele>176</ele>
        <time>2018-02-18T11:58:31Z</time>
      </trkpt>
      <trkpt lat="45.95256" lon="4.71476">
        <ele>176</ele>
        <time>2018-02-18T11:58:32Z</time>
      </trkpt>
      <trkpt lat="45.9525" lon="4.71476">
        <ele>177</ele>
        <time>2018-02-18T11:58:33Z</time>
      </trkpt>
      <trkpt lat="45.95243" lon="4.71475">
        <ele>177</ele>
        <time>2018-02-18T11:58:34Z</time>
      </trkpt>
      <trkpt lat="45.95237" lon="4.71475">
        <ele>177</ele>
        <time>2018-02-18T11:58:35Z</time>
      </trkpt>
      <trkpt lat="45.95231" lon="4.71475">
        <ele>177</ele>
        <time>2018-02-18T11:58:36Z</time>
      </trkpt>
      <trkpt lat="45.95224" lon="4.71475">
        <ele>177</ele>
        <time>2018-02-18T11:58:37Z</time>
      </trkpt>
      <trkpt lat="45.95218" lon="4.71474">
        <ele>177</ele>
        <time>2018-02-18T11:58:38Z</time>
      </trkpt>
      <trkpt lat="45.95212" lon="4.71474">
        <ele>177</ele>
        <time>2018-02-18T11:58:39Z</time>
      </trkpt>
      <trkpt lat="45.95206" lon="4.71473">
        <ele>177</ele>
        <time>2018-02-18T11:58:40Z</time>
      </trkpt>
      <trkpt lat="45.95199" lon="4.71471">
        <ele>177</ele>
        <time>2018-02-18T11:58:41Z</time>
      </trkpt>
      <trkpt lat="45.95193" lon="4.7147">
        <ele>177</ele>
        <time>2018-02-18T11:58:42Z</time>
      </trkpt>
      <trkpt lat="45.95186" lon="4.71471">
        <ele>177</ele>
        <time>2018-02-18T11:58:43Z</time>
      </trkpt>
      <trkpt lat="45.9518" lon="4.71471">
        <ele>177</ele>
        <time>2018-02-18T11:58:44Z</time>
      </trkpt>
      <trkpt lat="45.95174" lon="4.71471">
        <ele>177</ele>
        <time>2018-02-18T11:58:45Z</time>
      </trkpt>
      <trkpt lat="45.95168" lon="4.7147">
        <ele>177</ele>
        <time>2018-02-18T11:58:46Z</time>
      </trkpt>
      <trkpt lat="45.95163" lon="4.71471">
        <ele>178</ele>
        <time>2018-02-18T11:58:47Z</time>
      </trkpt>
      <trkpt lat="45.95157" lon="4.71471">
        <ele>178</ele>
        <time>2018-02-18T11:58:48Z</time>
      </trkpt>
      <trkpt lat="45.95151" lon="4.71471">
        <ele>178</ele>
        <time>2018-02-18T11:58:49Z</time>
      </trkpt>
      <trkpt lat="45.95145" lon="4.7147">
        <ele>178</ele>
        <time>2018-02-18T11:58:50Z</time>
      </trkpt>
      <trkpt lat="45.9514" lon="4.7147">
        <ele>178</ele>
        <time>2018-02-18T11:58:51Z</time>
      </trkpt>
      <trkpt lat="45.95135" lon="4.7147">
        <ele>178</ele>
        <time>2018-02-18T11:58:52Z</time>
      </trkpt>
      <trkpt lat="45.95129" lon="4.7147">
        <ele>178</ele>
        <time>2018-02-18T11:58:53Z</time>
      </trkpt>
      <trkpt lat="45.95124" lon="4.7147">
        <ele>178</ele>
        <time>2018-02-18T11:58:54Z</time>
      </trkpt>
      <trkpt lat="45.95119" lon="4.71468">
        <ele>179</ele>
        <time>2018-02-18T11:58:55Z</time>
      </trkpt>
      <trkpt lat="45.95114" lon="4.71468">
        <ele>179</ele>
        <time>2018-02-18T11:58:56Z</time>
      </trkpt>
      <trkpt lat="45.95105" lon="4.71467">
        <ele>179</ele>
        <time>2018-02-18T11:58:58Z</time>
      </trkpt>
      <trkpt lat="45.95101" lon="4.71466">
        <ele>179</ele>
        <time>2018-02-18T11:58:59Z</time>
      </trkpt>
      <trkpt lat="45.95096" lon="4.71466">
        <ele>179</ele>
        <time>2018-02-18T11:59:00Z</time>
      </trkpt>
      <trkpt lat="45.95091" lon="4.71467">
        <ele>179</ele>
        <time>2018-02-18T11:59:01Z</time>
      </trkpt>
      <trkpt lat="45.95087" lon="4.71467">
        <ele>179</ele>
        <time>2018-02-18T11:59:02Z</time>
      </trkpt>
      <trkpt lat="45.95082" lon="4.71467">
        <ele>181</ele>
        <time>2018-02-18T11:59:03Z</time>
      </trkpt>
      <trkpt lat="45.95073" lon="4.71465">
        <ele>181</ele>
        <time>2018-02-18T11:59:05Z</time>
      </trkpt>
      <trkpt lat="45.95069" lon="4.71465">
        <ele>181</ele>
        <time>2018-02-18T11:59:06Z</time>
      </trkpt>
      <trkpt lat="45.9506" lon="4.71465">
        <ele>181</ele>
        <time>2018-02-18T11:59:08Z</time>
      </trkpt>
      <trkpt lat="45.95056" lon="4.71465">
        <ele>181</ele>
        <time>2018-02-18T11:59:09Z</time>
      </trkpt>
      <trkpt lat="45.95047" lon="4.71465">
        <ele>181</ele>
        <time>2018-02-18T11:59:11Z</time>
      </trkpt>
      <trkpt lat="45.95042" lon="4.71464">
        <ele>182</ele>
        <time>2018-02-18T11:59:12Z</time>
      </trkpt>
      <trkpt lat="45.95033" lon="4.71463">
        <ele>182</ele>
        <time>2018-02-18T11:59:14Z</time>
      </trkpt>
      <trkpt lat="45.9503" lon="4.71463">
        <ele>182</ele>
        <time>2018-02-18T11:59:15Z</time>
      </trkpt>
      <trkpt lat="45.95021" lon="4.71462">
        <ele>182</ele>
        <time>2018-02-18T11:59:17Z</time>
      </trkpt>
      <trkpt lat="45.95016" lon="4.71462">
        <ele>182</ele>
        <time>2018-02-18T11:59:18Z</time>
      </trkpt>
      <trkpt lat="45.95012" lon="4.71461">
        <ele>182</ele>
        <time>2018-02-18T11:59:19Z</time>
      </trkpt>
      <trkpt lat="45.95007" lon="4.71461">
        <ele>182</ele>
        <time>2018-02-18T11:59:20Z</time>
      </trkpt>
      <trkpt lat="45.94998" lon="4.71459">
        <ele>183</ele>
        <time>2018-02-18T11:59:22Z</time>
      </trkpt>
      <trkpt lat="45.94994" lon="4.71457">
        <ele>184</ele>
        <time>2018-02-18T11:59:23Z</time>
      </trkpt>
      <trkpt lat="45.94988" lon="4.71453">
        <ele>184</ele>
        <time>2018-02-18T11:59:24Z</time>
      </trkpt>
      <trkpt lat="45.94985" lon="4.71448">
        <ele>184</ele>
        <time>2018-02-18T11:59:25Z</time>
      </trkpt>
      <trkpt lat="45.94981" lon="4.71442">
        <ele>184</ele>
        <time>2018-02-18T11:59:26Z</time>
      </trkpt>
      <trkpt lat="45.94977" lon="4.71437">
        <ele>185</ele>
        <time>2018-02-18T11:59:27Z</time>
      </trkpt>
      <trkpt lat="45.94972" lon="4.71434">
        <ele>185</ele>
        <time>2018-02-18T11:59:28Z</time>
      </trkpt>
      <trkpt lat="45.94968" lon="4.71432">
        <ele>185</ele>
        <time>2018-02-18T11:59:29Z</time>
      </trkpt>
      <trkpt lat="45.94963" lon="4.71432">
        <ele>185</ele>
        <time>2018-02-18T11:59:30Z</time>
      </trkpt>
      <trkpt lat="45.94958" lon="4.71433">
        <ele>184</ele>
        <time>2018-02-18T11:59:31Z</time>
      </trkpt>
      <trkpt lat="45.94953" lon="4.71436">
        <ele>184</ele>
        <time>2018-02-18T11:59:32Z</time>
      </trkpt>
      <trkpt lat="45.9495" lon="4.71441">
        <ele>184</ele>
        <time>2018-02-18T11:59:33Z</time>
      </trkpt>
      <trkpt lat="45.94943" lon="4.71445">
        <ele>184</ele>
        <time>2018-02-18T11:59:34Z</time>
      </trkpt>
      <trkpt lat="45.94939" lon="4.71449">
        <ele>184</ele>
        <time>2018-02-18T11:59:35Z</time>
      </trkpt>
      <trkpt lat="45.94934" lon="4.71453">
        <ele>184</ele>
        <time>2018-02-18T11:59:36Z</time>
      </trkpt>
      <trkpt lat="45.94928" lon="4.71454">
        <ele>184</ele>
        <time>2018-02-18T11:59:37Z</time>
      </trkpt>
      <trkpt lat="45.94923" lon="4.71454">
        <ele>184</ele>
        <time>2018-02-18T11:59:38Z</time>
      </trkpt>
      <trkpt lat="45.94918" lon="4.71454">
        <ele>184</ele>
        <time>2018-02-18T11:59:39Z</time>
      </trkpt>
      <trkpt lat="45.94912" lon="4.71454">
        <ele>184</ele>
        <time>2018-02-18T11:59:40Z</time>
      </trkpt>
      <trkpt lat="45.94907" lon="4.71452">
        <ele>184</ele>
        <time>2018-02-18T11:59:41Z</time>
      </trkpt>
      <trkpt lat="45.94901" lon="4.71453">
        <ele>184</ele>
        <time>2018-02-18T11:59:42Z</time>
      </trkpt>
      <trkpt lat="45.94896" lon="4.71453">
        <ele>184</ele>
        <time>2018-02-18T11:59:43Z</time>
      </trkpt>
      <trkpt lat="45.94892" lon="4.71452">
        <ele>184</ele>
        <time>2018-02-18T11:59:44Z</time>
      </trkpt>
      <trkpt lat="45.94885" lon="4.71452">
        <ele>184</ele>
        <time>2018-02-18T11:59:45Z</time>
      </trkpt>
      <trkpt lat="45.9488" lon="4.71451">
        <ele>184</ele>
        <time>2018-02-18T11:59:46Z</time>
      </trkpt>
      <trkpt lat="45.94875" lon="4.71452">
        <ele>184</ele>
        <time>2018-02-18T11:59:47Z</time>
      </trkpt>
      <trkpt lat="45.94871" lon="4.71451">
        <ele>184</ele>
        <time>2018-02-18T11:59:48Z</time>
      </trkpt>
      <trkpt lat="45.94864" lon="4.71451">
        <ele>184</ele>
        <time>2018-02-18T11:59:49Z</time>
      </trkpt>
      <trkpt lat="45.94858" lon="4.7145">
        <ele>184</ele>
        <time>2018-02-18T11:59:50Z</time>
      </trkpt>
      <trkpt lat="45.94853" lon="4.7145">
        <ele>184</ele>
        <time>2018-02-18T11:59:51Z</time>
      </trkpt>
      <trkpt lat="45.94844" lon="4.71448">
        <ele>184</ele>
        <time>2018-02-18T11:59:53Z</time>
      </trkpt>
      <trkpt lat="45.94839" lon="4.71448">
        <ele>184</ele>
        <time>2018-02-18T11:59:54Z</time>
      </trkpt>
      <trkpt lat="45.94833" lon="4.71448">
        <ele>184</ele>
        <time>2018-02-18T11:59:55Z</time>
      </trkpt>
      <trkpt lat="45.94828" lon="4.71448">
        <ele>184</ele>
        <time>2018-02-18T11:59:56Z</time>
      </trkpt>
      <trkpt lat="45.94825" lon="4.71448">
        <ele>184</ele>
        <time>2018-02-18T11:59:57Z</time>
      </trkpt>
      <trkpt lat="45.94819" lon="4.71447">
        <ele>184</ele>
        <time>2018-02-18T11:59:58Z</time>
      </trkpt>
      <trkpt lat="45.94814" lon="4.71447">
        <ele>184</ele>
        <time>2018-02-18T11:59:59Z</time>
      </trkpt>
      <trkpt lat="45.94809" lon="4.71447">
        <ele>184</ele>
        <time>2018-02-18T12:00:00Z</time>
      </trkpt>
      <trkpt lat="45.948" lon="4.71446">
        <ele>183</ele>
        <time>2018-02-18T12:00:02Z</time>
      </trkpt>
      <trkpt lat="45.94794" lon="4.71447">
        <ele>183</ele>
        <time>2018-02-18T12:00:03Z</time>
      </trkpt>
      <trkpt lat="45.9479" lon="4.71446">
        <ele>183</ele>
        <time>2018-02-18T12:00:04Z</time>
      </trkpt>
      <trkpt lat="45.94785" lon="4.71446">
        <ele>183</ele>
        <time>2018-02-18T12:00:05Z</time>
      </trkpt>
      <trkpt lat="45.94781" lon="4.71445">
        <ele>183</ele>
        <time>2018-02-18T12:00:06Z</time>
      </trkpt>
      <trkpt lat="45.94775" lon="4.71444">
        <ele>184</ele>
        <time>2018-02-18T12:00:07Z</time>
      </trkpt>
      <trkpt lat="45.94771" lon="4.71443">
        <ele>184</ele>
        <time>2018-02-18T12:00:08Z</time>
      </trkpt>
      <trkpt lat="45.94766" lon="4.71443">
        <ele>184</ele>
        <time>2018-02-18T12:00:09Z</time>
      </trkpt>
      <trkpt lat="45.94761" lon="4.71443">
        <ele>184</ele>
        <time>2018-02-18T12:00:10Z</time>
      </trkpt>
      <trkpt lat="45.94756" lon="4.71445">
        <ele>184</ele>
        <time>2018-02-18T12:00:11Z</time>
      </trkpt>
      <trkpt lat="45.9475" lon="4.71444">
        <ele>183</ele>
        <time>2018-02-18T12:00:12Z</time>
      </trkpt>
      <trkpt lat="45.94743" lon="4.71443">
        <ele>183</ele>
        <time>2018-02-18T12:00:13Z</time>
      </trkpt>
      <trkpt lat="45.94738" lon="4.71444">
        <ele>183</ele>
        <time>2018-02-18T12:00:14Z</time>
      </trkpt>
      <trkpt lat="45.94733" lon="4.71443">
        <ele>183</ele>
        <time>2018-02-18T12:00:15Z</time>
      </trkpt>
      <trkpt lat="45.94728" lon="4.71443">
        <ele>183</ele>
        <time>2018-02-18T12:00:16Z</time>
      </trkpt>
      <trkpt lat="45.94724" lon="4.71442">
        <ele>182</ele>
        <time>2018-02-18T12:00:17Z</time>
      </trkpt>
      <trkpt lat="45.94715" lon="4.7144">
        <ele>182</ele>
        <time>2018-02-18T12:00:19Z</time>
      </trkpt>
      <trkpt lat="45.9471" lon="4.7144">
        <ele>182</ele>
        <time>2018-02-18T12:00:20Z</time>
      </trkpt>
      <trkpt lat="45.94706" lon="4.7144">
        <ele>182</ele>
        <time>2018-02-18T12:00:21Z</time>
      </trkpt>
      <trkpt lat="45.947" lon="4.7144">
        <ele>182</ele>
        <time>2018-02-18T12:00:22Z</time>
      </trkpt>
      <trkpt lat="45.94692" lon="4.7144">
        <ele>182</ele>
        <time>2018-02-18T12:00:23Z</time>
      </trkpt>
      <trkpt lat="45.94687" lon="4.7144">
        <ele>182</ele>
        <time>2018-02-18T12:00:24Z</time>
      </trkpt>
      <trkpt lat="45.94681" lon="4.71439">
        <ele>182</ele>
        <time>2018-02-18T12:00:25Z</time>
      </trkpt>
      <trkpt lat="45.94677" lon="4.71438">
        <ele>182</ele>
        <time>2018-02-18T12:00:26Z</time>
      </trkpt>
      <trkpt lat="45.94671" lon="4.71437">
        <ele>182</ele>
        <time>2018-02-18T12:00:27Z</time>
      </trkpt>
      <trkpt lat="45.94666" lon="4.71437">
        <ele>182</ele>
        <time>2018-02-18T12:00:28Z</time>
      </trkpt>
      <trkpt lat="45.9466" lon="4.71436">
        <ele>182</ele>
        <time>2018-02-18T12:00:29Z</time>
      </trkpt>
      <trkpt lat="45.94655" lon="4.71437">
        <ele>182</ele>
        <time>2018-02-18T12:00:30Z</time>
      </trkpt>
      <trkpt lat="45.9465" lon="4.71436">
        <ele>182</ele>
        <time>2018-02-18T12:00:31Z</time>
      </trkpt>
      <trkpt lat="45.94645" lon="4.71435">
        <ele>182</ele>
        <time>2018-02-18T12:00:32Z</time>
      </trkpt>
      <trkpt lat="45.94639" lon="4.71436">
        <ele>182</ele>
        <time>2018-02-18T12:00:33Z</time>
      </trkpt>
      <trkpt lat="45.94634" lon="4.71435">
        <ele>182</ele>
        <time>2018-02-18T12:00:34Z</time>
      </trkpt>
      <trkpt lat="45.94629" lon="4.71435">
        <ele>182</ele>
        <time>2018-02-18T12:00:35Z</time>
      </trkpt>
      <trkpt lat="45.94624" lon="4.71434">
        <ele>182</ele>
        <time>2018-02-18T12:00:36Z</time>
      </trkpt>
      <trkpt lat="45.94619" lon="4.71433">
        <ele>182</ele>
        <time>2018-02-18T12:00:37Z</time>
      </trkpt>
      <trkpt lat="45.94613" lon="4.71433">
        <ele>182</ele>
        <time>2018-02-18T12:00:38Z</time>
      </trkpt>
      <trkpt lat="45.94608" lon="4.71434">
        <ele>182</ele>
        <time>2018-02-18T12:00:39Z</time>
      </trkpt>
      <trkpt lat="45.94602" lon="4.71433">
        <ele>182</ele>
        <time>2018-02-18T12:00:40Z</time>
      </trkpt>
      <trkpt lat="45.94596" lon="4.71432">
        <ele>182</ele>
        <time>2018-02-18T12:00:41Z</time>
      </trkpt>
      <trkpt lat="45.94591" lon="4.71432">
        <ele>183</ele>
        <time>2018-02-18T12:00:42Z</time>
      </trkpt>
      <trkpt lat="45.94585" lon="4.71431">
        <ele>183</ele>
        <time>2018-02-18T12:00:43Z</time>
      </trkpt>
      <trkpt lat="45.94578" lon="4.71432">
        <ele>182</ele>
        <time>2018-02-18T12:00:44Z</time>
      </trkpt>
      <trkpt lat="45.94571" lon="4.71433">
        <ele>182</ele>
        <time>2018-02-18T12:00:45Z</time>
      </trkpt>
      <trkpt lat="45.94565" lon="4.71434">
        <ele>182</ele>
        <time>2018-02-18T12:00:46Z</time>
      </trkpt>
      <trkpt lat="45.94559" lon="4.71436">
        <ele>181</ele>
        <time>2018-02-18T12:00:47Z</time>
      </trkpt>
      <trkpt lat="45.94552" lon="4.71437">
        <ele>181</ele>
        <time>2018-02-18T12:00:48Z</time>
      </trkpt>
      <trkpt lat="45.94546" lon="4.71439">
        <ele>181</ele>
        <time>2018-02-18T12:00:49Z</time>
      </trkpt>
      <trkpt lat="45.9454" lon="4.71442">
        <ele>181</ele>
        <time>2018-02-18T12:00:50Z</time>
      </trkpt>
      <trkpt lat="45.94533" lon="4.71444">
        <ele>180</ele>
        <time>2018-02-18T12:00:51Z</time>
      </trkpt>
      <trkpt lat="45.94527" lon="4.71448">
        <ele>180</ele>
        <time>2018-02-18T12:00:52Z</time>
      </trkpt>
      <trkpt lat="45.94521" lon="4.7145">
        <ele>180</ele>
        <time>2018-02-18T12:00:53Z</time>
      </trkpt>
      <trkpt lat="45.94514" lon="4.71453">
        <ele>180</ele>
        <time>2018-02-18T12:00:54Z</time>
      </trkpt>
      <trkpt lat="45.94504" lon="4.71455">
        <ele>180</ele>
        <time>2018-02-18T12:00:55Z</time>
      </trkpt>
      <trkpt lat="45.94496" lon="4.71459">
        <ele>179</ele>
        <time>2018-02-18T12:00:56Z</time>
      </trkpt>
      <trkpt lat="45.94488" lon="4.71462">
        <ele>179</ele>
        <time>2018-02-18T12:00:57Z</time>
      </trkpt>
      <trkpt lat="45.94482" lon="4.71464">
        <ele>179</ele>
        <time>2018-02-18T12:00:58Z</time>
      </trkpt>
      <trkpt lat="45.94476" lon="4.71467">
        <ele>179</ele>
        <time>2018-02-18T12:00:59Z</time>
      </trkpt>
      <trkpt lat="45.94469" lon="4.71469">
        <ele>179</ele>
        <time>2018-02-18T12:01:00Z</time>
      </trkpt>
      <trkpt lat="45.94461" lon="4.71472">
        <ele>179</ele>
        <time>2018-02-18T12:01:01Z</time>
      </trkpt>
      <trkpt lat="45.94453" lon="4.71474">
        <ele>179</ele>
        <time>2018-02-18T12:01:02Z</time>
      </trkpt>
      <trkpt lat="45.94446" lon="4.71477">
        <ele>179</ele>
        <time>2018-02-18T12:01:03Z</time>
      </trkpt>
      <trkpt lat="45.94439" lon="4.7148">
        <ele>179</ele>
        <time>2018-02-18T12:01:04Z</time>
      </trkpt>
      <trkpt lat="45.94432" lon="4.71484">
        <ele>178</ele>
        <time>2018-02-18T12:01:05Z</time>
      </trkpt>
      <trkpt lat="45.94425" lon="4.71487">
        <ele>178</ele>
        <time>2018-02-18T12:01:06Z</time>
      </trkpt>
      <trkpt lat="45.94418" lon="4.71489">
        <ele>178</ele>
        <time>2018-02-18T12:01:07Z</time>
      </trkpt>
      <trkpt lat="45.9441" lon="4.71492">
        <ele>178</ele>
        <time>2018-02-18T12:01:08Z</time>
      </trkpt>
      <trkpt lat="45.94403" lon="4.71494">
        <ele>178</ele>
        <time>2018-02-18T12:01:09Z</time>
      </trkpt>
      <trkpt lat="45.94395" lon="4.71496">
        <ele>178</ele>
        <time>2018-02-18T12:01:10Z</time>
      </trkpt>
      <trkpt lat="45.94388" lon="4.71499">
        <ele>177</ele>
        <time>2018-02-18T12:01:11Z</time>
      </trkpt>
      <trkpt lat="45.9438" lon="4.71501">
        <ele>177</ele>
        <time>2018-02-18T12:01:12Z</time>
      </trkpt>
      <trkpt lat="45.94373" lon="4.71504">
        <ele>176</ele>
        <time>2018-02-18T12:01:13Z</time>
      </trkpt>
      <trkpt lat="45.94366" lon="4.71507">
        <ele>176</ele>
        <time>2018-02-18T12:01:14Z</time>
      </trkpt>
      <trkpt lat="45.94359" lon="4.7151">
        <ele>176</ele>
        <time>2018-02-18T12:01:15Z</time>
      </trkpt>
      <trkpt lat="45.94351" lon="4.71513">
        <ele>176</ele>
        <time>2018-02-18T12:01:16Z</time>
      </trkpt>
      <trkpt lat="45.94343" lon="4.71516">
        <ele>176</ele>
        <time>2018-02-18T12:01:17Z</time>
      </trkpt>
      <trkpt lat="45.94336" lon="4.71519">
        <ele>176</ele>
        <time>2018-02-18T12:01:18Z</time>
      </trkpt>
      <trkpt lat="45.9433" lon="4.71523">
        <ele>176</ele>
        <time>2018-02-18T12:01:19Z</time>
      </trkpt>
      <trkpt lat="45.94322" lon="4.71525">
        <ele>176</ele>
        <time>2018-02-18T12:01:20Z</time>
      </trkpt>
      <trkpt lat="45.94314" lon="4.71529">
        <ele>175</ele>
        <time>2018-02-18T12:01:21Z</time>
      </trkpt>
      <trkpt lat="45.94308" lon="4.71531">
        <ele>175</ele>
        <time>2018-02-18T12:01:22Z</time>
      </trkpt>
      <trkpt lat="45.943" lon="4.71534">
        <ele>175</ele>
        <time>2018-02-18T12:01:23Z</time>
      </trkpt>
      <trkpt lat="45.94293" lon="4.71537">
        <ele>175</ele>
        <time>2018-02-18T12:01:24Z</time>
      </trkpt>
      <trkpt lat="45.94285" lon="4.7154">
        <ele>175</ele>
        <time>2018-02-18T12:01:25Z</time>
      </trkpt>
      <trkpt lat="45.9428" lon="4.71539">
        <ele>175</ele>
        <time>2018-02-18T12:01:26Z</time>
      </trkpt>
      <trkpt lat="45.94272" lon="4.71542">
        <ele>175</ele>
        <time>2018-02-18T12:01:27Z</time>
      </trkpt>
      <trkpt lat="45.94265" lon="4.71545">
        <ele>175</ele>
        <time>2018-02-18T12:01:28Z</time>
      </trkpt>
      <trkpt lat="45.94259" lon="4.71548">
        <ele>175</ele>
        <time>2018-02-18T12:01:29Z</time>
      </trkpt>
      <trkpt lat="45.94252" lon="4.71551">
        <ele>175</ele>
        <time>2018-02-18T12:01:30Z</time>
      </trkpt>
      <trkpt lat="45.94246" lon="4.71553">
        <ele>174</ele>
        <time>2018-02-18T12:01:31Z</time>
      </trkpt>
      <trkpt lat="45.94239" lon="4.71556">
        <ele>174</ele>
        <time>2018-02-18T12:01:32Z</time>
      </trkpt>
      <trkpt lat="45.94232" lon="4.71559">
        <ele>174</ele>
        <time>2018-02-18T12:01:33Z</time>
      </trkpt>
      <trkpt lat="45.94225" lon="4.71562">
        <ele>174</ele>
        <time>2018-02-18T12:01:34Z</time>
      </trkpt>
      <trkpt lat="45.94219" lon="4.71566">
        <ele>174</ele>
        <time>2018-02-18T12:01:35Z</time>
      </trkpt>
      <trkpt lat="45.94212" lon="4.71569">
        <ele>174</ele>
        <time>2018-02-18T12:01:36Z</time>
      </trkpt>
      <trkpt lat="45.94206" lon="4.71571">
        <ele>174</ele>
        <time>2018-02-18T12:01:37Z</time>
      </trkpt>
      <trkpt lat="45.94201" lon="4.71573">
        <ele>174</ele>
        <time>2018-02-18T12:01:38Z</time>
      </trkpt>
      <trkpt lat="45.94195" lon="4.71575">
        <ele>174</ele>
        <time>2018-02-18T12:01:39Z</time>
      </trkpt>
      <trkpt lat="45.94189" lon="4.71578">
        <ele>174</ele>
        <time>2018-02-18T12:01:40Z</time>
      </trkpt>
      <trkpt lat="45.94183" lon="4.7158">
        <ele>174</ele>
        <time>2018-02-18T12:01:41Z</time>
      </trkpt>
      <trkpt lat="45.94176" lon="4.71582">
        <ele>174</ele>
        <time>2018-02-18T12:01:42Z</time>
      </trkpt>
      <trkpt lat="45.94171" lon="4.71585">
        <ele>174</ele>
        <time>2018-02-18T12:01:43Z</time>
      </trkpt>
      <trkpt lat="45.94164" lon="4.71587">
        <ele>174</ele>
        <time>2018-02-18T12:01:44Z</time>
      </trkpt>
      <trkpt lat="45.94157" lon="4.71589">
        <ele>174</ele>
        <time>2018-02-18T12:01:45Z</time>
      </trkpt>
      <trkpt lat="45.94152" lon="4.71592">
        <ele>173</ele>
        <time>2018-02-18T12:01:46Z</time>
      </trkpt>
      <trkpt lat="45.94146" lon="4.71594">
        <ele>173</ele>
        <time>2018-02-18T12:01:47Z</time>
      </trkpt>
      <trkpt lat="45.9414" lon="4.71597">
        <ele>173</ele>
        <time>2018-02-18T12:01:48Z</time>
      </trkpt>
      <trkpt lat="45.94135" lon="4.716">
        <ele>173</ele>
        <time>2018-02-18T12:01:49Z</time>
      </trkpt>
      <trkpt lat="45.94129" lon="4.71603">
        <ele>173</ele>
        <time>2018-02-18T12:01:50Z</time>
      </trkpt>
      <trkpt lat="45.94124" lon="4.71605">
        <ele>173</ele>
        <time>2018-02-18T12:01:51Z</time>
      </trkpt>
      <trkpt lat="45.94118" lon="4.71607">
        <ele>173</ele>
        <time>2018-02-18T12:01:52Z</time>
      </trkpt>
      <trkpt lat="45.94113" lon="4.71609">
        <ele>173</ele>
        <time>2018-02-18T12:01:53Z</time>
      </trkpt>
      <trkpt lat="45.94108" lon="4.71611">
        <ele>173</ele>
        <time>2018-02-18T12:01:54Z</time>
      </trkpt>
      <trkpt lat="45.94103" lon="4.71614">
        <ele>173</ele>
        <time>2018-02-18T12:01:55Z</time>
      </trkpt>
      <trkpt lat="45.94097" lon="4.71616">
        <ele>173</ele>
        <time>2018-02-18T12:01:56Z</time>
      </trkpt>
      <trkpt lat="45.94091" lon="4.71619">
        <ele>173</ele>
        <time>2018-02-18T12:01:57Z</time>
      </trkpt>
      <trkpt lat="45.94086" lon="4.7162">
        <ele>173</ele>
        <time>2018-02-18T12:01:58Z</time>
      </trkpt>
      <trkpt lat="45.9408" lon="4.71623">
        <ele>174</ele>
        <time>2018-02-18T12:01:59Z</time>
      </trkpt>
      <trkpt lat="45.94074" lon="4.71625">
        <ele>174</ele>
        <time>2018-02-18T12:02:00Z</time>
      </trkpt>
      <trkpt lat="45.94068" lon="4.71627">
        <ele>174</ele>
        <time>2018-02-18T12:02:01Z</time>
      </trkpt>
      <trkpt lat="45.94062" lon="4.7163">
        <ele>174</ele>
        <time>2018-02-18T12:02:02Z</time>
      </trkpt>
      <trkpt lat="45.94057" lon="4.71632">
        <ele>174</ele>
        <time>2018-02-18T12:02:03Z</time>
      </trkpt>
      <trkpt lat="45.94051" lon="4.71634">
        <ele>175</ele>
        <time>2018-02-18T12:02:04Z</time>
      </trkpt>
      <trkpt lat="45.94045" lon="4.71636">
        <ele>175</ele>
        <time>2018-02-18T12:02:05Z</time>
      </trkpt>
      <trkpt lat="45.9404" lon="4.71638">
        <ele>175</ele>
        <time>2018-02-18T12:02:06Z</time>
      </trkpt>
      <trkpt lat="45.94034" lon="4.7164">
        <ele>175</ele>
        <time>2018-02-18T12:02:07Z</time>
      </trkpt>
      <trkpt lat="45.94028" lon="4.71643">
        <ele>175</ele>
        <time>2018-02-18T12:02:08Z</time>
      </trkpt>
      <trkpt lat="45.94023" lon="4.71646">
        <ele>175</ele>
        <time>2018-02-18T12:02:09Z</time>
      </trkpt>
      <trkpt lat="45.94017" lon="4.71648">
        <ele>176</ele>
        <time>2018-02-18T12:02:10Z</time>
      </trkpt>
      <trkpt lat="45.94012" lon="4.71654">
        <ele>176</ele>
        <time>2018-02-18T12:02:11Z</time>
      </trkpt>
      <trkpt lat="45.94007" lon="4.71656">
        <ele>176</ele>
        <time>2018-02-18T12:02:12Z</time>
      </trkpt>
      <trkpt lat="45.94002" lon="4.71658">
        <ele>176</ele>
        <time>2018-02-18T12:02:13Z</time>
      </trkpt>
      <trkpt lat="45.93997" lon="4.71659">
        <ele>177</ele>
        <time>2018-02-18T12:02:14Z</time>
      </trkpt>
      <trkpt lat="45.93991" lon="4.71661">
        <ele>177</ele>
        <time>2018-02-18T12:02:15Z</time>
      </trkpt>
      <trkpt lat="45.93985" lon="4.71662">
        <ele>177</ele>
        <time>2018-02-18T12:02:16Z</time>
      </trkpt>
      <trkpt lat="45.9398" lon="4.71664">
        <ele>177</ele>
        <time>2018-02-18T12:02:17Z</time>
      </trkpt>
      <trkpt lat="45.93974" lon="4.71666">
        <ele>177</ele>
        <time>2018-02-18T12:02:18Z</time>
      </trkpt>
      <trkpt lat="45.9397" lon="4.71668">
        <ele>175</ele>
        <time>2018-02-18T12:02:19Z</time>
      </trkpt>
      <trkpt lat="45.93965" lon="4.71671">
        <ele>175</ele>
        <time>2018-02-18T12:02:20Z</time>
      </trkpt>
      <trkpt lat="45.93957" lon="4.71674">
        <ele>175</ele>
        <time>2018-02-18T12:02:21Z</time>
      </trkpt>
      <trkpt lat="45.93953" lon="4.71674">
        <ele>175</ele>
        <time>2018-02-18T12:02:22Z</time>
      </trkpt>
      <trkpt lat="45.93945" lon="4.71676">
        <ele>175</ele>
        <time>2018-02-18T12:02:23Z</time>
      </trkpt>
      <trkpt lat="45.93939" lon="4.71679">
        <ele>175</ele>
        <time>2018-02-18T12:02:24Z</time>
      </trkpt>
      <trkpt lat="45.93932" lon="4.71682">
        <ele>175</ele>
        <time>2018-02-18T12:02:25Z</time>
      </trkpt>
      <trkpt lat="45.93927" lon="4.71683">
        <ele>175</ele>
        <time>2018-02-18T12:02:26Z</time>
      </trkpt>
      <trkpt lat="45.93921" lon="4.71686">
        <ele>175</ele>
        <time>2018-02-18T12:02:27Z</time>
      </trkpt>
      <trkpt lat="45.93916" lon="4.71688">
        <ele>174</ele>
        <time>2018-02-18T12:02:28Z</time>
      </trkpt>
      <trkpt lat="45.93908" lon="4.7169">
        <ele>174</ele>
        <time>2018-02-18T12:02:29Z</time>
      </trkpt>
      <trkpt lat="45.93901" lon="4.71691">
        <ele>174</ele>
        <time>2018-02-18T12:02:30Z</time>
      </trkpt>
      <trkpt lat="45.93894" lon="4.71693">
        <ele>174</ele>
        <time>2018-02-18T12:02:31Z</time>
      </trkpt>
      <trkpt lat="45.93888" lon="4.71696">
        <ele>174</ele>
        <time>2018-02-18T12:02:32Z</time>
      </trkpt>
      <trkpt lat="45.93882" lon="4.71699">
        <ele>174</ele>
        <time>2018-02-18T12:02:33Z</time>
      </trkpt>
      <trkpt lat="45.93875" lon="4.71701">
        <ele>174</ele>
        <time>2018-02-18T12:02:34Z</time>
      </trkpt>
      <trkpt lat="45.93869" lon="4.71702">
        <ele>174</ele>
        <time>2018-02-18T12:02:35Z</time>
      </trkpt>
      <trkpt lat="45.93863" lon="4.71705">
        <ele>174</ele>
        <time>2018-02-18T12:02:36Z</time>
      </trkpt>
      <trkpt lat="45.93857" lon="4.71707">
        <ele>174</ele>
        <time>2018-02-18T12:02:37Z</time>
      </trkpt>
      <trkpt lat="45.93851" lon="4.7171">
        <ele>174</ele>
        <time>2018-02-18T12:02:38Z</time>
      </trkpt>
      <trkpt lat="45.93845" lon="4.71712">
        <ele>174</ele>
        <time>2018-02-18T12:02:39Z</time>
      </trkpt>
      <trkpt lat="45.93839" lon="4.71713">
        <ele>175</ele>
        <time>2018-02-18T12:02:40Z</time>
      </trkpt>
      <trkpt lat="45.93833" lon="4.71715">
        <ele>175</ele>
        <time>2018-02-18T12:02:41Z</time>
      </trkpt>
      <trkpt lat="45.93827" lon="4.71718">
        <ele>175</ele>
        <time>2018-02-18T12:02:42Z</time>
      </trkpt>
      <trkpt lat="45.9382" lon="4.7172">
        <ele>175</ele>
        <time>2018-02-18T12:02:43Z</time>
      </trkpt>
      <trkpt lat="45.93813" lon="4.71723">
        <ele>175</ele>
        <time>2018-02-18T12:02:44Z</time>
      </trkpt>
      <trkpt lat="45.93806" lon="4.71726">
        <ele>175</ele>
        <time>2018-02-18T12:02:45Z</time>
      </trkpt>
      <trkpt lat="45.938" lon="4.71728">
        <ele>175</ele>
        <time>2018-02-18T12:02:46Z</time>
      </trkpt>
      <trkpt lat="45.93794" lon="4.71729">
        <ele>175</ele>
        <time>2018-02-18T12:02:47Z</time>
      </trkpt>
      <trkpt lat="45.93788" lon="4.71732">
        <ele>175</ele>
        <time>2018-02-18T12:02:48Z</time>
      </trkpt>
      <trkpt lat="45.93782" lon="4.71733">
        <ele>175</ele>
        <time>2018-02-18T12:02:49Z</time>
      </trkpt>
      <trkpt lat="45.93776" lon="4.71736">
        <ele>175</ele>
        <time>2018-02-18T12:02:50Z</time>
      </trkpt>
      <trkpt lat="45.93771" lon="4.71738">
        <ele>175</ele>
        <time>2018-02-18T12:02:51Z</time>
      </trkpt>
      <trkpt lat="45.93765" lon="4.71741">
        <ele>175</ele>
        <time>2018-02-18T12:02:52Z</time>
      </trkpt>
      <trkpt lat="45.9376" lon="4.71743">
        <ele>175</ele>
        <time>2018-02-18T12:02:53Z</time>
      </trkpt>
      <trkpt lat="45.93756" lon="4.71746">
        <ele>175</ele>
        <time>2018-02-18T12:02:54Z</time>
      </trkpt>
      <trkpt lat="45.93752" lon="4.71749">
        <ele>175</ele>
        <time>2018-02-18T12:02:55Z</time>
      </trkpt>
      <trkpt lat="45.93744" lon="4.71751">
        <ele>175</ele>
        <time>2018-02-18T12:02:56Z</time>
      </trkpt>
      <trkpt lat="45.9374" lon="4.71752">
        <ele>175</ele>
        <time>2018-02-18T12:02:57Z</time>
      </trkpt>
      <trkpt lat="45.93734" lon="4.71753">
        <ele>176</ele>
        <time>2018-02-18T12:02:58Z</time>
      </trkpt>
      <trkpt lat="45.9373" lon="4.71756">
        <ele>176</ele>
        <time>2018-02-18T12:02:59Z</time>
      </trkpt>
      <trkpt lat="45.93722" lon="4.71761">
        <ele>176</ele>
        <time>2018-02-18T12:03:02Z</time>
      </trkpt>
      <trkpt lat="45.93721" lon="4.71763">
        <ele>176</ele>
        <time>2018-02-18T12:03:03Z</time>
      </trkpt>
      <trkpt lat="45.93718" lon="4.7177">
        <ele>176</ele>
        <time>2018-02-18T12:03:20Z</time>
      </trkpt>
      <trkpt lat="45.93716" lon="4.71775">
        <ele>176</ele>
        <time>2018-02-18T12:03:21Z</time>
      </trkpt>
      <trkpt lat="45.93712" lon="4.71782">
        <ele>176</ele>
        <time>2018-02-18T12:03:23Z</time>
      </trkpt>
      <trkpt lat="45.93711" lon="4.71787">
        <ele>176</ele>
        <time>2018-02-18T12:03:24Z</time>
      </trkpt>
      <trkpt lat="45.93708" lon="4.71799">
        <ele>176</ele>
        <time>2018-02-18T12:03:26Z</time>
      </trkpt>
      <trkpt lat="45.93706" lon="4.71804">
        <ele>176</ele>
        <time>2018-02-18T12:03:27Z</time>
      </trkpt>
      <trkpt lat="45.93702" lon="4.71814">
        <ele>176</ele>
        <time>2018-02-18T12:03:29Z</time>
      </trkpt>
      <trkpt lat="45.937" lon="4.71818">
        <ele>176</ele>
        <time>2018-02-18T12:03:30Z</time>
      </trkpt>
      <trkpt lat="45.93697" lon="4.71828">
        <ele>176</ele>
        <time>2018-02-18T12:03:31Z</time>
      </trkpt>
      <trkpt lat="45.93694" lon="4.71835">
        <ele>175</ele>
        <time>2018-02-18T12:03:32Z</time>
      </trkpt>
      <trkpt lat="45.93692" lon="4.71842">
        <ele>175</ele>
        <time>2018-02-18T12:03:33Z</time>
      </trkpt>
      <trkpt lat="45.9369" lon="4.7185">
        <ele>175</ele>
        <time>2018-02-18T12:03:34Z</time>
      </trkpt>
      <trkpt lat="45.93687" lon="4.71858">
        <ele>175</ele>
        <time>2018-02-18T12:03:35Z</time>
      </trkpt>
      <trkpt lat="45.93686" lon="4.71867">
        <ele>175</ele>
        <time>2018-02-18T12:03:36Z</time>
      </trkpt>
      <trkpt lat="45.93683" lon="4.71879">
        <ele>175</ele>
        <time>2018-02-18T12:03:38Z</time>
      </trkpt>
      <trkpt lat="45.93682" lon="4.71883">
        <ele>175</ele>
        <time>2018-02-18T12:03:39Z</time>
      </trkpt>
      <trkpt lat="45.93679" lon="4.71891">
        <ele>175</ele>
        <time>2018-02-18T12:03:40Z</time>
      </trkpt>
      <trkpt lat="45.93677" lon="4.71898">
        <ele>175</ele>
        <time>2018-02-18T12:03:41Z</time>
      </trkpt>
      <trkpt lat="45.93674" lon="4.71907">
        <ele>175</ele>
        <time>2018-02-18T12:03:42Z</time>
      </trkpt>
      <trkpt lat="45.93671" lon="4.71915">
        <ele>175</ele>
        <time>2018-02-18T12:03:43Z</time>
      </trkpt>
      <trkpt lat="45.93668" lon="4.71923">
        <ele>175</ele>
        <time>2018-02-18T12:03:44Z</time>
      </trkpt>
      <trkpt lat="45.93664" lon="4.71929">
        <ele>175</ele>
        <time>2018-02-18T12:03:45Z</time>
      </trkpt>
      <trkpt lat="45.93661" lon="4.71936">
        <ele>175</ele>
        <time>2018-02-18T12:03:46Z</time>
      </trkpt>
      <trkpt lat="45.93658" lon="4.71943">
        <ele>175</ele>
        <time>2018-02-18T12:03:47Z</time>
      </trkpt>
      <trkpt lat="45.93655" lon="4.7195">
        <ele>175</ele>
        <time>2018-02-18T12:03:48Z</time>
      </trkpt>
      <trkpt lat="45.93653" lon="4.71956">
        <ele>175</ele>
        <time>2018-02-18T12:03:49Z</time>
      </trkpt>
      <trkpt lat="45.9365" lon="4.71963">
        <ele>175</ele>
        <time>2018-02-18T12:03:50Z</time>
      </trkpt>
      <trkpt lat="45.93648" lon="4.71971">
        <ele>175</ele>
        <time>2018-02-18T12:03:51Z</time>
      </trkpt>
      <trkpt lat="45.93645" lon="4.71979">
        <ele>175</ele>
        <time>2018-02-18T12:03:52Z</time>
      </trkpt>
      <trkpt lat="45.93643" lon="4.71986">
        <ele>175</ele>
        <time>2018-02-18T12:03:53Z</time>
      </trkpt>
      <trkpt lat="45.93639" lon="4.71994">
        <ele>175</ele>
        <time>2018-02-18T12:03:54Z</time>
      </trkpt>
      <trkpt lat="45.93636" lon="4.72002">
        <ele>174</ele>
        <time>2018-02-18T12:03:55Z</time>
      </trkpt>
      <trkpt lat="45.93634" lon="4.72009">
        <ele>174</ele>
        <time>2018-02-18T12:03:56Z</time>
      </trkpt>
      <trkpt lat="45.93632" lon="4.72017">
        <ele>174</ele>
        <time>2018-02-18T12:03:57Z</time>
      </trkpt>
      <trkpt lat="45.9363" lon="4.72025">
        <ele>174</ele>
        <time>2018-02-18T12:03:58Z</time>
      </trkpt>
      <trkpt lat="45.93626" lon="4.72032">
        <ele>175</ele>
        <time>2018-02-18T12:03:59Z</time>
      </trkpt>
      <trkpt lat="45.93625" lon="4.72039">
        <ele>175</ele>
        <time>2018-02-18T12:04:00Z</time>
      </trkpt>
      <trkpt lat="45.93623" lon="4.72046">
        <ele>175</ele>
        <time>2018-02-18T12:04:01Z</time>
      </trkpt>
      <trkpt lat="45.93618" lon="4.72056">
        <ele>175</ele>
        <time>2018-02-18T12:04:03Z</time>
      </trkpt>
      <trkpt lat="45.93615" lon="4.72064">
        <ele>175</ele>
        <time>2018-02-18T12:04:04Z</time>
      </trkpt>
      <trkpt lat="45.93612" lon="4.72072">
        <ele>175</ele>
        <time>2018-02-18T12:04:05Z</time>
      </trkpt>
      <trkpt lat="45.9361" lon="4.72079">
        <ele>175</ele>
        <time>2018-02-18T12:04:06Z</time>
      </trkpt>
      <trkpt lat="45.93608" lon="4.72087">
        <ele>174</ele>
        <time>2018-02-18T12:04:07Z</time>
      </trkpt>
      <trkpt lat="45.93606" lon="4.72094">
        <ele>174</ele>
        <time>2018-02-18T12:04:08Z</time>
      </trkpt>
      <trkpt lat="45.93602" lon="4.72099">
        <ele>174</ele>
        <time>2018-02-18T12:04:09Z</time>
      </trkpt>
      <trkpt lat="45.936" lon="4.72106">
        <ele>174</ele>
        <time>2018-02-18T12:04:10Z</time>
      </trkpt>
      <trkpt lat="45.93598" lon="4.72113">
        <ele>174</ele>
        <time>2018-02-18T12:04:11Z</time>
      </trkpt>
      <trkpt lat="45.93596" lon="4.72119">
        <ele>174</ele>
        <time>2018-02-18T12:04:12Z</time>
      </trkpt>
      <trkpt lat="45.93591" lon="4.72126">
        <ele>174</ele>
        <time>2018-02-18T12:04:13Z</time>
      </trkpt>
      <trkpt lat="45.93588" lon="4.7213">
        <ele>174</ele>
        <time>2018-02-18T12:04:14Z</time>
      </trkpt>
      <trkpt lat="45.93586" lon="4.72138">
        <ele>173</ele>
        <time>2018-02-18T12:04:15Z</time>
      </trkpt>
      <trkpt lat="45.93583" lon="4.72144">
        <ele>174</ele>
        <time>2018-02-18T12:04:16Z</time>
      </trkpt>
      <trkpt lat="45.93577" lon="4.72151">
        <ele>174</ele>
        <time>2018-02-18T12:04:17Z</time>
      </trkpt>
      <trkpt lat="45.93575" lon="4.72157">
        <ele>174</ele>
        <time>2018-02-18T12:04:18Z</time>
      </trkpt>
      <trkpt lat="45.93572" lon="4.72164">
        <ele>174</ele>
        <time>2018-02-18T12:04:19Z</time>
      </trkpt>
      <trkpt lat="45.93569" lon="4.72171">
        <ele>173</ele>
        <time>2018-02-18T12:04:20Z</time>
      </trkpt>
      <trkpt lat="45.93567" lon="4.72177">
        <ele>173</ele>
        <time>2018-02-18T12:04:21Z</time>
      </trkpt>
      <trkpt lat="45.93564" lon="4.72183">
        <ele>173</ele>
        <time>2018-02-18T12:04:22Z</time>
      </trkpt>
      <trkpt lat="45.93561" lon="4.7219">
        <ele>173</ele>
        <time>2018-02-18T12:04:23Z</time>
      </trkpt>
      <trkpt lat="45.93557" lon="4.72196">
        <ele>173</ele>
        <time>2018-02-18T12:04:24Z</time>
      </trkpt>
      <trkpt lat="45.93553" lon="4.72203">
        <ele>173</ele>
        <time>2018-02-18T12:04:25Z</time>
      </trkpt>
      <trkpt lat="45.93551" lon="4.72209">
        <ele>173</ele>
        <time>2018-02-18T12:04:26Z</time>
      </trkpt>
      <trkpt lat="45.93549" lon="4.72214">
        <ele>173</ele>
        <time>2018-02-18T12:04:27Z</time>
      </trkpt>
      <trkpt lat="45.93546" lon="4.72221">
        <ele>172</ele>
        <time>2018-02-18T12:04:28Z</time>
      </trkpt>
      <trkpt lat="45.93544" lon="4.72226">
        <ele>172</ele>
        <time>2018-02-18T12:04:29Z</time>
      </trkpt>
      <trkpt lat="45.93541" lon="4.72233">
        <ele>172</ele>
        <time>2018-02-18T12:04:30Z</time>
      </trkpt>
      <trkpt lat="45.93538" lon="4.72245">
        <ele>172</ele>
        <time>2018-02-18T12:04:32Z</time>
      </trkpt>
      <trkpt lat="45.93536" lon="4.72252">
        <ele>172</ele>
        <time>2018-02-18T12:04:33Z</time>
      </trkpt>
      <trkpt lat="45.93534" lon="4.72259">
        <ele>172</ele>
        <time>2018-02-18T12:04:34Z</time>
      </trkpt>
      <trkpt lat="45.93532" lon="4.72265">
        <ele>172</ele>
        <time>2018-02-18T12:04:35Z</time>
      </trkpt>
      <trkpt lat="45.9353" lon="4.72271">
        <ele>172</ele>
        <time>2018-02-18T12:04:36Z</time>
      </trkpt>
      <trkpt lat="45.93527" lon="4.72278">
        <ele>172</ele>
        <time>2018-02-18T12:04:37Z</time>
      </trkpt>
      <trkpt lat="45.93524" lon="4.72285">
        <ele>172</ele>
        <time>2018-02-18T12:04:38Z</time>
      </trkpt>
      <trkpt lat="45.93521" lon="4.72292">
        <ele>172</ele>
        <time>2018-02-18T12:04:39Z</time>
      </trkpt>
      <trkpt lat="45.93516" lon="4.72299">
        <ele>172</ele>
        <time>2018-02-18T12:04:40Z</time>
      </trkpt>
      <trkpt lat="45.93511" lon="4.72305">
        <ele>173</ele>
        <time>2018-02-18T12:04:41Z</time>
      </trkpt>
      <trkpt lat="45.93508" lon="4.72311">
        <ele>173</ele>
        <time>2018-02-18T12:04:42Z</time>
      </trkpt>
      <trkpt lat="45.93502" lon="4.72317">
        <ele>173</ele>
        <time>2018-02-18T12:04:43Z</time>
      </trkpt>
      <trkpt lat="45.93498" lon="4.72324">
        <ele>173</ele>
        <time>2018-02-18T12:04:44Z</time>
      </trkpt>
      <trkpt lat="45.93494" lon="4.7233">
        <ele>173</ele>
        <time>2018-02-18T12:04:45Z</time>
      </trkpt>
      <trkpt lat="45.93491" lon="4.72335">
        <ele>173</ele>
        <time>2018-02-18T12:04:46Z</time>
      </trkpt>
      <trkpt lat="45.93487" lon="4.72341">
        <ele>173</ele>
        <time>2018-02-18T12:04:47Z</time>
      </trkpt>
      <trkpt lat="45.93484" lon="4.72346">
        <ele>173</ele>
        <time>2018-02-18T12:04:48Z</time>
      </trkpt>
      <trkpt lat="45.93477" lon="4.72352">
        <ele>173</ele>
        <time>2018-02-18T12:04:49Z</time>
      </trkpt>
      <trkpt lat="45.93472" lon="4.72358">
        <ele>173</ele>
        <time>2018-02-18T12:04:50Z</time>
      </trkpt>
      <trkpt lat="45.93468" lon="4.72363">
        <ele>173</ele>
        <time>2018-02-18T12:04:51Z</time>
      </trkpt>
      <trkpt lat="45.93462" lon="4.72369">
        <ele>173</ele>
        <time>2018-02-18T12:04:52Z</time>
      </trkpt>
      <trkpt lat="45.93457" lon="4.72374">
        <ele>173</ele>
        <time>2018-02-18T12:04:53Z</time>
      </trkpt>
      <trkpt lat="45.93452" lon="4.72379">
        <ele>173</ele>
        <time>2018-02-18T12:04:54Z</time>
      </trkpt>
      <trkpt lat="45.93446" lon="4.72385">
        <ele>173</ele>
        <time>2018-02-18T12:04:55Z</time>
      </trkpt>
      <trkpt lat="45.93441" lon="4.72388">
        <ele>173</ele>
        <time>2018-02-18T12:04:56Z</time>
      </trkpt>
      <trkpt lat="45.93435" lon="4.72393">
        <ele>173</ele>
        <time>2018-02-18T12:04:57Z</time>
      </trkpt>
      <trkpt lat="45.93429" lon="4.72395">
        <ele>174</ele>
        <time>2018-02-18T12:04:58Z</time>
      </trkpt>
      <trkpt lat="45.93423" lon="4.72398">
        <ele>174</ele>
        <time>2018-02-18T12:04:59Z</time>
      </trkpt>
      <trkpt lat="45.93418" lon="4.724">
        <ele>174</ele>
        <time>2018-02-18T12:05:00Z</time>
      </trkpt>
      <trkpt lat="45.93413" lon="4.72402">
        <ele>174</ele>
        <time>2018-02-18T12:05:01Z</time>
      </trkpt>
      <trkpt lat="45.93407" lon="4.72404">
        <ele>174</ele>
        <time>2018-02-18T12:05:02Z</time>
      </trkpt>
      <trkpt lat="45.93402" lon="4.72404">
        <ele>174</ele>
        <time>2018-02-18T12:05:03Z</time>
      </trkpt>
      <trkpt lat="45.93397" lon="4.72403">
        <ele>174</ele>
        <time>2018-02-18T12:05:04Z</time>
      </trkpt>
      <trkpt lat="45.93392" lon="4.72405">
        <ele>174</ele>
        <time>2018-02-18T12:05:05Z</time>
      </trkpt>
      <trkpt lat="45.93388" lon="4.72409">
        <ele>174</ele>
        <time>2018-02-18T12:05:06Z</time>
      </trkpt>
      <trkpt lat="45.93385" lon="4.72416">
        <ele>174</ele>
        <time>2018-02-18T12:05:07Z</time>
      </trkpt>
      <trkpt lat="45.93384" lon="4.72424">
        <ele>173</ele>
        <time>2018-02-18T12:05:08Z</time>
      </trkpt>
      <trkpt lat="45.93386" lon="4.7243">
        <ele>173</ele>
        <time>2018-02-18T12:05:09Z</time>
      </trkpt>
      <trkpt lat="45.93389" lon="4.72437">
        <ele>173</ele>
        <time>2018-02-18T12:05:10Z</time>
      </trkpt>
      <trkpt lat="45.93391" lon="4.72444">
        <ele>173</ele>
        <time>2018-02-18T12:05:11Z</time>
      </trkpt>
      <trkpt lat="45.93391" lon="4.72451">
        <ele>173</ele>
        <time>2018-02-18T12:05:12Z</time>
      </trkpt>
      <trkpt lat="45.93389" lon="4.72459">
        <ele>173</ele>
        <time>2018-02-18T12:05:13Z</time>
      </trkpt>
      <trkpt lat="45.93386" lon="4.72466">
        <ele>173</ele>
        <time>2018-02-18T12:05:14Z</time>
      </trkpt>
      <trkpt lat="45.93382" lon="4.72472">
        <ele>173</ele>
        <time>2018-02-18T12:05:15Z</time>
      </trkpt>
      <trkpt lat="45.93378" lon="4.72477">
        <ele>173</ele>
        <time>2018-02-18T12:05:16Z</time>
      </trkpt>
      <trkpt lat="45.93372" lon="4.72481">
        <ele>173</ele>
        <time>2018-02-18T12:05:17Z</time>
      </trkpt>
      <trkpt lat="45.93368" lon="4.72487">
        <ele>173</ele>
        <time>2018-02-18T12:05:18Z</time>
      </trkpt>
      <trkpt lat="45.93363" lon="4.72493">
        <ele>173</ele>
        <time>2018-02-18T12:05:19Z</time>
      </trkpt>
      <trkpt lat="45.93357" lon="4.72498">
        <ele>173</ele>
        <time>2018-02-18T12:05:20Z</time>
      </trkpt>
      <trkpt lat="45.93351" lon="4.72503">
        <ele>172</ele>
        <time>2018-02-18T12:05:21Z</time>
      </trkpt>
      <trkpt lat="45.93347" lon="4.72509">
        <ele>172</ele>
        <time>2018-02-18T12:05:22Z</time>
      </trkpt>
      <trkpt lat="45.93343" lon="4.72516">
        <ele>172</ele>
        <time>2018-02-18T12:05:23Z</time>
      </trkpt>
      <trkpt lat="45.93337" lon="4.72521">
        <ele>172</ele>
        <time>2018-02-18T12:05:24Z</time>
      </trkpt>
      <trkpt lat="45.93333" lon="4.72527">
        <ele>172</ele>
        <time>2018-02-18T12:05:25Z</time>
      </trkpt>
      <trkpt lat="45.93328" lon="4.72533">
        <ele>172</ele>
        <time>2018-02-18T12:05:26Z</time>
      </trkpt>
      <trkpt lat="45.93323" lon="4.72538">
        <ele>172</ele>
        <time>2018-02-18T12:05:27Z</time>
      </trkpt>
      <trkpt lat="45.93319" lon="4.72544">
        <ele>172</ele>
        <time>2018-02-18T12:05:28Z</time>
      </trkpt>
      <trkpt lat="45.93313" lon="4.72548">
        <ele>172</ele>
        <time>2018-02-18T12:05:29Z</time>
      </trkpt>
      <trkpt lat="45.93308" lon="4.72553">
        <ele>172</ele>
        <time>2018-02-18T12:05:30Z</time>
      </trkpt>
      <trkpt lat="45.93305" lon="4.72559">
        <ele>172</ele>
        <time>2018-02-18T12:05:31Z</time>
      </trkpt>
      <trkpt lat="45.933" lon="4.72564">
        <ele>172</ele>
        <time>2018-02-18T12:05:32Z</time>
      </trkpt>
      <trkpt lat="45.93295" lon="4.7257">
        <ele>172</ele>
        <time>2018-02-18T12:05:33Z</time>
      </trkpt>
      <trkpt lat="45.9329" lon="4.72576">
        <ele>171</ele>
        <time>2018-02-18T12:05:34Z</time>
      </trkpt>
      <trkpt lat="45.93285" lon="4.72582">
        <ele>171</ele>
        <time>2018-02-18T12:05:35Z</time>
      </trkpt>
      <trkpt lat="45.9328" lon="4.72587">
        <ele>170</ele>
        <time>2018-02-18T12:05:36Z</time>
      </trkpt>
      <trkpt lat="45.93276" lon="4.72592">
        <ele>170</ele>
        <time>2018-02-18T12:05:37Z</time>
      </trkpt>
      <trkpt lat="45.93271" lon="4.72598">
        <ele>170</ele>
        <time>2018-02-18T12:05:38Z</time>
      </trkpt>
      <trkpt lat="45.93266" lon="4.72603">
        <ele>170</ele>
        <time>2018-02-18T12:05:39Z</time>
      </trkpt>
      <trkpt lat="45.93261" lon="4.72607">
        <ele>170</ele>
        <time>2018-02-18T12:05:40Z</time>
      </trkpt>
      <trkpt lat="45.93257" lon="4.72612">
        <ele>170</ele>
        <time>2018-02-18T12:05:41Z</time>
      </trkpt>
      <trkpt lat="45.93253" lon="4.72618">
        <ele>170</ele>
        <time>2018-02-18T12:05:42Z</time>
      </trkpt>
      <trkpt lat="45.93248" lon="4.72623">
        <ele>170</ele>
        <time>2018-02-18T12:05:43Z</time>
      </trkpt>
      <trkpt lat="45.93244" lon="4.72628">
        <ele>170</ele>
        <time>2018-02-18T12:05:44Z</time>
      </trkpt>
      <trkpt lat="45.93239" lon="4.72632">
        <ele>170</ele>
        <time>2018-02-18T12:05:45Z</time>
      </trkpt>
      <trkpt lat="45.93235" lon="4.72638">
        <ele>170</ele>
        <time>2018-02-18T12:05:46Z</time>
      </trkpt>
      <trkpt lat="45.9323" lon="4.72643">
        <ele>170</ele>
        <time>2018-02-18T12:05:47Z</time>
      </trkpt>
      <trkpt lat="45.93226" lon="4.72648">
        <ele>170</ele>
        <time>2018-02-18T12:05:48Z</time>
      </trkpt>
      <trkpt lat="45.93222" lon="4.72654">
        <ele>170</ele>
        <time>2018-02-18T12:05:49Z</time>
      </trkpt>
      <trkpt lat="45.93217" lon="4.72659">
        <ele>170</ele>
        <time>2018-02-18T12:05:50Z</time>
      </trkpt>
      <trkpt lat="45.93214" lon="4.72664">
        <ele>170</ele>
        <time>2018-02-18T12:05:51Z</time>
      </trkpt>
      <trkpt lat="45.93209" lon="4.7267">
        <ele>169</ele>
        <time>2018-02-18T12:05:52Z</time>
      </trkpt>
      <trkpt lat="45.93204" lon="4.72676">
        <ele>169</ele>
        <time>2018-02-18T12:05:53Z</time>
      </trkpt>
      <trkpt lat="45.93199" lon="4.72681">
        <ele>169</ele>
        <time>2018-02-18T12:05:54Z</time>
      </trkpt>
      <trkpt lat="45.93195" lon="4.72687">
        <ele>169</ele>
        <time>2018-02-18T12:05:55Z</time>
      </trkpt>
      <trkpt lat="45.9319" lon="4.72692">
        <ele>169</ele>
        <time>2018-02-18T12:05:56Z</time>
      </trkpt>
      <trkpt lat="45.93186" lon="4.72698">
        <ele>169</ele>
        <time>2018-02-18T12:05:57Z</time>
      </trkpt>
      <trkpt lat="45.93181" lon="4.72704">
        <ele>169</ele>
        <time>2018-02-18T12:05:58Z</time>
      </trkpt>
      <trkpt lat="45.93177" lon="4.7271">
        <ele>169</ele>
        <time>2018-02-18T12:05:59Z</time>
      </trkpt>
      <trkpt lat="45.93173" lon="4.72717">
        <ele>170</ele>
        <time>2018-02-18T12:06:00Z</time>
      </trkpt>
      <trkpt lat="45.93168" lon="4.72723">
        <ele>170</ele>
        <time>2018-02-18T12:06:01Z</time>
      </trkpt>
      <trkpt lat="45.93163" lon="4.72728">
        <ele>170</ele>
        <time>2018-02-18T12:06:02Z</time>
      </trkpt>
      <trkpt lat="45.93157" lon="4.72733">
        <ele>170</ele>
        <time>2018-02-18T12:06:03Z</time>
      </trkpt>
      <trkpt lat="45.93152" lon="4.72738">
        <ele>170</ele>
        <time>2018-02-18T12:06:04Z</time>
      </trkpt>
      <trkpt lat="45.93147" lon="4.72743">
        <ele>170</ele>
        <time>2018-02-18T12:06:05Z</time>
      </trkpt>
      <trkpt lat="45.93142" lon="4.72749">
        <ele>170</ele>
        <time>2018-02-18T12:06:06Z</time>
      </trkpt>
      <trkpt lat="45.93138" lon="4.72755">
        <ele>171</ele>
        <time>2018-02-18T12:06:07Z</time>
      </trkpt>
      <trkpt lat="45.93133" lon="4.72759">
        <ele>171</ele>
        <time>2018-02-18T12:06:08Z</time>
      </trkpt>
      <trkpt lat="45.93128" lon="4.72765">
        <ele>171</ele>
        <time>2018-02-18T12:06:09Z</time>
      </trkpt>
      <trkpt lat="45.93123" lon="4.7277">
        <ele>171</ele>
        <time>2018-02-18T12:06:10Z</time>
      </trkpt>
      <trkpt lat="45.93119" lon="4.72775">
        <ele>171</ele>
        <time>2018-02-18T12:06:11Z</time>
      </trkpt>
      <trkpt lat="45.93115" lon="4.72781">
        <ele>171</ele>
        <time>2018-02-18T12:06:12Z</time>
      </trkpt>
      <trkpt lat="45.9311" lon="4.72787">
        <ele>171</ele>
        <time>2018-02-18T12:06:13Z</time>
      </trkpt>
      <trkpt lat="45.93106" lon="4.72792">
        <ele>171</ele>
        <time>2018-02-18T12:06:14Z</time>
      </trkpt>
      <trkpt lat="45.93102" lon="4.72799">
        <ele>171</ele>
        <time>2018-02-18T12:06:15Z</time>
      </trkpt>
      <trkpt lat="45.93096" lon="4.72804">
        <ele>171</ele>
        <time>2018-02-18T12:06:16Z</time>
      </trkpt>
      <trkpt lat="45.93091" lon="4.72809">
        <ele>172</ele>
        <time>2018-02-18T12:06:17Z</time>
      </trkpt>
      <trkpt lat="45.93086" lon="4.72815">
        <ele>172</ele>
        <time>2018-02-18T12:06:18Z</time>
      </trkpt>
      <trkpt lat="45.93081" lon="4.72821">
        <ele>173</ele>
        <time>2018-02-18T12:06:19Z</time>
      </trkpt>
      <trkpt lat="45.93076" lon="4.72824">
        <ele>173</ele>
        <time>2018-02-18T12:06:20Z</time>
      </trkpt>
      <trkpt lat="45.93073" lon="4.7283">
        <ele>173</ele>
        <time>2018-02-18T12:06:21Z</time>
      </trkpt>
      <trkpt lat="45.9307" lon="4.72825">
        <ele>173</ele>
        <time>2018-02-18T12:06:23Z</time>
      </trkpt>
      <trkpt lat="45.93065" lon="4.72839">
        <ele>173</ele>
        <time>2018-02-18T12:06:24Z</time>
      </trkpt>
      <trkpt lat="45.93061" lon="4.72849">
        <ele>172</ele>
        <time>2018-02-18T12:06:25Z</time>
      </trkpt>
      <trkpt lat="45.93059" lon="4.72858">
        <ele>172</ele>
        <time>2018-02-18T12:06:26Z</time>
      </trkpt>
      <trkpt lat="45.93045" lon="4.72861">
        <ele>172</ele>
        <time>2018-02-18T12:06:27Z</time>
      </trkpt>
      <trkpt lat="45.93041" lon="4.72866">
        <ele>172</ele>
        <time>2018-02-18T12:06:28Z</time>
      </trkpt>
      <trkpt lat="45.93036" lon="4.72872">
        <ele>172</ele>
        <time>2018-02-18T12:06:29Z</time>
      </trkpt>
      <trkpt lat="45.93032" lon="4.72877">
        <ele>172</ele>
        <time>2018-02-18T12:06:30Z</time>
      </trkpt>
      <trkpt lat="45.93027" lon="4.72883">
        <ele>172</ele>
        <time>2018-02-18T12:06:31Z</time>
      </trkpt>
      <trkpt lat="45.93022" lon="4.72886">
        <ele>172</ele>
        <time>2018-02-18T12:06:32Z</time>
      </trkpt>
      <trkpt lat="45.93017" lon="4.72893">
        <ele>172</ele>
        <time>2018-02-18T12:06:33Z</time>
      </trkpt>
      <trkpt lat="45.93013" lon="4.72899">
        <ele>172</ele>
        <time>2018-02-18T12:06:34Z</time>
      </trkpt>
      <trkpt lat="45.93008" lon="4.72904">
        <ele>171</ele>
        <time>2018-02-18T12:06:35Z</time>
      </trkpt>
      <trkpt lat="45.93004" lon="4.7291">
        <ele>171</ele>
        <time>2018-02-18T12:06:36Z</time>
      </trkpt>
      <trkpt lat="45.92999" lon="4.72916">
        <ele>171</ele>
        <time>2018-02-18T12:06:37Z</time>
      </trkpt>
      <trkpt lat="45.92995" lon="4.72922">
        <ele>171</ele>
        <time>2018-02-18T12:06:38Z</time>
      </trkpt>
      <trkpt lat="45.92989" lon="4.72927">
        <ele>171</ele>
        <time>2018-02-18T12:06:39Z</time>
      </trkpt>
      <trkpt lat="45.92985" lon="4.72933">
        <ele>171</ele>
        <time>2018-02-18T12:06:40Z</time>
      </trkpt>
      <trkpt lat="45.92981" lon="4.72938">
        <ele>171</ele>
        <time>2018-02-18T12:06:41Z</time>
      </trkpt>
      <trkpt lat="45.92975" lon="4.72944">
        <ele>171</ele>
        <time>2018-02-18T12:06:42Z</time>
      </trkpt>
      <trkpt lat="45.9297" lon="4.72949">
        <ele>171</ele>
        <time>2018-02-18T12:06:43Z</time>
      </trkpt>
      <trkpt lat="45.92965" lon="4.72955">
        <ele>171</ele>
        <time>2018-02-18T12:06:44Z</time>
      </trkpt>
      <trkpt lat="45.92961" lon="4.7296">
        <ele>171</ele>
        <time>2018-02-18T12:06:45Z</time>
      </trkpt>
      <trkpt lat="45.92956" lon="4.72965">
        <ele>171</ele>
        <time>2018-02-18T12:06:46Z</time>
      </trkpt>
      <trkpt lat="45.92951" lon="4.72971">
        <ele>171</ele>
        <time>2018-02-18T12:06:47Z</time>
      </trkpt>
      <trkpt lat="45.92947" lon="4.72977">
        <ele>171</ele>
        <time>2018-02-18T12:06:48Z</time>
      </trkpt>
      <trkpt lat="45.92942" lon="4.72982">
        <ele>171</ele>
        <time>2018-02-18T12:06:49Z</time>
      </trkpt>
      <trkpt lat="45.92936" lon="4.72989">
        <ele>171</ele>
        <time>2018-02-18T12:06:50Z</time>
      </trkpt>
      <trkpt lat="45.92931" lon="4.72995">
        <ele>172</ele>
        <time>2018-02-18T12:06:51Z</time>
      </trkpt>
      <trkpt lat="45.92927" lon="4.73003">
        <ele>172</ele>
        <time>2018-02-18T12:06:52Z</time>
      </trkpt>
      <trkpt lat="45.92922" lon="4.7301">
        <ele>172</ele>
        <time>2018-02-18T12:06:53Z</time>
      </trkpt>
      <trkpt lat="45.92918" lon="4.73015">
        <ele>172</ele>
        <time>2018-02-18T12:06:54Z</time>
      </trkpt>
      <trkpt lat="45.92913" lon="4.73021">
        <ele>172</ele>
        <time>2018-02-18T12:06:55Z</time>
      </trkpt>
      <trkpt lat="45.92908" lon="4.73028">
        <ele>172</ele>
        <time>2018-02-18T12:06:56Z</time>
      </trkpt>
      <trkpt lat="45.92904" lon="4.73034">
        <ele>172</ele>
        <time>2018-02-18T12:06:57Z</time>
      </trkpt>
      <trkpt lat="45.929" lon="4.73041">
        <ele>172</ele>
        <time>2018-02-18T12:06:58Z</time>
      </trkpt>
      <trkpt lat="45.92896" lon="4.73047">
        <ele>172</ele>
        <time>2018-02-18T12:06:59Z</time>
      </trkpt>
      <trkpt lat="45.92892" lon="4.73054">
        <ele>172</ele>
        <time>2018-02-18T12:07:00Z</time>
      </trkpt>
      <trkpt lat="45.92887" lon="4.73061">
        <ele>172</ele>
        <time>2018-02-18T12:07:01Z</time>
      </trkpt>
      <trkpt lat="45.92883" lon="4.73069">
        <ele>172</ele>
        <time>2018-02-18T12:07:02Z</time>
      </trkpt>
      <trkpt lat="45.92878" lon="4.73077">
        <ele>172</ele>
        <time>2018-02-18T12:07:03Z</time>
      </trkpt>
      <trkpt lat="45.92874" lon="4.73085">
        <ele>172</ele>
        <time>2018-02-18T12:07:04Z</time>
      </trkpt>
      <trkpt lat="45.92871" lon="4.73094">
        <ele>172</ele>
        <time>2018-02-18T12:07:05Z</time>
      </trkpt>
      <trkpt lat="45.92869" lon="4.73102">
        <ele>172</ele>
        <time>2018-02-18T12:07:06Z</time>
      </trkpt>
      <trkpt lat="45.92867" lon="4.7311">
        <ele>171</ele>
        <time>2018-02-18T12:07:07Z</time>
      </trkpt>
      <trkpt lat="45.92865" lon="4.73119">
        <ele>171</ele>
        <time>2018-02-18T12:07:08Z</time>
      </trkpt>
      <trkpt lat="45.92863" lon="4.73128">
        <ele>171</ele>
        <time>2018-02-18T12:07:09Z</time>
      </trkpt>
      <trkpt lat="45.92862" lon="4.73137">
        <ele>171</ele>
        <time>2018-02-18T12:07:10Z</time>
      </trkpt>
      <trkpt lat="45.9286" lon="4.73147">
        <ele>171</ele>
        <time>2018-02-18T12:07:11Z</time>
      </trkpt>
      <trkpt lat="45.92859" lon="4.73157">
        <ele>171</ele>
        <time>2018-02-18T12:07:12Z</time>
      </trkpt>
      <trkpt lat="45.92858" lon="4.73167">
        <ele>171</ele>
        <time>2018-02-18T12:07:13Z</time>
      </trkpt>
      <trkpt lat="45.92858" lon="4.73176">
        <ele>171</ele>
        <time>2018-02-18T12:07:14Z</time>
      </trkpt>
      <trkpt lat="45.92857" lon="4.73185">
        <ele>171</ele>
        <time>2018-02-18T12:07:15Z</time>
      </trkpt>
      <trkpt lat="45.92856" lon="4.73195">
        <ele>171</ele>
        <time>2018-02-18T12:07:16Z</time>
      </trkpt>
      <trkpt lat="45.92856" lon="4.73203">
        <ele>171</ele>
        <time>2018-02-18T12:07:17Z</time>
      </trkpt>
      <trkpt lat="45.92855" lon="4.73212">
        <ele>171</ele>
        <time>2018-02-18T12:07:18Z</time>
      </trkpt>
      <trkpt lat="45.92854" lon="4.73222">
        <ele>171</ele>
        <time>2018-02-18T12:07:19Z</time>
      </trkpt>
      <trkpt lat="45.92853" lon="4.73231">
        <ele>171</ele>
        <time>2018-02-18T12:07:20Z</time>
      </trkpt>
      <trkpt lat="45.92852" lon="4.73241">
        <ele>171</ele>
        <time>2018-02-18T12:07:21Z</time>
      </trkpt>
      <trkpt lat="45.92851" lon="4.73251">
        <ele>171</ele>
        <time>2018-02-18T12:07:22Z</time>
      </trkpt>
      <trkpt lat="45.92849" lon="4.73263">
        <ele>171</ele>
        <time>2018-02-18T12:07:23Z</time>
      </trkpt>
      <trkpt lat="45.92849" lon="4.73277">
        <ele>171</ele>
        <time>2018-02-18T12:07:24Z</time>
      </trkpt>
      <trkpt lat="45.92848" lon="4.73281">
        <ele>171</ele>
        <time>2018-02-18T12:07:25Z</time>
      </trkpt>
      <trkpt lat="45.92847" lon="4.73291">
        <ele>171</ele>
        <time>2018-02-18T12:07:26Z</time>
      </trkpt>
      <trkpt lat="45.92847" lon="4.73301">
        <ele>171</ele>
        <time>2018-02-18T12:07:27Z</time>
      </trkpt>
      <trkpt lat="45.92846" lon="4.7331">
        <ele>171</ele>
        <time>2018-02-18T12:07:28Z</time>
      </trkpt>
      <trkpt lat="45.92844" lon="4.73318">
        <ele>171</ele>
        <time>2018-02-18T12:07:29Z</time>
      </trkpt>
      <trkpt lat="45.92843" lon="4.73328">
        <ele>171</ele>
        <time>2018-02-18T12:07:30Z</time>
      </trkpt>
      <trkpt lat="45.92842" lon="4.73337">
        <ele>171</ele>
        <time>2018-02-18T12:07:31Z</time>
      </trkpt>
      <trkpt lat="45.92842" lon="4.73346">
        <ele>171</ele>
        <time>2018-02-18T12:07:32Z</time>
      </trkpt>
      <trkpt lat="45.9284" lon="4.73356">
        <ele>171</ele>
        <time>2018-02-18T12:07:33Z</time>
      </trkpt>
      <trkpt lat="45.92839" lon="4.73364">
        <ele>171</ele>
        <time>2018-02-18T12:07:34Z</time>
      </trkpt>
      <trkpt lat="45.92838" lon="4.73374">
        <ele>171</ele>
        <time>2018-02-18T12:07:35Z</time>
      </trkpt>
      <trkpt lat="45.92837" lon="4.73383">
        <ele>172</ele>
        <time>2018-02-18T12:07:36Z</time>
      </trkpt>
      <trkpt lat="45.92836" lon="4.73391">
        <ele>172</ele>
        <time>2018-02-18T12:07:37Z</time>
      </trkpt>
      <trkpt lat="45.92835" lon="4.73399">
        <ele>172</ele>
        <time>2018-02-18T12:07:38Z</time>
      </trkpt>
      <trkpt lat="45.92834" lon="4.73407">
        <ele>172</ele>
        <time>2018-02-18T12:07:39Z</time>
      </trkpt>
      <trkpt lat="45.92833" lon="4.73417">
        <ele>172</ele>
        <time>2018-02-18T12:07:40Z</time>
      </trkpt>
      <trkpt lat="45.92832" lon="4.73425">
        <ele>172</ele>
        <time>2018-02-18T12:07:41Z</time>
      </trkpt>
      <trkpt lat="45.92831" lon="4.73433">
        <ele>172</ele>
        <time>2018-02-18T12:07:42Z</time>
      </trkpt>
      <trkpt lat="45.9283" lon="4.73441">
        <ele>172</ele>
        <time>2018-02-18T12:07:43Z</time>
      </trkpt>
      <trkpt lat="45.92829" lon="4.7345">
        <ele>172</ele>
        <time>2018-02-18T12:07:44Z</time>
      </trkpt>
      <trkpt lat="45.92828" lon="4.73458">
        <ele>172</ele>
        <time>2018-02-18T12:07:45Z</time>
      </trkpt>
      <trkpt lat="45.92827" lon="4.73467">
        <ele>172</ele>
        <time>2018-02-18T12:07:46Z</time>
      </trkpt>
      <trkpt lat="45.92826" lon="4.73477">
        <ele>172</ele>
        <time>2018-02-18T12:07:47Z</time>
      </trkpt>
      <trkpt lat="45.92825" lon="4.73485">
        <ele>172</ele>
        <time>2018-02-18T12:07:48Z</time>
      </trkpt>
      <trkpt lat="45.92824" lon="4.73494">
        <ele>172</ele>
        <time>2018-02-18T12:07:49Z</time>
      </trkpt>
      <trkpt lat="45.92822" lon="4.73502">
        <ele>172</ele>
        <time>2018-02-18T12:07:50Z</time>
      </trkpt>
      <trkpt lat="45.92822" lon="4.7351">
        <ele>172</ele>
        <time>2018-02-18T12:07:51Z</time>
      </trkpt>
      <trkpt lat="45.92821" lon="4.73519">
        <ele>172</ele>
        <time>2018-02-18T12:07:52Z</time>
      </trkpt>
      <trkpt lat="45.9282" lon="4.73528">
        <ele>172</ele>
        <time>2018-02-18T12:07:53Z</time>
      </trkpt>
      <trkpt lat="45.92819" lon="4.73537">
        <ele>172</ele>
        <time>2018-02-18T12:07:54Z</time>
      </trkpt>
      <trkpt lat="45.92817" lon="4.73546">
        <ele>171</ele>
        <time>2018-02-18T12:07:55Z</time>
      </trkpt>
      <trkpt lat="45.92816" lon="4.73554">
        <ele>171</ele>
        <time>2018-02-18T12:07:56Z</time>
      </trkpt>
      <trkpt lat="45.92815" lon="4.73562">
        <ele>171</ele>
        <time>2018-02-18T12:07:57Z</time>
      </trkpt>
      <trkpt lat="45.92814" lon="4.73572">
        <ele>171</ele>
        <time>2018-02-18T12:07:58Z</time>
      </trkpt>
      <trkpt lat="45.92813" lon="4.7358">
        <ele>171</ele>
        <time>2018-02-18T12:07:59Z</time>
      </trkpt>
      <trkpt lat="45.92813" lon="4.73589">
        <ele>171</ele>
        <time>2018-02-18T12:08:00Z</time>
      </trkpt>
      <trkpt lat="45.92813" lon="4.73598">
        <ele>172</ele>
        <time>2018-02-18T12:08:01Z</time>
      </trkpt>
      <trkpt lat="45.92813" lon="4.73606">
        <ele>172</ele>
        <time>2018-02-18T12:08:02Z</time>
      </trkpt>
      <trkpt lat="45.92813" lon="4.73614">
        <ele>172</ele>
        <time>2018-02-18T12:08:03Z</time>
      </trkpt>
      <trkpt lat="45.92812" lon="4.7362">
        <ele>172</ele>
        <time>2018-02-18T12:08:04Z</time>
      </trkpt>
      <trkpt lat="45.9281" lon="4.73627">
        <ele>172</ele>
        <time>2018-02-18T12:08:05Z</time>
      </trkpt>
      <trkpt lat="45.92807" lon="4.73633">
        <ele>172</ele>
        <time>2018-02-18T12:08:06Z</time>
      </trkpt>
      <trkpt lat="45.92804" lon="4.73639">
        <ele>172</ele>
        <time>2018-02-18T12:08:07Z</time>
      </trkpt>
      <trkpt lat="45.92802" lon="4.73645">
        <ele>172</ele>
        <time>2018-02-18T12:08:08Z</time>
      </trkpt>
      <trkpt lat="45.92798" lon="4.73652">
        <ele>172</ele>
        <time>2018-02-18T12:08:09Z</time>
      </trkpt>
      <trkpt lat="45.92797" lon="4.73659">
        <ele>172</ele>
        <time>2018-02-18T12:08:10Z</time>
      </trkpt>
      <trkpt lat="45.92795" lon="4.73666">
        <ele>172</ele>
        <time>2018-02-18T12:08:11Z</time>
      </trkpt>
      <trkpt lat="45.92794" lon="4.73673">
        <ele>172</ele>
        <time>2018-02-18T12:08:12Z</time>
      </trkpt>
      <trkpt lat="45.92792" lon="4.7368">
        <ele>172</ele>
        <time>2018-02-18T12:08:13Z</time>
      </trkpt>
      <trkpt lat="45.9279" lon="4.73686">
        <ele>172</ele>
        <time>2018-02-18T12:08:14Z</time>
      </trkpt>
      <trkpt lat="45.92787" lon="4.73693">
        <ele>172</ele>
        <time>2018-02-18T12:08:15Z</time>
      </trkpt>
      <trkpt lat="45.92785" lon="4.737">
        <ele>172</ele>
        <time>2018-02-18T12:08:16Z</time>
      </trkpt>
      <trkpt lat="45.92784" lon="4.73707">
        <ele>172</ele>
        <time>2018-02-18T12:08:17Z</time>
      </trkpt>
      <trkpt lat="45.92784" lon="4.73713">
        <ele>172</ele>
        <time>2018-02-18T12:08:18Z</time>
      </trkpt>
      <trkpt lat="45.9278" lon="4.73725">
        <ele>172</ele>
        <time>2018-02-18T12:08:20Z</time>
      </trkpt>
      <trkpt lat="45.92778" lon="4.73728">
        <ele>172</ele>
        <time>2018-02-18T12:08:21Z</time>
      </trkpt>
      <trkpt lat="45.9277" lon="4.73728">
        <ele>172</ele>
        <time>2018-02-18T12:08:23Z</time>
      </trkpt>
      <trkpt lat="45.92766" lon="4.73727">
        <ele>172</ele>
        <time>2018-02-18T12:08:24Z</time>
      </trkpt>
      <trkpt lat="45.92763" lon="4.73726">
        <ele>172</ele>
        <time>2018-02-18T12:08:25Z</time>
      </trkpt>
      <trkpt lat="45.92757" lon="4.73724">
        <ele>172</ele>
        <time>2018-02-18T12:08:26Z</time>
      </trkpt>
      <trkpt lat="45.92749" lon="4.73721">
        <ele>173</ele>
        <time>2018-02-18T12:08:28Z</time>
      </trkpt>
      <trkpt lat="45.92745" lon="4.7372">
        <ele>173</ele>
        <time>2018-02-18T12:08:29Z</time>
      </trkpt>
      <trkpt lat="45.9274" lon="4.73719">
        <ele>173</ele>
        <time>2018-02-18T12:08:30Z</time>
      </trkpt>
      <trkpt lat="45.92734" lon="4.7372">
        <ele>173</ele>
        <time>2018-02-18T12:08:31Z</time>
      </trkpt>
      <trkpt lat="45.92729" lon="4.73719">
        <ele>173</ele>
        <time>2018-02-18T12:08:32Z</time>
      </trkpt>
      <trkpt lat="45.92723" lon="4.73718">
        <ele>173</ele>
        <time>2018-02-18T12:08:33Z</time>
      </trkpt>
      <trkpt lat="45.92718" lon="4.73716">
        <ele>173</ele>
        <time>2018-02-18T12:08:34Z</time>
      </trkpt>
      <trkpt lat="45.92713" lon="4.73716">
        <ele>173</ele>
        <time>2018-02-18T12:08:35Z</time>
      </trkpt>
      <trkpt lat="45.92708" lon="4.73715">
        <ele>173</ele>
        <time>2018-02-18T12:08:36Z</time>
      </trkpt>
      <trkpt lat="45.92704" lon="4.73714">
        <ele>173</ele>
        <time>2018-02-18T12:08:37Z</time>
      </trkpt>
      <trkpt lat="45.92699" lon="4.73712">
        <ele>173</ele>
        <time>2018-02-18T12:08:38Z</time>
      </trkpt>
      <trkpt lat="45.92695" lon="4.7371">
        <ele>173</ele>
        <time>2018-02-18T12:08:39Z</time>
      </trkpt>
      <trkpt lat="45.9269" lon="4.73709">
        <ele>173</ele>
        <time>2018-02-18T12:08:40Z</time>
      </trkpt>
      <trkpt lat="45.92686" lon="4.73708">
        <ele>173</ele>
        <time>2018-02-18T12:08:41Z</time>
      </trkpt>
      <trkpt lat="45.92681" lon="4.73707">
        <ele>173</ele>
        <time>2018-02-18T12:08:42Z</time>
      </trkpt>
      <trkpt lat="45.92676" lon="4.73705">
        <ele>173</ele>
        <time>2018-02-18T12:08:43Z</time>
      </trkpt>
      <trkpt lat="45.92671" lon="4.73703">
        <ele>174</ele>
        <time>2018-02-18T12:08:44Z</time>
      </trkpt>
      <trkpt lat="45.92665" lon="4.737">
        <ele>173</ele>
        <time>2018-02-18T12:08:45Z</time>
      </trkpt>
      <trkpt lat="45.92662" lon="4.73697">
        <ele>173</ele>
        <time>2018-02-18T12:08:46Z</time>
      </trkpt>
      <trkpt lat="45.92657" lon="4.73693">
        <ele>173</ele>
        <time>2018-02-18T12:08:47Z</time>
      </trkpt>
      <trkpt lat="45.92653" lon="4.73689">
        <ele>173</ele>
        <time>2018-02-18T12:08:48Z</time>
      </trkpt>
      <trkpt lat="45.92647" lon="4.73683">
        <ele>173</ele>
        <time>2018-02-18T12:08:49Z</time>
      </trkpt>
      <trkpt lat="45.92643" lon="4.73677">
        <ele>173</ele>
        <time>2018-02-18T12:08:50Z</time>
      </trkpt>
      <trkpt lat="45.9264" lon="4.73672">
        <ele>173</ele>
        <time>2018-02-18T12:08:51Z</time>
      </trkpt>
      <trkpt lat="45.92637" lon="4.73668">
        <ele>173</ele>
        <time>2018-02-18T12:08:52Z</time>
      </trkpt>
      <trkpt lat="45.92634" lon="4.73662">
        <ele>173</ele>
        <time>2018-02-18T12:08:53Z</time>
      </trkpt>
      <trkpt lat="45.9263" lon="4.73656">
        <ele>173</ele>
        <time>2018-02-18T12:08:54Z</time>
      </trkpt>
      <trkpt lat="45.92629" lon="4.73649">
        <ele>173</ele>
        <time>2018-02-18T12:08:55Z</time>
      </trkpt>
      <trkpt lat="45.92624" lon="4.73644">
        <ele>173</ele>
        <time>2018-02-18T12:08:56Z</time>
      </trkpt>
      <trkpt lat="45.92621" lon="4.73639">
        <ele>173</ele>
        <time>2018-02-18T12:08:57Z</time>
      </trkpt>
      <trkpt lat="45.92617" lon="4.73633">
        <ele>173</ele>
        <time>2018-02-18T12:08:58Z</time>
      </trkpt>
      <trkpt lat="45.92614" lon="4.73629">
        <ele>173</ele>
        <time>2018-02-18T12:08:59Z</time>
      </trkpt>
      <trkpt lat="45.92609" lon="4.73626">
        <ele>173</ele>
        <time>2018-02-18T12:09:00Z</time>
      </trkpt>
      <trkpt lat="45.92604" lon="4.73625">
        <ele>173</ele>
        <time>2018-02-18T12:09:01Z</time>
      </trkpt>
      <trkpt lat="45.92599" lon="4.73625">
        <ele>173</ele>
        <time>2018-02-18T12:09:02Z</time>
      </trkpt>
      <trkpt lat="45.92595" lon="4.73626">
        <ele>172</ele>
        <time>2018-02-18T12:09:03Z</time>
      </trkpt>
      <trkpt lat="45.92588" lon="4.73626">
        <ele>172</ele>
        <time>2018-02-18T12:09:04Z</time>
      </trkpt>
      <trkpt lat="45.92583" lon="4.73627">
        <ele>173</ele>
        <time>2018-02-18T12:09:05Z</time>
      </trkpt>
      <trkpt lat="45.92577" lon="4.73628">
        <ele>173</ele>
        <time>2018-02-18T12:09:06Z</time>
      </trkpt>
      <trkpt lat="45.92572" lon="4.73629">
        <ele>173</ele>
        <time>2018-02-18T12:09:07Z</time>
      </trkpt>
      <trkpt lat="45.92566" lon="4.73631">
        <ele>173</ele>
        <time>2018-02-18T12:09:08Z</time>
      </trkpt>
      <trkpt lat="45.92561" lon="4.7363">
        <ele>173</ele>
        <time>2018-02-18T12:09:09Z</time>
      </trkpt>
      <trkpt lat="45.92555" lon="4.73632">
        <ele>173</ele>
        <time>2018-02-18T12:09:10Z</time>
      </trkpt>
      <trkpt lat="45.9255" lon="4.73633">
        <ele>173</ele>
        <time>2018-02-18T12:09:11Z</time>
      </trkpt>
      <trkpt lat="45.92543" lon="4.73635">
        <ele>173</ele>
        <time>2018-02-18T12:09:12Z</time>
      </trkpt>
      <trkpt lat="45.92538" lon="4.73636">
        <ele>173</ele>
        <time>2018-02-18T12:09:13Z</time>
      </trkpt>
      <trkpt lat="45.92531" lon="4.73638">
        <ele>173</ele>
        <time>2018-02-18T12:09:14Z</time>
      </trkpt>
      <trkpt lat="45.92526" lon="4.73638">
        <ele>173</ele>
        <time>2018-02-18T12:09:15Z</time>
      </trkpt>
      <trkpt lat="45.92521" lon="4.7364">
        <ele>173</ele>
        <time>2018-02-18T12:09:16Z</time>
      </trkpt>
      <trkpt lat="45.92516" lon="4.7364">
        <ele>173</ele>
        <time>2018-02-18T12:09:17Z</time>
      </trkpt>
      <trkpt lat="45.9251" lon="4.73639">
        <ele>174</ele>
        <time>2018-02-18T12:09:18Z</time>
      </trkpt>
      <trkpt lat="45.92506" lon="4.73639">
        <ele>174</ele>
        <time>2018-02-18T12:09:19Z</time>
      </trkpt>
      <trkpt lat="45.92498" lon="4.73639">
        <ele>174</ele>
        <time>2018-02-18T12:09:21Z</time>
      </trkpt>
      <trkpt lat="45.92494" lon="4.73638">
        <ele>174</ele>
        <time>2018-02-18T12:09:22Z</time>
      </trkpt>
      <trkpt lat="45.92485" lon="4.73639">
        <ele>174</ele>
        <time>2018-02-18T12:09:24Z</time>
      </trkpt>
      <trkpt lat="45.92481" lon="4.7364">
        <ele>174</ele>
        <time>2018-02-18T12:09:25Z</time>
      </trkpt>
      <trkpt lat="45.92473" lon="4.73645">
        <ele>174</ele>
        <time>2018-02-18T12:09:27Z</time>
      </trkpt>
      <trkpt lat="45.9247" lon="4.73649">
        <ele>174</ele>
        <time>2018-02-18T12:09:28Z</time>
      </trkpt>
      <trkpt lat="45.92467" lon="4.73661">
        <ele>174</ele>
        <time>2018-02-18T12:09:30Z</time>
      </trkpt>
      <trkpt lat="45.92467" lon="4.73667">
        <ele>174</ele>
        <time>2018-02-18T12:09:31Z</time>
      </trkpt>
      <trkpt lat="45.92466" lon="4.73678">
        <ele>174</ele>
        <time>2018-02-18T12:09:33Z</time>
      </trkpt>
      <trkpt lat="45.92466" lon="4.73684">
        <ele>174</ele>
        <time>2018-02-18T12:09:34Z</time>
      </trkpt>
      <trkpt lat="45.92465" lon="4.73694">
        <ele>174</ele>
        <time>2018-02-18T12:09:36Z</time>
      </trkpt>
      <trkpt lat="45.92465" lon="4.73697">
        <ele>174</ele>
        <time>2018-02-18T12:09:37Z</time>
      </trkpt>
      <trkpt lat="45.92464" lon="4.7371">
        <ele>174</ele>
        <time>2018-02-18T12:09:54Z</time>
      </trkpt>
      <trkpt lat="45.92463" lon="4.7371">
        <ele>174</ele>
        <time>2018-02-18T12:09:55Z</time>
      </trkpt>
      <trkpt lat="45.9246" lon="4.73713">
        <ele>174</ele>
        <time>2018-02-18T12:10:08Z</time>
      </trkpt>
      <trkpt lat="45.9246" lon="4.73713">
        <ele>174</ele>
        <time>2018-02-18T12:10:09Z</time>
      </trkpt>
      <trkpt lat="45.92456" lon="4.73716">
        <ele>174</ele>
        <time>2018-02-18T12:10:26.754Z</time>
      </trkpt>
    </trkseg>
  </trk>
</gpx>